<?xml version="1.0" encoding="UTF-8" standalone="no" ?>
<gpx xmlns="http://www.topografix.com/GPX/1/1" xmlns:xsi="http://www.w3.org/2001/XMLSchema-instance" xsi:schemaLocation="http://www.topografix.com/GPX/1/1 http://www.topografix.com/GPX/1/1/gpx.xsd" version="1.1" creator="VisuGPX - https://www.visugpx.com">
  <metadata>
    <name>Rando Port d'Envaux - 25.06.2017</name>
    <desc><![CDATA[Magnifique randonnée organisée à Port d'Envaux par le club de basket. Bravo !]]></desc>
  </metadata>
  <trk>
    <name><![CDATA[25 juin 2017 08:37:46]]></name>
    <trkseg>
      <trkpt lat="45.83505" lon="-0.68524">
        <ele>17</ele>
        <time>2017-06-25T06:37:49Z</time>
      </trkpt>
      <trkpt lat="45.83504" lon="-0.68525">
        <ele>17</ele>
        <time>2017-06-25T06:37:51Z</time>
      </trkpt>
      <trkpt lat="45.83503" lon="-0.68526">
        <ele>17</ele>
        <time>2017-06-25T06:37:52Z</time>
      </trkpt>
      <trkpt lat="45.83502" lon="-0.68527">
        <ele>17</ele>
        <time>2017-06-25T06:37:53Z</time>
      </trkpt>
      <trkpt lat="45.83501" lon="-0.68529">
        <ele>17</ele>
        <time>2017-06-25T06:37:54Z</time>
      </trkpt>
      <trkpt lat="45.83501" lon="-0.68529">
        <ele>17</ele>
        <time>2017-06-25T06:37:55Z</time>
      </trkpt>
      <trkpt lat="45.835" lon="-0.6853">
        <ele>17</ele>
        <time>2017-06-25T06:37:56Z</time>
      </trkpt>
      <trkpt lat="45.83499" lon="-0.68532">
        <ele>17</ele>
        <time>2017-06-25T06:37:58Z</time>
      </trkpt>
      <trkpt lat="45.83498" lon="-0.68534">
        <ele>17</ele>
        <time>2017-06-25T06:38:00Z</time>
      </trkpt>
      <trkpt lat="45.83497" lon="-0.68535">
        <ele>17</ele>
        <time>2017-06-25T06:38:02Z</time>
      </trkpt>
      <trkpt lat="45.83495" lon="-0.68537">
        <ele>17</ele>
        <time>2017-06-25T06:38:04Z</time>
      </trkpt>
      <trkpt lat="45.83494" lon="-0.68538">
        <ele>17</ele>
        <time>2017-06-25T06:38:05Z</time>
      </trkpt>
      <trkpt lat="45.83493" lon="-0.68539">
        <ele>17</ele>
        <time>2017-06-25T06:38:06Z</time>
      </trkpt>
      <trkpt lat="45.83492" lon="-0.68541">
        <ele>17</ele>
        <time>2017-06-25T06:38:07Z</time>
      </trkpt>
      <trkpt lat="45.83491" lon="-0.68542">
        <ele>18</ele>
        <time>2017-06-25T06:38:08Z</time>
      </trkpt>
      <trkpt lat="45.83491" lon="-0.68544">
        <ele>18</ele>
        <time>2017-06-25T06:38:09Z</time>
      </trkpt>
      <trkpt lat="45.83491" lon="-0.68545">
        <ele>18</ele>
        <time>2017-06-25T06:38:10Z</time>
      </trkpt>
      <trkpt lat="45.83491" lon="-0.68547">
        <ele>18</ele>
        <time>2017-06-25T06:38:11Z</time>
      </trkpt>
      <trkpt lat="45.8349" lon="-0.68549">
        <ele>18</ele>
        <time>2017-06-25T06:38:13Z</time>
      </trkpt>
      <trkpt lat="45.8349" lon="-0.6855">
        <ele>18</ele>
        <time>2017-06-25T06:38:14Z</time>
      </trkpt>
      <trkpt lat="45.8349" lon="-0.68553">
        <ele>18</ele>
        <time>2017-06-25T06:38:15Z</time>
      </trkpt>
      <trkpt lat="45.8349" lon="-0.68555">
        <ele>18</ele>
        <time>2017-06-25T06:38:16Z</time>
      </trkpt>
      <trkpt lat="45.8349" lon="-0.68557">
        <ele>18</ele>
        <time>2017-06-25T06:38:17Z</time>
      </trkpt>
      <trkpt lat="45.8349" lon="-0.68559">
        <ele>18</ele>
        <time>2017-06-25T06:38:18Z</time>
      </trkpt>
      <trkpt lat="45.8349" lon="-0.6856">
        <ele>18</ele>
        <time>2017-06-25T06:38:19Z</time>
      </trkpt>
      <trkpt lat="45.8349" lon="-0.68562">
        <ele>18</ele>
        <time>2017-06-25T06:38:20Z</time>
      </trkpt>
      <trkpt lat="45.8349" lon="-0.68564">
        <ele>18</ele>
        <time>2017-06-25T06:38:21Z</time>
      </trkpt>
      <trkpt lat="45.8349" lon="-0.68565">
        <ele>18</ele>
        <time>2017-06-25T06:38:22Z</time>
      </trkpt>
      <trkpt lat="45.8349" lon="-0.68567">
        <ele>18</ele>
        <time>2017-06-25T06:38:23Z</time>
      </trkpt>
      <trkpt lat="45.83489" lon="-0.68569">
        <ele>18</ele>
        <time>2017-06-25T06:38:24Z</time>
      </trkpt>
      <trkpt lat="45.83489" lon="-0.68572">
        <ele>18</ele>
        <time>2017-06-25T06:38:26Z</time>
      </trkpt>
      <trkpt lat="45.83489" lon="-0.68573">
        <ele>18</ele>
        <time>2017-06-25T06:38:27Z</time>
      </trkpt>
      <trkpt lat="45.83489" lon="-0.68575">
        <ele>18</ele>
        <time>2017-06-25T06:38:29Z</time>
      </trkpt>
      <trkpt lat="45.83489" lon="-0.68577">
        <ele>18</ele>
        <time>2017-06-25T06:38:31Z</time>
      </trkpt>
      <trkpt lat="45.83489" lon="-0.68579">
        <ele>18</ele>
        <time>2017-06-25T06:38:35Z</time>
      </trkpt>
      <trkpt lat="45.83489" lon="-0.68581">
        <ele>18</ele>
        <time>2017-06-25T06:38:36Z</time>
      </trkpt>
      <trkpt lat="45.83489" lon="-0.68582">
        <ele>18</ele>
        <time>2017-06-25T06:38:37Z</time>
      </trkpt>
      <trkpt lat="45.83489" lon="-0.68584">
        <ele>18</ele>
        <time>2017-06-25T06:38:38Z</time>
      </trkpt>
      <trkpt lat="45.83489" lon="-0.68585">
        <ele>18</ele>
        <time>2017-06-25T06:38:39Z</time>
      </trkpt>
      <trkpt lat="45.83489" lon="-0.68587">
        <ele>18</ele>
        <time>2017-06-25T06:38:40Z</time>
      </trkpt>
      <trkpt lat="45.83489" lon="-0.68589">
        <ele>18</ele>
        <time>2017-06-25T06:38:41Z</time>
      </trkpt>
      <trkpt lat="45.83489" lon="-0.6859">
        <ele>18</ele>
        <time>2017-06-25T06:38:42Z</time>
      </trkpt>
      <trkpt lat="45.83489" lon="-0.68592">
        <ele>18</ele>
        <time>2017-06-25T06:38:43Z</time>
      </trkpt>
      <trkpt lat="45.83486" lon="-0.68596">
        <ele>18</ele>
        <time>2017-06-25T06:38:47Z</time>
      </trkpt>
      <trkpt lat="45.83485" lon="-0.68597">
        <ele>18</ele>
        <time>2017-06-25T06:38:48Z</time>
      </trkpt>
      <trkpt lat="45.83484" lon="-0.68598">
        <ele>18</ele>
        <time>2017-06-25T06:38:50Z</time>
      </trkpt>
      <trkpt lat="45.83484" lon="-0.686">
        <ele>18</ele>
        <time>2017-06-25T06:38:51Z</time>
      </trkpt>
      <trkpt lat="45.83483" lon="-0.68602">
        <ele>18</ele>
        <time>2017-06-25T06:38:52Z</time>
      </trkpt>
      <trkpt lat="45.83482" lon="-0.68603">
        <ele>18</ele>
        <time>2017-06-25T06:38:53Z</time>
      </trkpt>
      <trkpt lat="45.83481" lon="-0.68604">
        <ele>18</ele>
        <time>2017-06-25T06:38:56Z</time>
      </trkpt>
      <trkpt lat="45.83481" lon="-0.68607">
        <ele>18</ele>
        <time>2017-06-25T06:38:58Z</time>
      </trkpt>
      <trkpt lat="45.8348" lon="-0.6861">
        <ele>18</ele>
        <time>2017-06-25T06:39:00Z</time>
      </trkpt>
      <trkpt lat="45.83479" lon="-0.68612">
        <ele>18</ele>
        <time>2017-06-25T06:39:01Z</time>
      </trkpt>
      <trkpt lat="45.83479" lon="-0.68614">
        <ele>18</ele>
        <time>2017-06-25T06:39:02Z</time>
      </trkpt>
      <trkpt lat="45.83478" lon="-0.68615">
        <ele>18</ele>
        <time>2017-06-25T06:39:03Z</time>
      </trkpt>
      <trkpt lat="45.83477" lon="-0.68617">
        <ele>18</ele>
        <time>2017-06-25T06:39:04Z</time>
      </trkpt>
      <trkpt lat="45.83476" lon="-0.68619">
        <ele>18</ele>
        <time>2017-06-25T06:39:05Z</time>
      </trkpt>
      <trkpt lat="45.83476" lon="-0.68621">
        <ele>18</ele>
        <time>2017-06-25T06:39:06Z</time>
      </trkpt>
      <trkpt lat="45.83475" lon="-0.68622">
        <ele>18</ele>
        <time>2017-06-25T06:39:07Z</time>
      </trkpt>
      <trkpt lat="45.83474" lon="-0.68623">
        <ele>18</ele>
        <time>2017-06-25T06:39:08Z</time>
      </trkpt>
      <trkpt lat="45.83474" lon="-0.68625">
        <ele>18</ele>
        <time>2017-06-25T06:39:09Z</time>
      </trkpt>
      <trkpt lat="45.83472" lon="-0.68627">
        <ele>18</ele>
        <time>2017-06-25T06:39:11Z</time>
      </trkpt>
      <trkpt lat="45.83471" lon="-0.68628">
        <ele>18</ele>
        <time>2017-06-25T06:39:13Z</time>
      </trkpt>
      <trkpt lat="45.83471" lon="-0.68629">
        <ele>18</ele>
        <time>2017-06-25T06:39:14Z</time>
      </trkpt>
      <trkpt lat="45.8347" lon="-0.68631">
        <ele>18</ele>
        <time>2017-06-25T06:39:15Z</time>
      </trkpt>
      <trkpt lat="45.83469" lon="-0.68633">
        <ele>18</ele>
        <time>2017-06-25T06:39:16Z</time>
      </trkpt>
      <trkpt lat="45.83469" lon="-0.68634">
        <ele>18</ele>
        <time>2017-06-25T06:39:17Z</time>
      </trkpt>
      <trkpt lat="45.83468" lon="-0.68636">
        <ele>18</ele>
        <time>2017-06-25T06:39:18Z</time>
      </trkpt>
      <trkpt lat="45.83467" lon="-0.68637">
        <ele>18</ele>
        <time>2017-06-25T06:39:19Z</time>
      </trkpt>
      <trkpt lat="45.83466" lon="-0.68639">
        <ele>18</ele>
        <time>2017-06-25T06:39:20Z</time>
      </trkpt>
      <trkpt lat="45.83465" lon="-0.68641">
        <ele>18</ele>
        <time>2017-06-25T06:39:21Z</time>
      </trkpt>
      <trkpt lat="45.83464" lon="-0.68643">
        <ele>18</ele>
        <time>2017-06-25T06:39:22Z</time>
      </trkpt>
      <trkpt lat="45.83463" lon="-0.68645">
        <ele>18</ele>
        <time>2017-06-25T06:39:23Z</time>
      </trkpt>
      <trkpt lat="45.83462" lon="-0.68646">
        <ele>18</ele>
        <time>2017-06-25T06:39:24Z</time>
      </trkpt>
      <trkpt lat="45.83461" lon="-0.68648">
        <ele>18</ele>
        <time>2017-06-25T06:39:25Z</time>
      </trkpt>
      <trkpt lat="45.8346" lon="-0.6865">
        <ele>18</ele>
        <time>2017-06-25T06:39:26Z</time>
      </trkpt>
      <trkpt lat="45.83459" lon="-0.68652">
        <ele>18</ele>
        <time>2017-06-25T06:39:27Z</time>
      </trkpt>
      <trkpt lat="45.83458" lon="-0.68653">
        <ele>18</ele>
        <time>2017-06-25T06:39:28Z</time>
      </trkpt>
      <trkpt lat="45.83457" lon="-0.68655">
        <ele>18</ele>
        <time>2017-06-25T06:39:29Z</time>
      </trkpt>
      <trkpt lat="45.83456" lon="-0.68657">
        <ele>18</ele>
        <time>2017-06-25T06:39:30Z</time>
      </trkpt>
      <trkpt lat="45.83455" lon="-0.68658">
        <ele>18</ele>
        <time>2017-06-25T06:39:31Z</time>
      </trkpt>
      <trkpt lat="45.83454" lon="-0.6866">
        <ele>18</ele>
        <time>2017-06-25T06:39:32Z</time>
      </trkpt>
      <trkpt lat="45.83453" lon="-0.68661">
        <ele>18</ele>
        <time>2017-06-25T06:39:33Z</time>
      </trkpt>
      <trkpt lat="45.83452" lon="-0.68662">
        <ele>18</ele>
        <time>2017-06-25T06:39:34Z</time>
      </trkpt>
      <trkpt lat="45.83451" lon="-0.68663">
        <ele>18</ele>
        <time>2017-06-25T06:39:35Z</time>
      </trkpt>
      <trkpt lat="45.8345" lon="-0.68664">
        <ele>18</ele>
        <time>2017-06-25T06:39:36Z</time>
      </trkpt>
      <trkpt lat="45.8345" lon="-0.68665">
        <ele>18</ele>
        <time>2017-06-25T06:39:37Z</time>
      </trkpt>
      <trkpt lat="45.83449" lon="-0.68666">
        <ele>18</ele>
        <time>2017-06-25T06:39:38Z</time>
      </trkpt>
      <trkpt lat="45.83448" lon="-0.68667">
        <ele>18</ele>
        <time>2017-06-25T06:39:40Z</time>
      </trkpt>
      <trkpt lat="45.83447" lon="-0.68669">
        <ele>18</ele>
        <time>2017-06-25T06:39:42Z</time>
      </trkpt>
      <trkpt lat="45.83445" lon="-0.6867">
        <ele>18</ele>
        <time>2017-06-25T06:39:44Z</time>
      </trkpt>
      <trkpt lat="45.83444" lon="-0.68671">
        <ele>18</ele>
        <time>2017-06-25T06:39:45Z</time>
      </trkpt>
      <trkpt lat="45.83444" lon="-0.68672">
        <ele>19</ele>
        <time>2017-06-25T06:39:46Z</time>
      </trkpt>
      <trkpt lat="45.83443" lon="-0.68672">
        <ele>19</ele>
        <time>2017-06-25T06:39:47Z</time>
      </trkpt>
      <trkpt lat="45.83442" lon="-0.68673">
        <ele>19</ele>
        <time>2017-06-25T06:39:48Z</time>
      </trkpt>
      <trkpt lat="45.8344" lon="-0.68674">
        <ele>19</ele>
        <time>2017-06-25T06:39:49Z</time>
      </trkpt>
      <trkpt lat="45.83439" lon="-0.68674">
        <ele>19</ele>
        <time>2017-06-25T06:39:50Z</time>
      </trkpt>
      <trkpt lat="45.83438" lon="-0.68675">
        <ele>19</ele>
        <time>2017-06-25T06:39:51Z</time>
      </trkpt>
      <trkpt lat="45.83437" lon="-0.68676">
        <ele>19</ele>
        <time>2017-06-25T06:39:52Z</time>
      </trkpt>
      <trkpt lat="45.83435" lon="-0.68677">
        <ele>19</ele>
        <time>2017-06-25T06:39:53Z</time>
      </trkpt>
      <trkpt lat="45.83434" lon="-0.68677">
        <ele>19</ele>
        <time>2017-06-25T06:39:54Z</time>
      </trkpt>
      <trkpt lat="45.83433" lon="-0.68678">
        <ele>19</ele>
        <time>2017-06-25T06:39:55Z</time>
      </trkpt>
      <trkpt lat="45.83432" lon="-0.68679">
        <ele>19</ele>
        <time>2017-06-25T06:39:56Z</time>
      </trkpt>
      <trkpt lat="45.83431" lon="-0.6868">
        <ele>19</ele>
        <time>2017-06-25T06:39:57Z</time>
      </trkpt>
      <trkpt lat="45.8343" lon="-0.68682">
        <ele>19</ele>
        <time>2017-06-25T06:39:58Z</time>
      </trkpt>
      <trkpt lat="45.83429" lon="-0.68683">
        <ele>19</ele>
        <time>2017-06-25T06:39:59Z</time>
      </trkpt>
      <trkpt lat="45.83428" lon="-0.68684">
        <ele>19</ele>
        <time>2017-06-25T06:40:00Z</time>
      </trkpt>
      <trkpt lat="45.83427" lon="-0.68684">
        <ele>19</ele>
        <time>2017-06-25T06:40:01Z</time>
      </trkpt>
      <trkpt lat="45.83426" lon="-0.68686">
        <ele>19</ele>
        <time>2017-06-25T06:40:02Z</time>
      </trkpt>
      <trkpt lat="45.83425" lon="-0.68687">
        <ele>19</ele>
        <time>2017-06-25T06:40:03Z</time>
      </trkpt>
      <trkpt lat="45.83424" lon="-0.68688">
        <ele>19</ele>
        <time>2017-06-25T06:40:04Z</time>
      </trkpt>
      <trkpt lat="45.83423" lon="-0.68689">
        <ele>19</ele>
        <time>2017-06-25T06:40:05Z</time>
      </trkpt>
      <trkpt lat="45.83421" lon="-0.6869">
        <ele>19</ele>
        <time>2017-06-25T06:40:07Z</time>
      </trkpt>
      <trkpt lat="45.8342" lon="-0.68691">
        <ele>19</ele>
        <time>2017-06-25T06:40:08Z</time>
      </trkpt>
      <trkpt lat="45.83419" lon="-0.68692">
        <ele>19</ele>
        <time>2017-06-25T06:40:09Z</time>
      </trkpt>
      <trkpt lat="45.83418" lon="-0.68693">
        <ele>19</ele>
        <time>2017-06-25T06:40:10Z</time>
      </trkpt>
      <trkpt lat="45.83418" lon="-0.68694">
        <ele>19</ele>
        <time>2017-06-25T06:40:11Z</time>
      </trkpt>
      <trkpt lat="45.83417" lon="-0.68695">
        <ele>19</ele>
        <time>2017-06-25T06:40:12Z</time>
      </trkpt>
      <trkpt lat="45.83416" lon="-0.68696">
        <ele>19</ele>
        <time>2017-06-25T06:40:13Z</time>
      </trkpt>
      <trkpt lat="45.83415" lon="-0.68698">
        <ele>19</ele>
        <time>2017-06-25T06:40:14Z</time>
      </trkpt>
      <trkpt lat="45.83413" lon="-0.68698">
        <ele>19</ele>
        <time>2017-06-25T06:40:15Z</time>
      </trkpt>
      <trkpt lat="45.83413" lon="-0.68699">
        <ele>19</ele>
        <time>2017-06-25T06:40:16Z</time>
      </trkpt>
      <trkpt lat="45.83411" lon="-0.687">
        <ele>19</ele>
        <time>2017-06-25T06:40:17Z</time>
      </trkpt>
      <trkpt lat="45.8341" lon="-0.68701">
        <ele>19</ele>
        <time>2017-06-25T06:40:18Z</time>
      </trkpt>
      <trkpt lat="45.8341" lon="-0.68701">
        <ele>19</ele>
        <time>2017-06-25T06:40:19Z</time>
      </trkpt>
      <trkpt lat="45.83408" lon="-0.68702">
        <ele>19</ele>
        <time>2017-06-25T06:40:20Z</time>
      </trkpt>
      <trkpt lat="45.83407" lon="-0.68703">
        <ele>19</ele>
        <time>2017-06-25T06:40:21Z</time>
      </trkpt>
      <trkpt lat="45.83406" lon="-0.68704">
        <ele>19</ele>
        <time>2017-06-25T06:40:23Z</time>
      </trkpt>
      <trkpt lat="45.83405" lon="-0.68705">
        <ele>19</ele>
        <time>2017-06-25T06:40:24Z</time>
      </trkpt>
      <trkpt lat="45.83404" lon="-0.68707">
        <ele>19</ele>
        <time>2017-06-25T06:40:25Z</time>
      </trkpt>
      <trkpt lat="45.83403" lon="-0.68708">
        <ele>19</ele>
        <time>2017-06-25T06:40:26Z</time>
      </trkpt>
      <trkpt lat="45.83402" lon="-0.6871">
        <ele>19</ele>
        <time>2017-06-25T06:40:27Z</time>
      </trkpt>
      <trkpt lat="45.834" lon="-0.68711">
        <ele>19</ele>
        <time>2017-06-25T06:40:28Z</time>
      </trkpt>
      <trkpt lat="45.83399" lon="-0.68712">
        <ele>19</ele>
        <time>2017-06-25T06:40:29Z</time>
      </trkpt>
      <trkpt lat="45.83398" lon="-0.68713">
        <ele>19</ele>
        <time>2017-06-25T06:40:30Z</time>
      </trkpt>
      <trkpt lat="45.83398" lon="-0.68714">
        <ele>19</ele>
        <time>2017-06-25T06:40:31Z</time>
      </trkpt>
      <trkpt lat="45.83396" lon="-0.68717">
        <ele>19</ele>
        <time>2017-06-25T06:40:33Z</time>
      </trkpt>
      <trkpt lat="45.83395" lon="-0.68718">
        <ele>19</ele>
        <time>2017-06-25T06:40:34Z</time>
      </trkpt>
      <trkpt lat="45.83394" lon="-0.68719">
        <ele>19</ele>
        <time>2017-06-25T06:40:35Z</time>
      </trkpt>
      <trkpt lat="45.83393" lon="-0.6872">
        <ele>19</ele>
        <time>2017-06-25T06:40:36Z</time>
      </trkpt>
      <trkpt lat="45.83392" lon="-0.68721">
        <ele>19</ele>
        <time>2017-06-25T06:40:37Z</time>
      </trkpt>
      <trkpt lat="45.83391" lon="-0.68722">
        <ele>19</ele>
        <time>2017-06-25T06:40:38Z</time>
      </trkpt>
      <trkpt lat="45.8339" lon="-0.68723">
        <ele>19</ele>
        <time>2017-06-25T06:40:39Z</time>
      </trkpt>
      <trkpt lat="45.83389" lon="-0.68725">
        <ele>19</ele>
        <time>2017-06-25T06:40:40Z</time>
      </trkpt>
      <trkpt lat="45.83387" lon="-0.68726">
        <ele>19</ele>
        <time>2017-06-25T06:40:41Z</time>
      </trkpt>
      <trkpt lat="45.83386" lon="-0.68727">
        <ele>19</ele>
        <time>2017-06-25T06:40:42Z</time>
      </trkpt>
      <trkpt lat="45.83385" lon="-0.68728">
        <ele>19</ele>
        <time>2017-06-25T06:40:43Z</time>
      </trkpt>
      <trkpt lat="45.83384" lon="-0.6873">
        <ele>19</ele>
        <time>2017-06-25T06:40:44Z</time>
      </trkpt>
      <trkpt lat="45.83382" lon="-0.68731">
        <ele>19</ele>
        <time>2017-06-25T06:40:45Z</time>
      </trkpt>
      <trkpt lat="45.83382" lon="-0.68732">
        <ele>19</ele>
        <time>2017-06-25T06:40:46Z</time>
      </trkpt>
      <trkpt lat="45.83381" lon="-0.68733">
        <ele>19</ele>
        <time>2017-06-25T06:40:47Z</time>
      </trkpt>
      <trkpt lat="45.83379" lon="-0.68736">
        <ele>19</ele>
        <time>2017-06-25T06:40:49Z</time>
      </trkpt>
      <trkpt lat="45.83378" lon="-0.68737">
        <ele>19</ele>
        <time>2017-06-25T06:40:50Z</time>
      </trkpt>
      <trkpt lat="45.83377" lon="-0.68739">
        <ele>19</ele>
        <time>2017-06-25T06:40:51Z</time>
      </trkpt>
      <trkpt lat="45.83376" lon="-0.6874">
        <ele>19</ele>
        <time>2017-06-25T06:40:52Z</time>
      </trkpt>
      <trkpt lat="45.83376" lon="-0.68742">
        <ele>19</ele>
        <time>2017-06-25T06:40:53Z</time>
      </trkpt>
      <trkpt lat="45.83375" lon="-0.68743">
        <ele>19</ele>
        <time>2017-06-25T06:40:54Z</time>
      </trkpt>
      <trkpt lat="45.83373" lon="-0.68744">
        <ele>19</ele>
        <time>2017-06-25T06:40:56Z</time>
      </trkpt>
      <trkpt lat="45.83373" lon="-0.68745">
        <ele>19</ele>
        <time>2017-06-25T06:40:57Z</time>
      </trkpt>
      <trkpt lat="45.83372" lon="-0.68746">
        <ele>19</ele>
        <time>2017-06-25T06:40:58Z</time>
      </trkpt>
      <trkpt lat="45.83371" lon="-0.68747">
        <ele>19</ele>
        <time>2017-06-25T06:40:59Z</time>
      </trkpt>
      <trkpt lat="45.8337" lon="-0.68748">
        <ele>19</ele>
        <time>2017-06-25T06:41:00Z</time>
      </trkpt>
      <trkpt lat="45.83369" lon="-0.68749">
        <ele>19</ele>
        <time>2017-06-25T06:41:01Z</time>
      </trkpt>
      <trkpt lat="45.83368" lon="-0.6875">
        <ele>19</ele>
        <time>2017-06-25T06:41:02Z</time>
      </trkpt>
      <trkpt lat="45.83367" lon="-0.68752">
        <ele>19</ele>
        <time>2017-06-25T06:41:03Z</time>
      </trkpt>
      <trkpt lat="45.83366" lon="-0.68752">
        <ele>19</ele>
        <time>2017-06-25T06:41:04Z</time>
      </trkpt>
      <trkpt lat="45.83365" lon="-0.68753">
        <ele>19</ele>
        <time>2017-06-25T06:41:05Z</time>
      </trkpt>
      <trkpt lat="45.83364" lon="-0.68754">
        <ele>19</ele>
        <time>2017-06-25T06:41:06Z</time>
      </trkpt>
      <trkpt lat="45.83363" lon="-0.68755">
        <ele>19</ele>
        <time>2017-06-25T06:41:07Z</time>
      </trkpt>
      <trkpt lat="45.83362" lon="-0.68757">
        <ele>19</ele>
        <time>2017-06-25T06:41:08Z</time>
      </trkpt>
      <trkpt lat="45.83361" lon="-0.68758">
        <ele>19</ele>
        <time>2017-06-25T06:41:09Z</time>
      </trkpt>
      <trkpt lat="45.8336" lon="-0.68759">
        <ele>19</ele>
        <time>2017-06-25T06:41:10Z</time>
      </trkpt>
      <trkpt lat="45.83359" lon="-0.68761">
        <ele>19</ele>
        <time>2017-06-25T06:41:12Z</time>
      </trkpt>
      <trkpt lat="45.83358" lon="-0.68762">
        <ele>19</ele>
        <time>2017-06-25T06:41:13Z</time>
      </trkpt>
      <trkpt lat="45.83357" lon="-0.68763">
        <ele>19</ele>
        <time>2017-06-25T06:41:15Z</time>
      </trkpt>
      <trkpt lat="45.83355" lon="-0.68764">
        <ele>19</ele>
        <time>2017-06-25T06:41:16Z</time>
      </trkpt>
      <trkpt lat="45.83355" lon="-0.68766">
        <ele>19</ele>
        <time>2017-06-25T06:41:18Z</time>
      </trkpt>
      <trkpt lat="45.83353" lon="-0.68767">
        <ele>19</ele>
        <time>2017-06-25T06:41:20Z</time>
      </trkpt>
      <trkpt lat="45.83353" lon="-0.68769">
        <ele>19</ele>
        <time>2017-06-25T06:41:21Z</time>
      </trkpt>
      <trkpt lat="45.83352" lon="-0.68771">
        <ele>19</ele>
        <time>2017-06-25T06:41:23Z</time>
      </trkpt>
      <trkpt lat="45.83351" lon="-0.68774">
        <ele>19</ele>
        <time>2017-06-25T06:41:24Z</time>
      </trkpt>
      <trkpt lat="45.8335" lon="-0.68777">
        <ele>19</ele>
        <time>2017-06-25T06:41:26Z</time>
      </trkpt>
      <trkpt lat="45.8335" lon="-0.68778">
        <ele>19</ele>
        <time>2017-06-25T06:41:27Z</time>
      </trkpt>
      <trkpt lat="45.83349" lon="-0.6878">
        <ele>19</ele>
        <time>2017-06-25T06:41:28Z</time>
      </trkpt>
      <trkpt lat="45.83349" lon="-0.68782">
        <ele>19</ele>
        <time>2017-06-25T06:41:29Z</time>
      </trkpt>
      <trkpt lat="45.83349" lon="-0.68784">
        <ele>19</ele>
        <time>2017-06-25T06:41:30Z</time>
      </trkpt>
      <trkpt lat="45.83348" lon="-0.68786">
        <ele>19</ele>
        <time>2017-06-25T06:41:31Z</time>
      </trkpt>
      <trkpt lat="45.83347" lon="-0.68788">
        <ele>19</ele>
        <time>2017-06-25T06:41:32Z</time>
      </trkpt>
      <trkpt lat="45.83347" lon="-0.6879">
        <ele>19</ele>
        <time>2017-06-25T06:41:33Z</time>
      </trkpt>
      <trkpt lat="45.83346" lon="-0.68792">
        <ele>19</ele>
        <time>2017-06-25T06:41:34Z</time>
      </trkpt>
      <trkpt lat="45.83345" lon="-0.68794">
        <ele>19</ele>
        <time>2017-06-25T06:41:35Z</time>
      </trkpt>
      <trkpt lat="45.83344" lon="-0.68796">
        <ele>19</ele>
        <time>2017-06-25T06:41:36Z</time>
      </trkpt>
      <trkpt lat="45.83344" lon="-0.68798">
        <ele>19</ele>
        <time>2017-06-25T06:41:37Z</time>
      </trkpt>
      <trkpt lat="45.83342" lon="-0.688">
        <ele>19</ele>
        <time>2017-06-25T06:41:38Z</time>
      </trkpt>
      <trkpt lat="45.83342" lon="-0.68802">
        <ele>19</ele>
        <time>2017-06-25T06:41:39Z</time>
      </trkpt>
      <trkpt lat="45.83341" lon="-0.68804">
        <ele>19</ele>
        <time>2017-06-25T06:41:40Z</time>
      </trkpt>
      <trkpt lat="45.8334" lon="-0.68806">
        <ele>19</ele>
        <time>2017-06-25T06:41:41Z</time>
      </trkpt>
      <trkpt lat="45.83339" lon="-0.68808">
        <ele>19</ele>
        <time>2017-06-25T06:41:42Z</time>
      </trkpt>
      <trkpt lat="45.83339" lon="-0.6881">
        <ele>19</ele>
        <time>2017-06-25T06:41:43Z</time>
      </trkpt>
      <trkpt lat="45.83338" lon="-0.68811">
        <ele>19</ele>
        <time>2017-06-25T06:41:44Z</time>
      </trkpt>
      <trkpt lat="45.83337" lon="-0.68812">
        <ele>19</ele>
        <time>2017-06-25T06:41:46Z</time>
      </trkpt>
      <trkpt lat="45.83336" lon="-0.68814">
        <ele>19</ele>
        <time>2017-06-25T06:41:47Z</time>
      </trkpt>
      <trkpt lat="45.83336" lon="-0.68815">
        <ele>19</ele>
        <time>2017-06-25T06:41:48Z</time>
      </trkpt>
      <trkpt lat="45.83335" lon="-0.68817">
        <ele>19</ele>
        <time>2017-06-25T06:41:49Z</time>
      </trkpt>
      <trkpt lat="45.83334" lon="-0.68818">
        <ele>19</ele>
        <time>2017-06-25T06:41:50Z</time>
      </trkpt>
      <trkpt lat="45.83334" lon="-0.68819">
        <ele>19</ele>
        <time>2017-06-25T06:41:51Z</time>
      </trkpt>
      <trkpt lat="45.83333" lon="-0.6882">
        <ele>19</ele>
        <time>2017-06-25T06:41:52Z</time>
      </trkpt>
      <trkpt lat="45.83332" lon="-0.68822">
        <ele>19</ele>
        <time>2017-06-25T06:41:54Z</time>
      </trkpt>
      <trkpt lat="45.83332" lon="-0.68823">
        <ele>19</ele>
        <time>2017-06-25T06:41:55Z</time>
      </trkpt>
      <trkpt lat="45.83331" lon="-0.68825">
        <ele>19</ele>
        <time>2017-06-25T06:41:56Z</time>
      </trkpt>
      <trkpt lat="45.8333" lon="-0.68826">
        <ele>19</ele>
        <time>2017-06-25T06:41:57Z</time>
      </trkpt>
      <trkpt lat="45.83329" lon="-0.68827">
        <ele>19</ele>
        <time>2017-06-25T06:41:59Z</time>
      </trkpt>
      <trkpt lat="45.83328" lon="-0.68828">
        <ele>19</ele>
        <time>2017-06-25T06:42:00Z</time>
      </trkpt>
      <trkpt lat="45.83327" lon="-0.6883">
        <ele>19</ele>
        <time>2017-06-25T06:42:01Z</time>
      </trkpt>
      <trkpt lat="45.83326" lon="-0.68831">
        <ele>19</ele>
        <time>2017-06-25T06:42:02Z</time>
      </trkpt>
      <trkpt lat="45.83326" lon="-0.68833">
        <ele>19</ele>
        <time>2017-06-25T06:42:03Z</time>
      </trkpt>
      <trkpt lat="45.83325" lon="-0.68834">
        <ele>19</ele>
        <time>2017-06-25T06:42:04Z</time>
      </trkpt>
      <trkpt lat="45.83324" lon="-0.68835">
        <ele>19</ele>
        <time>2017-06-25T06:42:05Z</time>
      </trkpt>
      <trkpt lat="45.83323" lon="-0.68837">
        <ele>19</ele>
        <time>2017-06-25T06:42:06Z</time>
      </trkpt>
      <trkpt lat="45.83322" lon="-0.68839">
        <ele>19</ele>
        <time>2017-06-25T06:42:07Z</time>
      </trkpt>
      <trkpt lat="45.83321" lon="-0.68841">
        <ele>19</ele>
        <time>2017-06-25T06:42:08Z</time>
      </trkpt>
      <trkpt lat="45.8332" lon="-0.68843">
        <ele>19</ele>
        <time>2017-06-25T06:42:09Z</time>
      </trkpt>
      <trkpt lat="45.83319" lon="-0.68844">
        <ele>19</ele>
        <time>2017-06-25T06:42:10Z</time>
      </trkpt>
      <trkpt lat="45.83318" lon="-0.68846">
        <ele>19</ele>
        <time>2017-06-25T06:42:11Z</time>
      </trkpt>
      <trkpt lat="45.83316" lon="-0.68847">
        <ele>19</ele>
        <time>2017-06-25T06:42:12Z</time>
      </trkpt>
      <trkpt lat="45.83316" lon="-0.68849">
        <ele>19</ele>
        <time>2017-06-25T06:42:13Z</time>
      </trkpt>
      <trkpt lat="45.83315" lon="-0.68851">
        <ele>19</ele>
        <time>2017-06-25T06:42:14Z</time>
      </trkpt>
      <trkpt lat="45.83314" lon="-0.68852">
        <ele>19</ele>
        <time>2017-06-25T06:42:15Z</time>
      </trkpt>
      <trkpt lat="45.83313" lon="-0.68853">
        <ele>19</ele>
        <time>2017-06-25T06:42:16Z</time>
      </trkpt>
      <trkpt lat="45.83312" lon="-0.68855">
        <ele>19</ele>
        <time>2017-06-25T06:42:17Z</time>
      </trkpt>
      <trkpt lat="45.83311" lon="-0.68856">
        <ele>19</ele>
        <time>2017-06-25T06:42:18Z</time>
      </trkpt>
      <trkpt lat="45.8331" lon="-0.68858">
        <ele>19</ele>
        <time>2017-06-25T06:42:19Z</time>
      </trkpt>
      <trkpt lat="45.83309" lon="-0.68859">
        <ele>19</ele>
        <time>2017-06-25T06:42:20Z</time>
      </trkpt>
      <trkpt lat="45.83308" lon="-0.6886">
        <ele>19</ele>
        <time>2017-06-25T06:42:21Z</time>
      </trkpt>
      <trkpt lat="45.83308" lon="-0.68862">
        <ele>19</ele>
        <time>2017-06-25T06:42:22Z</time>
      </trkpt>
      <trkpt lat="45.83307" lon="-0.68863">
        <ele>19</ele>
        <time>2017-06-25T06:42:23Z</time>
      </trkpt>
      <trkpt lat="45.83306" lon="-0.68865">
        <ele>19</ele>
        <time>2017-06-25T06:42:25Z</time>
      </trkpt>
      <trkpt lat="45.83305" lon="-0.68867">
        <ele>19</ele>
        <time>2017-06-25T06:42:27Z</time>
      </trkpt>
      <trkpt lat="45.83305" lon="-0.68868">
        <ele>19</ele>
        <time>2017-06-25T06:42:28Z</time>
      </trkpt>
      <trkpt lat="45.83304" lon="-0.68869">
        <ele>19</ele>
        <time>2017-06-25T06:42:29Z</time>
      </trkpt>
      <trkpt lat="45.83303" lon="-0.6887">
        <ele>19</ele>
        <time>2017-06-25T06:42:30Z</time>
      </trkpt>
      <trkpt lat="45.83302" lon="-0.68872">
        <ele>19</ele>
        <time>2017-06-25T06:42:31Z</time>
      </trkpt>
      <trkpt lat="45.83302" lon="-0.68873">
        <ele>19</ele>
        <time>2017-06-25T06:42:32Z</time>
      </trkpt>
      <trkpt lat="45.83301" lon="-0.68875">
        <ele>19</ele>
        <time>2017-06-25T06:42:33Z</time>
      </trkpt>
      <trkpt lat="45.833" lon="-0.68876">
        <ele>19</ele>
        <time>2017-06-25T06:42:34Z</time>
      </trkpt>
      <trkpt lat="45.83299" lon="-0.68878">
        <ele>19</ele>
        <time>2017-06-25T06:42:35Z</time>
      </trkpt>
      <trkpt lat="45.83299" lon="-0.6888">
        <ele>19</ele>
        <time>2017-06-25T06:42:36Z</time>
      </trkpt>
      <trkpt lat="45.83297" lon="-0.68881">
        <ele>19</ele>
        <time>2017-06-25T06:42:37Z</time>
      </trkpt>
      <trkpt lat="45.83297" lon="-0.68882">
        <ele>19</ele>
        <time>2017-06-25T06:42:38Z</time>
      </trkpt>
      <trkpt lat="45.83296" lon="-0.68884">
        <ele>19</ele>
        <time>2017-06-25T06:42:39Z</time>
      </trkpt>
      <trkpt lat="45.83295" lon="-0.68885">
        <ele>19</ele>
        <time>2017-06-25T06:42:40Z</time>
      </trkpt>
      <trkpt lat="45.83294" lon="-0.68886">
        <ele>19</ele>
        <time>2017-06-25T06:42:41Z</time>
      </trkpt>
      <trkpt lat="45.83294" lon="-0.68887">
        <ele>19</ele>
        <time>2017-06-25T06:42:42Z</time>
      </trkpt>
      <trkpt lat="45.83293" lon="-0.68889">
        <ele>19</ele>
        <time>2017-06-25T06:42:43Z</time>
      </trkpt>
      <trkpt lat="45.83292" lon="-0.6889">
        <ele>19</ele>
        <time>2017-06-25T06:42:44Z</time>
      </trkpt>
      <trkpt lat="45.83291" lon="-0.68891">
        <ele>19</ele>
        <time>2017-06-25T06:42:45Z</time>
      </trkpt>
      <trkpt lat="45.8329" lon="-0.68893">
        <ele>19</ele>
        <time>2017-06-25T06:42:46Z</time>
      </trkpt>
      <trkpt lat="45.83289" lon="-0.68895">
        <ele>19</ele>
        <time>2017-06-25T06:42:47Z</time>
      </trkpt>
      <trkpt lat="45.83287" lon="-0.68896">
        <ele>19</ele>
        <time>2017-06-25T06:42:48Z</time>
      </trkpt>
      <trkpt lat="45.83286" lon="-0.68898">
        <ele>19</ele>
        <time>2017-06-25T06:42:49Z</time>
      </trkpt>
      <trkpt lat="45.83286" lon="-0.68899">
        <ele>19</ele>
        <time>2017-06-25T06:42:50Z</time>
      </trkpt>
      <trkpt lat="45.83284" lon="-0.68901">
        <ele>19</ele>
        <time>2017-06-25T06:42:51Z</time>
      </trkpt>
      <trkpt lat="45.83283" lon="-0.68902">
        <ele>19</ele>
        <time>2017-06-25T06:42:52Z</time>
      </trkpt>
      <trkpt lat="45.83282" lon="-0.68903">
        <ele>19</ele>
        <time>2017-06-25T06:42:53Z</time>
      </trkpt>
      <trkpt lat="45.83281" lon="-0.68905">
        <ele>19</ele>
        <time>2017-06-25T06:42:54Z</time>
      </trkpt>
      <trkpt lat="45.83281" lon="-0.68906">
        <ele>19</ele>
        <time>2017-06-25T06:42:55Z</time>
      </trkpt>
      <trkpt lat="45.8328" lon="-0.68908">
        <ele>19</ele>
        <time>2017-06-25T06:42:56Z</time>
      </trkpt>
      <trkpt lat="45.83279" lon="-0.68909">
        <ele>19</ele>
        <time>2017-06-25T06:42:57Z</time>
      </trkpt>
      <trkpt lat="45.83279" lon="-0.68911">
        <ele>19</ele>
        <time>2017-06-25T06:42:58Z</time>
      </trkpt>
      <trkpt lat="45.83278" lon="-0.68912">
        <ele>19</ele>
        <time>2017-06-25T06:42:59Z</time>
      </trkpt>
      <trkpt lat="45.83277" lon="-0.68914">
        <ele>19</ele>
        <time>2017-06-25T06:43:00Z</time>
      </trkpt>
      <trkpt lat="45.83276" lon="-0.68915">
        <ele>19</ele>
        <time>2017-06-25T06:43:01Z</time>
      </trkpt>
      <trkpt lat="45.83275" lon="-0.68917">
        <ele>19</ele>
        <time>2017-06-25T06:43:03Z</time>
      </trkpt>
      <trkpt lat="45.83275" lon="-0.68919">
        <ele>19</ele>
        <time>2017-06-25T06:43:04Z</time>
      </trkpt>
      <trkpt lat="45.83274" lon="-0.6892">
        <ele>19</ele>
        <time>2017-06-25T06:43:05Z</time>
      </trkpt>
      <trkpt lat="45.83273" lon="-0.68921">
        <ele>19</ele>
        <time>2017-06-25T06:43:06Z</time>
      </trkpt>
      <trkpt lat="45.83272" lon="-0.68923">
        <ele>19</ele>
        <time>2017-06-25T06:43:07Z</time>
      </trkpt>
      <trkpt lat="45.83271" lon="-0.68925">
        <ele>19</ele>
        <time>2017-06-25T06:43:08Z</time>
      </trkpt>
      <trkpt lat="45.83271" lon="-0.68926">
        <ele>19</ele>
        <time>2017-06-25T06:43:09Z</time>
      </trkpt>
      <trkpt lat="45.8327" lon="-0.68929">
        <ele>19</ele>
        <time>2017-06-25T06:43:11Z</time>
      </trkpt>
      <trkpt lat="45.83269" lon="-0.6893">
        <ele>19</ele>
        <time>2017-06-25T06:43:13Z</time>
      </trkpt>
      <trkpt lat="45.83268" lon="-0.68931">
        <ele>19</ele>
        <time>2017-06-25T06:43:14Z</time>
      </trkpt>
      <trkpt lat="45.83267" lon="-0.68932">
        <ele>19</ele>
        <time>2017-06-25T06:43:15Z</time>
      </trkpt>
      <trkpt lat="45.83266" lon="-0.68933">
        <ele>19</ele>
        <time>2017-06-25T06:43:17Z</time>
      </trkpt>
      <trkpt lat="45.83264" lon="-0.68934">
        <ele>19</ele>
        <time>2017-06-25T06:43:19Z</time>
      </trkpt>
      <trkpt lat="45.83263" lon="-0.68935">
        <ele>19</ele>
        <time>2017-06-25T06:43:20Z</time>
      </trkpt>
      <trkpt lat="45.83262" lon="-0.68935">
        <ele>19</ele>
        <time>2017-06-25T06:43:21Z</time>
      </trkpt>
      <trkpt lat="45.83262" lon="-0.68936">
        <ele>19</ele>
        <time>2017-06-25T06:43:22Z</time>
      </trkpt>
      <trkpt lat="45.83261" lon="-0.68937">
        <ele>19</ele>
        <time>2017-06-25T06:43:23Z</time>
      </trkpt>
      <trkpt lat="45.83259" lon="-0.68937">
        <ele>19</ele>
        <time>2017-06-25T06:43:24Z</time>
      </trkpt>
      <trkpt lat="45.83258" lon="-0.68938">
        <ele>19</ele>
        <time>2017-06-25T06:43:25Z</time>
      </trkpt>
      <trkpt lat="45.83257" lon="-0.68939">
        <ele>19</ele>
        <time>2017-06-25T06:43:26Z</time>
      </trkpt>
      <trkpt lat="45.83256" lon="-0.6894">
        <ele>19</ele>
        <time>2017-06-25T06:43:27Z</time>
      </trkpt>
      <trkpt lat="45.83255" lon="-0.68942">
        <ele>19</ele>
        <time>2017-06-25T06:43:28Z</time>
      </trkpt>
      <trkpt lat="45.83254" lon="-0.68944">
        <ele>19</ele>
        <time>2017-06-25T06:43:29Z</time>
      </trkpt>
      <trkpt lat="45.83253" lon="-0.68946">
        <ele>19</ele>
        <time>2017-06-25T06:43:30Z</time>
      </trkpt>
      <trkpt lat="45.83252" lon="-0.68948">
        <ele>20</ele>
        <time>2017-06-25T06:43:31Z</time>
      </trkpt>
      <trkpt lat="45.83251" lon="-0.68949">
        <ele>20</ele>
        <time>2017-06-25T06:43:32Z</time>
      </trkpt>
      <trkpt lat="45.8325" lon="-0.6895">
        <ele>20</ele>
        <time>2017-06-25T06:43:33Z</time>
      </trkpt>
      <trkpt lat="45.83249" lon="-0.68952">
        <ele>20</ele>
        <time>2017-06-25T06:43:34Z</time>
      </trkpt>
      <trkpt lat="45.83249" lon="-0.68953">
        <ele>20</ele>
        <time>2017-06-25T06:43:35Z</time>
      </trkpt>
      <trkpt lat="45.83248" lon="-0.68954">
        <ele>20</ele>
        <time>2017-06-25T06:43:36Z</time>
      </trkpt>
      <trkpt lat="45.83247" lon="-0.68956">
        <ele>20</ele>
        <time>2017-06-25T06:43:37Z</time>
      </trkpt>
      <trkpt lat="45.83246" lon="-0.68958">
        <ele>20</ele>
        <time>2017-06-25T06:43:38Z</time>
      </trkpt>
      <trkpt lat="45.83245" lon="-0.68959">
        <ele>20</ele>
        <time>2017-06-25T06:43:39Z</time>
      </trkpt>
      <trkpt lat="45.83244" lon="-0.68961">
        <ele>20</ele>
        <time>2017-06-25T06:43:40Z</time>
      </trkpt>
      <trkpt lat="45.83242" lon="-0.68962">
        <ele>20</ele>
        <time>2017-06-25T06:43:41Z</time>
      </trkpt>
      <trkpt lat="45.83242" lon="-0.68962">
        <ele>20</ele>
        <time>2017-06-25T06:43:42Z</time>
      </trkpt>
      <trkpt lat="45.83241" lon="-0.68963">
        <ele>20</ele>
        <time>2017-06-25T06:43:43Z</time>
      </trkpt>
      <trkpt lat="45.8324" lon="-0.68964">
        <ele>20</ele>
        <time>2017-06-25T06:43:44Z</time>
      </trkpt>
      <trkpt lat="45.83239" lon="-0.68965">
        <ele>20</ele>
        <time>2017-06-25T06:43:45Z</time>
      </trkpt>
      <trkpt lat="45.83238" lon="-0.68966">
        <ele>20</ele>
        <time>2017-06-25T06:43:46Z</time>
      </trkpt>
      <trkpt lat="45.83237" lon="-0.68967">
        <ele>20</ele>
        <time>2017-06-25T06:43:47Z</time>
      </trkpt>
      <trkpt lat="45.83236" lon="-0.68968">
        <ele>20</ele>
        <time>2017-06-25T06:43:48Z</time>
      </trkpt>
      <trkpt lat="45.83236" lon="-0.6897">
        <ele>20</ele>
        <time>2017-06-25T06:43:49Z</time>
      </trkpt>
      <trkpt lat="45.83234" lon="-0.68971">
        <ele>20</ele>
        <time>2017-06-25T06:43:50Z</time>
      </trkpt>
      <trkpt lat="45.83233" lon="-0.68973">
        <ele>20</ele>
        <time>2017-06-25T06:43:51Z</time>
      </trkpt>
      <trkpt lat="45.83233" lon="-0.68975">
        <ele>20</ele>
        <time>2017-06-25T06:43:52Z</time>
      </trkpt>
      <trkpt lat="45.83231" lon="-0.68977">
        <ele>20</ele>
        <time>2017-06-25T06:43:53Z</time>
      </trkpt>
      <trkpt lat="45.83231" lon="-0.68978">
        <ele>20</ele>
        <time>2017-06-25T06:43:54Z</time>
      </trkpt>
      <trkpt lat="45.8323" lon="-0.6898">
        <ele>20</ele>
        <time>2017-06-25T06:43:55Z</time>
      </trkpt>
      <trkpt lat="45.83229" lon="-0.68981">
        <ele>20</ele>
        <time>2017-06-25T06:43:56Z</time>
      </trkpt>
      <trkpt lat="45.83228" lon="-0.68983">
        <ele>20</ele>
        <time>2017-06-25T06:43:57Z</time>
      </trkpt>
      <trkpt lat="45.83228" lon="-0.68985">
        <ele>20</ele>
        <time>2017-06-25T06:43:58Z</time>
      </trkpt>
      <trkpt lat="45.83227" lon="-0.68987">
        <ele>20</ele>
        <time>2017-06-25T06:43:59Z</time>
      </trkpt>
      <trkpt lat="45.83226" lon="-0.68989">
        <ele>20</ele>
        <time>2017-06-25T06:44:00Z</time>
      </trkpt>
      <trkpt lat="45.83226" lon="-0.6899">
        <ele>20</ele>
        <time>2017-06-25T06:44:01Z</time>
      </trkpt>
      <trkpt lat="45.83225" lon="-0.68992">
        <ele>20</ele>
        <time>2017-06-25T06:44:02Z</time>
      </trkpt>
      <trkpt lat="45.83224" lon="-0.68994">
        <ele>20</ele>
        <time>2017-06-25T06:44:03Z</time>
      </trkpt>
      <trkpt lat="45.83223" lon="-0.68996">
        <ele>20</ele>
        <time>2017-06-25T06:44:04Z</time>
      </trkpt>
      <trkpt lat="45.83222" lon="-0.68998">
        <ele>20</ele>
        <time>2017-06-25T06:44:05Z</time>
      </trkpt>
      <trkpt lat="45.83221" lon="-0.69">
        <ele>20</ele>
        <time>2017-06-25T06:44:06Z</time>
      </trkpt>
      <trkpt lat="45.83221" lon="-0.69001">
        <ele>21</ele>
        <time>2017-06-25T06:44:07Z</time>
      </trkpt>
      <trkpt lat="45.8322" lon="-0.69002">
        <ele>21</ele>
        <time>2017-06-25T06:44:08Z</time>
      </trkpt>
      <trkpt lat="45.8322" lon="-0.69004">
        <ele>21</ele>
        <time>2017-06-25T06:44:09Z</time>
      </trkpt>
      <trkpt lat="45.83219" lon="-0.69005">
        <ele>21</ele>
        <time>2017-06-25T06:44:10Z</time>
      </trkpt>
      <trkpt lat="45.83218" lon="-0.69006">
        <ele>21</ele>
        <time>2017-06-25T06:44:11Z</time>
      </trkpt>
      <trkpt lat="45.83217" lon="-0.69009">
        <ele>21</ele>
        <time>2017-06-25T06:44:13Z</time>
      </trkpt>
      <trkpt lat="45.83216" lon="-0.69011">
        <ele>21</ele>
        <time>2017-06-25T06:44:14Z</time>
      </trkpt>
      <trkpt lat="45.83215" lon="-0.69013">
        <ele>21</ele>
        <time>2017-06-25T06:44:15Z</time>
      </trkpt>
      <trkpt lat="45.83215" lon="-0.69014">
        <ele>21</ele>
        <time>2017-06-25T06:44:16Z</time>
      </trkpt>
      <trkpt lat="45.83215" lon="-0.69017">
        <ele>21</ele>
        <time>2017-06-25T06:44:17Z</time>
      </trkpt>
      <trkpt lat="45.83214" lon="-0.69019">
        <ele>21</ele>
        <time>2017-06-25T06:44:18Z</time>
      </trkpt>
      <trkpt lat="45.83215" lon="-0.69021">
        <ele>21</ele>
        <time>2017-06-25T06:44:19Z</time>
      </trkpt>
      <trkpt lat="45.83215" lon="-0.69023">
        <ele>21</ele>
        <time>2017-06-25T06:44:20Z</time>
      </trkpt>
      <trkpt lat="45.83216" lon="-0.69025">
        <ele>21</ele>
        <time>2017-06-25T06:44:21Z</time>
      </trkpt>
      <trkpt lat="45.83217" lon="-0.69027">
        <ele>21</ele>
        <time>2017-06-25T06:44:22Z</time>
      </trkpt>
      <trkpt lat="45.83217" lon="-0.69029">
        <ele>21</ele>
        <time>2017-06-25T06:44:23Z</time>
      </trkpt>
      <trkpt lat="45.83217" lon="-0.6903">
        <ele>21</ele>
        <time>2017-06-25T06:44:24Z</time>
      </trkpt>
      <trkpt lat="45.83218" lon="-0.69032">
        <ele>21</ele>
        <time>2017-06-25T06:44:25Z</time>
      </trkpt>
      <trkpt lat="45.8322" lon="-0.69033">
        <ele>21</ele>
        <time>2017-06-25T06:44:26Z</time>
      </trkpt>
      <trkpt lat="45.83221" lon="-0.69035">
        <ele>21</ele>
        <time>2017-06-25T06:44:27Z</time>
      </trkpt>
      <trkpt lat="45.83221" lon="-0.69037">
        <ele>21</ele>
        <time>2017-06-25T06:44:28Z</time>
      </trkpt>
      <trkpt lat="45.83223" lon="-0.69038">
        <ele>21</ele>
        <time>2017-06-25T06:44:29Z</time>
      </trkpt>
      <trkpt lat="45.83224" lon="-0.6904">
        <ele>21</ele>
        <time>2017-06-25T06:44:30Z</time>
      </trkpt>
      <trkpt lat="45.83225" lon="-0.69041">
        <ele>21</ele>
        <time>2017-06-25T06:44:31Z</time>
      </trkpt>
      <trkpt lat="45.83226" lon="-0.69043">
        <ele>21</ele>
        <time>2017-06-25T06:44:32Z</time>
      </trkpt>
      <trkpt lat="45.83227" lon="-0.69044">
        <ele>21</ele>
        <time>2017-06-25T06:44:33Z</time>
      </trkpt>
      <trkpt lat="45.83228" lon="-0.69045">
        <ele>21</ele>
        <time>2017-06-25T06:44:34Z</time>
      </trkpt>
      <trkpt lat="45.83228" lon="-0.69046">
        <ele>21</ele>
        <time>2017-06-25T06:44:35Z</time>
      </trkpt>
      <trkpt lat="45.8323" lon="-0.69047">
        <ele>21</ele>
        <time>2017-06-25T06:44:36Z</time>
      </trkpt>
      <trkpt lat="45.83231" lon="-0.69049">
        <ele>21</ele>
        <time>2017-06-25T06:44:37Z</time>
      </trkpt>
      <trkpt lat="45.83232" lon="-0.6905">
        <ele>21</ele>
        <time>2017-06-25T06:44:38Z</time>
      </trkpt>
      <trkpt lat="45.83233" lon="-0.69051">
        <ele>21</ele>
        <time>2017-06-25T06:44:39Z</time>
      </trkpt>
      <trkpt lat="45.83234" lon="-0.69052">
        <ele>21</ele>
        <time>2017-06-25T06:44:40Z</time>
      </trkpt>
      <trkpt lat="45.83235" lon="-0.69054">
        <ele>21</ele>
        <time>2017-06-25T06:44:41Z</time>
      </trkpt>
      <trkpt lat="45.83235" lon="-0.69056">
        <ele>21</ele>
        <time>2017-06-25T06:44:42Z</time>
      </trkpt>
      <trkpt lat="45.83236" lon="-0.69058">
        <ele>21</ele>
        <time>2017-06-25T06:44:43Z</time>
      </trkpt>
      <trkpt lat="45.83238" lon="-0.69059">
        <ele>21</ele>
        <time>2017-06-25T06:44:44Z</time>
      </trkpt>
      <trkpt lat="45.83238" lon="-0.6906">
        <ele>21</ele>
        <time>2017-06-25T06:44:45Z</time>
      </trkpt>
      <trkpt lat="45.83239" lon="-0.69062">
        <ele>21</ele>
        <time>2017-06-25T06:44:46Z</time>
      </trkpt>
      <trkpt lat="45.8324" lon="-0.69063">
        <ele>21</ele>
        <time>2017-06-25T06:44:47Z</time>
      </trkpt>
      <trkpt lat="45.83241" lon="-0.69064">
        <ele>21</ele>
        <time>2017-06-25T06:44:48Z</time>
      </trkpt>
      <trkpt lat="45.83242" lon="-0.69066">
        <ele>21</ele>
        <time>2017-06-25T06:44:49Z</time>
      </trkpt>
      <trkpt lat="45.83242" lon="-0.69067">
        <ele>21</ele>
        <time>2017-06-25T06:44:50Z</time>
      </trkpt>
      <trkpt lat="45.83244" lon="-0.69068">
        <ele>21</ele>
        <time>2017-06-25T06:44:51Z</time>
      </trkpt>
      <trkpt lat="45.83244" lon="-0.6907">
        <ele>21</ele>
        <time>2017-06-25T06:44:52Z</time>
      </trkpt>
      <trkpt lat="45.83245" lon="-0.69071">
        <ele>21</ele>
        <time>2017-06-25T06:44:53Z</time>
      </trkpt>
      <trkpt lat="45.83246" lon="-0.69073">
        <ele>21</ele>
        <time>2017-06-25T06:44:54Z</time>
      </trkpt>
      <trkpt lat="45.83247" lon="-0.69074">
        <ele>21</ele>
        <time>2017-06-25T06:44:55Z</time>
      </trkpt>
      <trkpt lat="45.83248" lon="-0.69076">
        <ele>21</ele>
        <time>2017-06-25T06:44:56Z</time>
      </trkpt>
      <trkpt lat="45.83249" lon="-0.69077">
        <ele>21</ele>
        <time>2017-06-25T06:44:57Z</time>
      </trkpt>
      <trkpt lat="45.8325" lon="-0.69079">
        <ele>21</ele>
        <time>2017-06-25T06:44:58Z</time>
      </trkpt>
      <trkpt lat="45.83251" lon="-0.69081">
        <ele>21</ele>
        <time>2017-06-25T06:44:59Z</time>
      </trkpt>
      <trkpt lat="45.83252" lon="-0.69083">
        <ele>21</ele>
        <time>2017-06-25T06:45:00Z</time>
      </trkpt>
      <trkpt lat="45.83252" lon="-0.69084">
        <ele>21</ele>
        <time>2017-06-25T06:45:01Z</time>
      </trkpt>
      <trkpt lat="45.83253" lon="-0.69085">
        <ele>21</ele>
        <time>2017-06-25T06:45:02Z</time>
      </trkpt>
      <trkpt lat="45.83254" lon="-0.69087">
        <ele>21</ele>
        <time>2017-06-25T06:45:03Z</time>
      </trkpt>
      <trkpt lat="45.83255" lon="-0.69089">
        <ele>21</ele>
        <time>2017-06-25T06:45:04Z</time>
      </trkpt>
      <trkpt lat="45.83256" lon="-0.69091">
        <ele>21</ele>
        <time>2017-06-25T06:45:05Z</time>
      </trkpt>
      <trkpt lat="45.83257" lon="-0.69093">
        <ele>21</ele>
        <time>2017-06-25T06:45:06Z</time>
      </trkpt>
      <trkpt lat="45.83257" lon="-0.69095">
        <ele>21</ele>
        <time>2017-06-25T06:45:07Z</time>
      </trkpt>
      <trkpt lat="45.83258" lon="-0.69097">
        <ele>21</ele>
        <time>2017-06-25T06:45:08Z</time>
      </trkpt>
      <trkpt lat="45.83258" lon="-0.69099">
        <ele>21</ele>
        <time>2017-06-25T06:45:09Z</time>
      </trkpt>
      <trkpt lat="45.83258" lon="-0.69101">
        <ele>21</ele>
        <time>2017-06-25T06:45:10Z</time>
      </trkpt>
      <trkpt lat="45.83259" lon="-0.69103">
        <ele>21</ele>
        <time>2017-06-25T06:45:11Z</time>
      </trkpt>
      <trkpt lat="45.8326" lon="-0.69106">
        <ele>21</ele>
        <time>2017-06-25T06:45:12Z</time>
      </trkpt>
      <trkpt lat="45.8326" lon="-0.69108">
        <ele>21</ele>
        <time>2017-06-25T06:45:13Z</time>
      </trkpt>
      <trkpt lat="45.83261" lon="-0.6911">
        <ele>21</ele>
        <time>2017-06-25T06:45:14Z</time>
      </trkpt>
      <trkpt lat="45.83262" lon="-0.69112">
        <ele>20</ele>
        <time>2017-06-25T06:45:15Z</time>
      </trkpt>
      <trkpt lat="45.83263" lon="-0.69114">
        <ele>20</ele>
        <time>2017-06-25T06:45:16Z</time>
      </trkpt>
      <trkpt lat="45.83263" lon="-0.69116">
        <ele>20</ele>
        <time>2017-06-25T06:45:17Z</time>
      </trkpt>
      <trkpt lat="45.83264" lon="-0.69119">
        <ele>20</ele>
        <time>2017-06-25T06:45:19Z</time>
      </trkpt>
      <trkpt lat="45.83265" lon="-0.6912">
        <ele>20</ele>
        <time>2017-06-25T06:45:20Z</time>
      </trkpt>
      <trkpt lat="45.83265" lon="-0.69122">
        <ele>20</ele>
        <time>2017-06-25T06:45:21Z</time>
      </trkpt>
      <trkpt lat="45.83265" lon="-0.69124">
        <ele>20</ele>
        <time>2017-06-25T06:45:22Z</time>
      </trkpt>
      <trkpt lat="45.83266" lon="-0.69127">
        <ele>20</ele>
        <time>2017-06-25T06:45:23Z</time>
      </trkpt>
      <trkpt lat="45.83267" lon="-0.69128">
        <ele>20</ele>
        <time>2017-06-25T06:45:24Z</time>
      </trkpt>
      <trkpt lat="45.83268" lon="-0.69131">
        <ele>20</ele>
        <time>2017-06-25T06:45:26Z</time>
      </trkpt>
      <trkpt lat="45.83268" lon="-0.69132">
        <ele>20</ele>
        <time>2017-06-25T06:45:27Z</time>
      </trkpt>
      <trkpt lat="45.83269" lon="-0.69133">
        <ele>20</ele>
        <time>2017-06-25T06:45:28Z</time>
      </trkpt>
      <trkpt lat="45.83269" lon="-0.69135">
        <ele>20</ele>
        <time>2017-06-25T06:45:29Z</time>
      </trkpt>
      <trkpt lat="45.8327" lon="-0.69137">
        <ele>20</ele>
        <time>2017-06-25T06:45:30Z</time>
      </trkpt>
      <trkpt lat="45.83271" lon="-0.69139">
        <ele>20</ele>
        <time>2017-06-25T06:45:31Z</time>
      </trkpt>
      <trkpt lat="45.83271" lon="-0.6914">
        <ele>20</ele>
        <time>2017-06-25T06:45:32Z</time>
      </trkpt>
      <trkpt lat="45.83272" lon="-0.69142">
        <ele>20</ele>
        <time>2017-06-25T06:45:33Z</time>
      </trkpt>
      <trkpt lat="45.83272" lon="-0.69143">
        <ele>20</ele>
        <time>2017-06-25T06:45:34Z</time>
      </trkpt>
      <trkpt lat="45.83273" lon="-0.69145">
        <ele>20</ele>
        <time>2017-06-25T06:45:35Z</time>
      </trkpt>
      <trkpt lat="45.83273" lon="-0.69147">
        <ele>20</ele>
        <time>2017-06-25T06:45:36Z</time>
      </trkpt>
      <trkpt lat="45.83274" lon="-0.69149">
        <ele>20</ele>
        <time>2017-06-25T06:45:37Z</time>
      </trkpt>
      <trkpt lat="45.83275" lon="-0.6915">
        <ele>20</ele>
        <time>2017-06-25T06:45:38Z</time>
      </trkpt>
      <trkpt lat="45.83276" lon="-0.69151">
        <ele>20</ele>
        <time>2017-06-25T06:45:39Z</time>
      </trkpt>
      <trkpt lat="45.83276" lon="-0.69153">
        <ele>20</ele>
        <time>2017-06-25T06:45:40Z</time>
      </trkpt>
      <trkpt lat="45.83276" lon="-0.69155">
        <ele>20</ele>
        <time>2017-06-25T06:45:41Z</time>
      </trkpt>
      <trkpt lat="45.83277" lon="-0.69156">
        <ele>20</ele>
        <time>2017-06-25T06:45:42Z</time>
      </trkpt>
      <trkpt lat="45.83277" lon="-0.69158">
        <ele>20</ele>
        <time>2017-06-25T06:45:43Z</time>
      </trkpt>
      <trkpt lat="45.83278" lon="-0.69159">
        <ele>20</ele>
        <time>2017-06-25T06:45:44Z</time>
      </trkpt>
      <trkpt lat="45.83278" lon="-0.69161">
        <ele>20</ele>
        <time>2017-06-25T06:45:45Z</time>
      </trkpt>
      <trkpt lat="45.83278" lon="-0.69163">
        <ele>20</ele>
        <time>2017-06-25T06:45:46Z</time>
      </trkpt>
      <trkpt lat="45.83279" lon="-0.69165">
        <ele>20</ele>
        <time>2017-06-25T06:45:47Z</time>
      </trkpt>
      <trkpt lat="45.83279" lon="-0.69167">
        <ele>21</ele>
        <time>2017-06-25T06:45:48Z</time>
      </trkpt>
      <trkpt lat="45.8328" lon="-0.69169">
        <ele>21</ele>
        <time>2017-06-25T06:45:49Z</time>
      </trkpt>
      <trkpt lat="45.83281" lon="-0.69171">
        <ele>21</ele>
        <time>2017-06-25T06:45:50Z</time>
      </trkpt>
      <trkpt lat="45.83281" lon="-0.69172">
        <ele>21</ele>
        <time>2017-06-25T06:45:51Z</time>
      </trkpt>
      <trkpt lat="45.83281" lon="-0.69174">
        <ele>21</ele>
        <time>2017-06-25T06:45:52Z</time>
      </trkpt>
      <trkpt lat="45.83282" lon="-0.69175">
        <ele>21</ele>
        <time>2017-06-25T06:45:53Z</time>
      </trkpt>
      <trkpt lat="45.83283" lon="-0.69177">
        <ele>21</ele>
        <time>2017-06-25T06:45:54Z</time>
      </trkpt>
      <trkpt lat="45.83283" lon="-0.69178">
        <ele>21</ele>
        <time>2017-06-25T06:45:55Z</time>
      </trkpt>
      <trkpt lat="45.83284" lon="-0.6918">
        <ele>21</ele>
        <time>2017-06-25T06:45:56Z</time>
      </trkpt>
      <trkpt lat="45.83284" lon="-0.69182">
        <ele>21</ele>
        <time>2017-06-25T06:45:57Z</time>
      </trkpt>
      <trkpt lat="45.83285" lon="-0.69184">
        <ele>21</ele>
        <time>2017-06-25T06:45:58Z</time>
      </trkpt>
      <trkpt lat="45.83286" lon="-0.69186">
        <ele>21</ele>
        <time>2017-06-25T06:45:59Z</time>
      </trkpt>
      <trkpt lat="45.83287" lon="-0.69187">
        <ele>21</ele>
        <time>2017-06-25T06:46:00Z</time>
      </trkpt>
      <trkpt lat="45.83288" lon="-0.6919">
        <ele>21</ele>
        <time>2017-06-25T06:46:01Z</time>
      </trkpt>
      <trkpt lat="45.83289" lon="-0.69192">
        <ele>21</ele>
        <time>2017-06-25T06:46:02Z</time>
      </trkpt>
      <trkpt lat="45.83289" lon="-0.69194">
        <ele>21</ele>
        <time>2017-06-25T06:46:03Z</time>
      </trkpt>
      <trkpt lat="45.83289" lon="-0.69196">
        <ele>21</ele>
        <time>2017-06-25T06:46:04Z</time>
      </trkpt>
      <trkpt lat="45.8329" lon="-0.69198">
        <ele>21</ele>
        <time>2017-06-25T06:46:05Z</time>
      </trkpt>
      <trkpt lat="45.83291" lon="-0.69199">
        <ele>21</ele>
        <time>2017-06-25T06:46:06Z</time>
      </trkpt>
      <trkpt lat="45.83291" lon="-0.69201">
        <ele>21</ele>
        <time>2017-06-25T06:46:07Z</time>
      </trkpt>
      <trkpt lat="45.83292" lon="-0.69202">
        <ele>21</ele>
        <time>2017-06-25T06:46:08Z</time>
      </trkpt>
      <trkpt lat="45.83292" lon="-0.69204">
        <ele>21</ele>
        <time>2017-06-25T06:46:09Z</time>
      </trkpt>
      <trkpt lat="45.83293" lon="-0.69206">
        <ele>21</ele>
        <time>2017-06-25T06:46:10Z</time>
      </trkpt>
      <trkpt lat="45.83294" lon="-0.69208">
        <ele>21</ele>
        <time>2017-06-25T06:46:11Z</time>
      </trkpt>
      <trkpt lat="45.83294" lon="-0.69209">
        <ele>21</ele>
        <time>2017-06-25T06:46:12Z</time>
      </trkpt>
      <trkpt lat="45.83295" lon="-0.69211">
        <ele>21</ele>
        <time>2017-06-25T06:46:13Z</time>
      </trkpt>
      <trkpt lat="45.83295" lon="-0.69212">
        <ele>21</ele>
        <time>2017-06-25T06:46:14Z</time>
      </trkpt>
      <trkpt lat="45.83296" lon="-0.69215">
        <ele>21</ele>
        <time>2017-06-25T06:46:16Z</time>
      </trkpt>
      <trkpt lat="45.83296" lon="-0.69216">
        <ele>21</ele>
        <time>2017-06-25T06:46:17Z</time>
      </trkpt>
      <trkpt lat="45.83297" lon="-0.69219">
        <ele>21</ele>
        <time>2017-06-25T06:46:19Z</time>
      </trkpt>
      <trkpt lat="45.83297" lon="-0.69222">
        <ele>21</ele>
        <time>2017-06-25T06:46:20Z</time>
      </trkpt>
      <trkpt lat="45.83298" lon="-0.69223">
        <ele>21</ele>
        <time>2017-06-25T06:46:21Z</time>
      </trkpt>
      <trkpt lat="45.83299" lon="-0.69225">
        <ele>21</ele>
        <time>2017-06-25T06:46:22Z</time>
      </trkpt>
      <trkpt lat="45.83299" lon="-0.69227">
        <ele>21</ele>
        <time>2017-06-25T06:46:23Z</time>
      </trkpt>
      <trkpt lat="45.833" lon="-0.69228">
        <ele>21</ele>
        <time>2017-06-25T06:46:24Z</time>
      </trkpt>
      <trkpt lat="45.833" lon="-0.69229">
        <ele>21</ele>
        <time>2017-06-25T06:46:25Z</time>
      </trkpt>
      <trkpt lat="45.83301" lon="-0.69231">
        <ele>21</ele>
        <time>2017-06-25T06:46:26Z</time>
      </trkpt>
      <trkpt lat="45.83302" lon="-0.69232">
        <ele>21</ele>
        <time>2017-06-25T06:46:27Z</time>
      </trkpt>
      <trkpt lat="45.83302" lon="-0.69234">
        <ele>21</ele>
        <time>2017-06-25T06:46:28Z</time>
      </trkpt>
      <trkpt lat="45.83302" lon="-0.69235">
        <ele>21</ele>
        <time>2017-06-25T06:46:29Z</time>
      </trkpt>
      <trkpt lat="45.83303" lon="-0.69237">
        <ele>21</ele>
        <time>2017-06-25T06:46:30Z</time>
      </trkpt>
      <trkpt lat="45.83303" lon="-0.69238">
        <ele>21</ele>
        <time>2017-06-25T06:46:31Z</time>
      </trkpt>
      <trkpt lat="45.83304" lon="-0.69239">
        <ele>21</ele>
        <time>2017-06-25T06:46:32Z</time>
      </trkpt>
      <trkpt lat="45.83304" lon="-0.69241">
        <ele>21</ele>
        <time>2017-06-25T06:46:33Z</time>
      </trkpt>
      <trkpt lat="45.83304" lon="-0.69243">
        <ele>21</ele>
        <time>2017-06-25T06:46:34Z</time>
      </trkpt>
      <trkpt lat="45.83305" lon="-0.69244">
        <ele>21</ele>
        <time>2017-06-25T06:46:35Z</time>
      </trkpt>
      <trkpt lat="45.83305" lon="-0.69246">
        <ele>21</ele>
        <time>2017-06-25T06:46:36Z</time>
      </trkpt>
      <trkpt lat="45.83305" lon="-0.69248">
        <ele>21</ele>
        <time>2017-06-25T06:46:37Z</time>
      </trkpt>
      <trkpt lat="45.83306" lon="-0.6925">
        <ele>21</ele>
        <time>2017-06-25T06:46:38Z</time>
      </trkpt>
      <trkpt lat="45.83306" lon="-0.69252">
        <ele>21</ele>
        <time>2017-06-25T06:46:39Z</time>
      </trkpt>
      <trkpt lat="45.83307" lon="-0.69253">
        <ele>21</ele>
        <time>2017-06-25T06:46:40Z</time>
      </trkpt>
      <trkpt lat="45.83307" lon="-0.69255">
        <ele>21</ele>
        <time>2017-06-25T06:46:41Z</time>
      </trkpt>
      <trkpt lat="45.83307" lon="-0.69256">
        <ele>21</ele>
        <time>2017-06-25T06:46:42Z</time>
      </trkpt>
      <trkpt lat="45.83308" lon="-0.69258">
        <ele>21</ele>
        <time>2017-06-25T06:46:43Z</time>
      </trkpt>
      <trkpt lat="45.83309" lon="-0.69259">
        <ele>21</ele>
        <time>2017-06-25T06:46:44Z</time>
      </trkpt>
      <trkpt lat="45.8331" lon="-0.69261">
        <ele>21</ele>
        <time>2017-06-25T06:46:45Z</time>
      </trkpt>
      <trkpt lat="45.8331" lon="-0.69262">
        <ele>21</ele>
        <time>2017-06-25T06:46:46Z</time>
      </trkpt>
      <trkpt lat="45.83311" lon="-0.69264">
        <ele>21</ele>
        <time>2017-06-25T06:46:47Z</time>
      </trkpt>
      <trkpt lat="45.83312" lon="-0.69265">
        <ele>21</ele>
        <time>2017-06-25T06:46:48Z</time>
      </trkpt>
      <trkpt lat="45.83312" lon="-0.69266">
        <ele>21</ele>
        <time>2017-06-25T06:46:49Z</time>
      </trkpt>
      <trkpt lat="45.83313" lon="-0.69268">
        <ele>21</ele>
        <time>2017-06-25T06:46:50Z</time>
      </trkpt>
      <trkpt lat="45.83314" lon="-0.6927">
        <ele>21</ele>
        <time>2017-06-25T06:46:51Z</time>
      </trkpt>
      <trkpt lat="45.83315" lon="-0.69272">
        <ele>21</ele>
        <time>2017-06-25T06:46:52Z</time>
      </trkpt>
      <trkpt lat="45.83315" lon="-0.69274">
        <ele>21</ele>
        <time>2017-06-25T06:46:53Z</time>
      </trkpt>
      <trkpt lat="45.83316" lon="-0.69275">
        <ele>21</ele>
        <time>2017-06-25T06:46:54Z</time>
      </trkpt>
      <trkpt lat="45.83316" lon="-0.69277">
        <ele>21</ele>
        <time>2017-06-25T06:46:55Z</time>
      </trkpt>
      <trkpt lat="45.83316" lon="-0.69278">
        <ele>21</ele>
        <time>2017-06-25T06:46:56Z</time>
      </trkpt>
      <trkpt lat="45.83317" lon="-0.69279">
        <ele>21</ele>
        <time>2017-06-25T06:46:57Z</time>
      </trkpt>
      <trkpt lat="45.83317" lon="-0.69282">
        <ele>21</ele>
        <time>2017-06-25T06:46:58Z</time>
      </trkpt>
      <trkpt lat="45.83318" lon="-0.69285">
        <ele>21</ele>
        <time>2017-06-25T06:46:59Z</time>
      </trkpt>
      <trkpt lat="45.83318" lon="-0.69286">
        <ele>21</ele>
        <time>2017-06-25T06:47:00Z</time>
      </trkpt>
      <trkpt lat="45.83319" lon="-0.69288">
        <ele>21</ele>
        <time>2017-06-25T06:47:01Z</time>
      </trkpt>
      <trkpt lat="45.8332" lon="-0.69289">
        <ele>21</ele>
        <time>2017-06-25T06:47:02Z</time>
      </trkpt>
      <trkpt lat="45.8332" lon="-0.69291">
        <ele>21</ele>
        <time>2017-06-25T06:47:03Z</time>
      </trkpt>
      <trkpt lat="45.83321" lon="-0.69295">
        <ele>21</ele>
        <time>2017-06-25T06:47:04Z</time>
      </trkpt>
      <trkpt lat="45.83321" lon="-0.69296">
        <ele>21</ele>
        <time>2017-06-25T06:47:05Z</time>
      </trkpt>
      <trkpt lat="45.83321" lon="-0.69298">
        <ele>21</ele>
        <time>2017-06-25T06:47:06Z</time>
      </trkpt>
      <trkpt lat="45.83322" lon="-0.69299">
        <ele>21</ele>
        <time>2017-06-25T06:47:07Z</time>
      </trkpt>
      <trkpt lat="45.83323" lon="-0.69301">
        <ele>21</ele>
        <time>2017-06-25T06:47:08Z</time>
      </trkpt>
      <trkpt lat="45.83323" lon="-0.69303">
        <ele>21</ele>
        <time>2017-06-25T06:47:09Z</time>
      </trkpt>
      <trkpt lat="45.83324" lon="-0.69305">
        <ele>21</ele>
        <time>2017-06-25T06:47:10Z</time>
      </trkpt>
      <trkpt lat="45.83324" lon="-0.69307">
        <ele>21</ele>
        <time>2017-06-25T06:47:11Z</time>
      </trkpt>
      <trkpt lat="45.83324" lon="-0.69308">
        <ele>21</ele>
        <time>2017-06-25T06:47:12Z</time>
      </trkpt>
      <trkpt lat="45.83325" lon="-0.6931">
        <ele>21</ele>
        <time>2017-06-25T06:47:13Z</time>
      </trkpt>
      <trkpt lat="45.83325" lon="-0.69312">
        <ele>21</ele>
        <time>2017-06-25T06:47:14Z</time>
      </trkpt>
      <trkpt lat="45.83326" lon="-0.69314">
        <ele>21</ele>
        <time>2017-06-25T06:47:15Z</time>
      </trkpt>
      <trkpt lat="45.83326" lon="-0.69316">
        <ele>21</ele>
        <time>2017-06-25T06:47:16Z</time>
      </trkpt>
      <trkpt lat="45.83327" lon="-0.69318">
        <ele>21</ele>
        <time>2017-06-25T06:47:17Z</time>
      </trkpt>
      <trkpt lat="45.83328" lon="-0.6932">
        <ele>21</ele>
        <time>2017-06-25T06:47:18Z</time>
      </trkpt>
      <trkpt lat="45.83329" lon="-0.69321">
        <ele>21</ele>
        <time>2017-06-25T06:47:19Z</time>
      </trkpt>
      <trkpt lat="45.8333" lon="-0.69323">
        <ele>21</ele>
        <time>2017-06-25T06:47:20Z</time>
      </trkpt>
      <trkpt lat="45.83331" lon="-0.69324">
        <ele>21</ele>
        <time>2017-06-25T06:47:21Z</time>
      </trkpt>
      <trkpt lat="45.83331" lon="-0.69327">
        <ele>21</ele>
        <time>2017-06-25T06:47:22Z</time>
      </trkpt>
      <trkpt lat="45.83332" lon="-0.69328">
        <ele>21</ele>
        <time>2017-06-25T06:47:23Z</time>
      </trkpt>
      <trkpt lat="45.83332" lon="-0.69329">
        <ele>21</ele>
        <time>2017-06-25T06:47:24Z</time>
      </trkpt>
      <trkpt lat="45.83333" lon="-0.69332">
        <ele>21</ele>
        <time>2017-06-25T06:47:25Z</time>
      </trkpt>
      <trkpt lat="45.83334" lon="-0.69333">
        <ele>21</ele>
        <time>2017-06-25T06:47:26Z</time>
      </trkpt>
      <trkpt lat="45.83335" lon="-0.69335">
        <ele>21</ele>
        <time>2017-06-25T06:47:27Z</time>
      </trkpt>
      <trkpt lat="45.83336" lon="-0.69337">
        <ele>21</ele>
        <time>2017-06-25T06:47:28Z</time>
      </trkpt>
      <trkpt lat="45.83337" lon="-0.69339">
        <ele>21</ele>
        <time>2017-06-25T06:47:29Z</time>
      </trkpt>
      <trkpt lat="45.83337" lon="-0.69341">
        <ele>21</ele>
        <time>2017-06-25T06:47:30Z</time>
      </trkpt>
      <trkpt lat="45.83339" lon="-0.69342">
        <ele>21</ele>
        <time>2017-06-25T06:47:31Z</time>
      </trkpt>
      <trkpt lat="45.83339" lon="-0.69344">
        <ele>21</ele>
        <time>2017-06-25T06:47:32Z</time>
      </trkpt>
      <trkpt lat="45.8334" lon="-0.69345">
        <ele>21</ele>
        <time>2017-06-25T06:47:33Z</time>
      </trkpt>
      <trkpt lat="45.83341" lon="-0.69347">
        <ele>21</ele>
        <time>2017-06-25T06:47:34Z</time>
      </trkpt>
      <trkpt lat="45.83341" lon="-0.69348">
        <ele>21</ele>
        <time>2017-06-25T06:47:35Z</time>
      </trkpt>
      <trkpt lat="45.83342" lon="-0.6935">
        <ele>21</ele>
        <time>2017-06-25T06:47:36Z</time>
      </trkpt>
      <trkpt lat="45.83343" lon="-0.69351">
        <ele>21</ele>
        <time>2017-06-25T06:47:37Z</time>
      </trkpt>
      <trkpt lat="45.83343" lon="-0.69353">
        <ele>21</ele>
        <time>2017-06-25T06:47:38Z</time>
      </trkpt>
      <trkpt lat="45.83344" lon="-0.69355">
        <ele>21</ele>
        <time>2017-06-25T06:47:39Z</time>
      </trkpt>
      <trkpt lat="45.83344" lon="-0.69356">
        <ele>21</ele>
        <time>2017-06-25T06:47:40Z</time>
      </trkpt>
      <trkpt lat="45.83345" lon="-0.69358">
        <ele>21</ele>
        <time>2017-06-25T06:47:41Z</time>
      </trkpt>
      <trkpt lat="45.83345" lon="-0.69359">
        <ele>21</ele>
        <time>2017-06-25T06:47:42Z</time>
      </trkpt>
      <trkpt lat="45.83345" lon="-0.69362">
        <ele>21</ele>
        <time>2017-06-25T06:47:43Z</time>
      </trkpt>
      <trkpt lat="45.83345" lon="-0.69364">
        <ele>21</ele>
        <time>2017-06-25T06:47:44Z</time>
      </trkpt>
      <trkpt lat="45.83345" lon="-0.69366">
        <ele>21</ele>
        <time>2017-06-25T06:47:45Z</time>
      </trkpt>
      <trkpt lat="45.83346" lon="-0.69368">
        <ele>21</ele>
        <time>2017-06-25T06:47:46Z</time>
      </trkpt>
      <trkpt lat="45.83346" lon="-0.6937">
        <ele>21</ele>
        <time>2017-06-25T06:47:47Z</time>
      </trkpt>
      <trkpt lat="45.83346" lon="-0.69372">
        <ele>21</ele>
        <time>2017-06-25T06:47:48Z</time>
      </trkpt>
      <trkpt lat="45.83347" lon="-0.69373">
        <ele>21</ele>
        <time>2017-06-25T06:47:49Z</time>
      </trkpt>
      <trkpt lat="45.83347" lon="-0.69375">
        <ele>21</ele>
        <time>2017-06-25T06:47:50Z</time>
      </trkpt>
      <trkpt lat="45.83348" lon="-0.69377">
        <ele>21</ele>
        <time>2017-06-25T06:47:51Z</time>
      </trkpt>
      <trkpt lat="45.83349" lon="-0.69379">
        <ele>21</ele>
        <time>2017-06-25T06:47:52Z</time>
      </trkpt>
      <trkpt lat="45.83349" lon="-0.69381">
        <ele>21</ele>
        <time>2017-06-25T06:47:53Z</time>
      </trkpt>
      <trkpt lat="45.8335" lon="-0.69383">
        <ele>21</ele>
        <time>2017-06-25T06:47:54Z</time>
      </trkpt>
      <trkpt lat="45.8335" lon="-0.69385">
        <ele>21</ele>
        <time>2017-06-25T06:47:55Z</time>
      </trkpt>
      <trkpt lat="45.8335" lon="-0.69387">
        <ele>21</ele>
        <time>2017-06-25T06:47:56Z</time>
      </trkpt>
      <trkpt lat="45.83351" lon="-0.69388">
        <ele>21</ele>
        <time>2017-06-25T06:47:57Z</time>
      </trkpt>
      <trkpt lat="45.83352" lon="-0.6939">
        <ele>21</ele>
        <time>2017-06-25T06:47:58Z</time>
      </trkpt>
      <trkpt lat="45.83352" lon="-0.69393">
        <ele>21</ele>
        <time>2017-06-25T06:47:59Z</time>
      </trkpt>
      <trkpt lat="45.83353" lon="-0.69395">
        <ele>21</ele>
        <time>2017-06-25T06:48:00Z</time>
      </trkpt>
      <trkpt lat="45.83353" lon="-0.69396">
        <ele>21</ele>
        <time>2017-06-25T06:48:01Z</time>
      </trkpt>
      <trkpt lat="45.83354" lon="-0.69397">
        <ele>21</ele>
        <time>2017-06-25T06:48:02Z</time>
      </trkpt>
      <trkpt lat="45.83355" lon="-0.69399">
        <ele>21</ele>
        <time>2017-06-25T06:48:03Z</time>
      </trkpt>
      <trkpt lat="45.83355" lon="-0.69399">
        <ele>21</ele>
        <time>2017-06-25T06:48:04Z</time>
      </trkpt>
      <trkpt lat="45.83356" lon="-0.69401">
        <ele>21</ele>
        <time>2017-06-25T06:48:05Z</time>
      </trkpt>
      <trkpt lat="45.83357" lon="-0.69404">
        <ele>21</ele>
        <time>2017-06-25T06:48:06Z</time>
      </trkpt>
      <trkpt lat="45.83358" lon="-0.69405">
        <ele>21</ele>
        <time>2017-06-25T06:48:07Z</time>
      </trkpt>
      <trkpt lat="45.83358" lon="-0.69406">
        <ele>21</ele>
        <time>2017-06-25T06:48:08Z</time>
      </trkpt>
      <trkpt lat="45.83359" lon="-0.69407">
        <ele>21</ele>
        <time>2017-06-25T06:48:09Z</time>
      </trkpt>
      <trkpt lat="45.83359" lon="-0.69409">
        <ele>21</ele>
        <time>2017-06-25T06:48:10Z</time>
      </trkpt>
      <trkpt lat="45.83359" lon="-0.6941">
        <ele>21</ele>
        <time>2017-06-25T06:48:11Z</time>
      </trkpt>
      <trkpt lat="45.8336" lon="-0.69412">
        <ele>21</ele>
        <time>2017-06-25T06:48:12Z</time>
      </trkpt>
      <trkpt lat="45.83361" lon="-0.69414">
        <ele>21</ele>
        <time>2017-06-25T06:48:13Z</time>
      </trkpt>
      <trkpt lat="45.83361" lon="-0.69416">
        <ele>21</ele>
        <time>2017-06-25T06:48:14Z</time>
      </trkpt>
      <trkpt lat="45.83361" lon="-0.69417">
        <ele>20</ele>
        <time>2017-06-25T06:48:15Z</time>
      </trkpt>
      <trkpt lat="45.83362" lon="-0.69418">
        <ele>20</ele>
        <time>2017-06-25T06:48:16Z</time>
      </trkpt>
      <trkpt lat="45.83362" lon="-0.6942">
        <ele>20</ele>
        <time>2017-06-25T06:48:17Z</time>
      </trkpt>
      <trkpt lat="45.83362" lon="-0.69422">
        <ele>20</ele>
        <time>2017-06-25T06:48:18Z</time>
      </trkpt>
      <trkpt lat="45.83363" lon="-0.69423">
        <ele>20</ele>
        <time>2017-06-25T06:48:19Z</time>
      </trkpt>
      <trkpt lat="45.83363" lon="-0.69427">
        <ele>20</ele>
        <time>2017-06-25T06:48:20Z</time>
      </trkpt>
      <trkpt lat="45.83363" lon="-0.69429">
        <ele>20</ele>
        <time>2017-06-25T06:48:21Z</time>
      </trkpt>
      <trkpt lat="45.83363" lon="-0.6943">
        <ele>20</ele>
        <time>2017-06-25T06:48:22Z</time>
      </trkpt>
      <trkpt lat="45.83365" lon="-0.69433">
        <ele>20</ele>
        <time>2017-06-25T06:48:24Z</time>
      </trkpt>
      <trkpt lat="45.83365" lon="-0.69435">
        <ele>20</ele>
        <time>2017-06-25T06:48:25Z</time>
      </trkpt>
      <trkpt lat="45.83366" lon="-0.69436">
        <ele>20</ele>
        <time>2017-06-25T06:48:26Z</time>
      </trkpt>
      <trkpt lat="45.83367" lon="-0.69439">
        <ele>20</ele>
        <time>2017-06-25T06:48:28Z</time>
      </trkpt>
      <trkpt lat="45.83368" lon="-0.6944">
        <ele>20</ele>
        <time>2017-06-25T06:48:29Z</time>
      </trkpt>
      <trkpt lat="45.83368" lon="-0.69442">
        <ele>20</ele>
        <time>2017-06-25T06:48:30Z</time>
      </trkpt>
      <trkpt lat="45.83368" lon="-0.69444">
        <ele>20</ele>
        <time>2017-06-25T06:48:32Z</time>
      </trkpt>
      <trkpt lat="45.83369" lon="-0.69445">
        <ele>20</ele>
        <time>2017-06-25T06:48:33Z</time>
      </trkpt>
      <trkpt lat="45.83371" lon="-0.69447">
        <ele>20</ele>
        <time>2017-06-25T06:48:34Z</time>
      </trkpt>
      <trkpt lat="45.83372" lon="-0.69449">
        <ele>20</ele>
        <time>2017-06-25T06:48:35Z</time>
      </trkpt>
      <trkpt lat="45.83372" lon="-0.6945">
        <ele>20</ele>
        <time>2017-06-25T06:48:36Z</time>
      </trkpt>
      <trkpt lat="45.83373" lon="-0.69452">
        <ele>20</ele>
        <time>2017-06-25T06:48:37Z</time>
      </trkpt>
      <trkpt lat="45.83373" lon="-0.69454">
        <ele>20</ele>
        <time>2017-06-25T06:48:38Z</time>
      </trkpt>
      <trkpt lat="45.83375" lon="-0.69455">
        <ele>20</ele>
        <time>2017-06-25T06:48:40Z</time>
      </trkpt>
      <trkpt lat="45.83376" lon="-0.69457">
        <ele>20</ele>
        <time>2017-06-25T06:48:41Z</time>
      </trkpt>
      <trkpt lat="45.83376" lon="-0.69458">
        <ele>20</ele>
        <time>2017-06-25T06:48:42Z</time>
      </trkpt>
      <trkpt lat="45.83378" lon="-0.6946">
        <ele>20</ele>
        <time>2017-06-25T06:48:43Z</time>
      </trkpt>
      <trkpt lat="45.83378" lon="-0.69462">
        <ele>20</ele>
        <time>2017-06-25T06:48:45Z</time>
      </trkpt>
      <trkpt lat="45.83379" lon="-0.69463">
        <ele>20</ele>
        <time>2017-06-25T06:48:46Z</time>
      </trkpt>
      <trkpt lat="45.8338" lon="-0.69464">
        <ele>20</ele>
        <time>2017-06-25T06:48:48Z</time>
      </trkpt>
      <trkpt lat="45.83381" lon="-0.69465">
        <ele>20</ele>
        <time>2017-06-25T06:48:50Z</time>
      </trkpt>
      <trkpt lat="45.83382" lon="-0.69466">
        <ele>20</ele>
        <time>2017-06-25T06:48:57Z</time>
      </trkpt>
      <trkpt lat="45.83384" lon="-0.69466">
        <ele>20</ele>
        <time>2017-06-25T06:49:00Z</time>
      </trkpt>
      <trkpt lat="45.83384" lon="-0.69462">
        <ele>20</ele>
        <time>2017-06-25T06:49:01Z</time>
      </trkpt>
      <trkpt lat="45.83386" lon="-0.69461">
        <ele>20</ele>
        <time>2017-06-25T06:49:02Z</time>
      </trkpt>
      <trkpt lat="45.83387" lon="-0.6946">
        <ele>20</ele>
        <time>2017-06-25T06:49:03Z</time>
      </trkpt>
      <trkpt lat="45.83388" lon="-0.6946">
        <ele>20</ele>
        <time>2017-06-25T06:49:04Z</time>
      </trkpt>
      <trkpt lat="45.83389" lon="-0.69459">
        <ele>20</ele>
        <time>2017-06-25T06:49:05Z</time>
      </trkpt>
      <trkpt lat="45.8339" lon="-0.69458">
        <ele>20</ele>
        <time>2017-06-25T06:49:06Z</time>
      </trkpt>
      <trkpt lat="45.83392" lon="-0.69458">
        <ele>20</ele>
        <time>2017-06-25T06:49:08Z</time>
      </trkpt>
      <trkpt lat="45.83392" lon="-0.69459">
        <ele>20</ele>
        <time>2017-06-25T06:49:09Z</time>
      </trkpt>
      <trkpt lat="45.83394" lon="-0.69459">
        <ele>20</ele>
        <time>2017-06-25T06:49:10Z</time>
      </trkpt>
      <trkpt lat="45.83397" lon="-0.6946">
        <ele>20</ele>
        <time>2017-06-25T06:49:12Z</time>
      </trkpt>
      <trkpt lat="45.83399" lon="-0.69462">
        <ele>20</ele>
        <time>2017-06-25T06:49:13Z</time>
      </trkpt>
      <trkpt lat="45.83401" lon="-0.69462">
        <ele>20</ele>
        <time>2017-06-25T06:49:14Z</time>
      </trkpt>
      <trkpt lat="45.83402" lon="-0.69462">
        <ele>20</ele>
        <time>2017-06-25T06:49:27Z</time>
      </trkpt>
      <trkpt lat="45.83403" lon="-0.69463">
        <ele>20</ele>
        <time>2017-06-25T06:49:44Z</time>
      </trkpt>
      <trkpt lat="45.83403" lon="-0.69463">
        <ele>20</ele>
        <time>2017-06-25T06:49:53Z</time>
      </trkpt>
      <trkpt lat="45.83405" lon="-0.69463">
        <ele>20</ele>
        <time>2017-06-25T06:49:54Z</time>
      </trkpt>
      <trkpt lat="45.83406" lon="-0.69463">
        <ele>20</ele>
        <time>2017-06-25T06:49:55Z</time>
      </trkpt>
      <trkpt lat="45.83408" lon="-0.69463">
        <ele>20</ele>
        <time>2017-06-25T06:49:56Z</time>
      </trkpt>
      <trkpt lat="45.83408" lon="-0.69463">
        <ele>20</ele>
        <time>2017-06-25T06:49:57Z</time>
      </trkpt>
      <trkpt lat="45.8341" lon="-0.69463">
        <ele>20</ele>
        <time>2017-06-25T06:49:58Z</time>
      </trkpt>
      <trkpt lat="45.83411" lon="-0.69462">
        <ele>20</ele>
        <time>2017-06-25T06:50:00Z</time>
      </trkpt>
      <trkpt lat="45.83413" lon="-0.69461">
        <ele>20</ele>
        <time>2017-06-25T06:50:02Z</time>
      </trkpt>
      <trkpt lat="45.83414" lon="-0.69459">
        <ele>20</ele>
        <time>2017-06-25T06:50:04Z</time>
      </trkpt>
      <trkpt lat="45.83415" lon="-0.69458">
        <ele>20</ele>
        <time>2017-06-25T06:50:05Z</time>
      </trkpt>
      <trkpt lat="45.83416" lon="-0.69456">
        <ele>20</ele>
        <time>2017-06-25T06:50:06Z</time>
      </trkpt>
      <trkpt lat="45.83416" lon="-0.69453">
        <ele>20</ele>
        <time>2017-06-25T06:50:08Z</time>
      </trkpt>
      <trkpt lat="45.83416" lon="-0.69452">
        <ele>20</ele>
        <time>2017-06-25T06:50:10Z</time>
      </trkpt>
      <trkpt lat="45.83417" lon="-0.6945">
        <ele>20</ele>
        <time>2017-06-25T06:50:11Z</time>
      </trkpt>
      <trkpt lat="45.83418" lon="-0.69448">
        <ele>20</ele>
        <time>2017-06-25T06:50:13Z</time>
      </trkpt>
      <trkpt lat="45.83418" lon="-0.69446">
        <ele>20</ele>
        <time>2017-06-25T06:50:14Z</time>
      </trkpt>
      <trkpt lat="45.83419" lon="-0.69444">
        <ele>20</ele>
        <time>2017-06-25T06:50:16Z</time>
      </trkpt>
      <trkpt lat="45.8342" lon="-0.69443">
        <ele>20</ele>
        <time>2017-06-25T06:50:18Z</time>
      </trkpt>
      <trkpt lat="45.83421" lon="-0.69442">
        <ele>20</ele>
        <time>2017-06-25T06:50:24Z</time>
      </trkpt>
      <trkpt lat="45.83421" lon="-0.69439">
        <ele>20</ele>
        <time>2017-06-25T06:50:26Z</time>
      </trkpt>
      <trkpt lat="45.83422" lon="-0.69437">
        <ele>20</ele>
        <time>2017-06-25T06:50:28Z</time>
      </trkpt>
      <trkpt lat="45.83423" lon="-0.69435">
        <ele>20</ele>
        <time>2017-06-25T06:50:30Z</time>
      </trkpt>
      <trkpt lat="45.83424" lon="-0.69433">
        <ele>20</ele>
        <time>2017-06-25T06:50:31Z</time>
      </trkpt>
      <trkpt lat="45.83424" lon="-0.69431">
        <ele>20</ele>
        <time>2017-06-25T06:50:33Z</time>
      </trkpt>
      <trkpt lat="45.83424" lon="-0.69429">
        <ele>20</ele>
        <time>2017-06-25T06:50:34Z</time>
      </trkpt>
      <trkpt lat="45.83425" lon="-0.69428">
        <ele>20</ele>
        <time>2017-06-25T06:50:35Z</time>
      </trkpt>
      <trkpt lat="45.83425" lon="-0.69425">
        <ele>20</ele>
        <time>2017-06-25T06:50:36Z</time>
      </trkpt>
      <trkpt lat="45.83426" lon="-0.69424">
        <ele>20</ele>
        <time>2017-06-25T06:50:37Z</time>
      </trkpt>
      <trkpt lat="45.83426" lon="-0.69421">
        <ele>20</ele>
        <time>2017-06-25T06:50:38Z</time>
      </trkpt>
      <trkpt lat="45.83427" lon="-0.6942">
        <ele>20</ele>
        <time>2017-06-25T06:50:39Z</time>
      </trkpt>
      <trkpt lat="45.83428" lon="-0.69418">
        <ele>20</ele>
        <time>2017-06-25T06:50:41Z</time>
      </trkpt>
      <trkpt lat="45.83428" lon="-0.69417">
        <ele>21</ele>
        <time>2017-06-25T06:50:42Z</time>
      </trkpt>
      <trkpt lat="45.83429" lon="-0.69416">
        <ele>21</ele>
        <time>2017-06-25T06:50:44Z</time>
      </trkpt>
      <trkpt lat="45.83429" lon="-0.69414">
        <ele>21</ele>
        <time>2017-06-25T06:50:48Z</time>
      </trkpt>
      <trkpt lat="45.83429" lon="-0.69413">
        <ele>21</ele>
        <time>2017-06-25T06:50:49Z</time>
      </trkpt>
      <trkpt lat="45.8343" lon="-0.69411">
        <ele>21</ele>
        <time>2017-06-25T06:50:50Z</time>
      </trkpt>
      <trkpt lat="45.83431" lon="-0.6941">
        <ele>21</ele>
        <time>2017-06-25T06:50:51Z</time>
      </trkpt>
      <trkpt lat="45.83432" lon="-0.69409">
        <ele>21</ele>
        <time>2017-06-25T06:50:52Z</time>
      </trkpt>
      <trkpt lat="45.83432" lon="-0.69407">
        <ele>21</ele>
        <time>2017-06-25T06:50:53Z</time>
      </trkpt>
      <trkpt lat="45.83432" lon="-0.69406">
        <ele>21</ele>
        <time>2017-06-25T06:50:54Z</time>
      </trkpt>
      <trkpt lat="45.83433" lon="-0.69405">
        <ele>21</ele>
        <time>2017-06-25T06:50:55Z</time>
      </trkpt>
      <trkpt lat="45.83434" lon="-0.69404">
        <ele>21</ele>
        <time>2017-06-25T06:50:56Z</time>
      </trkpt>
      <trkpt lat="45.83435" lon="-0.69402">
        <ele>21</ele>
        <time>2017-06-25T06:50:58Z</time>
      </trkpt>
      <trkpt lat="45.83435" lon="-0.69401">
        <ele>21</ele>
        <time>2017-06-25T06:51:00Z</time>
      </trkpt>
      <trkpt lat="45.83436" lon="-0.69399">
        <ele>21</ele>
        <time>2017-06-25T06:51:02Z</time>
      </trkpt>
      <trkpt lat="45.83437" lon="-0.69397">
        <ele>21</ele>
        <time>2017-06-25T06:51:03Z</time>
      </trkpt>
      <trkpt lat="45.83439" lon="-0.69395">
        <ele>21</ele>
        <time>2017-06-25T06:51:05Z</time>
      </trkpt>
      <trkpt lat="45.8344" lon="-0.69394">
        <ele>21</ele>
        <time>2017-06-25T06:51:07Z</time>
      </trkpt>
      <trkpt lat="45.8344" lon="-0.69393">
        <ele>21</ele>
        <time>2017-06-25T06:51:09Z</time>
      </trkpt>
      <trkpt lat="45.83442" lon="-0.69392">
        <ele>21</ele>
        <time>2017-06-25T06:51:11Z</time>
      </trkpt>
      <trkpt lat="45.83443" lon="-0.69391">
        <ele>21</ele>
        <time>2017-06-25T06:51:12Z</time>
      </trkpt>
      <trkpt lat="45.83444" lon="-0.69389">
        <ele>21</ele>
        <time>2017-06-25T06:51:14Z</time>
      </trkpt>
      <trkpt lat="45.83446" lon="-0.69388">
        <ele>21</ele>
        <time>2017-06-25T06:51:16Z</time>
      </trkpt>
      <trkpt lat="45.83447" lon="-0.69386">
        <ele>21</ele>
        <time>2017-06-25T06:51:17Z</time>
      </trkpt>
      <trkpt lat="45.83448" lon="-0.69385">
        <ele>21</ele>
        <time>2017-06-25T06:51:19Z</time>
      </trkpt>
      <trkpt lat="45.83449" lon="-0.69384">
        <ele>21</ele>
        <time>2017-06-25T06:51:20Z</time>
      </trkpt>
      <trkpt lat="45.8345" lon="-0.69383">
        <ele>21</ele>
        <time>2017-06-25T06:51:21Z</time>
      </trkpt>
      <trkpt lat="45.83451" lon="-0.69382">
        <ele>21</ele>
        <time>2017-06-25T06:51:22Z</time>
      </trkpt>
      <trkpt lat="45.83452" lon="-0.6938">
        <ele>21</ele>
        <time>2017-06-25T06:51:23Z</time>
      </trkpt>
      <trkpt lat="45.83452" lon="-0.69377">
        <ele>21</ele>
        <time>2017-06-25T06:51:25Z</time>
      </trkpt>
      <trkpt lat="45.83452" lon="-0.69376">
        <ele>21</ele>
        <time>2017-06-25T06:51:26Z</time>
      </trkpt>
      <trkpt lat="45.83452" lon="-0.69374">
        <ele>21</ele>
        <time>2017-06-25T06:51:27Z</time>
      </trkpt>
      <trkpt lat="45.83452" lon="-0.69371">
        <ele>21</ele>
        <time>2017-06-25T06:51:28Z</time>
      </trkpt>
      <trkpt lat="45.83453" lon="-0.6937">
        <ele>21</ele>
        <time>2017-06-25T06:51:29Z</time>
      </trkpt>
      <trkpt lat="45.83453" lon="-0.69368">
        <ele>21</ele>
        <time>2017-06-25T06:51:30Z</time>
      </trkpt>
      <trkpt lat="45.83452" lon="-0.69367">
        <ele>21</ele>
        <time>2017-06-25T06:51:31Z</time>
      </trkpt>
      <trkpt lat="45.83452" lon="-0.69365">
        <ele>21</ele>
        <time>2017-06-25T06:51:32Z</time>
      </trkpt>
      <trkpt lat="45.83451" lon="-0.69363">
        <ele>21</ele>
        <time>2017-06-25T06:51:33Z</time>
      </trkpt>
      <trkpt lat="45.83452" lon="-0.69362">
        <ele>22</ele>
        <time>2017-06-25T06:51:34Z</time>
      </trkpt>
      <trkpt lat="45.83452" lon="-0.6936">
        <ele>22</ele>
        <time>2017-06-25T06:51:35Z</time>
      </trkpt>
      <trkpt lat="45.83453" lon="-0.69358">
        <ele>22</ele>
        <time>2017-06-25T06:51:37Z</time>
      </trkpt>
      <trkpt lat="45.83453" lon="-0.69357">
        <ele>22</ele>
        <time>2017-06-25T06:51:38Z</time>
      </trkpt>
      <trkpt lat="45.83455" lon="-0.69355">
        <ele>22</ele>
        <time>2017-06-25T06:51:39Z</time>
      </trkpt>
      <trkpt lat="45.83456" lon="-0.69354">
        <ele>22</ele>
        <time>2017-06-25T06:51:40Z</time>
      </trkpt>
      <trkpt lat="45.83456" lon="-0.69352">
        <ele>22</ele>
        <time>2017-06-25T06:51:41Z</time>
      </trkpt>
      <trkpt lat="45.83457" lon="-0.69351">
        <ele>22</ele>
        <time>2017-06-25T06:51:42Z</time>
      </trkpt>
      <trkpt lat="45.83458" lon="-0.69349">
        <ele>22</ele>
        <time>2017-06-25T06:51:43Z</time>
      </trkpt>
      <trkpt lat="45.83459" lon="-0.69347">
        <ele>22</ele>
        <time>2017-06-25T06:51:44Z</time>
      </trkpt>
      <trkpt lat="45.83459" lon="-0.69345">
        <ele>22</ele>
        <time>2017-06-25T06:51:45Z</time>
      </trkpt>
      <trkpt lat="45.8346" lon="-0.69343">
        <ele>22</ele>
        <time>2017-06-25T06:51:46Z</time>
      </trkpt>
      <trkpt lat="45.8346" lon="-0.69342">
        <ele>22</ele>
        <time>2017-06-25T06:51:47Z</time>
      </trkpt>
      <trkpt lat="45.83461" lon="-0.69341">
        <ele>22</ele>
        <time>2017-06-25T06:51:49Z</time>
      </trkpt>
      <trkpt lat="45.83462" lon="-0.6934">
        <ele>22</ele>
        <time>2017-06-25T06:51:52Z</time>
      </trkpt>
      <trkpt lat="45.83463" lon="-0.6934">
        <ele>22</ele>
        <time>2017-06-25T06:51:55Z</time>
      </trkpt>
      <trkpt lat="45.83465" lon="-0.69339">
        <ele>22</ele>
        <time>2017-06-25T06:51:58Z</time>
      </trkpt>
      <trkpt lat="45.83466" lon="-0.69339">
        <ele>22</ele>
        <time>2017-06-25T06:52:00Z</time>
      </trkpt>
      <trkpt lat="45.83467" lon="-0.69339">
        <ele>22</ele>
        <time>2017-06-25T06:52:01Z</time>
      </trkpt>
      <trkpt lat="45.83468" lon="-0.69339">
        <ele>22</ele>
        <time>2017-06-25T06:52:03Z</time>
      </trkpt>
      <trkpt lat="45.8347" lon="-0.6934">
        <ele>22</ele>
        <time>2017-06-25T06:52:05Z</time>
      </trkpt>
      <trkpt lat="45.83471" lon="-0.69341">
        <ele>22</ele>
        <time>2017-06-25T06:52:08Z</time>
      </trkpt>
      <trkpt lat="45.83472" lon="-0.6934">
        <ele>22</ele>
        <time>2017-06-25T06:52:10Z</time>
      </trkpt>
      <trkpt lat="45.83474" lon="-0.69338">
        <ele>22</ele>
        <time>2017-06-25T06:52:11Z</time>
      </trkpt>
      <trkpt lat="45.83475" lon="-0.69337">
        <ele>22</ele>
        <time>2017-06-25T06:52:12Z</time>
      </trkpt>
      <trkpt lat="45.83476" lon="-0.69337">
        <ele>22</ele>
        <time>2017-06-25T06:52:13Z</time>
      </trkpt>
      <trkpt lat="45.83477" lon="-0.69336">
        <ele>22</ele>
        <time>2017-06-25T06:52:15Z</time>
      </trkpt>
      <trkpt lat="45.8348" lon="-0.69336">
        <ele>22</ele>
        <time>2017-06-25T06:52:23Z</time>
      </trkpt>
      <trkpt lat="45.83481" lon="-0.69337">
        <ele>22</ele>
        <time>2017-06-25T06:52:24Z</time>
      </trkpt>
      <trkpt lat="45.83483" lon="-0.69338">
        <ele>22</ele>
        <time>2017-06-25T06:52:25Z</time>
      </trkpt>
      <trkpt lat="45.83485" lon="-0.69339">
        <ele>22</ele>
        <time>2017-06-25T06:52:26Z</time>
      </trkpt>
      <trkpt lat="45.83487" lon="-0.6934">
        <ele>22</ele>
        <time>2017-06-25T06:52:27Z</time>
      </trkpt>
      <trkpt lat="45.83489" lon="-0.69342">
        <ele>22</ele>
        <time>2017-06-25T06:52:28Z</time>
      </trkpt>
      <trkpt lat="45.8349" lon="-0.69343">
        <ele>22</ele>
        <time>2017-06-25T06:52:29Z</time>
      </trkpt>
      <trkpt lat="45.83491" lon="-0.69343">
        <ele>22</ele>
        <time>2017-06-25T06:52:30Z</time>
      </trkpt>
      <trkpt lat="45.83492" lon="-0.69344">
        <ele>22</ele>
        <time>2017-06-25T06:52:31Z</time>
      </trkpt>
      <trkpt lat="45.83494" lon="-0.69344">
        <ele>22</ele>
        <time>2017-06-25T06:52:32Z</time>
      </trkpt>
      <trkpt lat="45.83495" lon="-0.69345">
        <ele>22</ele>
        <time>2017-06-25T06:52:33Z</time>
      </trkpt>
      <trkpt lat="45.83497" lon="-0.69347">
        <ele>22</ele>
        <time>2017-06-25T06:52:35Z</time>
      </trkpt>
      <trkpt lat="45.83497" lon="-0.69348">
        <ele>22</ele>
        <time>2017-06-25T06:52:36Z</time>
      </trkpt>
      <trkpt lat="45.83498" lon="-0.6935">
        <ele>22</ele>
        <time>2017-06-25T06:52:37Z</time>
      </trkpt>
      <trkpt lat="45.83499" lon="-0.69352">
        <ele>22</ele>
        <time>2017-06-25T06:52:38Z</time>
      </trkpt>
      <trkpt lat="45.83499" lon="-0.69353">
        <ele>21</ele>
        <time>2017-06-25T06:52:39Z</time>
      </trkpt>
      <trkpt lat="45.83501" lon="-0.69354">
        <ele>20</ele>
        <time>2017-06-25T06:52:41Z</time>
      </trkpt>
      <trkpt lat="45.83502" lon="-0.69356">
        <ele>20</ele>
        <time>2017-06-25T06:52:42Z</time>
      </trkpt>
      <trkpt lat="45.83503" lon="-0.69357">
        <ele>20</ele>
        <time>2017-06-25T06:52:43Z</time>
      </trkpt>
      <trkpt lat="45.83504" lon="-0.69357">
        <ele>20</ele>
        <time>2017-06-25T06:52:44Z</time>
      </trkpt>
      <trkpt lat="45.83506" lon="-0.69358">
        <ele>20</ele>
        <time>2017-06-25T06:52:46Z</time>
      </trkpt>
      <trkpt lat="45.83507" lon="-0.69359">
        <ele>20</ele>
        <time>2017-06-25T06:52:48Z</time>
      </trkpt>
      <trkpt lat="45.83508" lon="-0.6936">
        <ele>20</ele>
        <time>2017-06-25T06:52:49Z</time>
      </trkpt>
      <trkpt lat="45.8351" lon="-0.6936">
        <ele>20</ele>
        <time>2017-06-25T06:52:50Z</time>
      </trkpt>
      <trkpt lat="45.83511" lon="-0.6936">
        <ele>20</ele>
        <time>2017-06-25T06:52:51Z</time>
      </trkpt>
      <trkpt lat="45.83513" lon="-0.6936">
        <ele>20</ele>
        <time>2017-06-25T06:52:53Z</time>
      </trkpt>
      <trkpt lat="45.83514" lon="-0.6936">
        <ele>20</ele>
        <time>2017-06-25T06:52:54Z</time>
      </trkpt>
      <trkpt lat="45.83515" lon="-0.6936">
        <ele>20</ele>
        <time>2017-06-25T06:52:55Z</time>
      </trkpt>
      <trkpt lat="45.83518" lon="-0.6936">
        <ele>20</ele>
        <time>2017-06-25T06:52:57Z</time>
      </trkpt>
      <trkpt lat="45.83518" lon="-0.6936">
        <ele>20</ele>
        <time>2017-06-25T06:53:01Z</time>
      </trkpt>
      <trkpt lat="45.83519" lon="-0.69361">
        <ele>20</ele>
        <time>2017-06-25T06:53:03Z</time>
      </trkpt>
      <trkpt lat="45.83521" lon="-0.69362">
        <ele>20</ele>
        <time>2017-06-25T06:53:06Z</time>
      </trkpt>
      <trkpt lat="45.83522" lon="-0.69362">
        <ele>20</ele>
        <time>2017-06-25T06:53:08Z</time>
      </trkpt>
      <trkpt lat="45.83523" lon="-0.69363">
        <ele>20</ele>
        <time>2017-06-25T06:53:09Z</time>
      </trkpt>
      <trkpt lat="45.83524" lon="-0.69363">
        <ele>20</ele>
        <time>2017-06-25T06:53:10Z</time>
      </trkpt>
      <trkpt lat="45.83526" lon="-0.69363">
        <ele>20</ele>
        <time>2017-06-25T06:53:12Z</time>
      </trkpt>
      <trkpt lat="45.83527" lon="-0.69363">
        <ele>20</ele>
        <time>2017-06-25T06:53:14Z</time>
      </trkpt>
      <trkpt lat="45.8353" lon="-0.69364">
        <ele>20</ele>
        <time>2017-06-25T06:53:15Z</time>
      </trkpt>
      <trkpt lat="45.83531" lon="-0.69364">
        <ele>20</ele>
        <time>2017-06-25T06:53:16Z</time>
      </trkpt>
      <trkpt lat="45.83534" lon="-0.69365">
        <ele>20</ele>
        <time>2017-06-25T06:53:18Z</time>
      </trkpt>
      <trkpt lat="45.83535" lon="-0.69365">
        <ele>20</ele>
        <time>2017-06-25T06:53:19Z</time>
      </trkpt>
      <trkpt lat="45.83536" lon="-0.69365">
        <ele>19</ele>
        <time>2017-06-25T06:53:20Z</time>
      </trkpt>
      <trkpt lat="45.83537" lon="-0.69365">
        <ele>19</ele>
        <time>2017-06-25T06:53:21Z</time>
      </trkpt>
      <trkpt lat="45.83539" lon="-0.69366">
        <ele>19</ele>
        <time>2017-06-25T06:53:23Z</time>
      </trkpt>
      <trkpt lat="45.8354" lon="-0.69367">
        <ele>19</ele>
        <time>2017-06-25T06:53:24Z</time>
      </trkpt>
      <trkpt lat="45.83542" lon="-0.69368">
        <ele>19</ele>
        <time>2017-06-25T06:53:25Z</time>
      </trkpt>
      <trkpt lat="45.83544" lon="-0.69369">
        <ele>19</ele>
        <time>2017-06-25T06:53:26Z</time>
      </trkpt>
      <trkpt lat="45.83545" lon="-0.69369">
        <ele>19</ele>
        <time>2017-06-25T06:53:27Z</time>
      </trkpt>
      <trkpt lat="45.83546" lon="-0.69369">
        <ele>19</ele>
        <time>2017-06-25T06:53:29Z</time>
      </trkpt>
      <trkpt lat="45.83548" lon="-0.69369">
        <ele>19</ele>
        <time>2017-06-25T06:53:30Z</time>
      </trkpt>
      <trkpt lat="45.83551" lon="-0.69369">
        <ele>19</ele>
        <time>2017-06-25T06:53:32Z</time>
      </trkpt>
      <trkpt lat="45.83553" lon="-0.69369">
        <ele>19</ele>
        <time>2017-06-25T06:53:34Z</time>
      </trkpt>
      <trkpt lat="45.83555" lon="-0.6937">
        <ele>19</ele>
        <time>2017-06-25T06:53:35Z</time>
      </trkpt>
      <trkpt lat="45.83556" lon="-0.69371">
        <ele>19</ele>
        <time>2017-06-25T06:53:36Z</time>
      </trkpt>
      <trkpt lat="45.83557" lon="-0.69372">
        <ele>19</ele>
        <time>2017-06-25T06:53:37Z</time>
      </trkpt>
      <trkpt lat="45.83558" lon="-0.69373">
        <ele>19</ele>
        <time>2017-06-25T06:53:38Z</time>
      </trkpt>
      <trkpt lat="45.83559" lon="-0.69375">
        <ele>19</ele>
        <time>2017-06-25T06:53:40Z</time>
      </trkpt>
      <trkpt lat="45.8356" lon="-0.69377">
        <ele>19</ele>
        <time>2017-06-25T06:53:41Z</time>
      </trkpt>
      <trkpt lat="45.83561" lon="-0.69377">
        <ele>19</ele>
        <time>2017-06-25T06:53:42Z</time>
      </trkpt>
      <trkpt lat="45.83563" lon="-0.69379">
        <ele>19</ele>
        <time>2017-06-25T06:53:43Z</time>
      </trkpt>
      <trkpt lat="45.83564" lon="-0.6938">
        <ele>19</ele>
        <time>2017-06-25T06:53:44Z</time>
      </trkpt>
      <trkpt lat="45.83566" lon="-0.69381">
        <ele>19</ele>
        <time>2017-06-25T06:53:45Z</time>
      </trkpt>
      <trkpt lat="45.83567" lon="-0.69383">
        <ele>19</ele>
        <time>2017-06-25T06:53:47Z</time>
      </trkpt>
      <trkpt lat="45.83569" lon="-0.69384">
        <ele>19</ele>
        <time>2017-06-25T06:53:48Z</time>
      </trkpt>
      <trkpt lat="45.83569" lon="-0.69385">
        <ele>19</ele>
        <time>2017-06-25T06:53:49Z</time>
      </trkpt>
      <trkpt lat="45.8357" lon="-0.69386">
        <ele>19</ele>
        <time>2017-06-25T06:53:50Z</time>
      </trkpt>
      <trkpt lat="45.83571" lon="-0.69388">
        <ele>19</ele>
        <time>2017-06-25T06:53:51Z</time>
      </trkpt>
      <trkpt lat="45.83572" lon="-0.69389">
        <ele>19</ele>
        <time>2017-06-25T06:53:53Z</time>
      </trkpt>
      <trkpt lat="45.83572" lon="-0.6939">
        <ele>19</ele>
        <time>2017-06-25T06:53:58Z</time>
      </trkpt>
      <trkpt lat="45.83574" lon="-0.6939">
        <ele>18</ele>
        <time>2017-06-25T06:54:00Z</time>
      </trkpt>
      <trkpt lat="45.83574" lon="-0.69392">
        <ele>18</ele>
        <time>2017-06-25T06:54:02Z</time>
      </trkpt>
      <trkpt lat="45.83575" lon="-0.69392">
        <ele>18</ele>
        <time>2017-06-25T06:54:03Z</time>
      </trkpt>
      <trkpt lat="45.83577" lon="-0.69393">
        <ele>18</ele>
        <time>2017-06-25T06:54:05Z</time>
      </trkpt>
      <trkpt lat="45.83577" lon="-0.69394">
        <ele>18</ele>
        <time>2017-06-25T06:54:06Z</time>
      </trkpt>
      <trkpt lat="45.83579" lon="-0.69395">
        <ele>18</ele>
        <time>2017-06-25T06:54:09Z</time>
      </trkpt>
      <trkpt lat="45.83579" lon="-0.69396">
        <ele>18</ele>
        <time>2017-06-25T06:54:11Z</time>
      </trkpt>
      <trkpt lat="45.83582" lon="-0.69396">
        <ele>18</ele>
        <time>2017-06-25T06:54:14Z</time>
      </trkpt>
      <trkpt lat="45.83583" lon="-0.69398">
        <ele>18</ele>
        <time>2017-06-25T06:54:15Z</time>
      </trkpt>
      <trkpt lat="45.83584" lon="-0.69399">
        <ele>17</ele>
        <time>2017-06-25T06:54:16Z</time>
      </trkpt>
      <trkpt lat="45.83587" lon="-0.69401">
        <ele>17</ele>
        <time>2017-06-25T06:54:17Z</time>
      </trkpt>
      <trkpt lat="45.83588" lon="-0.69401">
        <ele>17</ele>
        <time>2017-06-25T06:54:18Z</time>
      </trkpt>
      <trkpt lat="45.8359" lon="-0.69402">
        <ele>17</ele>
        <time>2017-06-25T06:54:19Z</time>
      </trkpt>
      <trkpt lat="45.83591" lon="-0.69403">
        <ele>17</ele>
        <time>2017-06-25T06:54:20Z</time>
      </trkpt>
      <trkpt lat="45.83593" lon="-0.69406">
        <ele>17</ele>
        <time>2017-06-25T06:54:22Z</time>
      </trkpt>
      <trkpt lat="45.83595" lon="-0.69408">
        <ele>17</ele>
        <time>2017-06-25T06:54:23Z</time>
      </trkpt>
      <trkpt lat="45.83595" lon="-0.69409">
        <ele>17</ele>
        <time>2017-06-25T06:54:24Z</time>
      </trkpt>
      <trkpt lat="45.83596" lon="-0.69411">
        <ele>17</ele>
        <time>2017-06-25T06:54:25Z</time>
      </trkpt>
      <trkpt lat="45.83597" lon="-0.69413">
        <ele>17</ele>
        <time>2017-06-25T06:54:26Z</time>
      </trkpt>
      <trkpt lat="45.83597" lon="-0.69414">
        <ele>17</ele>
        <time>2017-06-25T06:54:28Z</time>
      </trkpt>
      <trkpt lat="45.83598" lon="-0.69416">
        <ele>17</ele>
        <time>2017-06-25T06:54:29Z</time>
      </trkpt>
      <trkpt lat="45.83599" lon="-0.69417">
        <ele>17</ele>
        <time>2017-06-25T06:54:30Z</time>
      </trkpt>
      <trkpt lat="45.836" lon="-0.69418">
        <ele>17</ele>
        <time>2017-06-25T06:54:31Z</time>
      </trkpt>
      <trkpt lat="45.83601" lon="-0.69419">
        <ele>17</ele>
        <time>2017-06-25T06:54:32Z</time>
      </trkpt>
      <trkpt lat="45.83602" lon="-0.6942">
        <ele>17</ele>
        <time>2017-06-25T06:54:33Z</time>
      </trkpt>
      <trkpt lat="45.83603" lon="-0.69419">
        <ele>17</ele>
        <time>2017-06-25T06:54:34Z</time>
      </trkpt>
      <trkpt lat="45.83605" lon="-0.6942">
        <ele>17</ele>
        <time>2017-06-25T06:54:35Z</time>
      </trkpt>
      <trkpt lat="45.83606" lon="-0.6942">
        <ele>17</ele>
        <time>2017-06-25T06:54:36Z</time>
      </trkpt>
      <trkpt lat="45.83607" lon="-0.69418">
        <ele>17</ele>
        <time>2017-06-25T06:54:38Z</time>
      </trkpt>
      <trkpt lat="45.83609" lon="-0.69417">
        <ele>17</ele>
        <time>2017-06-25T06:54:42Z</time>
      </trkpt>
      <trkpt lat="45.8361" lon="-0.69417">
        <ele>18</ele>
        <time>2017-06-25T06:54:43Z</time>
      </trkpt>
      <trkpt lat="45.83612" lon="-0.69415">
        <ele>17</ele>
        <time>2017-06-25T06:54:45Z</time>
      </trkpt>
      <trkpt lat="45.83613" lon="-0.69414">
        <ele>17</ele>
        <time>2017-06-25T06:54:47Z</time>
      </trkpt>
      <trkpt lat="45.83615" lon="-0.69413">
        <ele>17</ele>
        <time>2017-06-25T06:54:50Z</time>
      </trkpt>
      <trkpt lat="45.83616" lon="-0.69411">
        <ele>17</ele>
        <time>2017-06-25T06:54:52Z</time>
      </trkpt>
      <trkpt lat="45.83616" lon="-0.69409">
        <ele>17</ele>
        <time>2017-06-25T06:54:53Z</time>
      </trkpt>
      <trkpt lat="45.83617" lon="-0.69408">
        <ele>17</ele>
        <time>2017-06-25T06:54:54Z</time>
      </trkpt>
      <trkpt lat="45.83618" lon="-0.69405">
        <ele>17</ele>
        <time>2017-06-25T06:54:55Z</time>
      </trkpt>
      <trkpt lat="45.83618" lon="-0.69402">
        <ele>17</ele>
        <time>2017-06-25T06:54:56Z</time>
      </trkpt>
      <trkpt lat="45.83619" lon="-0.694">
        <ele>17</ele>
        <time>2017-06-25T06:54:57Z</time>
      </trkpt>
      <trkpt lat="45.83619" lon="-0.69397">
        <ele>17</ele>
        <time>2017-06-25T06:54:58Z</time>
      </trkpt>
      <trkpt lat="45.8362" lon="-0.69395">
        <ele>17</ele>
        <time>2017-06-25T06:54:59Z</time>
      </trkpt>
      <trkpt lat="45.8362" lon="-0.69393">
        <ele>17</ele>
        <time>2017-06-25T06:55:00Z</time>
      </trkpt>
      <trkpt lat="45.83621" lon="-0.69391">
        <ele>17</ele>
        <time>2017-06-25T06:55:01Z</time>
      </trkpt>
      <trkpt lat="45.83622" lon="-0.69391">
        <ele>17</ele>
        <time>2017-06-25T06:55:02Z</time>
      </trkpt>
      <trkpt lat="45.83624" lon="-0.69389">
        <ele>18</ele>
        <time>2017-06-25T06:55:03Z</time>
      </trkpt>
      <trkpt lat="45.83624" lon="-0.69388">
        <ele>18</ele>
        <time>2017-06-25T06:55:04Z</time>
      </trkpt>
      <trkpt lat="45.83625" lon="-0.69387">
        <ele>18</ele>
        <time>2017-06-25T06:55:06Z</time>
      </trkpt>
      <trkpt lat="45.83625" lon="-0.69386">
        <ele>17</ele>
        <time>2017-06-25T06:55:07Z</time>
      </trkpt>
      <trkpt lat="45.83626" lon="-0.69384">
        <ele>17</ele>
        <time>2017-06-25T06:55:09Z</time>
      </trkpt>
      <trkpt lat="45.83627" lon="-0.69383">
        <ele>17</ele>
        <time>2017-06-25T06:55:10Z</time>
      </trkpt>
      <trkpt lat="45.83629" lon="-0.69381">
        <ele>17</ele>
        <time>2017-06-25T06:55:11Z</time>
      </trkpt>
      <trkpt lat="45.83629" lon="-0.69381">
        <ele>17</ele>
        <time>2017-06-25T06:55:12Z</time>
      </trkpt>
      <trkpt lat="45.8363" lon="-0.69378">
        <ele>17</ele>
        <time>2017-06-25T06:55:13Z</time>
      </trkpt>
      <trkpt lat="45.8363" lon="-0.69376">
        <ele>17</ele>
        <time>2017-06-25T06:55:14Z</time>
      </trkpt>
      <trkpt lat="45.8363" lon="-0.69375">
        <ele>17</ele>
        <time>2017-06-25T06:55:15Z</time>
      </trkpt>
      <trkpt lat="45.83631" lon="-0.69373">
        <ele>17</ele>
        <time>2017-06-25T06:55:16Z</time>
      </trkpt>
      <trkpt lat="45.83633" lon="-0.69372">
        <ele>17</ele>
        <time>2017-06-25T06:55:17Z</time>
      </trkpt>
      <trkpt lat="45.83634" lon="-0.6937">
        <ele>17</ele>
        <time>2017-06-25T06:55:19Z</time>
      </trkpt>
      <trkpt lat="45.83635" lon="-0.69367">
        <ele>17</ele>
        <time>2017-06-25T06:55:21Z</time>
      </trkpt>
      <trkpt lat="45.83636" lon="-0.69365">
        <ele>17</ele>
        <time>2017-06-25T06:55:22Z</time>
      </trkpt>
      <trkpt lat="45.83636" lon="-0.69363">
        <ele>17</ele>
        <time>2017-06-25T06:55:23Z</time>
      </trkpt>
      <trkpt lat="45.83636" lon="-0.69361">
        <ele>17</ele>
        <time>2017-06-25T06:55:24Z</time>
      </trkpt>
      <trkpt lat="45.83637" lon="-0.69359">
        <ele>17</ele>
        <time>2017-06-25T06:55:25Z</time>
      </trkpt>
      <trkpt lat="45.83637" lon="-0.69358">
        <ele>17</ele>
        <time>2017-06-25T06:55:26Z</time>
      </trkpt>
      <trkpt lat="45.83638" lon="-0.69356">
        <ele>17</ele>
        <time>2017-06-25T06:55:28Z</time>
      </trkpt>
      <trkpt lat="45.83638" lon="-0.69355">
        <ele>17</ele>
        <time>2017-06-25T06:55:29Z</time>
      </trkpt>
      <trkpt lat="45.8364" lon="-0.69356">
        <ele>17</ele>
        <time>2017-06-25T06:55:33Z</time>
      </trkpt>
      <trkpt lat="45.8364" lon="-0.69357">
        <ele>17</ele>
        <time>2017-06-25T06:55:35Z</time>
      </trkpt>
      <trkpt lat="45.83641" lon="-0.69357">
        <ele>17</ele>
        <time>2017-06-25T06:55:36Z</time>
      </trkpt>
      <trkpt lat="45.83642" lon="-0.69358">
        <ele>17</ele>
        <time>2017-06-25T06:55:37Z</time>
      </trkpt>
      <trkpt lat="45.83643" lon="-0.69359">
        <ele>17</ele>
        <time>2017-06-25T06:55:38Z</time>
      </trkpt>
      <trkpt lat="45.83644" lon="-0.69361">
        <ele>17</ele>
        <time>2017-06-25T06:55:39Z</time>
      </trkpt>
      <trkpt lat="45.83645" lon="-0.69362">
        <ele>17</ele>
        <time>2017-06-25T06:55:41Z</time>
      </trkpt>
      <trkpt lat="45.83647" lon="-0.69364">
        <ele>17</ele>
        <time>2017-06-25T06:55:42Z</time>
      </trkpt>
      <trkpt lat="45.83648" lon="-0.69365">
        <ele>17</ele>
        <time>2017-06-25T06:55:44Z</time>
      </trkpt>
      <trkpt lat="45.83649" lon="-0.69366">
        <ele>17</ele>
        <time>2017-06-25T06:55:49Z</time>
      </trkpt>
      <trkpt lat="45.8365" lon="-0.69367">
        <ele>17</ele>
        <time>2017-06-25T06:55:52Z</time>
      </trkpt>
      <trkpt lat="45.83651" lon="-0.69368">
        <ele>17</ele>
        <time>2017-06-25T06:55:54Z</time>
      </trkpt>
      <trkpt lat="45.83652" lon="-0.69368">
        <ele>17</ele>
        <time>2017-06-25T06:55:55Z</time>
      </trkpt>
      <trkpt lat="45.83653" lon="-0.69369">
        <ele>17</ele>
        <time>2017-06-25T06:55:56Z</time>
      </trkpt>
      <trkpt lat="45.83657" lon="-0.6937">
        <ele>17</ele>
        <time>2017-06-25T06:55:58Z</time>
      </trkpt>
      <trkpt lat="45.83658" lon="-0.6937">
        <ele>17</ele>
        <time>2017-06-25T06:55:59Z</time>
      </trkpt>
      <trkpt lat="45.83659" lon="-0.69371">
        <ele>17</ele>
        <time>2017-06-25T06:56:00Z</time>
      </trkpt>
      <trkpt lat="45.83662" lon="-0.69373">
        <ele>17</ele>
        <time>2017-06-25T06:56:01Z</time>
      </trkpt>
      <trkpt lat="45.83663" lon="-0.69375">
        <ele>17</ele>
        <time>2017-06-25T06:56:02Z</time>
      </trkpt>
      <trkpt lat="45.83664" lon="-0.69376">
        <ele>17</ele>
        <time>2017-06-25T06:56:03Z</time>
      </trkpt>
      <trkpt lat="45.83665" lon="-0.69377">
        <ele>17</ele>
        <time>2017-06-25T06:56:04Z</time>
      </trkpt>
      <trkpt lat="45.83666" lon="-0.69378">
        <ele>17</ele>
        <time>2017-06-25T06:56:05Z</time>
      </trkpt>
      <trkpt lat="45.83668" lon="-0.69379">
        <ele>18</ele>
        <time>2017-06-25T06:56:06Z</time>
      </trkpt>
      <trkpt lat="45.8367" lon="-0.6938">
        <ele>18</ele>
        <time>2017-06-25T06:56:07Z</time>
      </trkpt>
      <trkpt lat="45.8367" lon="-0.69381">
        <ele>18</ele>
        <time>2017-06-25T06:56:08Z</time>
      </trkpt>
      <trkpt lat="45.83671" lon="-0.69381">
        <ele>18</ele>
        <time>2017-06-25T06:56:11Z</time>
      </trkpt>
      <trkpt lat="45.83672" lon="-0.69382">
        <ele>18</ele>
        <time>2017-06-25T06:56:12Z</time>
      </trkpt>
      <trkpt lat="45.83675" lon="-0.69383">
        <ele>18</ele>
        <time>2017-06-25T06:56:13Z</time>
      </trkpt>
      <trkpt lat="45.83675" lon="-0.69385">
        <ele>18</ele>
        <time>2017-06-25T06:56:14Z</time>
      </trkpt>
      <trkpt lat="45.83676" lon="-0.69386">
        <ele>18</ele>
        <time>2017-06-25T06:56:16Z</time>
      </trkpt>
      <trkpt lat="45.83677" lon="-0.69389">
        <ele>18</ele>
        <time>2017-06-25T06:56:17Z</time>
      </trkpt>
      <trkpt lat="45.83677" lon="-0.6939">
        <ele>18</ele>
        <time>2017-06-25T06:56:18Z</time>
      </trkpt>
      <trkpt lat="45.83678" lon="-0.69392">
        <ele>18</ele>
        <time>2017-06-25T06:56:20Z</time>
      </trkpt>
      <trkpt lat="45.83679" lon="-0.69394">
        <ele>18</ele>
        <time>2017-06-25T06:56:21Z</time>
      </trkpt>
      <trkpt lat="45.8368" lon="-0.69395">
        <ele>18</ele>
        <time>2017-06-25T06:56:22Z</time>
      </trkpt>
      <trkpt lat="45.83683" lon="-0.69398">
        <ele>18</ele>
        <time>2017-06-25T06:56:23Z</time>
      </trkpt>
      <trkpt lat="45.83684" lon="-0.69398">
        <ele>18</ele>
        <time>2017-06-25T06:56:24Z</time>
      </trkpt>
      <trkpt lat="45.83685" lon="-0.694">
        <ele>18</ele>
        <time>2017-06-25T06:56:26Z</time>
      </trkpt>
      <trkpt lat="45.83686" lon="-0.69402">
        <ele>18</ele>
        <time>2017-06-25T06:56:27Z</time>
      </trkpt>
      <trkpt lat="45.83688" lon="-0.69404">
        <ele>18</ele>
        <time>2017-06-25T06:56:28Z</time>
      </trkpt>
      <trkpt lat="45.83688" lon="-0.69406">
        <ele>18</ele>
        <time>2017-06-25T06:56:29Z</time>
      </trkpt>
      <trkpt lat="45.83688" lon="-0.69408">
        <ele>18</ele>
        <time>2017-06-25T06:56:30Z</time>
      </trkpt>
      <trkpt lat="45.8369" lon="-0.6941">
        <ele>18</ele>
        <time>2017-06-25T06:56:32Z</time>
      </trkpt>
      <trkpt lat="45.83691" lon="-0.69412">
        <ele>18</ele>
        <time>2017-06-25T06:56:33Z</time>
      </trkpt>
      <trkpt lat="45.83692" lon="-0.69413">
        <ele>18</ele>
        <time>2017-06-25T06:56:34Z</time>
      </trkpt>
      <trkpt lat="45.83693" lon="-0.69415">
        <ele>18</ele>
        <time>2017-06-25T06:56:35Z</time>
      </trkpt>
      <trkpt lat="45.83695" lon="-0.69418">
        <ele>19</ele>
        <time>2017-06-25T06:56:36Z</time>
      </trkpt>
      <trkpt lat="45.83696" lon="-0.6942">
        <ele>19</ele>
        <time>2017-06-25T06:56:37Z</time>
      </trkpt>
      <trkpt lat="45.83697" lon="-0.69421">
        <ele>19</ele>
        <time>2017-06-25T06:56:38Z</time>
      </trkpt>
      <trkpt lat="45.83698" lon="-0.69421">
        <ele>19</ele>
        <time>2017-06-25T06:56:39Z</time>
      </trkpt>
      <trkpt lat="45.83699" lon="-0.69423">
        <ele>19</ele>
        <time>2017-06-25T06:56:41Z</time>
      </trkpt>
      <trkpt lat="45.837" lon="-0.69425">
        <ele>19</ele>
        <time>2017-06-25T06:56:42Z</time>
      </trkpt>
      <trkpt lat="45.83701" lon="-0.69427">
        <ele>19</ele>
        <time>2017-06-25T06:56:44Z</time>
      </trkpt>
      <trkpt lat="45.83701" lon="-0.69429">
        <ele>19</ele>
        <time>2017-06-25T06:56:45Z</time>
      </trkpt>
      <trkpt lat="45.83702" lon="-0.6943">
        <ele>19</ele>
        <time>2017-06-25T06:56:46Z</time>
      </trkpt>
      <trkpt lat="45.83703" lon="-0.69431">
        <ele>19</ele>
        <time>2017-06-25T06:56:47Z</time>
      </trkpt>
      <trkpt lat="45.83704" lon="-0.69432">
        <ele>19</ele>
        <time>2017-06-25T06:56:48Z</time>
      </trkpt>
      <trkpt lat="45.83704" lon="-0.69433">
        <ele>19</ele>
        <time>2017-06-25T06:56:49Z</time>
      </trkpt>
      <trkpt lat="45.83705" lon="-0.69434">
        <ele>19</ele>
        <time>2017-06-25T06:56:50Z</time>
      </trkpt>
      <trkpt lat="45.83706" lon="-0.69435">
        <ele>19</ele>
        <time>2017-06-25T06:56:51Z</time>
      </trkpt>
      <trkpt lat="45.83707" lon="-0.69436">
        <ele>19</ele>
        <time>2017-06-25T06:56:53Z</time>
      </trkpt>
      <trkpt lat="45.83708" lon="-0.69438">
        <ele>19</ele>
        <time>2017-06-25T06:56:54Z</time>
      </trkpt>
      <trkpt lat="45.83709" lon="-0.6944">
        <ele>19</ele>
        <time>2017-06-25T06:56:55Z</time>
      </trkpt>
      <trkpt lat="45.83711" lon="-0.69442">
        <ele>19</ele>
        <time>2017-06-25T06:56:57Z</time>
      </trkpt>
      <trkpt lat="45.83711" lon="-0.69444">
        <ele>19</ele>
        <time>2017-06-25T06:56:58Z</time>
      </trkpt>
      <trkpt lat="45.83712" lon="-0.69446">
        <ele>19</ele>
        <time>2017-06-25T06:57:00Z</time>
      </trkpt>
      <trkpt lat="45.83712" lon="-0.69448">
        <ele>19</ele>
        <time>2017-06-25T06:57:01Z</time>
      </trkpt>
      <trkpt lat="45.83714" lon="-0.6945">
        <ele>19</ele>
        <time>2017-06-25T06:57:02Z</time>
      </trkpt>
      <trkpt lat="45.83715" lon="-0.69451">
        <ele>19</ele>
        <time>2017-06-25T06:57:03Z</time>
      </trkpt>
      <trkpt lat="45.83716" lon="-0.69453">
        <ele>19</ele>
        <time>2017-06-25T06:57:05Z</time>
      </trkpt>
      <trkpt lat="45.83718" lon="-0.69455">
        <ele>19</ele>
        <time>2017-06-25T06:57:07Z</time>
      </trkpt>
      <trkpt lat="45.83719" lon="-0.69456">
        <ele>19</ele>
        <time>2017-06-25T06:57:08Z</time>
      </trkpt>
      <trkpt lat="45.8372" lon="-0.69458">
        <ele>19</ele>
        <time>2017-06-25T06:57:09Z</time>
      </trkpt>
      <trkpt lat="45.83721" lon="-0.6946">
        <ele>19</ele>
        <time>2017-06-25T06:57:10Z</time>
      </trkpt>
      <trkpt lat="45.83722" lon="-0.69462">
        <ele>19</ele>
        <time>2017-06-25T06:57:12Z</time>
      </trkpt>
      <trkpt lat="45.83723" lon="-0.69465">
        <ele>20</ele>
        <time>2017-06-25T06:57:14Z</time>
      </trkpt>
      <trkpt lat="45.83724" lon="-0.69466">
        <ele>20</ele>
        <time>2017-06-25T06:57:15Z</time>
      </trkpt>
      <trkpt lat="45.83725" lon="-0.69468">
        <ele>20</ele>
        <time>2017-06-25T06:57:17Z</time>
      </trkpt>
      <trkpt lat="45.83726" lon="-0.69469">
        <ele>20</ele>
        <time>2017-06-25T06:57:20Z</time>
      </trkpt>
      <trkpt lat="45.83727" lon="-0.69471">
        <ele>20</ele>
        <time>2017-06-25T06:57:21Z</time>
      </trkpt>
      <trkpt lat="45.83727" lon="-0.69473">
        <ele>20</ele>
        <time>2017-06-25T06:57:22Z</time>
      </trkpt>
      <trkpt lat="45.83728" lon="-0.69474">
        <ele>20</ele>
        <time>2017-06-25T06:57:23Z</time>
      </trkpt>
      <trkpt lat="45.83729" lon="-0.69476">
        <ele>20</ele>
        <time>2017-06-25T06:57:24Z</time>
      </trkpt>
      <trkpt lat="45.8373" lon="-0.69477">
        <ele>20</ele>
        <time>2017-06-25T06:57:26Z</time>
      </trkpt>
      <trkpt lat="45.83732" lon="-0.69481">
        <ele>20</ele>
        <time>2017-06-25T06:57:28Z</time>
      </trkpt>
      <trkpt lat="45.83733" lon="-0.69482">
        <ele>20</ele>
        <time>2017-06-25T06:57:29Z</time>
      </trkpt>
      <trkpt lat="45.83733" lon="-0.69483">
        <ele>20</ele>
        <time>2017-06-25T06:57:31Z</time>
      </trkpt>
      <trkpt lat="45.83734" lon="-0.69486">
        <ele>20</ele>
        <time>2017-06-25T06:57:33Z</time>
      </trkpt>
      <trkpt lat="45.83737" lon="-0.69488">
        <ele>20</ele>
        <time>2017-06-25T06:57:35Z</time>
      </trkpt>
      <trkpt lat="45.83739" lon="-0.6949">
        <ele>20</ele>
        <time>2017-06-25T06:57:36Z</time>
      </trkpt>
      <trkpt lat="45.8374" lon="-0.69491">
        <ele>20</ele>
        <time>2017-06-25T06:57:37Z</time>
      </trkpt>
      <trkpt lat="45.83741" lon="-0.69492">
        <ele>20</ele>
        <time>2017-06-25T06:57:38Z</time>
      </trkpt>
      <trkpt lat="45.83743" lon="-0.69495">
        <ele>20</ele>
        <time>2017-06-25T06:57:40Z</time>
      </trkpt>
      <trkpt lat="45.83744" lon="-0.69498">
        <ele>21</ele>
        <time>2017-06-25T06:57:42Z</time>
      </trkpt>
      <trkpt lat="45.83747" lon="-0.69502">
        <ele>21</ele>
        <time>2017-06-25T06:57:45Z</time>
      </trkpt>
      <trkpt lat="45.83748" lon="-0.69503">
        <ele>21</ele>
        <time>2017-06-25T06:57:46Z</time>
      </trkpt>
      <trkpt lat="45.83749" lon="-0.69505">
        <ele>21</ele>
        <time>2017-06-25T06:57:47Z</time>
      </trkpt>
      <trkpt lat="45.8375" lon="-0.69507">
        <ele>21</ele>
        <time>2017-06-25T06:57:48Z</time>
      </trkpt>
      <trkpt lat="45.83752" lon="-0.6951">
        <ele>21</ele>
        <time>2017-06-25T06:57:50Z</time>
      </trkpt>
      <trkpt lat="45.83753" lon="-0.69512">
        <ele>21</ele>
        <time>2017-06-25T06:57:51Z</time>
      </trkpt>
      <trkpt lat="45.83754" lon="-0.69512">
        <ele>21</ele>
        <time>2017-06-25T06:57:52Z</time>
      </trkpt>
      <trkpt lat="45.83755" lon="-0.69516">
        <ele>20</ele>
        <time>2017-06-25T06:57:54Z</time>
      </trkpt>
      <trkpt lat="45.83756" lon="-0.69516">
        <ele>20</ele>
        <time>2017-06-25T06:57:55Z</time>
      </trkpt>
      <trkpt lat="45.83757" lon="-0.69519">
        <ele>20</ele>
        <time>2017-06-25T06:57:57Z</time>
      </trkpt>
      <trkpt lat="45.83757" lon="-0.69521">
        <ele>20</ele>
        <time>2017-06-25T06:57:58Z</time>
      </trkpt>
      <trkpt lat="45.83758" lon="-0.69523">
        <ele>20</ele>
        <time>2017-06-25T06:57:59Z</time>
      </trkpt>
      <trkpt lat="45.83759" lon="-0.69525">
        <ele>20</ele>
        <time>2017-06-25T06:58:00Z</time>
      </trkpt>
      <trkpt lat="45.8376" lon="-0.69527">
        <ele>20</ele>
        <time>2017-06-25T06:58:02Z</time>
      </trkpt>
      <trkpt lat="45.83761" lon="-0.69529">
        <ele>20</ele>
        <time>2017-06-25T06:58:03Z</time>
      </trkpt>
      <trkpt lat="45.83762" lon="-0.69531">
        <ele>20</ele>
        <time>2017-06-25T06:58:04Z</time>
      </trkpt>
      <trkpt lat="45.83763" lon="-0.69532">
        <ele>20</ele>
        <time>2017-06-25T06:58:05Z</time>
      </trkpt>
      <trkpt lat="45.83764" lon="-0.69535">
        <ele>20</ele>
        <time>2017-06-25T06:58:07Z</time>
      </trkpt>
      <trkpt lat="45.83765" lon="-0.69537">
        <ele>20</ele>
        <time>2017-06-25T06:58:08Z</time>
      </trkpt>
      <trkpt lat="45.83765" lon="-0.69538">
        <ele>20</ele>
        <time>2017-06-25T06:58:09Z</time>
      </trkpt>
      <trkpt lat="45.83766" lon="-0.69541">
        <ele>20</ele>
        <time>2017-06-25T06:58:10Z</time>
      </trkpt>
      <trkpt lat="45.83768" lon="-0.69544">
        <ele>20</ele>
        <time>2017-06-25T06:58:12Z</time>
      </trkpt>
      <trkpt lat="45.83769" lon="-0.69546">
        <ele>20</ele>
        <time>2017-06-25T06:58:14Z</time>
      </trkpt>
      <trkpt lat="45.83769" lon="-0.69549">
        <ele>20</ele>
        <time>2017-06-25T06:58:16Z</time>
      </trkpt>
      <trkpt lat="45.83769" lon="-0.69553">
        <ele>20</ele>
        <time>2017-06-25T06:58:19Z</time>
      </trkpt>
      <trkpt lat="45.83769" lon="-0.69554">
        <ele>20</ele>
        <time>2017-06-25T06:58:20Z</time>
      </trkpt>
      <trkpt lat="45.8377" lon="-0.69556">
        <ele>20</ele>
        <time>2017-06-25T06:58:22Z</time>
      </trkpt>
      <trkpt lat="45.8377" lon="-0.69558">
        <ele>20</ele>
        <time>2017-06-25T06:58:23Z</time>
      </trkpt>
      <trkpt lat="45.8377" lon="-0.69561">
        <ele>20</ele>
        <time>2017-06-25T06:58:25Z</time>
      </trkpt>
      <trkpt lat="45.8377" lon="-0.69564">
        <ele>20</ele>
        <time>2017-06-25T06:58:27Z</time>
      </trkpt>
      <trkpt lat="45.8377" lon="-0.69566">
        <ele>20</ele>
        <time>2017-06-25T06:58:28Z</time>
      </trkpt>
      <trkpt lat="45.83771" lon="-0.69567">
        <ele>20</ele>
        <time>2017-06-25T06:58:29Z</time>
      </trkpt>
      <trkpt lat="45.83772" lon="-0.69569">
        <ele>20</ele>
        <time>2017-06-25T06:58:30Z</time>
      </trkpt>
      <trkpt lat="45.83772" lon="-0.69571">
        <ele>20</ele>
        <time>2017-06-25T06:58:31Z</time>
      </trkpt>
      <trkpt lat="45.83773" lon="-0.69574">
        <ele>20</ele>
        <time>2017-06-25T06:58:33Z</time>
      </trkpt>
      <trkpt lat="45.83773" lon="-0.69576">
        <ele>20</ele>
        <time>2017-06-25T06:58:34Z</time>
      </trkpt>
      <trkpt lat="45.83773" lon="-0.69578">
        <ele>20</ele>
        <time>2017-06-25T06:58:35Z</time>
      </trkpt>
      <trkpt lat="45.83773" lon="-0.6958">
        <ele>20</ele>
        <time>2017-06-25T06:58:36Z</time>
      </trkpt>
      <trkpt lat="45.83775" lon="-0.69581">
        <ele>20</ele>
        <time>2017-06-25T06:58:37Z</time>
      </trkpt>
      <trkpt lat="45.83775" lon="-0.69583">
        <ele>20</ele>
        <time>2017-06-25T06:58:38Z</time>
      </trkpt>
      <trkpt lat="45.83775" lon="-0.69584">
        <ele>20</ele>
        <time>2017-06-25T06:58:39Z</time>
      </trkpt>
      <trkpt lat="45.83776" lon="-0.69586">
        <ele>20</ele>
        <time>2017-06-25T06:58:40Z</time>
      </trkpt>
      <trkpt lat="45.83776" lon="-0.69587">
        <ele>20</ele>
        <time>2017-06-25T06:58:41Z</time>
      </trkpt>
      <trkpt lat="45.83777" lon="-0.6959">
        <ele>20</ele>
        <time>2017-06-25T06:58:42Z</time>
      </trkpt>
      <trkpt lat="45.83778" lon="-0.69591">
        <ele>20</ele>
        <time>2017-06-25T06:58:43Z</time>
      </trkpt>
      <trkpt lat="45.83778" lon="-0.69592">
        <ele>20</ele>
        <time>2017-06-25T06:58:44Z</time>
      </trkpt>
      <trkpt lat="45.83778" lon="-0.69594">
        <ele>20</ele>
        <time>2017-06-25T06:58:45Z</time>
      </trkpt>
      <trkpt lat="45.83779" lon="-0.69596">
        <ele>20</ele>
        <time>2017-06-25T06:58:46Z</time>
      </trkpt>
      <trkpt lat="45.8378" lon="-0.69598">
        <ele>20</ele>
        <time>2017-06-25T06:58:47Z</time>
      </trkpt>
      <trkpt lat="45.83781" lon="-0.69598">
        <ele>20</ele>
        <time>2017-06-25T06:58:57Z</time>
      </trkpt>
      <trkpt lat="45.83783" lon="-0.69596">
        <ele>20</ele>
        <time>2017-06-25T06:58:58Z</time>
      </trkpt>
      <trkpt lat="45.83785" lon="-0.69593">
        <ele>20</ele>
        <time>2017-06-25T06:59:00Z</time>
      </trkpt>
      <trkpt lat="45.83787" lon="-0.69592">
        <ele>20</ele>
        <time>2017-06-25T06:59:01Z</time>
      </trkpt>
      <trkpt lat="45.83789" lon="-0.69591">
        <ele>20</ele>
        <time>2017-06-25T06:59:02Z</time>
      </trkpt>
      <trkpt lat="45.8379" lon="-0.69591">
        <ele>20</ele>
        <time>2017-06-25T06:59:03Z</time>
      </trkpt>
      <trkpt lat="45.83791" lon="-0.6959">
        <ele>20</ele>
        <time>2017-06-25T06:59:06Z</time>
      </trkpt>
      <trkpt lat="45.83792" lon="-0.6959">
        <ele>20</ele>
        <time>2017-06-25T06:59:08Z</time>
      </trkpt>
      <trkpt lat="45.83794" lon="-0.6959">
        <ele>20</ele>
        <time>2017-06-25T06:59:10Z</time>
      </trkpt>
      <trkpt lat="45.83795" lon="-0.69591">
        <ele>20</ele>
        <time>2017-06-25T06:59:11Z</time>
      </trkpt>
      <trkpt lat="45.83796" lon="-0.6959">
        <ele>20</ele>
        <time>2017-06-25T06:59:12Z</time>
      </trkpt>
      <trkpt lat="45.83797" lon="-0.6959">
        <ele>20</ele>
        <time>2017-06-25T06:59:14Z</time>
      </trkpt>
      <trkpt lat="45.83798" lon="-0.69592">
        <ele>20</ele>
        <time>2017-06-25T06:59:16Z</time>
      </trkpt>
      <trkpt lat="45.83799" lon="-0.69594">
        <ele>20</ele>
        <time>2017-06-25T06:59:18Z</time>
      </trkpt>
      <trkpt lat="45.838" lon="-0.69595">
        <ele>20</ele>
        <time>2017-06-25T06:59:20Z</time>
      </trkpt>
      <trkpt lat="45.83801" lon="-0.69596">
        <ele>20</ele>
        <time>2017-06-25T06:59:21Z</time>
      </trkpt>
      <trkpt lat="45.83802" lon="-0.69597">
        <ele>20</ele>
        <time>2017-06-25T06:59:22Z</time>
      </trkpt>
      <trkpt lat="45.83803" lon="-0.69598">
        <ele>20</ele>
        <time>2017-06-25T06:59:25Z</time>
      </trkpt>
      <trkpt lat="45.83804" lon="-0.696">
        <ele>19</ele>
        <time>2017-06-25T06:59:26Z</time>
      </trkpt>
      <trkpt lat="45.83805" lon="-0.69602">
        <ele>19</ele>
        <time>2017-06-25T06:59:27Z</time>
      </trkpt>
      <trkpt lat="45.83806" lon="-0.69603">
        <ele>19</ele>
        <time>2017-06-25T06:59:28Z</time>
      </trkpt>
      <trkpt lat="45.83806" lon="-0.69605">
        <ele>19</ele>
        <time>2017-06-25T06:59:29Z</time>
      </trkpt>
      <trkpt lat="45.83807" lon="-0.69606">
        <ele>19</ele>
        <time>2017-06-25T06:59:30Z</time>
      </trkpt>
      <trkpt lat="45.83808" lon="-0.69607">
        <ele>19</ele>
        <time>2017-06-25T06:59:31Z</time>
      </trkpt>
      <trkpt lat="45.83809" lon="-0.69609">
        <ele>19</ele>
        <time>2017-06-25T06:59:34Z</time>
      </trkpt>
      <trkpt lat="45.8381" lon="-0.6961">
        <ele>19</ele>
        <time>2017-06-25T06:59:35Z</time>
      </trkpt>
      <trkpt lat="45.83811" lon="-0.69611">
        <ele>19</ele>
        <time>2017-06-25T06:59:36Z</time>
      </trkpt>
      <trkpt lat="45.83813" lon="-0.69611">
        <ele>19</ele>
        <time>2017-06-25T06:59:38Z</time>
      </trkpt>
      <trkpt lat="45.83815" lon="-0.69611">
        <ele>19</ele>
        <time>2017-06-25T06:59:40Z</time>
      </trkpt>
      <trkpt lat="45.83816" lon="-0.69612">
        <ele>19</ele>
        <time>2017-06-25T06:59:41Z</time>
      </trkpt>
      <trkpt lat="45.83818" lon="-0.6961">
        <ele>19</ele>
        <time>2017-06-25T06:59:42Z</time>
      </trkpt>
      <trkpt lat="45.8382" lon="-0.6961">
        <ele>19</ele>
        <time>2017-06-25T06:59:43Z</time>
      </trkpt>
      <trkpt lat="45.83821" lon="-0.69609">
        <ele>19</ele>
        <time>2017-06-25T06:59:45Z</time>
      </trkpt>
      <trkpt lat="45.83822" lon="-0.69609">
        <ele>19</ele>
        <time>2017-06-25T06:59:46Z</time>
      </trkpt>
      <trkpt lat="45.83823" lon="-0.69609">
        <ele>19</ele>
        <time>2017-06-25T06:59:47Z</time>
      </trkpt>
      <trkpt lat="45.83825" lon="-0.69609">
        <ele>19</ele>
        <time>2017-06-25T06:59:49Z</time>
      </trkpt>
      <trkpt lat="45.83826" lon="-0.69609">
        <ele>19</ele>
        <time>2017-06-25T06:59:50Z</time>
      </trkpt>
      <trkpt lat="45.83828" lon="-0.69608">
        <ele>19</ele>
        <time>2017-06-25T06:59:52Z</time>
      </trkpt>
      <trkpt lat="45.83831" lon="-0.69608">
        <ele>19</ele>
        <time>2017-06-25T06:59:54Z</time>
      </trkpt>
      <trkpt lat="45.83832" lon="-0.69608">
        <ele>19</ele>
        <time>2017-06-25T06:59:55Z</time>
      </trkpt>
      <trkpt lat="45.83834" lon="-0.69608">
        <ele>18</ele>
        <time>2017-06-25T06:59:56Z</time>
      </trkpt>
      <trkpt lat="45.83835" lon="-0.69607">
        <ele>18</ele>
        <time>2017-06-25T06:59:57Z</time>
      </trkpt>
      <trkpt lat="45.83837" lon="-0.69606">
        <ele>18</ele>
        <time>2017-06-25T06:59:59Z</time>
      </trkpt>
      <trkpt lat="45.83838" lon="-0.69606">
        <ele>18</ele>
        <time>2017-06-25T07:00:00Z</time>
      </trkpt>
      <trkpt lat="45.83839" lon="-0.69607">
        <ele>18</ele>
        <time>2017-06-25T07:00:01Z</time>
      </trkpt>
      <trkpt lat="45.83841" lon="-0.69607">
        <ele>18</ele>
        <time>2017-06-25T07:00:02Z</time>
      </trkpt>
      <trkpt lat="45.83842" lon="-0.69607">
        <ele>18</ele>
        <time>2017-06-25T07:00:03Z</time>
      </trkpt>
      <trkpt lat="45.83844" lon="-0.69606">
        <ele>18</ele>
        <time>2017-06-25T07:00:04Z</time>
      </trkpt>
      <trkpt lat="45.83846" lon="-0.69607">
        <ele>18</ele>
        <time>2017-06-25T07:00:05Z</time>
      </trkpt>
      <trkpt lat="45.83847" lon="-0.69607">
        <ele>18</ele>
        <time>2017-06-25T07:00:06Z</time>
      </trkpt>
      <trkpt lat="45.8385" lon="-0.69607">
        <ele>18</ele>
        <time>2017-06-25T07:00:08Z</time>
      </trkpt>
      <trkpt lat="45.83851" lon="-0.69608">
        <ele>18</ele>
        <time>2017-06-25T07:00:09Z</time>
      </trkpt>
      <trkpt lat="45.83852" lon="-0.69608">
        <ele>18</ele>
        <time>2017-06-25T07:00:10Z</time>
      </trkpt>
      <trkpt lat="45.83853" lon="-0.69608">
        <ele>18</ele>
        <time>2017-06-25T07:00:11Z</time>
      </trkpt>
      <trkpt lat="45.83854" lon="-0.69607">
        <ele>18</ele>
        <time>2017-06-25T07:00:12Z</time>
      </trkpt>
      <trkpt lat="45.83855" lon="-0.69606">
        <ele>18</ele>
        <time>2017-06-25T07:00:14Z</time>
      </trkpt>
      <trkpt lat="45.83856" lon="-0.69605">
        <ele>18</ele>
        <time>2017-06-25T07:00:15Z</time>
      </trkpt>
      <trkpt lat="45.83858" lon="-0.69605">
        <ele>18</ele>
        <time>2017-06-25T07:00:16Z</time>
      </trkpt>
      <trkpt lat="45.83859" lon="-0.69604">
        <ele>18</ele>
        <time>2017-06-25T07:00:17Z</time>
      </trkpt>
      <trkpt lat="45.8386" lon="-0.69604">
        <ele>18</ele>
        <time>2017-06-25T07:00:18Z</time>
      </trkpt>
      <trkpt lat="45.83862" lon="-0.69603">
        <ele>18</ele>
        <time>2017-06-25T07:00:19Z</time>
      </trkpt>
      <trkpt lat="45.83863" lon="-0.69603">
        <ele>18</ele>
        <time>2017-06-25T07:00:20Z</time>
      </trkpt>
      <trkpt lat="45.83864" lon="-0.69602">
        <ele>18</ele>
        <time>2017-06-25T07:00:21Z</time>
      </trkpt>
      <trkpt lat="45.83866" lon="-0.69603">
        <ele>18</ele>
        <time>2017-06-25T07:00:22Z</time>
      </trkpt>
      <trkpt lat="45.83867" lon="-0.69603">
        <ele>18</ele>
        <time>2017-06-25T07:00:23Z</time>
      </trkpt>
      <trkpt lat="45.83869" lon="-0.69603">
        <ele>18</ele>
        <time>2017-06-25T07:00:24Z</time>
      </trkpt>
      <trkpt lat="45.8387" lon="-0.69603">
        <ele>18</ele>
        <time>2017-06-25T07:00:25Z</time>
      </trkpt>
      <trkpt lat="45.83872" lon="-0.69603">
        <ele>18</ele>
        <time>2017-06-25T07:00:26Z</time>
      </trkpt>
      <trkpt lat="45.83873" lon="-0.69603">
        <ele>18</ele>
        <time>2017-06-25T07:00:27Z</time>
      </trkpt>
      <trkpt lat="45.83875" lon="-0.69604">
        <ele>18</ele>
        <time>2017-06-25T07:00:28Z</time>
      </trkpt>
      <trkpt lat="45.83876" lon="-0.69605">
        <ele>18</ele>
        <time>2017-06-25T07:00:29Z</time>
      </trkpt>
      <trkpt lat="45.83877" lon="-0.69605">
        <ele>18</ele>
        <time>2017-06-25T07:00:30Z</time>
      </trkpt>
      <trkpt lat="45.83879" lon="-0.69606">
        <ele>18</ele>
        <time>2017-06-25T07:00:31Z</time>
      </trkpt>
      <trkpt lat="45.8388" lon="-0.69607">
        <ele>18</ele>
        <time>2017-06-25T07:00:32Z</time>
      </trkpt>
      <trkpt lat="45.83882" lon="-0.69607">
        <ele>18</ele>
        <time>2017-06-25T07:00:33Z</time>
      </trkpt>
      <trkpt lat="45.83883" lon="-0.69608">
        <ele>18</ele>
        <time>2017-06-25T07:00:34Z</time>
      </trkpt>
      <trkpt lat="45.83884" lon="-0.69609">
        <ele>18</ele>
        <time>2017-06-25T07:00:35Z</time>
      </trkpt>
      <trkpt lat="45.83885" lon="-0.69609">
        <ele>18</ele>
        <time>2017-06-25T07:00:36Z</time>
      </trkpt>
      <trkpt lat="45.83886" lon="-0.6961">
        <ele>18</ele>
        <time>2017-06-25T07:00:37Z</time>
      </trkpt>
      <trkpt lat="45.83887" lon="-0.69611">
        <ele>18</ele>
        <time>2017-06-25T07:00:38Z</time>
      </trkpt>
      <trkpt lat="45.83889" lon="-0.69612">
        <ele>18</ele>
        <time>2017-06-25T07:00:39Z</time>
      </trkpt>
      <trkpt lat="45.8389" lon="-0.69613">
        <ele>18</ele>
        <time>2017-06-25T07:00:40Z</time>
      </trkpt>
      <trkpt lat="45.83891" lon="-0.69614">
        <ele>18</ele>
        <time>2017-06-25T07:00:41Z</time>
      </trkpt>
      <trkpt lat="45.83892" lon="-0.69615">
        <ele>18</ele>
        <time>2017-06-25T07:00:42Z</time>
      </trkpt>
      <trkpt lat="45.83894" lon="-0.69616">
        <ele>18</ele>
        <time>2017-06-25T07:00:43Z</time>
      </trkpt>
      <trkpt lat="45.83895" lon="-0.69617">
        <ele>18</ele>
        <time>2017-06-25T07:00:44Z</time>
      </trkpt>
      <trkpt lat="45.83896" lon="-0.69618">
        <ele>18</ele>
        <time>2017-06-25T07:00:45Z</time>
      </trkpt>
      <trkpt lat="45.83897" lon="-0.69619">
        <ele>18</ele>
        <time>2017-06-25T07:00:46Z</time>
      </trkpt>
      <trkpt lat="45.83898" lon="-0.6962">
        <ele>18</ele>
        <time>2017-06-25T07:00:47Z</time>
      </trkpt>
      <trkpt lat="45.839" lon="-0.69621">
        <ele>18</ele>
        <time>2017-06-25T07:00:48Z</time>
      </trkpt>
      <trkpt lat="45.83901" lon="-0.69622">
        <ele>18</ele>
        <time>2017-06-25T07:00:49Z</time>
      </trkpt>
      <trkpt lat="45.83903" lon="-0.69623">
        <ele>18</ele>
        <time>2017-06-25T07:00:50Z</time>
      </trkpt>
      <trkpt lat="45.83904" lon="-0.69625">
        <ele>18</ele>
        <time>2017-06-25T07:00:51Z</time>
      </trkpt>
      <trkpt lat="45.83905" lon="-0.69626">
        <ele>18</ele>
        <time>2017-06-25T07:00:52Z</time>
      </trkpt>
      <trkpt lat="45.83906" lon="-0.69628">
        <ele>18</ele>
        <time>2017-06-25T07:00:53Z</time>
      </trkpt>
      <trkpt lat="45.83907" lon="-0.6963">
        <ele>18</ele>
        <time>2017-06-25T07:00:54Z</time>
      </trkpt>
      <trkpt lat="45.83908" lon="-0.69631">
        <ele>18</ele>
        <time>2017-06-25T07:00:55Z</time>
      </trkpt>
      <trkpt lat="45.83909" lon="-0.69632">
        <ele>18</ele>
        <time>2017-06-25T07:00:56Z</time>
      </trkpt>
      <trkpt lat="45.8391" lon="-0.69632">
        <ele>18</ele>
        <time>2017-06-25T07:00:57Z</time>
      </trkpt>
      <trkpt lat="45.83911" lon="-0.69633">
        <ele>18</ele>
        <time>2017-06-25T07:00:58Z</time>
      </trkpt>
      <trkpt lat="45.83912" lon="-0.69635">
        <ele>18</ele>
        <time>2017-06-25T07:00:59Z</time>
      </trkpt>
      <trkpt lat="45.83913" lon="-0.69637">
        <ele>18</ele>
        <time>2017-06-25T07:01:00Z</time>
      </trkpt>
      <trkpt lat="45.83913" lon="-0.69638">
        <ele>18</ele>
        <time>2017-06-25T07:01:01Z</time>
      </trkpt>
      <trkpt lat="45.83915" lon="-0.69639">
        <ele>18</ele>
        <time>2017-06-25T07:01:02Z</time>
      </trkpt>
      <trkpt lat="45.83916" lon="-0.69641">
        <ele>18</ele>
        <time>2017-06-25T07:01:03Z</time>
      </trkpt>
      <trkpt lat="45.83917" lon="-0.69643">
        <ele>17</ele>
        <time>2017-06-25T07:01:04Z</time>
      </trkpt>
      <trkpt lat="45.83918" lon="-0.69644">
        <ele>17</ele>
        <time>2017-06-25T07:01:05Z</time>
      </trkpt>
      <trkpt lat="45.83919" lon="-0.69646">
        <ele>17</ele>
        <time>2017-06-25T07:01:06Z</time>
      </trkpt>
      <trkpt lat="45.8392" lon="-0.69648">
        <ele>17</ele>
        <time>2017-06-25T07:01:07Z</time>
      </trkpt>
      <trkpt lat="45.83921" lon="-0.69649">
        <ele>17</ele>
        <time>2017-06-25T07:01:08Z</time>
      </trkpt>
      <trkpt lat="45.83922" lon="-0.69651">
        <ele>17</ele>
        <time>2017-06-25T07:01:09Z</time>
      </trkpt>
      <trkpt lat="45.83923" lon="-0.69653">
        <ele>17</ele>
        <time>2017-06-25T07:01:10Z</time>
      </trkpt>
      <trkpt lat="45.83924" lon="-0.69654">
        <ele>17</ele>
        <time>2017-06-25T07:01:11Z</time>
      </trkpt>
      <trkpt lat="45.83925" lon="-0.69655">
        <ele>17</ele>
        <time>2017-06-25T07:01:12Z</time>
      </trkpt>
      <trkpt lat="45.83926" lon="-0.69656">
        <ele>17</ele>
        <time>2017-06-25T07:01:13Z</time>
      </trkpt>
      <trkpt lat="45.83926" lon="-0.69657">
        <ele>17</ele>
        <time>2017-06-25T07:01:14Z</time>
      </trkpt>
      <trkpt lat="45.83927" lon="-0.69658">
        <ele>17</ele>
        <time>2017-06-25T07:01:15Z</time>
      </trkpt>
      <trkpt lat="45.83929" lon="-0.69661">
        <ele>17</ele>
        <time>2017-06-25T07:01:17Z</time>
      </trkpt>
      <trkpt lat="45.83929" lon="-0.69662">
        <ele>17</ele>
        <time>2017-06-25T07:01:18Z</time>
      </trkpt>
      <trkpt lat="45.8393" lon="-0.69665">
        <ele>17</ele>
        <time>2017-06-25T07:01:19Z</time>
      </trkpt>
      <trkpt lat="45.83931" lon="-0.69667">
        <ele>17</ele>
        <time>2017-06-25T07:01:20Z</time>
      </trkpt>
      <trkpt lat="45.83932" lon="-0.69668">
        <ele>16</ele>
        <time>2017-06-25T07:01:21Z</time>
      </trkpt>
      <trkpt lat="45.83933" lon="-0.6967">
        <ele>16</ele>
        <time>2017-06-25T07:01:22Z</time>
      </trkpt>
      <trkpt lat="45.83934" lon="-0.69672">
        <ele>16</ele>
        <time>2017-06-25T07:01:23Z</time>
      </trkpt>
      <trkpt lat="45.83935" lon="-0.69674">
        <ele>16</ele>
        <time>2017-06-25T07:01:24Z</time>
      </trkpt>
      <trkpt lat="45.83936" lon="-0.69675">
        <ele>16</ele>
        <time>2017-06-25T07:01:25Z</time>
      </trkpt>
      <trkpt lat="45.83936" lon="-0.69677">
        <ele>16</ele>
        <time>2017-06-25T07:01:26Z</time>
      </trkpt>
      <trkpt lat="45.83938" lon="-0.69679">
        <ele>16</ele>
        <time>2017-06-25T07:01:27Z</time>
      </trkpt>
      <trkpt lat="45.83939" lon="-0.6968">
        <ele>16</ele>
        <time>2017-06-25T07:01:28Z</time>
      </trkpt>
      <trkpt lat="45.8394" lon="-0.69682">
        <ele>16</ele>
        <time>2017-06-25T07:01:29Z</time>
      </trkpt>
      <trkpt lat="45.83941" lon="-0.69683">
        <ele>16</ele>
        <time>2017-06-25T07:01:30Z</time>
      </trkpt>
      <trkpt lat="45.83942" lon="-0.69685">
        <ele>15</ele>
        <time>2017-06-25T07:01:31Z</time>
      </trkpt>
      <trkpt lat="45.83943" lon="-0.69687">
        <ele>15</ele>
        <time>2017-06-25T07:01:32Z</time>
      </trkpt>
      <trkpt lat="45.83944" lon="-0.69688">
        <ele>15</ele>
        <time>2017-06-25T07:01:33Z</time>
      </trkpt>
      <trkpt lat="45.83945" lon="-0.69689">
        <ele>15</ele>
        <time>2017-06-25T07:01:34Z</time>
      </trkpt>
      <trkpt lat="45.83946" lon="-0.69691">
        <ele>15</ele>
        <time>2017-06-25T07:01:35Z</time>
      </trkpt>
      <trkpt lat="45.83947" lon="-0.69692">
        <ele>15</ele>
        <time>2017-06-25T07:01:36Z</time>
      </trkpt>
      <trkpt lat="45.83948" lon="-0.69693">
        <ele>15</ele>
        <time>2017-06-25T07:01:37Z</time>
      </trkpt>
      <trkpt lat="45.83949" lon="-0.69694">
        <ele>15</ele>
        <time>2017-06-25T07:01:39Z</time>
      </trkpt>
      <trkpt lat="45.83949" lon="-0.69696">
        <ele>15</ele>
        <time>2017-06-25T07:01:41Z</time>
      </trkpt>
      <trkpt lat="45.8395" lon="-0.69697">
        <ele>15</ele>
        <time>2017-06-25T07:01:42Z</time>
      </trkpt>
      <trkpt lat="45.8395" lon="-0.69699">
        <ele>15</ele>
        <time>2017-06-25T07:01:43Z</time>
      </trkpt>
      <trkpt lat="45.83951" lon="-0.697">
        <ele>15</ele>
        <time>2017-06-25T07:01:45Z</time>
      </trkpt>
      <trkpt lat="45.83953" lon="-0.69703">
        <ele>15</ele>
        <time>2017-06-25T07:01:47Z</time>
      </trkpt>
      <trkpt lat="45.83954" lon="-0.69705">
        <ele>15</ele>
        <time>2017-06-25T07:01:48Z</time>
      </trkpt>
      <trkpt lat="45.83955" lon="-0.69706">
        <ele>15</ele>
        <time>2017-06-25T07:01:49Z</time>
      </trkpt>
      <trkpt lat="45.83955" lon="-0.69708">
        <ele>15</ele>
        <time>2017-06-25T07:01:50Z</time>
      </trkpt>
      <trkpt lat="45.83956" lon="-0.69709">
        <ele>15</ele>
        <time>2017-06-25T07:01:51Z</time>
      </trkpt>
      <trkpt lat="45.83956" lon="-0.69711">
        <ele>15</ele>
        <time>2017-06-25T07:01:52Z</time>
      </trkpt>
      <trkpt lat="45.83957" lon="-0.69712">
        <ele>15</ele>
        <time>2017-06-25T07:01:53Z</time>
      </trkpt>
      <trkpt lat="45.83958" lon="-0.69714">
        <ele>15</ele>
        <time>2017-06-25T07:01:54Z</time>
      </trkpt>
      <trkpt lat="45.83958" lon="-0.69716">
        <ele>15</ele>
        <time>2017-06-25T07:01:55Z</time>
      </trkpt>
      <trkpt lat="45.83959" lon="-0.69718">
        <ele>15</ele>
        <time>2017-06-25T07:01:56Z</time>
      </trkpt>
      <trkpt lat="45.83959" lon="-0.6972">
        <ele>15</ele>
        <time>2017-06-25T07:01:57Z</time>
      </trkpt>
      <trkpt lat="45.8396" lon="-0.69722">
        <ele>15</ele>
        <time>2017-06-25T07:01:58Z</time>
      </trkpt>
      <trkpt lat="45.8396" lon="-0.69725">
        <ele>14</ele>
        <time>2017-06-25T07:01:59Z</time>
      </trkpt>
      <trkpt lat="45.83959" lon="-0.69727">
        <ele>14</ele>
        <time>2017-06-25T07:02:00Z</time>
      </trkpt>
      <trkpt lat="45.83958" lon="-0.69729">
        <ele>14</ele>
        <time>2017-06-25T07:02:01Z</time>
      </trkpt>
      <trkpt lat="45.83957" lon="-0.69731">
        <ele>14</ele>
        <time>2017-06-25T07:02:02Z</time>
      </trkpt>
      <trkpt lat="45.83957" lon="-0.69732">
        <ele>14</ele>
        <time>2017-06-25T07:02:03Z</time>
      </trkpt>
      <trkpt lat="45.83956" lon="-0.69734">
        <ele>14</ele>
        <time>2017-06-25T07:02:04Z</time>
      </trkpt>
      <trkpt lat="45.83955" lon="-0.69736">
        <ele>15</ele>
        <time>2017-06-25T07:02:05Z</time>
      </trkpt>
      <trkpt lat="45.83954" lon="-0.69738">
        <ele>15</ele>
        <time>2017-06-25T07:02:06Z</time>
      </trkpt>
      <trkpt lat="45.83953" lon="-0.6974">
        <ele>15</ele>
        <time>2017-06-25T07:02:07Z</time>
      </trkpt>
      <trkpt lat="45.83952" lon="-0.69742">
        <ele>15</ele>
        <time>2017-06-25T07:02:08Z</time>
      </trkpt>
      <trkpt lat="45.83951" lon="-0.69744">
        <ele>15</ele>
        <time>2017-06-25T07:02:09Z</time>
      </trkpt>
      <trkpt lat="45.8395" lon="-0.69745">
        <ele>15</ele>
        <time>2017-06-25T07:02:10Z</time>
      </trkpt>
      <trkpt lat="45.83949" lon="-0.69746">
        <ele>15</ele>
        <time>2017-06-25T07:02:11Z</time>
      </trkpt>
      <trkpt lat="45.83948" lon="-0.69748">
        <ele>15</ele>
        <time>2017-06-25T07:02:12Z</time>
      </trkpt>
      <trkpt lat="45.83947" lon="-0.69749">
        <ele>15</ele>
        <time>2017-06-25T07:02:13Z</time>
      </trkpt>
      <trkpt lat="45.83947" lon="-0.69751">
        <ele>14</ele>
        <time>2017-06-25T07:02:14Z</time>
      </trkpt>
      <trkpt lat="45.83946" lon="-0.69752">
        <ele>14</ele>
        <time>2017-06-25T07:02:15Z</time>
      </trkpt>
      <trkpt lat="45.83945" lon="-0.69754">
        <ele>14</ele>
        <time>2017-06-25T07:02:16Z</time>
      </trkpt>
      <trkpt lat="45.83944" lon="-0.69755">
        <ele>14</ele>
        <time>2017-06-25T07:02:17Z</time>
      </trkpt>
      <trkpt lat="45.83943" lon="-0.69756">
        <ele>14</ele>
        <time>2017-06-25T07:02:18Z</time>
      </trkpt>
      <trkpt lat="45.83942" lon="-0.69757">
        <ele>14</ele>
        <time>2017-06-25T07:02:19Z</time>
      </trkpt>
      <trkpt lat="45.83941" lon="-0.69759">
        <ele>14</ele>
        <time>2017-06-25T07:02:20Z</time>
      </trkpt>
      <trkpt lat="45.8394" lon="-0.6976">
        <ele>14</ele>
        <time>2017-06-25T07:02:21Z</time>
      </trkpt>
      <trkpt lat="45.83939" lon="-0.69762">
        <ele>14</ele>
        <time>2017-06-25T07:02:22Z</time>
      </trkpt>
      <trkpt lat="45.83938" lon="-0.69763">
        <ele>14</ele>
        <time>2017-06-25T07:02:23Z</time>
      </trkpt>
      <trkpt lat="45.83937" lon="-0.69766">
        <ele>14</ele>
        <time>2017-06-25T07:02:25Z</time>
      </trkpt>
      <trkpt lat="45.83936" lon="-0.69768">
        <ele>14</ele>
        <time>2017-06-25T07:02:26Z</time>
      </trkpt>
      <trkpt lat="45.83936" lon="-0.6977">
        <ele>14</ele>
        <time>2017-06-25T07:02:27Z</time>
      </trkpt>
      <trkpt lat="45.83935" lon="-0.69771">
        <ele>14</ele>
        <time>2017-06-25T07:02:28Z</time>
      </trkpt>
      <trkpt lat="45.83934" lon="-0.69772">
        <ele>14</ele>
        <time>2017-06-25T07:02:29Z</time>
      </trkpt>
      <trkpt lat="45.83933" lon="-0.69774">
        <ele>14</ele>
        <time>2017-06-25T07:02:30Z</time>
      </trkpt>
      <trkpt lat="45.83932" lon="-0.69775">
        <ele>14</ele>
        <time>2017-06-25T07:02:31Z</time>
      </trkpt>
      <trkpt lat="45.83931" lon="-0.69777">
        <ele>14</ele>
        <time>2017-06-25T07:02:33Z</time>
      </trkpt>
      <trkpt lat="45.83929" lon="-0.69779">
        <ele>14</ele>
        <time>2017-06-25T07:02:34Z</time>
      </trkpt>
      <trkpt lat="45.83929" lon="-0.6978">
        <ele>14</ele>
        <time>2017-06-25T07:02:35Z</time>
      </trkpt>
      <trkpt lat="45.83928" lon="-0.69782">
        <ele>14</ele>
        <time>2017-06-25T07:02:36Z</time>
      </trkpt>
      <trkpt lat="45.83928" lon="-0.69783">
        <ele>14</ele>
        <time>2017-06-25T07:02:37Z</time>
      </trkpt>
      <trkpt lat="45.83927" lon="-0.69785">
        <ele>14</ele>
        <time>2017-06-25T07:02:38Z</time>
      </trkpt>
      <trkpt lat="45.83926" lon="-0.69786">
        <ele>14</ele>
        <time>2017-06-25T07:02:39Z</time>
      </trkpt>
      <trkpt lat="45.83926" lon="-0.69788">
        <ele>14</ele>
        <time>2017-06-25T07:02:40Z</time>
      </trkpt>
      <trkpt lat="45.83925" lon="-0.69789">
        <ele>14</ele>
        <time>2017-06-25T07:02:41Z</time>
      </trkpt>
      <trkpt lat="45.83924" lon="-0.6979">
        <ele>14</ele>
        <time>2017-06-25T07:02:42Z</time>
      </trkpt>
      <trkpt lat="45.83924" lon="-0.69792">
        <ele>14</ele>
        <time>2017-06-25T07:02:43Z</time>
      </trkpt>
      <trkpt lat="45.83923" lon="-0.69793">
        <ele>14</ele>
        <time>2017-06-25T07:02:44Z</time>
      </trkpt>
      <trkpt lat="45.83922" lon="-0.69795">
        <ele>14</ele>
        <time>2017-06-25T07:02:45Z</time>
      </trkpt>
      <trkpt lat="45.83921" lon="-0.69797">
        <ele>14</ele>
        <time>2017-06-25T07:02:46Z</time>
      </trkpt>
      <trkpt lat="45.8392" lon="-0.69799">
        <ele>14</ele>
        <time>2017-06-25T07:02:47Z</time>
      </trkpt>
      <trkpt lat="45.83919" lon="-0.69801">
        <ele>14</ele>
        <time>2017-06-25T07:02:48Z</time>
      </trkpt>
      <trkpt lat="45.83918" lon="-0.69803">
        <ele>14</ele>
        <time>2017-06-25T07:02:49Z</time>
      </trkpt>
      <trkpt lat="45.83917" lon="-0.69805">
        <ele>14</ele>
        <time>2017-06-25T07:02:50Z</time>
      </trkpt>
      <trkpt lat="45.83917" lon="-0.69807">
        <ele>16</ele>
        <time>2017-06-25T07:02:51Z</time>
      </trkpt>
      <trkpt lat="45.83915" lon="-0.69808">
        <ele>16</ele>
        <time>2017-06-25T07:02:52Z</time>
      </trkpt>
      <trkpt lat="45.83914" lon="-0.6981">
        <ele>16</ele>
        <time>2017-06-25T07:02:53Z</time>
      </trkpt>
      <trkpt lat="45.83914" lon="-0.69813">
        <ele>16</ele>
        <time>2017-06-25T07:02:54Z</time>
      </trkpt>
      <trkpt lat="45.83913" lon="-0.69815">
        <ele>16</ele>
        <time>2017-06-25T07:02:55Z</time>
      </trkpt>
      <trkpt lat="45.83912" lon="-0.69816">
        <ele>16</ele>
        <time>2017-06-25T07:02:56Z</time>
      </trkpt>
      <trkpt lat="45.83911" lon="-0.69818">
        <ele>16</ele>
        <time>2017-06-25T07:02:57Z</time>
      </trkpt>
      <trkpt lat="45.8391" lon="-0.69819">
        <ele>16</ele>
        <time>2017-06-25T07:02:58Z</time>
      </trkpt>
      <trkpt lat="45.8391" lon="-0.69821">
        <ele>16</ele>
        <time>2017-06-25T07:02:59Z</time>
      </trkpt>
      <trkpt lat="45.83909" lon="-0.69822">
        <ele>16</ele>
        <time>2017-06-25T07:03:00Z</time>
      </trkpt>
      <trkpt lat="45.83909" lon="-0.69823">
        <ele>16</ele>
        <time>2017-06-25T07:03:01Z</time>
      </trkpt>
      <trkpt lat="45.83908" lon="-0.69825">
        <ele>16</ele>
        <time>2017-06-25T07:03:02Z</time>
      </trkpt>
      <trkpt lat="45.83907" lon="-0.69826">
        <ele>16</ele>
        <time>2017-06-25T07:03:03Z</time>
      </trkpt>
      <trkpt lat="45.83907" lon="-0.69828">
        <ele>16</ele>
        <time>2017-06-25T07:03:04Z</time>
      </trkpt>
      <trkpt lat="45.83906" lon="-0.6983">
        <ele>16</ele>
        <time>2017-06-25T07:03:05Z</time>
      </trkpt>
      <trkpt lat="45.83905" lon="-0.69831">
        <ele>16</ele>
        <time>2017-06-25T07:03:06Z</time>
      </trkpt>
      <trkpt lat="45.83905" lon="-0.69833">
        <ele>16</ele>
        <time>2017-06-25T07:03:07Z</time>
      </trkpt>
      <trkpt lat="45.83904" lon="-0.69836">
        <ele>16</ele>
        <time>2017-06-25T07:03:08Z</time>
      </trkpt>
      <trkpt lat="45.83904" lon="-0.69837">
        <ele>16</ele>
        <time>2017-06-25T07:03:09Z</time>
      </trkpt>
      <trkpt lat="45.83904" lon="-0.69839">
        <ele>16</ele>
        <time>2017-06-25T07:03:10Z</time>
      </trkpt>
      <trkpt lat="45.83903" lon="-0.69841">
        <ele>16</ele>
        <time>2017-06-25T07:03:11Z</time>
      </trkpt>
      <trkpt lat="45.83903" lon="-0.69843">
        <ele>16</ele>
        <time>2017-06-25T07:03:12Z</time>
      </trkpt>
      <trkpt lat="45.83903" lon="-0.69845">
        <ele>16</ele>
        <time>2017-06-25T07:03:14Z</time>
      </trkpt>
      <trkpt lat="45.83903" lon="-0.69846">
        <ele>16</ele>
        <time>2017-06-25T07:03:15Z</time>
      </trkpt>
      <trkpt lat="45.83903" lon="-0.69848">
        <ele>17</ele>
        <time>2017-06-25T07:03:16Z</time>
      </trkpt>
      <trkpt lat="45.83902" lon="-0.6985">
        <ele>17</ele>
        <time>2017-06-25T07:03:17Z</time>
      </trkpt>
      <trkpt lat="45.83902" lon="-0.69852">
        <ele>17</ele>
        <time>2017-06-25T07:03:18Z</time>
      </trkpt>
      <trkpt lat="45.83902" lon="-0.69854">
        <ele>17</ele>
        <time>2017-06-25T07:03:19Z</time>
      </trkpt>
      <trkpt lat="45.83903" lon="-0.69856">
        <ele>17</ele>
        <time>2017-06-25T07:03:20Z</time>
      </trkpt>
      <trkpt lat="45.83904" lon="-0.69857">
        <ele>17</ele>
        <time>2017-06-25T07:03:21Z</time>
      </trkpt>
      <trkpt lat="45.83904" lon="-0.6986">
        <ele>17</ele>
        <time>2017-06-25T07:03:23Z</time>
      </trkpt>
      <trkpt lat="45.83904" lon="-0.69861">
        <ele>17</ele>
        <time>2017-06-25T07:03:24Z</time>
      </trkpt>
      <trkpt lat="45.83905" lon="-0.69863">
        <ele>17</ele>
        <time>2017-06-25T07:03:26Z</time>
      </trkpt>
      <trkpt lat="45.83905" lon="-0.69865">
        <ele>17</ele>
        <time>2017-06-25T07:03:27Z</time>
      </trkpt>
      <trkpt lat="45.83905" lon="-0.69867">
        <ele>17</ele>
        <time>2017-06-25T07:03:28Z</time>
      </trkpt>
      <trkpt lat="45.83905" lon="-0.69869">
        <ele>17</ele>
        <time>2017-06-25T07:03:30Z</time>
      </trkpt>
      <trkpt lat="45.83905" lon="-0.69871">
        <ele>17</ele>
        <time>2017-06-25T07:03:31Z</time>
      </trkpt>
      <trkpt lat="45.83905" lon="-0.69872">
        <ele>17</ele>
        <time>2017-06-25T07:03:32Z</time>
      </trkpt>
      <trkpt lat="45.83905" lon="-0.69874">
        <ele>17</ele>
        <time>2017-06-25T07:03:33Z</time>
      </trkpt>
      <trkpt lat="45.83905" lon="-0.69876">
        <ele>17</ele>
        <time>2017-06-25T07:03:34Z</time>
      </trkpt>
      <trkpt lat="45.83904" lon="-0.69878">
        <ele>17</ele>
        <time>2017-06-25T07:03:35Z</time>
      </trkpt>
      <trkpt lat="45.83904" lon="-0.6988">
        <ele>17</ele>
        <time>2017-06-25T07:03:36Z</time>
      </trkpt>
      <trkpt lat="45.83904" lon="-0.69882">
        <ele>17</ele>
        <time>2017-06-25T07:03:37Z</time>
      </trkpt>
      <trkpt lat="45.83904" lon="-0.69884">
        <ele>17</ele>
        <time>2017-06-25T07:03:38Z</time>
      </trkpt>
      <trkpt lat="45.83903" lon="-0.69885">
        <ele>17</ele>
        <time>2017-06-25T07:03:39Z</time>
      </trkpt>
      <trkpt lat="45.83903" lon="-0.69888">
        <ele>17</ele>
        <time>2017-06-25T07:03:41Z</time>
      </trkpt>
      <trkpt lat="45.83904" lon="-0.6989">
        <ele>17</ele>
        <time>2017-06-25T07:03:42Z</time>
      </trkpt>
      <trkpt lat="45.83904" lon="-0.69891">
        <ele>17</ele>
        <time>2017-06-25T07:03:43Z</time>
      </trkpt>
      <trkpt lat="45.83904" lon="-0.69893">
        <ele>17</ele>
        <time>2017-06-25T07:03:44Z</time>
      </trkpt>
      <trkpt lat="45.83904" lon="-0.69895">
        <ele>17</ele>
        <time>2017-06-25T07:03:45Z</time>
      </trkpt>
      <trkpt lat="45.83904" lon="-0.69897">
        <ele>17</ele>
        <time>2017-06-25T07:03:46Z</time>
      </trkpt>
      <trkpt lat="45.83904" lon="-0.699">
        <ele>17</ele>
        <time>2017-06-25T07:03:47Z</time>
      </trkpt>
      <trkpt lat="45.83904" lon="-0.69902">
        <ele>16</ele>
        <time>2017-06-25T07:03:48Z</time>
      </trkpt>
      <trkpt lat="45.83905" lon="-0.69904">
        <ele>16</ele>
        <time>2017-06-25T07:03:49Z</time>
      </trkpt>
      <trkpt lat="45.83905" lon="-0.69907">
        <ele>16</ele>
        <time>2017-06-25T07:03:50Z</time>
      </trkpt>
      <trkpt lat="45.83905" lon="-0.69909">
        <ele>16</ele>
        <time>2017-06-25T07:03:51Z</time>
      </trkpt>
      <trkpt lat="45.83906" lon="-0.6991">
        <ele>16</ele>
        <time>2017-06-25T07:03:52Z</time>
      </trkpt>
      <trkpt lat="45.83906" lon="-0.69914">
        <ele>16</ele>
        <time>2017-06-25T07:03:54Z</time>
      </trkpt>
      <trkpt lat="45.83907" lon="-0.69915">
        <ele>16</ele>
        <time>2017-06-25T07:03:55Z</time>
      </trkpt>
      <trkpt lat="45.83907" lon="-0.69917">
        <ele>16</ele>
        <time>2017-06-25T07:03:56Z</time>
      </trkpt>
      <trkpt lat="45.83907" lon="-0.69919">
        <ele>16</ele>
        <time>2017-06-25T07:03:57Z</time>
      </trkpt>
      <trkpt lat="45.83908" lon="-0.69921">
        <ele>16</ele>
        <time>2017-06-25T07:03:58Z</time>
      </trkpt>
      <trkpt lat="45.83908" lon="-0.69922">
        <ele>16</ele>
        <time>2017-06-25T07:03:59Z</time>
      </trkpt>
      <trkpt lat="45.83909" lon="-0.69924">
        <ele>16</ele>
        <time>2017-06-25T07:04:00Z</time>
      </trkpt>
      <trkpt lat="45.83909" lon="-0.69925">
        <ele>16</ele>
        <time>2017-06-25T07:04:01Z</time>
      </trkpt>
      <trkpt lat="45.8391" lon="-0.69926">
        <ele>16</ele>
        <time>2017-06-25T07:04:02Z</time>
      </trkpt>
      <trkpt lat="45.8391" lon="-0.69928">
        <ele>16</ele>
        <time>2017-06-25T07:04:03Z</time>
      </trkpt>
      <trkpt lat="45.8391" lon="-0.69929">
        <ele>16</ele>
        <time>2017-06-25T07:04:04Z</time>
      </trkpt>
      <trkpt lat="45.83911" lon="-0.69931">
        <ele>16</ele>
        <time>2017-06-25T07:04:05Z</time>
      </trkpt>
      <trkpt lat="45.83912" lon="-0.69933">
        <ele>16</ele>
        <time>2017-06-25T07:04:06Z</time>
      </trkpt>
      <trkpt lat="45.83912" lon="-0.69934">
        <ele>16</ele>
        <time>2017-06-25T07:04:07Z</time>
      </trkpt>
      <trkpt lat="45.83913" lon="-0.69935">
        <ele>16</ele>
        <time>2017-06-25T07:04:08Z</time>
      </trkpt>
      <trkpt lat="45.83914" lon="-0.69936">
        <ele>16</ele>
        <time>2017-06-25T07:04:09Z</time>
      </trkpt>
      <trkpt lat="45.83915" lon="-0.69938">
        <ele>16</ele>
        <time>2017-06-25T07:04:10Z</time>
      </trkpt>
      <trkpt lat="45.83915" lon="-0.6994">
        <ele>16</ele>
        <time>2017-06-25T07:04:11Z</time>
      </trkpt>
      <trkpt lat="45.83916" lon="-0.69941">
        <ele>16</ele>
        <time>2017-06-25T07:04:12Z</time>
      </trkpt>
      <trkpt lat="45.83917" lon="-0.69943">
        <ele>13</ele>
        <time>2017-06-25T07:04:13Z</time>
      </trkpt>
      <trkpt lat="45.83918" lon="-0.69945">
        <ele>13</ele>
        <time>2017-06-25T07:04:14Z</time>
      </trkpt>
      <trkpt lat="45.83918" lon="-0.69947">
        <ele>13</ele>
        <time>2017-06-25T07:04:15Z</time>
      </trkpt>
      <trkpt lat="45.8392" lon="-0.69948">
        <ele>13</ele>
        <time>2017-06-25T07:04:16Z</time>
      </trkpt>
      <trkpt lat="45.8392" lon="-0.6995">
        <ele>13</ele>
        <time>2017-06-25T07:04:17Z</time>
      </trkpt>
      <trkpt lat="45.8392" lon="-0.69951">
        <ele>13</ele>
        <time>2017-06-25T07:04:18Z</time>
      </trkpt>
      <trkpt lat="45.83921" lon="-0.69953">
        <ele>13</ele>
        <time>2017-06-25T07:04:19Z</time>
      </trkpt>
      <trkpt lat="45.83921" lon="-0.69954">
        <ele>13</ele>
        <time>2017-06-25T07:04:20Z</time>
      </trkpt>
      <trkpt lat="45.83921" lon="-0.69955">
        <ele>13</ele>
        <time>2017-06-25T07:04:21Z</time>
      </trkpt>
      <trkpt lat="45.83922" lon="-0.69957">
        <ele>13</ele>
        <time>2017-06-25T07:04:23Z</time>
      </trkpt>
      <trkpt lat="45.83923" lon="-0.69959">
        <ele>13</ele>
        <time>2017-06-25T07:04:24Z</time>
      </trkpt>
      <trkpt lat="45.83923" lon="-0.6996">
        <ele>13</ele>
        <time>2017-06-25T07:04:25Z</time>
      </trkpt>
      <trkpt lat="45.83924" lon="-0.69961">
        <ele>13</ele>
        <time>2017-06-25T07:04:26Z</time>
      </trkpt>
      <trkpt lat="45.83925" lon="-0.69962">
        <ele>13</ele>
        <time>2017-06-25T07:04:27Z</time>
      </trkpt>
      <trkpt lat="45.83925" lon="-0.69963">
        <ele>13</ele>
        <time>2017-06-25T07:04:28Z</time>
      </trkpt>
      <trkpt lat="45.83926" lon="-0.69965">
        <ele>13</ele>
        <time>2017-06-25T07:04:29Z</time>
      </trkpt>
      <trkpt lat="45.83926" lon="-0.69966">
        <ele>13</ele>
        <time>2017-06-25T07:04:30Z</time>
      </trkpt>
      <trkpt lat="45.83927" lon="-0.69968">
        <ele>13</ele>
        <time>2017-06-25T07:04:31Z</time>
      </trkpt>
      <trkpt lat="45.83928" lon="-0.69969">
        <ele>13</ele>
        <time>2017-06-25T07:04:32Z</time>
      </trkpt>
      <trkpt lat="45.83929" lon="-0.69971">
        <ele>13</ele>
        <time>2017-06-25T07:04:33Z</time>
      </trkpt>
      <trkpt lat="45.83929" lon="-0.69972">
        <ele>13</ele>
        <time>2017-06-25T07:04:34Z</time>
      </trkpt>
      <trkpt lat="45.8393" lon="-0.69974">
        <ele>13</ele>
        <time>2017-06-25T07:04:35Z</time>
      </trkpt>
      <trkpt lat="45.83931" lon="-0.69976">
        <ele>13</ele>
        <time>2017-06-25T07:04:36Z</time>
      </trkpt>
      <trkpt lat="45.83932" lon="-0.69977">
        <ele>13</ele>
        <time>2017-06-25T07:04:37Z</time>
      </trkpt>
      <trkpt lat="45.83932" lon="-0.69979">
        <ele>13</ele>
        <time>2017-06-25T07:04:38Z</time>
      </trkpt>
      <trkpt lat="45.83933" lon="-0.69981">
        <ele>13</ele>
        <time>2017-06-25T07:04:39Z</time>
      </trkpt>
      <trkpt lat="45.83934" lon="-0.69982">
        <ele>13</ele>
        <time>2017-06-25T07:04:40Z</time>
      </trkpt>
      <trkpt lat="45.83934" lon="-0.69983">
        <ele>13</ele>
        <time>2017-06-25T07:04:41Z</time>
      </trkpt>
      <trkpt lat="45.83935" lon="-0.69985">
        <ele>13</ele>
        <time>2017-06-25T07:04:42Z</time>
      </trkpt>
      <trkpt lat="45.83936" lon="-0.69986">
        <ele>13</ele>
        <time>2017-06-25T07:04:43Z</time>
      </trkpt>
      <trkpt lat="45.83936" lon="-0.69988">
        <ele>13</ele>
        <time>2017-06-25T07:04:44Z</time>
      </trkpt>
      <trkpt lat="45.83937" lon="-0.6999">
        <ele>13</ele>
        <time>2017-06-25T07:04:45Z</time>
      </trkpt>
      <trkpt lat="45.83938" lon="-0.69991">
        <ele>13</ele>
        <time>2017-06-25T07:04:46Z</time>
      </trkpt>
      <trkpt lat="45.83938" lon="-0.69994">
        <ele>13</ele>
        <time>2017-06-25T07:04:47Z</time>
      </trkpt>
      <trkpt lat="45.83939" lon="-0.69995">
        <ele>13</ele>
        <time>2017-06-25T07:04:48Z</time>
      </trkpt>
      <trkpt lat="45.8394" lon="-0.69997">
        <ele>13</ele>
        <time>2017-06-25T07:04:49Z</time>
      </trkpt>
      <trkpt lat="45.83941" lon="-0.69998">
        <ele>13</ele>
        <time>2017-06-25T07:04:50Z</time>
      </trkpt>
      <trkpt lat="45.83941" lon="-0.70001">
        <ele>13</ele>
        <time>2017-06-25T07:04:52Z</time>
      </trkpt>
      <trkpt lat="45.83941" lon="-0.70003">
        <ele>13</ele>
        <time>2017-06-25T07:04:53Z</time>
      </trkpt>
      <trkpt lat="45.83941" lon="-0.70006">
        <ele>13</ele>
        <time>2017-06-25T07:04:54Z</time>
      </trkpt>
      <trkpt lat="45.83941" lon="-0.70008">
        <ele>13</ele>
        <time>2017-06-25T07:04:55Z</time>
      </trkpt>
      <trkpt lat="45.83941" lon="-0.7001">
        <ele>13</ele>
        <time>2017-06-25T07:04:56Z</time>
      </trkpt>
      <trkpt lat="45.83941" lon="-0.70012">
        <ele>13</ele>
        <time>2017-06-25T07:04:57Z</time>
      </trkpt>
      <trkpt lat="45.83941" lon="-0.70013">
        <ele>13</ele>
        <time>2017-06-25T07:04:58Z</time>
      </trkpt>
      <trkpt lat="45.83941" lon="-0.70015">
        <ele>13</ele>
        <time>2017-06-25T07:04:59Z</time>
      </trkpt>
      <trkpt lat="45.83941" lon="-0.70017">
        <ele>13</ele>
        <time>2017-06-25T07:05:00Z</time>
      </trkpt>
      <trkpt lat="45.83941" lon="-0.70018">
        <ele>13</ele>
        <time>2017-06-25T07:05:01Z</time>
      </trkpt>
      <trkpt lat="45.83941" lon="-0.7002">
        <ele>13</ele>
        <time>2017-06-25T07:05:02Z</time>
      </trkpt>
      <trkpt lat="45.83941" lon="-0.70021">
        <ele>12</ele>
        <time>2017-06-25T07:05:03Z</time>
      </trkpt>
      <trkpt lat="45.83941" lon="-0.70024">
        <ele>12</ele>
        <time>2017-06-25T07:05:04Z</time>
      </trkpt>
      <trkpt lat="45.83941" lon="-0.70026">
        <ele>12</ele>
        <time>2017-06-25T07:05:05Z</time>
      </trkpt>
      <trkpt lat="45.83941" lon="-0.70029">
        <ele>12</ele>
        <time>2017-06-25T07:05:06Z</time>
      </trkpt>
      <trkpt lat="45.83941" lon="-0.70031">
        <ele>12</ele>
        <time>2017-06-25T07:05:07Z</time>
      </trkpt>
      <trkpt lat="45.83941" lon="-0.70034">
        <ele>12</ele>
        <time>2017-06-25T07:05:09Z</time>
      </trkpt>
      <trkpt lat="45.83941" lon="-0.70035">
        <ele>12</ele>
        <time>2017-06-25T07:05:10Z</time>
      </trkpt>
      <trkpt lat="45.83941" lon="-0.70038">
        <ele>12</ele>
        <time>2017-06-25T07:05:12Z</time>
      </trkpt>
      <trkpt lat="45.83941" lon="-0.7004">
        <ele>12</ele>
        <time>2017-06-25T07:05:13Z</time>
      </trkpt>
      <trkpt lat="45.83942" lon="-0.70041">
        <ele>12</ele>
        <time>2017-06-25T07:05:14Z</time>
      </trkpt>
      <trkpt lat="45.83942" lon="-0.70044">
        <ele>12</ele>
        <time>2017-06-25T07:05:15Z</time>
      </trkpt>
      <trkpt lat="45.83941" lon="-0.70046">
        <ele>12</ele>
        <time>2017-06-25T07:05:16Z</time>
      </trkpt>
      <trkpt lat="45.83941" lon="-0.70049">
        <ele>12</ele>
        <time>2017-06-25T07:05:17Z</time>
      </trkpt>
      <trkpt lat="45.83942" lon="-0.70051">
        <ele>12</ele>
        <time>2017-06-25T07:05:18Z</time>
      </trkpt>
      <trkpt lat="45.83942" lon="-0.70053">
        <ele>12</ele>
        <time>2017-06-25T07:05:19Z</time>
      </trkpt>
      <trkpt lat="45.83942" lon="-0.70054">
        <ele>12</ele>
        <time>2017-06-25T07:05:20Z</time>
      </trkpt>
      <trkpt lat="45.83942" lon="-0.70056">
        <ele>12</ele>
        <time>2017-06-25T07:05:21Z</time>
      </trkpt>
      <trkpt lat="45.83942" lon="-0.70058">
        <ele>12</ele>
        <time>2017-06-25T07:05:22Z</time>
      </trkpt>
      <trkpt lat="45.83942" lon="-0.7006">
        <ele>12</ele>
        <time>2017-06-25T07:05:23Z</time>
      </trkpt>
      <trkpt lat="45.83942" lon="-0.70061">
        <ele>12</ele>
        <time>2017-06-25T07:05:25Z</time>
      </trkpt>
      <trkpt lat="45.83941" lon="-0.70063">
        <ele>12</ele>
        <time>2017-06-25T07:05:26Z</time>
      </trkpt>
      <trkpt lat="45.8394" lon="-0.70065">
        <ele>12</ele>
        <time>2017-06-25T07:05:27Z</time>
      </trkpt>
      <trkpt lat="45.8394" lon="-0.70067">
        <ele>12</ele>
        <time>2017-06-25T07:05:28Z</time>
      </trkpt>
      <trkpt lat="45.8394" lon="-0.70071">
        <ele>12</ele>
        <time>2017-06-25T07:05:29Z</time>
      </trkpt>
      <trkpt lat="45.83941" lon="-0.70075">
        <ele>12</ele>
        <time>2017-06-25T07:05:30Z</time>
      </trkpt>
      <trkpt lat="45.8394" lon="-0.70077">
        <ele>12</ele>
        <time>2017-06-25T07:05:31Z</time>
      </trkpt>
      <trkpt lat="45.83939" lon="-0.7008">
        <ele>12</ele>
        <time>2017-06-25T07:05:32Z</time>
      </trkpt>
      <trkpt lat="45.83937" lon="-0.70081">
        <ele>12</ele>
        <time>2017-06-25T07:05:33Z</time>
      </trkpt>
      <trkpt lat="45.83936" lon="-0.70082">
        <ele>12</ele>
        <time>2017-06-25T07:05:34Z</time>
      </trkpt>
      <trkpt lat="45.83936" lon="-0.70083">
        <ele>12</ele>
        <time>2017-06-25T07:05:35Z</time>
      </trkpt>
      <trkpt lat="45.83934" lon="-0.70084">
        <ele>12</ele>
        <time>2017-06-25T07:05:36Z</time>
      </trkpt>
      <trkpt lat="45.83934" lon="-0.70086">
        <ele>12</ele>
        <time>2017-06-25T07:05:37Z</time>
      </trkpt>
      <trkpt lat="45.83933" lon="-0.70088">
        <ele>12</ele>
        <time>2017-06-25T07:05:38Z</time>
      </trkpt>
      <trkpt lat="45.83933" lon="-0.70089">
        <ele>12</ele>
        <time>2017-06-25T07:05:39Z</time>
      </trkpt>
      <trkpt lat="45.83931" lon="-0.70091">
        <ele>12</ele>
        <time>2017-06-25T07:05:41Z</time>
      </trkpt>
      <trkpt lat="45.83931" lon="-0.70094">
        <ele>12</ele>
        <time>2017-06-25T07:05:42Z</time>
      </trkpt>
      <trkpt lat="45.8393" lon="-0.70096">
        <ele>12</ele>
        <time>2017-06-25T07:05:44Z</time>
      </trkpt>
      <trkpt lat="45.83929" lon="-0.70099">
        <ele>12</ele>
        <time>2017-06-25T07:05:45Z</time>
      </trkpt>
      <trkpt lat="45.83928" lon="-0.70101">
        <ele>12</ele>
        <time>2017-06-25T07:05:46Z</time>
      </trkpt>
      <trkpt lat="45.83927" lon="-0.70103">
        <ele>12</ele>
        <time>2017-06-25T07:05:47Z</time>
      </trkpt>
      <trkpt lat="45.83926" lon="-0.70104">
        <ele>12</ele>
        <time>2017-06-25T07:05:48Z</time>
      </trkpt>
      <trkpt lat="45.83925" lon="-0.70106">
        <ele>12</ele>
        <time>2017-06-25T07:05:49Z</time>
      </trkpt>
      <trkpt lat="45.83923" lon="-0.70108">
        <ele>12</ele>
        <time>2017-06-25T07:05:50Z</time>
      </trkpt>
      <trkpt lat="45.83922" lon="-0.70109">
        <ele>11</ele>
        <time>2017-06-25T07:05:51Z</time>
      </trkpt>
      <trkpt lat="45.83921" lon="-0.7011">
        <ele>11</ele>
        <time>2017-06-25T07:05:52Z</time>
      </trkpt>
      <trkpt lat="45.8392" lon="-0.70112">
        <ele>11</ele>
        <time>2017-06-25T07:05:53Z</time>
      </trkpt>
      <trkpt lat="45.83919" lon="-0.70114">
        <ele>11</ele>
        <time>2017-06-25T07:05:54Z</time>
      </trkpt>
      <trkpt lat="45.83918" lon="-0.70115">
        <ele>11</ele>
        <time>2017-06-25T07:05:56Z</time>
      </trkpt>
      <trkpt lat="45.83917" lon="-0.70117">
        <ele>11</ele>
        <time>2017-06-25T07:05:57Z</time>
      </trkpt>
      <trkpt lat="45.83916" lon="-0.70119">
        <ele>14</ele>
        <time>2017-06-25T07:05:58Z</time>
      </trkpt>
      <trkpt lat="45.83915" lon="-0.70121">
        <ele>14</ele>
        <time>2017-06-25T07:06:00Z</time>
      </trkpt>
      <trkpt lat="45.83915" lon="-0.70122">
        <ele>14</ele>
        <time>2017-06-25T07:06:01Z</time>
      </trkpt>
      <trkpt lat="45.83913" lon="-0.70124">
        <ele>14</ele>
        <time>2017-06-25T07:06:03Z</time>
      </trkpt>
      <trkpt lat="45.83912" lon="-0.70126">
        <ele>14</ele>
        <time>2017-06-25T07:06:04Z</time>
      </trkpt>
      <trkpt lat="45.83912" lon="-0.70128">
        <ele>13</ele>
        <time>2017-06-25T07:06:05Z</time>
      </trkpt>
      <trkpt lat="45.83911" lon="-0.7013">
        <ele>13</ele>
        <time>2017-06-25T07:06:07Z</time>
      </trkpt>
      <trkpt lat="45.8391" lon="-0.70132">
        <ele>13</ele>
        <time>2017-06-25T07:06:08Z</time>
      </trkpt>
      <trkpt lat="45.8391" lon="-0.70134">
        <ele>13</ele>
        <time>2017-06-25T07:06:09Z</time>
      </trkpt>
      <trkpt lat="45.8391" lon="-0.70136">
        <ele>13</ele>
        <time>2017-06-25T07:06:10Z</time>
      </trkpt>
      <trkpt lat="45.83909" lon="-0.70138">
        <ele>13</ele>
        <time>2017-06-25T07:06:11Z</time>
      </trkpt>
      <trkpt lat="45.83909" lon="-0.7014">
        <ele>13</ele>
        <time>2017-06-25T07:06:12Z</time>
      </trkpt>
      <trkpt lat="45.83907" lon="-0.70143">
        <ele>13</ele>
        <time>2017-06-25T07:06:14Z</time>
      </trkpt>
      <trkpt lat="45.83907" lon="-0.70145">
        <ele>13</ele>
        <time>2017-06-25T07:06:15Z</time>
      </trkpt>
      <trkpt lat="45.83907" lon="-0.70147">
        <ele>13</ele>
        <time>2017-06-25T07:06:16Z</time>
      </trkpt>
      <trkpt lat="45.83906" lon="-0.70148">
        <ele>13</ele>
        <time>2017-06-25T07:06:17Z</time>
      </trkpt>
      <trkpt lat="45.83906" lon="-0.7015">
        <ele>13</ele>
        <time>2017-06-25T07:06:18Z</time>
      </trkpt>
      <trkpt lat="45.83906" lon="-0.70153">
        <ele>12</ele>
        <time>2017-06-25T07:06:19Z</time>
      </trkpt>
      <trkpt lat="45.83905" lon="-0.70155">
        <ele>12</ele>
        <time>2017-06-25T07:06:20Z</time>
      </trkpt>
      <trkpt lat="45.83905" lon="-0.70156">
        <ele>12</ele>
        <time>2017-06-25T07:06:21Z</time>
      </trkpt>
      <trkpt lat="45.83905" lon="-0.70158">
        <ele>12</ele>
        <time>2017-06-25T07:06:22Z</time>
      </trkpt>
      <trkpt lat="45.83904" lon="-0.70161">
        <ele>12</ele>
        <time>2017-06-25T07:06:24Z</time>
      </trkpt>
      <trkpt lat="45.83903" lon="-0.70163">
        <ele>12</ele>
        <time>2017-06-25T07:06:25Z</time>
      </trkpt>
      <trkpt lat="45.83902" lon="-0.70166">
        <ele>12</ele>
        <time>2017-06-25T07:06:27Z</time>
      </trkpt>
      <trkpt lat="45.83902" lon="-0.70168">
        <ele>12</ele>
        <time>2017-06-25T07:06:28Z</time>
      </trkpt>
      <trkpt lat="45.83901" lon="-0.7017">
        <ele>12</ele>
        <time>2017-06-25T07:06:29Z</time>
      </trkpt>
      <trkpt lat="45.83899" lon="-0.70172">
        <ele>12</ele>
        <time>2017-06-25T07:06:31Z</time>
      </trkpt>
      <trkpt lat="45.83898" lon="-0.70173">
        <ele>12</ele>
        <time>2017-06-25T07:06:32Z</time>
      </trkpt>
      <trkpt lat="45.83897" lon="-0.70174">
        <ele>12</ele>
        <time>2017-06-25T07:06:33Z</time>
      </trkpt>
      <trkpt lat="45.83896" lon="-0.70176">
        <ele>12</ele>
        <time>2017-06-25T07:06:34Z</time>
      </trkpt>
      <trkpt lat="45.83896" lon="-0.70179">
        <ele>13</ele>
        <time>2017-06-25T07:06:35Z</time>
      </trkpt>
      <trkpt lat="45.83895" lon="-0.70181">
        <ele>13</ele>
        <time>2017-06-25T07:06:36Z</time>
      </trkpt>
      <trkpt lat="45.83894" lon="-0.70182">
        <ele>13</ele>
        <time>2017-06-25T07:06:37Z</time>
      </trkpt>
      <trkpt lat="45.83894" lon="-0.70185">
        <ele>13</ele>
        <time>2017-06-25T07:06:38Z</time>
      </trkpt>
      <trkpt lat="45.83893" lon="-0.70187">
        <ele>13</ele>
        <time>2017-06-25T07:06:39Z</time>
      </trkpt>
      <trkpt lat="45.83892" lon="-0.70189">
        <ele>13</ele>
        <time>2017-06-25T07:06:40Z</time>
      </trkpt>
      <trkpt lat="45.83891" lon="-0.70192">
        <ele>13</ele>
        <time>2017-06-25T07:06:42Z</time>
      </trkpt>
      <trkpt lat="45.83891" lon="-0.70193">
        <ele>13</ele>
        <time>2017-06-25T07:06:43Z</time>
      </trkpt>
      <trkpt lat="45.8389" lon="-0.70195">
        <ele>13</ele>
        <time>2017-06-25T07:06:44Z</time>
      </trkpt>
      <trkpt lat="45.83889" lon="-0.70196">
        <ele>13</ele>
        <time>2017-06-25T07:06:45Z</time>
      </trkpt>
      <trkpt lat="45.83888" lon="-0.70198">
        <ele>13</ele>
        <time>2017-06-25T07:06:46Z</time>
      </trkpt>
      <trkpt lat="45.83888" lon="-0.702">
        <ele>13</ele>
        <time>2017-06-25T07:06:47Z</time>
      </trkpt>
      <trkpt lat="45.83887" lon="-0.70201">
        <ele>13</ele>
        <time>2017-06-25T07:06:48Z</time>
      </trkpt>
      <trkpt lat="45.83887" lon="-0.70203">
        <ele>13</ele>
        <time>2017-06-25T07:06:49Z</time>
      </trkpt>
      <trkpt lat="45.83886" lon="-0.70206">
        <ele>13</ele>
        <time>2017-06-25T07:06:51Z</time>
      </trkpt>
      <trkpt lat="45.83886" lon="-0.70208">
        <ele>13</ele>
        <time>2017-06-25T07:06:52Z</time>
      </trkpt>
      <trkpt lat="45.83886" lon="-0.70209">
        <ele>13</ele>
        <time>2017-06-25T07:06:53Z</time>
      </trkpt>
      <trkpt lat="45.83884" lon="-0.7021">
        <ele>14</ele>
        <time>2017-06-25T07:06:54Z</time>
      </trkpt>
      <trkpt lat="45.83884" lon="-0.70213">
        <ele>14</ele>
        <time>2017-06-25T07:06:56Z</time>
      </trkpt>
      <trkpt lat="45.83883" lon="-0.70215">
        <ele>14</ele>
        <time>2017-06-25T07:06:57Z</time>
      </trkpt>
      <trkpt lat="45.83883" lon="-0.70217">
        <ele>14</ele>
        <time>2017-06-25T07:06:59Z</time>
      </trkpt>
      <trkpt lat="45.83883" lon="-0.70219">
        <ele>14</ele>
        <time>2017-06-25T07:07:00Z</time>
      </trkpt>
      <trkpt lat="45.83883" lon="-0.70221">
        <ele>14</ele>
        <time>2017-06-25T07:07:01Z</time>
      </trkpt>
      <trkpt lat="45.83882" lon="-0.70225">
        <ele>14</ele>
        <time>2017-06-25T07:07:03Z</time>
      </trkpt>
      <trkpt lat="45.83881" lon="-0.70227">
        <ele>14</ele>
        <time>2017-06-25T07:07:04Z</time>
      </trkpt>
      <trkpt lat="45.83881" lon="-0.70229">
        <ele>14</ele>
        <time>2017-06-25T07:07:05Z</time>
      </trkpt>
      <trkpt lat="45.83881" lon="-0.7023">
        <ele>14</ele>
        <time>2017-06-25T07:07:06Z</time>
      </trkpt>
      <trkpt lat="45.83881" lon="-0.70232">
        <ele>14</ele>
        <time>2017-06-25T07:07:07Z</time>
      </trkpt>
      <trkpt lat="45.83881" lon="-0.70234">
        <ele>14</ele>
        <time>2017-06-25T07:07:08Z</time>
      </trkpt>
      <trkpt lat="45.83881" lon="-0.70236">
        <ele>14</ele>
        <time>2017-06-25T07:07:09Z</time>
      </trkpt>
      <trkpt lat="45.83882" lon="-0.70238">
        <ele>13</ele>
        <time>2017-06-25T07:07:10Z</time>
      </trkpt>
      <trkpt lat="45.83882" lon="-0.7024">
        <ele>13</ele>
        <time>2017-06-25T07:07:11Z</time>
      </trkpt>
      <trkpt lat="45.83881" lon="-0.70241">
        <ele>13</ele>
        <time>2017-06-25T07:07:12Z</time>
      </trkpt>
      <trkpt lat="45.83881" lon="-0.70243">
        <ele>13</ele>
        <time>2017-06-25T07:07:13Z</time>
      </trkpt>
      <trkpt lat="45.83881" lon="-0.70244">
        <ele>14</ele>
        <time>2017-06-25T07:07:15Z</time>
      </trkpt>
      <trkpt lat="45.83881" lon="-0.70246">
        <ele>14</ele>
        <time>2017-06-25T07:07:16Z</time>
      </trkpt>
      <trkpt lat="45.8388" lon="-0.70247">
        <ele>14</ele>
        <time>2017-06-25T07:07:17Z</time>
      </trkpt>
      <trkpt lat="45.8388" lon="-0.70249">
        <ele>14</ele>
        <time>2017-06-25T07:07:18Z</time>
      </trkpt>
      <trkpt lat="45.8388" lon="-0.7025">
        <ele>14</ele>
        <time>2017-06-25T07:07:19Z</time>
      </trkpt>
      <trkpt lat="45.83879" lon="-0.70252">
        <ele>14</ele>
        <time>2017-06-25T07:07:20Z</time>
      </trkpt>
      <trkpt lat="45.83879" lon="-0.70253">
        <ele>14</ele>
        <time>2017-06-25T07:07:21Z</time>
      </trkpt>
      <trkpt lat="45.8388" lon="-0.70255">
        <ele>14</ele>
        <time>2017-06-25T07:07:23Z</time>
      </trkpt>
      <trkpt lat="45.8388" lon="-0.70257">
        <ele>14</ele>
        <time>2017-06-25T07:07:24Z</time>
      </trkpt>
      <trkpt lat="45.83881" lon="-0.70258">
        <ele>14</ele>
        <time>2017-06-25T07:07:25Z</time>
      </trkpt>
      <trkpt lat="45.8388" lon="-0.70261">
        <ele>14</ele>
        <time>2017-06-25T07:07:26Z</time>
      </trkpt>
      <trkpt lat="45.8388" lon="-0.70263">
        <ele>14</ele>
        <time>2017-06-25T07:07:27Z</time>
      </trkpt>
      <trkpt lat="45.8388" lon="-0.70267">
        <ele>14</ele>
        <time>2017-06-25T07:07:28Z</time>
      </trkpt>
      <trkpt lat="45.8388" lon="-0.70269">
        <ele>14</ele>
        <time>2017-06-25T07:07:29Z</time>
      </trkpt>
      <trkpt lat="45.8388" lon="-0.70271">
        <ele>14</ele>
        <time>2017-06-25T07:07:30Z</time>
      </trkpt>
      <trkpt lat="45.8388" lon="-0.70272">
        <ele>14</ele>
        <time>2017-06-25T07:07:31Z</time>
      </trkpt>
      <trkpt lat="45.8388" lon="-0.70275">
        <ele>14</ele>
        <time>2017-06-25T07:07:32Z</time>
      </trkpt>
      <trkpt lat="45.8388" lon="-0.70277">
        <ele>14</ele>
        <time>2017-06-25T07:07:33Z</time>
      </trkpt>
      <trkpt lat="45.83881" lon="-0.70278">
        <ele>14</ele>
        <time>2017-06-25T07:07:34Z</time>
      </trkpt>
      <trkpt lat="45.83881" lon="-0.7028">
        <ele>14</ele>
        <time>2017-06-25T07:07:35Z</time>
      </trkpt>
      <trkpt lat="45.83881" lon="-0.70282">
        <ele>14</ele>
        <time>2017-06-25T07:07:36Z</time>
      </trkpt>
      <trkpt lat="45.83882" lon="-0.70284">
        <ele>14</ele>
        <time>2017-06-25T07:07:37Z</time>
      </trkpt>
      <trkpt lat="45.83882" lon="-0.70286">
        <ele>14</ele>
        <time>2017-06-25T07:07:39Z</time>
      </trkpt>
      <trkpt lat="45.83883" lon="-0.70288">
        <ele>14</ele>
        <time>2017-06-25T07:07:40Z</time>
      </trkpt>
      <trkpt lat="45.83883" lon="-0.70291">
        <ele>14</ele>
        <time>2017-06-25T07:07:41Z</time>
      </trkpt>
      <trkpt lat="45.83883" lon="-0.70294">
        <ele>14</ele>
        <time>2017-06-25T07:07:42Z</time>
      </trkpt>
      <trkpt lat="45.83883" lon="-0.70296">
        <ele>14</ele>
        <time>2017-06-25T07:07:43Z</time>
      </trkpt>
      <trkpt lat="45.83883" lon="-0.70297">
        <ele>14</ele>
        <time>2017-06-25T07:07:44Z</time>
      </trkpt>
      <trkpt lat="45.83884" lon="-0.703">
        <ele>14</ele>
        <time>2017-06-25T07:07:45Z</time>
      </trkpt>
      <trkpt lat="45.83884" lon="-0.70302">
        <ele>14</ele>
        <time>2017-06-25T07:07:46Z</time>
      </trkpt>
      <trkpt lat="45.83884" lon="-0.70304">
        <ele>14</ele>
        <time>2017-06-25T07:07:47Z</time>
      </trkpt>
      <trkpt lat="45.83884" lon="-0.70305">
        <ele>14</ele>
        <time>2017-06-25T07:07:48Z</time>
      </trkpt>
      <trkpt lat="45.83886" lon="-0.70308">
        <ele>14</ele>
        <time>2017-06-25T07:07:49Z</time>
      </trkpt>
      <trkpt lat="45.83886" lon="-0.7031">
        <ele>14</ele>
        <time>2017-06-25T07:07:50Z</time>
      </trkpt>
      <trkpt lat="45.83886" lon="-0.70312">
        <ele>14</ele>
        <time>2017-06-25T07:07:51Z</time>
      </trkpt>
      <trkpt lat="45.83886" lon="-0.70313">
        <ele>14</ele>
        <time>2017-06-25T07:07:52Z</time>
      </trkpt>
      <trkpt lat="45.83887" lon="-0.70315">
        <ele>14</ele>
        <time>2017-06-25T07:07:53Z</time>
      </trkpt>
      <trkpt lat="45.83887" lon="-0.70317">
        <ele>13</ele>
        <time>2017-06-25T07:07:54Z</time>
      </trkpt>
      <trkpt lat="45.83888" lon="-0.7032">
        <ele>13</ele>
        <time>2017-06-25T07:07:56Z</time>
      </trkpt>
      <trkpt lat="45.83889" lon="-0.7032">
        <ele>13</ele>
        <time>2017-06-25T07:07:58Z</time>
      </trkpt>
      <trkpt lat="45.83889" lon="-0.70323">
        <ele>13</ele>
        <time>2017-06-25T07:08:00Z</time>
      </trkpt>
      <trkpt lat="45.83889" lon="-0.70324">
        <ele>13</ele>
        <time>2017-06-25T07:08:01Z</time>
      </trkpt>
      <trkpt lat="45.83888" lon="-0.70326">
        <ele>13</ele>
        <time>2017-06-25T07:08:02Z</time>
      </trkpt>
      <trkpt lat="45.83888" lon="-0.70329">
        <ele>13</ele>
        <time>2017-06-25T07:08:03Z</time>
      </trkpt>
      <trkpt lat="45.83888" lon="-0.70331">
        <ele>13</ele>
        <time>2017-06-25T07:08:04Z</time>
      </trkpt>
      <trkpt lat="45.83888" lon="-0.70334">
        <ele>13</ele>
        <time>2017-06-25T07:08:06Z</time>
      </trkpt>
      <trkpt lat="45.83888" lon="-0.70336">
        <ele>13</ele>
        <time>2017-06-25T07:08:07Z</time>
      </trkpt>
      <trkpt lat="45.83889" lon="-0.70339">
        <ele>13</ele>
        <time>2017-06-25T07:08:08Z</time>
      </trkpt>
      <trkpt lat="45.83889" lon="-0.70341">
        <ele>13</ele>
        <time>2017-06-25T07:08:09Z</time>
      </trkpt>
      <trkpt lat="45.83889" lon="-0.70344">
        <ele>13</ele>
        <time>2017-06-25T07:08:10Z</time>
      </trkpt>
      <trkpt lat="45.8389" lon="-0.70345">
        <ele>13</ele>
        <time>2017-06-25T07:08:11Z</time>
      </trkpt>
      <trkpt lat="45.8389" lon="-0.70346">
        <ele>13</ele>
        <time>2017-06-25T07:08:12Z</time>
      </trkpt>
      <trkpt lat="45.83891" lon="-0.70348">
        <ele>13</ele>
        <time>2017-06-25T07:08:13Z</time>
      </trkpt>
      <trkpt lat="45.8389" lon="-0.7035">
        <ele>13</ele>
        <time>2017-06-25T07:08:14Z</time>
      </trkpt>
      <trkpt lat="45.83889" lon="-0.70352">
        <ele>13</ele>
        <time>2017-06-25T07:08:18Z</time>
      </trkpt>
      <trkpt lat="45.83889" lon="-0.70354">
        <ele>13</ele>
        <time>2017-06-25T07:08:19Z</time>
      </trkpt>
      <trkpt lat="45.83888" lon="-0.70356">
        <ele>13</ele>
        <time>2017-06-25T07:08:22Z</time>
      </trkpt>
      <trkpt lat="45.83888" lon="-0.70358">
        <ele>13</ele>
        <time>2017-06-25T07:08:24Z</time>
      </trkpt>
      <trkpt lat="45.83887" lon="-0.70359">
        <ele>13</ele>
        <time>2017-06-25T07:08:25Z</time>
      </trkpt>
      <trkpt lat="45.83886" lon="-0.7036">
        <ele>13</ele>
        <time>2017-06-25T07:08:26Z</time>
      </trkpt>
      <trkpt lat="45.83884" lon="-0.70361">
        <ele>13</ele>
        <time>2017-06-25T07:08:27Z</time>
      </trkpt>
      <trkpt lat="45.83884" lon="-0.70362">
        <ele>13</ele>
        <time>2017-06-25T07:08:30Z</time>
      </trkpt>
      <trkpt lat="45.83883" lon="-0.70363">
        <ele>13</ele>
        <time>2017-06-25T07:08:32Z</time>
      </trkpt>
      <trkpt lat="45.8388" lon="-0.70364">
        <ele>13</ele>
        <time>2017-06-25T07:08:34Z</time>
      </trkpt>
      <trkpt lat="45.8388" lon="-0.70365">
        <ele>13</ele>
        <time>2017-06-25T07:08:35Z</time>
      </trkpt>
      <trkpt lat="45.83878" lon="-0.70366">
        <ele>13</ele>
        <time>2017-06-25T07:08:36Z</time>
      </trkpt>
      <trkpt lat="45.83876" lon="-0.70367">
        <ele>13</ele>
        <time>2017-06-25T07:08:37Z</time>
      </trkpt>
      <trkpt lat="45.83875" lon="-0.70367">
        <ele>13</ele>
        <time>2017-06-25T07:08:38Z</time>
      </trkpt>
      <trkpt lat="45.83874" lon="-0.70368">
        <ele>13</ele>
        <time>2017-06-25T07:08:40Z</time>
      </trkpt>
      <trkpt lat="45.83873" lon="-0.7037">
        <ele>13</ele>
        <time>2017-06-25T07:08:42Z</time>
      </trkpt>
      <trkpt lat="45.83871" lon="-0.70372">
        <ele>13</ele>
        <time>2017-06-25T07:08:45Z</time>
      </trkpt>
      <trkpt lat="45.83868" lon="-0.70375">
        <ele>13</ele>
        <time>2017-06-25T07:08:47Z</time>
      </trkpt>
      <trkpt lat="45.83867" lon="-0.70378">
        <ele>13</ele>
        <time>2017-06-25T07:08:49Z</time>
      </trkpt>
      <trkpt lat="45.83866" lon="-0.70381">
        <ele>13</ele>
        <time>2017-06-25T07:08:50Z</time>
      </trkpt>
      <trkpt lat="45.83866" lon="-0.70382">
        <ele>13</ele>
        <time>2017-06-25T07:08:51Z</time>
      </trkpt>
      <trkpt lat="45.83865" lon="-0.70383">
        <ele>13</ele>
        <time>2017-06-25T07:08:52Z</time>
      </trkpt>
      <trkpt lat="45.83864" lon="-0.70384">
        <ele>13</ele>
        <time>2017-06-25T07:08:53Z</time>
      </trkpt>
      <trkpt lat="45.83863" lon="-0.70384">
        <ele>13</ele>
        <time>2017-06-25T07:08:54Z</time>
      </trkpt>
      <trkpt lat="45.83862" lon="-0.70386">
        <ele>13</ele>
        <time>2017-06-25T07:08:55Z</time>
      </trkpt>
      <trkpt lat="45.8386" lon="-0.70386">
        <ele>13</ele>
        <time>2017-06-25T07:08:56Z</time>
      </trkpt>
      <trkpt lat="45.83859" lon="-0.70387">
        <ele>13</ele>
        <time>2017-06-25T07:08:56.999Z</time>
      </trkpt>
      <trkpt lat="45.83859" lon="-0.70389">
        <ele>13</ele>
        <time>2017-06-25T07:08:59.999Z</time>
      </trkpt>
      <trkpt lat="45.83858" lon="-0.70391">
        <ele>13</ele>
        <time>2017-06-25T07:09:00.999Z</time>
      </trkpt>
      <trkpt lat="45.83857" lon="-0.70393">
        <ele>13</ele>
        <time>2017-06-25T07:09:01.999Z</time>
      </trkpt>
      <trkpt lat="45.83856" lon="-0.70394">
        <ele>13</ele>
        <time>2017-06-25T07:09:02.999Z</time>
      </trkpt>
      <trkpt lat="45.83855" lon="-0.70396">
        <ele>13</ele>
        <time>2017-06-25T07:09:04.999Z</time>
      </trkpt>
      <trkpt lat="45.83854" lon="-0.70397">
        <ele>13</ele>
        <time>2017-06-25T07:09:06.999Z</time>
      </trkpt>
      <trkpt lat="45.83853" lon="-0.70399">
        <ele>13</ele>
        <time>2017-06-25T07:09:07.999Z</time>
      </trkpt>
      <trkpt lat="45.83852" lon="-0.70401">
        <ele>13</ele>
        <time>2017-06-25T07:09:08.999Z</time>
      </trkpt>
      <trkpt lat="45.83852" lon="-0.70401">
        <ele>13</ele>
        <time>2017-06-25T07:09:09.999Z</time>
      </trkpt>
      <trkpt lat="45.8385" lon="-0.70402">
        <ele>13</ele>
        <time>2017-06-25T07:09:10.999Z</time>
      </trkpt>
      <trkpt lat="45.83849" lon="-0.70403">
        <ele>13</ele>
        <time>2017-06-25T07:09:11.999Z</time>
      </trkpt>
      <trkpt lat="45.83848" lon="-0.70404">
        <ele>13</ele>
        <time>2017-06-25T07:09:13.999Z</time>
      </trkpt>
      <trkpt lat="45.83846" lon="-0.70405">
        <ele>13</ele>
        <time>2017-06-25T07:09:14.999Z</time>
      </trkpt>
      <trkpt lat="45.83846" lon="-0.70407">
        <ele>13</ele>
        <time>2017-06-25T07:09:16.999Z</time>
      </trkpt>
      <trkpt lat="45.83844" lon="-0.70408">
        <ele>13</ele>
        <time>2017-06-25T07:09:18.999Z</time>
      </trkpt>
      <trkpt lat="45.83841" lon="-0.7041">
        <ele>13</ele>
        <time>2017-06-25T07:09:19.999Z</time>
      </trkpt>
      <trkpt lat="45.8384" lon="-0.70411">
        <ele>12</ele>
        <time>2017-06-25T07:09:20.999Z</time>
      </trkpt>
      <trkpt lat="45.83839" lon="-0.70413">
        <ele>12</ele>
        <time>2017-06-25T07:09:22.999Z</time>
      </trkpt>
      <trkpt lat="45.83838" lon="-0.70415">
        <ele>12</ele>
        <time>2017-06-25T07:09:23.999Z</time>
      </trkpt>
      <trkpt lat="45.83836" lon="-0.70417">
        <ele>12</ele>
        <time>2017-06-25T07:09:24.999Z</time>
      </trkpt>
      <trkpt lat="45.83835" lon="-0.70418">
        <ele>12</ele>
        <time>2017-06-25T07:09:25.999Z</time>
      </trkpt>
      <trkpt lat="45.83834" lon="-0.70418">
        <ele>12</ele>
        <time>2017-06-25T07:09:26.999Z</time>
      </trkpt>
      <trkpt lat="45.83833" lon="-0.7042">
        <ele>12</ele>
        <time>2017-06-25T07:09:28.999Z</time>
      </trkpt>
      <trkpt lat="45.83832" lon="-0.70421">
        <ele>13</ele>
        <time>2017-06-25T07:09:29.999Z</time>
      </trkpt>
      <trkpt lat="45.83831" lon="-0.70422">
        <ele>13</ele>
        <time>2017-06-25T07:09:30.999Z</time>
      </trkpt>
      <trkpt lat="45.83829" lon="-0.70424">
        <ele>13</ele>
        <time>2017-06-25T07:09:31.999Z</time>
      </trkpt>
      <trkpt lat="45.83826" lon="-0.70425">
        <ele>13</ele>
        <time>2017-06-25T07:09:32.999Z</time>
      </trkpt>
      <trkpt lat="45.83825" lon="-0.70426">
        <ele>13</ele>
        <time>2017-06-25T07:09:33.999Z</time>
      </trkpt>
      <trkpt lat="45.83824" lon="-0.70428">
        <ele>14</ele>
        <time>2017-06-25T07:09:34.999Z</time>
      </trkpt>
      <trkpt lat="45.83823" lon="-0.70429">
        <ele>14</ele>
        <time>2017-06-25T07:09:35.999Z</time>
      </trkpt>
      <trkpt lat="45.83822" lon="-0.70432">
        <ele>14</ele>
        <time>2017-06-25T07:09:36.999Z</time>
      </trkpt>
      <trkpt lat="45.83821" lon="-0.70433">
        <ele>14</ele>
        <time>2017-06-25T07:09:38.999Z</time>
      </trkpt>
      <trkpt lat="45.8382" lon="-0.70435">
        <ele>14</ele>
        <time>2017-06-25T07:09:39.999Z</time>
      </trkpt>
      <trkpt lat="45.83819" lon="-0.70436">
        <ele>14</ele>
        <time>2017-06-25T07:09:40.999Z</time>
      </trkpt>
      <trkpt lat="45.83817" lon="-0.70438">
        <ele>14</ele>
        <time>2017-06-25T07:09:41.999Z</time>
      </trkpt>
      <trkpt lat="45.83816" lon="-0.7044">
        <ele>14</ele>
        <time>2017-06-25T07:09:42.999Z</time>
      </trkpt>
      <trkpt lat="45.83814" lon="-0.70443">
        <ele>15</ele>
        <time>2017-06-25T07:09:43.999Z</time>
      </trkpt>
      <trkpt lat="45.83812" lon="-0.70444">
        <ele>15</ele>
        <time>2017-06-25T07:09:45.999Z</time>
      </trkpt>
      <trkpt lat="45.83812" lon="-0.70445">
        <ele>15</ele>
        <time>2017-06-25T07:09:46.999Z</time>
      </trkpt>
      <trkpt lat="45.8381" lon="-0.70446">
        <ele>15</ele>
        <time>2017-06-25T07:09:48.999Z</time>
      </trkpt>
      <trkpt lat="45.83809" lon="-0.70447">
        <ele>15</ele>
        <time>2017-06-25T07:09:50.999Z</time>
      </trkpt>
      <trkpt lat="45.83807" lon="-0.70448">
        <ele>15</ele>
        <time>2017-06-25T07:09:51.999Z</time>
      </trkpt>
      <trkpt lat="45.83807" lon="-0.70449">
        <ele>15</ele>
        <time>2017-06-25T07:09:52.999Z</time>
      </trkpt>
      <trkpt lat="45.83805" lon="-0.70451">
        <ele>15</ele>
        <time>2017-06-25T07:09:54.999Z</time>
      </trkpt>
      <trkpt lat="45.83805" lon="-0.70452">
        <ele>15</ele>
        <time>2017-06-25T07:09:55.999Z</time>
      </trkpt>
      <trkpt lat="45.83804" lon="-0.70451">
        <ele>15</ele>
        <time>2017-06-25T07:09:57.999Z</time>
      </trkpt>
      <trkpt lat="45.83803" lon="-0.70454">
        <ele>15</ele>
        <time>2017-06-25T07:10:00.999Z</time>
      </trkpt>
      <trkpt lat="45.83802" lon="-0.70456">
        <ele>15</ele>
        <time>2017-06-25T07:10:02.999Z</time>
      </trkpt>
      <trkpt lat="45.83802" lon="-0.70458">
        <ele>15</ele>
        <time>2017-06-25T07:10:03.999Z</time>
      </trkpt>
      <trkpt lat="45.83801" lon="-0.70459">
        <ele>15</ele>
        <time>2017-06-25T07:10:04.999Z</time>
      </trkpt>
      <trkpt lat="45.838" lon="-0.7046">
        <ele>15</ele>
        <time>2017-06-25T07:10:05.999Z</time>
      </trkpt>
      <trkpt lat="45.83798" lon="-0.70462">
        <ele>15</ele>
        <time>2017-06-25T07:10:06.999Z</time>
      </trkpt>
      <trkpt lat="45.83796" lon="-0.70463">
        <ele>15</ele>
        <time>2017-06-25T07:10:07.999Z</time>
      </trkpt>
      <trkpt lat="45.83796" lon="-0.70464">
        <ele>15</ele>
        <time>2017-06-25T07:10:08.999Z</time>
      </trkpt>
      <trkpt lat="45.83794" lon="-0.70465">
        <ele>15</ele>
        <time>2017-06-25T07:10:09.999Z</time>
      </trkpt>
      <trkpt lat="45.83794" lon="-0.70466">
        <ele>15</ele>
        <time>2017-06-25T07:10:10.999Z</time>
      </trkpt>
      <trkpt lat="45.83793" lon="-0.70468">
        <ele>15</ele>
        <time>2017-06-25T07:10:11.999Z</time>
      </trkpt>
      <trkpt lat="45.83791" lon="-0.70471">
        <ele>16</ele>
        <time>2017-06-25T07:10:12.999Z</time>
      </trkpt>
      <trkpt lat="45.83791" lon="-0.70473">
        <ele>16</ele>
        <time>2017-06-25T07:10:13.999Z</time>
      </trkpt>
      <trkpt lat="45.8379" lon="-0.70475">
        <ele>16</ele>
        <time>2017-06-25T07:10:14.999Z</time>
      </trkpt>
      <trkpt lat="45.83789" lon="-0.70476">
        <ele>16</ele>
        <time>2017-06-25T07:10:15.999Z</time>
      </trkpt>
      <trkpt lat="45.83788" lon="-0.70478">
        <ele>16</ele>
        <time>2017-06-25T07:10:16.999Z</time>
      </trkpt>
      <trkpt lat="45.83787" lon="-0.7048">
        <ele>16</ele>
        <time>2017-06-25T07:10:17.999Z</time>
      </trkpt>
      <trkpt lat="45.83786" lon="-0.7048">
        <ele>16</ele>
        <time>2017-06-25T07:10:18.999Z</time>
      </trkpt>
      <trkpt lat="45.83786" lon="-0.70482">
        <ele>16</ele>
        <time>2017-06-25T07:10:19.999Z</time>
      </trkpt>
      <trkpt lat="45.83785" lon="-0.70484">
        <ele>16</ele>
        <time>2017-06-25T07:10:20.999Z</time>
      </trkpt>
      <trkpt lat="45.83785" lon="-0.70486">
        <ele>16</ele>
        <time>2017-06-25T07:10:21.999Z</time>
      </trkpt>
      <trkpt lat="45.83785" lon="-0.70488">
        <ele>16</ele>
        <time>2017-06-25T07:10:22.999Z</time>
      </trkpt>
      <trkpt lat="45.83784" lon="-0.70489">
        <ele>16</ele>
        <time>2017-06-25T07:10:24.999Z</time>
      </trkpt>
      <trkpt lat="45.83784" lon="-0.70491">
        <ele>16</ele>
        <time>2017-06-25T07:10:25.999Z</time>
      </trkpt>
      <trkpt lat="45.83783" lon="-0.70494">
        <ele>16</ele>
        <time>2017-06-25T07:10:26.999Z</time>
      </trkpt>
      <trkpt lat="45.83783" lon="-0.70496">
        <ele>16</ele>
        <time>2017-06-25T07:10:27.999Z</time>
      </trkpt>
      <trkpt lat="45.83782" lon="-0.70498">
        <ele>16</ele>
        <time>2017-06-25T07:10:28.999Z</time>
      </trkpt>
      <trkpt lat="45.83781" lon="-0.705">
        <ele>16</ele>
        <time>2017-06-25T07:10:29.999Z</time>
      </trkpt>
      <trkpt lat="45.8378" lon="-0.70502">
        <ele>16</ele>
        <time>2017-06-25T07:10:30.999Z</time>
      </trkpt>
      <trkpt lat="45.8378" lon="-0.70506">
        <ele>16</ele>
        <time>2017-06-25T07:10:31.999Z</time>
      </trkpt>
      <trkpt lat="45.8378" lon="-0.70508">
        <ele>16</ele>
        <time>2017-06-25T07:10:32.999Z</time>
      </trkpt>
      <trkpt lat="45.8378" lon="-0.7051">
        <ele>16</ele>
        <time>2017-06-25T07:10:33.999Z</time>
      </trkpt>
      <trkpt lat="45.83779" lon="-0.70513">
        <ele>16</ele>
        <time>2017-06-25T07:10:34.999Z</time>
      </trkpt>
      <trkpt lat="45.83778" lon="-0.70514">
        <ele>16</ele>
        <time>2017-06-25T07:10:36.999Z</time>
      </trkpt>
      <trkpt lat="45.83778" lon="-0.70517">
        <ele>16</ele>
        <time>2017-06-25T07:10:37.999Z</time>
      </trkpt>
      <trkpt lat="45.83778" lon="-0.70518">
        <ele>16</ele>
        <time>2017-06-25T07:10:38.999Z</time>
      </trkpt>
      <trkpt lat="45.83777" lon="-0.70522">
        <ele>16</ele>
        <time>2017-06-25T07:10:40.999Z</time>
      </trkpt>
      <trkpt lat="45.83777" lon="-0.70525">
        <ele>16</ele>
        <time>2017-06-25T07:10:41.999Z</time>
      </trkpt>
      <trkpt lat="45.83777" lon="-0.70527">
        <ele>16</ele>
        <time>2017-06-25T07:10:42.999Z</time>
      </trkpt>
      <trkpt lat="45.83777" lon="-0.70529">
        <ele>16</ele>
        <time>2017-06-25T07:10:43.999Z</time>
      </trkpt>
      <trkpt lat="45.83776" lon="-0.70531">
        <ele>16</ele>
        <time>2017-06-25T07:10:44.999Z</time>
      </trkpt>
      <trkpt lat="45.83776" lon="-0.70534">
        <ele>16</ele>
        <time>2017-06-25T07:10:46.999Z</time>
      </trkpt>
      <trkpt lat="45.83775" lon="-0.70536">
        <ele>16</ele>
        <time>2017-06-25T07:10:47.999Z</time>
      </trkpt>
      <trkpt lat="45.83775" lon="-0.70537">
        <ele>16</ele>
        <time>2017-06-25T07:10:49.999Z</time>
      </trkpt>
      <trkpt lat="45.83774" lon="-0.7054">
        <ele>16</ele>
        <time>2017-06-25T07:10:51.999Z</time>
      </trkpt>
      <trkpt lat="45.83773" lon="-0.70542">
        <ele>16</ele>
        <time>2017-06-25T07:10:52.999Z</time>
      </trkpt>
      <trkpt lat="45.83772" lon="-0.70544">
        <ele>16</ele>
        <time>2017-06-25T07:10:53.999Z</time>
      </trkpt>
      <trkpt lat="45.83772" lon="-0.70545">
        <ele>16</ele>
        <time>2017-06-25T07:10:54.999Z</time>
      </trkpt>
      <trkpt lat="45.83771" lon="-0.70547">
        <ele>16</ele>
        <time>2017-06-25T07:10:55.999Z</time>
      </trkpt>
      <trkpt lat="45.8377" lon="-0.70549">
        <ele>16</ele>
        <time>2017-06-25T07:10:56.999Z</time>
      </trkpt>
      <trkpt lat="45.83769" lon="-0.7055">
        <ele>16</ele>
        <time>2017-06-25T07:10:57.999Z</time>
      </trkpt>
      <trkpt lat="45.83768" lon="-0.70552">
        <ele>16</ele>
        <time>2017-06-25T07:10:58.999Z</time>
      </trkpt>
      <trkpt lat="45.83768" lon="-0.70554">
        <ele>16</ele>
        <time>2017-06-25T07:10:59.999Z</time>
      </trkpt>
      <trkpt lat="45.83767" lon="-0.70556">
        <ele>16</ele>
        <time>2017-06-25T07:11:00.999Z</time>
      </trkpt>
      <trkpt lat="45.83767" lon="-0.70558">
        <ele>16</ele>
        <time>2017-06-25T07:11:01.999Z</time>
      </trkpt>
      <trkpt lat="45.83766" lon="-0.70559">
        <ele>16</ele>
        <time>2017-06-25T07:11:02.999Z</time>
      </trkpt>
      <trkpt lat="45.83765" lon="-0.70561">
        <ele>16</ele>
        <time>2017-06-25T07:11:03.999Z</time>
      </trkpt>
      <trkpt lat="45.83764" lon="-0.70563">
        <ele>16</ele>
        <time>2017-06-25T07:11:04.999Z</time>
      </trkpt>
      <trkpt lat="45.83764" lon="-0.70565">
        <ele>16</ele>
        <time>2017-06-25T07:11:05.999Z</time>
      </trkpt>
      <trkpt lat="45.83764" lon="-0.70566">
        <ele>16</ele>
        <time>2017-06-25T07:11:06.999Z</time>
      </trkpt>
      <trkpt lat="45.83763" lon="-0.70567">
        <ele>16</ele>
        <time>2017-06-25T07:11:07.999Z</time>
      </trkpt>
      <trkpt lat="45.83762" lon="-0.70568">
        <ele>16</ele>
        <time>2017-06-25T07:11:08.999Z</time>
      </trkpt>
      <trkpt lat="45.83761" lon="-0.7057">
        <ele>16</ele>
        <time>2017-06-25T07:11:09.999Z</time>
      </trkpt>
      <trkpt lat="45.8376" lon="-0.70571">
        <ele>16</ele>
        <time>2017-06-25T07:11:10.999Z</time>
      </trkpt>
      <trkpt lat="45.83759" lon="-0.70572">
        <ele>16</ele>
        <time>2017-06-25T07:11:11.999Z</time>
      </trkpt>
      <trkpt lat="45.83758" lon="-0.70573">
        <ele>16</ele>
        <time>2017-06-25T07:11:12.999Z</time>
      </trkpt>
      <trkpt lat="45.83757" lon="-0.70574">
        <ele>16</ele>
        <time>2017-06-25T07:11:13.999Z</time>
      </trkpt>
      <trkpt lat="45.83756" lon="-0.70575">
        <ele>16</ele>
        <time>2017-06-25T07:11:14.999Z</time>
      </trkpt>
      <trkpt lat="45.83756" lon="-0.70576">
        <ele>16</ele>
        <time>2017-06-25T07:11:15.999Z</time>
      </trkpt>
      <trkpt lat="45.83755" lon="-0.70578">
        <ele>16</ele>
        <time>2017-06-25T07:11:16.999Z</time>
      </trkpt>
      <trkpt lat="45.83754" lon="-0.70579">
        <ele>16</ele>
        <time>2017-06-25T07:11:17.999Z</time>
      </trkpt>
      <trkpt lat="45.83753" lon="-0.70581">
        <ele>16</ele>
        <time>2017-06-25T07:11:19.999Z</time>
      </trkpt>
      <trkpt lat="45.83752" lon="-0.70583">
        <ele>16</ele>
        <time>2017-06-25T07:11:21.999Z</time>
      </trkpt>
      <trkpt lat="45.83752" lon="-0.70586">
        <ele>16</ele>
        <time>2017-06-25T07:11:23.999Z</time>
      </trkpt>
      <trkpt lat="45.83752" lon="-0.70588">
        <ele>16</ele>
        <time>2017-06-25T07:11:24.999Z</time>
      </trkpt>
      <trkpt lat="45.83753" lon="-0.7059">
        <ele>16</ele>
        <time>2017-06-25T07:11:27.999Z</time>
      </trkpt>
      <trkpt lat="45.83753" lon="-0.70591">
        <ele>16</ele>
        <time>2017-06-25T07:11:30.999Z</time>
      </trkpt>
      <trkpt lat="45.83752" lon="-0.70592">
        <ele>16</ele>
        <time>2017-06-25T07:11:31.999Z</time>
      </trkpt>
      <trkpt lat="45.83751" lon="-0.70595">
        <ele>16</ele>
        <time>2017-06-25T07:11:33.999Z</time>
      </trkpt>
      <trkpt lat="45.83751" lon="-0.70597">
        <ele>16</ele>
        <time>2017-06-25T07:11:34.999Z</time>
      </trkpt>
      <trkpt lat="45.83751" lon="-0.70599">
        <ele>16</ele>
        <time>2017-06-25T07:11:35.999Z</time>
      </trkpt>
      <trkpt lat="45.8375" lon="-0.706">
        <ele>17</ele>
        <time>2017-06-25T07:11:36.999Z</time>
      </trkpt>
      <trkpt lat="45.83749" lon="-0.70601">
        <ele>17</ele>
        <time>2017-06-25T07:11:38.999Z</time>
      </trkpt>
      <trkpt lat="45.83749" lon="-0.70603">
        <ele>17</ele>
        <time>2017-06-25T07:11:40.999Z</time>
      </trkpt>
      <trkpt lat="45.83749" lon="-0.70605">
        <ele>17</ele>
        <time>2017-06-25T07:11:42.999Z</time>
      </trkpt>
      <trkpt lat="45.83748" lon="-0.70607">
        <ele>17</ele>
        <time>2017-06-25T07:11:43.999Z</time>
      </trkpt>
      <trkpt lat="45.83748" lon="-0.70608">
        <ele>17</ele>
        <time>2017-06-25T07:11:45.999Z</time>
      </trkpt>
      <trkpt lat="45.83748" lon="-0.70609">
        <ele>17</ele>
        <time>2017-06-25T07:11:46.999Z</time>
      </trkpt>
      <trkpt lat="45.83747" lon="-0.70611">
        <ele>17</ele>
        <time>2017-06-25T07:11:47.999Z</time>
      </trkpt>
      <trkpt lat="45.83748" lon="-0.70613">
        <ele>17</ele>
        <time>2017-06-25T07:11:48.999Z</time>
      </trkpt>
      <trkpt lat="45.83749" lon="-0.70616">
        <ele>17</ele>
        <time>2017-06-25T07:11:49.999Z</time>
      </trkpt>
      <trkpt lat="45.83749" lon="-0.70618">
        <ele>18</ele>
        <time>2017-06-25T07:11:51.999Z</time>
      </trkpt>
      <trkpt lat="45.83749" lon="-0.70619">
        <ele>18</ele>
        <time>2017-06-25T07:11:52.999Z</time>
      </trkpt>
      <trkpt lat="45.83751" lon="-0.7062">
        <ele>16</ele>
        <time>2017-06-25T07:11:54.999Z</time>
      </trkpt>
      <trkpt lat="45.83751" lon="-0.70621">
        <ele>16</ele>
        <time>2017-06-25T07:11:55.999Z</time>
      </trkpt>
      <trkpt lat="45.83752" lon="-0.70623">
        <ele>16</ele>
        <time>2017-06-25T07:11:56.999Z</time>
      </trkpt>
      <trkpt lat="45.83753" lon="-0.70624">
        <ele>16</ele>
        <time>2017-06-25T07:11:58.999Z</time>
      </trkpt>
      <trkpt lat="45.83754" lon="-0.70626">
        <ele>17</ele>
        <time>2017-06-25T07:11:59.999Z</time>
      </trkpt>
      <trkpt lat="45.83755" lon="-0.70628">
        <ele>17</ele>
        <time>2017-06-25T07:12:00.999Z</time>
      </trkpt>
      <trkpt lat="45.83755" lon="-0.7063">
        <ele>17</ele>
        <time>2017-06-25T07:12:01.999Z</time>
      </trkpt>
      <trkpt lat="45.83756" lon="-0.70631">
        <ele>17</ele>
        <time>2017-06-25T07:12:02.999Z</time>
      </trkpt>
      <trkpt lat="45.83757" lon="-0.70633">
        <ele>17</ele>
        <time>2017-06-25T07:12:03.999Z</time>
      </trkpt>
      <trkpt lat="45.83757" lon="-0.70635">
        <ele>17</ele>
        <time>2017-06-25T07:12:04.999Z</time>
      </trkpt>
      <trkpt lat="45.83759" lon="-0.70636">
        <ele>17</ele>
        <time>2017-06-25T07:12:05.999Z</time>
      </trkpt>
      <trkpt lat="45.83759" lon="-0.70637">
        <ele>17</ele>
        <time>2017-06-25T07:12:06.999Z</time>
      </trkpt>
      <trkpt lat="45.83761" lon="-0.70639">
        <ele>17</ele>
        <time>2017-06-25T07:12:07.999Z</time>
      </trkpt>
      <trkpt lat="45.83761" lon="-0.7064">
        <ele>17</ele>
        <time>2017-06-25T07:12:08.999Z</time>
      </trkpt>
      <trkpt lat="45.83762" lon="-0.70641">
        <ele>17</ele>
        <time>2017-06-25T07:12:09.999Z</time>
      </trkpt>
      <trkpt lat="45.83762" lon="-0.70643">
        <ele>17</ele>
        <time>2017-06-25T07:12:10.999Z</time>
      </trkpt>
      <trkpt lat="45.83764" lon="-0.70644">
        <ele>17</ele>
        <time>2017-06-25T07:12:11.999Z</time>
      </trkpt>
      <trkpt lat="45.83764" lon="-0.70645">
        <ele>17</ele>
        <time>2017-06-25T07:12:12.999Z</time>
      </trkpt>
      <trkpt lat="45.83765" lon="-0.70646">
        <ele>17</ele>
        <time>2017-06-25T07:12:13.999Z</time>
      </trkpt>
      <trkpt lat="45.83766" lon="-0.70646">
        <ele>17</ele>
        <time>2017-06-25T07:12:14.999Z</time>
      </trkpt>
      <trkpt lat="45.83767" lon="-0.70647">
        <ele>17</ele>
        <time>2017-06-25T07:12:15.999Z</time>
      </trkpt>
      <trkpt lat="45.83769" lon="-0.70648">
        <ele>17</ele>
        <time>2017-06-25T07:12:16.999Z</time>
      </trkpt>
      <trkpt lat="45.8377" lon="-0.7065">
        <ele>17</ele>
        <time>2017-06-25T07:12:17.999Z</time>
      </trkpt>
      <trkpt lat="45.83771" lon="-0.7065">
        <ele>17</ele>
        <time>2017-06-25T07:12:18.999Z</time>
      </trkpt>
      <trkpt lat="45.83772" lon="-0.70652">
        <ele>17</ele>
        <time>2017-06-25T07:12:20.999Z</time>
      </trkpt>
      <trkpt lat="45.83773" lon="-0.70654">
        <ele>17</ele>
        <time>2017-06-25T07:12:22.999Z</time>
      </trkpt>
      <trkpt lat="45.83774" lon="-0.70655">
        <ele>17</ele>
        <time>2017-06-25T07:12:23.999Z</time>
      </trkpt>
      <trkpt lat="45.83775" lon="-0.70655">
        <ele>17</ele>
        <time>2017-06-25T07:12:24.999Z</time>
      </trkpt>
      <trkpt lat="45.83776" lon="-0.70656">
        <ele>17</ele>
        <time>2017-06-25T07:12:25.999Z</time>
      </trkpt>
      <trkpt lat="45.83777" lon="-0.70658">
        <ele>17</ele>
        <time>2017-06-25T07:12:26.999Z</time>
      </trkpt>
      <trkpt lat="45.83778" lon="-0.70659">
        <ele>17</ele>
        <time>2017-06-25T07:12:27.999Z</time>
      </trkpt>
      <trkpt lat="45.83779" lon="-0.7066">
        <ele>17</ele>
        <time>2017-06-25T07:12:28.999Z</time>
      </trkpt>
      <trkpt lat="45.8378" lon="-0.70662">
        <ele>17</ele>
        <time>2017-06-25T07:12:29.999Z</time>
      </trkpt>
      <trkpt lat="45.83781" lon="-0.70663">
        <ele>17</ele>
        <time>2017-06-25T07:12:30.999Z</time>
      </trkpt>
      <trkpt lat="45.83781" lon="-0.70664">
        <ele>17</ele>
        <time>2017-06-25T07:12:31.999Z</time>
      </trkpt>
      <trkpt lat="45.83783" lon="-0.70665">
        <ele>17</ele>
        <time>2017-06-25T07:12:32.999Z</time>
      </trkpt>
      <trkpt lat="45.83783" lon="-0.70666">
        <ele>17</ele>
        <time>2017-06-25T07:12:33.999Z</time>
      </trkpt>
      <trkpt lat="45.83784" lon="-0.70668">
        <ele>18</ele>
        <time>2017-06-25T07:12:34.999Z</time>
      </trkpt>
      <trkpt lat="45.83786" lon="-0.70669">
        <ele>18</ele>
        <time>2017-06-25T07:12:35.999Z</time>
      </trkpt>
      <trkpt lat="45.83786" lon="-0.7067">
        <ele>18</ele>
        <time>2017-06-25T07:12:36.999Z</time>
      </trkpt>
      <trkpt lat="45.83788" lon="-0.70671">
        <ele>18</ele>
        <time>2017-06-25T07:12:37.999Z</time>
      </trkpt>
      <trkpt lat="45.83789" lon="-0.70673">
        <ele>18</ele>
        <time>2017-06-25T07:12:39.999Z</time>
      </trkpt>
      <trkpt lat="45.8379" lon="-0.70674">
        <ele>18</ele>
        <time>2017-06-25T07:12:40.999Z</time>
      </trkpt>
      <trkpt lat="45.83791" lon="-0.70675">
        <ele>18</ele>
        <time>2017-06-25T07:12:41.999Z</time>
      </trkpt>
      <trkpt lat="45.83792" lon="-0.70676">
        <ele>18</ele>
        <time>2017-06-25T07:12:42.999Z</time>
      </trkpt>
      <trkpt lat="45.83793" lon="-0.70677">
        <ele>18</ele>
        <time>2017-06-25T07:12:43.999Z</time>
      </trkpt>
      <trkpt lat="45.83794" lon="-0.70678">
        <ele>18</ele>
        <time>2017-06-25T07:12:44.999Z</time>
      </trkpt>
      <trkpt lat="45.83795" lon="-0.7068">
        <ele>18</ele>
        <time>2017-06-25T07:12:46.999Z</time>
      </trkpt>
      <trkpt lat="45.83796" lon="-0.70682">
        <ele>18</ele>
        <time>2017-06-25T07:12:47.999Z</time>
      </trkpt>
      <trkpt lat="45.83797" lon="-0.70683">
        <ele>18</ele>
        <time>2017-06-25T07:12:48.999Z</time>
      </trkpt>
      <trkpt lat="45.83798" lon="-0.70685">
        <ele>18</ele>
        <time>2017-06-25T07:12:49.999Z</time>
      </trkpt>
      <trkpt lat="45.83798" lon="-0.70686">
        <ele>18</ele>
        <time>2017-06-25T07:12:50.999Z</time>
      </trkpt>
      <trkpt lat="45.83799" lon="-0.70687">
        <ele>18</ele>
        <time>2017-06-25T07:12:51.999Z</time>
      </trkpt>
      <trkpt lat="45.83799" lon="-0.70688">
        <ele>18</ele>
        <time>2017-06-25T07:12:52.999Z</time>
      </trkpt>
      <trkpt lat="45.83801" lon="-0.7069">
        <ele>18</ele>
        <time>2017-06-25T07:12:53.999Z</time>
      </trkpt>
      <trkpt lat="45.83801" lon="-0.70691">
        <ele>18</ele>
        <time>2017-06-25T07:12:54.999Z</time>
      </trkpt>
      <trkpt lat="45.83802" lon="-0.70692">
        <ele>18</ele>
        <time>2017-06-25T07:12:55.999Z</time>
      </trkpt>
      <trkpt lat="45.83803" lon="-0.70693">
        <ele>18</ele>
        <time>2017-06-25T07:12:56.999Z</time>
      </trkpt>
      <trkpt lat="45.83804" lon="-0.70694">
        <ele>18</ele>
        <time>2017-06-25T07:12:57.999Z</time>
      </trkpt>
      <trkpt lat="45.83805" lon="-0.70695">
        <ele>19</ele>
        <time>2017-06-25T07:12:59.999Z</time>
      </trkpt>
      <trkpt lat="45.83806" lon="-0.70695">
        <ele>19</ele>
        <time>2017-06-25T07:13:00.999Z</time>
      </trkpt>
      <trkpt lat="45.83807" lon="-0.70696">
        <ele>19</ele>
        <time>2017-06-25T07:13:01.999Z</time>
      </trkpt>
      <trkpt lat="45.83809" lon="-0.70696">
        <ele>19</ele>
        <time>2017-06-25T07:13:02.999Z</time>
      </trkpt>
      <trkpt lat="45.8381" lon="-0.70696">
        <ele>19</ele>
        <time>2017-06-25T07:13:04.999Z</time>
      </trkpt>
      <trkpt lat="45.83811" lon="-0.70696">
        <ele>19</ele>
        <time>2017-06-25T07:13:05.999Z</time>
      </trkpt>
      <trkpt lat="45.83812" lon="-0.70696">
        <ele>19</ele>
        <time>2017-06-25T07:13:06.999Z</time>
      </trkpt>
      <trkpt lat="45.83813" lon="-0.70696">
        <ele>19</ele>
        <time>2017-06-25T07:13:07.999Z</time>
      </trkpt>
      <trkpt lat="45.83814" lon="-0.70697">
        <ele>19</ele>
        <time>2017-06-25T07:13:09.999Z</time>
      </trkpt>
      <trkpt lat="45.83815" lon="-0.70697">
        <ele>19</ele>
        <time>2017-06-25T07:13:10.999Z</time>
      </trkpt>
      <trkpt lat="45.83816" lon="-0.70698">
        <ele>19</ele>
        <time>2017-06-25T07:13:11.999Z</time>
      </trkpt>
      <trkpt lat="45.83818" lon="-0.70699">
        <ele>19</ele>
        <time>2017-06-25T07:13:12.999Z</time>
      </trkpt>
      <trkpt lat="45.83819" lon="-0.70701">
        <ele>19</ele>
        <time>2017-06-25T07:13:13.999Z</time>
      </trkpt>
      <trkpt lat="45.83821" lon="-0.70702">
        <ele>19</ele>
        <time>2017-06-25T07:13:14.999Z</time>
      </trkpt>
      <trkpt lat="45.83823" lon="-0.70702">
        <ele>19</ele>
        <time>2017-06-25T07:13:15.999Z</time>
      </trkpt>
      <trkpt lat="45.83824" lon="-0.70703">
        <ele>19</ele>
        <time>2017-06-25T07:13:16.999Z</time>
      </trkpt>
      <trkpt lat="45.83825" lon="-0.70705">
        <ele>19</ele>
        <time>2017-06-25T07:13:17.999Z</time>
      </trkpt>
      <trkpt lat="45.83826" lon="-0.70706">
        <ele>19</ele>
        <time>2017-06-25T07:13:18.999Z</time>
      </trkpt>
      <trkpt lat="45.83828" lon="-0.70708">
        <ele>19</ele>
        <time>2017-06-25T07:13:19.999Z</time>
      </trkpt>
      <trkpt lat="45.83829" lon="-0.7071">
        <ele>19</ele>
        <time>2017-06-25T07:13:20.999Z</time>
      </trkpt>
      <trkpt lat="45.83831" lon="-0.7071">
        <ele>19</ele>
        <time>2017-06-25T07:13:21.999Z</time>
      </trkpt>
      <trkpt lat="45.83833" lon="-0.70709">
        <ele>19</ele>
        <time>2017-06-25T07:13:22.999Z</time>
      </trkpt>
      <trkpt lat="45.83833" lon="-0.70709">
        <ele>19</ele>
        <time>2017-06-25T07:13:23.999Z</time>
      </trkpt>
      <trkpt lat="45.83835" lon="-0.70709">
        <ele>20</ele>
        <time>2017-06-25T07:13:24.999Z</time>
      </trkpt>
      <trkpt lat="45.83837" lon="-0.7071">
        <ele>20</ele>
        <time>2017-06-25T07:13:25.999Z</time>
      </trkpt>
      <trkpt lat="45.83839" lon="-0.70709">
        <ele>20</ele>
        <time>2017-06-25T07:13:26.999Z</time>
      </trkpt>
      <trkpt lat="45.83839" lon="-0.7071">
        <ele>20</ele>
        <time>2017-06-25T07:13:27.999Z</time>
      </trkpt>
      <trkpt lat="45.8384" lon="-0.70712">
        <ele>20</ele>
        <time>2017-06-25T07:13:30.999Z</time>
      </trkpt>
      <trkpt lat="45.83841" lon="-0.70714">
        <ele>20</ele>
        <time>2017-06-25T07:13:33.999Z</time>
      </trkpt>
      <trkpt lat="45.83842" lon="-0.70716">
        <ele>20</ele>
        <time>2017-06-25T07:13:35.999Z</time>
      </trkpt>
      <trkpt lat="45.83843" lon="-0.70718">
        <ele>20</ele>
        <time>2017-06-25T07:13:36.999Z</time>
      </trkpt>
      <trkpt lat="45.83844" lon="-0.70719">
        <ele>20</ele>
        <time>2017-06-25T07:13:37.999Z</time>
      </trkpt>
      <trkpt lat="45.83845" lon="-0.70721">
        <ele>20</ele>
        <time>2017-06-25T07:13:38.999Z</time>
      </trkpt>
      <trkpt lat="45.83847" lon="-0.70723">
        <ele>20</ele>
        <time>2017-06-25T07:13:39.999Z</time>
      </trkpt>
      <trkpt lat="45.83848" lon="-0.70724">
        <ele>20</ele>
        <time>2017-06-25T07:13:40.999Z</time>
      </trkpt>
      <trkpt lat="45.83849" lon="-0.70725">
        <ele>20</ele>
        <time>2017-06-25T07:13:41.999Z</time>
      </trkpt>
      <trkpt lat="45.8385" lon="-0.70726">
        <ele>20</ele>
        <time>2017-06-25T07:13:42.999Z</time>
      </trkpt>
      <trkpt lat="45.83851" lon="-0.70727">
        <ele>21</ele>
        <time>2017-06-25T07:13:43.999Z</time>
      </trkpt>
      <trkpt lat="45.83852" lon="-0.70728">
        <ele>21</ele>
        <time>2017-06-25T07:13:44.999Z</time>
      </trkpt>
      <trkpt lat="45.83853" lon="-0.70729">
        <ele>21</ele>
        <time>2017-06-25T07:13:45.999Z</time>
      </trkpt>
      <trkpt lat="45.83854" lon="-0.70731">
        <ele>21</ele>
        <time>2017-06-25T07:13:46.999Z</time>
      </trkpt>
      <trkpt lat="45.83856" lon="-0.70733">
        <ele>21</ele>
        <time>2017-06-25T07:13:47.999Z</time>
      </trkpt>
      <trkpt lat="45.83858" lon="-0.70735">
        <ele>21</ele>
        <time>2017-06-25T07:13:48.999Z</time>
      </trkpt>
      <trkpt lat="45.83859" lon="-0.70736">
        <ele>21</ele>
        <time>2017-06-25T07:13:49.999Z</time>
      </trkpt>
      <trkpt lat="45.8386" lon="-0.70738">
        <ele>21</ele>
        <time>2017-06-25T07:13:51.999Z</time>
      </trkpt>
      <trkpt lat="45.83861" lon="-0.7074">
        <ele>21</ele>
        <time>2017-06-25T07:13:52.999Z</time>
      </trkpt>
      <trkpt lat="45.83862" lon="-0.70741">
        <ele>21</ele>
        <time>2017-06-25T07:13:53.999Z</time>
      </trkpt>
      <trkpt lat="45.83863" lon="-0.70742">
        <ele>21</ele>
        <time>2017-06-25T07:13:54.999Z</time>
      </trkpt>
      <trkpt lat="45.83863" lon="-0.70743">
        <ele>21</ele>
        <time>2017-06-25T07:13:55.999Z</time>
      </trkpt>
      <trkpt lat="45.83864" lon="-0.70744">
        <ele>21</ele>
        <time>2017-06-25T07:13:56.999Z</time>
      </trkpt>
      <trkpt lat="45.83865" lon="-0.70746">
        <ele>21</ele>
        <time>2017-06-25T07:13:57.999Z</time>
      </trkpt>
      <trkpt lat="45.83865" lon="-0.70748">
        <ele>21</ele>
        <time>2017-06-25T07:13:58.999Z</time>
      </trkpt>
      <trkpt lat="45.83865" lon="-0.70749">
        <ele>21</ele>
        <time>2017-06-25T07:14:00.999Z</time>
      </trkpt>
      <trkpt lat="45.83867" lon="-0.70751">
        <ele>22</ele>
        <time>2017-06-25T07:14:02.999Z</time>
      </trkpt>
      <trkpt lat="45.83867" lon="-0.70752">
        <ele>22</ele>
        <time>2017-06-25T07:14:03.999Z</time>
      </trkpt>
      <trkpt lat="45.83868" lon="-0.70754">
        <ele>22</ele>
        <time>2017-06-25T07:14:04.999Z</time>
      </trkpt>
      <trkpt lat="45.83868" lon="-0.70755">
        <ele>22</ele>
        <time>2017-06-25T07:14:05.999Z</time>
      </trkpt>
      <trkpt lat="45.83869" lon="-0.70757">
        <ele>22</ele>
        <time>2017-06-25T07:14:06.999Z</time>
      </trkpt>
      <trkpt lat="45.8387" lon="-0.70759">
        <ele>22</ele>
        <time>2017-06-25T07:14:07.999Z</time>
      </trkpt>
      <trkpt lat="45.83872" lon="-0.70761">
        <ele>22</ele>
        <time>2017-06-25T07:14:08.999Z</time>
      </trkpt>
      <trkpt lat="45.83873" lon="-0.70762">
        <ele>23</ele>
        <time>2017-06-25T07:14:09.999Z</time>
      </trkpt>
      <trkpt lat="45.83873" lon="-0.70763">
        <ele>23</ele>
        <time>2017-06-25T07:14:10.999Z</time>
      </trkpt>
      <trkpt lat="45.83875" lon="-0.70764">
        <ele>23</ele>
        <time>2017-06-25T07:14:11.999Z</time>
      </trkpt>
      <trkpt lat="45.83875" lon="-0.70765">
        <ele>23</ele>
        <time>2017-06-25T07:14:13.999Z</time>
      </trkpt>
      <trkpt lat="45.83876" lon="-0.70766">
        <ele>23</ele>
        <time>2017-06-25T07:14:15.999Z</time>
      </trkpt>
      <trkpt lat="45.83876" lon="-0.70769">
        <ele>23</ele>
        <time>2017-06-25T07:14:17.999Z</time>
      </trkpt>
      <trkpt lat="45.83877" lon="-0.7077">
        <ele>23</ele>
        <time>2017-06-25T07:14:19.999Z</time>
      </trkpt>
      <trkpt lat="45.83878" lon="-0.70772">
        <ele>23</ele>
        <time>2017-06-25T07:14:21.999Z</time>
      </trkpt>
      <trkpt lat="45.8388" lon="-0.70774">
        <ele>23</ele>
        <time>2017-06-25T07:14:22.999Z</time>
      </trkpt>
      <trkpt lat="45.83881" lon="-0.70775">
        <ele>23</ele>
        <time>2017-06-25T07:14:23.999Z</time>
      </trkpt>
      <trkpt lat="45.83881" lon="-0.70776">
        <ele>23</ele>
        <time>2017-06-25T07:14:24.999Z</time>
      </trkpt>
      <trkpt lat="45.83883" lon="-0.70776">
        <ele>23</ele>
        <time>2017-06-25T07:14:25.999Z</time>
      </trkpt>
      <trkpt lat="45.83884" lon="-0.70777">
        <ele>23</ele>
        <time>2017-06-25T07:14:26.999Z</time>
      </trkpt>
      <trkpt lat="45.83884" lon="-0.70778">
        <ele>23</ele>
        <time>2017-06-25T07:14:27.999Z</time>
      </trkpt>
      <trkpt lat="45.83886" lon="-0.70779">
        <ele>23</ele>
        <time>2017-06-25T07:14:28.999Z</time>
      </trkpt>
      <trkpt lat="45.83888" lon="-0.7078">
        <ele>23</ele>
        <time>2017-06-25T07:14:29.999Z</time>
      </trkpt>
      <trkpt lat="45.83889" lon="-0.7078">
        <ele>23</ele>
        <time>2017-06-25T07:14:30.999Z</time>
      </trkpt>
      <trkpt lat="45.8389" lon="-0.70781">
        <ele>23</ele>
        <time>2017-06-25T07:14:31.999Z</time>
      </trkpt>
      <trkpt lat="45.83891" lon="-0.70783">
        <ele>23</ele>
        <time>2017-06-25T07:14:32.999Z</time>
      </trkpt>
      <trkpt lat="45.83892" lon="-0.70785">
        <ele>23</ele>
        <time>2017-06-25T07:14:33.999Z</time>
      </trkpt>
      <trkpt lat="45.83893" lon="-0.70786">
        <ele>23</ele>
        <time>2017-06-25T07:14:34.999Z</time>
      </trkpt>
      <trkpt lat="45.83893" lon="-0.70788">
        <ele>23</ele>
        <time>2017-06-25T07:14:36.999Z</time>
      </trkpt>
      <trkpt lat="45.83894" lon="-0.70789">
        <ele>23</ele>
        <time>2017-06-25T07:14:38.999Z</time>
      </trkpt>
      <trkpt lat="45.83896" lon="-0.70791">
        <ele>23</ele>
        <time>2017-06-25T07:14:39.999Z</time>
      </trkpt>
      <trkpt lat="45.83897" lon="-0.70792">
        <ele>23</ele>
        <time>2017-06-25T07:14:40.999Z</time>
      </trkpt>
      <trkpt lat="45.83899" lon="-0.70793">
        <ele>23</ele>
        <time>2017-06-25T07:14:42.999Z</time>
      </trkpt>
      <trkpt lat="45.83901" lon="-0.70794">
        <ele>23</ele>
        <time>2017-06-25T07:14:43.999Z</time>
      </trkpt>
      <trkpt lat="45.83902" lon="-0.70794">
        <ele>23</ele>
        <time>2017-06-25T07:14:44.999Z</time>
      </trkpt>
      <trkpt lat="45.83904" lon="-0.70795">
        <ele>23</ele>
        <time>2017-06-25T07:14:45.999Z</time>
      </trkpt>
      <trkpt lat="45.83904" lon="-0.70795">
        <ele>23</ele>
        <time>2017-06-25T07:14:46.999Z</time>
      </trkpt>
      <trkpt lat="45.83905" lon="-0.70796">
        <ele>23</ele>
        <time>2017-06-25T07:14:47.999Z</time>
      </trkpt>
      <trkpt lat="45.83906" lon="-0.70798">
        <ele>23</ele>
        <time>2017-06-25T07:14:48.999Z</time>
      </trkpt>
      <trkpt lat="45.83907" lon="-0.70799">
        <ele>23</ele>
        <time>2017-06-25T07:14:49.999Z</time>
      </trkpt>
      <trkpt lat="45.83907" lon="-0.708">
        <ele>23</ele>
        <time>2017-06-25T07:14:50.999Z</time>
      </trkpt>
      <trkpt lat="45.83908" lon="-0.70802">
        <ele>23</ele>
        <time>2017-06-25T07:14:51.999Z</time>
      </trkpt>
      <trkpt lat="45.83909" lon="-0.70802">
        <ele>23</ele>
        <time>2017-06-25T07:14:52.999Z</time>
      </trkpt>
      <trkpt lat="45.83909" lon="-0.70804">
        <ele>23</ele>
        <time>2017-06-25T07:14:53.999Z</time>
      </trkpt>
      <trkpt lat="45.8391" lon="-0.70805">
        <ele>23</ele>
        <time>2017-06-25T07:14:54.999Z</time>
      </trkpt>
      <trkpt lat="45.8391" lon="-0.70807">
        <ele>23</ele>
        <time>2017-06-25T07:14:55.999Z</time>
      </trkpt>
      <trkpt lat="45.83912" lon="-0.70807">
        <ele>23</ele>
        <time>2017-06-25T07:14:57.999Z</time>
      </trkpt>
      <trkpt lat="45.83914" lon="-0.70808">
        <ele>24</ele>
        <time>2017-06-25T07:14:59.999Z</time>
      </trkpt>
      <trkpt lat="45.83916" lon="-0.70809">
        <ele>24</ele>
        <time>2017-06-25T07:15:00.999Z</time>
      </trkpt>
      <trkpt lat="45.83917" lon="-0.70811">
        <ele>24</ele>
        <time>2017-06-25T07:15:01.999Z</time>
      </trkpt>
      <trkpt lat="45.83918" lon="-0.70813">
        <ele>24</ele>
        <time>2017-06-25T07:15:02.999Z</time>
      </trkpt>
      <trkpt lat="45.8392" lon="-0.70814">
        <ele>24</ele>
        <time>2017-06-25T07:15:04.999Z</time>
      </trkpt>
      <trkpt lat="45.83921" lon="-0.70814">
        <ele>24</ele>
        <time>2017-06-25T07:15:05.999Z</time>
      </trkpt>
      <trkpt lat="45.83922" lon="-0.70814">
        <ele>24</ele>
        <time>2017-06-25T07:15:06.999Z</time>
      </trkpt>
      <trkpt lat="45.83923" lon="-0.70814">
        <ele>24</ele>
        <time>2017-06-25T07:15:07.999Z</time>
      </trkpt>
      <trkpt lat="45.83925" lon="-0.70815">
        <ele>24</ele>
        <time>2017-06-25T07:15:09.999Z</time>
      </trkpt>
      <trkpt lat="45.83925" lon="-0.70816">
        <ele>24</ele>
        <time>2017-06-25T07:15:10.999Z</time>
      </trkpt>
      <trkpt lat="45.83926" lon="-0.70817">
        <ele>25</ele>
        <time>2017-06-25T07:15:12.999Z</time>
      </trkpt>
      <trkpt lat="45.83926" lon="-0.70819">
        <ele>25</ele>
        <time>2017-06-25T07:15:14.999Z</time>
      </trkpt>
      <trkpt lat="45.83927" lon="-0.70821">
        <ele>25</ele>
        <time>2017-06-25T07:15:15.999Z</time>
      </trkpt>
      <trkpt lat="45.83929" lon="-0.70822">
        <ele>25</ele>
        <time>2017-06-25T07:15:16.999Z</time>
      </trkpt>
      <trkpt lat="45.83929" lon="-0.70824">
        <ele>25</ele>
        <time>2017-06-25T07:15:17.999Z</time>
      </trkpt>
      <trkpt lat="45.83932" lon="-0.70826">
        <ele>25</ele>
        <time>2017-06-25T07:15:18.999Z</time>
      </trkpt>
      <trkpt lat="45.83934" lon="-0.70826">
        <ele>25</ele>
        <time>2017-06-25T07:15:19.999Z</time>
      </trkpt>
      <trkpt lat="45.83936" lon="-0.70828">
        <ele>25</ele>
        <time>2017-06-25T07:15:20.999Z</time>
      </trkpt>
      <trkpt lat="45.83938" lon="-0.70829">
        <ele>25</ele>
        <time>2017-06-25T07:15:21.999Z</time>
      </trkpt>
      <trkpt lat="45.83939" lon="-0.70831">
        <ele>25</ele>
        <time>2017-06-25T07:15:22.999Z</time>
      </trkpt>
      <trkpt lat="45.8394" lon="-0.70832">
        <ele>25</ele>
        <time>2017-06-25T07:15:23.999Z</time>
      </trkpt>
      <trkpt lat="45.83941" lon="-0.70833">
        <ele>25</ele>
        <time>2017-06-25T07:15:26.999Z</time>
      </trkpt>
      <trkpt lat="45.83943" lon="-0.70834">
        <ele>25</ele>
        <time>2017-06-25T07:15:28.999Z</time>
      </trkpt>
      <trkpt lat="45.83944" lon="-0.70834">
        <ele>25</ele>
        <time>2017-06-25T07:15:29.999Z</time>
      </trkpt>
      <trkpt lat="45.83947" lon="-0.70836">
        <ele>25</ele>
        <time>2017-06-25T07:15:31.999Z</time>
      </trkpt>
      <trkpt lat="45.83947" lon="-0.70838">
        <ele>25</ele>
        <time>2017-06-25T07:15:32.999Z</time>
      </trkpt>
      <trkpt lat="45.83948" lon="-0.70839">
        <ele>25</ele>
        <time>2017-06-25T07:15:33.999Z</time>
      </trkpt>
      <trkpt lat="45.83949" lon="-0.7084">
        <ele>25</ele>
        <time>2017-06-25T07:15:34.999Z</time>
      </trkpt>
      <trkpt lat="45.8395" lon="-0.7084">
        <ele>25</ele>
        <time>2017-06-25T07:15:37.999Z</time>
      </trkpt>
      <trkpt lat="45.83952" lon="-0.7084">
        <ele>25</ele>
        <time>2017-06-25T07:15:38.999Z</time>
      </trkpt>
      <trkpt lat="45.83953" lon="-0.7084">
        <ele>25</ele>
        <time>2017-06-25T07:15:39.999Z</time>
      </trkpt>
      <trkpt lat="45.83955" lon="-0.7084">
        <ele>25</ele>
        <time>2017-06-25T07:15:40.999Z</time>
      </trkpt>
      <trkpt lat="45.83957" lon="-0.70843">
        <ele>26</ele>
        <time>2017-06-25T07:15:41.999Z</time>
      </trkpt>
      <trkpt lat="45.83958" lon="-0.70844">
        <ele>26</ele>
        <time>2017-06-25T07:15:42.999Z</time>
      </trkpt>
      <trkpt lat="45.8396" lon="-0.70846">
        <ele>26</ele>
        <time>2017-06-25T07:15:43.999Z</time>
      </trkpt>
      <trkpt lat="45.83962" lon="-0.70847">
        <ele>26</ele>
        <time>2017-06-25T07:15:44.999Z</time>
      </trkpt>
      <trkpt lat="45.83963" lon="-0.70847">
        <ele>26</ele>
        <time>2017-06-25T07:15:45.999Z</time>
      </trkpt>
      <trkpt lat="45.83965" lon="-0.70848">
        <ele>26</ele>
        <time>2017-06-25T07:15:46.999Z</time>
      </trkpt>
      <trkpt lat="45.83967" lon="-0.7085">
        <ele>26</ele>
        <time>2017-06-25T07:15:47.999Z</time>
      </trkpt>
      <trkpt lat="45.83969" lon="-0.70851">
        <ele>26</ele>
        <time>2017-06-25T07:15:48.999Z</time>
      </trkpt>
      <trkpt lat="45.83971" lon="-0.70853">
        <ele>26</ele>
        <time>2017-06-25T07:15:49.999Z</time>
      </trkpt>
      <trkpt lat="45.83973" lon="-0.70854">
        <ele>26</ele>
        <time>2017-06-25T07:15:50.999Z</time>
      </trkpt>
      <trkpt lat="45.83975" lon="-0.70855">
        <ele>26</ele>
        <time>2017-06-25T07:15:51.999Z</time>
      </trkpt>
      <trkpt lat="45.83977" lon="-0.70855">
        <ele>26</ele>
        <time>2017-06-25T07:15:52.999Z</time>
      </trkpt>
      <trkpt lat="45.83978" lon="-0.70856">
        <ele>26</ele>
        <time>2017-06-25T07:15:53.999Z</time>
      </trkpt>
      <trkpt lat="45.8398" lon="-0.70856">
        <ele>26</ele>
        <time>2017-06-25T07:15:54.999Z</time>
      </trkpt>
      <trkpt lat="45.83981" lon="-0.70858">
        <ele>26</ele>
        <time>2017-06-25T07:15:55.999Z</time>
      </trkpt>
      <trkpt lat="45.83983" lon="-0.70859">
        <ele>26</ele>
        <time>2017-06-25T07:15:56.999Z</time>
      </trkpt>
      <trkpt lat="45.83984" lon="-0.70861">
        <ele>26</ele>
        <time>2017-06-25T07:15:57.999Z</time>
      </trkpt>
      <trkpt lat="45.83985" lon="-0.70862">
        <ele>26</ele>
        <time>2017-06-25T07:15:59.999Z</time>
      </trkpt>
      <trkpt lat="45.83986" lon="-0.70863">
        <ele>26</ele>
        <time>2017-06-25T07:16:00.999Z</time>
      </trkpt>
      <trkpt lat="45.83987" lon="-0.70865">
        <ele>26</ele>
        <time>2017-06-25T07:16:01.999Z</time>
      </trkpt>
      <trkpt lat="45.83989" lon="-0.70865">
        <ele>26</ele>
        <time>2017-06-25T07:16:03.999Z</time>
      </trkpt>
      <trkpt lat="45.83989" lon="-0.70865">
        <ele>26</ele>
        <time>2017-06-25T07:16:04.999Z</time>
      </trkpt>
      <trkpt lat="45.83991" lon="-0.70864">
        <ele>26</ele>
        <time>2017-06-25T07:16:05.999Z</time>
      </trkpt>
      <trkpt lat="45.83992" lon="-0.70865">
        <ele>26</ele>
        <time>2017-06-25T07:16:07.999Z</time>
      </trkpt>
      <trkpt lat="45.83994" lon="-0.70867">
        <ele>26</ele>
        <time>2017-06-25T07:16:09.999Z</time>
      </trkpt>
      <trkpt lat="45.83995" lon="-0.70868">
        <ele>26</ele>
        <time>2017-06-25T07:16:10.999Z</time>
      </trkpt>
      <trkpt lat="45.83997" lon="-0.70869">
        <ele>26</ele>
        <time>2017-06-25T07:16:11.999Z</time>
      </trkpt>
      <trkpt lat="45.84" lon="-0.70871">
        <ele>25</ele>
        <time>2017-06-25T07:16:12.999Z</time>
      </trkpt>
      <trkpt lat="45.84002" lon="-0.70872">
        <ele>25</ele>
        <time>2017-06-25T07:16:13.999Z</time>
      </trkpt>
      <trkpt lat="45.84003" lon="-0.70874">
        <ele>25</ele>
        <time>2017-06-25T07:16:14.999Z</time>
      </trkpt>
      <trkpt lat="45.84005" lon="-0.70875">
        <ele>25</ele>
        <time>2017-06-25T07:16:15.999Z</time>
      </trkpt>
      <trkpt lat="45.84007" lon="-0.70877">
        <ele>25</ele>
        <time>2017-06-25T07:16:16.999Z</time>
      </trkpt>
      <trkpt lat="45.84008" lon="-0.70877">
        <ele>25</ele>
        <time>2017-06-25T07:16:19.999Z</time>
      </trkpt>
      <trkpt lat="45.8401" lon="-0.70878">
        <ele>25</ele>
        <time>2017-06-25T07:16:21.999Z</time>
      </trkpt>
      <trkpt lat="45.84011" lon="-0.70879">
        <ele>25</ele>
        <time>2017-06-25T07:16:22.999Z</time>
      </trkpt>
      <trkpt lat="45.84012" lon="-0.70879">
        <ele>25</ele>
        <time>2017-06-25T07:16:23.999Z</time>
      </trkpt>
      <trkpt lat="45.84014" lon="-0.7088">
        <ele>25</ele>
        <time>2017-06-25T07:16:24.999Z</time>
      </trkpt>
      <trkpt lat="45.84016" lon="-0.7088">
        <ele>25</ele>
        <time>2017-06-25T07:16:25.999Z</time>
      </trkpt>
      <trkpt lat="45.84017" lon="-0.70881">
        <ele>25</ele>
        <time>2017-06-25T07:16:26.999Z</time>
      </trkpt>
      <trkpt lat="45.84018" lon="-0.70881">
        <ele>25</ele>
        <time>2017-06-25T07:16:27.999Z</time>
      </trkpt>
      <trkpt lat="45.8402" lon="-0.70881">
        <ele>25</ele>
        <time>2017-06-25T07:16:28.999Z</time>
      </trkpt>
      <trkpt lat="45.84021" lon="-0.70882">
        <ele>25</ele>
        <time>2017-06-25T07:16:30.999Z</time>
      </trkpt>
      <trkpt lat="45.84022" lon="-0.70882">
        <ele>25</ele>
        <time>2017-06-25T07:16:31.999Z</time>
      </trkpt>
      <trkpt lat="45.84024" lon="-0.70885">
        <ele>25</ele>
        <time>2017-06-25T07:16:33.999Z</time>
      </trkpt>
      <trkpt lat="45.84024" lon="-0.70885">
        <ele>25</ele>
        <time>2017-06-25T07:16:34.999Z</time>
      </trkpt>
      <trkpt lat="45.84025" lon="-0.70887">
        <ele>25</ele>
        <time>2017-06-25T07:16:35.999Z</time>
      </trkpt>
      <trkpt lat="45.84027" lon="-0.70888">
        <ele>25</ele>
        <time>2017-06-25T07:16:36.999Z</time>
      </trkpt>
      <trkpt lat="45.84028" lon="-0.7089">
        <ele>25</ele>
        <time>2017-06-25T07:16:38.999Z</time>
      </trkpt>
      <trkpt lat="45.8403" lon="-0.7089">
        <ele>25</ele>
        <time>2017-06-25T07:16:39.999Z</time>
      </trkpt>
      <trkpt lat="45.84031" lon="-0.70891">
        <ele>25</ele>
        <time>2017-06-25T07:16:40.999Z</time>
      </trkpt>
      <trkpt lat="45.84033" lon="-0.70893">
        <ele>25</ele>
        <time>2017-06-25T07:16:41.999Z</time>
      </trkpt>
      <trkpt lat="45.84034" lon="-0.70894">
        <ele>25</ele>
        <time>2017-06-25T07:16:42.999Z</time>
      </trkpt>
      <trkpt lat="45.84035" lon="-0.70894">
        <ele>25</ele>
        <time>2017-06-25T07:16:44.999Z</time>
      </trkpt>
      <trkpt lat="45.84037" lon="-0.70896">
        <ele>25</ele>
        <time>2017-06-25T07:16:47.999Z</time>
      </trkpt>
      <trkpt lat="45.84038" lon="-0.70897">
        <ele>25</ele>
        <time>2017-06-25T07:16:48.999Z</time>
      </trkpt>
      <trkpt lat="45.84039" lon="-0.70898">
        <ele>25</ele>
        <time>2017-06-25T07:16:49.999Z</time>
      </trkpt>
      <trkpt lat="45.84041" lon="-0.70898">
        <ele>25</ele>
        <time>2017-06-25T07:16:50.999Z</time>
      </trkpt>
      <trkpt lat="45.84042" lon="-0.70899">
        <ele>25</ele>
        <time>2017-06-25T07:16:51.999Z</time>
      </trkpt>
      <trkpt lat="45.84044" lon="-0.709">
        <ele>25</ele>
        <time>2017-06-25T07:16:52.999Z</time>
      </trkpt>
      <trkpt lat="45.84044" lon="-0.70901">
        <ele>25</ele>
        <time>2017-06-25T07:16:53.999Z</time>
      </trkpt>
      <trkpt lat="45.84045" lon="-0.70902">
        <ele>25</ele>
        <time>2017-06-25T07:16:54.999Z</time>
      </trkpt>
      <trkpt lat="45.84047" lon="-0.70902">
        <ele>25</ele>
        <time>2017-06-25T07:16:55.999Z</time>
      </trkpt>
      <trkpt lat="45.84048" lon="-0.70902">
        <ele>25</ele>
        <time>2017-06-25T07:16:56.999Z</time>
      </trkpt>
      <trkpt lat="45.8405" lon="-0.70902">
        <ele>25</ele>
        <time>2017-06-25T07:16:57.999Z</time>
      </trkpt>
      <trkpt lat="45.84051" lon="-0.70903">
        <ele>25</ele>
        <time>2017-06-25T07:16:58.999Z</time>
      </trkpt>
      <trkpt lat="45.84053" lon="-0.70904">
        <ele>25</ele>
        <time>2017-06-25T07:16:59.999Z</time>
      </trkpt>
      <trkpt lat="45.84055" lon="-0.70905">
        <ele>26</ele>
        <time>2017-06-25T07:17:00.999Z</time>
      </trkpt>
      <trkpt lat="45.84055" lon="-0.70906">
        <ele>26</ele>
        <time>2017-06-25T07:17:01.999Z</time>
      </trkpt>
      <trkpt lat="45.84056" lon="-0.70906">
        <ele>26</ele>
        <time>2017-06-25T07:17:02.999Z</time>
      </trkpt>
      <trkpt lat="45.84057" lon="-0.70907">
        <ele>26</ele>
        <time>2017-06-25T07:17:03.999Z</time>
      </trkpt>
      <trkpt lat="45.84059" lon="-0.70908">
        <ele>26</ele>
        <time>2017-06-25T07:17:04.999Z</time>
      </trkpt>
      <trkpt lat="45.84061" lon="-0.70909">
        <ele>26</ele>
        <time>2017-06-25T07:17:05.999Z</time>
      </trkpt>
      <trkpt lat="45.84062" lon="-0.70909">
        <ele>26</ele>
        <time>2017-06-25T07:17:06.999Z</time>
      </trkpt>
      <trkpt lat="45.84064" lon="-0.7091">
        <ele>26</ele>
        <time>2017-06-25T07:17:08.999Z</time>
      </trkpt>
      <trkpt lat="45.84066" lon="-0.7091">
        <ele>26</ele>
        <time>2017-06-25T07:17:09.999Z</time>
      </trkpt>
      <trkpt lat="45.84069" lon="-0.70913">
        <ele>26</ele>
        <time>2017-06-25T07:17:10.999Z</time>
      </trkpt>
      <trkpt lat="45.8407" lon="-0.70915">
        <ele>26</ele>
        <time>2017-06-25T07:17:11.999Z</time>
      </trkpt>
      <trkpt lat="45.84071" lon="-0.70916">
        <ele>26</ele>
        <time>2017-06-25T07:17:12.999Z</time>
      </trkpt>
      <trkpt lat="45.84073" lon="-0.70917">
        <ele>26</ele>
        <time>2017-06-25T07:17:14.999Z</time>
      </trkpt>
      <trkpt lat="45.84074" lon="-0.70917">
        <ele>26</ele>
        <time>2017-06-25T07:17:16.999Z</time>
      </trkpt>
      <trkpt lat="45.84076" lon="-0.70917">
        <ele>26</ele>
        <time>2017-06-25T07:17:19.999Z</time>
      </trkpt>
      <trkpt lat="45.84077" lon="-0.70918">
        <ele>26</ele>
        <time>2017-06-25T07:17:20.999Z</time>
      </trkpt>
      <trkpt lat="45.84078" lon="-0.70918">
        <ele>26</ele>
        <time>2017-06-25T07:17:21.999Z</time>
      </trkpt>
      <trkpt lat="45.84079" lon="-0.70918">
        <ele>26</ele>
        <time>2017-06-25T07:17:22.999Z</time>
      </trkpt>
      <trkpt lat="45.84081" lon="-0.70919">
        <ele>26</ele>
        <time>2017-06-25T07:17:23.999Z</time>
      </trkpt>
      <trkpt lat="45.84083" lon="-0.70919">
        <ele>26</ele>
        <time>2017-06-25T07:17:25.999Z</time>
      </trkpt>
      <trkpt lat="45.84085" lon="-0.7092">
        <ele>26</ele>
        <time>2017-06-25T07:17:27.999Z</time>
      </trkpt>
      <trkpt lat="45.84087" lon="-0.70921">
        <ele>26</ele>
        <time>2017-06-25T07:17:28.999Z</time>
      </trkpt>
      <trkpt lat="45.84088" lon="-0.70921">
        <ele>26</ele>
        <time>2017-06-25T07:17:29.999Z</time>
      </trkpt>
      <trkpt lat="45.84089" lon="-0.70921">
        <ele>26</ele>
        <time>2017-06-25T07:17:30.999Z</time>
      </trkpt>
      <trkpt lat="45.8409" lon="-0.7092">
        <ele>26</ele>
        <time>2017-06-25T07:17:31.999Z</time>
      </trkpt>
      <trkpt lat="45.84091" lon="-0.70921">
        <ele>26</ele>
        <time>2017-06-25T07:17:32.999Z</time>
      </trkpt>
      <trkpt lat="45.84092" lon="-0.70921">
        <ele>26</ele>
        <time>2017-06-25T07:17:34.999Z</time>
      </trkpt>
      <trkpt lat="45.84094" lon="-0.7092">
        <ele>26</ele>
        <time>2017-06-25T07:17:36.999Z</time>
      </trkpt>
      <trkpt lat="45.84095" lon="-0.7092">
        <ele>26</ele>
        <time>2017-06-25T07:17:37.999Z</time>
      </trkpt>
      <trkpt lat="45.84095" lon="-0.70918">
        <ele>26</ele>
        <time>2017-06-25T07:17:38.999Z</time>
      </trkpt>
      <trkpt lat="45.84097" lon="-0.70917">
        <ele>26</ele>
        <time>2017-06-25T07:17:39.999Z</time>
      </trkpt>
      <trkpt lat="45.84098" lon="-0.70917">
        <ele>26</ele>
        <time>2017-06-25T07:17:41.999Z</time>
      </trkpt>
      <trkpt lat="45.841" lon="-0.70916">
        <ele>26</ele>
        <time>2017-06-25T07:17:43.999Z</time>
      </trkpt>
      <trkpt lat="45.841" lon="-0.70916">
        <ele>26</ele>
        <time>2017-06-25T07:17:44.999Z</time>
      </trkpt>
      <trkpt lat="45.84102" lon="-0.70915">
        <ele>26</ele>
        <time>2017-06-25T07:17:45.999Z</time>
      </trkpt>
      <trkpt lat="45.84103" lon="-0.70913">
        <ele>26</ele>
        <time>2017-06-25T07:17:46.999Z</time>
      </trkpt>
      <trkpt lat="45.84105" lon="-0.70913">
        <ele>25</ele>
        <time>2017-06-25T07:17:47.999Z</time>
      </trkpt>
      <trkpt lat="45.84106" lon="-0.70912">
        <ele>25</ele>
        <time>2017-06-25T07:17:48.999Z</time>
      </trkpt>
      <trkpt lat="45.84107" lon="-0.7091">
        <ele>25</ele>
        <time>2017-06-25T07:17:49.999Z</time>
      </trkpt>
      <trkpt lat="45.84108" lon="-0.70908">
        <ele>25</ele>
        <time>2017-06-25T07:17:51.999Z</time>
      </trkpt>
      <trkpt lat="45.8411" lon="-0.70907">
        <ele>25</ele>
        <time>2017-06-25T07:17:52.999Z</time>
      </trkpt>
      <trkpt lat="45.84111" lon="-0.70906">
        <ele>25</ele>
        <time>2017-06-25T07:17:54.999Z</time>
      </trkpt>
      <trkpt lat="45.84112" lon="-0.70905">
        <ele>25</ele>
        <time>2017-06-25T07:17:57.999Z</time>
      </trkpt>
      <trkpt lat="45.84113" lon="-0.70905">
        <ele>25</ele>
        <time>2017-06-25T07:17:58.999Z</time>
      </trkpt>
      <trkpt lat="45.84113" lon="-0.70903">
        <ele>25</ele>
        <time>2017-06-25T07:17:59.999Z</time>
      </trkpt>
      <trkpt lat="45.84114" lon="-0.70902">
        <ele>25</ele>
        <time>2017-06-25T07:18:00.999Z</time>
      </trkpt>
      <trkpt lat="45.84115" lon="-0.709">
        <ele>25</ele>
        <time>2017-06-25T07:18:02.999Z</time>
      </trkpt>
      <trkpt lat="45.84116" lon="-0.70899">
        <ele>25</ele>
        <time>2017-06-25T07:18:03.999Z</time>
      </trkpt>
      <trkpt lat="45.84117" lon="-0.70897">
        <ele>25</ele>
        <time>2017-06-25T07:18:04.999Z</time>
      </trkpt>
      <trkpt lat="45.84118" lon="-0.70896">
        <ele>25</ele>
        <time>2017-06-25T07:18:05.999Z</time>
      </trkpt>
      <trkpt lat="45.84119" lon="-0.70895">
        <ele>25</ele>
        <time>2017-06-25T07:18:06.999Z</time>
      </trkpt>
      <trkpt lat="45.84121" lon="-0.70892">
        <ele>25</ele>
        <time>2017-06-25T07:18:07.999Z</time>
      </trkpt>
      <trkpt lat="45.84123" lon="-0.70891">
        <ele>25</ele>
        <time>2017-06-25T07:18:08.999Z</time>
      </trkpt>
      <trkpt lat="45.84124" lon="-0.70891">
        <ele>25</ele>
        <time>2017-06-25T07:18:09.999Z</time>
      </trkpt>
      <trkpt lat="45.84126" lon="-0.7089">
        <ele>25</ele>
        <time>2017-06-25T07:18:11.999Z</time>
      </trkpt>
      <trkpt lat="45.84127" lon="-0.70889">
        <ele>25</ele>
        <time>2017-06-25T07:18:13.999Z</time>
      </trkpt>
      <trkpt lat="45.84129" lon="-0.70889">
        <ele>25</ele>
        <time>2017-06-25T07:18:15.999Z</time>
      </trkpt>
      <trkpt lat="45.84131" lon="-0.7089">
        <ele>25</ele>
        <time>2017-06-25T07:18:18.999Z</time>
      </trkpt>
      <trkpt lat="45.84132" lon="-0.7089">
        <ele>25</ele>
        <time>2017-06-25T07:18:19.999Z</time>
      </trkpt>
      <trkpt lat="45.84134" lon="-0.70888">
        <ele>25</ele>
        <time>2017-06-25T07:18:20.999Z</time>
      </trkpt>
      <trkpt lat="45.84136" lon="-0.70885">
        <ele>25</ele>
        <time>2017-06-25T07:18:21.999Z</time>
      </trkpt>
      <trkpt lat="45.84137" lon="-0.70883">
        <ele>25</ele>
        <time>2017-06-25T07:18:22.999Z</time>
      </trkpt>
      <trkpt lat="45.84138" lon="-0.70881">
        <ele>25</ele>
        <time>2017-06-25T07:18:23.999Z</time>
      </trkpt>
      <trkpt lat="45.84139" lon="-0.7088">
        <ele>25</ele>
        <time>2017-06-25T07:18:24.999Z</time>
      </trkpt>
      <trkpt lat="45.8414" lon="-0.70878">
        <ele>25</ele>
        <time>2017-06-25T07:18:25.999Z</time>
      </trkpt>
      <trkpt lat="45.84141" lon="-0.70877">
        <ele>25</ele>
        <time>2017-06-25T07:18:26.999Z</time>
      </trkpt>
      <trkpt lat="45.84142" lon="-0.70876">
        <ele>25</ele>
        <time>2017-06-25T07:18:27.999Z</time>
      </trkpt>
      <trkpt lat="45.84144" lon="-0.70876">
        <ele>25</ele>
        <time>2017-06-25T07:18:28.999Z</time>
      </trkpt>
      <trkpt lat="45.84145" lon="-0.70876">
        <ele>25</ele>
        <time>2017-06-25T07:18:29.999Z</time>
      </trkpt>
      <trkpt lat="45.84146" lon="-0.70875">
        <ele>25</ele>
        <time>2017-06-25T07:18:30.999Z</time>
      </trkpt>
      <trkpt lat="45.84147" lon="-0.70874">
        <ele>25</ele>
        <time>2017-06-25T07:18:31.999Z</time>
      </trkpt>
      <trkpt lat="45.84148" lon="-0.70874">
        <ele>25</ele>
        <time>2017-06-25T07:18:32.999Z</time>
      </trkpt>
      <trkpt lat="45.8415" lon="-0.70874">
        <ele>25</ele>
        <time>2017-06-25T07:18:33.999Z</time>
      </trkpt>
      <trkpt lat="45.84151" lon="-0.70873">
        <ele>25</ele>
        <time>2017-06-25T07:18:34.999Z</time>
      </trkpt>
      <trkpt lat="45.84152" lon="-0.70872">
        <ele>25</ele>
        <time>2017-06-25T07:18:35.999Z</time>
      </trkpt>
      <trkpt lat="45.84153" lon="-0.70871">
        <ele>25</ele>
        <time>2017-06-25T07:18:36.999Z</time>
      </trkpt>
      <trkpt lat="45.84154" lon="-0.70869">
        <ele>25</ele>
        <time>2017-06-25T07:18:37.999Z</time>
      </trkpt>
      <trkpt lat="45.84155" lon="-0.70867">
        <ele>25</ele>
        <time>2017-06-25T07:18:38.999Z</time>
      </trkpt>
      <trkpt lat="45.84156" lon="-0.70866">
        <ele>25</ele>
        <time>2017-06-25T07:18:39.999Z</time>
      </trkpt>
      <trkpt lat="45.84157" lon="-0.70866">
        <ele>25</ele>
        <time>2017-06-25T07:18:40.999Z</time>
      </trkpt>
      <trkpt lat="45.84158" lon="-0.70865">
        <ele>25</ele>
        <time>2017-06-25T07:18:41.999Z</time>
      </trkpt>
      <trkpt lat="45.84158" lon="-0.70863">
        <ele>25</ele>
        <time>2017-06-25T07:18:42.999Z</time>
      </trkpt>
      <trkpt lat="45.84159" lon="-0.70861">
        <ele>25</ele>
        <time>2017-06-25T07:18:43.999Z</time>
      </trkpt>
      <trkpt lat="45.8416" lon="-0.70858">
        <ele>25</ele>
        <time>2017-06-25T07:18:45.999Z</time>
      </trkpt>
      <trkpt lat="45.8416" lon="-0.70856">
        <ele>25</ele>
        <time>2017-06-25T07:18:47.999Z</time>
      </trkpt>
      <trkpt lat="45.8416" lon="-0.70855">
        <ele>25</ele>
        <time>2017-06-25T07:18:50.999Z</time>
      </trkpt>
      <trkpt lat="45.8416" lon="-0.70853">
        <ele>25</ele>
        <time>2017-06-25T07:18:51.999Z</time>
      </trkpt>
      <trkpt lat="45.8416" lon="-0.70851">
        <ele>25</ele>
        <time>2017-06-25T07:18:53.999Z</time>
      </trkpt>
      <trkpt lat="45.84159" lon="-0.70848">
        <ele>25</ele>
        <time>2017-06-25T07:18:56.999Z</time>
      </trkpt>
      <trkpt lat="45.84158" lon="-0.70847">
        <ele>24</ele>
        <time>2017-06-25T07:18:58.999Z</time>
      </trkpt>
      <trkpt lat="45.84157" lon="-0.70845">
        <ele>24</ele>
        <time>2017-06-25T07:19:00.999Z</time>
      </trkpt>
      <trkpt lat="45.84156" lon="-0.70844">
        <ele>24</ele>
        <time>2017-06-25T07:19:01.999Z</time>
      </trkpt>
      <trkpt lat="45.84155" lon="-0.70843">
        <ele>24</ele>
        <time>2017-06-25T07:19:02.999Z</time>
      </trkpt>
      <trkpt lat="45.84154" lon="-0.70842">
        <ele>24</ele>
        <time>2017-06-25T07:19:04.999Z</time>
      </trkpt>
      <trkpt lat="45.84153" lon="-0.70841">
        <ele>24</ele>
        <time>2017-06-25T07:19:06.999Z</time>
      </trkpt>
      <trkpt lat="45.84152" lon="-0.70842">
        <ele>24</ele>
        <time>2017-06-25T07:19:11.999Z</time>
      </trkpt>
      <trkpt lat="45.8415" lon="-0.70843">
        <ele>25</ele>
        <time>2017-06-25T07:19:13.999Z</time>
      </trkpt>
      <trkpt lat="45.84149" lon="-0.70843">
        <ele>25</ele>
        <time>2017-06-25T07:19:14.999Z</time>
      </trkpt>
      <trkpt lat="45.84148" lon="-0.70843">
        <ele>25</ele>
        <time>2017-06-25T07:19:15.999Z</time>
      </trkpt>
      <trkpt lat="45.84147" lon="-0.70843">
        <ele>25</ele>
        <time>2017-06-25T07:19:16.999Z</time>
      </trkpt>
      <trkpt lat="45.84145" lon="-0.70843">
        <ele>25</ele>
        <time>2017-06-25T07:19:17.999Z</time>
      </trkpt>
      <trkpt lat="45.84143" lon="-0.70841">
        <ele>25</ele>
        <time>2017-06-25T07:19:18.999Z</time>
      </trkpt>
      <trkpt lat="45.84143" lon="-0.7084">
        <ele>25</ele>
        <time>2017-06-25T07:19:19.999Z</time>
      </trkpt>
      <trkpt lat="45.84142" lon="-0.70838">
        <ele>25</ele>
        <time>2017-06-25T07:19:20.999Z</time>
      </trkpt>
      <trkpt lat="45.8414" lon="-0.70836">
        <ele>25</ele>
        <time>2017-06-25T07:19:21.999Z</time>
      </trkpt>
      <trkpt lat="45.84139" lon="-0.70835">
        <ele>25</ele>
        <time>2017-06-25T07:19:22.999Z</time>
      </trkpt>
      <trkpt lat="45.84139" lon="-0.70834">
        <ele>25</ele>
        <time>2017-06-25T07:19:23.999Z</time>
      </trkpt>
      <trkpt lat="45.84138" lon="-0.70832">
        <ele>25</ele>
        <time>2017-06-25T07:19:24.999Z</time>
      </trkpt>
      <trkpt lat="45.84138" lon="-0.70831">
        <ele>25</ele>
        <time>2017-06-25T07:19:25.999Z</time>
      </trkpt>
      <trkpt lat="45.84137" lon="-0.70828">
        <ele>25</ele>
        <time>2017-06-25T07:19:27.999Z</time>
      </trkpt>
      <trkpt lat="45.84137" lon="-0.70827">
        <ele>25</ele>
        <time>2017-06-25T07:19:28.999Z</time>
      </trkpt>
      <trkpt lat="45.84138" lon="-0.70825">
        <ele>25</ele>
        <time>2017-06-25T07:19:29.999Z</time>
      </trkpt>
      <trkpt lat="45.84138" lon="-0.70824">
        <ele>25</ele>
        <time>2017-06-25T07:19:30.999Z</time>
      </trkpt>
      <trkpt lat="45.84139" lon="-0.70821">
        <ele>25</ele>
        <time>2017-06-25T07:19:32.999Z</time>
      </trkpt>
      <trkpt lat="45.84138" lon="-0.7082">
        <ele>25</ele>
        <time>2017-06-25T07:19:34.999Z</time>
      </trkpt>
      <trkpt lat="45.84139" lon="-0.70817">
        <ele>25</ele>
        <time>2017-06-25T07:19:39.999Z</time>
      </trkpt>
      <trkpt lat="45.84139" lon="-0.70815">
        <ele>25</ele>
        <time>2017-06-25T07:19:40.999Z</time>
      </trkpt>
      <trkpt lat="45.84141" lon="-0.70814">
        <ele>25</ele>
        <time>2017-06-25T07:19:41.999Z</time>
      </trkpt>
      <trkpt lat="45.84142" lon="-0.70813">
        <ele>25</ele>
        <time>2017-06-25T07:19:42.999Z</time>
      </trkpt>
      <trkpt lat="45.84143" lon="-0.70812">
        <ele>25</ele>
        <time>2017-06-25T07:19:43.999Z</time>
      </trkpt>
      <trkpt lat="45.84143" lon="-0.70811">
        <ele>25</ele>
        <time>2017-06-25T07:19:44.999Z</time>
      </trkpt>
      <trkpt lat="45.84145" lon="-0.70809">
        <ele>25</ele>
        <time>2017-06-25T07:19:46.999Z</time>
      </trkpt>
      <trkpt lat="45.84145" lon="-0.70808">
        <ele>25</ele>
        <time>2017-06-25T07:19:47.999Z</time>
      </trkpt>
      <trkpt lat="45.84147" lon="-0.70806">
        <ele>25</ele>
        <time>2017-06-25T07:19:48.999Z</time>
      </trkpt>
      <trkpt lat="45.84148" lon="-0.70806">
        <ele>25</ele>
        <time>2017-06-25T07:19:49.999Z</time>
      </trkpt>
      <trkpt lat="45.84149" lon="-0.70804">
        <ele>25</ele>
        <time>2017-06-25T07:19:50.999Z</time>
      </trkpt>
      <trkpt lat="45.8415" lon="-0.70802">
        <ele>25</ele>
        <time>2017-06-25T07:19:51.999Z</time>
      </trkpt>
      <trkpt lat="45.8415" lon="-0.70801">
        <ele>25</ele>
        <time>2017-06-25T07:19:52.999Z</time>
      </trkpt>
      <trkpt lat="45.84151" lon="-0.70799">
        <ele>25</ele>
        <time>2017-06-25T07:19:54.999Z</time>
      </trkpt>
      <trkpt lat="45.84151" lon="-0.70797">
        <ele>25</ele>
        <time>2017-06-25T07:19:56.999Z</time>
      </trkpt>
      <trkpt lat="45.84152" lon="-0.70796">
        <ele>25</ele>
        <time>2017-06-25T07:19:57.999Z</time>
      </trkpt>
      <trkpt lat="45.84152" lon="-0.70795">
        <ele>25</ele>
        <time>2017-06-25T07:19:58.999Z</time>
      </trkpt>
      <trkpt lat="45.84152" lon="-0.70794">
        <ele>25</ele>
        <time>2017-06-25T07:19:59.999Z</time>
      </trkpt>
      <trkpt lat="45.84154" lon="-0.70792">
        <ele>25</ele>
        <time>2017-06-25T07:20:01.999Z</time>
      </trkpt>
      <trkpt lat="45.84156" lon="-0.70792">
        <ele>25</ele>
        <time>2017-06-25T07:20:03.999Z</time>
      </trkpt>
      <trkpt lat="45.84157" lon="-0.70792">
        <ele>25</ele>
        <time>2017-06-25T07:20:05.999Z</time>
      </trkpt>
      <trkpt lat="45.84158" lon="-0.70793">
        <ele>25</ele>
        <time>2017-06-25T07:20:09.999Z</time>
      </trkpt>
      <trkpt lat="45.84157" lon="-0.70791">
        <ele>25</ele>
        <time>2017-06-25T07:20:14.999Z</time>
      </trkpt>
      <trkpt lat="45.84156" lon="-0.70792">
        <ele>25</ele>
        <time>2017-06-25T07:20:17.999Z</time>
      </trkpt>
      <trkpt lat="45.84155" lon="-0.70793">
        <ele>25</ele>
        <time>2017-06-25T07:20:29.999Z</time>
      </trkpt>
      <trkpt lat="45.84155" lon="-0.70795">
        <ele>25</ele>
        <time>2017-06-25T07:20:30.999Z</time>
      </trkpt>
      <trkpt lat="45.84154" lon="-0.70797">
        <ele>25</ele>
        <time>2017-06-25T07:20:31.999Z</time>
      </trkpt>
      <trkpt lat="45.84153" lon="-0.70798">
        <ele>25</ele>
        <time>2017-06-25T07:20:32.999Z</time>
      </trkpt>
      <trkpt lat="45.84152" lon="-0.70799">
        <ele>25</ele>
        <time>2017-06-25T07:20:33.999Z</time>
      </trkpt>
      <trkpt lat="45.84152" lon="-0.708">
        <ele>25</ele>
        <time>2017-06-25T07:20:34.999Z</time>
      </trkpt>
      <trkpt lat="45.84151" lon="-0.70801">
        <ele>25</ele>
        <time>2017-06-25T07:20:35.999Z</time>
      </trkpt>
      <trkpt lat="45.8415" lon="-0.70802">
        <ele>25</ele>
        <time>2017-06-25T07:20:37.999Z</time>
      </trkpt>
      <trkpt lat="45.8415" lon="-0.70801">
        <ele>25</ele>
        <time>2017-06-25T07:20:46.999Z</time>
      </trkpt>
      <trkpt lat="45.8415" lon="-0.70799">
        <ele>25</ele>
        <time>2017-06-25T07:20:47.999Z</time>
      </trkpt>
      <trkpt lat="45.84151" lon="-0.70798">
        <ele>25</ele>
        <time>2017-06-25T07:20:50.999Z</time>
      </trkpt>
      <trkpt lat="45.84152" lon="-0.70796">
        <ele>25</ele>
        <time>2017-06-25T07:20:52.999Z</time>
      </trkpt>
      <trkpt lat="45.84153" lon="-0.70796">
        <ele>25</ele>
        <time>2017-06-25T07:20:53.999Z</time>
      </trkpt>
      <trkpt lat="45.84154" lon="-0.70795">
        <ele>25</ele>
        <time>2017-06-25T07:20:54.999Z</time>
      </trkpt>
      <trkpt lat="45.84155" lon="-0.70794">
        <ele>25</ele>
        <time>2017-06-25T07:20:55.999Z</time>
      </trkpt>
      <trkpt lat="45.84157" lon="-0.70792">
        <ele>25</ele>
        <time>2017-06-25T07:20:57.999Z</time>
      </trkpt>
      <trkpt lat="45.84158" lon="-0.70793">
        <ele>25</ele>
        <time>2017-06-25T07:20:58.999Z</time>
      </trkpt>
      <trkpt lat="45.8416" lon="-0.70792">
        <ele>25</ele>
        <time>2017-06-25T07:21:00.999Z</time>
      </trkpt>
      <trkpt lat="45.84161" lon="-0.70792">
        <ele>25</ele>
        <time>2017-06-25T07:21:01.999Z</time>
      </trkpt>
      <trkpt lat="45.84162" lon="-0.70791">
        <ele>25</ele>
        <time>2017-06-25T07:21:02.999Z</time>
      </trkpt>
      <trkpt lat="45.84163" lon="-0.70791">
        <ele>25</ele>
        <time>2017-06-25T07:21:03.999Z</time>
      </trkpt>
      <trkpt lat="45.84164" lon="-0.7079">
        <ele>25</ele>
        <time>2017-06-25T07:21:04.999Z</time>
      </trkpt>
      <trkpt lat="45.84165" lon="-0.70789">
        <ele>25</ele>
        <time>2017-06-25T07:21:05.999Z</time>
      </trkpt>
      <trkpt lat="45.84165" lon="-0.70788">
        <ele>25</ele>
        <time>2017-06-25T07:21:06.999Z</time>
      </trkpt>
      <trkpt lat="45.84166" lon="-0.70786">
        <ele>25</ele>
        <time>2017-06-25T07:21:07.999Z</time>
      </trkpt>
      <trkpt lat="45.84167" lon="-0.70785">
        <ele>26</ele>
        <time>2017-06-25T07:21:08.999Z</time>
      </trkpt>
      <trkpt lat="45.84169" lon="-0.70784">
        <ele>26</ele>
        <time>2017-06-25T07:21:10.999Z</time>
      </trkpt>
      <trkpt lat="45.8417" lon="-0.70783">
        <ele>26</ele>
        <time>2017-06-25T07:21:11.999Z</time>
      </trkpt>
      <trkpt lat="45.84171" lon="-0.70781">
        <ele>26</ele>
        <time>2017-06-25T07:21:12.999Z</time>
      </trkpt>
      <trkpt lat="45.84171" lon="-0.7078">
        <ele>26</ele>
        <time>2017-06-25T07:21:13.999Z</time>
      </trkpt>
      <trkpt lat="45.84171" lon="-0.70777">
        <ele>26</ele>
        <time>2017-06-25T07:21:15.999Z</time>
      </trkpt>
      <trkpt lat="45.84171" lon="-0.70776">
        <ele>26</ele>
        <time>2017-06-25T07:21:17.999Z</time>
      </trkpt>
      <trkpt lat="45.84172" lon="-0.70776">
        <ele>26</ele>
        <time>2017-06-25T07:21:18.999Z</time>
      </trkpt>
      <trkpt lat="45.84172" lon="-0.70774">
        <ele>26</ele>
        <time>2017-06-25T07:21:19.999Z</time>
      </trkpt>
      <trkpt lat="45.84173" lon="-0.70771">
        <ele>26</ele>
        <time>2017-06-25T07:21:20.999Z</time>
      </trkpt>
      <trkpt lat="45.84174" lon="-0.7077">
        <ele>26</ele>
        <time>2017-06-25T07:21:21.999Z</time>
      </trkpt>
      <trkpt lat="45.84174" lon="-0.70768">
        <ele>26</ele>
        <time>2017-06-25T07:21:22.999Z</time>
      </trkpt>
      <trkpt lat="45.84176" lon="-0.70768">
        <ele>26</ele>
        <time>2017-06-25T07:21:25.999Z</time>
      </trkpt>
      <trkpt lat="45.84177" lon="-0.70766">
        <ele>26</ele>
        <time>2017-06-25T07:21:26.999Z</time>
      </trkpt>
      <trkpt lat="45.84177" lon="-0.70763">
        <ele>26</ele>
        <time>2017-06-25T07:21:27.999Z</time>
      </trkpt>
      <trkpt lat="45.84178" lon="-0.70762">
        <ele>26</ele>
        <time>2017-06-25T07:21:28.999Z</time>
      </trkpt>
      <trkpt lat="45.84179" lon="-0.70759">
        <ele>26</ele>
        <time>2017-06-25T07:21:29.999Z</time>
      </trkpt>
      <trkpt lat="45.8418" lon="-0.70758">
        <ele>26</ele>
        <time>2017-06-25T07:21:30.999Z</time>
      </trkpt>
      <trkpt lat="45.84182" lon="-0.70755">
        <ele>26</ele>
        <time>2017-06-25T07:21:32.999Z</time>
      </trkpt>
      <trkpt lat="45.84183" lon="-0.70752">
        <ele>26</ele>
        <time>2017-06-25T07:21:33.999Z</time>
      </trkpt>
      <trkpt lat="45.84184" lon="-0.70749">
        <ele>26</ele>
        <time>2017-06-25T07:21:34.999Z</time>
      </trkpt>
      <trkpt lat="45.84184" lon="-0.70747">
        <ele>26</ele>
        <time>2017-06-25T07:21:35.999Z</time>
      </trkpt>
      <trkpt lat="45.84183" lon="-0.70743">
        <ele>26</ele>
        <time>2017-06-25T07:21:37.999Z</time>
      </trkpt>
      <trkpt lat="45.84184" lon="-0.70742">
        <ele>26</ele>
        <time>2017-06-25T07:21:38.999Z</time>
      </trkpt>
      <trkpt lat="45.84184" lon="-0.70739">
        <ele>26</ele>
        <time>2017-06-25T07:21:39.999Z</time>
      </trkpt>
      <trkpt lat="45.84183" lon="-0.70737">
        <ele>26</ele>
        <time>2017-06-25T07:21:40.999Z</time>
      </trkpt>
      <trkpt lat="45.84182" lon="-0.70735">
        <ele>26</ele>
        <time>2017-06-25T07:21:41.999Z</time>
      </trkpt>
      <trkpt lat="45.84182" lon="-0.70732">
        <ele>26</ele>
        <time>2017-06-25T07:21:42.999Z</time>
      </trkpt>
      <trkpt lat="45.84183" lon="-0.70728">
        <ele>26</ele>
        <time>2017-06-25T07:21:44.999Z</time>
      </trkpt>
      <trkpt lat="45.84183" lon="-0.70727">
        <ele>26</ele>
        <time>2017-06-25T07:21:45.999Z</time>
      </trkpt>
      <trkpt lat="45.84184" lon="-0.70723">
        <ele>26</ele>
        <time>2017-06-25T07:21:47.999Z</time>
      </trkpt>
      <trkpt lat="45.84185" lon="-0.70721">
        <ele>26</ele>
        <time>2017-06-25T07:21:48.999Z</time>
      </trkpt>
      <trkpt lat="45.84186" lon="-0.7072">
        <ele>26</ele>
        <time>2017-06-25T07:21:49.999Z</time>
      </trkpt>
      <trkpt lat="45.84187" lon="-0.70718">
        <ele>26</ele>
        <time>2017-06-25T07:21:50.999Z</time>
      </trkpt>
      <trkpt lat="45.84187" lon="-0.70716">
        <ele>26</ele>
        <time>2017-06-25T07:21:51.999Z</time>
      </trkpt>
      <trkpt lat="45.84188" lon="-0.70714">
        <ele>26</ele>
        <time>2017-06-25T07:21:52.999Z</time>
      </trkpt>
      <trkpt lat="45.84189" lon="-0.70712">
        <ele>26</ele>
        <time>2017-06-25T07:21:53.999Z</time>
      </trkpt>
      <trkpt lat="45.8419" lon="-0.70711">
        <ele>26</ele>
        <time>2017-06-25T07:21:54.999Z</time>
      </trkpt>
      <trkpt lat="45.8419" lon="-0.70709">
        <ele>26</ele>
        <time>2017-06-25T07:21:55.999Z</time>
      </trkpt>
      <trkpt lat="45.84191" lon="-0.70707">
        <ele>26</ele>
        <time>2017-06-25T07:21:56.999Z</time>
      </trkpt>
      <trkpt lat="45.84192" lon="-0.70706">
        <ele>26</ele>
        <time>2017-06-25T07:21:57.999Z</time>
      </trkpt>
      <trkpt lat="45.84192" lon="-0.70705">
        <ele>26</ele>
        <time>2017-06-25T07:21:58.999Z</time>
      </trkpt>
      <trkpt lat="45.84193" lon="-0.70703">
        <ele>26</ele>
        <time>2017-06-25T07:22:00.999Z</time>
      </trkpt>
      <trkpt lat="45.84194" lon="-0.70701">
        <ele>26</ele>
        <time>2017-06-25T07:22:01.999Z</time>
      </trkpt>
      <trkpt lat="45.84196" lon="-0.70701">
        <ele>26</ele>
        <time>2017-06-25T07:22:03.999Z</time>
      </trkpt>
      <trkpt lat="45.84197" lon="-0.707">
        <ele>26</ele>
        <time>2017-06-25T07:22:04.999Z</time>
      </trkpt>
      <trkpt lat="45.84198" lon="-0.70698">
        <ele>26</ele>
        <time>2017-06-25T07:22:06.999Z</time>
      </trkpt>
      <trkpt lat="45.842" lon="-0.70697">
        <ele>26</ele>
        <time>2017-06-25T07:22:08.999Z</time>
      </trkpt>
      <trkpt lat="45.84202" lon="-0.70697">
        <ele>26</ele>
        <time>2017-06-25T07:22:10.999Z</time>
      </trkpt>
      <trkpt lat="45.84203" lon="-0.70696">
        <ele>26</ele>
        <time>2017-06-25T07:22:11.999Z</time>
      </trkpt>
      <trkpt lat="45.84205" lon="-0.70695">
        <ele>26</ele>
        <time>2017-06-25T07:22:12.999Z</time>
      </trkpt>
      <trkpt lat="45.84206" lon="-0.70694">
        <ele>26</ele>
        <time>2017-06-25T07:22:13.999Z</time>
      </trkpt>
      <trkpt lat="45.84207" lon="-0.70692">
        <ele>26</ele>
        <time>2017-06-25T07:22:14.999Z</time>
      </trkpt>
      <trkpt lat="45.84208" lon="-0.7069">
        <ele>26</ele>
        <time>2017-06-25T07:22:15.999Z</time>
      </trkpt>
      <trkpt lat="45.84209" lon="-0.70689">
        <ele>26</ele>
        <time>2017-06-25T07:22:16.999Z</time>
      </trkpt>
      <trkpt lat="45.84211" lon="-0.70689">
        <ele>26</ele>
        <time>2017-06-25T07:22:17.999Z</time>
      </trkpt>
      <trkpt lat="45.84213" lon="-0.70688">
        <ele>26</ele>
        <time>2017-06-25T07:22:18.999Z</time>
      </trkpt>
      <trkpt lat="45.84214" lon="-0.70687">
        <ele>26</ele>
        <time>2017-06-25T07:22:19.999Z</time>
      </trkpt>
      <trkpt lat="45.84216" lon="-0.70686">
        <ele>26</ele>
        <time>2017-06-25T07:22:20.999Z</time>
      </trkpt>
      <trkpt lat="45.84216" lon="-0.70685">
        <ele>26</ele>
        <time>2017-06-25T07:22:21.999Z</time>
      </trkpt>
      <trkpt lat="45.84217" lon="-0.70683">
        <ele>26</ele>
        <time>2017-06-25T07:22:22.999Z</time>
      </trkpt>
      <trkpt lat="45.84218" lon="-0.70681">
        <ele>26</ele>
        <time>2017-06-25T07:22:23.999Z</time>
      </trkpt>
      <trkpt lat="45.84218" lon="-0.70679">
        <ele>26</ele>
        <time>2017-06-25T07:22:24.999Z</time>
      </trkpt>
      <trkpt lat="45.84218" lon="-0.70678">
        <ele>26</ele>
        <time>2017-06-25T07:22:25.999Z</time>
      </trkpt>
      <trkpt lat="45.84218" lon="-0.70676">
        <ele>26</ele>
        <time>2017-06-25T07:22:26.999Z</time>
      </trkpt>
      <trkpt lat="45.84219" lon="-0.70674">
        <ele>26</ele>
        <time>2017-06-25T07:22:28.999Z</time>
      </trkpt>
      <trkpt lat="45.84219" lon="-0.70672">
        <ele>26</ele>
        <time>2017-06-25T07:22:29.999Z</time>
      </trkpt>
      <trkpt lat="45.8422" lon="-0.7067">
        <ele>26</ele>
        <time>2017-06-25T07:22:31.999Z</time>
      </trkpt>
      <trkpt lat="45.8422" lon="-0.70669">
        <ele>26</ele>
        <time>2017-06-25T07:22:33.999Z</time>
      </trkpt>
      <trkpt lat="45.84219" lon="-0.70668">
        <ele>26</ele>
        <time>2017-06-25T07:22:34.999Z</time>
      </trkpt>
      <trkpt lat="45.84218" lon="-0.70666">
        <ele>25</ele>
        <time>2017-06-25T07:22:37.999Z</time>
      </trkpt>
      <trkpt lat="45.84218" lon="-0.70665">
        <ele>25</ele>
        <time>2017-06-25T07:22:38.999Z</time>
      </trkpt>
      <trkpt lat="45.84217" lon="-0.70662">
        <ele>25</ele>
        <time>2017-06-25T07:22:39.999Z</time>
      </trkpt>
      <trkpt lat="45.84215" lon="-0.7066">
        <ele>25</ele>
        <time>2017-06-25T07:22:40.999Z</time>
      </trkpt>
      <trkpt lat="45.84214" lon="-0.70659">
        <ele>25</ele>
        <time>2017-06-25T07:22:41.999Z</time>
      </trkpt>
      <trkpt lat="45.84213" lon="-0.70657">
        <ele>25</ele>
        <time>2017-06-25T07:22:42.999Z</time>
      </trkpt>
      <trkpt lat="45.84213" lon="-0.70655">
        <ele>25</ele>
        <time>2017-06-25T07:22:43.999Z</time>
      </trkpt>
      <trkpt lat="45.84212" lon="-0.70654">
        <ele>25</ele>
        <time>2017-06-25T07:22:44.999Z</time>
      </trkpt>
      <trkpt lat="45.84211" lon="-0.70653">
        <ele>25</ele>
        <time>2017-06-25T07:22:45.999Z</time>
      </trkpt>
      <trkpt lat="45.8421" lon="-0.70652">
        <ele>25</ele>
        <time>2017-06-25T07:22:46.999Z</time>
      </trkpt>
      <trkpt lat="45.84209" lon="-0.70651">
        <ele>25</ele>
        <time>2017-06-25T07:22:47.999Z</time>
      </trkpt>
      <trkpt lat="45.84208" lon="-0.7065">
        <ele>25</ele>
        <time>2017-06-25T07:22:48.999Z</time>
      </trkpt>
      <trkpt lat="45.84207" lon="-0.70649">
        <ele>25</ele>
        <time>2017-06-25T07:22:49.999Z</time>
      </trkpt>
      <trkpt lat="45.84205" lon="-0.70648">
        <ele>25</ele>
        <time>2017-06-25T07:22:50.999Z</time>
      </trkpt>
      <trkpt lat="45.84204" lon="-0.70645">
        <ele>25</ele>
        <time>2017-06-25T07:22:51.999Z</time>
      </trkpt>
      <trkpt lat="45.84202" lon="-0.70645">
        <ele>25</ele>
        <time>2017-06-25T07:22:53.999Z</time>
      </trkpt>
      <trkpt lat="45.84201" lon="-0.70644">
        <ele>25</ele>
        <time>2017-06-25T07:22:55.999Z</time>
      </trkpt>
      <trkpt lat="45.842" lon="-0.70644">
        <ele>25</ele>
        <time>2017-06-25T07:22:56.999Z</time>
      </trkpt>
      <trkpt lat="45.84199" lon="-0.70644">
        <ele>25</ele>
        <time>2017-06-25T07:22:58.999Z</time>
      </trkpt>
      <trkpt lat="45.84198" lon="-0.70643">
        <ele>25</ele>
        <time>2017-06-25T07:22:59.999Z</time>
      </trkpt>
      <trkpt lat="45.84197" lon="-0.70642">
        <ele>25</ele>
        <time>2017-06-25T07:23:00.999Z</time>
      </trkpt>
      <trkpt lat="45.84196" lon="-0.70641">
        <ele>25</ele>
        <time>2017-06-25T07:23:01.999Z</time>
      </trkpt>
      <trkpt lat="45.84195" lon="-0.7064">
        <ele>25</ele>
        <time>2017-06-25T07:23:02.999Z</time>
      </trkpt>
      <trkpt lat="45.84193" lon="-0.70638">
        <ele>25</ele>
        <time>2017-06-25T07:23:04.999Z</time>
      </trkpt>
      <trkpt lat="45.84192" lon="-0.70637">
        <ele>25</ele>
        <time>2017-06-25T07:23:05.999Z</time>
      </trkpt>
      <trkpt lat="45.84191" lon="-0.70632">
        <ele>25</ele>
        <time>2017-06-25T07:23:07.999Z</time>
      </trkpt>
      <trkpt lat="45.84191" lon="-0.70629">
        <ele>25</ele>
        <time>2017-06-25T07:23:09.999Z</time>
      </trkpt>
      <trkpt lat="45.8419" lon="-0.70628">
        <ele>25</ele>
        <time>2017-06-25T07:23:10.999Z</time>
      </trkpt>
      <trkpt lat="45.8419" lon="-0.70626">
        <ele>25</ele>
        <time>2017-06-25T07:23:11.999Z</time>
      </trkpt>
      <trkpt lat="45.84191" lon="-0.70624">
        <ele>25</ele>
        <time>2017-06-25T07:23:13.999Z</time>
      </trkpt>
      <trkpt lat="45.84191" lon="-0.70623">
        <ele>25</ele>
        <time>2017-06-25T07:23:14.999Z</time>
      </trkpt>
      <trkpt lat="45.84191" lon="-0.70621">
        <ele>25</ele>
        <time>2017-06-25T07:23:15.999Z</time>
      </trkpt>
      <trkpt lat="45.84191" lon="-0.7062">
        <ele>25</ele>
        <time>2017-06-25T07:23:17.999Z</time>
      </trkpt>
      <trkpt lat="45.84191" lon="-0.70618">
        <ele>25</ele>
        <time>2017-06-25T07:23:18.999Z</time>
      </trkpt>
      <trkpt lat="45.84192" lon="-0.70616">
        <ele>25</ele>
        <time>2017-06-25T07:23:19.999Z</time>
      </trkpt>
      <trkpt lat="45.84193" lon="-0.70615">
        <ele>25</ele>
        <time>2017-06-25T07:23:20.999Z</time>
      </trkpt>
      <trkpt lat="45.84193" lon="-0.70614">
        <ele>25</ele>
        <time>2017-06-25T07:23:21.999Z</time>
      </trkpt>
      <trkpt lat="45.84194" lon="-0.70613">
        <ele>25</ele>
        <time>2017-06-25T07:23:22.999Z</time>
      </trkpt>
      <trkpt lat="45.84196" lon="-0.70613">
        <ele>25</ele>
        <time>2017-06-25T07:23:23.999Z</time>
      </trkpt>
      <trkpt lat="45.84197" lon="-0.70611">
        <ele>25</ele>
        <time>2017-06-25T07:23:24.999Z</time>
      </trkpt>
      <trkpt lat="45.84197" lon="-0.7061">
        <ele>25</ele>
        <time>2017-06-25T07:23:25.999Z</time>
      </trkpt>
      <trkpt lat="45.84198" lon="-0.70607">
        <ele>25</ele>
        <time>2017-06-25T07:23:26.999Z</time>
      </trkpt>
      <trkpt lat="45.84198" lon="-0.70606">
        <ele>25</ele>
        <time>2017-06-25T07:23:27.999Z</time>
      </trkpt>
      <trkpt lat="45.84199" lon="-0.70604">
        <ele>25</ele>
        <time>2017-06-25T07:23:28.999Z</time>
      </trkpt>
      <trkpt lat="45.84199" lon="-0.70602">
        <ele>25</ele>
        <time>2017-06-25T07:23:29.999Z</time>
      </trkpt>
      <trkpt lat="45.84199" lon="-0.70599">
        <ele>25</ele>
        <time>2017-06-25T07:23:30.999Z</time>
      </trkpt>
      <trkpt lat="45.84199" lon="-0.70597">
        <ele>25</ele>
        <time>2017-06-25T07:23:31.999Z</time>
      </trkpt>
      <trkpt lat="45.84199" lon="-0.70595">
        <ele>25</ele>
        <time>2017-06-25T07:23:32.999Z</time>
      </trkpt>
      <trkpt lat="45.84199" lon="-0.70594">
        <ele>25</ele>
        <time>2017-06-25T07:23:33.999Z</time>
      </trkpt>
      <trkpt lat="45.842" lon="-0.70591">
        <ele>25</ele>
        <time>2017-06-25T07:23:34.999Z</time>
      </trkpt>
      <trkpt lat="45.842" lon="-0.7059">
        <ele>25</ele>
        <time>2017-06-25T07:23:35.999Z</time>
      </trkpt>
      <trkpt lat="45.84199" lon="-0.70588">
        <ele>25</ele>
        <time>2017-06-25T07:23:37.999Z</time>
      </trkpt>
      <trkpt lat="45.84199" lon="-0.70587">
        <ele>25</ele>
        <time>2017-06-25T07:23:38.999Z</time>
      </trkpt>
      <trkpt lat="45.842" lon="-0.70583">
        <ele>25</ele>
        <time>2017-06-25T07:23:41.999Z</time>
      </trkpt>
      <trkpt lat="45.84198" lon="-0.70583">
        <ele>24</ele>
        <time>2017-06-25T07:23:43.999Z</time>
      </trkpt>
      <trkpt lat="45.84197" lon="-0.70583">
        <ele>24</ele>
        <time>2017-06-25T07:23:44.999Z</time>
      </trkpt>
      <trkpt lat="45.84197" lon="-0.70581">
        <ele>24</ele>
        <time>2017-06-25T07:23:46.999Z</time>
      </trkpt>
      <trkpt lat="45.84195" lon="-0.70583">
        <ele>24</ele>
        <time>2017-06-25T07:23:48.999Z</time>
      </trkpt>
      <trkpt lat="45.84193" lon="-0.70583">
        <ele>24</ele>
        <time>2017-06-25T07:23:50.999Z</time>
      </trkpt>
      <trkpt lat="45.84192" lon="-0.70584">
        <ele>25</ele>
        <time>2017-06-25T07:23:51.999Z</time>
      </trkpt>
      <trkpt lat="45.84191" lon="-0.70585">
        <ele>25</ele>
        <time>2017-06-25T07:23:52.999Z</time>
      </trkpt>
      <trkpt lat="45.84189" lon="-0.70584">
        <ele>25</ele>
        <time>2017-06-25T07:23:53.999Z</time>
      </trkpt>
      <trkpt lat="45.84187" lon="-0.70584">
        <ele>25</ele>
        <time>2017-06-25T07:23:54.999Z</time>
      </trkpt>
      <trkpt lat="45.84185" lon="-0.70585">
        <ele>25</ele>
        <time>2017-06-25T07:23:56.999Z</time>
      </trkpt>
      <trkpt lat="45.84183" lon="-0.70585">
        <ele>25</ele>
        <time>2017-06-25T07:23:58.999Z</time>
      </trkpt>
      <trkpt lat="45.84182" lon="-0.70585">
        <ele>25</ele>
        <time>2017-06-25T07:23:59.999Z</time>
      </trkpt>
      <trkpt lat="45.8418" lon="-0.70586">
        <ele>25</ele>
        <time>2017-06-25T07:24:00.999Z</time>
      </trkpt>
      <trkpt lat="45.84178" lon="-0.70586">
        <ele>25</ele>
        <time>2017-06-25T07:24:01.999Z</time>
      </trkpt>
      <trkpt lat="45.84177" lon="-0.70587">
        <ele>25</ele>
        <time>2017-06-25T07:24:02.999Z</time>
      </trkpt>
      <trkpt lat="45.84176" lon="-0.70587">
        <ele>25</ele>
        <time>2017-06-25T07:24:03.999Z</time>
      </trkpt>
      <trkpt lat="45.84174" lon="-0.70587">
        <ele>25</ele>
        <time>2017-06-25T07:24:04.999Z</time>
      </trkpt>
      <trkpt lat="45.84172" lon="-0.70587">
        <ele>25</ele>
        <time>2017-06-25T07:24:05.999Z</time>
      </trkpt>
      <trkpt lat="45.84169" lon="-0.70587">
        <ele>25</ele>
        <time>2017-06-25T07:24:08.999Z</time>
      </trkpt>
      <trkpt lat="45.84168" lon="-0.70587">
        <ele>25</ele>
        <time>2017-06-25T07:24:09.999Z</time>
      </trkpt>
      <trkpt lat="45.84167" lon="-0.70586">
        <ele>25</ele>
        <time>2017-06-25T07:24:10.999Z</time>
      </trkpt>
      <trkpt lat="45.84165" lon="-0.70586">
        <ele>25</ele>
        <time>2017-06-25T07:24:11.999Z</time>
      </trkpt>
      <trkpt lat="45.84164" lon="-0.70587">
        <ele>25</ele>
        <time>2017-06-25T07:24:12.999Z</time>
      </trkpt>
      <trkpt lat="45.84162" lon="-0.70587">
        <ele>25</ele>
        <time>2017-06-25T07:24:13.999Z</time>
      </trkpt>
      <trkpt lat="45.8416" lon="-0.70587">
        <ele>25</ele>
        <time>2017-06-25T07:24:14.999Z</time>
      </trkpt>
      <trkpt lat="45.84159" lon="-0.70587">
        <ele>25</ele>
        <time>2017-06-25T07:24:15.999Z</time>
      </trkpt>
      <trkpt lat="45.84158" lon="-0.70587">
        <ele>25</ele>
        <time>2017-06-25T07:24:16.999Z</time>
      </trkpt>
      <trkpt lat="45.84156" lon="-0.70586">
        <ele>25</ele>
        <time>2017-06-25T07:24:17.999Z</time>
      </trkpt>
      <trkpt lat="45.84155" lon="-0.70586">
        <ele>25</ele>
        <time>2017-06-25T07:24:18.999Z</time>
      </trkpt>
      <trkpt lat="45.84153" lon="-0.70586">
        <ele>25</ele>
        <time>2017-06-25T07:24:19.999Z</time>
      </trkpt>
      <trkpt lat="45.84152" lon="-0.70586">
        <ele>25</ele>
        <time>2017-06-25T07:24:20.999Z</time>
      </trkpt>
      <trkpt lat="45.84151" lon="-0.70586">
        <ele>25</ele>
        <time>2017-06-25T07:24:21.999Z</time>
      </trkpt>
      <trkpt lat="45.84148" lon="-0.70586">
        <ele>25</ele>
        <time>2017-06-25T07:24:23.999Z</time>
      </trkpt>
      <trkpt lat="45.84147" lon="-0.70586">
        <ele>25</ele>
        <time>2017-06-25T07:24:24.999Z</time>
      </trkpt>
      <trkpt lat="45.84145" lon="-0.70587">
        <ele>25</ele>
        <time>2017-06-25T07:24:25.999Z</time>
      </trkpt>
      <trkpt lat="45.84144" lon="-0.70587">
        <ele>25</ele>
        <time>2017-06-25T07:24:26.999Z</time>
      </trkpt>
      <trkpt lat="45.84143" lon="-0.70587">
        <ele>25</ele>
        <time>2017-06-25T07:24:27.999Z</time>
      </trkpt>
      <trkpt lat="45.84142" lon="-0.70586">
        <ele>25</ele>
        <time>2017-06-25T07:24:28.999Z</time>
      </trkpt>
      <trkpt lat="45.8414" lon="-0.70586">
        <ele>25</ele>
        <time>2017-06-25T07:24:29.999Z</time>
      </trkpt>
      <trkpt lat="45.84139" lon="-0.70585">
        <ele>25</ele>
        <time>2017-06-25T07:24:30.999Z</time>
      </trkpt>
      <trkpt lat="45.84138" lon="-0.70584">
        <ele>25</ele>
        <time>2017-06-25T07:24:31.999Z</time>
      </trkpt>
      <trkpt lat="45.84137" lon="-0.70584">
        <ele>25</ele>
        <time>2017-06-25T07:24:32.999Z</time>
      </trkpt>
      <trkpt lat="45.84135" lon="-0.70583">
        <ele>24</ele>
        <time>2017-06-25T07:24:34.999Z</time>
      </trkpt>
      <trkpt lat="45.84131" lon="-0.70582">
        <ele>24</ele>
        <time>2017-06-25T07:24:37.999Z</time>
      </trkpt>
      <trkpt lat="45.8413" lon="-0.70581">
        <ele>24</ele>
        <time>2017-06-25T07:24:38.999Z</time>
      </trkpt>
      <trkpt lat="45.84127" lon="-0.7058">
        <ele>24</ele>
        <time>2017-06-25T07:24:40.999Z</time>
      </trkpt>
      <trkpt lat="45.84124" lon="-0.7058">
        <ele>24</ele>
        <time>2017-06-25T07:24:42.999Z</time>
      </trkpt>
      <trkpt lat="45.84123" lon="-0.70579">
        <ele>24</ele>
        <time>2017-06-25T07:24:43.999Z</time>
      </trkpt>
      <trkpt lat="45.84122" lon="-0.70579">
        <ele>24</ele>
        <time>2017-06-25T07:24:44.999Z</time>
      </trkpt>
      <trkpt lat="45.84119" lon="-0.70579">
        <ele>24</ele>
        <time>2017-06-25T07:24:46.999Z</time>
      </trkpt>
      <trkpt lat="45.84118" lon="-0.70579">
        <ele>24</ele>
        <time>2017-06-25T07:24:47.999Z</time>
      </trkpt>
      <trkpt lat="45.84116" lon="-0.7058">
        <ele>24</ele>
        <time>2017-06-25T07:24:48.999Z</time>
      </trkpt>
      <trkpt lat="45.84115" lon="-0.7058">
        <ele>24</ele>
        <time>2017-06-25T07:24:49.999Z</time>
      </trkpt>
      <trkpt lat="45.84113" lon="-0.70579">
        <ele>24</ele>
        <time>2017-06-25T07:24:50.999Z</time>
      </trkpt>
      <trkpt lat="45.8411" lon="-0.7058">
        <ele>24</ele>
        <time>2017-06-25T07:24:52.999Z</time>
      </trkpt>
      <trkpt lat="45.84106" lon="-0.70581">
        <ele>24</ele>
        <time>2017-06-25T07:24:54.999Z</time>
      </trkpt>
      <trkpt lat="45.84105" lon="-0.70582">
        <ele>24</ele>
        <time>2017-06-25T07:24:55.999Z</time>
      </trkpt>
      <trkpt lat="45.84103" lon="-0.70582">
        <ele>24</ele>
        <time>2017-06-25T07:24:56.999Z</time>
      </trkpt>
      <trkpt lat="45.84102" lon="-0.70581">
        <ele>24</ele>
        <time>2017-06-25T07:24:57.999Z</time>
      </trkpt>
      <trkpt lat="45.84099" lon="-0.70581">
        <ele>24</ele>
        <time>2017-06-25T07:24:59.999Z</time>
      </trkpt>
      <trkpt lat="45.84098" lon="-0.70581">
        <ele>24</ele>
        <time>2017-06-25T07:25:00.999Z</time>
      </trkpt>
      <trkpt lat="45.84097" lon="-0.70582">
        <ele>24</ele>
        <time>2017-06-25T07:25:01.999Z</time>
      </trkpt>
      <trkpt lat="45.84095" lon="-0.70582">
        <ele>24</ele>
        <time>2017-06-25T07:25:02.999Z</time>
      </trkpt>
      <trkpt lat="45.84095" lon="-0.70583">
        <ele>24</ele>
        <time>2017-06-25T07:25:03.999Z</time>
      </trkpt>
      <trkpt lat="45.84093" lon="-0.70583">
        <ele>24</ele>
        <time>2017-06-25T07:25:04.999Z</time>
      </trkpt>
      <trkpt lat="45.84091" lon="-0.70583">
        <ele>24</ele>
        <time>2017-06-25T07:25:05.999Z</time>
      </trkpt>
      <trkpt lat="45.8409" lon="-0.70583">
        <ele>24</ele>
        <time>2017-06-25T07:25:06.999Z</time>
      </trkpt>
      <trkpt lat="45.84089" lon="-0.70583">
        <ele>24</ele>
        <time>2017-06-25T07:25:07.999Z</time>
      </trkpt>
      <trkpt lat="45.84087" lon="-0.70584">
        <ele>24</ele>
        <time>2017-06-25T07:25:08.999Z</time>
      </trkpt>
      <trkpt lat="45.84084" lon="-0.70584">
        <ele>24</ele>
        <time>2017-06-25T07:25:10.999Z</time>
      </trkpt>
      <trkpt lat="45.84083" lon="-0.70585">
        <ele>24</ele>
        <time>2017-06-25T07:25:11.999Z</time>
      </trkpt>
      <trkpt lat="45.84082" lon="-0.70585">
        <ele>24</ele>
        <time>2017-06-25T07:25:12.999Z</time>
      </trkpt>
      <trkpt lat="45.84081" lon="-0.70585">
        <ele>24</ele>
        <time>2017-06-25T07:25:13.999Z</time>
      </trkpt>
      <trkpt lat="45.84078" lon="-0.70586">
        <ele>24</ele>
        <time>2017-06-25T07:25:16.999Z</time>
      </trkpt>
      <trkpt lat="45.84077" lon="-0.70586">
        <ele>24</ele>
        <time>2017-06-25T07:25:17.999Z</time>
      </trkpt>
      <trkpt lat="45.84075" lon="-0.70586">
        <ele>24</ele>
        <time>2017-06-25T07:25:19.999Z</time>
      </trkpt>
      <trkpt lat="45.84074" lon="-0.70586">
        <ele>24</ele>
        <time>2017-06-25T07:25:20.999Z</time>
      </trkpt>
      <trkpt lat="45.84073" lon="-0.70587">
        <ele>24</ele>
        <time>2017-06-25T07:25:21.999Z</time>
      </trkpt>
      <trkpt lat="45.84072" lon="-0.70587">
        <ele>24</ele>
        <time>2017-06-25T07:25:22.999Z</time>
      </trkpt>
      <trkpt lat="45.84071" lon="-0.70587">
        <ele>24</ele>
        <time>2017-06-25T07:25:23.999Z</time>
      </trkpt>
      <trkpt lat="45.84069" lon="-0.70588">
        <ele>24</ele>
        <time>2017-06-25T07:25:24.999Z</time>
      </trkpt>
      <trkpt lat="45.84066" lon="-0.70587">
        <ele>24</ele>
        <time>2017-06-25T07:25:26.999Z</time>
      </trkpt>
      <trkpt lat="45.84064" lon="-0.70587">
        <ele>24</ele>
        <time>2017-06-25T07:25:27.999Z</time>
      </trkpt>
      <trkpt lat="45.84063" lon="-0.70587">
        <ele>23</ele>
        <time>2017-06-25T07:25:28.999Z</time>
      </trkpt>
      <trkpt lat="45.84061" lon="-0.70587">
        <ele>23</ele>
        <time>2017-06-25T07:25:29.999Z</time>
      </trkpt>
      <trkpt lat="45.8406" lon="-0.70588">
        <ele>23</ele>
        <time>2017-06-25T07:25:30.999Z</time>
      </trkpt>
      <trkpt lat="45.84059" lon="-0.70588">
        <ele>23</ele>
        <time>2017-06-25T07:25:31.999Z</time>
      </trkpt>
      <trkpt lat="45.84058" lon="-0.70589">
        <ele>23</ele>
        <time>2017-06-25T07:25:32.999Z</time>
      </trkpt>
      <trkpt lat="45.84056" lon="-0.7059">
        <ele>23</ele>
        <time>2017-06-25T07:25:33.999Z</time>
      </trkpt>
      <trkpt lat="45.84055" lon="-0.70591">
        <ele>23</ele>
        <time>2017-06-25T07:25:34.999Z</time>
      </trkpt>
      <trkpt lat="45.84054" lon="-0.70591">
        <ele>23</ele>
        <time>2017-06-25T07:25:35.999Z</time>
      </trkpt>
      <trkpt lat="45.84053" lon="-0.70592">
        <ele>23</ele>
        <time>2017-06-25T07:25:36.999Z</time>
      </trkpt>
      <trkpt lat="45.84052" lon="-0.70593">
        <ele>23</ele>
        <time>2017-06-25T07:25:37.999Z</time>
      </trkpt>
      <trkpt lat="45.8405" lon="-0.70594">
        <ele>23</ele>
        <time>2017-06-25T07:25:38.999Z</time>
      </trkpt>
      <trkpt lat="45.84049" lon="-0.70594">
        <ele>23</ele>
        <time>2017-06-25T07:25:39.999Z</time>
      </trkpt>
      <trkpt lat="45.84047" lon="-0.70594">
        <ele>23</ele>
        <time>2017-06-25T07:25:40.999Z</time>
      </trkpt>
      <trkpt lat="45.84046" lon="-0.70595">
        <ele>23</ele>
        <time>2017-06-25T07:25:41.999Z</time>
      </trkpt>
      <trkpt lat="45.84045" lon="-0.70595">
        <ele>23</ele>
        <time>2017-06-25T07:25:42.999Z</time>
      </trkpt>
      <trkpt lat="45.84043" lon="-0.70596">
        <ele>23</ele>
        <time>2017-06-25T07:25:43.999Z</time>
      </trkpt>
      <trkpt lat="45.84042" lon="-0.70597">
        <ele>23</ele>
        <time>2017-06-25T07:25:44.999Z</time>
      </trkpt>
      <trkpt lat="45.84041" lon="-0.70598">
        <ele>23</ele>
        <time>2017-06-25T07:25:45.999Z</time>
      </trkpt>
      <trkpt lat="45.84039" lon="-0.706">
        <ele>23</ele>
        <time>2017-06-25T07:25:46.999Z</time>
      </trkpt>
      <trkpt lat="45.84037" lon="-0.70601">
        <ele>23</ele>
        <time>2017-06-25T07:25:47.999Z</time>
      </trkpt>
      <trkpt lat="45.84036" lon="-0.70601">
        <ele>23</ele>
        <time>2017-06-25T07:25:48.999Z</time>
      </trkpt>
      <trkpt lat="45.84035" lon="-0.70601">
        <ele>23</ele>
        <time>2017-06-25T07:25:49.999Z</time>
      </trkpt>
      <trkpt lat="45.84033" lon="-0.70602">
        <ele>23</ele>
        <time>2017-06-25T07:25:50.999Z</time>
      </trkpt>
      <trkpt lat="45.84032" lon="-0.70603">
        <ele>23</ele>
        <time>2017-06-25T07:25:51.999Z</time>
      </trkpt>
      <trkpt lat="45.84031" lon="-0.70604">
        <ele>23</ele>
        <time>2017-06-25T07:25:52.999Z</time>
      </trkpt>
      <trkpt lat="45.8403" lon="-0.70604">
        <ele>23</ele>
        <time>2017-06-25T07:25:53.999Z</time>
      </trkpt>
      <trkpt lat="45.84029" lon="-0.70605">
        <ele>23</ele>
        <time>2017-06-25T07:25:54.999Z</time>
      </trkpt>
      <trkpt lat="45.84028" lon="-0.70606">
        <ele>23</ele>
        <time>2017-06-25T07:25:55.999Z</time>
      </trkpt>
      <trkpt lat="45.84026" lon="-0.70607">
        <ele>23</ele>
        <time>2017-06-25T07:25:56.999Z</time>
      </trkpt>
      <trkpt lat="45.84025" lon="-0.70607">
        <ele>23</ele>
        <time>2017-06-25T07:25:57.999Z</time>
      </trkpt>
      <trkpt lat="45.84023" lon="-0.70609">
        <ele>23</ele>
        <time>2017-06-25T07:25:59.999Z</time>
      </trkpt>
      <trkpt lat="45.84022" lon="-0.7061">
        <ele>23</ele>
        <time>2017-06-25T07:26:00.999Z</time>
      </trkpt>
      <trkpt lat="45.84021" lon="-0.70612">
        <ele>23</ele>
        <time>2017-06-25T07:26:01.999Z</time>
      </trkpt>
      <trkpt lat="45.8402" lon="-0.70612">
        <ele>23</ele>
        <time>2017-06-25T07:26:02.999Z</time>
      </trkpt>
      <trkpt lat="45.84018" lon="-0.70613">
        <ele>23</ele>
        <time>2017-06-25T07:26:03.999Z</time>
      </trkpt>
      <trkpt lat="45.84017" lon="-0.70613">
        <ele>23</ele>
        <time>2017-06-25T07:26:04.999Z</time>
      </trkpt>
      <trkpt lat="45.84016" lon="-0.70614">
        <ele>23</ele>
        <time>2017-06-25T07:26:05.999Z</time>
      </trkpt>
      <trkpt lat="45.84014" lon="-0.70615">
        <ele>23</ele>
        <time>2017-06-25T07:26:06.999Z</time>
      </trkpt>
      <trkpt lat="45.84013" lon="-0.70615">
        <ele>23</ele>
        <time>2017-06-25T07:26:07.999Z</time>
      </trkpt>
      <trkpt lat="45.84011" lon="-0.70616">
        <ele>23</ele>
        <time>2017-06-25T07:26:08.999Z</time>
      </trkpt>
      <trkpt lat="45.8401" lon="-0.70616">
        <ele>23</ele>
        <time>2017-06-25T07:26:09.999Z</time>
      </trkpt>
      <trkpt lat="45.84008" lon="-0.70617">
        <ele>23</ele>
        <time>2017-06-25T07:26:10.999Z</time>
      </trkpt>
      <trkpt lat="45.84007" lon="-0.70618">
        <ele>23</ele>
        <time>2017-06-25T07:26:11.999Z</time>
      </trkpt>
      <trkpt lat="45.84006" lon="-0.70618">
        <ele>23</ele>
        <time>2017-06-25T07:26:12.999Z</time>
      </trkpt>
      <trkpt lat="45.84004" lon="-0.70618">
        <ele>23</ele>
        <time>2017-06-25T07:26:13.999Z</time>
      </trkpt>
      <trkpt lat="45.84002" lon="-0.70619">
        <ele>23</ele>
        <time>2017-06-25T07:26:14.999Z</time>
      </trkpt>
      <trkpt lat="45.84001" lon="-0.70618">
        <ele>23</ele>
        <time>2017-06-25T07:26:15.999Z</time>
      </trkpt>
      <trkpt lat="45.83999" lon="-0.70618">
        <ele>21</ele>
        <time>2017-06-25T07:26:16.999Z</time>
      </trkpt>
      <trkpt lat="45.83998" lon="-0.70617">
        <ele>21</ele>
        <time>2017-06-25T07:26:17.999Z</time>
      </trkpt>
      <trkpt lat="45.83997" lon="-0.70617">
        <ele>21</ele>
        <time>2017-06-25T07:26:18.999Z</time>
      </trkpt>
      <trkpt lat="45.83995" lon="-0.70616">
        <ele>21</ele>
        <time>2017-06-25T07:26:19.999Z</time>
      </trkpt>
      <trkpt lat="45.83994" lon="-0.70615">
        <ele>21</ele>
        <time>2017-06-25T07:26:20.999Z</time>
      </trkpt>
      <trkpt lat="45.83991" lon="-0.70614">
        <ele>21</ele>
        <time>2017-06-25T07:26:22.999Z</time>
      </trkpt>
      <trkpt lat="45.83989" lon="-0.70613">
        <ele>21</ele>
        <time>2017-06-25T07:26:23.999Z</time>
      </trkpt>
      <trkpt lat="45.83988" lon="-0.70613">
        <ele>21</ele>
        <time>2017-06-25T07:26:24.999Z</time>
      </trkpt>
      <trkpt lat="45.83987" lon="-0.70612">
        <ele>21</ele>
        <time>2017-06-25T07:26:25.999Z</time>
      </trkpt>
      <trkpt lat="45.83985" lon="-0.70612">
        <ele>21</ele>
        <time>2017-06-25T07:26:26.999Z</time>
      </trkpt>
      <trkpt lat="45.83983" lon="-0.70611">
        <ele>21</ele>
        <time>2017-06-25T07:26:27.999Z</time>
      </trkpt>
      <trkpt lat="45.83982" lon="-0.70611">
        <ele>21</ele>
        <time>2017-06-25T07:26:28.999Z</time>
      </trkpt>
      <trkpt lat="45.8398" lon="-0.70609">
        <ele>21</ele>
        <time>2017-06-25T07:26:29.999Z</time>
      </trkpt>
      <trkpt lat="45.83979" lon="-0.70608">
        <ele>21</ele>
        <time>2017-06-25T07:26:30.999Z</time>
      </trkpt>
      <trkpt lat="45.83978" lon="-0.70608">
        <ele>21</ele>
        <time>2017-06-25T07:26:31.999Z</time>
      </trkpt>
      <trkpt lat="45.83977" lon="-0.70606">
        <ele>21</ele>
        <time>2017-06-25T07:26:32.999Z</time>
      </trkpt>
      <trkpt lat="45.83976" lon="-0.70606">
        <ele>21</ele>
        <time>2017-06-25T07:26:33.999Z</time>
      </trkpt>
      <trkpt lat="45.83975" lon="-0.70605">
        <ele>21</ele>
        <time>2017-06-25T07:26:34.999Z</time>
      </trkpt>
      <trkpt lat="45.83974" lon="-0.70604">
        <ele>21</ele>
        <time>2017-06-25T07:26:35.999Z</time>
      </trkpt>
      <trkpt lat="45.83973" lon="-0.70603">
        <ele>21</ele>
        <time>2017-06-25T07:26:36.999Z</time>
      </trkpt>
      <trkpt lat="45.83972" lon="-0.70601">
        <ele>21</ele>
        <time>2017-06-25T07:26:38.999Z</time>
      </trkpt>
      <trkpt lat="45.83971" lon="-0.70599">
        <ele>21</ele>
        <time>2017-06-25T07:26:39.999Z</time>
      </trkpt>
      <trkpt lat="45.83971" lon="-0.70598">
        <ele>21</ele>
        <time>2017-06-25T07:26:40.999Z</time>
      </trkpt>
      <trkpt lat="45.8397" lon="-0.70597">
        <ele>21</ele>
        <time>2017-06-25T07:26:41.999Z</time>
      </trkpt>
      <trkpt lat="45.83969" lon="-0.70595">
        <ele>21</ele>
        <time>2017-06-25T07:26:42.999Z</time>
      </trkpt>
      <trkpt lat="45.83968" lon="-0.70593">
        <ele>21</ele>
        <time>2017-06-25T07:26:43.999Z</time>
      </trkpt>
      <trkpt lat="45.83968" lon="-0.70592">
        <ele>20</ele>
        <time>2017-06-25T07:26:44.999Z</time>
      </trkpt>
      <trkpt lat="45.83966" lon="-0.7059">
        <ele>20</ele>
        <time>2017-06-25T07:26:46.999Z</time>
      </trkpt>
      <trkpt lat="45.83965" lon="-0.70589">
        <ele>20</ele>
        <time>2017-06-25T07:26:47.999Z</time>
      </trkpt>
      <trkpt lat="45.83964" lon="-0.70588">
        <ele>20</ele>
        <time>2017-06-25T07:26:48.999Z</time>
      </trkpt>
      <trkpt lat="45.83963" lon="-0.70587">
        <ele>20</ele>
        <time>2017-06-25T07:26:49.999Z</time>
      </trkpt>
      <trkpt lat="45.83962" lon="-0.70586">
        <ele>20</ele>
        <time>2017-06-25T07:26:50.999Z</time>
      </trkpt>
      <trkpt lat="45.8396" lon="-0.70585">
        <ele>20</ele>
        <time>2017-06-25T07:26:52.999Z</time>
      </trkpt>
      <trkpt lat="45.83959" lon="-0.70584">
        <ele>20</ele>
        <time>2017-06-25T07:26:53.999Z</time>
      </trkpt>
      <trkpt lat="45.83958" lon="-0.70583">
        <ele>20</ele>
        <time>2017-06-25T07:26:54.999Z</time>
      </trkpt>
      <trkpt lat="45.83957" lon="-0.70582">
        <ele>20</ele>
        <time>2017-06-25T07:26:55.999Z</time>
      </trkpt>
      <trkpt lat="45.83955" lon="-0.7058">
        <ele>20</ele>
        <time>2017-06-25T07:26:57.999Z</time>
      </trkpt>
      <trkpt lat="45.83955" lon="-0.70579">
        <ele>20</ele>
        <time>2017-06-25T07:26:58.999Z</time>
      </trkpt>
      <trkpt lat="45.83954" lon="-0.70578">
        <ele>20</ele>
        <time>2017-06-25T07:26:59.999Z</time>
      </trkpt>
      <trkpt lat="45.83952" lon="-0.70577">
        <ele>20</ele>
        <time>2017-06-25T07:27:00.999Z</time>
      </trkpt>
      <trkpt lat="45.83951" lon="-0.70576">
        <ele>20</ele>
        <time>2017-06-25T07:27:01.999Z</time>
      </trkpt>
      <trkpt lat="45.8395" lon="-0.70575">
        <ele>20</ele>
        <time>2017-06-25T07:27:02.999Z</time>
      </trkpt>
      <trkpt lat="45.83949" lon="-0.70574">
        <ele>20</ele>
        <time>2017-06-25T07:27:03.999Z</time>
      </trkpt>
      <trkpt lat="45.83948" lon="-0.70573">
        <ele>20</ele>
        <time>2017-06-25T07:27:04.999Z</time>
      </trkpt>
      <trkpt lat="45.83947" lon="-0.70572">
        <ele>19</ele>
        <time>2017-06-25T07:27:05.999Z</time>
      </trkpt>
      <trkpt lat="45.83946" lon="-0.70571">
        <ele>19</ele>
        <time>2017-06-25T07:27:06.999Z</time>
      </trkpt>
      <trkpt lat="45.83945" lon="-0.7057">
        <ele>19</ele>
        <time>2017-06-25T07:27:07.999Z</time>
      </trkpt>
      <trkpt lat="45.83944" lon="-0.70569">
        <ele>19</ele>
        <time>2017-06-25T07:27:08.999Z</time>
      </trkpt>
      <trkpt lat="45.83943" lon="-0.70568">
        <ele>19</ele>
        <time>2017-06-25T07:27:09.999Z</time>
      </trkpt>
      <trkpt lat="45.83942" lon="-0.70567">
        <ele>19</ele>
        <time>2017-06-25T07:27:10.999Z</time>
      </trkpt>
      <trkpt lat="45.83941" lon="-0.70566">
        <ele>19</ele>
        <time>2017-06-25T07:27:11.999Z</time>
      </trkpt>
      <trkpt lat="45.8394" lon="-0.70564">
        <ele>19</ele>
        <time>2017-06-25T07:27:12.999Z</time>
      </trkpt>
      <trkpt lat="45.83939" lon="-0.70563">
        <ele>19</ele>
        <time>2017-06-25T07:27:13.999Z</time>
      </trkpt>
      <trkpt lat="45.83938" lon="-0.70562">
        <ele>19</ele>
        <time>2017-06-25T07:27:14.999Z</time>
      </trkpt>
      <trkpt lat="45.83938" lon="-0.70561">
        <ele>19</ele>
        <time>2017-06-25T07:27:15.999Z</time>
      </trkpt>
      <trkpt lat="45.83936" lon="-0.70558">
        <ele>19</ele>
        <time>2017-06-25T07:27:17.999Z</time>
      </trkpt>
      <trkpt lat="45.83936" lon="-0.70556">
        <ele>19</ele>
        <time>2017-06-25T07:27:18.999Z</time>
      </trkpt>
      <trkpt lat="45.83936" lon="-0.70554">
        <ele>19</ele>
        <time>2017-06-25T07:27:19.999Z</time>
      </trkpt>
      <trkpt lat="45.83936" lon="-0.70552">
        <ele>19</ele>
        <time>2017-06-25T07:27:20.999Z</time>
      </trkpt>
      <trkpt lat="45.83936" lon="-0.7055">
        <ele>19</ele>
        <time>2017-06-25T07:27:21.999Z</time>
      </trkpt>
      <trkpt lat="45.83936" lon="-0.70547">
        <ele>19</ele>
        <time>2017-06-25T07:27:22.999Z</time>
      </trkpt>
      <trkpt lat="45.83936" lon="-0.70545">
        <ele>19</ele>
        <time>2017-06-25T07:27:23.999Z</time>
      </trkpt>
      <trkpt lat="45.83937" lon="-0.70543">
        <ele>19</ele>
        <time>2017-06-25T07:27:24.999Z</time>
      </trkpt>
      <trkpt lat="45.83937" lon="-0.70542">
        <ele>19</ele>
        <time>2017-06-25T07:27:25.999Z</time>
      </trkpt>
      <trkpt lat="45.83937" lon="-0.70539">
        <ele>19</ele>
        <time>2017-06-25T07:27:26.999Z</time>
      </trkpt>
      <trkpt lat="45.83937" lon="-0.70537">
        <ele>19</ele>
        <time>2017-06-25T07:27:27.999Z</time>
      </trkpt>
      <trkpt lat="45.83937" lon="-0.70535">
        <ele>19</ele>
        <time>2017-06-25T07:27:28.999Z</time>
      </trkpt>
      <trkpt lat="45.83938" lon="-0.70533">
        <ele>19</ele>
        <time>2017-06-25T07:27:29.999Z</time>
      </trkpt>
      <trkpt lat="45.83938" lon="-0.7053">
        <ele>19</ele>
        <time>2017-06-25T07:27:30.999Z</time>
      </trkpt>
      <trkpt lat="45.83938" lon="-0.70528">
        <ele>19</ele>
        <time>2017-06-25T07:27:31.999Z</time>
      </trkpt>
      <trkpt lat="45.83938" lon="-0.70527">
        <ele>19</ele>
        <time>2017-06-25T07:27:32.999Z</time>
      </trkpt>
      <trkpt lat="45.83938" lon="-0.70525">
        <ele>19</ele>
        <time>2017-06-25T07:27:33.999Z</time>
      </trkpt>
      <trkpt lat="45.83939" lon="-0.70523">
        <ele>19</ele>
        <time>2017-06-25T07:27:34.999Z</time>
      </trkpt>
      <trkpt lat="45.83939" lon="-0.70522">
        <ele>19</ele>
        <time>2017-06-25T07:27:35.999Z</time>
      </trkpt>
      <trkpt lat="45.83939" lon="-0.7052">
        <ele>19</ele>
        <time>2017-06-25T07:27:36.999Z</time>
      </trkpt>
      <trkpt lat="45.8394" lon="-0.70519">
        <ele>19</ele>
        <time>2017-06-25T07:27:37.999Z</time>
      </trkpt>
      <trkpt lat="45.83941" lon="-0.70517">
        <ele>19</ele>
        <time>2017-06-25T07:27:38.999Z</time>
      </trkpt>
      <trkpt lat="45.83941" lon="-0.70516">
        <ele>19</ele>
        <time>2017-06-25T07:27:39.999Z</time>
      </trkpt>
      <trkpt lat="45.83942" lon="-0.70514">
        <ele>19</ele>
        <time>2017-06-25T07:27:40.999Z</time>
      </trkpt>
      <trkpt lat="45.83942" lon="-0.70513">
        <ele>19</ele>
        <time>2017-06-25T07:27:41.999Z</time>
      </trkpt>
      <trkpt lat="45.83942" lon="-0.7051">
        <ele>19</ele>
        <time>2017-06-25T07:27:43.999Z</time>
      </trkpt>
      <trkpt lat="45.83942" lon="-0.70508">
        <ele>19</ele>
        <time>2017-06-25T07:27:44.999Z</time>
      </trkpt>
      <trkpt lat="45.83942" lon="-0.70507">
        <ele>19</ele>
        <time>2017-06-25T07:27:45.999Z</time>
      </trkpt>
      <trkpt lat="45.83943" lon="-0.70505">
        <ele>19</ele>
        <time>2017-06-25T07:27:46.999Z</time>
      </trkpt>
      <trkpt lat="45.83943" lon="-0.70503">
        <ele>19</ele>
        <time>2017-06-25T07:27:47.999Z</time>
      </trkpt>
      <trkpt lat="45.83943" lon="-0.70501">
        <ele>19</ele>
        <time>2017-06-25T07:27:48.999Z</time>
      </trkpt>
      <trkpt lat="45.83944" lon="-0.70499">
        <ele>18</ele>
        <time>2017-06-25T07:27:49.999Z</time>
      </trkpt>
      <trkpt lat="45.83944" lon="-0.70498">
        <ele>18</ele>
        <time>2017-06-25T07:27:50.999Z</time>
      </trkpt>
      <trkpt lat="45.83944" lon="-0.70496">
        <ele>18</ele>
        <time>2017-06-25T07:27:51.999Z</time>
      </trkpt>
      <trkpt lat="45.83945" lon="-0.70494">
        <ele>18</ele>
        <time>2017-06-25T07:27:52.999Z</time>
      </trkpt>
      <trkpt lat="45.83946" lon="-0.70492">
        <ele>18</ele>
        <time>2017-06-25T07:27:53.999Z</time>
      </trkpt>
      <trkpt lat="45.83947" lon="-0.70491">
        <ele>18</ele>
        <time>2017-06-25T07:27:54.999Z</time>
      </trkpt>
      <trkpt lat="45.83948" lon="-0.70488">
        <ele>18</ele>
        <time>2017-06-25T07:27:55.999Z</time>
      </trkpt>
      <trkpt lat="45.83949" lon="-0.70487">
        <ele>18</ele>
        <time>2017-06-25T07:27:56.999Z</time>
      </trkpt>
      <trkpt lat="45.83949" lon="-0.70485">
        <ele>18</ele>
        <time>2017-06-25T07:27:57.999Z</time>
      </trkpt>
      <trkpt lat="45.8395" lon="-0.70483">
        <ele>18</ele>
        <time>2017-06-25T07:27:58.999Z</time>
      </trkpt>
      <trkpt lat="45.83951" lon="-0.70481">
        <ele>18</ele>
        <time>2017-06-25T07:27:59.999Z</time>
      </trkpt>
      <trkpt lat="45.83952" lon="-0.70479">
        <ele>18</ele>
        <time>2017-06-25T07:28:00.999Z</time>
      </trkpt>
      <trkpt lat="45.83954" lon="-0.70477">
        <ele>18</ele>
        <time>2017-06-25T07:28:01.999Z</time>
      </trkpt>
      <trkpt lat="45.83954" lon="-0.70475">
        <ele>18</ele>
        <time>2017-06-25T07:28:02.999Z</time>
      </trkpt>
      <trkpt lat="45.83955" lon="-0.70474">
        <ele>18</ele>
        <time>2017-06-25T07:28:03.999Z</time>
      </trkpt>
      <trkpt lat="45.83955" lon="-0.70472">
        <ele>17</ele>
        <time>2017-06-25T07:28:04.999Z</time>
      </trkpt>
      <trkpt lat="45.83955" lon="-0.7047">
        <ele>17</ele>
        <time>2017-06-25T07:28:05.999Z</time>
      </trkpt>
      <trkpt lat="45.83956" lon="-0.70469">
        <ele>17</ele>
        <time>2017-06-25T07:28:06.999Z</time>
      </trkpt>
      <trkpt lat="45.83956" lon="-0.70467">
        <ele>17</ele>
        <time>2017-06-25T07:28:07.999Z</time>
      </trkpt>
      <trkpt lat="45.83956" lon="-0.70466">
        <ele>17</ele>
        <time>2017-06-25T07:28:08.999Z</time>
      </trkpt>
      <trkpt lat="45.83956" lon="-0.70464">
        <ele>17</ele>
        <time>2017-06-25T07:28:09.999Z</time>
      </trkpt>
      <trkpt lat="45.83956" lon="-0.70462">
        <ele>17</ele>
        <time>2017-06-25T07:28:11.999Z</time>
      </trkpt>
      <trkpt lat="45.83956" lon="-0.7046">
        <ele>17</ele>
        <time>2017-06-25T07:28:13.999Z</time>
      </trkpt>
      <trkpt lat="45.83956" lon="-0.70459">
        <ele>17</ele>
        <time>2017-06-25T07:28:16.999Z</time>
      </trkpt>
      <trkpt lat="45.83956" lon="-0.70457">
        <ele>17</ele>
        <time>2017-06-25T07:28:19.999Z</time>
      </trkpt>
      <trkpt lat="45.83955" lon="-0.70456">
        <ele>17</ele>
        <time>2017-06-25T07:28:21.999Z</time>
      </trkpt>
      <trkpt lat="45.83955" lon="-0.70454">
        <ele>17</ele>
        <time>2017-06-25T07:28:23.999Z</time>
      </trkpt>
      <trkpt lat="45.83955" lon="-0.70452">
        <ele>17</ele>
        <time>2017-06-25T07:28:25.999Z</time>
      </trkpt>
      <trkpt lat="45.83956" lon="-0.70452">
        <ele>17</ele>
        <time>2017-06-25T07:28:26.999Z</time>
      </trkpt>
      <trkpt lat="45.83957" lon="-0.7045">
        <ele>17</ele>
        <time>2017-06-25T07:28:28.999Z</time>
      </trkpt>
      <trkpt lat="45.83957" lon="-0.70449">
        <ele>17</ele>
        <time>2017-06-25T07:28:29.999Z</time>
      </trkpt>
      <trkpt lat="45.83956" lon="-0.70448">
        <ele>17</ele>
        <time>2017-06-25T07:28:35.999Z</time>
      </trkpt>
      <trkpt lat="45.83956" lon="-0.70446">
        <ele>17</ele>
        <time>2017-06-25T07:28:37.999Z</time>
      </trkpt>
      <trkpt lat="45.83955" lon="-0.70446">
        <ele>17</ele>
        <time>2017-06-25T07:28:40.999Z</time>
      </trkpt>
      <trkpt lat="45.83954" lon="-0.70445">
        <ele>17</ele>
        <time>2017-06-25T07:28:42.999Z</time>
      </trkpt>
      <trkpt lat="45.83952" lon="-0.70445">
        <ele>17</ele>
        <time>2017-06-25T07:28:43.999Z</time>
      </trkpt>
      <trkpt lat="45.83951" lon="-0.70444">
        <ele>17</ele>
        <time>2017-06-25T07:28:45.999Z</time>
      </trkpt>
      <trkpt lat="45.83951" lon="-0.70443">
        <ele>17</ele>
        <time>2017-06-25T07:28:46.999Z</time>
      </trkpt>
      <trkpt lat="45.83952" lon="-0.7044">
        <ele>17</ele>
        <time>2017-06-25T07:28:47.999Z</time>
      </trkpt>
      <trkpt lat="45.83952" lon="-0.70437">
        <ele>17</ele>
        <time>2017-06-25T07:28:48.999Z</time>
      </trkpt>
      <trkpt lat="45.83951" lon="-0.70433">
        <ele>16</ele>
        <time>2017-06-25T07:28:49.999Z</time>
      </trkpt>
      <trkpt lat="45.8395" lon="-0.70419">
        <ele>16</ele>
        <time>2017-06-25T07:28:50.999Z</time>
      </trkpt>
      <trkpt lat="45.83948" lon="-0.70419">
        <ele>16</ele>
        <time>2017-06-25T07:28:51.999Z</time>
      </trkpt>
      <trkpt lat="45.83949" lon="-0.70413">
        <ele>14</ele>
        <time>2017-06-25T07:28:55.999Z</time>
      </trkpt>
      <trkpt lat="45.83949" lon="-0.70411">
        <ele>14</ele>
        <time>2017-06-25T07:28:56.999Z</time>
      </trkpt>
      <trkpt lat="45.83947" lon="-0.70409">
        <ele>14</ele>
        <time>2017-06-25T07:28:59.999Z</time>
      </trkpt>
      <trkpt lat="45.83947" lon="-0.70408">
        <ele>14</ele>
        <time>2017-06-25T07:29:00.999Z</time>
      </trkpt>
      <trkpt lat="45.83946" lon="-0.70402">
        <ele>14</ele>
        <time>2017-06-25T07:29:02.999Z</time>
      </trkpt>
      <trkpt lat="45.83945" lon="-0.70395">
        <ele>14</ele>
        <time>2017-06-25T07:29:03.999Z</time>
      </trkpt>
      <trkpt lat="45.83944" lon="-0.70389">
        <ele>14</ele>
        <time>2017-06-25T07:29:04.999Z</time>
      </trkpt>
      <trkpt lat="45.83944" lon="-0.70385">
        <ele>14</ele>
        <time>2017-06-25T07:29:05.999Z</time>
      </trkpt>
      <trkpt lat="45.83943" lon="-0.70384">
        <ele>14</ele>
        <time>2017-06-25T07:29:06.999Z</time>
      </trkpt>
      <trkpt lat="45.83943" lon="-0.70381">
        <ele>14</ele>
        <time>2017-06-25T07:29:07.999Z</time>
      </trkpt>
      <trkpt lat="45.83944" lon="-0.70378">
        <ele>14</ele>
        <time>2017-06-25T07:29:08.999Z</time>
      </trkpt>
      <trkpt lat="45.83944" lon="-0.70377">
        <ele>14</ele>
        <time>2017-06-25T07:29:09.999Z</time>
      </trkpt>
      <trkpt lat="45.83946" lon="-0.70375">
        <ele>14</ele>
        <time>2017-06-25T07:29:10.999Z</time>
      </trkpt>
      <trkpt lat="45.83946" lon="-0.70374">
        <ele>14</ele>
        <time>2017-06-25T07:29:11.999Z</time>
      </trkpt>
      <trkpt lat="45.83946" lon="-0.70372">
        <ele>14</ele>
        <time>2017-06-25T07:29:12.999Z</time>
      </trkpt>
      <trkpt lat="45.83946" lon="-0.70367">
        <ele>14</ele>
        <time>2017-06-25T07:29:13.999Z</time>
      </trkpt>
      <trkpt lat="45.83947" lon="-0.70366">
        <ele>14</ele>
        <time>2017-06-25T07:29:14.999Z</time>
      </trkpt>
      <trkpt lat="45.83946" lon="-0.70364">
        <ele>14</ele>
        <time>2017-06-25T07:29:16.999Z</time>
      </trkpt>
      <trkpt lat="45.83947" lon="-0.70361">
        <ele>14</ele>
        <time>2017-06-25T07:29:18.999Z</time>
      </trkpt>
      <trkpt lat="45.83947" lon="-0.7036">
        <ele>14</ele>
        <time>2017-06-25T07:29:19.999Z</time>
      </trkpt>
      <trkpt lat="45.83947" lon="-0.70357">
        <ele>14</ele>
        <time>2017-06-25T07:29:21.999Z</time>
      </trkpt>
      <trkpt lat="45.83946" lon="-0.70355">
        <ele>14</ele>
        <time>2017-06-25T07:29:23.999Z</time>
      </trkpt>
      <trkpt lat="45.83946" lon="-0.70352">
        <ele>14</ele>
        <time>2017-06-25T07:29:24.999Z</time>
      </trkpt>
      <trkpt lat="45.83946" lon="-0.7035">
        <ele>14</ele>
        <time>2017-06-25T07:29:25.999Z</time>
      </trkpt>
      <trkpt lat="45.83946" lon="-0.70349">
        <ele>14</ele>
        <time>2017-06-25T07:29:26.999Z</time>
      </trkpt>
      <trkpt lat="45.83946" lon="-0.70347">
        <ele>14</ele>
        <time>2017-06-25T07:29:28.999Z</time>
      </trkpt>
      <trkpt lat="45.83947" lon="-0.70346">
        <ele>14</ele>
        <time>2017-06-25T07:29:31.999Z</time>
      </trkpt>
      <trkpt lat="45.83947" lon="-0.70344">
        <ele>14</ele>
        <time>2017-06-25T07:29:32.999Z</time>
      </trkpt>
      <trkpt lat="45.83947" lon="-0.7034">
        <ele>14</ele>
        <time>2017-06-25T07:29:33.999Z</time>
      </trkpt>
      <trkpt lat="45.83947" lon="-0.70338">
        <ele>14</ele>
        <time>2017-06-25T07:29:34.999Z</time>
      </trkpt>
      <trkpt lat="45.83947" lon="-0.70336">
        <ele>14</ele>
        <time>2017-06-25T07:29:35.999Z</time>
      </trkpt>
      <trkpt lat="45.83947" lon="-0.70334">
        <ele>14</ele>
        <time>2017-06-25T07:29:37.999Z</time>
      </trkpt>
      <trkpt lat="45.83946" lon="-0.70333">
        <ele>12</ele>
        <time>2017-06-25T07:29:38.999Z</time>
      </trkpt>
      <trkpt lat="45.83945" lon="-0.70331">
        <ele>12</ele>
        <time>2017-06-25T07:29:40.999Z</time>
      </trkpt>
      <trkpt lat="45.83945" lon="-0.7033">
        <ele>12</ele>
        <time>2017-06-25T07:29:41.999Z</time>
      </trkpt>
      <trkpt lat="45.83945" lon="-0.70327">
        <ele>12</ele>
        <time>2017-06-25T07:29:44.999Z</time>
      </trkpt>
      <trkpt lat="45.83945" lon="-0.70325">
        <ele>12</ele>
        <time>2017-06-25T07:29:45.999Z</time>
      </trkpt>
      <trkpt lat="45.83945" lon="-0.70322">
        <ele>12</ele>
        <time>2017-06-25T07:29:46.999Z</time>
      </trkpt>
      <trkpt lat="45.83945" lon="-0.70321">
        <ele>12</ele>
        <time>2017-06-25T07:29:47.999Z</time>
      </trkpt>
      <trkpt lat="45.83944" lon="-0.70318">
        <ele>12</ele>
        <time>2017-06-25T07:29:50.999Z</time>
      </trkpt>
      <trkpt lat="45.83944" lon="-0.70316">
        <ele>12</ele>
        <time>2017-06-25T07:29:51.999Z</time>
      </trkpt>
      <trkpt lat="45.83943" lon="-0.70315">
        <ele>12</ele>
        <time>2017-06-25T07:29:52.999Z</time>
      </trkpt>
      <trkpt lat="45.83943" lon="-0.70313">
        <ele>12</ele>
        <time>2017-06-25T07:29:53.999Z</time>
      </trkpt>
      <trkpt lat="45.83943" lon="-0.70311">
        <ele>12</ele>
        <time>2017-06-25T07:29:54.999Z</time>
      </trkpt>
      <trkpt lat="45.83943" lon="-0.70308">
        <ele>12</ele>
        <time>2017-06-25T07:29:55.999Z</time>
      </trkpt>
      <trkpt lat="45.83943" lon="-0.70306">
        <ele>12</ele>
        <time>2017-06-25T07:29:56.999Z</time>
      </trkpt>
      <trkpt lat="45.83944" lon="-0.70302">
        <ele>12</ele>
        <time>2017-06-25T07:29:58.999Z</time>
      </trkpt>
      <trkpt lat="45.83943" lon="-0.70301">
        <ele>12</ele>
        <time>2017-06-25T07:30:00.999Z</time>
      </trkpt>
      <trkpt lat="45.83942" lon="-0.70299">
        <ele>12</ele>
        <time>2017-06-25T07:30:01.999Z</time>
      </trkpt>
      <trkpt lat="45.83942" lon="-0.70298">
        <ele>12</ele>
        <time>2017-06-25T07:30:02.999Z</time>
      </trkpt>
      <trkpt lat="45.83941" lon="-0.70296">
        <ele>12</ele>
        <time>2017-06-25T07:30:03.999Z</time>
      </trkpt>
      <trkpt lat="45.83941" lon="-0.70294">
        <ele>12</ele>
        <time>2017-06-25T07:30:05.999Z</time>
      </trkpt>
      <trkpt lat="45.83941" lon="-0.70292">
        <ele>12</ele>
        <time>2017-06-25T07:30:07.999Z</time>
      </trkpt>
      <trkpt lat="45.83941" lon="-0.70289">
        <ele>12</ele>
        <time>2017-06-25T07:30:09.999Z</time>
      </trkpt>
      <trkpt lat="45.83941" lon="-0.70287">
        <ele>12</ele>
        <time>2017-06-25T07:30:10.999Z</time>
      </trkpt>
      <trkpt lat="45.83942" lon="-0.70286">
        <ele>12</ele>
        <time>2017-06-25T07:30:11.999Z</time>
      </trkpt>
      <trkpt lat="45.83942" lon="-0.70283">
        <ele>12</ele>
        <time>2017-06-25T07:30:13.999Z</time>
      </trkpt>
      <trkpt lat="45.83942" lon="-0.7028">
        <ele>12</ele>
        <time>2017-06-25T07:30:14.999Z</time>
      </trkpt>
      <trkpt lat="45.83943" lon="-0.70275">
        <ele>12</ele>
        <time>2017-06-25T07:30:16.999Z</time>
      </trkpt>
      <trkpt lat="45.83944" lon="-0.70274">
        <ele>12</ele>
        <time>2017-06-25T07:30:17.999Z</time>
      </trkpt>
      <trkpt lat="45.83944" lon="-0.70271">
        <ele>12</ele>
        <time>2017-06-25T07:30:20.999Z</time>
      </trkpt>
      <trkpt lat="45.83944" lon="-0.70268">
        <ele>12</ele>
        <time>2017-06-25T07:30:21.999Z</time>
      </trkpt>
      <trkpt lat="45.83944" lon="-0.70266">
        <ele>12</ele>
        <time>2017-06-25T07:30:22.999Z</time>
      </trkpt>
      <trkpt lat="45.83944" lon="-0.70264">
        <ele>12</ele>
        <time>2017-06-25T07:30:23.999Z</time>
      </trkpt>
      <trkpt lat="45.83944" lon="-0.70262">
        <ele>12</ele>
        <time>2017-06-25T07:30:24.999Z</time>
      </trkpt>
      <trkpt lat="45.83943" lon="-0.7026">
        <ele>12</ele>
        <time>2017-06-25T07:30:25.999Z</time>
      </trkpt>
      <trkpt lat="45.83943" lon="-0.70257">
        <ele>12</ele>
        <time>2017-06-25T07:30:26.999Z</time>
      </trkpt>
      <trkpt lat="45.83944" lon="-0.70255">
        <ele>12</ele>
        <time>2017-06-25T07:30:30.999Z</time>
      </trkpt>
      <trkpt lat="45.83945" lon="-0.70254">
        <ele>12</ele>
        <time>2017-06-25T07:30:33.999Z</time>
      </trkpt>
      <trkpt lat="45.83944" lon="-0.70253">
        <ele>12</ele>
        <time>2017-06-25T07:30:37.999Z</time>
      </trkpt>
      <trkpt lat="45.83944" lon="-0.70251">
        <ele>12</ele>
        <time>2017-06-25T07:30:39.999Z</time>
      </trkpt>
      <trkpt lat="45.83943" lon="-0.7025">
        <ele>11</ele>
        <time>2017-06-25T07:30:41.999Z</time>
      </trkpt>
      <trkpt lat="45.83943" lon="-0.70248">
        <ele>10</ele>
        <time>2017-06-25T07:30:43.999Z</time>
      </trkpt>
      <trkpt lat="45.83944" lon="-0.70245">
        <ele>10</ele>
        <time>2017-06-25T07:30:44.999Z</time>
      </trkpt>
      <trkpt lat="45.83945" lon="-0.70244">
        <ele>11</ele>
        <time>2017-06-25T07:30:45.999Z</time>
      </trkpt>
      <trkpt lat="45.83946" lon="-0.70242">
        <ele>11</ele>
        <time>2017-06-25T07:30:47.999Z</time>
      </trkpt>
      <trkpt lat="45.83946" lon="-0.70239">
        <ele>11</ele>
        <time>2017-06-25T07:30:48.999Z</time>
      </trkpt>
      <trkpt lat="45.83947" lon="-0.70238">
        <ele>11</ele>
        <time>2017-06-25T07:30:49.999Z</time>
      </trkpt>
      <trkpt lat="45.83947" lon="-0.70236">
        <ele>11</ele>
        <time>2017-06-25T07:30:50.999Z</time>
      </trkpt>
      <trkpt lat="45.83947" lon="-0.70234">
        <ele>11</ele>
        <time>2017-06-25T07:30:51.999Z</time>
      </trkpt>
      <trkpt lat="45.83948" lon="-0.70232">
        <ele>11</ele>
        <time>2017-06-25T07:30:54.999Z</time>
      </trkpt>
      <trkpt lat="45.83949" lon="-0.70231">
        <ele>11</ele>
        <time>2017-06-25T07:30:58.999Z</time>
      </trkpt>
      <trkpt lat="45.83949" lon="-0.7023">
        <ele>11</ele>
        <time>2017-06-25T07:31:01.999Z</time>
      </trkpt>
      <trkpt lat="45.83951" lon="-0.70227">
        <ele>11</ele>
        <time>2017-06-25T07:31:03.999Z</time>
      </trkpt>
      <trkpt lat="45.83952" lon="-0.70226">
        <ele>11</ele>
        <time>2017-06-25T07:31:04.999Z</time>
      </trkpt>
      <trkpt lat="45.83952" lon="-0.70225">
        <ele>11</ele>
        <time>2017-06-25T07:31:05.999Z</time>
      </trkpt>
      <trkpt lat="45.83954" lon="-0.70223">
        <ele>11</ele>
        <time>2017-06-25T07:31:06.999Z</time>
      </trkpt>
      <trkpt lat="45.83954" lon="-0.70222">
        <ele>11</ele>
        <time>2017-06-25T07:31:07.999Z</time>
      </trkpt>
      <trkpt lat="45.83955" lon="-0.7022">
        <ele>11</ele>
        <time>2017-06-25T07:31:08.999Z</time>
      </trkpt>
      <trkpt lat="45.83955" lon="-0.70219">
        <ele>11</ele>
        <time>2017-06-25T07:31:09.999Z</time>
      </trkpt>
      <trkpt lat="45.83955" lon="-0.70217">
        <ele>11</ele>
        <time>2017-06-25T07:31:10.999Z</time>
      </trkpt>
      <trkpt lat="45.83955" lon="-0.70215">
        <ele>11</ele>
        <time>2017-06-25T07:31:11.999Z</time>
      </trkpt>
      <trkpt lat="45.83956" lon="-0.70213">
        <ele>11</ele>
        <time>2017-06-25T07:31:12.999Z</time>
      </trkpt>
      <trkpt lat="45.83957" lon="-0.70211">
        <ele>11</ele>
        <time>2017-06-25T07:31:13.999Z</time>
      </trkpt>
      <trkpt lat="45.83957" lon="-0.70209">
        <ele>11</ele>
        <time>2017-06-25T07:31:14.999Z</time>
      </trkpt>
      <trkpt lat="45.83957" lon="-0.70207">
        <ele>11</ele>
        <time>2017-06-25T07:31:16.999Z</time>
      </trkpt>
      <trkpt lat="45.83958" lon="-0.70206">
        <ele>11</ele>
        <time>2017-06-25T07:31:17.999Z</time>
      </trkpt>
      <trkpt lat="45.8396" lon="-0.70206">
        <ele>11</ele>
        <time>2017-06-25T07:31:18.999Z</time>
      </trkpt>
      <trkpt lat="45.83961" lon="-0.70206">
        <ele>11</ele>
        <time>2017-06-25T07:31:19.999Z</time>
      </trkpt>
      <trkpt lat="45.83963" lon="-0.70205">
        <ele>11</ele>
        <time>2017-06-25T07:31:20.999Z</time>
      </trkpt>
      <trkpt lat="45.83963" lon="-0.70203">
        <ele>11</ele>
        <time>2017-06-25T07:31:24.999Z</time>
      </trkpt>
      <trkpt lat="45.83964" lon="-0.70201">
        <ele>11</ele>
        <time>2017-06-25T07:31:26.999Z</time>
      </trkpt>
      <trkpt lat="45.83965" lon="-0.702">
        <ele>11</ele>
        <time>2017-06-25T07:31:27.999Z</time>
      </trkpt>
      <trkpt lat="45.83965" lon="-0.70199">
        <ele>11</ele>
        <time>2017-06-25T07:31:28.999Z</time>
      </trkpt>
      <trkpt lat="45.83966" lon="-0.70198">
        <ele>11</ele>
        <time>2017-06-25T07:31:29.999Z</time>
      </trkpt>
      <trkpt lat="45.83967" lon="-0.70196">
        <ele>11</ele>
        <time>2017-06-25T07:31:31.999Z</time>
      </trkpt>
      <trkpt lat="45.83967" lon="-0.70194">
        <ele>11</ele>
        <time>2017-06-25T07:31:32.999Z</time>
      </trkpt>
      <trkpt lat="45.83968" lon="-0.70192">
        <ele>11</ele>
        <time>2017-06-25T07:31:33.999Z</time>
      </trkpt>
      <trkpt lat="45.83968" lon="-0.7019">
        <ele>11</ele>
        <time>2017-06-25T07:31:34.999Z</time>
      </trkpt>
      <trkpt lat="45.8397" lon="-0.70187">
        <ele>11</ele>
        <time>2017-06-25T07:31:36.999Z</time>
      </trkpt>
      <trkpt lat="45.8397" lon="-0.70185">
        <ele>11</ele>
        <time>2017-06-25T07:31:37.999Z</time>
      </trkpt>
      <trkpt lat="45.83971" lon="-0.70181">
        <ele>11</ele>
        <time>2017-06-25T07:31:38.999Z</time>
      </trkpt>
      <trkpt lat="45.83972" lon="-0.70179">
        <ele>11</ele>
        <time>2017-06-25T07:31:40.999Z</time>
      </trkpt>
      <trkpt lat="45.83973" lon="-0.70178">
        <ele>11</ele>
        <time>2017-06-25T07:31:41.999Z</time>
      </trkpt>
      <trkpt lat="45.83974" lon="-0.70176">
        <ele>11</ele>
        <time>2017-06-25T07:31:42.999Z</time>
      </trkpt>
      <trkpt lat="45.83975" lon="-0.70174">
        <ele>11</ele>
        <time>2017-06-25T07:31:44.999Z</time>
      </trkpt>
      <trkpt lat="45.83975" lon="-0.70173">
        <ele>10</ele>
        <time>2017-06-25T07:31:46.999Z</time>
      </trkpt>
      <trkpt lat="45.83976" lon="-0.70171">
        <ele>10</ele>
        <time>2017-06-25T07:31:47.999Z</time>
      </trkpt>
      <trkpt lat="45.83976" lon="-0.70169">
        <ele>10</ele>
        <time>2017-06-25T07:31:48.999Z</time>
      </trkpt>
      <trkpt lat="45.83976" lon="-0.70166">
        <ele>10</ele>
        <time>2017-06-25T07:31:49.999Z</time>
      </trkpt>
      <trkpt lat="45.83976" lon="-0.70164">
        <ele>10</ele>
        <time>2017-06-25T07:31:50.999Z</time>
      </trkpt>
      <trkpt lat="45.83976" lon="-0.70162">
        <ele>10</ele>
        <time>2017-06-25T07:31:51.999Z</time>
      </trkpt>
      <trkpt lat="45.83976" lon="-0.70159">
        <ele>10</ele>
        <time>2017-06-25T07:31:52.999Z</time>
      </trkpt>
      <trkpt lat="45.83977" lon="-0.70158">
        <ele>10</ele>
        <time>2017-06-25T07:31:53.999Z</time>
      </trkpt>
      <trkpt lat="45.83977" lon="-0.70156">
        <ele>10</ele>
        <time>2017-06-25T07:31:55.999Z</time>
      </trkpt>
      <trkpt lat="45.83978" lon="-0.70155">
        <ele>10</ele>
        <time>2017-06-25T07:31:56.999Z</time>
      </trkpt>
      <trkpt lat="45.83978" lon="-0.70153">
        <ele>10</ele>
        <time>2017-06-25T07:31:57.999Z</time>
      </trkpt>
      <trkpt lat="45.8398" lon="-0.7015">
        <ele>10</ele>
        <time>2017-06-25T07:31:59.999Z</time>
      </trkpt>
      <trkpt lat="45.8398" lon="-0.70149">
        <ele>10</ele>
        <time>2017-06-25T07:32:00.999Z</time>
      </trkpt>
      <trkpt lat="45.83982" lon="-0.70147">
        <ele>10</ele>
        <time>2017-06-25T07:32:02.999Z</time>
      </trkpt>
      <trkpt lat="45.83983" lon="-0.70146">
        <ele>10</ele>
        <time>2017-06-25T07:32:03.999Z</time>
      </trkpt>
      <trkpt lat="45.83984" lon="-0.70145">
        <ele>10</ele>
        <time>2017-06-25T07:32:04.999Z</time>
      </trkpt>
      <trkpt lat="45.83985" lon="-0.70144">
        <ele>10</ele>
        <time>2017-06-25T07:32:05.999Z</time>
      </trkpt>
      <trkpt lat="45.83985" lon="-0.70142">
        <ele>10</ele>
        <time>2017-06-25T07:32:06.999Z</time>
      </trkpt>
      <trkpt lat="45.83986" lon="-0.70141">
        <ele>10</ele>
        <time>2017-06-25T07:32:09.999Z</time>
      </trkpt>
      <trkpt lat="45.83987" lon="-0.70139">
        <ele>10</ele>
        <time>2017-06-25T07:32:11.999Z</time>
      </trkpt>
      <trkpt lat="45.83988" lon="-0.70135">
        <ele>10</ele>
        <time>2017-06-25T07:32:12.999Z</time>
      </trkpt>
      <trkpt lat="45.83989" lon="-0.70133">
        <ele>10</ele>
        <time>2017-06-25T07:32:14.999Z</time>
      </trkpt>
      <trkpt lat="45.83989" lon="-0.70131">
        <ele>10</ele>
        <time>2017-06-25T07:32:15.999Z</time>
      </trkpt>
      <trkpt lat="45.83989" lon="-0.70129">
        <ele>10</ele>
        <time>2017-06-25T07:32:17.999Z</time>
      </trkpt>
      <trkpt lat="45.8399" lon="-0.70127">
        <ele>10</ele>
        <time>2017-06-25T07:32:18.999Z</time>
      </trkpt>
      <trkpt lat="45.83991" lon="-0.70125">
        <ele>11</ele>
        <time>2017-06-25T07:32:19.999Z</time>
      </trkpt>
      <trkpt lat="45.83991" lon="-0.70124">
        <ele>11</ele>
        <time>2017-06-25T07:32:20.999Z</time>
      </trkpt>
      <trkpt lat="45.83992" lon="-0.70122">
        <ele>11</ele>
        <time>2017-06-25T07:32:21.999Z</time>
      </trkpt>
      <trkpt lat="45.83993" lon="-0.70119">
        <ele>10</ele>
        <time>2017-06-25T07:32:22.999Z</time>
      </trkpt>
      <trkpt lat="45.83994" lon="-0.70117">
        <ele>10</ele>
        <time>2017-06-25T07:32:23.999Z</time>
      </trkpt>
      <trkpt lat="45.83995" lon="-0.70115">
        <ele>10</ele>
        <time>2017-06-25T07:32:24.999Z</time>
      </trkpt>
      <trkpt lat="45.83997" lon="-0.70113">
        <ele>10</ele>
        <time>2017-06-25T07:32:25.999Z</time>
      </trkpt>
      <trkpt lat="45.83998" lon="-0.70111">
        <ele>10</ele>
        <time>2017-06-25T07:32:26.999Z</time>
      </trkpt>
      <trkpt lat="45.83999" lon="-0.7011">
        <ele>10</ele>
        <time>2017-06-25T07:32:27.999Z</time>
      </trkpt>
      <trkpt lat="45.84" lon="-0.70108">
        <ele>12</ele>
        <time>2017-06-25T07:32:28.999Z</time>
      </trkpt>
      <trkpt lat="45.84" lon="-0.70106">
        <ele>12</ele>
        <time>2017-06-25T07:32:29.999Z</time>
      </trkpt>
      <trkpt lat="45.84002" lon="-0.70106">
        <ele>12</ele>
        <time>2017-06-25T07:32:31.999Z</time>
      </trkpt>
      <trkpt lat="45.84003" lon="-0.70105">
        <ele>12</ele>
        <time>2017-06-25T07:32:32.999Z</time>
      </trkpt>
      <trkpt lat="45.84005" lon="-0.70102">
        <ele>11</ele>
        <time>2017-06-25T07:32:34.999Z</time>
      </trkpt>
      <trkpt lat="45.84006" lon="-0.701">
        <ele>11</ele>
        <time>2017-06-25T07:32:35.999Z</time>
      </trkpt>
      <trkpt lat="45.84007" lon="-0.70099">
        <ele>11</ele>
        <time>2017-06-25T07:32:36.999Z</time>
      </trkpt>
      <trkpt lat="45.84007" lon="-0.70096">
        <ele>11</ele>
        <time>2017-06-25T07:32:37.999Z</time>
      </trkpt>
      <trkpt lat="45.84008" lon="-0.70093">
        <ele>11</ele>
        <time>2017-06-25T07:32:39.999Z</time>
      </trkpt>
      <trkpt lat="45.84007" lon="-0.7009">
        <ele>11</ele>
        <time>2017-06-25T07:32:40.999Z</time>
      </trkpt>
      <trkpt lat="45.84008" lon="-0.70088">
        <ele>11</ele>
        <time>2017-06-25T07:32:41.999Z</time>
      </trkpt>
      <trkpt lat="45.84007" lon="-0.70086">
        <ele>11</ele>
        <time>2017-06-25T07:32:42.999Z</time>
      </trkpt>
      <trkpt lat="45.84007" lon="-0.70083">
        <ele>10</ele>
        <time>2017-06-25T07:32:43.999Z</time>
      </trkpt>
      <trkpt lat="45.84007" lon="-0.70082">
        <ele>10</ele>
        <time>2017-06-25T07:32:44.999Z</time>
      </trkpt>
      <trkpt lat="45.84007" lon="-0.7008">
        <ele>11</ele>
        <time>2017-06-25T07:32:47.999Z</time>
      </trkpt>
      <trkpt lat="45.84008" lon="-0.70079">
        <ele>11</ele>
        <time>2017-06-25T07:32:48.999Z</time>
      </trkpt>
      <trkpt lat="45.84008" lon="-0.70077">
        <ele>11</ele>
        <time>2017-06-25T07:32:50.999Z</time>
      </trkpt>
      <trkpt lat="45.84009" lon="-0.70076">
        <ele>11</ele>
        <time>2017-06-25T07:32:52.999Z</time>
      </trkpt>
      <trkpt lat="45.8401" lon="-0.70075">
        <ele>11</ele>
        <time>2017-06-25T07:32:53.999Z</time>
      </trkpt>
      <trkpt lat="45.84012" lon="-0.70073">
        <ele>11</ele>
        <time>2017-06-25T07:32:54.999Z</time>
      </trkpt>
      <trkpt lat="45.84013" lon="-0.70072">
        <ele>11</ele>
        <time>2017-06-25T07:32:55.999Z</time>
      </trkpt>
      <trkpt lat="45.84014" lon="-0.70071">
        <ele>11</ele>
        <time>2017-06-25T07:32:56.999Z</time>
      </trkpt>
      <trkpt lat="45.84015" lon="-0.70069">
        <ele>11</ele>
        <time>2017-06-25T07:32:57.999Z</time>
      </trkpt>
      <trkpt lat="45.84016" lon="-0.70068">
        <ele>11</ele>
        <time>2017-06-25T07:32:58.999Z</time>
      </trkpt>
      <trkpt lat="45.84018" lon="-0.70067">
        <ele>11</ele>
        <time>2017-06-25T07:33:00.999Z</time>
      </trkpt>
      <trkpt lat="45.84019" lon="-0.70066">
        <ele>11</ele>
        <time>2017-06-25T07:33:01.999Z</time>
      </trkpt>
      <trkpt lat="45.8402" lon="-0.70065">
        <ele>11</ele>
        <time>2017-06-25T07:33:02.999Z</time>
      </trkpt>
      <trkpt lat="45.84021" lon="-0.70064">
        <ele>11</ele>
        <time>2017-06-25T07:33:03.999Z</time>
      </trkpt>
      <trkpt lat="45.84022" lon="-0.70062">
        <ele>11</ele>
        <time>2017-06-25T07:33:04.999Z</time>
      </trkpt>
      <trkpt lat="45.84023" lon="-0.7006">
        <ele>11</ele>
        <time>2017-06-25T07:33:05.999Z</time>
      </trkpt>
      <trkpt lat="45.84022" lon="-0.70057">
        <ele>11</ele>
        <time>2017-06-25T07:33:07.999Z</time>
      </trkpt>
      <trkpt lat="45.84022" lon="-0.70056">
        <ele>11</ele>
        <time>2017-06-25T07:33:08.999Z</time>
      </trkpt>
      <trkpt lat="45.84023" lon="-0.70054">
        <ele>11</ele>
        <time>2017-06-25T07:33:10.999Z</time>
      </trkpt>
      <trkpt lat="45.84025" lon="-0.70052">
        <ele>11</ele>
        <time>2017-06-25T07:33:11.999Z</time>
      </trkpt>
      <trkpt lat="45.84026" lon="-0.70051">
        <ele>11</ele>
        <time>2017-06-25T07:33:12.999Z</time>
      </trkpt>
      <trkpt lat="45.84028" lon="-0.70049">
        <ele>11</ele>
        <time>2017-06-25T07:33:13.999Z</time>
      </trkpt>
      <trkpt lat="45.84029" lon="-0.70047">
        <ele>11</ele>
        <time>2017-06-25T07:33:14.999Z</time>
      </trkpt>
      <trkpt lat="45.84029" lon="-0.70045">
        <ele>11</ele>
        <time>2017-06-25T07:33:15.999Z</time>
      </trkpt>
      <trkpt lat="45.84028" lon="-0.70043">
        <ele>11</ele>
        <time>2017-06-25T07:33:16.999Z</time>
      </trkpt>
      <trkpt lat="45.84029" lon="-0.70042">
        <ele>11</ele>
        <time>2017-06-25T07:33:18.999Z</time>
      </trkpt>
      <trkpt lat="45.8403" lon="-0.70041">
        <ele>11</ele>
        <time>2017-06-25T07:33:19.999Z</time>
      </trkpt>
      <trkpt lat="45.8403" lon="-0.70039">
        <ele>11</ele>
        <time>2017-06-25T07:33:20.999Z</time>
      </trkpt>
      <trkpt lat="45.84031" lon="-0.70037">
        <ele>11</ele>
        <time>2017-06-25T07:33:21.999Z</time>
      </trkpt>
      <trkpt lat="45.84031" lon="-0.70035">
        <ele>11</ele>
        <time>2017-06-25T07:33:23.999Z</time>
      </trkpt>
      <trkpt lat="45.84033" lon="-0.70033">
        <ele>11</ele>
        <time>2017-06-25T07:33:25.999Z</time>
      </trkpt>
      <trkpt lat="45.84034" lon="-0.70032">
        <ele>11</ele>
        <time>2017-06-25T07:33:26.999Z</time>
      </trkpt>
      <trkpt lat="45.84035" lon="-0.70032">
        <ele>11</ele>
        <time>2017-06-25T07:33:27.999Z</time>
      </trkpt>
      <trkpt lat="45.84037" lon="-0.70031">
        <ele>12</ele>
        <time>2017-06-25T07:33:29.999Z</time>
      </trkpt>
      <trkpt lat="45.84039" lon="-0.7003">
        <ele>12</ele>
        <time>2017-06-25T07:33:31.999Z</time>
      </trkpt>
      <trkpt lat="45.8404" lon="-0.7003">
        <ele>12</ele>
        <time>2017-06-25T07:33:32.999Z</time>
      </trkpt>
      <trkpt lat="45.84041" lon="-0.70029">
        <ele>12</ele>
        <time>2017-06-25T07:33:33.999Z</time>
      </trkpt>
      <trkpt lat="45.84041" lon="-0.70027">
        <ele>12</ele>
        <time>2017-06-25T07:33:37.999Z</time>
      </trkpt>
      <trkpt lat="45.84042" lon="-0.70026">
        <ele>12</ele>
        <time>2017-06-25T07:33:38.999Z</time>
      </trkpt>
      <trkpt lat="45.84042" lon="-0.70023">
        <ele>12</ele>
        <time>2017-06-25T07:33:40.999Z</time>
      </trkpt>
      <trkpt lat="45.84042" lon="-0.7002">
        <ele>12</ele>
        <time>2017-06-25T07:33:42.999Z</time>
      </trkpt>
      <trkpt lat="45.84041" lon="-0.70018">
        <ele>12</ele>
        <time>2017-06-25T07:33:43.999Z</time>
      </trkpt>
      <trkpt lat="45.84041" lon="-0.70016">
        <ele>12</ele>
        <time>2017-06-25T07:33:44.999Z</time>
      </trkpt>
      <trkpt lat="45.84041" lon="-0.70015">
        <ele>12</ele>
        <time>2017-06-25T07:33:46.999Z</time>
      </trkpt>
      <trkpt lat="45.84041" lon="-0.70013">
        <ele>11</ele>
        <time>2017-06-25T07:33:47.999Z</time>
      </trkpt>
      <trkpt lat="45.84042" lon="-0.70011">
        <ele>12</ele>
        <time>2017-06-25T07:33:48.999Z</time>
      </trkpt>
      <trkpt lat="45.84042" lon="-0.70007">
        <ele>12</ele>
        <time>2017-06-25T07:33:50.999Z</time>
      </trkpt>
      <trkpt lat="45.84042" lon="-0.70005">
        <ele>11</ele>
        <time>2017-06-25T07:33:51.999Z</time>
      </trkpt>
      <trkpt lat="45.84042" lon="-0.70003">
        <ele>11</ele>
        <time>2017-06-25T07:33:52.999Z</time>
      </trkpt>
      <trkpt lat="45.84043" lon="-0.7">
        <ele>11</ele>
        <time>2017-06-25T07:33:53.999Z</time>
      </trkpt>
      <trkpt lat="45.84044" lon="-0.69996">
        <ele>11</ele>
        <time>2017-06-25T07:33:54.999Z</time>
      </trkpt>
      <trkpt lat="45.84044" lon="-0.69994">
        <ele>11</ele>
        <time>2017-06-25T07:33:55.999Z</time>
      </trkpt>
      <trkpt lat="45.84044" lon="-0.69993">
        <ele>11</ele>
        <time>2017-06-25T07:33:56.999Z</time>
      </trkpt>
      <trkpt lat="45.84044" lon="-0.6999">
        <ele>11</ele>
        <time>2017-06-25T07:33:57.999Z</time>
      </trkpt>
      <trkpt lat="45.84044" lon="-0.69989">
        <ele>11</ele>
        <time>2017-06-25T07:33:58.999Z</time>
      </trkpt>
      <trkpt lat="45.84044" lon="-0.69988">
        <ele>11</ele>
        <time>2017-06-25T07:33:59.999Z</time>
      </trkpt>
      <trkpt lat="45.84044" lon="-0.69986">
        <ele>11</ele>
        <time>2017-06-25T07:34:00.999Z</time>
      </trkpt>
      <trkpt lat="45.84044" lon="-0.69984">
        <ele>11</ele>
        <time>2017-06-25T07:34:01.999Z</time>
      </trkpt>
      <trkpt lat="45.84045" lon="-0.69982">
        <ele>11</ele>
        <time>2017-06-25T07:34:02.999Z</time>
      </trkpt>
      <trkpt lat="45.84044" lon="-0.6998">
        <ele>11</ele>
        <time>2017-06-25T07:34:03.999Z</time>
      </trkpt>
      <trkpt lat="45.84043" lon="-0.69979">
        <ele>11</ele>
        <time>2017-06-25T07:34:04.999Z</time>
      </trkpt>
      <trkpt lat="45.84043" lon="-0.69977">
        <ele>11</ele>
        <time>2017-06-25T07:34:05.999Z</time>
      </trkpt>
      <trkpt lat="45.84042" lon="-0.69974">
        <ele>11</ele>
        <time>2017-06-25T07:34:06.999Z</time>
      </trkpt>
      <trkpt lat="45.84041" lon="-0.69972">
        <ele>11</ele>
        <time>2017-06-25T07:34:07.999Z</time>
      </trkpt>
      <trkpt lat="45.84041" lon="-0.69971">
        <ele>11</ele>
        <time>2017-06-25T07:34:08.999Z</time>
      </trkpt>
      <trkpt lat="45.84041" lon="-0.69969">
        <ele>11</ele>
        <time>2017-06-25T07:34:09.999Z</time>
      </trkpt>
      <trkpt lat="45.8404" lon="-0.69966">
        <ele>11</ele>
        <time>2017-06-25T07:34:11.999Z</time>
      </trkpt>
      <trkpt lat="45.84039" lon="-0.69964">
        <ele>11</ele>
        <time>2017-06-25T07:34:12.999Z</time>
      </trkpt>
      <trkpt lat="45.84039" lon="-0.69961">
        <ele>11</ele>
        <time>2017-06-25T07:34:13.999Z</time>
      </trkpt>
      <trkpt lat="45.84039" lon="-0.6996">
        <ele>11</ele>
        <time>2017-06-25T07:34:14.999Z</time>
      </trkpt>
      <trkpt lat="45.84039" lon="-0.69958">
        <ele>11</ele>
        <time>2017-06-25T07:34:15.999Z</time>
      </trkpt>
      <trkpt lat="45.84039" lon="-0.69955">
        <ele>11</ele>
        <time>2017-06-25T07:34:16.999Z</time>
      </trkpt>
      <trkpt lat="45.84039" lon="-0.69953">
        <ele>11</ele>
        <time>2017-06-25T07:34:17.999Z</time>
      </trkpt>
      <trkpt lat="45.84039" lon="-0.69951">
        <ele>11</ele>
        <time>2017-06-25T07:34:18.999Z</time>
      </trkpt>
      <trkpt lat="45.84039" lon="-0.69948">
        <ele>11</ele>
        <time>2017-06-25T07:34:19.999Z</time>
      </trkpt>
      <trkpt lat="45.84039" lon="-0.69946">
        <ele>11</ele>
        <time>2017-06-25T07:34:20.999Z</time>
      </trkpt>
      <trkpt lat="45.84039" lon="-0.69944">
        <ele>11</ele>
        <time>2017-06-25T07:34:21.999Z</time>
      </trkpt>
      <trkpt lat="45.84039" lon="-0.69943">
        <ele>11</ele>
        <time>2017-06-25T07:34:22.999Z</time>
      </trkpt>
      <trkpt lat="45.84039" lon="-0.69941">
        <ele>11</ele>
        <time>2017-06-25T07:34:23.999Z</time>
      </trkpt>
      <trkpt lat="45.84039" lon="-0.69939">
        <ele>11</ele>
        <time>2017-06-25T07:34:24.999Z</time>
      </trkpt>
      <trkpt lat="45.84039" lon="-0.69937">
        <ele>11</ele>
        <time>2017-06-25T07:34:25.999Z</time>
      </trkpt>
      <trkpt lat="45.84039" lon="-0.69936">
        <ele>11</ele>
        <time>2017-06-25T07:34:26.999Z</time>
      </trkpt>
      <trkpt lat="45.8404" lon="-0.69934">
        <ele>11</ele>
        <time>2017-06-25T07:34:27.999Z</time>
      </trkpt>
      <trkpt lat="45.8404" lon="-0.69932">
        <ele>11</ele>
        <time>2017-06-25T07:34:28.999Z</time>
      </trkpt>
      <trkpt lat="45.8404" lon="-0.6993">
        <ele>11</ele>
        <time>2017-06-25T07:34:29.999Z</time>
      </trkpt>
      <trkpt lat="45.8404" lon="-0.69928">
        <ele>11</ele>
        <time>2017-06-25T07:34:31.999Z</time>
      </trkpt>
      <trkpt lat="45.8404" lon="-0.69926">
        <ele>11</ele>
        <time>2017-06-25T07:34:32.999Z</time>
      </trkpt>
      <trkpt lat="45.8404" lon="-0.69924">
        <ele>11</ele>
        <time>2017-06-25T07:34:33.999Z</time>
      </trkpt>
      <trkpt lat="45.84039" lon="-0.69922">
        <ele>11</ele>
        <time>2017-06-25T07:34:35.999Z</time>
      </trkpt>
      <trkpt lat="45.84039" lon="-0.69919">
        <ele>11</ele>
        <time>2017-06-25T07:34:36.999Z</time>
      </trkpt>
      <trkpt lat="45.84039" lon="-0.69917">
        <ele>11</ele>
        <time>2017-06-25T07:34:37.999Z</time>
      </trkpt>
      <trkpt lat="45.84039" lon="-0.69916">
        <ele>10</ele>
        <time>2017-06-25T07:34:38.999Z</time>
      </trkpt>
      <trkpt lat="45.84039" lon="-0.69914">
        <ele>10</ele>
        <time>2017-06-25T07:34:39.999Z</time>
      </trkpt>
      <trkpt lat="45.84038" lon="-0.69913">
        <ele>10</ele>
        <time>2017-06-25T07:34:42.999Z</time>
      </trkpt>
      <trkpt lat="45.84039" lon="-0.6991">
        <ele>10</ele>
        <time>2017-06-25T07:34:44.999Z</time>
      </trkpt>
      <trkpt lat="45.84039" lon="-0.69908">
        <ele>10</ele>
        <time>2017-06-25T07:34:45.999Z</time>
      </trkpt>
      <trkpt lat="45.84039" lon="-0.69907">
        <ele>10</ele>
        <time>2017-06-25T07:34:46.999Z</time>
      </trkpt>
      <trkpt lat="45.84039" lon="-0.69905">
        <ele>10</ele>
        <time>2017-06-25T07:34:48.999Z</time>
      </trkpt>
      <trkpt lat="45.84039" lon="-0.69904">
        <ele>10</ele>
        <time>2017-06-25T07:34:51.999Z</time>
      </trkpt>
      <trkpt lat="45.8404" lon="-0.69902">
        <ele>10</ele>
        <time>2017-06-25T07:34:55.999Z</time>
      </trkpt>
      <trkpt lat="45.84039" lon="-0.69899">
        <ele>10</ele>
        <time>2017-06-25T07:34:57.999Z</time>
      </trkpt>
      <trkpt lat="45.84039" lon="-0.69896">
        <ele>10</ele>
        <time>2017-06-25T07:34:58.999Z</time>
      </trkpt>
      <trkpt lat="45.8404" lon="-0.69894">
        <ele>10</ele>
        <time>2017-06-25T07:34:59.999Z</time>
      </trkpt>
      <trkpt lat="45.84041" lon="-0.69892">
        <ele>10</ele>
        <time>2017-06-25T07:35:01.999Z</time>
      </trkpt>
      <trkpt lat="45.84041" lon="-0.69891">
        <ele>10</ele>
        <time>2017-06-25T07:35:02.999Z</time>
      </trkpt>
      <trkpt lat="45.84041" lon="-0.69889">
        <ele>10</ele>
        <time>2017-06-25T07:35:03.999Z</time>
      </trkpt>
      <trkpt lat="45.84042" lon="-0.69887">
        <ele>10</ele>
        <time>2017-06-25T07:35:04.999Z</time>
      </trkpt>
      <trkpt lat="45.84042" lon="-0.69885">
        <ele>10</ele>
        <time>2017-06-25T07:35:05.999Z</time>
      </trkpt>
      <trkpt lat="45.84042" lon="-0.69883">
        <ele>10</ele>
        <time>2017-06-25T07:35:07.999Z</time>
      </trkpt>
      <trkpt lat="45.84042" lon="-0.69881">
        <ele>10</ele>
        <time>2017-06-25T07:35:08.999Z</time>
      </trkpt>
      <trkpt lat="45.84042" lon="-0.69879">
        <ele>10</ele>
        <time>2017-06-25T07:35:09.999Z</time>
      </trkpt>
      <trkpt lat="45.84043" lon="-0.69878">
        <ele>10</ele>
        <time>2017-06-25T07:35:10.999Z</time>
      </trkpt>
      <trkpt lat="45.84043" lon="-0.69874">
        <ele>10</ele>
        <time>2017-06-25T07:35:13.999Z</time>
      </trkpt>
      <trkpt lat="45.84044" lon="-0.69873">
        <ele>10</ele>
        <time>2017-06-25T07:35:15.999Z</time>
      </trkpt>
      <trkpt lat="45.84044" lon="-0.6987">
        <ele>10</ele>
        <time>2017-06-25T07:35:16.999Z</time>
      </trkpt>
      <trkpt lat="45.84045" lon="-0.69868">
        <ele>10</ele>
        <time>2017-06-25T07:35:17.999Z</time>
      </trkpt>
      <trkpt lat="45.84045" lon="-0.69866">
        <ele>10</ele>
        <time>2017-06-25T07:35:18.999Z</time>
      </trkpt>
      <trkpt lat="45.84045" lon="-0.69865">
        <ele>10</ele>
        <time>2017-06-25T07:35:19.999Z</time>
      </trkpt>
      <trkpt lat="45.84046" lon="-0.69862">
        <ele>10</ele>
        <time>2017-06-25T07:35:20.999Z</time>
      </trkpt>
      <trkpt lat="45.84047" lon="-0.6986">
        <ele>10</ele>
        <time>2017-06-25T07:35:21.999Z</time>
      </trkpt>
      <trkpt lat="45.84047" lon="-0.69858">
        <ele>10</ele>
        <time>2017-06-25T07:35:22.999Z</time>
      </trkpt>
      <trkpt lat="45.84049" lon="-0.69855">
        <ele>10</ele>
        <time>2017-06-25T07:35:24.999Z</time>
      </trkpt>
      <trkpt lat="45.8405" lon="-0.69853">
        <ele>10</ele>
        <time>2017-06-25T07:35:26.999Z</time>
      </trkpt>
      <trkpt lat="45.84052" lon="-0.69851">
        <ele>10</ele>
        <time>2017-06-25T07:35:27.999Z</time>
      </trkpt>
      <trkpt lat="45.84053" lon="-0.69849">
        <ele>10</ele>
        <time>2017-06-25T07:35:28.999Z</time>
      </trkpt>
      <trkpt lat="45.84055" lon="-0.69845">
        <ele>10</ele>
        <time>2017-06-25T07:35:30.999Z</time>
      </trkpt>
      <trkpt lat="45.84055" lon="-0.69844">
        <ele>10</ele>
        <time>2017-06-25T07:35:31.999Z</time>
      </trkpt>
      <trkpt lat="45.84056" lon="-0.69843">
        <ele>10</ele>
        <time>2017-06-25T07:35:32.999Z</time>
      </trkpt>
      <trkpt lat="45.84057" lon="-0.69842">
        <ele>10</ele>
        <time>2017-06-25T07:35:33.999Z</time>
      </trkpt>
      <trkpt lat="45.84057" lon="-0.6984">
        <ele>10</ele>
        <time>2017-06-25T07:35:35.999Z</time>
      </trkpt>
      <trkpt lat="45.84057" lon="-0.69838">
        <ele>10</ele>
        <time>2017-06-25T07:35:36.999Z</time>
      </trkpt>
      <trkpt lat="45.84057" lon="-0.69835">
        <ele>10</ele>
        <time>2017-06-25T07:35:37.999Z</time>
      </trkpt>
      <trkpt lat="45.84057" lon="-0.69832">
        <ele>9</ele>
        <time>2017-06-25T07:35:38.999Z</time>
      </trkpt>
      <trkpt lat="45.84056" lon="-0.69831">
        <ele>9</ele>
        <time>2017-06-25T07:35:39.999Z</time>
      </trkpt>
      <trkpt lat="45.84056" lon="-0.6983">
        <ele>9</ele>
        <time>2017-06-25T07:35:40.999Z</time>
      </trkpt>
      <trkpt lat="45.84056" lon="-0.69828">
        <ele>9</ele>
        <time>2017-06-25T07:35:41.999Z</time>
      </trkpt>
      <trkpt lat="45.84057" lon="-0.69825">
        <ele>9</ele>
        <time>2017-06-25T07:35:43.999Z</time>
      </trkpt>
      <trkpt lat="45.84058" lon="-0.69824">
        <ele>9</ele>
        <time>2017-06-25T07:35:45.999Z</time>
      </trkpt>
      <trkpt lat="45.8406" lon="-0.69822">
        <ele>9</ele>
        <time>2017-06-25T07:35:46.999Z</time>
      </trkpt>
      <trkpt lat="45.84062" lon="-0.69821">
        <ele>9</ele>
        <time>2017-06-25T07:35:47.999Z</time>
      </trkpt>
      <trkpt lat="45.84063" lon="-0.6982">
        <ele>9</ele>
        <time>2017-06-25T07:35:48.999Z</time>
      </trkpt>
      <trkpt lat="45.84064" lon="-0.69819">
        <ele>9</ele>
        <time>2017-06-25T07:35:49.999Z</time>
      </trkpt>
      <trkpt lat="45.84065" lon="-0.69819">
        <ele>9</ele>
        <time>2017-06-25T07:35:50.999Z</time>
      </trkpt>
      <trkpt lat="45.84066" lon="-0.6982">
        <ele>9</ele>
        <time>2017-06-25T07:35:51.999Z</time>
      </trkpt>
      <trkpt lat="45.84068" lon="-0.6982">
        <ele>9</ele>
        <time>2017-06-25T07:35:54.999Z</time>
      </trkpt>
      <trkpt lat="45.84068" lon="-0.69821">
        <ele>9</ele>
        <time>2017-06-25T07:35:55.999Z</time>
      </trkpt>
      <trkpt lat="45.84069" lon="-0.69821">
        <ele>10</ele>
        <time>2017-06-25T07:35:56.999Z</time>
      </trkpt>
      <trkpt lat="45.84071" lon="-0.69822">
        <ele>10</ele>
        <time>2017-06-25T07:35:57.999Z</time>
      </trkpt>
      <trkpt lat="45.84073" lon="-0.6982">
        <ele>10</ele>
        <time>2017-06-25T07:36:00.999Z</time>
      </trkpt>
      <trkpt lat="45.84074" lon="-0.6982">
        <ele>10</ele>
        <time>2017-06-25T07:36:01.999Z</time>
      </trkpt>
      <trkpt lat="45.84075" lon="-0.69818">
        <ele>10</ele>
        <time>2017-06-25T07:36:03.999Z</time>
      </trkpt>
      <trkpt lat="45.84076" lon="-0.69816">
        <ele>9</ele>
        <time>2017-06-25T07:36:04.999Z</time>
      </trkpt>
      <trkpt lat="45.84078" lon="-0.69815">
        <ele>9</ele>
        <time>2017-06-25T07:36:06.999Z</time>
      </trkpt>
      <trkpt lat="45.84079" lon="-0.69814">
        <ele>9</ele>
        <time>2017-06-25T07:36:07.999Z</time>
      </trkpt>
      <trkpt lat="45.84081" lon="-0.69812">
        <ele>9</ele>
        <time>2017-06-25T07:36:08.999Z</time>
      </trkpt>
      <trkpt lat="45.84081" lon="-0.6981">
        <ele>9</ele>
        <time>2017-06-25T07:36:09.999Z</time>
      </trkpt>
      <trkpt lat="45.84081" lon="-0.69808">
        <ele>9</ele>
        <time>2017-06-25T07:36:12.999Z</time>
      </trkpt>
      <trkpt lat="45.84081" lon="-0.69807">
        <ele>9</ele>
        <time>2017-06-25T07:36:14.999Z</time>
      </trkpt>
      <trkpt lat="45.84081" lon="-0.69805">
        <ele>9</ele>
        <time>2017-06-25T07:36:15.999Z</time>
      </trkpt>
      <trkpt lat="45.84081" lon="-0.69803">
        <ele>9</ele>
        <time>2017-06-25T07:36:16.999Z</time>
      </trkpt>
      <trkpt lat="45.84082" lon="-0.69801">
        <ele>9</ele>
        <time>2017-06-25T07:36:17.999Z</time>
      </trkpt>
      <trkpt lat="45.84083" lon="-0.69797">
        <ele>9</ele>
        <time>2017-06-25T07:36:18.999Z</time>
      </trkpt>
      <trkpt lat="45.84084" lon="-0.69794">
        <ele>10</ele>
        <time>2017-06-25T07:36:19.999Z</time>
      </trkpt>
      <trkpt lat="45.84084" lon="-0.69791">
        <ele>10</ele>
        <time>2017-06-25T07:36:20.999Z</time>
      </trkpt>
      <trkpt lat="45.84086" lon="-0.69789">
        <ele>10</ele>
        <time>2017-06-25T07:36:21.999Z</time>
      </trkpt>
      <trkpt lat="45.84086" lon="-0.69787">
        <ele>10</ele>
        <time>2017-06-25T07:36:22.999Z</time>
      </trkpt>
      <trkpt lat="45.84087" lon="-0.69785">
        <ele>10</ele>
        <time>2017-06-25T07:36:23.999Z</time>
      </trkpt>
      <trkpt lat="45.84087" lon="-0.69784">
        <ele>10</ele>
        <time>2017-06-25T07:36:24.999Z</time>
      </trkpt>
      <trkpt lat="45.84088" lon="-0.69782">
        <ele>10</ele>
        <time>2017-06-25T07:36:25.999Z</time>
      </trkpt>
      <trkpt lat="45.84089" lon="-0.6978">
        <ele>10</ele>
        <time>2017-06-25T07:36:26.999Z</time>
      </trkpt>
      <trkpt lat="45.84089" lon="-0.69779">
        <ele>10</ele>
        <time>2017-06-25T07:36:27.999Z</time>
      </trkpt>
      <trkpt lat="45.84089" lon="-0.69778">
        <ele>9</ele>
        <time>2017-06-25T07:36:28.999Z</time>
      </trkpt>
      <trkpt lat="45.8409" lon="-0.69776">
        <ele>9</ele>
        <time>2017-06-25T07:36:30.999Z</time>
      </trkpt>
      <trkpt lat="45.84093" lon="-0.69775">
        <ele>9</ele>
        <time>2017-06-25T07:36:32.999Z</time>
      </trkpt>
      <trkpt lat="45.84094" lon="-0.69773">
        <ele>9</ele>
        <time>2017-06-25T07:36:33.999Z</time>
      </trkpt>
      <trkpt lat="45.84096" lon="-0.69772">
        <ele>9</ele>
        <time>2017-06-25T07:36:34.999Z</time>
      </trkpt>
      <trkpt lat="45.84097" lon="-0.69771">
        <ele>9</ele>
        <time>2017-06-25T07:36:35.999Z</time>
      </trkpt>
      <trkpt lat="45.84098" lon="-0.69769">
        <ele>9</ele>
        <time>2017-06-25T07:36:36.999Z</time>
      </trkpt>
      <trkpt lat="45.84098" lon="-0.69767">
        <ele>9</ele>
        <time>2017-06-25T07:36:38.999Z</time>
      </trkpt>
      <trkpt lat="45.84099" lon="-0.69766">
        <ele>9</ele>
        <time>2017-06-25T07:36:39.999Z</time>
      </trkpt>
      <trkpt lat="45.841" lon="-0.69765">
        <ele>9</ele>
        <time>2017-06-25T07:36:42.999Z</time>
      </trkpt>
      <trkpt lat="45.84102" lon="-0.69765">
        <ele>9</ele>
        <time>2017-06-25T07:36:43.999Z</time>
      </trkpt>
      <trkpt lat="45.84103" lon="-0.69765">
        <ele>9</ele>
        <time>2017-06-25T07:36:45.999Z</time>
      </trkpt>
      <trkpt lat="45.84106" lon="-0.69763">
        <ele>9</ele>
        <time>2017-06-25T07:36:47.999Z</time>
      </trkpt>
      <trkpt lat="45.84106" lon="-0.69762">
        <ele>9</ele>
        <time>2017-06-25T07:36:48.999Z</time>
      </trkpt>
      <trkpt lat="45.84108" lon="-0.69761">
        <ele>9</ele>
        <time>2017-06-25T07:36:50.999Z</time>
      </trkpt>
      <trkpt lat="45.84109" lon="-0.6976">
        <ele>9</ele>
        <time>2017-06-25T07:36:52.999Z</time>
      </trkpt>
      <trkpt lat="45.8411" lon="-0.6976">
        <ele>10</ele>
        <time>2017-06-25T07:36:55.999Z</time>
      </trkpt>
      <trkpt lat="45.84113" lon="-0.69758">
        <ele>10</ele>
        <time>2017-06-25T07:36:56.999Z</time>
      </trkpt>
      <trkpt lat="45.84115" lon="-0.69757">
        <ele>10</ele>
        <time>2017-06-25T07:36:57.999Z</time>
      </trkpt>
      <trkpt lat="45.84116" lon="-0.69756">
        <ele>10</ele>
        <time>2017-06-25T07:36:59.999Z</time>
      </trkpt>
      <trkpt lat="45.84118" lon="-0.69754">
        <ele>10</ele>
        <time>2017-06-25T07:37:00.999Z</time>
      </trkpt>
      <trkpt lat="45.84118" lon="-0.69751">
        <ele>10</ele>
        <time>2017-06-25T07:37:02.999Z</time>
      </trkpt>
      <trkpt lat="45.84119" lon="-0.69749">
        <ele>9</ele>
        <time>2017-06-25T07:37:03.999Z</time>
      </trkpt>
      <trkpt lat="45.84122" lon="-0.69747">
        <ele>9</ele>
        <time>2017-06-25T07:37:04.999Z</time>
      </trkpt>
      <trkpt lat="45.84124" lon="-0.69745">
        <ele>9</ele>
        <time>2017-06-25T07:37:05.999Z</time>
      </trkpt>
      <trkpt lat="45.84126" lon="-0.69744">
        <ele>9</ele>
        <time>2017-06-25T07:37:06.999Z</time>
      </trkpt>
      <trkpt lat="45.84127" lon="-0.69741">
        <ele>9</ele>
        <time>2017-06-25T07:37:07.999Z</time>
      </trkpt>
      <trkpt lat="45.84129" lon="-0.69738">
        <ele>9</ele>
        <time>2017-06-25T07:37:08.999Z</time>
      </trkpt>
      <trkpt lat="45.84129" lon="-0.69736">
        <ele>9</ele>
        <time>2017-06-25T07:37:09.999Z</time>
      </trkpt>
      <trkpt lat="45.8413" lon="-0.69734">
        <ele>9</ele>
        <time>2017-06-25T07:37:10.999Z</time>
      </trkpt>
      <trkpt lat="45.84131" lon="-0.69732">
        <ele>9</ele>
        <time>2017-06-25T07:37:11.999Z</time>
      </trkpt>
      <trkpt lat="45.84132" lon="-0.6973">
        <ele>9</ele>
        <time>2017-06-25T07:37:12.999Z</time>
      </trkpt>
      <trkpt lat="45.84133" lon="-0.69728">
        <ele>9</ele>
        <time>2017-06-25T07:37:14.999Z</time>
      </trkpt>
      <trkpt lat="45.84133" lon="-0.69727">
        <ele>9</ele>
        <time>2017-06-25T07:37:15.999Z</time>
      </trkpt>
      <trkpt lat="45.84134" lon="-0.69725">
        <ele>9</ele>
        <time>2017-06-25T07:37:18.999Z</time>
      </trkpt>
      <trkpt lat="45.84134" lon="-0.69724">
        <ele>9</ele>
        <time>2017-06-25T07:37:19.999Z</time>
      </trkpt>
      <trkpt lat="45.84134" lon="-0.69721">
        <ele>9</ele>
        <time>2017-06-25T07:37:20.999Z</time>
      </trkpt>
      <trkpt lat="45.84135" lon="-0.69718">
        <ele>9</ele>
        <time>2017-06-25T07:37:21.999Z</time>
      </trkpt>
      <trkpt lat="45.84137" lon="-0.69715">
        <ele>9</ele>
        <time>2017-06-25T07:37:23.999Z</time>
      </trkpt>
      <trkpt lat="45.8414" lon="-0.69715">
        <ele>9</ele>
        <time>2017-06-25T07:37:24.999Z</time>
      </trkpt>
      <trkpt lat="45.84141" lon="-0.69715">
        <ele>9</ele>
        <time>2017-06-25T07:37:25.999Z</time>
      </trkpt>
      <trkpt lat="45.84142" lon="-0.69715">
        <ele>9</ele>
        <time>2017-06-25T07:37:26.999Z</time>
      </trkpt>
      <trkpt lat="45.84144" lon="-0.69715">
        <ele>9</ele>
        <time>2017-06-25T07:37:27.999Z</time>
      </trkpt>
      <trkpt lat="45.84146" lon="-0.69715">
        <ele>9</ele>
        <time>2017-06-25T07:37:28.999Z</time>
      </trkpt>
      <trkpt lat="45.84148" lon="-0.69714">
        <ele>9</ele>
        <time>2017-06-25T07:37:29.999Z</time>
      </trkpt>
      <trkpt lat="45.84149" lon="-0.69713">
        <ele>9</ele>
        <time>2017-06-25T07:37:30.999Z</time>
      </trkpt>
      <trkpt lat="45.84151" lon="-0.69712">
        <ele>9</ele>
        <time>2017-06-25T07:37:31.999Z</time>
      </trkpt>
      <trkpt lat="45.84153" lon="-0.69712">
        <ele>9</ele>
        <time>2017-06-25T07:37:33.999Z</time>
      </trkpt>
      <trkpt lat="45.84154" lon="-0.69711">
        <ele>9</ele>
        <time>2017-06-25T07:37:34.999Z</time>
      </trkpt>
      <trkpt lat="45.84155" lon="-0.69709">
        <ele>9</ele>
        <time>2017-06-25T07:37:35.999Z</time>
      </trkpt>
      <trkpt lat="45.84156" lon="-0.69711">
        <ele>9</ele>
        <time>2017-06-25T07:37:36.999Z</time>
      </trkpt>
      <trkpt lat="45.84157" lon="-0.6971">
        <ele>9</ele>
        <time>2017-06-25T07:37:37.999Z</time>
      </trkpt>
      <trkpt lat="45.8416" lon="-0.6971">
        <ele>9</ele>
        <time>2017-06-25T07:37:38.999Z</time>
      </trkpt>
      <trkpt lat="45.84163" lon="-0.69709">
        <ele>9</ele>
        <time>2017-06-25T07:37:39.999Z</time>
      </trkpt>
      <trkpt lat="45.84164" lon="-0.69709">
        <ele>9</ele>
        <time>2017-06-25T07:37:40.999Z</time>
      </trkpt>
      <trkpt lat="45.84166" lon="-0.69706">
        <ele>9</ele>
        <time>2017-06-25T07:37:41.999Z</time>
      </trkpt>
      <trkpt lat="45.84168" lon="-0.69705">
        <ele>11</ele>
        <time>2017-06-25T07:37:42.999Z</time>
      </trkpt>
      <trkpt lat="45.84169" lon="-0.69702">
        <ele>11</ele>
        <time>2017-06-25T07:37:44.999Z</time>
      </trkpt>
      <trkpt lat="45.84169" lon="-0.697">
        <ele>11</ele>
        <time>2017-06-25T07:37:45.999Z</time>
      </trkpt>
      <trkpt lat="45.8417" lon="-0.69697">
        <ele>11</ele>
        <time>2017-06-25T07:37:46.999Z</time>
      </trkpt>
      <trkpt lat="45.84171" lon="-0.69694">
        <ele>11</ele>
        <time>2017-06-25T07:37:47.999Z</time>
      </trkpt>
      <trkpt lat="45.84171" lon="-0.69693">
        <ele>11</ele>
        <time>2017-06-25T07:37:48.999Z</time>
      </trkpt>
      <trkpt lat="45.84172" lon="-0.69693">
        <ele>11</ele>
        <time>2017-06-25T07:37:49.999Z</time>
      </trkpt>
      <trkpt lat="45.84173" lon="-0.69691">
        <ele>11</ele>
        <time>2017-06-25T07:37:50.999Z</time>
      </trkpt>
      <trkpt lat="45.84176" lon="-0.69691">
        <ele>11</ele>
        <time>2017-06-25T07:37:51.999Z</time>
      </trkpt>
      <trkpt lat="45.84177" lon="-0.6969">
        <ele>11</ele>
        <time>2017-06-25T07:37:52.999Z</time>
      </trkpt>
      <trkpt lat="45.84179" lon="-0.69689">
        <ele>11</ele>
        <time>2017-06-25T07:37:53.999Z</time>
      </trkpt>
      <trkpt lat="45.84181" lon="-0.69688">
        <ele>11</ele>
        <time>2017-06-25T07:37:54.999Z</time>
      </trkpt>
      <trkpt lat="45.84182" lon="-0.69686">
        <ele>11</ele>
        <time>2017-06-25T07:37:55.999Z</time>
      </trkpt>
      <trkpt lat="45.84183" lon="-0.69684">
        <ele>11</ele>
        <time>2017-06-25T07:37:56.999Z</time>
      </trkpt>
      <trkpt lat="45.84184" lon="-0.69682">
        <ele>11</ele>
        <time>2017-06-25T07:37:57.999Z</time>
      </trkpt>
      <trkpt lat="45.84185" lon="-0.69682">
        <ele>11</ele>
        <time>2017-06-25T07:37:58.999Z</time>
      </trkpt>
      <trkpt lat="45.84187" lon="-0.69682">
        <ele>11</ele>
        <time>2017-06-25T07:37:59.999Z</time>
      </trkpt>
      <trkpt lat="45.84188" lon="-0.69681">
        <ele>11</ele>
        <time>2017-06-25T07:38:00.999Z</time>
      </trkpt>
      <trkpt lat="45.8419" lon="-0.6968">
        <ele>11</ele>
        <time>2017-06-25T07:38:01.999Z</time>
      </trkpt>
      <trkpt lat="45.84192" lon="-0.69679">
        <ele>11</ele>
        <time>2017-06-25T07:38:02.999Z</time>
      </trkpt>
      <trkpt lat="45.84193" lon="-0.69679">
        <ele>11</ele>
        <time>2017-06-25T07:38:03.999Z</time>
      </trkpt>
      <trkpt lat="45.84195" lon="-0.69679">
        <ele>11</ele>
        <time>2017-06-25T07:38:05.999Z</time>
      </trkpt>
      <trkpt lat="45.84197" lon="-0.69678">
        <ele>11</ele>
        <time>2017-06-25T07:38:06.999Z</time>
      </trkpt>
      <trkpt lat="45.84198" lon="-0.69678">
        <ele>11</ele>
        <time>2017-06-25T07:38:07.999Z</time>
      </trkpt>
      <trkpt lat="45.842" lon="-0.69677">
        <ele>11</ele>
        <time>2017-06-25T07:38:08.999Z</time>
      </trkpt>
      <trkpt lat="45.84202" lon="-0.69676">
        <ele>11</ele>
        <time>2017-06-25T07:38:09.999Z</time>
      </trkpt>
      <trkpt lat="45.84203" lon="-0.69675">
        <ele>12</ele>
        <time>2017-06-25T07:38:10.999Z</time>
      </trkpt>
      <trkpt lat="45.84205" lon="-0.69674">
        <ele>12</ele>
        <time>2017-06-25T07:38:11.999Z</time>
      </trkpt>
      <trkpt lat="45.84206" lon="-0.69673">
        <ele>12</ele>
        <time>2017-06-25T07:38:12.999Z</time>
      </trkpt>
      <trkpt lat="45.84207" lon="-0.69671">
        <ele>12</ele>
        <time>2017-06-25T07:38:13.999Z</time>
      </trkpt>
      <trkpt lat="45.84208" lon="-0.69671">
        <ele>12</ele>
        <time>2017-06-25T07:38:15.999Z</time>
      </trkpt>
      <trkpt lat="45.84209" lon="-0.69668">
        <ele>12</ele>
        <time>2017-06-25T07:38:16.999Z</time>
      </trkpt>
      <trkpt lat="45.8421" lon="-0.69667">
        <ele>12</ele>
        <time>2017-06-25T07:38:17.999Z</time>
      </trkpt>
      <trkpt lat="45.8421" lon="-0.69666">
        <ele>10</ele>
        <time>2017-06-25T07:38:18.999Z</time>
      </trkpt>
      <trkpt lat="45.84211" lon="-0.69663">
        <ele>10</ele>
        <time>2017-06-25T07:38:19.999Z</time>
      </trkpt>
      <trkpt lat="45.84212" lon="-0.69662">
        <ele>10</ele>
        <time>2017-06-25T07:38:20.999Z</time>
      </trkpt>
      <trkpt lat="45.84213" lon="-0.69659">
        <ele>10</ele>
        <time>2017-06-25T07:38:22.999Z</time>
      </trkpt>
      <trkpt lat="45.84214" lon="-0.69659">
        <ele>10</ele>
        <time>2017-06-25T07:38:23.999Z</time>
      </trkpt>
      <trkpt lat="45.84215" lon="-0.69658">
        <ele>10</ele>
        <time>2017-06-25T07:38:24.999Z</time>
      </trkpt>
      <trkpt lat="45.84216" lon="-0.69657">
        <ele>11</ele>
        <time>2017-06-25T07:38:26.999Z</time>
      </trkpt>
      <trkpt lat="45.84217" lon="-0.69656">
        <ele>11</ele>
        <time>2017-06-25T07:38:28.999Z</time>
      </trkpt>
      <trkpt lat="45.84218" lon="-0.69654">
        <ele>11</ele>
        <time>2017-06-25T07:38:30.999Z</time>
      </trkpt>
      <trkpt lat="45.84219" lon="-0.69653">
        <ele>11</ele>
        <time>2017-06-25T07:38:31.999Z</time>
      </trkpt>
      <trkpt lat="45.8422" lon="-0.69651">
        <ele>11</ele>
        <time>2017-06-25T07:38:33.999Z</time>
      </trkpt>
      <trkpt lat="45.84221" lon="-0.69649">
        <ele>11</ele>
        <time>2017-06-25T07:38:34.999Z</time>
      </trkpt>
      <trkpt lat="45.84222" lon="-0.69647">
        <ele>11</ele>
        <time>2017-06-25T07:38:36.999Z</time>
      </trkpt>
      <trkpt lat="45.84222" lon="-0.69645">
        <ele>11</ele>
        <time>2017-06-25T07:38:37.999Z</time>
      </trkpt>
      <trkpt lat="45.84224" lon="-0.69644">
        <ele>11</ele>
        <time>2017-06-25T07:38:38.999Z</time>
      </trkpt>
      <trkpt lat="45.84225" lon="-0.69643">
        <ele>11</ele>
        <time>2017-06-25T07:38:39.999Z</time>
      </trkpt>
      <trkpt lat="45.84226" lon="-0.69643">
        <ele>11</ele>
        <time>2017-06-25T07:38:40.999Z</time>
      </trkpt>
      <trkpt lat="45.84228" lon="-0.69642">
        <ele>11</ele>
        <time>2017-06-25T07:38:42.999Z</time>
      </trkpt>
      <trkpt lat="45.84228" lon="-0.69641">
        <ele>11</ele>
        <time>2017-06-25T07:38:43.999Z</time>
      </trkpt>
      <trkpt lat="45.84229" lon="-0.6964">
        <ele>11</ele>
        <time>2017-06-25T07:38:44.999Z</time>
      </trkpt>
      <trkpt lat="45.8423" lon="-0.69639">
        <ele>11</ele>
        <time>2017-06-25T07:38:45.999Z</time>
      </trkpt>
      <trkpt lat="45.84231" lon="-0.69635">
        <ele>10</ele>
        <time>2017-06-25T07:38:47.999Z</time>
      </trkpt>
      <trkpt lat="45.84232" lon="-0.69633">
        <ele>10</ele>
        <time>2017-06-25T07:38:48.999Z</time>
      </trkpt>
      <trkpt lat="45.84232" lon="-0.69632">
        <ele>10</ele>
        <time>2017-06-25T07:38:49.999Z</time>
      </trkpt>
      <trkpt lat="45.84233" lon="-0.6963">
        <ele>10</ele>
        <time>2017-06-25T07:38:50.999Z</time>
      </trkpt>
      <trkpt lat="45.84234" lon="-0.69629">
        <ele>10</ele>
        <time>2017-06-25T07:38:51.999Z</time>
      </trkpt>
      <trkpt lat="45.84234" lon="-0.69627">
        <ele>10</ele>
        <time>2017-06-25T07:38:52.999Z</time>
      </trkpt>
      <trkpt lat="45.84235" lon="-0.69626">
        <ele>10</ele>
        <time>2017-06-25T07:38:53.999Z</time>
      </trkpt>
      <trkpt lat="45.84236" lon="-0.69624">
        <ele>10</ele>
        <time>2017-06-25T07:38:54.999Z</time>
      </trkpt>
      <trkpt lat="45.84238" lon="-0.69622">
        <ele>10</ele>
        <time>2017-06-25T07:38:55.999Z</time>
      </trkpt>
      <trkpt lat="45.8424" lon="-0.69621">
        <ele>10</ele>
        <time>2017-06-25T07:38:56.999Z</time>
      </trkpt>
      <trkpt lat="45.8424" lon="-0.69619">
        <ele>10</ele>
        <time>2017-06-25T07:38:57.999Z</time>
      </trkpt>
      <trkpt lat="45.84241" lon="-0.69618">
        <ele>10</ele>
        <time>2017-06-25T07:38:58.999Z</time>
      </trkpt>
      <trkpt lat="45.84242" lon="-0.69616">
        <ele>10</ele>
        <time>2017-06-25T07:38:59.999Z</time>
      </trkpt>
      <trkpt lat="45.84243" lon="-0.69614">
        <ele>10</ele>
        <time>2017-06-25T07:39:00.999Z</time>
      </trkpt>
      <trkpt lat="45.84244" lon="-0.69613">
        <ele>10</ele>
        <time>2017-06-25T07:39:01.999Z</time>
      </trkpt>
      <trkpt lat="45.84244" lon="-0.69612">
        <ele>10</ele>
        <time>2017-06-25T07:39:02.999Z</time>
      </trkpt>
      <trkpt lat="45.84245" lon="-0.69611">
        <ele>10</ele>
        <time>2017-06-25T07:39:03.999Z</time>
      </trkpt>
      <trkpt lat="45.84246" lon="-0.6961">
        <ele>10</ele>
        <time>2017-06-25T07:39:04.999Z</time>
      </trkpt>
      <trkpt lat="45.84248" lon="-0.69609">
        <ele>9</ele>
        <time>2017-06-25T07:39:06.999Z</time>
      </trkpt>
      <trkpt lat="45.84248" lon="-0.69607">
        <ele>9</ele>
        <time>2017-06-25T07:39:07.999Z</time>
      </trkpt>
      <trkpt lat="45.84249" lon="-0.69606">
        <ele>9</ele>
        <time>2017-06-25T07:39:08.999Z</time>
      </trkpt>
      <trkpt lat="45.8425" lon="-0.69605">
        <ele>9</ele>
        <time>2017-06-25T07:39:09.999Z</time>
      </trkpt>
      <trkpt lat="45.84251" lon="-0.69603">
        <ele>11</ele>
        <time>2017-06-25T07:39:10.999Z</time>
      </trkpt>
      <trkpt lat="45.84252" lon="-0.69602">
        <ele>11</ele>
        <time>2017-06-25T07:39:11.999Z</time>
      </trkpt>
      <trkpt lat="45.84253" lon="-0.69601">
        <ele>10</ele>
        <time>2017-06-25T07:39:12.999Z</time>
      </trkpt>
      <trkpt lat="45.84254" lon="-0.696">
        <ele>10</ele>
        <time>2017-06-25T07:39:13.999Z</time>
      </trkpt>
      <trkpt lat="45.84255" lon="-0.69599">
        <ele>10</ele>
        <time>2017-06-25T07:39:14.999Z</time>
      </trkpt>
      <trkpt lat="45.84255" lon="-0.69597">
        <ele>10</ele>
        <time>2017-06-25T07:39:15.999Z</time>
      </trkpt>
      <trkpt lat="45.84256" lon="-0.69595">
        <ele>10</ele>
        <time>2017-06-25T07:39:16.999Z</time>
      </trkpt>
      <trkpt lat="45.84257" lon="-0.69594">
        <ele>10</ele>
        <time>2017-06-25T07:39:17.999Z</time>
      </trkpt>
      <trkpt lat="45.84258" lon="-0.69592">
        <ele>10</ele>
        <time>2017-06-25T07:39:18.999Z</time>
      </trkpt>
      <trkpt lat="45.84259" lon="-0.69591">
        <ele>10</ele>
        <time>2017-06-25T07:39:19.999Z</time>
      </trkpt>
      <trkpt lat="45.84261" lon="-0.6959">
        <ele>10</ele>
        <time>2017-06-25T07:39:20.999Z</time>
      </trkpt>
      <trkpt lat="45.84262" lon="-0.69589">
        <ele>10</ele>
        <time>2017-06-25T07:39:21.999Z</time>
      </trkpt>
      <trkpt lat="45.84263" lon="-0.69587">
        <ele>10</ele>
        <time>2017-06-25T07:39:22.999Z</time>
      </trkpt>
      <trkpt lat="45.84264" lon="-0.69586">
        <ele>10</ele>
        <time>2017-06-25T07:39:23.999Z</time>
      </trkpt>
      <trkpt lat="45.84265" lon="-0.69586">
        <ele>10</ele>
        <time>2017-06-25T07:39:24.999Z</time>
      </trkpt>
      <trkpt lat="45.84266" lon="-0.69586">
        <ele>10</ele>
        <time>2017-06-25T07:39:25.999Z</time>
      </trkpt>
      <trkpt lat="45.84267" lon="-0.69585">
        <ele>10</ele>
        <time>2017-06-25T07:39:26.999Z</time>
      </trkpt>
      <trkpt lat="45.84268" lon="-0.69584">
        <ele>11</ele>
        <time>2017-06-25T07:39:27.999Z</time>
      </trkpt>
      <trkpt lat="45.84269" lon="-0.69583">
        <ele>9</ele>
        <time>2017-06-25T07:39:28.999Z</time>
      </trkpt>
      <trkpt lat="45.8427" lon="-0.69581">
        <ele>9</ele>
        <time>2017-06-25T07:39:29.999Z</time>
      </trkpt>
      <trkpt lat="45.84271" lon="-0.69579">
        <ele>9</ele>
        <time>2017-06-25T07:39:30.999Z</time>
      </trkpt>
      <trkpt lat="45.84271" lon="-0.69577">
        <ele>9</ele>
        <time>2017-06-25T07:39:31.999Z</time>
      </trkpt>
      <trkpt lat="45.84272" lon="-0.69575">
        <ele>9</ele>
        <time>2017-06-25T07:39:32.999Z</time>
      </trkpt>
      <trkpt lat="45.84272" lon="-0.69573">
        <ele>9</ele>
        <time>2017-06-25T07:39:33.999Z</time>
      </trkpt>
      <trkpt lat="45.84272" lon="-0.69571">
        <ele>9</ele>
        <time>2017-06-25T07:39:34.999Z</time>
      </trkpt>
      <trkpt lat="45.84272" lon="-0.69569">
        <ele>9</ele>
        <time>2017-06-25T07:39:35.999Z</time>
      </trkpt>
      <trkpt lat="45.84273" lon="-0.69567">
        <ele>9</ele>
        <time>2017-06-25T07:39:36.999Z</time>
      </trkpt>
      <trkpt lat="45.84274" lon="-0.69565">
        <ele>9</ele>
        <time>2017-06-25T07:39:37.999Z</time>
      </trkpt>
      <trkpt lat="45.84274" lon="-0.69562">
        <ele>9</ele>
        <time>2017-06-25T07:39:38.999Z</time>
      </trkpt>
      <trkpt lat="45.84275" lon="-0.69561">
        <ele>9</ele>
        <time>2017-06-25T07:39:39.999Z</time>
      </trkpt>
      <trkpt lat="45.84276" lon="-0.69559">
        <ele>9</ele>
        <time>2017-06-25T07:39:40.999Z</time>
      </trkpt>
      <trkpt lat="45.84277" lon="-0.69557">
        <ele>9</ele>
        <time>2017-06-25T07:39:41.999Z</time>
      </trkpt>
      <trkpt lat="45.84277" lon="-0.69555">
        <ele>9</ele>
        <time>2017-06-25T07:39:42.999Z</time>
      </trkpt>
      <trkpt lat="45.84279" lon="-0.69553">
        <ele>9</ele>
        <time>2017-06-25T07:39:44.999Z</time>
      </trkpt>
      <trkpt lat="45.84279" lon="-0.69552">
        <ele>9</ele>
        <time>2017-06-25T07:39:45.999Z</time>
      </trkpt>
      <trkpt lat="45.84281" lon="-0.6955">
        <ele>9</ele>
        <time>2017-06-25T07:39:46.999Z</time>
      </trkpt>
      <trkpt lat="45.84282" lon="-0.69548">
        <ele>9</ele>
        <time>2017-06-25T07:39:47.999Z</time>
      </trkpt>
      <trkpt lat="45.84282" lon="-0.69546">
        <ele>9</ele>
        <time>2017-06-25T07:39:48.999Z</time>
      </trkpt>
      <trkpt lat="45.84283" lon="-0.69545">
        <ele>9</ele>
        <time>2017-06-25T07:39:49.999Z</time>
      </trkpt>
      <trkpt lat="45.84283" lon="-0.69544">
        <ele>9</ele>
        <time>2017-06-25T07:39:50.999Z</time>
      </trkpt>
      <trkpt lat="45.84285" lon="-0.69542">
        <ele>9</ele>
        <time>2017-06-25T07:39:51.999Z</time>
      </trkpt>
      <trkpt lat="45.84286" lon="-0.69541">
        <ele>9</ele>
        <time>2017-06-25T07:39:52.999Z</time>
      </trkpt>
      <trkpt lat="45.84287" lon="-0.6954">
        <ele>9</ele>
        <time>2017-06-25T07:39:53.999Z</time>
      </trkpt>
      <trkpt lat="45.84287" lon="-0.69538">
        <ele>9</ele>
        <time>2017-06-25T07:39:54.999Z</time>
      </trkpt>
      <trkpt lat="45.84288" lon="-0.69537">
        <ele>9</ele>
        <time>2017-06-25T07:39:55.999Z</time>
      </trkpt>
      <trkpt lat="45.84289" lon="-0.69535">
        <ele>9</ele>
        <time>2017-06-25T07:39:56.999Z</time>
      </trkpt>
      <trkpt lat="45.8429" lon="-0.69533">
        <ele>9</ele>
        <time>2017-06-25T07:39:57.999Z</time>
      </trkpt>
      <trkpt lat="45.84291" lon="-0.69531">
        <ele>9</ele>
        <time>2017-06-25T07:39:58.999Z</time>
      </trkpt>
      <trkpt lat="45.84292" lon="-0.6953">
        <ele>9</ele>
        <time>2017-06-25T07:39:59.999Z</time>
      </trkpt>
      <trkpt lat="45.84293" lon="-0.69526">
        <ele>9</ele>
        <time>2017-06-25T07:40:00.999Z</time>
      </trkpt>
      <trkpt lat="45.84294" lon="-0.69524">
        <ele>9</ele>
        <time>2017-06-25T07:40:01.999Z</time>
      </trkpt>
      <trkpt lat="45.84295" lon="-0.69522">
        <ele>9</ele>
        <time>2017-06-25T07:40:02.999Z</time>
      </trkpt>
      <trkpt lat="45.84296" lon="-0.6952">
        <ele>9</ele>
        <time>2017-06-25T07:40:03.999Z</time>
      </trkpt>
      <trkpt lat="45.84296" lon="-0.69517">
        <ele>9</ele>
        <time>2017-06-25T07:40:04.999Z</time>
      </trkpt>
      <trkpt lat="45.84297" lon="-0.69515">
        <ele>9</ele>
        <time>2017-06-25T07:40:05.999Z</time>
      </trkpt>
      <trkpt lat="45.84298" lon="-0.69513">
        <ele>9</ele>
        <time>2017-06-25T07:40:07.999Z</time>
      </trkpt>
      <trkpt lat="45.843" lon="-0.69511">
        <ele>9</ele>
        <time>2017-06-25T07:40:09.999Z</time>
      </trkpt>
      <trkpt lat="45.843" lon="-0.6951">
        <ele>9</ele>
        <time>2017-06-25T07:40:10.999Z</time>
      </trkpt>
      <trkpt lat="45.84303" lon="-0.69506">
        <ele>10</ele>
        <time>2017-06-25T07:40:12.999Z</time>
      </trkpt>
      <trkpt lat="45.84304" lon="-0.69505">
        <ele>10</ele>
        <time>2017-06-25T07:40:13.999Z</time>
      </trkpt>
      <trkpt lat="45.84304" lon="-0.69503">
        <ele>10</ele>
        <time>2017-06-25T07:40:14.999Z</time>
      </trkpt>
      <trkpt lat="45.84306" lon="-0.69502">
        <ele>10</ele>
        <time>2017-06-25T07:40:15.999Z</time>
      </trkpt>
      <trkpt lat="45.84308" lon="-0.69499">
        <ele>8</ele>
        <time>2017-06-25T07:40:17.999Z</time>
      </trkpt>
      <trkpt lat="45.84308" lon="-0.69497">
        <ele>8</ele>
        <time>2017-06-25T07:40:18.999Z</time>
      </trkpt>
      <trkpt lat="45.84308" lon="-0.69495">
        <ele>8</ele>
        <time>2017-06-25T07:40:19.999Z</time>
      </trkpt>
      <trkpt lat="45.84308" lon="-0.69493">
        <ele>8</ele>
        <time>2017-06-25T07:40:20.999Z</time>
      </trkpt>
      <trkpt lat="45.84309" lon="-0.69491">
        <ele>8</ele>
        <time>2017-06-25T07:40:21.999Z</time>
      </trkpt>
      <trkpt lat="45.84309" lon="-0.6949">
        <ele>8</ele>
        <time>2017-06-25T07:40:22.999Z</time>
      </trkpt>
      <trkpt lat="45.8431" lon="-0.69488">
        <ele>8</ele>
        <time>2017-06-25T07:40:23.999Z</time>
      </trkpt>
      <trkpt lat="45.84311" lon="-0.69486">
        <ele>8</ele>
        <time>2017-06-25T07:40:24.999Z</time>
      </trkpt>
      <trkpt lat="45.84311" lon="-0.69485">
        <ele>8</ele>
        <time>2017-06-25T07:40:25.999Z</time>
      </trkpt>
      <trkpt lat="45.84312" lon="-0.69483">
        <ele>8</ele>
        <time>2017-06-25T07:40:26.999Z</time>
      </trkpt>
      <trkpt lat="45.84312" lon="-0.69481">
        <ele>8</ele>
        <time>2017-06-25T07:40:28.999Z</time>
      </trkpt>
      <trkpt lat="45.84313" lon="-0.69479">
        <ele>8</ele>
        <time>2017-06-25T07:40:29.999Z</time>
      </trkpt>
      <trkpt lat="45.84314" lon="-0.69478">
        <ele>8</ele>
        <time>2017-06-25T07:40:30.999Z</time>
      </trkpt>
      <trkpt lat="45.84316" lon="-0.69477">
        <ele>8</ele>
        <time>2017-06-25T07:40:32.999Z</time>
      </trkpt>
      <trkpt lat="45.84317" lon="-0.69476">
        <ele>8</ele>
        <time>2017-06-25T07:40:34.999Z</time>
      </trkpt>
      <trkpt lat="45.84319" lon="-0.69475">
        <ele>8</ele>
        <time>2017-06-25T07:40:35.999Z</time>
      </trkpt>
      <trkpt lat="45.8432" lon="-0.69474">
        <ele>8</ele>
        <time>2017-06-25T07:40:36.999Z</time>
      </trkpt>
      <trkpt lat="45.84322" lon="-0.69473">
        <ele>8</ele>
        <time>2017-06-25T07:40:37.999Z</time>
      </trkpt>
      <trkpt lat="45.84322" lon="-0.69473">
        <ele>8</ele>
        <time>2017-06-25T07:40:38.999Z</time>
      </trkpt>
      <trkpt lat="45.84324" lon="-0.69472">
        <ele>8</ele>
        <time>2017-06-25T07:40:39.999Z</time>
      </trkpt>
      <trkpt lat="45.84325" lon="-0.69472">
        <ele>8</ele>
        <time>2017-06-25T07:40:40.999Z</time>
      </trkpt>
      <trkpt lat="45.84327" lon="-0.69471">
        <ele>8</ele>
        <time>2017-06-25T07:40:41.999Z</time>
      </trkpt>
      <trkpt lat="45.84329" lon="-0.6947">
        <ele>8</ele>
        <time>2017-06-25T07:40:42.999Z</time>
      </trkpt>
      <trkpt lat="45.8433" lon="-0.69469">
        <ele>8</ele>
        <time>2017-06-25T07:40:43.999Z</time>
      </trkpt>
      <trkpt lat="45.84331" lon="-0.69469">
        <ele>8</ele>
        <time>2017-06-25T07:40:44.999Z</time>
      </trkpt>
      <trkpt lat="45.84332" lon="-0.69468">
        <ele>8</ele>
        <time>2017-06-25T07:40:45.999Z</time>
      </trkpt>
      <trkpt lat="45.84333" lon="-0.69467">
        <ele>8</ele>
        <time>2017-06-25T07:40:46.999Z</time>
      </trkpt>
      <trkpt lat="45.84334" lon="-0.69466">
        <ele>10</ele>
        <time>2017-06-25T07:40:47.999Z</time>
      </trkpt>
      <trkpt lat="45.84336" lon="-0.69465">
        <ele>10</ele>
        <time>2017-06-25T07:40:48.999Z</time>
      </trkpt>
      <trkpt lat="45.84338" lon="-0.69463">
        <ele>9</ele>
        <time>2017-06-25T07:40:50.999Z</time>
      </trkpt>
      <trkpt lat="45.84339" lon="-0.69462">
        <ele>9</ele>
        <time>2017-06-25T07:40:51.999Z</time>
      </trkpt>
      <trkpt lat="45.8434" lon="-0.69461">
        <ele>9</ele>
        <time>2017-06-25T07:40:52.999Z</time>
      </trkpt>
      <trkpt lat="45.84341" lon="-0.6946">
        <ele>9</ele>
        <time>2017-06-25T07:40:53.999Z</time>
      </trkpt>
      <trkpt lat="45.84343" lon="-0.6946">
        <ele>9</ele>
        <time>2017-06-25T07:40:55.999Z</time>
      </trkpt>
      <trkpt lat="45.84345" lon="-0.69459">
        <ele>9</ele>
        <time>2017-06-25T07:40:56.999Z</time>
      </trkpt>
      <trkpt lat="45.84346" lon="-0.69458">
        <ele>9</ele>
        <time>2017-06-25T07:40:57.999Z</time>
      </trkpt>
      <trkpt lat="45.84347" lon="-0.69457">
        <ele>9</ele>
        <time>2017-06-25T07:40:58.999Z</time>
      </trkpt>
      <trkpt lat="45.84349" lon="-0.69457">
        <ele>9</ele>
        <time>2017-06-25T07:40:59.999Z</time>
      </trkpt>
      <trkpt lat="45.84351" lon="-0.69455">
        <ele>9</ele>
        <time>2017-06-25T07:41:00.999Z</time>
      </trkpt>
      <trkpt lat="45.84351" lon="-0.69454">
        <ele>9</ele>
        <time>2017-06-25T07:41:01.999Z</time>
      </trkpt>
      <trkpt lat="45.84353" lon="-0.69453">
        <ele>9</ele>
        <time>2017-06-25T07:41:03.999Z</time>
      </trkpt>
      <trkpt lat="45.84354" lon="-0.69453">
        <ele>9</ele>
        <time>2017-06-25T07:41:04.999Z</time>
      </trkpt>
      <trkpt lat="45.84356" lon="-0.69452">
        <ele>9</ele>
        <time>2017-06-25T07:41:06.999Z</time>
      </trkpt>
      <trkpt lat="45.84358" lon="-0.69451">
        <ele>9</ele>
        <time>2017-06-25T07:41:07.999Z</time>
      </trkpt>
      <trkpt lat="45.84358" lon="-0.69451">
        <ele>9</ele>
        <time>2017-06-25T07:41:08.999Z</time>
      </trkpt>
      <trkpt lat="45.84359" lon="-0.6945">
        <ele>9</ele>
        <time>2017-06-25T07:41:09.999Z</time>
      </trkpt>
      <trkpt lat="45.8436" lon="-0.6945">
        <ele>9</ele>
        <time>2017-06-25T07:41:10.999Z</time>
      </trkpt>
      <trkpt lat="45.84361" lon="-0.69449">
        <ele>9</ele>
        <time>2017-06-25T07:41:11.999Z</time>
      </trkpt>
      <trkpt lat="45.84362" lon="-0.69449">
        <ele>9</ele>
        <time>2017-06-25T07:41:12.999Z</time>
      </trkpt>
      <trkpt lat="45.84364" lon="-0.69448">
        <ele>9</ele>
        <time>2017-06-25T07:41:13.999Z</time>
      </trkpt>
      <trkpt lat="45.84365" lon="-0.69448">
        <ele>9</ele>
        <time>2017-06-25T07:41:15.999Z</time>
      </trkpt>
      <trkpt lat="45.84367" lon="-0.69448">
        <ele>9</ele>
        <time>2017-06-25T07:41:16.999Z</time>
      </trkpt>
      <trkpt lat="45.84368" lon="-0.69448">
        <ele>9</ele>
        <time>2017-06-25T07:41:17.999Z</time>
      </trkpt>
      <trkpt lat="45.84369" lon="-0.69448">
        <ele>9</ele>
        <time>2017-06-25T07:41:18.999Z</time>
      </trkpt>
      <trkpt lat="45.8437" lon="-0.69448">
        <ele>9</ele>
        <time>2017-06-25T07:41:19.999Z</time>
      </trkpt>
      <trkpt lat="45.84372" lon="-0.69448">
        <ele>9</ele>
        <time>2017-06-25T07:41:20.999Z</time>
      </trkpt>
      <trkpt lat="45.84374" lon="-0.69448">
        <ele>9</ele>
        <time>2017-06-25T07:41:22.999Z</time>
      </trkpt>
      <trkpt lat="45.84375" lon="-0.69449">
        <ele>9</ele>
        <time>2017-06-25T07:41:23.999Z</time>
      </trkpt>
      <trkpt lat="45.84375" lon="-0.6945">
        <ele>10</ele>
        <time>2017-06-25T07:41:24.999Z</time>
      </trkpt>
      <trkpt lat="45.84377" lon="-0.6945">
        <ele>10</ele>
        <time>2017-06-25T07:41:26.999Z</time>
      </trkpt>
      <trkpt lat="45.84378" lon="-0.69449">
        <ele>10</ele>
        <time>2017-06-25T07:41:50.999Z</time>
      </trkpt>
      <trkpt lat="45.84379" lon="-0.69449">
        <ele>10</ele>
        <time>2017-06-25T07:41:51.999Z</time>
      </trkpt>
      <trkpt lat="45.84381" lon="-0.6945">
        <ele>10</ele>
        <time>2017-06-25T07:41:53.999Z</time>
      </trkpt>
      <trkpt lat="45.84382" lon="-0.69451">
        <ele>10</ele>
        <time>2017-06-25T07:41:54.999Z</time>
      </trkpt>
      <trkpt lat="45.84383" lon="-0.69453">
        <ele>10</ele>
        <time>2017-06-25T07:41:55.999Z</time>
      </trkpt>
      <trkpt lat="45.84383" lon="-0.69455">
        <ele>10</ele>
        <time>2017-06-25T07:41:56.999Z</time>
      </trkpt>
      <trkpt lat="45.84384" lon="-0.69456">
        <ele>10</ele>
        <time>2017-06-25T07:41:57.999Z</time>
      </trkpt>
      <trkpt lat="45.84385" lon="-0.69457">
        <ele>10</ele>
        <time>2017-06-25T07:41:59.999Z</time>
      </trkpt>
      <trkpt lat="45.84386" lon="-0.69458">
        <ele>10</ele>
        <time>2017-06-25T07:42:00.999Z</time>
      </trkpt>
      <trkpt lat="45.84387" lon="-0.6946">
        <ele>10</ele>
        <time>2017-06-25T07:42:01.999Z</time>
      </trkpt>
      <trkpt lat="45.84388" lon="-0.69461">
        <ele>10</ele>
        <time>2017-06-25T07:42:02.999Z</time>
      </trkpt>
      <trkpt lat="45.84389" lon="-0.69463">
        <ele>10</ele>
        <time>2017-06-25T07:42:04.999Z</time>
      </trkpt>
      <trkpt lat="45.8439" lon="-0.69464">
        <ele>10</ele>
        <time>2017-06-25T07:42:05.999Z</time>
      </trkpt>
      <trkpt lat="45.8439" lon="-0.69466">
        <ele>10</ele>
        <time>2017-06-25T07:42:06.999Z</time>
      </trkpt>
      <trkpt lat="45.84391" lon="-0.69467">
        <ele>10</ele>
        <time>2017-06-25T07:42:07.999Z</time>
      </trkpt>
      <trkpt lat="45.84392" lon="-0.69469">
        <ele>10</ele>
        <time>2017-06-25T07:42:08.999Z</time>
      </trkpt>
      <trkpt lat="45.84393" lon="-0.69471">
        <ele>10</ele>
        <time>2017-06-25T07:42:09.999Z</time>
      </trkpt>
      <trkpt lat="45.84393" lon="-0.69473">
        <ele>10</ele>
        <time>2017-06-25T07:42:10.999Z</time>
      </trkpt>
      <trkpt lat="45.84394" lon="-0.69474">
        <ele>11</ele>
        <time>2017-06-25T07:42:11.999Z</time>
      </trkpt>
      <trkpt lat="45.84395" lon="-0.69476">
        <ele>11</ele>
        <time>2017-06-25T07:42:12.999Z</time>
      </trkpt>
      <trkpt lat="45.84395" lon="-0.69477">
        <ele>11</ele>
        <time>2017-06-25T07:42:13.999Z</time>
      </trkpt>
      <trkpt lat="45.84396" lon="-0.69478">
        <ele>11</ele>
        <time>2017-06-25T07:42:14.999Z</time>
      </trkpt>
      <trkpt lat="45.84396" lon="-0.69479">
        <ele>11</ele>
        <time>2017-06-25T07:42:15.999Z</time>
      </trkpt>
      <trkpt lat="45.84398" lon="-0.6948">
        <ele>11</ele>
        <time>2017-06-25T07:42:16.999Z</time>
      </trkpt>
      <trkpt lat="45.84399" lon="-0.69481">
        <ele>11</ele>
        <time>2017-06-25T07:42:17.999Z</time>
      </trkpt>
      <trkpt lat="45.844" lon="-0.69483">
        <ele>11</ele>
        <time>2017-06-25T07:42:18.999Z</time>
      </trkpt>
      <trkpt lat="45.84401" lon="-0.69484">
        <ele>11</ele>
        <time>2017-06-25T07:42:19.999Z</time>
      </trkpt>
      <trkpt lat="45.84401" lon="-0.69486">
        <ele>11</ele>
        <time>2017-06-25T07:42:20.999Z</time>
      </trkpt>
      <trkpt lat="45.84403" lon="-0.69487">
        <ele>11</ele>
        <time>2017-06-25T07:42:21.999Z</time>
      </trkpt>
      <trkpt lat="45.84403" lon="-0.69488">
        <ele>11</ele>
        <time>2017-06-25T07:42:22.999Z</time>
      </trkpt>
      <trkpt lat="45.84404" lon="-0.69489">
        <ele>11</ele>
        <time>2017-06-25T07:42:23.999Z</time>
      </trkpt>
      <trkpt lat="45.84404" lon="-0.69491">
        <ele>12</ele>
        <time>2017-06-25T07:42:24.999Z</time>
      </trkpt>
      <trkpt lat="45.84405" lon="-0.69492">
        <ele>12</ele>
        <time>2017-06-25T07:42:25.999Z</time>
      </trkpt>
      <trkpt lat="45.84406" lon="-0.69494">
        <ele>12</ele>
        <time>2017-06-25T07:42:26.999Z</time>
      </trkpt>
      <trkpt lat="45.84406" lon="-0.69497">
        <ele>12</ele>
        <time>2017-06-25T07:42:28.999Z</time>
      </trkpt>
      <trkpt lat="45.84407" lon="-0.69498">
        <ele>12</ele>
        <time>2017-06-25T07:42:29.999Z</time>
      </trkpt>
      <trkpt lat="45.84407" lon="-0.695">
        <ele>13</ele>
        <time>2017-06-25T07:42:31.999Z</time>
      </trkpt>
      <trkpt lat="45.84408" lon="-0.69502">
        <ele>13</ele>
        <time>2017-06-25T07:42:33.999Z</time>
      </trkpt>
      <trkpt lat="45.84409" lon="-0.69505">
        <ele>13</ele>
        <time>2017-06-25T07:42:35.999Z</time>
      </trkpt>
      <trkpt lat="45.8441" lon="-0.69507">
        <ele>13</ele>
        <time>2017-06-25T07:42:36.999Z</time>
      </trkpt>
      <trkpt lat="45.84411" lon="-0.69509">
        <ele>13</ele>
        <time>2017-06-25T07:42:37.999Z</time>
      </trkpt>
      <trkpt lat="45.84411" lon="-0.6951">
        <ele>13</ele>
        <time>2017-06-25T07:42:38.999Z</time>
      </trkpt>
      <trkpt lat="45.84412" lon="-0.69512">
        <ele>13</ele>
        <time>2017-06-25T07:42:39.999Z</time>
      </trkpt>
      <trkpt lat="45.84412" lon="-0.69513">
        <ele>13</ele>
        <time>2017-06-25T07:42:40.999Z</time>
      </trkpt>
      <trkpt lat="45.84413" lon="-0.69515">
        <ele>13</ele>
        <time>2017-06-25T07:42:41.999Z</time>
      </trkpt>
      <trkpt lat="45.84414" lon="-0.69516">
        <ele>13</ele>
        <time>2017-06-25T07:42:42.999Z</time>
      </trkpt>
      <trkpt lat="45.84416" lon="-0.69518">
        <ele>13</ele>
        <time>2017-06-25T07:42:44.999Z</time>
      </trkpt>
      <trkpt lat="45.84417" lon="-0.69519">
        <ele>13</ele>
        <time>2017-06-25T07:42:45.999Z</time>
      </trkpt>
      <trkpt lat="45.84417" lon="-0.69521">
        <ele>13</ele>
        <time>2017-06-25T07:42:46.999Z</time>
      </trkpt>
      <trkpt lat="45.84418" lon="-0.69522">
        <ele>13</ele>
        <time>2017-06-25T07:42:47.999Z</time>
      </trkpt>
      <trkpt lat="45.84419" lon="-0.69523">
        <ele>13</ele>
        <time>2017-06-25T07:42:48.999Z</time>
      </trkpt>
      <trkpt lat="45.8442" lon="-0.69524">
        <ele>13</ele>
        <time>2017-06-25T07:42:49.999Z</time>
      </trkpt>
      <trkpt lat="45.84421" lon="-0.69525">
        <ele>13</ele>
        <time>2017-06-25T07:42:50.999Z</time>
      </trkpt>
      <trkpt lat="45.84422" lon="-0.69526">
        <ele>13</ele>
        <time>2017-06-25T07:42:51.999Z</time>
      </trkpt>
      <trkpt lat="45.84423" lon="-0.69527">
        <ele>13</ele>
        <time>2017-06-25T07:42:52.999Z</time>
      </trkpt>
      <trkpt lat="45.84424" lon="-0.69529">
        <ele>13</ele>
        <time>2017-06-25T07:42:53.999Z</time>
      </trkpt>
      <trkpt lat="45.84425" lon="-0.69531">
        <ele>13</ele>
        <time>2017-06-25T07:42:54.999Z</time>
      </trkpt>
      <trkpt lat="45.84426" lon="-0.69532">
        <ele>13</ele>
        <time>2017-06-25T07:42:55.999Z</time>
      </trkpt>
      <trkpt lat="45.84427" lon="-0.69533">
        <ele>13</ele>
        <time>2017-06-25T07:42:56.999Z</time>
      </trkpt>
      <trkpt lat="45.84427" lon="-0.69535">
        <ele>13</ele>
        <time>2017-06-25T07:42:57.999Z</time>
      </trkpt>
      <trkpt lat="45.84428" lon="-0.69536">
        <ele>13</ele>
        <time>2017-06-25T07:42:58.999Z</time>
      </trkpt>
      <trkpt lat="45.84429" lon="-0.69538">
        <ele>13</ele>
        <time>2017-06-25T07:42:59.999Z</time>
      </trkpt>
      <trkpt lat="45.8443" lon="-0.69539">
        <ele>13</ele>
        <time>2017-06-25T07:43:00.999Z</time>
      </trkpt>
      <trkpt lat="45.84432" lon="-0.69541">
        <ele>13</ele>
        <time>2017-06-25T07:43:01.999Z</time>
      </trkpt>
      <trkpt lat="45.84433" lon="-0.69543">
        <ele>13</ele>
        <time>2017-06-25T07:43:02.999Z</time>
      </trkpt>
      <trkpt lat="45.84433" lon="-0.69545">
        <ele>13</ele>
        <time>2017-06-25T07:43:03.999Z</time>
      </trkpt>
      <trkpt lat="45.84434" lon="-0.69546">
        <ele>13</ele>
        <time>2017-06-25T07:43:04.999Z</time>
      </trkpt>
      <trkpt lat="45.84435" lon="-0.69547">
        <ele>13</ele>
        <time>2017-06-25T07:43:05.999Z</time>
      </trkpt>
      <trkpt lat="45.84436" lon="-0.69548">
        <ele>13</ele>
        <time>2017-06-25T07:43:06.999Z</time>
      </trkpt>
      <trkpt lat="45.84438" lon="-0.69548">
        <ele>13</ele>
        <time>2017-06-25T07:43:07.999Z</time>
      </trkpt>
      <trkpt lat="45.84438" lon="-0.69549">
        <ele>13</ele>
        <time>2017-06-25T07:43:08.999Z</time>
      </trkpt>
      <trkpt lat="45.8444" lon="-0.6955">
        <ele>13</ele>
        <time>2017-06-25T07:43:09.999Z</time>
      </trkpt>
      <trkpt lat="45.84441" lon="-0.69551">
        <ele>13</ele>
        <time>2017-06-25T07:43:10.999Z</time>
      </trkpt>
      <trkpt lat="45.84442" lon="-0.69552">
        <ele>13</ele>
        <time>2017-06-25T07:43:11.999Z</time>
      </trkpt>
      <trkpt lat="45.84443" lon="-0.69553">
        <ele>13</ele>
        <time>2017-06-25T07:43:12.999Z</time>
      </trkpt>
      <trkpt lat="45.84444" lon="-0.69554">
        <ele>13</ele>
        <time>2017-06-25T07:43:13.999Z</time>
      </trkpt>
      <trkpt lat="45.84444" lon="-0.69554">
        <ele>13</ele>
        <time>2017-06-25T07:43:14.999Z</time>
      </trkpt>
      <trkpt lat="45.84446" lon="-0.69554">
        <ele>13</ele>
        <time>2017-06-25T07:43:16.999Z</time>
      </trkpt>
      <trkpt lat="45.84447" lon="-0.69553">
        <ele>13</ele>
        <time>2017-06-25T07:43:18.999Z</time>
      </trkpt>
      <trkpt lat="45.84448" lon="-0.69552">
        <ele>13</ele>
        <time>2017-06-25T07:43:20.999Z</time>
      </trkpt>
      <trkpt lat="45.84449" lon="-0.69551">
        <ele>13</ele>
        <time>2017-06-25T07:43:22.999Z</time>
      </trkpt>
      <trkpt lat="45.84449" lon="-0.6955">
        <ele>13</ele>
        <time>2017-06-25T07:43:23.999Z</time>
      </trkpt>
      <trkpt lat="45.84451" lon="-0.69548">
        <ele>13</ele>
        <time>2017-06-25T07:43:25.999Z</time>
      </trkpt>
      <trkpt lat="45.84452" lon="-0.69547">
        <ele>13</ele>
        <time>2017-06-25T07:43:26.999Z</time>
      </trkpt>
      <trkpt lat="45.84454" lon="-0.69546">
        <ele>13</ele>
        <time>2017-06-25T07:43:27.999Z</time>
      </trkpt>
      <trkpt lat="45.84455" lon="-0.69545">
        <ele>13</ele>
        <time>2017-06-25T07:43:28.999Z</time>
      </trkpt>
      <trkpt lat="45.84456" lon="-0.69543">
        <ele>13</ele>
        <time>2017-06-25T07:43:30.999Z</time>
      </trkpt>
      <trkpt lat="45.84457" lon="-0.69541">
        <ele>13</ele>
        <time>2017-06-25T07:43:32.999Z</time>
      </trkpt>
      <trkpt lat="45.84458" lon="-0.6954">
        <ele>13</ele>
        <time>2017-06-25T07:43:33.999Z</time>
      </trkpt>
      <trkpt lat="45.84459" lon="-0.69538">
        <ele>13</ele>
        <time>2017-06-25T07:43:34.999Z</time>
      </trkpt>
      <trkpt lat="45.8446" lon="-0.69537">
        <ele>13</ele>
        <time>2017-06-25T07:43:35.999Z</time>
      </trkpt>
      <trkpt lat="45.84461" lon="-0.69536">
        <ele>13</ele>
        <time>2017-06-25T07:43:36.999Z</time>
      </trkpt>
      <trkpt lat="45.84462" lon="-0.69536">
        <ele>13</ele>
        <time>2017-06-25T07:43:37.999Z</time>
      </trkpt>
      <trkpt lat="45.84464" lon="-0.69535">
        <ele>13</ele>
        <time>2017-06-25T07:43:38.999Z</time>
      </trkpt>
      <trkpt lat="45.84465" lon="-0.69534">
        <ele>13</ele>
        <time>2017-06-25T07:43:39.999Z</time>
      </trkpt>
      <trkpt lat="45.84465" lon="-0.69532">
        <ele>13</ele>
        <time>2017-06-25T07:43:40.999Z</time>
      </trkpt>
      <trkpt lat="45.84467" lon="-0.69532">
        <ele>13</ele>
        <time>2017-06-25T07:43:41.999Z</time>
      </trkpt>
      <trkpt lat="45.84468" lon="-0.69531">
        <ele>13</ele>
        <time>2017-06-25T07:43:42.999Z</time>
      </trkpt>
      <trkpt lat="45.84469" lon="-0.69531">
        <ele>13</ele>
        <time>2017-06-25T07:43:43.999Z</time>
      </trkpt>
      <trkpt lat="45.8447" lon="-0.6953">
        <ele>13</ele>
        <time>2017-06-25T07:43:44.999Z</time>
      </trkpt>
      <trkpt lat="45.84472" lon="-0.69528">
        <ele>13</ele>
        <time>2017-06-25T07:43:46.999Z</time>
      </trkpt>
      <trkpt lat="45.84472" lon="-0.69527">
        <ele>13</ele>
        <time>2017-06-25T07:43:47.999Z</time>
      </trkpt>
      <trkpt lat="45.84473" lon="-0.69526">
        <ele>13</ele>
        <time>2017-06-25T07:43:48.999Z</time>
      </trkpt>
      <trkpt lat="45.84473" lon="-0.69525">
        <ele>13</ele>
        <time>2017-06-25T07:43:49.999Z</time>
      </trkpt>
      <trkpt lat="45.84475" lon="-0.69524">
        <ele>13</ele>
        <time>2017-06-25T07:43:50.999Z</time>
      </trkpt>
      <trkpt lat="45.84475" lon="-0.69523">
        <ele>13</ele>
        <time>2017-06-25T07:43:51.999Z</time>
      </trkpt>
      <trkpt lat="45.84476" lon="-0.69522">
        <ele>13</ele>
        <time>2017-06-25T07:43:52.999Z</time>
      </trkpt>
      <trkpt lat="45.84477" lon="-0.69521">
        <ele>13</ele>
        <time>2017-06-25T07:43:53.999Z</time>
      </trkpt>
      <trkpt lat="45.84478" lon="-0.69519">
        <ele>13</ele>
        <time>2017-06-25T07:43:55.999Z</time>
      </trkpt>
      <trkpt lat="45.8448" lon="-0.69518">
        <ele>13</ele>
        <time>2017-06-25T07:43:56.999Z</time>
      </trkpt>
      <trkpt lat="45.84481" lon="-0.69517">
        <ele>13</ele>
        <time>2017-06-25T07:43:57.999Z</time>
      </trkpt>
      <trkpt lat="45.84481" lon="-0.69516">
        <ele>13</ele>
        <time>2017-06-25T07:43:58.999Z</time>
      </trkpt>
      <trkpt lat="45.84482" lon="-0.69514">
        <ele>13</ele>
        <time>2017-06-25T07:43:59.999Z</time>
      </trkpt>
      <trkpt lat="45.84483" lon="-0.69513">
        <ele>13</ele>
        <time>2017-06-25T07:44:00.999Z</time>
      </trkpt>
      <trkpt lat="45.84484" lon="-0.69511">
        <ele>13</ele>
        <time>2017-06-25T07:44:01.999Z</time>
      </trkpt>
      <trkpt lat="45.84485" lon="-0.6951">
        <ele>13</ele>
        <time>2017-06-25T07:44:02.999Z</time>
      </trkpt>
      <trkpt lat="45.84486" lon="-0.69508">
        <ele>13</ele>
        <time>2017-06-25T07:44:03.999Z</time>
      </trkpt>
      <trkpt lat="45.84486" lon="-0.69507">
        <ele>13</ele>
        <time>2017-06-25T07:44:04.999Z</time>
      </trkpt>
      <trkpt lat="45.84488" lon="-0.69506">
        <ele>13</ele>
        <time>2017-06-25T07:44:05.999Z</time>
      </trkpt>
      <trkpt lat="45.84489" lon="-0.69505">
        <ele>13</ele>
        <time>2017-06-25T07:44:06.999Z</time>
      </trkpt>
      <trkpt lat="45.84489" lon="-0.69505">
        <ele>13</ele>
        <time>2017-06-25T07:44:07.999Z</time>
      </trkpt>
      <trkpt lat="45.84491" lon="-0.69504">
        <ele>13</ele>
        <time>2017-06-25T07:44:08.999Z</time>
      </trkpt>
      <trkpt lat="45.84492" lon="-0.69503">
        <ele>13</ele>
        <time>2017-06-25T07:44:09.999Z</time>
      </trkpt>
      <trkpt lat="45.84493" lon="-0.69503">
        <ele>13</ele>
        <time>2017-06-25T07:44:10.999Z</time>
      </trkpt>
      <trkpt lat="45.84493" lon="-0.69502">
        <ele>13</ele>
        <time>2017-06-25T07:44:11.999Z</time>
      </trkpt>
      <trkpt lat="45.84495" lon="-0.69501">
        <ele>13</ele>
        <time>2017-06-25T07:44:12.999Z</time>
      </trkpt>
      <trkpt lat="45.84496" lon="-0.695">
        <ele>13</ele>
        <time>2017-06-25T07:44:13.999Z</time>
      </trkpt>
      <trkpt lat="45.84498" lon="-0.69499">
        <ele>13</ele>
        <time>2017-06-25T07:44:14.999Z</time>
      </trkpt>
      <trkpt lat="45.84499" lon="-0.69496">
        <ele>13</ele>
        <time>2017-06-25T07:44:15.999Z</time>
      </trkpt>
      <trkpt lat="45.84501" lon="-0.69495">
        <ele>12</ele>
        <time>2017-06-25T07:44:16.999Z</time>
      </trkpt>
      <trkpt lat="45.84502" lon="-0.69494">
        <ele>12</ele>
        <time>2017-06-25T07:44:17.999Z</time>
      </trkpt>
      <trkpt lat="45.84503" lon="-0.69492">
        <ele>12</ele>
        <time>2017-06-25T07:44:18.999Z</time>
      </trkpt>
      <trkpt lat="45.84504" lon="-0.69491">
        <ele>12</ele>
        <time>2017-06-25T07:44:19.999Z</time>
      </trkpt>
      <trkpt lat="45.84505" lon="-0.6949">
        <ele>12</ele>
        <time>2017-06-25T07:44:20.999Z</time>
      </trkpt>
      <trkpt lat="45.84506" lon="-0.69489">
        <ele>12</ele>
        <time>2017-06-25T07:44:21.999Z</time>
      </trkpt>
      <trkpt lat="45.84507" lon="-0.69488">
        <ele>12</ele>
        <time>2017-06-25T07:44:22.999Z</time>
      </trkpt>
      <trkpt lat="45.84509" lon="-0.69487">
        <ele>12</ele>
        <time>2017-06-25T07:44:23.999Z</time>
      </trkpt>
      <trkpt lat="45.8451" lon="-0.69486">
        <ele>12</ele>
        <time>2017-06-25T07:44:24.999Z</time>
      </trkpt>
      <trkpt lat="45.84511" lon="-0.69487">
        <ele>12</ele>
        <time>2017-06-25T07:44:26.999Z</time>
      </trkpt>
      <trkpt lat="45.84512" lon="-0.69486">
        <ele>11</ele>
        <time>2017-06-25T07:44:27.999Z</time>
      </trkpt>
      <trkpt lat="45.84513" lon="-0.69484">
        <ele>11</ele>
        <time>2017-06-25T07:44:28.999Z</time>
      </trkpt>
      <trkpt lat="45.84514" lon="-0.69481">
        <ele>11</ele>
        <time>2017-06-25T07:44:29.999Z</time>
      </trkpt>
      <trkpt lat="45.84515" lon="-0.6948">
        <ele>11</ele>
        <time>2017-06-25T07:44:30.999Z</time>
      </trkpt>
      <trkpt lat="45.84514" lon="-0.69479">
        <ele>11</ele>
        <time>2017-06-25T07:44:32.999Z</time>
      </trkpt>
      <trkpt lat="45.84514" lon="-0.69478">
        <ele>11</ele>
        <time>2017-06-25T07:44:35.999Z</time>
      </trkpt>
      <trkpt lat="45.84512" lon="-0.69475">
        <ele>11</ele>
        <time>2017-06-25T07:44:38.999Z</time>
      </trkpt>
      <trkpt lat="45.8451" lon="-0.69472">
        <ele>11</ele>
        <time>2017-06-25T07:44:39.999Z</time>
      </trkpt>
      <trkpt lat="45.84509" lon="-0.6947">
        <ele>11</ele>
        <time>2017-06-25T07:44:40.999Z</time>
      </trkpt>
      <trkpt lat="45.84507" lon="-0.69467">
        <ele>11</ele>
        <time>2017-06-25T07:44:41.999Z</time>
      </trkpt>
      <trkpt lat="45.84506" lon="-0.69466">
        <ele>11</ele>
        <time>2017-06-25T07:44:42.999Z</time>
      </trkpt>
      <trkpt lat="45.84505" lon="-0.69463">
        <ele>11</ele>
        <time>2017-06-25T07:44:43.999Z</time>
      </trkpt>
      <trkpt lat="45.84504" lon="-0.69461">
        <ele>11</ele>
        <time>2017-06-25T07:44:44.999Z</time>
      </trkpt>
      <trkpt lat="45.84502" lon="-0.69459">
        <ele>11</ele>
        <time>2017-06-25T07:44:45.999Z</time>
      </trkpt>
      <trkpt lat="45.845" lon="-0.69458">
        <ele>11</ele>
        <time>2017-06-25T07:44:46.999Z</time>
      </trkpt>
      <trkpt lat="45.84499" lon="-0.69458">
        <ele>12</ele>
        <time>2017-06-25T07:44:47.999Z</time>
      </trkpt>
      <trkpt lat="45.84498" lon="-0.69456">
        <ele>12</ele>
        <time>2017-06-25T07:44:48.999Z</time>
      </trkpt>
      <trkpt lat="45.84496" lon="-0.69455">
        <ele>12</ele>
        <time>2017-06-25T07:44:49.999Z</time>
      </trkpt>
      <trkpt lat="45.84494" lon="-0.69454">
        <ele>12</ele>
        <time>2017-06-25T07:44:50.999Z</time>
      </trkpt>
      <trkpt lat="45.84492" lon="-0.69452">
        <ele>12</ele>
        <time>2017-06-25T07:44:51.999Z</time>
      </trkpt>
      <trkpt lat="45.84491" lon="-0.69451">
        <ele>12</ele>
        <time>2017-06-25T07:44:52.999Z</time>
      </trkpt>
      <trkpt lat="45.84489" lon="-0.6945">
        <ele>12</ele>
        <time>2017-06-25T07:44:53.999Z</time>
      </trkpt>
      <trkpt lat="45.84489" lon="-0.69447">
        <ele>12</ele>
        <time>2017-06-25T07:44:54.999Z</time>
      </trkpt>
      <trkpt lat="45.84488" lon="-0.69445">
        <ele>12</ele>
        <time>2017-06-25T07:44:55.999Z</time>
      </trkpt>
      <trkpt lat="45.84487" lon="-0.69443">
        <ele>12</ele>
        <time>2017-06-25T07:44:56.999Z</time>
      </trkpt>
      <trkpt lat="45.84486" lon="-0.69442">
        <ele>12</ele>
        <time>2017-06-25T07:44:57.999Z</time>
      </trkpt>
      <trkpt lat="45.84485" lon="-0.69441">
        <ele>12</ele>
        <time>2017-06-25T07:44:58.999Z</time>
      </trkpt>
      <trkpt lat="45.84483" lon="-0.6944">
        <ele>12</ele>
        <time>2017-06-25T07:44:59.999Z</time>
      </trkpt>
      <trkpt lat="45.84482" lon="-0.69439">
        <ele>12</ele>
        <time>2017-06-25T07:45:00.999Z</time>
      </trkpt>
      <trkpt lat="45.84481" lon="-0.69438">
        <ele>12</ele>
        <time>2017-06-25T07:45:01.999Z</time>
      </trkpt>
      <trkpt lat="45.8448" lon="-0.69437">
        <ele>12</ele>
        <time>2017-06-25T07:45:02.999Z</time>
      </trkpt>
      <trkpt lat="45.84479" lon="-0.69436">
        <ele>12</ele>
        <time>2017-06-25T07:45:03.999Z</time>
      </trkpt>
      <trkpt lat="45.84477" lon="-0.69435">
        <ele>12</ele>
        <time>2017-06-25T07:45:04.999Z</time>
      </trkpt>
      <trkpt lat="45.84476" lon="-0.69434">
        <ele>12</ele>
        <time>2017-06-25T07:45:05.999Z</time>
      </trkpt>
      <trkpt lat="45.84475" lon="-0.69432">
        <ele>12</ele>
        <time>2017-06-25T07:45:06.999Z</time>
      </trkpt>
      <trkpt lat="45.84473" lon="-0.6943">
        <ele>12</ele>
        <time>2017-06-25T07:45:08.999Z</time>
      </trkpt>
      <trkpt lat="45.84473" lon="-0.69429">
        <ele>12</ele>
        <time>2017-06-25T07:45:09.999Z</time>
      </trkpt>
      <trkpt lat="45.84472" lon="-0.69427">
        <ele>12</ele>
        <time>2017-06-25T07:45:11.999Z</time>
      </trkpt>
      <trkpt lat="45.84471" lon="-0.69426">
        <ele>12</ele>
        <time>2017-06-25T07:45:12.999Z</time>
      </trkpt>
      <trkpt lat="45.8447" lon="-0.69424">
        <ele>12</ele>
        <time>2017-06-25T07:45:13.999Z</time>
      </trkpt>
      <trkpt lat="45.84469" lon="-0.69423">
        <ele>12</ele>
        <time>2017-06-25T07:45:14.999Z</time>
      </trkpt>
      <trkpt lat="45.84469" lon="-0.69421">
        <ele>12</ele>
        <time>2017-06-25T07:45:15.999Z</time>
      </trkpt>
      <trkpt lat="45.84468" lon="-0.6942">
        <ele>12</ele>
        <time>2017-06-25T07:45:16.999Z</time>
      </trkpt>
      <trkpt lat="45.84468" lon="-0.69418">
        <ele>12</ele>
        <time>2017-06-25T07:45:17.999Z</time>
      </trkpt>
      <trkpt lat="45.84467" lon="-0.69417">
        <ele>11</ele>
        <time>2017-06-25T07:45:18.999Z</time>
      </trkpt>
      <trkpt lat="45.84467" lon="-0.69415">
        <ele>11</ele>
        <time>2017-06-25T07:45:19.999Z</time>
      </trkpt>
      <trkpt lat="45.84467" lon="-0.69413">
        <ele>11</ele>
        <time>2017-06-25T07:45:21.999Z</time>
      </trkpt>
      <trkpt lat="45.84467" lon="-0.69412">
        <ele>11</ele>
        <time>2017-06-25T07:45:22.999Z</time>
      </trkpt>
      <trkpt lat="45.84466" lon="-0.6941">
        <ele>10</ele>
        <time>2017-06-25T07:45:23.999Z</time>
      </trkpt>
      <trkpt lat="45.84466" lon="-0.69408">
        <ele>10</ele>
        <time>2017-06-25T07:45:24.999Z</time>
      </trkpt>
      <trkpt lat="45.84465" lon="-0.69406">
        <ele>10</ele>
        <time>2017-06-25T07:45:25.999Z</time>
      </trkpt>
      <trkpt lat="45.84465" lon="-0.69404">
        <ele>10</ele>
        <time>2017-06-25T07:45:26.999Z</time>
      </trkpt>
      <trkpt lat="45.84464" lon="-0.69402">
        <ele>10</ele>
        <time>2017-06-25T07:45:28.999Z</time>
      </trkpt>
      <trkpt lat="45.84464" lon="-0.69401">
        <ele>10</ele>
        <time>2017-06-25T07:45:29.999Z</time>
      </trkpt>
      <trkpt lat="45.84463" lon="-0.69399">
        <ele>10</ele>
        <time>2017-06-25T07:45:30.999Z</time>
      </trkpt>
      <trkpt lat="45.84462" lon="-0.69397">
        <ele>10</ele>
        <time>2017-06-25T07:45:32.999Z</time>
      </trkpt>
      <trkpt lat="45.84462" lon="-0.69395">
        <ele>10</ele>
        <time>2017-06-25T07:45:34.999Z</time>
      </trkpt>
      <trkpt lat="45.84462" lon="-0.69393">
        <ele>10</ele>
        <time>2017-06-25T07:45:36.999Z</time>
      </trkpt>
      <trkpt lat="45.84461" lon="-0.6939">
        <ele>10</ele>
        <time>2017-06-25T07:45:38.999Z</time>
      </trkpt>
      <trkpt lat="45.8446" lon="-0.69388">
        <ele>10</ele>
        <time>2017-06-25T07:45:39.999Z</time>
      </trkpt>
      <trkpt lat="45.8446" lon="-0.69386">
        <ele>10</ele>
        <time>2017-06-25T07:45:41.999Z</time>
      </trkpt>
      <trkpt lat="45.84459" lon="-0.69383">
        <ele>10</ele>
        <time>2017-06-25T07:45:42.999Z</time>
      </trkpt>
      <trkpt lat="45.8446" lon="-0.69382">
        <ele>10</ele>
        <time>2017-06-25T07:45:43.999Z</time>
      </trkpt>
      <trkpt lat="45.8446" lon="-0.69379">
        <ele>10</ele>
        <time>2017-06-25T07:45:45.999Z</time>
      </trkpt>
      <trkpt lat="45.84461" lon="-0.69378">
        <ele>10</ele>
        <time>2017-06-25T07:45:46.999Z</time>
      </trkpt>
      <trkpt lat="45.84461" lon="-0.69376">
        <ele>10</ele>
        <time>2017-06-25T07:45:47.999Z</time>
      </trkpt>
      <trkpt lat="45.84461" lon="-0.69375">
        <ele>10</ele>
        <time>2017-06-25T07:45:48.999Z</time>
      </trkpt>
      <trkpt lat="45.84461" lon="-0.69373">
        <ele>10</ele>
        <time>2017-06-25T07:45:49.999Z</time>
      </trkpt>
      <trkpt lat="45.84461" lon="-0.69371">
        <ele>10</ele>
        <time>2017-06-25T07:45:50.999Z</time>
      </trkpt>
      <trkpt lat="45.8446" lon="-0.69369">
        <ele>10</ele>
        <time>2017-06-25T07:45:51.999Z</time>
      </trkpt>
      <trkpt lat="45.8446" lon="-0.69367">
        <ele>10</ele>
        <time>2017-06-25T07:45:52.999Z</time>
      </trkpt>
      <trkpt lat="45.8446" lon="-0.69365">
        <ele>10</ele>
        <time>2017-06-25T07:45:53.999Z</time>
      </trkpt>
      <trkpt lat="45.84459" lon="-0.69363">
        <ele>10</ele>
        <time>2017-06-25T07:45:54.999Z</time>
      </trkpt>
      <trkpt lat="45.84459" lon="-0.69361">
        <ele>10</ele>
        <time>2017-06-25T07:45:55.999Z</time>
      </trkpt>
      <trkpt lat="45.84459" lon="-0.6936">
        <ele>10</ele>
        <time>2017-06-25T07:45:56.999Z</time>
      </trkpt>
      <trkpt lat="45.8446" lon="-0.69357">
        <ele>10</ele>
        <time>2017-06-25T07:45:58.999Z</time>
      </trkpt>
      <trkpt lat="45.8446" lon="-0.69355">
        <ele>10</ele>
        <time>2017-06-25T07:45:59.999Z</time>
      </trkpt>
      <trkpt lat="45.8446" lon="-0.69354">
        <ele>9</ele>
        <time>2017-06-25T07:46:01.999Z</time>
      </trkpt>
      <trkpt lat="45.8446" lon="-0.69351">
        <ele>9</ele>
        <time>2017-06-25T07:46:03.999Z</time>
      </trkpt>
      <trkpt lat="45.8446" lon="-0.69348">
        <ele>9</ele>
        <time>2017-06-25T07:46:04.999Z</time>
      </trkpt>
      <trkpt lat="45.84459" lon="-0.69346">
        <ele>9</ele>
        <time>2017-06-25T07:46:05.999Z</time>
      </trkpt>
      <trkpt lat="45.84458" lon="-0.69344">
        <ele>9</ele>
        <time>2017-06-25T07:46:07.999Z</time>
      </trkpt>
      <trkpt lat="45.84459" lon="-0.69343">
        <ele>9</ele>
        <time>2017-06-25T07:46:09.999Z</time>
      </trkpt>
      <trkpt lat="45.84458" lon="-0.69342">
        <ele>9</ele>
        <time>2017-06-25T07:46:10.999Z</time>
      </trkpt>
      <trkpt lat="45.84459" lon="-0.69339">
        <ele>9</ele>
        <time>2017-06-25T07:46:11.999Z</time>
      </trkpt>
      <trkpt lat="45.84459" lon="-0.69336">
        <ele>9</ele>
        <time>2017-06-25T07:46:12.999Z</time>
      </trkpt>
      <trkpt lat="45.84459" lon="-0.69334">
        <ele>9</ele>
        <time>2017-06-25T07:46:13.999Z</time>
      </trkpt>
      <trkpt lat="45.84459" lon="-0.69332">
        <ele>8</ele>
        <time>2017-06-25T07:46:14.999Z</time>
      </trkpt>
      <trkpt lat="45.84459" lon="-0.6933">
        <ele>8</ele>
        <time>2017-06-25T07:46:15.999Z</time>
      </trkpt>
      <trkpt lat="45.8446" lon="-0.69329">
        <ele>8</ele>
        <time>2017-06-25T07:46:16.999Z</time>
      </trkpt>
      <trkpt lat="45.84459" lon="-0.69327">
        <ele>8</ele>
        <time>2017-06-25T07:46:17.999Z</time>
      </trkpt>
      <trkpt lat="45.84459" lon="-0.69326">
        <ele>8</ele>
        <time>2017-06-25T07:46:18.999Z</time>
      </trkpt>
      <trkpt lat="45.84458" lon="-0.69325">
        <ele>8</ele>
        <time>2017-06-25T07:46:19.999Z</time>
      </trkpt>
      <trkpt lat="45.84458" lon="-0.69322">
        <ele>8</ele>
        <time>2017-06-25T07:46:21.999Z</time>
      </trkpt>
      <trkpt lat="45.84459" lon="-0.6932">
        <ele>8</ele>
        <time>2017-06-25T07:46:22.999Z</time>
      </trkpt>
      <trkpt lat="45.84458" lon="-0.69318">
        <ele>8</ele>
        <time>2017-06-25T07:46:24.999Z</time>
      </trkpt>
      <trkpt lat="45.84458" lon="-0.69316">
        <ele>8</ele>
        <time>2017-06-25T07:46:25.999Z</time>
      </trkpt>
      <trkpt lat="45.84457" lon="-0.69314">
        <ele>8</ele>
        <time>2017-06-25T07:46:27.999Z</time>
      </trkpt>
      <trkpt lat="45.84457" lon="-0.69313">
        <ele>8</ele>
        <time>2017-06-25T07:46:28.999Z</time>
      </trkpt>
      <trkpt lat="45.84456" lon="-0.69312">
        <ele>8</ele>
        <time>2017-06-25T07:46:29.999Z</time>
      </trkpt>
      <trkpt lat="45.84456" lon="-0.6931">
        <ele>8</ele>
        <time>2017-06-25T07:46:30.999Z</time>
      </trkpt>
      <trkpt lat="45.84456" lon="-0.69307">
        <ele>8</ele>
        <time>2017-06-25T07:46:32.999Z</time>
      </trkpt>
      <trkpt lat="45.84455" lon="-0.69306">
        <ele>8</ele>
        <time>2017-06-25T07:46:35.999Z</time>
      </trkpt>
      <trkpt lat="45.84454" lon="-0.69305">
        <ele>8</ele>
        <time>2017-06-25T07:46:39.999Z</time>
      </trkpt>
      <trkpt lat="45.84453" lon="-0.69303">
        <ele>8</ele>
        <time>2017-06-25T07:46:40.999Z</time>
      </trkpt>
      <trkpt lat="45.84452" lon="-0.69302">
        <ele>8</ele>
        <time>2017-06-25T07:46:41.999Z</time>
      </trkpt>
      <trkpt lat="45.84451" lon="-0.69301">
        <ele>8</ele>
        <time>2017-06-25T07:46:42.999Z</time>
      </trkpt>
      <trkpt lat="45.84449" lon="-0.693">
        <ele>8</ele>
        <time>2017-06-25T07:46:43.999Z</time>
      </trkpt>
      <trkpt lat="45.84448" lon="-0.69299">
        <ele>8</ele>
        <time>2017-06-25T07:46:44.999Z</time>
      </trkpt>
      <trkpt lat="45.84446" lon="-0.69298">
        <ele>8</ele>
        <time>2017-06-25T07:46:45.999Z</time>
      </trkpt>
      <trkpt lat="45.84444" lon="-0.69297">
        <ele>8</ele>
        <time>2017-06-25T07:46:46.999Z</time>
      </trkpt>
      <trkpt lat="45.84443" lon="-0.69297">
        <ele>8</ele>
        <time>2017-06-25T07:46:47.999Z</time>
      </trkpt>
      <trkpt lat="45.84441" lon="-0.69296">
        <ele>8</ele>
        <time>2017-06-25T07:46:50.999Z</time>
      </trkpt>
      <trkpt lat="45.84439" lon="-0.69296">
        <ele>8</ele>
        <time>2017-06-25T07:46:51.999Z</time>
      </trkpt>
      <trkpt lat="45.84438" lon="-0.69296">
        <ele>8</ele>
        <time>2017-06-25T07:46:53.999Z</time>
      </trkpt>
      <trkpt lat="45.84439" lon="-0.69294">
        <ele>8</ele>
        <time>2017-06-25T07:46:57.999Z</time>
      </trkpt>
      <trkpt lat="45.8444" lon="-0.69293">
        <ele>8</ele>
        <time>2017-06-25T07:46:58.999Z</time>
      </trkpt>
      <trkpt lat="45.8444" lon="-0.69292">
        <ele>8</ele>
        <time>2017-06-25T07:46:59.999Z</time>
      </trkpt>
      <trkpt lat="45.84439" lon="-0.6929">
        <ele>8</ele>
        <time>2017-06-25T07:47:00.999Z</time>
      </trkpt>
      <trkpt lat="45.84438" lon="-0.69288">
        <ele>8</ele>
        <time>2017-06-25T07:47:01.999Z</time>
      </trkpt>
      <trkpt lat="45.84438" lon="-0.69284">
        <ele>8</ele>
        <time>2017-06-25T07:47:02.999Z</time>
      </trkpt>
      <trkpt lat="45.84438" lon="-0.69281">
        <ele>8</ele>
        <time>2017-06-25T07:47:03.999Z</time>
      </trkpt>
      <trkpt lat="45.84438" lon="-0.69279">
        <ele>8</ele>
        <time>2017-06-25T07:47:04.999Z</time>
      </trkpt>
      <trkpt lat="45.84438" lon="-0.69277">
        <ele>7</ele>
        <time>2017-06-25T07:47:05.999Z</time>
      </trkpt>
      <trkpt lat="45.84437" lon="-0.69276">
        <ele>7</ele>
        <time>2017-06-25T07:47:06.999Z</time>
      </trkpt>
      <trkpt lat="45.84436" lon="-0.69274">
        <ele>7</ele>
        <time>2017-06-25T07:47:07.999Z</time>
      </trkpt>
      <trkpt lat="45.84435" lon="-0.69272">
        <ele>7</ele>
        <time>2017-06-25T07:47:08.999Z</time>
      </trkpt>
      <trkpt lat="45.84435" lon="-0.6927">
        <ele>7</ele>
        <time>2017-06-25T07:47:09.999Z</time>
      </trkpt>
      <trkpt lat="45.84434" lon="-0.69267">
        <ele>7</ele>
        <time>2017-06-25T07:47:10.999Z</time>
      </trkpt>
      <trkpt lat="45.84434" lon="-0.69264">
        <ele>7</ele>
        <time>2017-06-25T07:47:11.999Z</time>
      </trkpt>
      <trkpt lat="45.84435" lon="-0.69261">
        <ele>7</ele>
        <time>2017-06-25T07:47:12.999Z</time>
      </trkpt>
      <trkpt lat="45.84434" lon="-0.69257">
        <ele>7</ele>
        <time>2017-06-25T07:47:13.999Z</time>
      </trkpt>
      <trkpt lat="45.84434" lon="-0.69254">
        <ele>7</ele>
        <time>2017-06-25T07:47:14.999Z</time>
      </trkpt>
      <trkpt lat="45.84434" lon="-0.69253">
        <ele>7</ele>
        <time>2017-06-25T07:47:15.999Z</time>
      </trkpt>
      <trkpt lat="45.84435" lon="-0.69251">
        <ele>7</ele>
        <time>2017-06-25T07:47:17.999Z</time>
      </trkpt>
      <trkpt lat="45.84436" lon="-0.69249">
        <ele>7</ele>
        <time>2017-06-25T07:47:18.999Z</time>
      </trkpt>
      <trkpt lat="45.84436" lon="-0.69246">
        <ele>7</ele>
        <time>2017-06-25T07:47:19.999Z</time>
      </trkpt>
      <trkpt lat="45.84437" lon="-0.69244">
        <ele>7</ele>
        <time>2017-06-25T07:47:20.999Z</time>
      </trkpt>
      <trkpt lat="45.84438" lon="-0.69242">
        <ele>7</ele>
        <time>2017-06-25T07:47:21.999Z</time>
      </trkpt>
      <trkpt lat="45.84439" lon="-0.69241">
        <ele>7</ele>
        <time>2017-06-25T07:47:23.999Z</time>
      </trkpt>
      <trkpt lat="45.84439" lon="-0.69239">
        <ele>7</ele>
        <time>2017-06-25T07:47:24.999Z</time>
      </trkpt>
      <trkpt lat="45.84438" lon="-0.69237">
        <ele>7</ele>
        <time>2017-06-25T07:47:25.999Z</time>
      </trkpt>
      <trkpt lat="45.84438" lon="-0.69236">
        <ele>7</ele>
        <time>2017-06-25T07:47:26.999Z</time>
      </trkpt>
      <trkpt lat="45.84438" lon="-0.69235">
        <ele>7</ele>
        <time>2017-06-25T07:47:27.999Z</time>
      </trkpt>
      <trkpt lat="45.84437" lon="-0.69234">
        <ele>7</ele>
        <time>2017-06-25T07:47:28.999Z</time>
      </trkpt>
      <trkpt lat="45.84436" lon="-0.69233">
        <ele>7</ele>
        <time>2017-06-25T07:47:30.999Z</time>
      </trkpt>
      <trkpt lat="45.84435" lon="-0.69231">
        <ele>7</ele>
        <time>2017-06-25T07:47:32.999Z</time>
      </trkpt>
      <trkpt lat="45.84435" lon="-0.69229">
        <ele>7</ele>
        <time>2017-06-25T07:47:33.999Z</time>
      </trkpt>
      <trkpt lat="45.84434" lon="-0.69227">
        <ele>7</ele>
        <time>2017-06-25T07:47:34.999Z</time>
      </trkpt>
      <trkpt lat="45.84433" lon="-0.69225">
        <ele>7</ele>
        <time>2017-06-25T07:47:35.999Z</time>
      </trkpt>
      <trkpt lat="45.84433" lon="-0.69223">
        <ele>7</ele>
        <time>2017-06-25T07:47:36.999Z</time>
      </trkpt>
      <trkpt lat="45.84433" lon="-0.69221">
        <ele>7</ele>
        <time>2017-06-25T07:47:37.999Z</time>
      </trkpt>
      <trkpt lat="45.84432" lon="-0.69218">
        <ele>7</ele>
        <time>2017-06-25T07:47:40.999Z</time>
      </trkpt>
      <trkpt lat="45.84432" lon="-0.69217">
        <ele>7</ele>
        <time>2017-06-25T07:47:42.999Z</time>
      </trkpt>
      <trkpt lat="45.84434" lon="-0.69214">
        <ele>7</ele>
        <time>2017-06-25T07:47:43.999Z</time>
      </trkpt>
      <trkpt lat="45.84435" lon="-0.69211">
        <ele>7</ele>
        <time>2017-06-25T07:47:44.999Z</time>
      </trkpt>
      <trkpt lat="45.84435" lon="-0.69209">
        <ele>7</ele>
        <time>2017-06-25T07:47:45.999Z</time>
      </trkpt>
      <trkpt lat="45.84434" lon="-0.69207">
        <ele>7</ele>
        <time>2017-06-25T07:47:46.999Z</time>
      </trkpt>
      <trkpt lat="45.84434" lon="-0.69204">
        <ele>7</ele>
        <time>2017-06-25T07:47:48.999Z</time>
      </trkpt>
      <trkpt lat="45.84433" lon="-0.692">
        <ele>7</ele>
        <time>2017-06-25T07:47:50.999Z</time>
      </trkpt>
      <trkpt lat="45.84432" lon="-0.69199">
        <ele>7</ele>
        <time>2017-06-25T07:47:51.999Z</time>
      </trkpt>
      <trkpt lat="45.84431" lon="-0.69197">
        <ele>7</ele>
        <time>2017-06-25T07:47:52.999Z</time>
      </trkpt>
      <trkpt lat="45.8443" lon="-0.69195">
        <ele>7</ele>
        <time>2017-06-25T07:47:53.999Z</time>
      </trkpt>
      <trkpt lat="45.8443" lon="-0.69192">
        <ele>7</ele>
        <time>2017-06-25T07:47:54.999Z</time>
      </trkpt>
      <trkpt lat="45.84429" lon="-0.69189">
        <ele>7</ele>
        <time>2017-06-25T07:47:55.999Z</time>
      </trkpt>
      <trkpt lat="45.84429" lon="-0.69184">
        <ele>7</ele>
        <time>2017-06-25T07:47:56.999Z</time>
      </trkpt>
      <trkpt lat="45.84428" lon="-0.6918">
        <ele>7</ele>
        <time>2017-06-25T07:47:57.999Z</time>
      </trkpt>
      <trkpt lat="45.84426" lon="-0.69178">
        <ele>8</ele>
        <time>2017-06-25T07:48:00.999Z</time>
      </trkpt>
      <trkpt lat="45.84425" lon="-0.69176">
        <ele>8</ele>
        <time>2017-06-25T07:48:01.999Z</time>
      </trkpt>
      <trkpt lat="45.84424" lon="-0.69172">
        <ele>8</ele>
        <time>2017-06-25T07:48:02.999Z</time>
      </trkpt>
      <trkpt lat="45.84423" lon="-0.69171">
        <ele>8</ele>
        <time>2017-06-25T07:48:04.999Z</time>
      </trkpt>
      <trkpt lat="45.84423" lon="-0.69168">
        <ele>8</ele>
        <time>2017-06-25T07:48:05.999Z</time>
      </trkpt>
      <trkpt lat="45.84423" lon="-0.69166">
        <ele>8</ele>
        <time>2017-06-25T07:48:06.999Z</time>
      </trkpt>
      <trkpt lat="45.84422" lon="-0.69164">
        <ele>8</ele>
        <time>2017-06-25T07:48:07.999Z</time>
      </trkpt>
      <trkpt lat="45.84422" lon="-0.69163">
        <ele>8</ele>
        <time>2017-06-25T07:48:08.999Z</time>
      </trkpt>
      <trkpt lat="45.8442" lon="-0.69161">
        <ele>8</ele>
        <time>2017-06-25T07:48:09.999Z</time>
      </trkpt>
      <trkpt lat="45.84419" lon="-0.69159">
        <ele>8</ele>
        <time>2017-06-25T07:48:10.999Z</time>
      </trkpt>
      <trkpt lat="45.84418" lon="-0.69156">
        <ele>8</ele>
        <time>2017-06-25T07:48:11.999Z</time>
      </trkpt>
      <trkpt lat="45.84418" lon="-0.69154">
        <ele>7</ele>
        <time>2017-06-25T07:48:12.999Z</time>
      </trkpt>
      <trkpt lat="45.84417" lon="-0.69152">
        <ele>7</ele>
        <time>2017-06-25T07:48:14.999Z</time>
      </trkpt>
      <trkpt lat="45.84416" lon="-0.6915">
        <ele>8</ele>
        <time>2017-06-25T07:48:15.999Z</time>
      </trkpt>
      <trkpt lat="45.84414" lon="-0.69148">
        <ele>8</ele>
        <time>2017-06-25T07:48:16.999Z</time>
      </trkpt>
      <trkpt lat="45.84413" lon="-0.69147">
        <ele>8</ele>
        <time>2017-06-25T07:48:17.999Z</time>
      </trkpt>
      <trkpt lat="45.84413" lon="-0.69145">
        <ele>8</ele>
        <time>2017-06-25T07:48:18.999Z</time>
      </trkpt>
      <trkpt lat="45.84413" lon="-0.69144">
        <ele>8</ele>
        <time>2017-06-25T07:48:19.999Z</time>
      </trkpt>
      <trkpt lat="45.84412" lon="-0.69141">
        <ele>8</ele>
        <time>2017-06-25T07:48:20.999Z</time>
      </trkpt>
      <trkpt lat="45.84412" lon="-0.6914">
        <ele>8</ele>
        <time>2017-06-25T07:48:22.999Z</time>
      </trkpt>
      <trkpt lat="45.84412" lon="-0.69139">
        <ele>8</ele>
        <time>2017-06-25T07:48:23.999Z</time>
      </trkpt>
      <trkpt lat="45.84411" lon="-0.69138">
        <ele>8</ele>
        <time>2017-06-25T07:48:24.999Z</time>
      </trkpt>
      <trkpt lat="45.8441" lon="-0.69136">
        <ele>8</ele>
        <time>2017-06-25T07:48:26.999Z</time>
      </trkpt>
      <trkpt lat="45.8441" lon="-0.69135">
        <ele>8</ele>
        <time>2017-06-25T07:48:27.999Z</time>
      </trkpt>
      <trkpt lat="45.84409" lon="-0.69133">
        <ele>8</ele>
        <time>2017-06-25T07:48:28.999Z</time>
      </trkpt>
      <trkpt lat="45.84409" lon="-0.69131">
        <ele>8</ele>
        <time>2017-06-25T07:48:29.999Z</time>
      </trkpt>
      <trkpt lat="45.8441" lon="-0.69129">
        <ele>8</ele>
        <time>2017-06-25T07:48:31.999Z</time>
      </trkpt>
      <trkpt lat="45.8441" lon="-0.69127">
        <ele>8</ele>
        <time>2017-06-25T07:48:32.999Z</time>
      </trkpt>
      <trkpt lat="45.8441" lon="-0.69122">
        <ele>8</ele>
        <time>2017-06-25T07:48:34.999Z</time>
      </trkpt>
      <trkpt lat="45.8441" lon="-0.6912">
        <ele>8</ele>
        <time>2017-06-25T07:48:35.999Z</time>
      </trkpt>
      <trkpt lat="45.8441" lon="-0.69118">
        <ele>8</ele>
        <time>2017-06-25T07:48:36.999Z</time>
      </trkpt>
      <trkpt lat="45.84409" lon="-0.69116">
        <ele>8</ele>
        <time>2017-06-25T07:48:37.999Z</time>
      </trkpt>
      <trkpt lat="45.84409" lon="-0.69114">
        <ele>8</ele>
        <time>2017-06-25T07:48:38.999Z</time>
      </trkpt>
      <trkpt lat="45.84408" lon="-0.69111">
        <ele>8</ele>
        <time>2017-06-25T07:48:39.999Z</time>
      </trkpt>
      <trkpt lat="45.84408" lon="-0.6911">
        <ele>8</ele>
        <time>2017-06-25T07:48:40.999Z</time>
      </trkpt>
      <trkpt lat="45.84408" lon="-0.69107">
        <ele>8</ele>
        <time>2017-06-25T07:48:41.999Z</time>
      </trkpt>
      <trkpt lat="45.84407" lon="-0.69104">
        <ele>8</ele>
        <time>2017-06-25T07:48:42.999Z</time>
      </trkpt>
      <trkpt lat="45.84406" lon="-0.69104">
        <ele>8</ele>
        <time>2017-06-25T07:48:43.999Z</time>
      </trkpt>
      <trkpt lat="45.84406" lon="-0.69102">
        <ele>8</ele>
        <time>2017-06-25T07:48:44.999Z</time>
      </trkpt>
      <trkpt lat="45.84405" lon="-0.69101">
        <ele>8</ele>
        <time>2017-06-25T07:48:45.999Z</time>
      </trkpt>
      <trkpt lat="45.84404" lon="-0.691">
        <ele>8</ele>
        <time>2017-06-25T07:48:46.999Z</time>
      </trkpt>
      <trkpt lat="45.84404" lon="-0.69097">
        <ele>8</ele>
        <time>2017-06-25T07:48:47.999Z</time>
      </trkpt>
      <trkpt lat="45.84404" lon="-0.69094">
        <ele>8</ele>
        <time>2017-06-25T07:48:48.999Z</time>
      </trkpt>
      <trkpt lat="45.84403" lon="-0.69092">
        <ele>8</ele>
        <time>2017-06-25T07:48:49.999Z</time>
      </trkpt>
      <trkpt lat="45.84403" lon="-0.69089">
        <ele>8</ele>
        <time>2017-06-25T07:48:50.999Z</time>
      </trkpt>
      <trkpt lat="45.84402" lon="-0.69087">
        <ele>8</ele>
        <time>2017-06-25T07:48:53.999Z</time>
      </trkpt>
      <trkpt lat="45.84402" lon="-0.69085">
        <ele>8</ele>
        <time>2017-06-25T07:48:54.999Z</time>
      </trkpt>
      <trkpt lat="45.84401" lon="-0.69084">
        <ele>8</ele>
        <time>2017-06-25T07:48:55.999Z</time>
      </trkpt>
      <trkpt lat="45.84401" lon="-0.69081">
        <ele>8</ele>
        <time>2017-06-25T07:48:56.999Z</time>
      </trkpt>
      <trkpt lat="45.844" lon="-0.69079">
        <ele>8</ele>
        <time>2017-06-25T07:48:58.999Z</time>
      </trkpt>
      <trkpt lat="45.84399" lon="-0.69077">
        <ele>8</ele>
        <time>2017-06-25T07:48:59.999Z</time>
      </trkpt>
      <trkpt lat="45.84398" lon="-0.69074">
        <ele>8</ele>
        <time>2017-06-25T07:49:00.999Z</time>
      </trkpt>
      <trkpt lat="45.84397" lon="-0.69071">
        <ele>7</ele>
        <time>2017-06-25T07:49:01.999Z</time>
      </trkpt>
      <trkpt lat="45.84396" lon="-0.69068">
        <ele>7</ele>
        <time>2017-06-25T07:49:04.999Z</time>
      </trkpt>
      <trkpt lat="45.84395" lon="-0.69066">
        <ele>7</ele>
        <time>2017-06-25T07:49:05.999Z</time>
      </trkpt>
      <trkpt lat="45.84394" lon="-0.69065">
        <ele>7</ele>
        <time>2017-06-25T07:49:06.999Z</time>
      </trkpt>
      <trkpt lat="45.84394" lon="-0.69063">
        <ele>7</ele>
        <time>2017-06-25T07:49:07.999Z</time>
      </trkpt>
      <trkpt lat="45.84393" lon="-0.69062">
        <ele>7</ele>
        <time>2017-06-25T07:49:08.999Z</time>
      </trkpt>
      <trkpt lat="45.84392" lon="-0.6906">
        <ele>7</ele>
        <time>2017-06-25T07:49:09.999Z</time>
      </trkpt>
      <trkpt lat="45.84391" lon="-0.69058">
        <ele>7</ele>
        <time>2017-06-25T07:49:11.999Z</time>
      </trkpt>
      <trkpt lat="45.84389" lon="-0.69056">
        <ele>7</ele>
        <time>2017-06-25T07:49:12.999Z</time>
      </trkpt>
      <trkpt lat="45.84388" lon="-0.69055">
        <ele>7</ele>
        <time>2017-06-25T07:49:13.999Z</time>
      </trkpt>
      <trkpt lat="45.84386" lon="-0.69052">
        <ele>7</ele>
        <time>2017-06-25T07:49:14.999Z</time>
      </trkpt>
      <trkpt lat="45.84385" lon="-0.6905">
        <ele>7</ele>
        <time>2017-06-25T07:49:15.999Z</time>
      </trkpt>
      <trkpt lat="45.84383" lon="-0.69049">
        <ele>7</ele>
        <time>2017-06-25T07:49:16.999Z</time>
      </trkpt>
      <trkpt lat="45.84382" lon="-0.69048">
        <ele>7</ele>
        <time>2017-06-25T07:49:17.999Z</time>
      </trkpt>
      <trkpt lat="45.8438" lon="-0.69047">
        <ele>7</ele>
        <time>2017-06-25T07:49:18.999Z</time>
      </trkpt>
      <trkpt lat="45.84379" lon="-0.69046">
        <ele>7</ele>
        <time>2017-06-25T07:49:19.999Z</time>
      </trkpt>
      <trkpt lat="45.84377" lon="-0.69045">
        <ele>7</ele>
        <time>2017-06-25T07:49:20.999Z</time>
      </trkpt>
      <trkpt lat="45.84375" lon="-0.69044">
        <ele>7</ele>
        <time>2017-06-25T07:49:21.999Z</time>
      </trkpt>
      <trkpt lat="45.84374" lon="-0.69044">
        <ele>7</ele>
        <time>2017-06-25T07:49:22.999Z</time>
      </trkpt>
      <trkpt lat="45.84373" lon="-0.69043">
        <ele>7</ele>
        <time>2017-06-25T07:49:23.999Z</time>
      </trkpt>
      <trkpt lat="45.84372" lon="-0.69042">
        <ele>7</ele>
        <time>2017-06-25T07:49:24.999Z</time>
      </trkpt>
      <trkpt lat="45.8437" lon="-0.69042">
        <ele>7</ele>
        <time>2017-06-25T07:49:25.999Z</time>
      </trkpt>
      <trkpt lat="45.84369" lon="-0.6904">
        <ele>7</ele>
        <time>2017-06-25T07:49:26.999Z</time>
      </trkpt>
      <trkpt lat="45.84369" lon="-0.69039">
        <ele>7</ele>
        <time>2017-06-25T07:49:27.999Z</time>
      </trkpt>
      <trkpt lat="45.84367" lon="-0.69038">
        <ele>7</ele>
        <time>2017-06-25T07:49:29.999Z</time>
      </trkpt>
      <trkpt lat="45.84366" lon="-0.69038">
        <ele>7</ele>
        <time>2017-06-25T07:49:30.999Z</time>
      </trkpt>
      <trkpt lat="45.84364" lon="-0.69037">
        <ele>7</ele>
        <time>2017-06-25T07:49:31.999Z</time>
      </trkpt>
      <trkpt lat="45.84363" lon="-0.69036">
        <ele>7</ele>
        <time>2017-06-25T07:49:32.999Z</time>
      </trkpt>
      <trkpt lat="45.84361" lon="-0.69036">
        <ele>7</ele>
        <time>2017-06-25T07:49:33.999Z</time>
      </trkpt>
      <trkpt lat="45.8436" lon="-0.69035">
        <ele>7</ele>
        <time>2017-06-25T07:49:34.999Z</time>
      </trkpt>
      <trkpt lat="45.84359" lon="-0.69035">
        <ele>7</ele>
        <time>2017-06-25T07:49:35.999Z</time>
      </trkpt>
      <trkpt lat="45.84358" lon="-0.69034">
        <ele>7</ele>
        <time>2017-06-25T07:49:37.999Z</time>
      </trkpt>
      <trkpt lat="45.84357" lon="-0.69033">
        <ele>7</ele>
        <time>2017-06-25T07:49:40.999Z</time>
      </trkpt>
      <trkpt lat="45.84357" lon="-0.69031">
        <ele>7</ele>
        <time>2017-06-25T07:49:41.999Z</time>
      </trkpt>
      <trkpt lat="45.84357" lon="-0.6903">
        <ele>7</ele>
        <time>2017-06-25T07:49:42.999Z</time>
      </trkpt>
      <trkpt lat="45.84357" lon="-0.69028">
        <ele>7</ele>
        <time>2017-06-25T07:49:43.999Z</time>
      </trkpt>
      <trkpt lat="45.84356" lon="-0.69027">
        <ele>7</ele>
        <time>2017-06-25T07:49:44.999Z</time>
      </trkpt>
      <trkpt lat="45.84356" lon="-0.69024">
        <ele>7</ele>
        <time>2017-06-25T07:49:46.999Z</time>
      </trkpt>
      <trkpt lat="45.84356" lon="-0.69023">
        <ele>7</ele>
        <time>2017-06-25T07:49:48.999Z</time>
      </trkpt>
      <trkpt lat="45.84357" lon="-0.69022">
        <ele>7</ele>
        <time>2017-06-25T07:49:49.999Z</time>
      </trkpt>
      <trkpt lat="45.84358" lon="-0.6902">
        <ele>7</ele>
        <time>2017-06-25T07:49:50.999Z</time>
      </trkpt>
      <trkpt lat="45.84358" lon="-0.69019">
        <ele>7</ele>
        <time>2017-06-25T07:49:51.999Z</time>
      </trkpt>
      <trkpt lat="45.84358" lon="-0.69016">
        <ele>7</ele>
        <time>2017-06-25T07:49:52.999Z</time>
      </trkpt>
      <trkpt lat="45.84358" lon="-0.69014">
        <ele>7</ele>
        <time>2017-06-25T07:49:53.999Z</time>
      </trkpt>
      <trkpt lat="45.84358" lon="-0.69012">
        <ele>7</ele>
        <time>2017-06-25T07:49:56.999Z</time>
      </trkpt>
      <trkpt lat="45.8436" lon="-0.6901">
        <ele>7</ele>
        <time>2017-06-25T07:49:59.999Z</time>
      </trkpt>
      <trkpt lat="45.84361" lon="-0.69009">
        <ele>6</ele>
        <time>2017-06-25T07:50:00.999Z</time>
      </trkpt>
      <trkpt lat="45.84361" lon="-0.69007">
        <ele>6</ele>
        <time>2017-06-25T07:50:01.999Z</time>
      </trkpt>
      <trkpt lat="45.84362" lon="-0.69006">
        <ele>6</ele>
        <time>2017-06-25T07:50:03.999Z</time>
      </trkpt>
      <trkpt lat="45.84363" lon="-0.69005">
        <ele>6</ele>
        <time>2017-06-25T07:50:04.999Z</time>
      </trkpt>
      <trkpt lat="45.84363" lon="-0.69004">
        <ele>6</ele>
        <time>2017-06-25T07:50:05.999Z</time>
      </trkpt>
      <trkpt lat="45.84363" lon="-0.69001">
        <ele>6</ele>
        <time>2017-06-25T07:50:07.999Z</time>
      </trkpt>
      <trkpt lat="45.84364" lon="-0.69">
        <ele>5</ele>
        <time>2017-06-25T07:50:08.999Z</time>
      </trkpt>
      <trkpt lat="45.84364" lon="-0.68997">
        <ele>5</ele>
        <time>2017-06-25T07:50:09.999Z</time>
      </trkpt>
      <trkpt lat="45.84364" lon="-0.68995">
        <ele>5</ele>
        <time>2017-06-25T07:50:10.999Z</time>
      </trkpt>
      <trkpt lat="45.84364" lon="-0.68993">
        <ele>5</ele>
        <time>2017-06-25T07:50:11.999Z</time>
      </trkpt>
      <trkpt lat="45.84365" lon="-0.68992">
        <ele>5</ele>
        <time>2017-06-25T07:50:14.999Z</time>
      </trkpt>
      <trkpt lat="45.84366" lon="-0.68989">
        <ele>5</ele>
        <time>2017-06-25T07:50:16.999Z</time>
      </trkpt>
      <trkpt lat="45.84366" lon="-0.68988">
        <ele>5</ele>
        <time>2017-06-25T07:50:17.999Z</time>
      </trkpt>
      <trkpt lat="45.84366" lon="-0.68986">
        <ele>5</ele>
        <time>2017-06-25T07:50:19.999Z</time>
      </trkpt>
      <trkpt lat="45.84366" lon="-0.68984">
        <ele>5</ele>
        <time>2017-06-25T07:50:21.999Z</time>
      </trkpt>
      <trkpt lat="45.84366" lon="-0.68982">
        <ele>5</ele>
        <time>2017-06-25T07:50:22.999Z</time>
      </trkpt>
      <trkpt lat="45.84366" lon="-0.68979">
        <ele>5</ele>
        <time>2017-06-25T07:50:25.999Z</time>
      </trkpt>
      <trkpt lat="45.84365" lon="-0.68977">
        <ele>5</ele>
        <time>2017-06-25T07:50:26.999Z</time>
      </trkpt>
      <trkpt lat="45.84365" lon="-0.68975">
        <ele>5</ele>
        <time>2017-06-25T07:50:27.999Z</time>
      </trkpt>
      <trkpt lat="45.84364" lon="-0.68973">
        <ele>5</ele>
        <time>2017-06-25T07:50:29.999Z</time>
      </trkpt>
      <trkpt lat="45.84363" lon="-0.68971">
        <ele>5</ele>
        <time>2017-06-25T07:50:30.999Z</time>
      </trkpt>
      <trkpt lat="45.84363" lon="-0.68969">
        <ele>5</ele>
        <time>2017-06-25T07:50:32.999Z</time>
      </trkpt>
      <trkpt lat="45.84362" lon="-0.68967">
        <ele>5</ele>
        <time>2017-06-25T07:50:33.999Z</time>
      </trkpt>
      <trkpt lat="45.84361" lon="-0.68964">
        <ele>5</ele>
        <time>2017-06-25T07:50:35.999Z</time>
      </trkpt>
      <trkpt lat="45.8436" lon="-0.68961">
        <ele>4</ele>
        <time>2017-06-25T07:50:36.999Z</time>
      </trkpt>
      <trkpt lat="45.8436" lon="-0.68958">
        <ele>4</ele>
        <time>2017-06-25T07:50:37.999Z</time>
      </trkpt>
      <trkpt lat="45.8436" lon="-0.68956">
        <ele>4</ele>
        <time>2017-06-25T07:50:38.999Z</time>
      </trkpt>
      <trkpt lat="45.84359" lon="-0.68953">
        <ele>4</ele>
        <time>2017-06-25T07:50:39.999Z</time>
      </trkpt>
      <trkpt lat="45.84359" lon="-0.68951">
        <ele>4</ele>
        <time>2017-06-25T07:50:40.999Z</time>
      </trkpt>
      <trkpt lat="45.84357" lon="-0.68947">
        <ele>4</ele>
        <time>2017-06-25T07:50:42.999Z</time>
      </trkpt>
      <trkpt lat="45.84356" lon="-0.68944">
        <ele>4</ele>
        <time>2017-06-25T07:50:43.999Z</time>
      </trkpt>
      <trkpt lat="45.84356" lon="-0.68942">
        <ele>4</ele>
        <time>2017-06-25T07:50:44.999Z</time>
      </trkpt>
      <trkpt lat="45.84355" lon="-0.6894">
        <ele>4</ele>
        <time>2017-06-25T07:50:45.999Z</time>
      </trkpt>
      <trkpt lat="45.84355" lon="-0.68938">
        <ele>4</ele>
        <time>2017-06-25T07:50:46.999Z</time>
      </trkpt>
      <trkpt lat="45.84355" lon="-0.68935">
        <ele>4</ele>
        <time>2017-06-25T07:50:47.999Z</time>
      </trkpt>
      <trkpt lat="45.84355" lon="-0.68931">
        <ele>4</ele>
        <time>2017-06-25T07:50:48.999Z</time>
      </trkpt>
      <trkpt lat="45.84356" lon="-0.68928">
        <ele>4</ele>
        <time>2017-06-25T07:50:49.999Z</time>
      </trkpt>
      <trkpt lat="45.84355" lon="-0.68926">
        <ele>4</ele>
        <time>2017-06-25T07:50:50.999Z</time>
      </trkpt>
      <trkpt lat="45.84354" lon="-0.68924">
        <ele>4</ele>
        <time>2017-06-25T07:50:52.999Z</time>
      </trkpt>
      <trkpt lat="45.84353" lon="-0.68923">
        <ele>4</ele>
        <time>2017-06-25T07:50:54.999Z</time>
      </trkpt>
      <trkpt lat="45.84352" lon="-0.68922">
        <ele>5</ele>
        <time>2017-06-25T07:50:55.999Z</time>
      </trkpt>
      <trkpt lat="45.84351" lon="-0.6892">
        <ele>5</ele>
        <time>2017-06-25T07:50:57.999Z</time>
      </trkpt>
      <trkpt lat="45.84351" lon="-0.68917">
        <ele>5</ele>
        <time>2017-06-25T07:50:59.999Z</time>
      </trkpt>
      <trkpt lat="45.84349" lon="-0.68914">
        <ele>4</ele>
        <time>2017-06-25T07:51:01.999Z</time>
      </trkpt>
      <trkpt lat="45.84349" lon="-0.68912">
        <ele>4</ele>
        <time>2017-06-25T07:51:02.999Z</time>
      </trkpt>
      <trkpt lat="45.84349" lon="-0.6891">
        <ele>4</ele>
        <time>2017-06-25T07:51:03.999Z</time>
      </trkpt>
      <trkpt lat="45.84348" lon="-0.68907">
        <ele>4</ele>
        <time>2017-06-25T07:51:04.999Z</time>
      </trkpt>
      <trkpt lat="45.84348" lon="-0.68906">
        <ele>4</ele>
        <time>2017-06-25T07:51:05.999Z</time>
      </trkpt>
      <trkpt lat="45.84348" lon="-0.68904">
        <ele>4</ele>
        <time>2017-06-25T07:51:06.999Z</time>
      </trkpt>
      <trkpt lat="45.84347" lon="-0.68902">
        <ele>4</ele>
        <time>2017-06-25T07:51:07.999Z</time>
      </trkpt>
      <trkpt lat="45.84347" lon="-0.689">
        <ele>4</ele>
        <time>2017-06-25T07:51:08.999Z</time>
      </trkpt>
      <trkpt lat="45.84347" lon="-0.68899">
        <ele>4</ele>
        <time>2017-06-25T07:51:09.999Z</time>
      </trkpt>
      <trkpt lat="45.84346" lon="-0.68897">
        <ele>4</ele>
        <time>2017-06-25T07:51:10.999Z</time>
      </trkpt>
      <trkpt lat="45.84346" lon="-0.68895">
        <ele>4</ele>
        <time>2017-06-25T07:51:11.999Z</time>
      </trkpt>
      <trkpt lat="45.84346" lon="-0.68893">
        <ele>4</ele>
        <time>2017-06-25T07:51:12.999Z</time>
      </trkpt>
      <trkpt lat="45.84346" lon="-0.68891">
        <ele>4</ele>
        <time>2017-06-25T07:51:14.999Z</time>
      </trkpt>
      <trkpt lat="45.84345" lon="-0.6889">
        <ele>4</ele>
        <time>2017-06-25T07:51:15.999Z</time>
      </trkpt>
      <trkpt lat="45.84344" lon="-0.68889">
        <ele>4</ele>
        <time>2017-06-25T07:51:16.999Z</time>
      </trkpt>
      <trkpt lat="45.84344" lon="-0.68887">
        <ele>4</ele>
        <time>2017-06-25T07:51:17.999Z</time>
      </trkpt>
      <trkpt lat="45.84343" lon="-0.68886">
        <ele>4</ele>
        <time>2017-06-25T07:51:18.999Z</time>
      </trkpt>
      <trkpt lat="45.84342" lon="-0.68885">
        <ele>4</ele>
        <time>2017-06-25T07:51:19.999Z</time>
      </trkpt>
      <trkpt lat="45.84341" lon="-0.68883">
        <ele>4</ele>
        <time>2017-06-25T07:51:21.999Z</time>
      </trkpt>
      <trkpt lat="45.8434" lon="-0.6888">
        <ele>4</ele>
        <time>2017-06-25T07:51:24.999Z</time>
      </trkpt>
      <trkpt lat="45.8434" lon="-0.68877">
        <ele>4</ele>
        <time>2017-06-25T07:51:26.999Z</time>
      </trkpt>
      <trkpt lat="45.84339" lon="-0.68876">
        <ele>4</ele>
        <time>2017-06-25T07:51:27.999Z</time>
      </trkpt>
      <trkpt lat="45.84338" lon="-0.68874">
        <ele>4</ele>
        <time>2017-06-25T07:51:28.999Z</time>
      </trkpt>
      <trkpt lat="45.84338" lon="-0.68872">
        <ele>4</ele>
        <time>2017-06-25T07:51:30.999Z</time>
      </trkpt>
      <trkpt lat="45.84338" lon="-0.6887">
        <ele>4</ele>
        <time>2017-06-25T07:51:31.999Z</time>
      </trkpt>
      <trkpt lat="45.84338" lon="-0.68868">
        <ele>4</ele>
        <time>2017-06-25T07:51:32.999Z</time>
      </trkpt>
      <trkpt lat="45.84337" lon="-0.68866">
        <ele>4</ele>
        <time>2017-06-25T07:51:33.999Z</time>
      </trkpt>
      <trkpt lat="45.84336" lon="-0.68864">
        <ele>4</ele>
        <time>2017-06-25T07:51:34.999Z</time>
      </trkpt>
      <trkpt lat="45.84336" lon="-0.68862">
        <ele>4</ele>
        <time>2017-06-25T07:51:35.999Z</time>
      </trkpt>
      <trkpt lat="45.84335" lon="-0.6886">
        <ele>4</ele>
        <time>2017-06-25T07:51:36.999Z</time>
      </trkpt>
      <trkpt lat="45.84335" lon="-0.68858">
        <ele>4</ele>
        <time>2017-06-25T07:51:37.999Z</time>
      </trkpt>
      <trkpt lat="45.84334" lon="-0.68854">
        <ele>4</ele>
        <time>2017-06-25T07:51:39.999Z</time>
      </trkpt>
      <trkpt lat="45.84334" lon="-0.68852">
        <ele>4</ele>
        <time>2017-06-25T07:51:40.999Z</time>
      </trkpt>
      <trkpt lat="45.84333" lon="-0.68851">
        <ele>4</ele>
        <time>2017-06-25T07:51:41.999Z</time>
      </trkpt>
      <trkpt lat="45.84333" lon="-0.68849">
        <ele>5</ele>
        <time>2017-06-25T07:51:42.999Z</time>
      </trkpt>
      <trkpt lat="45.84333" lon="-0.68847">
        <ele>5</ele>
        <time>2017-06-25T07:51:43.999Z</time>
      </trkpt>
      <trkpt lat="45.84332" lon="-0.68846">
        <ele>5</ele>
        <time>2017-06-25T07:51:44.999Z</time>
      </trkpt>
      <trkpt lat="45.84331" lon="-0.68845">
        <ele>5</ele>
        <time>2017-06-25T07:51:45.999Z</time>
      </trkpt>
      <trkpt lat="45.84331" lon="-0.68844">
        <ele>5</ele>
        <time>2017-06-25T07:51:46.999Z</time>
      </trkpt>
      <trkpt lat="45.8433" lon="-0.68841">
        <ele>5</ele>
        <time>2017-06-25T07:51:47.999Z</time>
      </trkpt>
      <trkpt lat="45.8433" lon="-0.6884">
        <ele>5</ele>
        <time>2017-06-25T07:51:48.999Z</time>
      </trkpt>
      <trkpt lat="45.84329" lon="-0.68839">
        <ele>5</ele>
        <time>2017-06-25T07:51:49.999Z</time>
      </trkpt>
      <trkpt lat="45.84328" lon="-0.68836">
        <ele>5</ele>
        <time>2017-06-25T07:51:50.999Z</time>
      </trkpt>
      <trkpt lat="45.84328" lon="-0.68831">
        <ele>5</ele>
        <time>2017-06-25T07:51:51.999Z</time>
      </trkpt>
      <trkpt lat="45.84328" lon="-0.68828">
        <ele>6</ele>
        <time>2017-06-25T07:51:52.999Z</time>
      </trkpt>
      <trkpt lat="45.84327" lon="-0.68826">
        <ele>6</ele>
        <time>2017-06-25T07:51:53.999Z</time>
      </trkpt>
      <trkpt lat="45.84327" lon="-0.68825">
        <ele>6</ele>
        <time>2017-06-25T07:51:54.999Z</time>
      </trkpt>
      <trkpt lat="45.84327" lon="-0.68824">
        <ele>6</ele>
        <time>2017-06-25T07:51:55.999Z</time>
      </trkpt>
      <trkpt lat="45.84326" lon="-0.68822">
        <ele>6</ele>
        <time>2017-06-25T07:51:56.999Z</time>
      </trkpt>
      <trkpt lat="45.84326" lon="-0.6882">
        <ele>6</ele>
        <time>2017-06-25T07:51:57.999Z</time>
      </trkpt>
      <trkpt lat="45.84325" lon="-0.68819">
        <ele>6</ele>
        <time>2017-06-25T07:51:58.999Z</time>
      </trkpt>
      <trkpt lat="45.84325" lon="-0.68817">
        <ele>6</ele>
        <time>2017-06-25T07:51:59.999Z</time>
      </trkpt>
      <trkpt lat="45.84325" lon="-0.68816">
        <ele>6</ele>
        <time>2017-06-25T07:52:02.999Z</time>
      </trkpt>
      <trkpt lat="45.84325" lon="-0.68814">
        <ele>6</ele>
        <time>2017-06-25T07:52:04.999Z</time>
      </trkpt>
      <trkpt lat="45.84325" lon="-0.68812">
        <ele>6</ele>
        <time>2017-06-25T07:52:05.999Z</time>
      </trkpt>
      <trkpt lat="45.84325" lon="-0.6881">
        <ele>6</ele>
        <time>2017-06-25T07:52:07.999Z</time>
      </trkpt>
      <trkpt lat="45.84324" lon="-0.68807">
        <ele>6</ele>
        <time>2017-06-25T07:52:08.999Z</time>
      </trkpt>
      <trkpt lat="45.84324" lon="-0.68804">
        <ele>6</ele>
        <time>2017-06-25T07:52:10.999Z</time>
      </trkpt>
      <trkpt lat="45.84324" lon="-0.68801">
        <ele>6</ele>
        <time>2017-06-25T07:52:11.999Z</time>
      </trkpt>
      <trkpt lat="45.84324" lon="-0.68799">
        <ele>6</ele>
        <time>2017-06-25T07:52:12.999Z</time>
      </trkpt>
      <trkpt lat="45.84324" lon="-0.68797">
        <ele>6</ele>
        <time>2017-06-25T07:52:13.999Z</time>
      </trkpt>
      <trkpt lat="45.84323" lon="-0.68794">
        <ele>6</ele>
        <time>2017-06-25T07:52:14.999Z</time>
      </trkpt>
      <trkpt lat="45.84323" lon="-0.68793">
        <ele>7</ele>
        <time>2017-06-25T07:52:15.999Z</time>
      </trkpt>
      <trkpt lat="45.84322" lon="-0.68791">
        <ele>7</ele>
        <time>2017-06-25T07:52:16.999Z</time>
      </trkpt>
      <trkpt lat="45.84322" lon="-0.6879">
        <ele>7</ele>
        <time>2017-06-25T07:52:17.999Z</time>
      </trkpt>
      <trkpt lat="45.8432" lon="-0.68788">
        <ele>7</ele>
        <time>2017-06-25T07:52:18.999Z</time>
      </trkpt>
      <trkpt lat="45.8432" lon="-0.68786">
        <ele>7</ele>
        <time>2017-06-25T07:52:19.999Z</time>
      </trkpt>
      <trkpt lat="45.84319" lon="-0.68785">
        <ele>7</ele>
        <time>2017-06-25T07:52:20.999Z</time>
      </trkpt>
      <trkpt lat="45.84319" lon="-0.68782">
        <ele>7</ele>
        <time>2017-06-25T07:52:21.999Z</time>
      </trkpt>
      <trkpt lat="45.84317" lon="-0.6878">
        <ele>7</ele>
        <time>2017-06-25T07:52:22.999Z</time>
      </trkpt>
      <trkpt lat="45.84317" lon="-0.68778">
        <ele>7</ele>
        <time>2017-06-25T07:52:23.999Z</time>
      </trkpt>
      <trkpt lat="45.84316" lon="-0.68776">
        <ele>7</ele>
        <time>2017-06-25T07:52:24.999Z</time>
      </trkpt>
      <trkpt lat="45.84315" lon="-0.68775">
        <ele>7</ele>
        <time>2017-06-25T07:52:25.999Z</time>
      </trkpt>
      <trkpt lat="45.84314" lon="-0.68773">
        <ele>7</ele>
        <time>2017-06-25T07:52:26.999Z</time>
      </trkpt>
      <trkpt lat="45.84314" lon="-0.68772">
        <ele>7</ele>
        <time>2017-06-25T07:52:27.999Z</time>
      </trkpt>
      <trkpt lat="45.84313" lon="-0.6877">
        <ele>7</ele>
        <time>2017-06-25T07:52:28.999Z</time>
      </trkpt>
      <trkpt lat="45.84312" lon="-0.68769">
        <ele>7</ele>
        <time>2017-06-25T07:52:29.999Z</time>
      </trkpt>
      <trkpt lat="45.84312" lon="-0.68767">
        <ele>7</ele>
        <time>2017-06-25T07:52:30.999Z</time>
      </trkpt>
      <trkpt lat="45.84311" lon="-0.68765">
        <ele>7</ele>
        <time>2017-06-25T07:52:31.999Z</time>
      </trkpt>
      <trkpt lat="45.8431" lon="-0.68762">
        <ele>7</ele>
        <time>2017-06-25T07:52:32.999Z</time>
      </trkpt>
      <trkpt lat="45.84309" lon="-0.68759">
        <ele>7</ele>
        <time>2017-06-25T07:52:33.999Z</time>
      </trkpt>
      <trkpt lat="45.84308" lon="-0.68757">
        <ele>7</ele>
        <time>2017-06-25T07:52:34.999Z</time>
      </trkpt>
      <trkpt lat="45.84308" lon="-0.68755">
        <ele>7</ele>
        <time>2017-06-25T07:52:35.999Z</time>
      </trkpt>
      <trkpt lat="45.84307" lon="-0.68753">
        <ele>7</ele>
        <time>2017-06-25T07:52:36.999Z</time>
      </trkpt>
      <trkpt lat="45.84307" lon="-0.68751">
        <ele>7</ele>
        <time>2017-06-25T07:52:38.999Z</time>
      </trkpt>
      <trkpt lat="45.84306" lon="-0.68748">
        <ele>7</ele>
        <time>2017-06-25T07:52:39.999Z</time>
      </trkpt>
      <trkpt lat="45.84305" lon="-0.68746">
        <ele>7</ele>
        <time>2017-06-25T07:52:40.999Z</time>
      </trkpt>
      <trkpt lat="45.84305" lon="-0.68745">
        <ele>7</ele>
        <time>2017-06-25T07:52:41.999Z</time>
      </trkpt>
      <trkpt lat="45.84304" lon="-0.68742">
        <ele>7</ele>
        <time>2017-06-25T07:52:43.999Z</time>
      </trkpt>
      <trkpt lat="45.84304" lon="-0.6874">
        <ele>7</ele>
        <time>2017-06-25T07:52:44.999Z</time>
      </trkpt>
      <trkpt lat="45.84303" lon="-0.68739">
        <ele>7</ele>
        <time>2017-06-25T07:52:45.999Z</time>
      </trkpt>
      <trkpt lat="45.84302" lon="-0.68737">
        <ele>7</ele>
        <time>2017-06-25T07:52:46.999Z</time>
      </trkpt>
      <trkpt lat="45.84301" lon="-0.68736">
        <ele>7</ele>
        <time>2017-06-25T07:52:47.999Z</time>
      </trkpt>
      <trkpt lat="45.84301" lon="-0.68734">
        <ele>7</ele>
        <time>2017-06-25T07:52:48.999Z</time>
      </trkpt>
      <trkpt lat="45.843" lon="-0.68733">
        <ele>8</ele>
        <time>2017-06-25T07:52:49.999Z</time>
      </trkpt>
      <trkpt lat="45.843" lon="-0.6873">
        <ele>8</ele>
        <time>2017-06-25T07:52:51.999Z</time>
      </trkpt>
      <trkpt lat="45.84299" lon="-0.68728">
        <ele>8</ele>
        <time>2017-06-25T07:52:53.999Z</time>
      </trkpt>
      <trkpt lat="45.84298" lon="-0.68727">
        <ele>8</ele>
        <time>2017-06-25T07:52:54.999Z</time>
      </trkpt>
      <trkpt lat="45.84297" lon="-0.68725">
        <ele>8</ele>
        <time>2017-06-25T07:52:55.999Z</time>
      </trkpt>
      <trkpt lat="45.84296" lon="-0.68724">
        <ele>8</ele>
        <time>2017-06-25T07:52:57.999Z</time>
      </trkpt>
      <trkpt lat="45.84295" lon="-0.68722">
        <ele>8</ele>
        <time>2017-06-25T07:52:58.999Z</time>
      </trkpt>
      <trkpt lat="45.84295" lon="-0.68721">
        <ele>8</ele>
        <time>2017-06-25T07:52:59.999Z</time>
      </trkpt>
      <trkpt lat="45.84294" lon="-0.68719">
        <ele>8</ele>
        <time>2017-06-25T07:53:00.999Z</time>
      </trkpt>
      <trkpt lat="45.84293" lon="-0.68717">
        <ele>8</ele>
        <time>2017-06-25T07:53:02.999Z</time>
      </trkpt>
      <trkpt lat="45.84291" lon="-0.68714">
        <ele>8</ele>
        <time>2017-06-25T07:53:04.999Z</time>
      </trkpt>
      <trkpt lat="45.84291" lon="-0.68712">
        <ele>8</ele>
        <time>2017-06-25T07:53:05.999Z</time>
      </trkpt>
      <trkpt lat="45.8429" lon="-0.68711">
        <ele>8</ele>
        <time>2017-06-25T07:53:07.999Z</time>
      </trkpt>
      <trkpt lat="45.84289" lon="-0.68709">
        <ele>8</ele>
        <time>2017-06-25T07:53:09.999Z</time>
      </trkpt>
      <trkpt lat="45.84288" lon="-0.68707">
        <ele>8</ele>
        <time>2017-06-25T07:53:10.999Z</time>
      </trkpt>
      <trkpt lat="45.84288" lon="-0.68705">
        <ele>8</ele>
        <time>2017-06-25T07:53:12.999Z</time>
      </trkpt>
      <trkpt lat="45.84288" lon="-0.68703">
        <ele>8</ele>
        <time>2017-06-25T07:53:14.999Z</time>
      </trkpt>
      <trkpt lat="45.84287" lon="-0.68701">
        <ele>8</ele>
        <time>2017-06-25T07:53:16.999Z</time>
      </trkpt>
      <trkpt lat="45.84287" lon="-0.68699">
        <ele>8</ele>
        <time>2017-06-25T07:53:18.999Z</time>
      </trkpt>
      <trkpt lat="45.84287" lon="-0.68697">
        <ele>8</ele>
        <time>2017-06-25T07:53:19.999Z</time>
      </trkpt>
      <trkpt lat="45.84287" lon="-0.68696">
        <ele>8</ele>
        <time>2017-06-25T07:53:38.999Z</time>
      </trkpt>
      <trkpt lat="45.84286" lon="-0.68695">
        <ele>8</ele>
        <time>2017-06-25T07:53:41.999Z</time>
      </trkpt>
      <trkpt lat="45.84285" lon="-0.68695">
        <ele>8</ele>
        <time>2017-06-25T07:53:57.999Z</time>
      </trkpt>
      <trkpt lat="45.84284" lon="-0.68694">
        <ele>8</ele>
        <time>2017-06-25T07:53:59.999Z</time>
      </trkpt>
      <trkpt lat="45.84283" lon="-0.68693">
        <ele>8</ele>
        <time>2017-06-25T07:54:02.999Z</time>
      </trkpt>
      <trkpt lat="45.84283" lon="-0.68694">
        <ele>8</ele>
        <time>2017-06-25T07:54:04.999Z</time>
      </trkpt>
      <trkpt lat="45.84283" lon="-0.68695">
        <ele>8</ele>
        <time>2017-06-25T07:54:06.999Z</time>
      </trkpt>
      <trkpt lat="45.84282" lon="-0.68695">
        <ele>8</ele>
        <time>2017-06-25T07:54:10.999Z</time>
      </trkpt>
      <trkpt lat="45.84282" lon="-0.68697">
        <ele>8</ele>
        <time>2017-06-25T07:54:13.999Z</time>
      </trkpt>
      <trkpt lat="45.84283" lon="-0.68698">
        <ele>8</ele>
        <time>2017-06-25T07:54:14.999Z</time>
      </trkpt>
      <trkpt lat="45.84283" lon="-0.68697">
        <ele>8</ele>
        <time>2017-06-25T07:54:22.999Z</time>
      </trkpt>
      <trkpt lat="45.84279" lon="-0.68693">
        <ele>8</ele>
        <time>2017-06-25T07:54:28.999Z</time>
      </trkpt>
      <trkpt lat="45.84277" lon="-0.68691">
        <ele>8</ele>
        <time>2017-06-25T07:54:29.999Z</time>
      </trkpt>
      <trkpt lat="45.84277" lon="-0.6869">
        <ele>8</ele>
        <time>2017-06-25T07:54:35.999Z</time>
      </trkpt>
      <trkpt lat="45.84277" lon="-0.6869">
        <ele>8</ele>
        <time>2017-06-25T07:54:37.999Z</time>
      </trkpt>
      <trkpt lat="45.84277" lon="-0.68688">
        <ele>8</ele>
        <time>2017-06-25T07:54:48.999Z</time>
      </trkpt>
      <trkpt lat="45.84277" lon="-0.6869">
        <ele>8</ele>
        <time>2017-06-25T07:55:05.999Z</time>
      </trkpt>
      <trkpt lat="45.84277" lon="-0.68688">
        <ele>8</ele>
        <time>2017-06-25T07:55:07.999Z</time>
      </trkpt>
      <trkpt lat="45.84278" lon="-0.68688">
        <ele>8</ele>
        <time>2017-06-25T07:55:08.999Z</time>
      </trkpt>
      <trkpt lat="45.84279" lon="-0.68688">
        <ele>8</ele>
        <time>2017-06-25T07:55:28.999Z</time>
      </trkpt>
      <trkpt lat="45.8428" lon="-0.68688">
        <ele>8</ele>
        <time>2017-06-25T07:55:59.999Z</time>
      </trkpt>
      <trkpt lat="45.8428" lon="-0.6869">
        <ele>8</ele>
        <time>2017-06-25T07:56:45.999Z</time>
      </trkpt>
      <trkpt lat="45.84281" lon="-0.6869">
        <ele>8</ele>
        <time>2017-06-25T07:57:22.999Z</time>
      </trkpt>
      <trkpt lat="45.84282" lon="-0.6869">
        <ele>8</ele>
        <time>2017-06-25T07:57:23.999Z</time>
      </trkpt>
      <trkpt lat="45.84283" lon="-0.6869">
        <ele>8</ele>
        <time>2017-06-25T07:57:24.999Z</time>
      </trkpt>
      <trkpt lat="45.84284" lon="-0.6869">
        <ele>8</ele>
        <time>2017-06-25T07:57:26.999Z</time>
      </trkpt>
      <trkpt lat="45.84284" lon="-0.68689">
        <ele>8</ele>
        <time>2017-06-25T07:57:30.999Z</time>
      </trkpt>
      <trkpt lat="45.84284" lon="-0.68687">
        <ele>8</ele>
        <time>2017-06-25T07:57:38.999Z</time>
      </trkpt>
      <trkpt lat="45.84285" lon="-0.68689">
        <ele>8</ele>
        <time>2017-06-25T07:58:25.999Z</time>
      </trkpt>
      <trkpt lat="45.84286" lon="-0.6869">
        <ele>8</ele>
        <time>2017-06-25T07:58:50.999Z</time>
      </trkpt>
      <trkpt lat="45.84287" lon="-0.68689">
        <ele>8</ele>
        <time>2017-06-25T07:58:53.999Z</time>
      </trkpt>
      <trkpt lat="45.84287" lon="-0.68688">
        <ele>8</ele>
        <time>2017-06-25T07:59:03.999Z</time>
      </trkpt>
      <trkpt lat="45.84287" lon="-0.68687">
        <ele>8</ele>
        <time>2017-06-25T07:59:06.999Z</time>
      </trkpt>
      <trkpt lat="45.84286" lon="-0.68685">
        <ele>8</ele>
        <time>2017-06-25T07:59:08.999Z</time>
      </trkpt>
      <trkpt lat="45.84286" lon="-0.68684">
        <ele>8</ele>
        <time>2017-06-25T07:59:14.999Z</time>
      </trkpt>
      <trkpt lat="45.84286" lon="-0.68683">
        <ele>8</ele>
        <time>2017-06-25T07:59:17.999Z</time>
      </trkpt>
      <trkpt lat="45.84286" lon="-0.68681">
        <ele>8</ele>
        <time>2017-06-25T07:59:24.999Z</time>
      </trkpt>
      <trkpt lat="45.84285" lon="-0.6868">
        <ele>8</ele>
        <time>2017-06-25T07:59:34.999Z</time>
      </trkpt>
      <trkpt lat="45.84285" lon="-0.68679">
        <ele>8</ele>
        <time>2017-06-25T07:59:48.999Z</time>
      </trkpt>
      <trkpt lat="45.84284" lon="-0.68678">
        <ele>8</ele>
        <time>2017-06-25T08:00:01.999Z</time>
      </trkpt>
      <trkpt lat="45.84283" lon="-0.68677">
        <ele>8</ele>
        <time>2017-06-25T08:00:07.999Z</time>
      </trkpt>
      <trkpt lat="45.84283" lon="-0.68675">
        <ele>8</ele>
        <time>2017-06-25T08:00:09.999Z</time>
      </trkpt>
      <trkpt lat="45.84282" lon="-0.68673">
        <ele>8</ele>
        <time>2017-06-25T08:00:11.999Z</time>
      </trkpt>
      <trkpt lat="45.8428" lon="-0.68672">
        <ele>8</ele>
        <time>2017-06-25T08:00:13.999Z</time>
      </trkpt>
      <trkpt lat="45.84279" lon="-0.68673">
        <ele>8</ele>
        <time>2017-06-25T08:00:16.999Z</time>
      </trkpt>
      <trkpt lat="45.8428" lon="-0.68671">
        <ele>8</ele>
        <time>2017-06-25T08:00:41.999Z</time>
      </trkpt>
      <trkpt lat="45.84279" lon="-0.6867">
        <ele>8</ele>
        <time>2017-06-25T08:00:54.999Z</time>
      </trkpt>
      <trkpt lat="45.84279" lon="-0.68669">
        <ele>8</ele>
        <time>2017-06-25T08:01:13.999Z</time>
      </trkpt>
      <trkpt lat="45.84278" lon="-0.68667">
        <ele>8</ele>
        <time>2017-06-25T08:01:29.999Z</time>
      </trkpt>
      <trkpt lat="45.84277" lon="-0.68666">
        <ele>8</ele>
        <time>2017-06-25T08:01:30.999Z</time>
      </trkpt>
      <trkpt lat="45.84275" lon="-0.68663">
        <ele>8</ele>
        <time>2017-06-25T08:01:33.999Z</time>
      </trkpt>
      <trkpt lat="45.84274" lon="-0.68661">
        <ele>8</ele>
        <time>2017-06-25T08:01:34.999Z</time>
      </trkpt>
      <trkpt lat="45.84273" lon="-0.68659">
        <ele>8</ele>
        <time>2017-06-25T08:01:35.999Z</time>
      </trkpt>
      <trkpt lat="45.84271" lon="-0.68656">
        <ele>8</ele>
        <time>2017-06-25T08:01:37.999Z</time>
      </trkpt>
      <trkpt lat="45.8427" lon="-0.68655">
        <ele>8</ele>
        <time>2017-06-25T08:01:38.999Z</time>
      </trkpt>
      <trkpt lat="45.84268" lon="-0.68652">
        <ele>8</ele>
        <time>2017-06-25T08:01:40.999Z</time>
      </trkpt>
      <trkpt lat="45.84267" lon="-0.68651">
        <ele>8</ele>
        <time>2017-06-25T08:01:41.999Z</time>
      </trkpt>
      <trkpt lat="45.84266" lon="-0.68649">
        <ele>8</ele>
        <time>2017-06-25T08:01:42.999Z</time>
      </trkpt>
      <trkpt lat="45.84265" lon="-0.68647">
        <ele>8</ele>
        <time>2017-06-25T08:01:43.999Z</time>
      </trkpt>
      <trkpt lat="45.84264" lon="-0.68646">
        <ele>8</ele>
        <time>2017-06-25T08:01:44.999Z</time>
      </trkpt>
      <trkpt lat="45.84261" lon="-0.68643">
        <ele>8</ele>
        <time>2017-06-25T08:01:46.999Z</time>
      </trkpt>
      <trkpt lat="45.84259" lon="-0.6864">
        <ele>8</ele>
        <time>2017-06-25T08:01:48.999Z</time>
      </trkpt>
      <trkpt lat="45.84256" lon="-0.68638">
        <ele>8</ele>
        <time>2017-06-25T08:01:50.999Z</time>
      </trkpt>
      <trkpt lat="45.84256" lon="-0.68637">
        <ele>8</ele>
        <time>2017-06-25T08:01:51.999Z</time>
      </trkpt>
      <trkpt lat="45.84255" lon="-0.68636">
        <ele>8</ele>
        <time>2017-06-25T08:01:52.999Z</time>
      </trkpt>
      <trkpt lat="45.84254" lon="-0.68634">
        <ele>8</ele>
        <time>2017-06-25T08:01:54.999Z</time>
      </trkpt>
      <trkpt lat="45.84253" lon="-0.68633">
        <ele>8</ele>
        <time>2017-06-25T08:01:55.999Z</time>
      </trkpt>
      <trkpt lat="45.84252" lon="-0.68631">
        <ele>8</ele>
        <time>2017-06-25T08:01:56.999Z</time>
      </trkpt>
      <trkpt lat="45.84251" lon="-0.6863">
        <ele>8</ele>
        <time>2017-06-25T08:01:57.999Z</time>
      </trkpt>
      <trkpt lat="45.84251" lon="-0.68629">
        <ele>8</ele>
        <time>2017-06-25T08:01:58.999Z</time>
      </trkpt>
      <trkpt lat="45.8425" lon="-0.68627">
        <ele>11</ele>
        <time>2017-06-25T08:02:00.999Z</time>
      </trkpt>
      <trkpt lat="45.84248" lon="-0.68625">
        <ele>11</ele>
        <time>2017-06-25T08:02:01.999Z</time>
      </trkpt>
      <trkpt lat="45.84246" lon="-0.68623">
        <ele>11</ele>
        <time>2017-06-25T08:02:03.999Z</time>
      </trkpt>
      <trkpt lat="45.84245" lon="-0.68621">
        <ele>11</ele>
        <time>2017-06-25T08:02:04.999Z</time>
      </trkpt>
      <trkpt lat="45.84244" lon="-0.68619">
        <ele>11</ele>
        <time>2017-06-25T08:02:06.999Z</time>
      </trkpt>
      <trkpt lat="45.84243" lon="-0.68618">
        <ele>11</ele>
        <time>2017-06-25T08:02:08.999Z</time>
      </trkpt>
      <trkpt lat="45.84242" lon="-0.68617">
        <ele>11</ele>
        <time>2017-06-25T08:02:09.999Z</time>
      </trkpt>
      <trkpt lat="45.84241" lon="-0.68616">
        <ele>11</ele>
        <time>2017-06-25T08:02:10.999Z</time>
      </trkpt>
      <trkpt lat="45.84239" lon="-0.68613">
        <ele>11</ele>
        <time>2017-06-25T08:02:12.999Z</time>
      </trkpt>
      <trkpt lat="45.84238" lon="-0.68612">
        <ele>11</ele>
        <time>2017-06-25T08:02:13.999Z</time>
      </trkpt>
      <trkpt lat="45.84237" lon="-0.6861">
        <ele>11</ele>
        <time>2017-06-25T08:02:14.999Z</time>
      </trkpt>
      <trkpt lat="45.84236" lon="-0.68608">
        <ele>11</ele>
        <time>2017-06-25T08:02:15.999Z</time>
      </trkpt>
      <trkpt lat="45.84235" lon="-0.68607">
        <ele>11</ele>
        <time>2017-06-25T08:02:16.999Z</time>
      </trkpt>
      <trkpt lat="45.84234" lon="-0.68605">
        <ele>11</ele>
        <time>2017-06-25T08:02:18.999Z</time>
      </trkpt>
      <trkpt lat="45.84232" lon="-0.68604">
        <ele>11</ele>
        <time>2017-06-25T08:02:20.999Z</time>
      </trkpt>
      <trkpt lat="45.8423" lon="-0.68604">
        <ele>11</ele>
        <time>2017-06-25T08:02:22.999Z</time>
      </trkpt>
      <trkpt lat="45.84229" lon="-0.68603">
        <ele>11</ele>
        <time>2017-06-25T08:02:24.999Z</time>
      </trkpt>
      <trkpt lat="45.84228" lon="-0.68601">
        <ele>11</ele>
        <time>2017-06-25T08:02:26.999Z</time>
      </trkpt>
      <trkpt lat="45.84227" lon="-0.686">
        <ele>11</ele>
        <time>2017-06-25T08:02:28.999Z</time>
      </trkpt>
      <trkpt lat="45.84226" lon="-0.68599">
        <ele>11</ele>
        <time>2017-06-25T08:02:29.999Z</time>
      </trkpt>
      <trkpt lat="45.84225" lon="-0.68597">
        <ele>11</ele>
        <time>2017-06-25T08:02:30.999Z</time>
      </trkpt>
      <trkpt lat="45.84224" lon="-0.68596">
        <ele>11</ele>
        <time>2017-06-25T08:02:31.999Z</time>
      </trkpt>
      <trkpt lat="45.84224" lon="-0.68595">
        <ele>11</ele>
        <time>2017-06-25T08:02:32.999Z</time>
      </trkpt>
      <trkpt lat="45.84223" lon="-0.68594">
        <ele>11</ele>
        <time>2017-06-25T08:02:33.999Z</time>
      </trkpt>
      <trkpt lat="45.84222" lon="-0.68593">
        <ele>11</ele>
        <time>2017-06-25T08:02:34.999Z</time>
      </trkpt>
      <trkpt lat="45.84221" lon="-0.68591">
        <ele>11</ele>
        <time>2017-06-25T08:02:35.999Z</time>
      </trkpt>
      <trkpt lat="45.8422" lon="-0.6859">
        <ele>11</ele>
        <time>2017-06-25T08:02:37.999Z</time>
      </trkpt>
      <trkpt lat="45.84219" lon="-0.68588">
        <ele>11</ele>
        <time>2017-06-25T08:02:39.999Z</time>
      </trkpt>
      <trkpt lat="45.84218" lon="-0.68587">
        <ele>11</ele>
        <time>2017-06-25T08:02:40.999Z</time>
      </trkpt>
      <trkpt lat="45.84216" lon="-0.68586">
        <ele>11</ele>
        <time>2017-06-25T08:02:42.999Z</time>
      </trkpt>
      <trkpt lat="45.84216" lon="-0.68585">
        <ele>11</ele>
        <time>2017-06-25T08:02:43.999Z</time>
      </trkpt>
      <trkpt lat="45.84215" lon="-0.68584">
        <ele>11</ele>
        <time>2017-06-25T08:02:44.999Z</time>
      </trkpt>
      <trkpt lat="45.84214" lon="-0.68583">
        <ele>10</ele>
        <time>2017-06-25T08:02:45.999Z</time>
      </trkpt>
      <trkpt lat="45.84213" lon="-0.6858">
        <ele>10</ele>
        <time>2017-06-25T08:02:47.999Z</time>
      </trkpt>
      <trkpt lat="45.84213" lon="-0.68579">
        <ele>10</ele>
        <time>2017-06-25T08:02:48.999Z</time>
      </trkpt>
      <trkpt lat="45.84212" lon="-0.68578">
        <ele>10</ele>
        <time>2017-06-25T08:02:49.999Z</time>
      </trkpt>
      <trkpt lat="45.84211" lon="-0.68576">
        <ele>10</ele>
        <time>2017-06-25T08:02:50.999Z</time>
      </trkpt>
      <trkpt lat="45.8421" lon="-0.68575">
        <ele>10</ele>
        <time>2017-06-25T08:02:51.999Z</time>
      </trkpt>
      <trkpt lat="45.84209" lon="-0.68573">
        <ele>10</ele>
        <time>2017-06-25T08:02:52.999Z</time>
      </trkpt>
      <trkpt lat="45.84209" lon="-0.68572">
        <ele>10</ele>
        <time>2017-06-25T08:02:53.999Z</time>
      </trkpt>
      <trkpt lat="45.84208" lon="-0.68569">
        <ele>10</ele>
        <time>2017-06-25T08:02:55.999Z</time>
      </trkpt>
      <trkpt lat="45.84206" lon="-0.68566">
        <ele>10</ele>
        <time>2017-06-25T08:02:57.999Z</time>
      </trkpt>
      <trkpt lat="45.84206" lon="-0.68565">
        <ele>10</ele>
        <time>2017-06-25T08:02:58.999Z</time>
      </trkpt>
      <trkpt lat="45.84205" lon="-0.68564">
        <ele>10</ele>
        <time>2017-06-25T08:03:00.999Z</time>
      </trkpt>
      <trkpt lat="45.84203" lon="-0.68562">
        <ele>10</ele>
        <time>2017-06-25T08:03:02.999Z</time>
      </trkpt>
      <trkpt lat="45.84203" lon="-0.68561">
        <ele>10</ele>
        <time>2017-06-25T08:03:03.999Z</time>
      </trkpt>
      <trkpt lat="45.84202" lon="-0.68559">
        <ele>10</ele>
        <time>2017-06-25T08:03:04.999Z</time>
      </trkpt>
      <trkpt lat="45.84201" lon="-0.68557">
        <ele>10</ele>
        <time>2017-06-25T08:03:05.999Z</time>
      </trkpt>
      <trkpt lat="45.842" lon="-0.68556">
        <ele>10</ele>
        <time>2017-06-25T08:03:06.999Z</time>
      </trkpt>
      <trkpt lat="45.84199" lon="-0.68555">
        <ele>10</ele>
        <time>2017-06-25T08:03:07.999Z</time>
      </trkpt>
      <trkpt lat="45.84197" lon="-0.68554">
        <ele>10</ele>
        <time>2017-06-25T08:03:08.999Z</time>
      </trkpt>
      <trkpt lat="45.84196" lon="-0.68554">
        <ele>10</ele>
        <time>2017-06-25T08:03:09.999Z</time>
      </trkpt>
      <trkpt lat="45.84195" lon="-0.68553">
        <ele>10</ele>
        <time>2017-06-25T08:03:10.999Z</time>
      </trkpt>
      <trkpt lat="45.84193" lon="-0.68552">
        <ele>10</ele>
        <time>2017-06-25T08:03:11.999Z</time>
      </trkpt>
      <trkpt lat="45.84192" lon="-0.68551">
        <ele>10</ele>
        <time>2017-06-25T08:03:12.999Z</time>
      </trkpt>
      <trkpt lat="45.8419" lon="-0.68551">
        <ele>10</ele>
        <time>2017-06-25T08:03:13.999Z</time>
      </trkpt>
      <trkpt lat="45.8419" lon="-0.6855">
        <ele>10</ele>
        <time>2017-06-25T08:03:14.999Z</time>
      </trkpt>
      <trkpt lat="45.84189" lon="-0.68549">
        <ele>10</ele>
        <time>2017-06-25T08:03:15.999Z</time>
      </trkpt>
      <trkpt lat="45.84187" lon="-0.68548">
        <ele>10</ele>
        <time>2017-06-25T08:03:16.999Z</time>
      </trkpt>
      <trkpt lat="45.84186" lon="-0.68547">
        <ele>10</ele>
        <time>2017-06-25T08:03:17.999Z</time>
      </trkpt>
      <trkpt lat="45.84185" lon="-0.68546">
        <ele>10</ele>
        <time>2017-06-25T08:03:18.999Z</time>
      </trkpt>
      <trkpt lat="45.84184" lon="-0.68545">
        <ele>10</ele>
        <time>2017-06-25T08:03:20.999Z</time>
      </trkpt>
      <trkpt lat="45.84183" lon="-0.68544">
        <ele>10</ele>
        <time>2017-06-25T08:03:22.999Z</time>
      </trkpt>
      <trkpt lat="45.84182" lon="-0.68543">
        <ele>10</ele>
        <time>2017-06-25T08:03:23.999Z</time>
      </trkpt>
      <trkpt lat="45.84181" lon="-0.68541">
        <ele>10</ele>
        <time>2017-06-25T08:03:25.999Z</time>
      </trkpt>
      <trkpt lat="45.84179" lon="-0.68537">
        <ele>10</ele>
        <time>2017-06-25T08:03:26.999Z</time>
      </trkpt>
      <trkpt lat="45.84177" lon="-0.68535">
        <ele>10</ele>
        <time>2017-06-25T08:03:27.999Z</time>
      </trkpt>
      <trkpt lat="45.84177" lon="-0.68533">
        <ele>10</ele>
        <time>2017-06-25T08:03:29.999Z</time>
      </trkpt>
      <trkpt lat="45.84177" lon="-0.68534">
        <ele>10</ele>
        <time>2017-06-25T08:03:57.999Z</time>
      </trkpt>
      <trkpt lat="45.84177" lon="-0.68534">
        <ele>10</ele>
        <time>2017-06-25T08:04:01.999Z</time>
      </trkpt>
      <trkpt lat="45.84177" lon="-0.68533">
        <ele>10</ele>
        <time>2017-06-25T08:04:02.999Z</time>
      </trkpt>
      <trkpt lat="45.84177" lon="-0.68528">
        <ele>10</ele>
        <time>2017-06-25T08:04:03.999Z</time>
      </trkpt>
      <trkpt lat="45.84178" lon="-0.68525">
        <ele>10</ele>
        <time>2017-06-25T08:04:04.999Z</time>
      </trkpt>
      <trkpt lat="45.84179" lon="-0.68523">
        <ele>10</ele>
        <time>2017-06-25T08:04:06.999Z</time>
      </trkpt>
      <trkpt lat="45.8418" lon="-0.68523">
        <ele>10</ele>
        <time>2017-06-25T08:04:07.999Z</time>
      </trkpt>
      <trkpt lat="45.84184" lon="-0.68524">
        <ele>10</ele>
        <time>2017-06-25T08:04:08.999Z</time>
      </trkpt>
      <trkpt lat="45.84185" lon="-0.68525">
        <ele>10</ele>
        <time>2017-06-25T08:04:09.999Z</time>
      </trkpt>
      <trkpt lat="45.84185" lon="-0.68526">
        <ele>10</ele>
        <time>2017-06-25T08:04:10.999Z</time>
      </trkpt>
      <trkpt lat="45.84185" lon="-0.68527">
        <ele>10</ele>
        <time>2017-06-25T08:04:15.999Z</time>
      </trkpt>
      <trkpt lat="45.84185" lon="-0.68526">
        <ele>10</ele>
        <time>2017-06-25T08:04:25.999Z</time>
      </trkpt>
      <trkpt lat="45.84185" lon="-0.68524">
        <ele>10</ele>
        <time>2017-06-25T08:04:26.999Z</time>
      </trkpt>
      <trkpt lat="45.84186" lon="-0.68523">
        <ele>10</ele>
        <time>2017-06-25T08:04:27.999Z</time>
      </trkpt>
      <trkpt lat="45.84186" lon="-0.68521">
        <ele>10</ele>
        <time>2017-06-25T08:04:29.999Z</time>
      </trkpt>
      <trkpt lat="45.84187" lon="-0.68519">
        <ele>10</ele>
        <time>2017-06-25T08:04:31.999Z</time>
      </trkpt>
      <trkpt lat="45.84188" lon="-0.68517">
        <ele>10</ele>
        <time>2017-06-25T08:04:32.999Z</time>
      </trkpt>
      <trkpt lat="45.84189" lon="-0.68516">
        <ele>10</ele>
        <time>2017-06-25T08:04:33.999Z</time>
      </trkpt>
      <trkpt lat="45.84189" lon="-0.68514">
        <ele>10</ele>
        <time>2017-06-25T08:04:34.999Z</time>
      </trkpt>
      <trkpt lat="45.84189" lon="-0.68513">
        <ele>10</ele>
        <time>2017-06-25T08:04:35.999Z</time>
      </trkpt>
      <trkpt lat="45.8419" lon="-0.68511">
        <ele>10</ele>
        <time>2017-06-25T08:04:36.999Z</time>
      </trkpt>
      <trkpt lat="45.84191" lon="-0.6851">
        <ele>10</ele>
        <time>2017-06-25T08:04:37.999Z</time>
      </trkpt>
      <trkpt lat="45.84192" lon="-0.68509">
        <ele>10</ele>
        <time>2017-06-25T08:04:38.999Z</time>
      </trkpt>
      <trkpt lat="45.84192" lon="-0.68508">
        <ele>10</ele>
        <time>2017-06-25T08:04:39.999Z</time>
      </trkpt>
      <trkpt lat="45.84193" lon="-0.68506">
        <ele>10</ele>
        <time>2017-06-25T08:04:41.999Z</time>
      </trkpt>
      <trkpt lat="45.84194" lon="-0.68504">
        <ele>10</ele>
        <time>2017-06-25T08:04:43.999Z</time>
      </trkpt>
      <trkpt lat="45.84195" lon="-0.68503">
        <ele>10</ele>
        <time>2017-06-25T08:04:44.999Z</time>
      </trkpt>
      <trkpt lat="45.84195" lon="-0.68502">
        <ele>10</ele>
        <time>2017-06-25T08:04:45.999Z</time>
      </trkpt>
      <trkpt lat="45.84196" lon="-0.685">
        <ele>10</ele>
        <time>2017-06-25T08:04:46.999Z</time>
      </trkpt>
      <trkpt lat="45.84197" lon="-0.685">
        <ele>8</ele>
        <time>2017-06-25T08:04:47.999Z</time>
      </trkpt>
      <trkpt lat="45.84198" lon="-0.68498">
        <ele>8</ele>
        <time>2017-06-25T08:04:49.999Z</time>
      </trkpt>
      <trkpt lat="45.84199" lon="-0.68496">
        <ele>7</ele>
        <time>2017-06-25T08:04:51.999Z</time>
      </trkpt>
      <trkpt lat="45.842" lon="-0.68496">
        <ele>7</ele>
        <time>2017-06-25T08:04:52.999Z</time>
      </trkpt>
      <trkpt lat="45.842" lon="-0.68495">
        <ele>7</ele>
        <time>2017-06-25T08:04:53.999Z</time>
      </trkpt>
      <trkpt lat="45.84201" lon="-0.68494">
        <ele>7</ele>
        <time>2017-06-25T08:04:54.999Z</time>
      </trkpt>
      <trkpt lat="45.84202" lon="-0.68493">
        <ele>7</ele>
        <time>2017-06-25T08:04:55.999Z</time>
      </trkpt>
      <trkpt lat="45.84203" lon="-0.68492">
        <ele>7</ele>
        <time>2017-06-25T08:04:56.999Z</time>
      </trkpt>
      <trkpt lat="45.84203" lon="-0.6849">
        <ele>7</ele>
        <time>2017-06-25T08:04:57.999Z</time>
      </trkpt>
      <trkpt lat="45.84204" lon="-0.68489">
        <ele>7</ele>
        <time>2017-06-25T08:04:58.999Z</time>
      </trkpt>
      <trkpt lat="45.84205" lon="-0.68487">
        <ele>7</ele>
        <time>2017-06-25T08:04:59.999Z</time>
      </trkpt>
      <trkpt lat="45.84206" lon="-0.68486">
        <ele>7</ele>
        <time>2017-06-25T08:05:00.999Z</time>
      </trkpt>
      <trkpt lat="45.84206" lon="-0.68485">
        <ele>7</ele>
        <time>2017-06-25T08:05:01.999Z</time>
      </trkpt>
      <trkpt lat="45.84207" lon="-0.68483">
        <ele>7</ele>
        <time>2017-06-25T08:05:02.999Z</time>
      </trkpt>
      <trkpt lat="45.84208" lon="-0.68481">
        <ele>7</ele>
        <time>2017-06-25T08:05:03.999Z</time>
      </trkpt>
      <trkpt lat="45.84208" lon="-0.6848">
        <ele>7</ele>
        <time>2017-06-25T08:05:04.999Z</time>
      </trkpt>
      <trkpt lat="45.84209" lon="-0.68478">
        <ele>7</ele>
        <time>2017-06-25T08:05:05.999Z</time>
      </trkpt>
      <trkpt lat="45.84211" lon="-0.68477">
        <ele>7</ele>
        <time>2017-06-25T08:05:06.999Z</time>
      </trkpt>
      <trkpt lat="45.84212" lon="-0.68476">
        <ele>6</ele>
        <time>2017-06-25T08:05:07.999Z</time>
      </trkpt>
      <trkpt lat="45.84213" lon="-0.68476">
        <ele>6</ele>
        <time>2017-06-25T08:05:08.999Z</time>
      </trkpt>
      <trkpt lat="45.84214" lon="-0.68475">
        <ele>6</ele>
        <time>2017-06-25T08:05:09.999Z</time>
      </trkpt>
      <trkpt lat="45.84216" lon="-0.68475">
        <ele>6</ele>
        <time>2017-06-25T08:05:10.999Z</time>
      </trkpt>
      <trkpt lat="45.84217" lon="-0.68475">
        <ele>6</ele>
        <time>2017-06-25T08:05:11.999Z</time>
      </trkpt>
      <trkpt lat="45.84219" lon="-0.68475">
        <ele>6</ele>
        <time>2017-06-25T08:05:13.999Z</time>
      </trkpt>
      <trkpt lat="45.8422" lon="-0.68476">
        <ele>6</ele>
        <time>2017-06-25T08:05:14.999Z</time>
      </trkpt>
      <trkpt lat="45.84221" lon="-0.68477">
        <ele>6</ele>
        <time>2017-06-25T08:05:15.999Z</time>
      </trkpt>
      <trkpt lat="45.84222" lon="-0.68478">
        <ele>6</ele>
        <time>2017-06-25T08:05:16.999Z</time>
      </trkpt>
      <trkpt lat="45.84223" lon="-0.68479">
        <ele>6</ele>
        <time>2017-06-25T08:05:17.999Z</time>
      </trkpt>
      <trkpt lat="45.84225" lon="-0.6848">
        <ele>6</ele>
        <time>2017-06-25T08:05:18.999Z</time>
      </trkpt>
      <trkpt lat="45.84226" lon="-0.68481">
        <ele>6</ele>
        <time>2017-06-25T08:05:19.999Z</time>
      </trkpt>
      <trkpt lat="45.84227" lon="-0.68483">
        <ele>6</ele>
        <time>2017-06-25T08:05:20.999Z</time>
      </trkpt>
      <trkpt lat="45.84229" lon="-0.68484">
        <ele>6</ele>
        <time>2017-06-25T08:05:21.999Z</time>
      </trkpt>
      <trkpt lat="45.8423" lon="-0.68485">
        <ele>6</ele>
        <time>2017-06-25T08:05:22.999Z</time>
      </trkpt>
      <trkpt lat="45.84232" lon="-0.68487">
        <ele>6</ele>
        <time>2017-06-25T08:05:23.999Z</time>
      </trkpt>
      <trkpt lat="45.84233" lon="-0.68487">
        <ele>6</ele>
        <time>2017-06-25T08:05:24.999Z</time>
      </trkpt>
      <trkpt lat="45.84234" lon="-0.68487">
        <ele>6</ele>
        <time>2017-06-25T08:05:25.999Z</time>
      </trkpt>
      <trkpt lat="45.84235" lon="-0.68488">
        <ele>6</ele>
        <time>2017-06-25T08:05:27.999Z</time>
      </trkpt>
      <trkpt lat="45.84236" lon="-0.68489">
        <ele>6</ele>
        <time>2017-06-25T08:05:28.999Z</time>
      </trkpt>
      <trkpt lat="45.84237" lon="-0.68491">
        <ele>6</ele>
        <time>2017-06-25T08:05:29.999Z</time>
      </trkpt>
      <trkpt lat="45.84238" lon="-0.68492">
        <ele>6</ele>
        <time>2017-06-25T08:05:30.999Z</time>
      </trkpt>
      <trkpt lat="45.84238" lon="-0.68493">
        <ele>6</ele>
        <time>2017-06-25T08:05:31.999Z</time>
      </trkpt>
      <trkpt lat="45.8424" lon="-0.68495">
        <ele>6</ele>
        <time>2017-06-25T08:05:33.999Z</time>
      </trkpt>
      <trkpt lat="45.8424" lon="-0.68496">
        <ele>5</ele>
        <time>2017-06-25T08:05:34.999Z</time>
      </trkpt>
      <trkpt lat="45.84241" lon="-0.68497">
        <ele>5</ele>
        <time>2017-06-25T08:05:35.999Z</time>
      </trkpt>
      <trkpt lat="45.84241" lon="-0.68499">
        <ele>5</ele>
        <time>2017-06-25T08:05:36.999Z</time>
      </trkpt>
      <trkpt lat="45.84242" lon="-0.685">
        <ele>6</ele>
        <time>2017-06-25T08:05:37.999Z</time>
      </trkpt>
      <trkpt lat="45.84243" lon="-0.68502">
        <ele>6</ele>
        <time>2017-06-25T08:05:38.999Z</time>
      </trkpt>
      <trkpt lat="45.84243" lon="-0.68503">
        <ele>6</ele>
        <time>2017-06-25T08:05:39.999Z</time>
      </trkpt>
      <trkpt lat="45.84245" lon="-0.68507">
        <ele>6</ele>
        <time>2017-06-25T08:05:41.999Z</time>
      </trkpt>
      <trkpt lat="45.84246" lon="-0.68508">
        <ele>6</ele>
        <time>2017-06-25T08:05:42.999Z</time>
      </trkpt>
      <trkpt lat="45.84247" lon="-0.68509">
        <ele>7</ele>
        <time>2017-06-25T08:05:43.999Z</time>
      </trkpt>
      <trkpt lat="45.84248" lon="-0.68511">
        <ele>7</ele>
        <time>2017-06-25T08:05:44.999Z</time>
      </trkpt>
      <trkpt lat="45.84249" lon="-0.68512">
        <ele>7</ele>
        <time>2017-06-25T08:05:46.999Z</time>
      </trkpt>
      <trkpt lat="45.84251" lon="-0.68514">
        <ele>5</ele>
        <time>2017-06-25T08:05:48.999Z</time>
      </trkpt>
      <trkpt lat="45.84251" lon="-0.68514">
        <ele>5</ele>
        <time>2017-06-25T08:05:49.999Z</time>
      </trkpt>
      <trkpt lat="45.84253" lon="-0.68515">
        <ele>5</ele>
        <time>2017-06-25T08:05:50.999Z</time>
      </trkpt>
      <trkpt lat="45.84255" lon="-0.68515">
        <ele>5</ele>
        <time>2017-06-25T08:05:51.999Z</time>
      </trkpt>
      <trkpt lat="45.84255" lon="-0.68517">
        <ele>5</ele>
        <time>2017-06-25T08:05:53.999Z</time>
      </trkpt>
      <trkpt lat="45.84256" lon="-0.68518">
        <ele>5</ele>
        <time>2017-06-25T08:05:54.999Z</time>
      </trkpt>
      <trkpt lat="45.84257" lon="-0.68519">
        <ele>5</ele>
        <time>2017-06-25T08:05:55.999Z</time>
      </trkpt>
      <trkpt lat="45.84258" lon="-0.68518">
        <ele>5</ele>
        <time>2017-06-25T08:05:59.999Z</time>
      </trkpt>
      <trkpt lat="45.84258" lon="-0.68517">
        <ele>5</ele>
        <time>2017-06-25T08:06:00.999Z</time>
      </trkpt>
      <trkpt lat="45.84259" lon="-0.68515">
        <ele>5</ele>
        <time>2017-06-25T08:06:01.999Z</time>
      </trkpt>
      <trkpt lat="45.84259" lon="-0.68513">
        <ele>5</ele>
        <time>2017-06-25T08:06:02.999Z</time>
      </trkpt>
      <trkpt lat="45.84261" lon="-0.68511">
        <ele>5</ele>
        <time>2017-06-25T08:06:03.999Z</time>
      </trkpt>
      <trkpt lat="45.84262" lon="-0.6851">
        <ele>5</ele>
        <time>2017-06-25T08:06:04.999Z</time>
      </trkpt>
      <trkpt lat="45.84264" lon="-0.6851">
        <ele>5</ele>
        <time>2017-06-25T08:06:05.999Z</time>
      </trkpt>
      <trkpt lat="45.84265" lon="-0.68509">
        <ele>5</ele>
        <time>2017-06-25T08:06:06.999Z</time>
      </trkpt>
      <trkpt lat="45.84267" lon="-0.68509">
        <ele>5</ele>
        <time>2017-06-25T08:06:07.999Z</time>
      </trkpt>
      <trkpt lat="45.84268" lon="-0.68508">
        <ele>5</ele>
        <time>2017-06-25T08:06:08.999Z</time>
      </trkpt>
      <trkpt lat="45.84269" lon="-0.68505">
        <ele>5</ele>
        <time>2017-06-25T08:06:09.999Z</time>
      </trkpt>
      <trkpt lat="45.8427" lon="-0.68503">
        <ele>5</ele>
        <time>2017-06-25T08:06:10.999Z</time>
      </trkpt>
      <trkpt lat="45.84271" lon="-0.68502">
        <ele>5</ele>
        <time>2017-06-25T08:06:11.999Z</time>
      </trkpt>
      <trkpt lat="45.84272" lon="-0.685">
        <ele>4</ele>
        <time>2017-06-25T08:06:12.999Z</time>
      </trkpt>
      <trkpt lat="45.84272" lon="-0.68499">
        <ele>4</ele>
        <time>2017-06-25T08:06:13.999Z</time>
      </trkpt>
      <trkpt lat="45.84273" lon="-0.68498">
        <ele>3</ele>
        <time>2017-06-25T08:06:14.999Z</time>
      </trkpt>
      <trkpt lat="45.84275" lon="-0.68497">
        <ele>3</ele>
        <time>2017-06-25T08:06:16.999Z</time>
      </trkpt>
      <trkpt lat="45.84276" lon="-0.68494">
        <ele>3</ele>
        <time>2017-06-25T08:06:18.999Z</time>
      </trkpt>
      <trkpt lat="45.84277" lon="-0.68494">
        <ele>3</ele>
        <time>2017-06-25T08:06:19.999Z</time>
      </trkpt>
      <trkpt lat="45.84278" lon="-0.68493">
        <ele>3</ele>
        <time>2017-06-25T08:06:20.999Z</time>
      </trkpt>
      <trkpt lat="45.84279" lon="-0.68493">
        <ele>3</ele>
        <time>2017-06-25T08:06:21.999Z</time>
      </trkpt>
      <trkpt lat="45.8428" lon="-0.68492">
        <ele>3</ele>
        <time>2017-06-25T08:06:22.999Z</time>
      </trkpt>
      <trkpt lat="45.84282" lon="-0.68492">
        <ele>3</ele>
        <time>2017-06-25T08:06:23.999Z</time>
      </trkpt>
      <trkpt lat="45.84283" lon="-0.68491">
        <ele>3</ele>
        <time>2017-06-25T08:06:24.999Z</time>
      </trkpt>
      <trkpt lat="45.84284" lon="-0.6849">
        <ele>3</ele>
        <time>2017-06-25T08:06:25.999Z</time>
      </trkpt>
      <trkpt lat="45.84285" lon="-0.68489">
        <ele>3</ele>
        <time>2017-06-25T08:06:26.999Z</time>
      </trkpt>
      <trkpt lat="45.84286" lon="-0.68487">
        <ele>3</ele>
        <time>2017-06-25T08:06:28.999Z</time>
      </trkpt>
      <trkpt lat="45.84287" lon="-0.68486">
        <ele>3</ele>
        <time>2017-06-25T08:06:29.999Z</time>
      </trkpt>
      <trkpt lat="45.84288" lon="-0.68485">
        <ele>3</ele>
        <time>2017-06-25T08:06:30.999Z</time>
      </trkpt>
      <trkpt lat="45.84289" lon="-0.68484">
        <ele>3</ele>
        <time>2017-06-25T08:06:31.999Z</time>
      </trkpt>
      <trkpt lat="45.8429" lon="-0.68484">
        <ele>3</ele>
        <time>2017-06-25T08:06:32.999Z</time>
      </trkpt>
      <trkpt lat="45.84291" lon="-0.68483">
        <ele>3</ele>
        <time>2017-06-25T08:06:33.999Z</time>
      </trkpt>
      <trkpt lat="45.84292" lon="-0.68483">
        <ele>3</ele>
        <time>2017-06-25T08:06:34.999Z</time>
      </trkpt>
      <trkpt lat="45.84293" lon="-0.68483">
        <ele>3</ele>
        <time>2017-06-25T08:06:35.999Z</time>
      </trkpt>
      <trkpt lat="45.84295" lon="-0.68484">
        <ele>3</ele>
        <time>2017-06-25T08:06:36.999Z</time>
      </trkpt>
      <trkpt lat="45.84295" lon="-0.68483">
        <ele>3</ele>
        <time>2017-06-25T08:06:37.999Z</time>
      </trkpt>
      <trkpt lat="45.84296" lon="-0.68482">
        <ele>3</ele>
        <time>2017-06-25T08:06:38.999Z</time>
      </trkpt>
      <trkpt lat="45.84297" lon="-0.68481">
        <ele>3</ele>
        <time>2017-06-25T08:06:39.999Z</time>
      </trkpt>
      <trkpt lat="45.84298" lon="-0.68481">
        <ele>3</ele>
        <time>2017-06-25T08:06:40.999Z</time>
      </trkpt>
      <trkpt lat="45.84299" lon="-0.68479">
        <ele>3</ele>
        <time>2017-06-25T08:06:41.999Z</time>
      </trkpt>
      <trkpt lat="45.843" lon="-0.68479">
        <ele>3</ele>
        <time>2017-06-25T08:06:42.999Z</time>
      </trkpt>
      <trkpt lat="45.84301" lon="-0.68477">
        <ele>3</ele>
        <time>2017-06-25T08:06:43.999Z</time>
      </trkpt>
      <trkpt lat="45.84301" lon="-0.68476">
        <ele>3</ele>
        <time>2017-06-25T08:06:44.999Z</time>
      </trkpt>
      <trkpt lat="45.84302" lon="-0.68474">
        <ele>3</ele>
        <time>2017-06-25T08:06:45.999Z</time>
      </trkpt>
      <trkpt lat="45.84303" lon="-0.68472">
        <ele>2</ele>
        <time>2017-06-25T08:06:46.999Z</time>
      </trkpt>
      <trkpt lat="45.84303" lon="-0.68471">
        <ele>2</ele>
        <time>2017-06-25T08:06:47.999Z</time>
      </trkpt>
      <trkpt lat="45.84304" lon="-0.68469">
        <ele>2</ele>
        <time>2017-06-25T08:06:48.999Z</time>
      </trkpt>
      <trkpt lat="45.84305" lon="-0.68467">
        <ele>2</ele>
        <time>2017-06-25T08:06:49.999Z</time>
      </trkpt>
      <trkpt lat="45.84306" lon="-0.68465">
        <ele>2</ele>
        <time>2017-06-25T08:06:50.999Z</time>
      </trkpt>
      <trkpt lat="45.84306" lon="-0.68463">
        <ele>2</ele>
        <time>2017-06-25T08:06:51.999Z</time>
      </trkpt>
      <trkpt lat="45.84307" lon="-0.68461">
        <ele>2</ele>
        <time>2017-06-25T08:06:52.999Z</time>
      </trkpt>
      <trkpt lat="45.84307" lon="-0.68458">
        <ele>2</ele>
        <time>2017-06-25T08:06:53.999Z</time>
      </trkpt>
      <trkpt lat="45.84307" lon="-0.68457">
        <ele>2</ele>
        <time>2017-06-25T08:06:54.999Z</time>
      </trkpt>
      <trkpt lat="45.84307" lon="-0.68455">
        <ele>2</ele>
        <time>2017-06-25T08:06:55.999Z</time>
      </trkpt>
      <trkpt lat="45.84306" lon="-0.68454">
        <ele>2</ele>
        <time>2017-06-25T08:06:56.999Z</time>
      </trkpt>
      <trkpt lat="45.84305" lon="-0.68452">
        <ele>2</ele>
        <time>2017-06-25T08:06:57.999Z</time>
      </trkpt>
      <trkpt lat="45.84304" lon="-0.68451">
        <ele>2</ele>
        <time>2017-06-25T08:06:58.999Z</time>
      </trkpt>
      <trkpt lat="45.84303" lon="-0.68449">
        <ele>2</ele>
        <time>2017-06-25T08:06:59.999Z</time>
      </trkpt>
      <trkpt lat="45.84302" lon="-0.68448">
        <ele>2</ele>
        <time>2017-06-25T08:07:00.999Z</time>
      </trkpt>
      <trkpt lat="45.84301" lon="-0.68447">
        <ele>2</ele>
        <time>2017-06-25T08:07:01.999Z</time>
      </trkpt>
      <trkpt lat="45.843" lon="-0.68444">
        <ele>2</ele>
        <time>2017-06-25T08:07:02.999Z</time>
      </trkpt>
      <trkpt lat="45.843" lon="-0.68443">
        <ele>2</ele>
        <time>2017-06-25T08:07:03.999Z</time>
      </trkpt>
      <trkpt lat="45.84299" lon="-0.68441">
        <ele>2</ele>
        <time>2017-06-25T08:07:04.999Z</time>
      </trkpt>
      <trkpt lat="45.84298" lon="-0.68438">
        <ele>2</ele>
        <time>2017-06-25T08:07:05.999Z</time>
      </trkpt>
      <trkpt lat="45.84297" lon="-0.68437">
        <ele>2</ele>
        <time>2017-06-25T08:07:06.999Z</time>
      </trkpt>
      <trkpt lat="45.84297" lon="-0.68435">
        <ele>2</ele>
        <time>2017-06-25T08:07:08.999Z</time>
      </trkpt>
      <trkpt lat="45.84297" lon="-0.68433">
        <ele>2</ele>
        <time>2017-06-25T08:07:09.999Z</time>
      </trkpt>
      <trkpt lat="45.84298" lon="-0.68431">
        <ele>2</ele>
        <time>2017-06-25T08:07:11.999Z</time>
      </trkpt>
      <trkpt lat="45.84298" lon="-0.6843">
        <ele>2</ele>
        <time>2017-06-25T08:07:12.999Z</time>
      </trkpt>
      <trkpt lat="45.84299" lon="-0.68428">
        <ele>2</ele>
        <time>2017-06-25T08:07:13.999Z</time>
      </trkpt>
      <trkpt lat="45.84299" lon="-0.68427">
        <ele>2</ele>
        <time>2017-06-25T08:07:14.999Z</time>
      </trkpt>
      <trkpt lat="45.843" lon="-0.68425">
        <ele>2</ele>
        <time>2017-06-25T08:07:15.999Z</time>
      </trkpt>
      <trkpt lat="45.84299" lon="-0.68424">
        <ele>2</ele>
        <time>2017-06-25T08:07:16.999Z</time>
      </trkpt>
      <trkpt lat="45.84299" lon="-0.68423">
        <ele>2</ele>
        <time>2017-06-25T08:07:17.999Z</time>
      </trkpt>
      <trkpt lat="45.84299" lon="-0.68421">
        <ele>2</ele>
        <time>2017-06-25T08:07:18.999Z</time>
      </trkpt>
      <trkpt lat="45.84298" lon="-0.68419">
        <ele>2</ele>
        <time>2017-06-25T08:07:19.999Z</time>
      </trkpt>
      <trkpt lat="45.84298" lon="-0.68417">
        <ele>2</ele>
        <time>2017-06-25T08:07:20.999Z</time>
      </trkpt>
      <trkpt lat="45.84298" lon="-0.68416">
        <ele>1</ele>
        <time>2017-06-25T08:07:21.999Z</time>
      </trkpt>
      <trkpt lat="45.84297" lon="-0.68414">
        <ele>1</ele>
        <time>2017-06-25T08:07:22.999Z</time>
      </trkpt>
      <trkpt lat="45.84296" lon="-0.68412">
        <ele>1</ele>
        <time>2017-06-25T08:07:23.999Z</time>
      </trkpt>
      <trkpt lat="45.84296" lon="-0.68409">
        <ele>1</ele>
        <time>2017-06-25T08:07:24.999Z</time>
      </trkpt>
      <trkpt lat="45.84296" lon="-0.68407">
        <ele>1</ele>
        <time>2017-06-25T08:07:25.999Z</time>
      </trkpt>
      <trkpt lat="45.84296" lon="-0.68406">
        <ele>1</ele>
        <time>2017-06-25T08:07:26.999Z</time>
      </trkpt>
      <trkpt lat="45.84296" lon="-0.68404">
        <ele>1</ele>
        <time>2017-06-25T08:07:27.999Z</time>
      </trkpt>
      <trkpt lat="45.84296" lon="-0.68402">
        <ele>1</ele>
        <time>2017-06-25T08:07:28.999Z</time>
      </trkpt>
      <trkpt lat="45.84296" lon="-0.684">
        <ele>1</ele>
        <time>2017-06-25T08:07:29.999Z</time>
      </trkpt>
      <trkpt lat="45.84297" lon="-0.68398">
        <ele>1</ele>
        <time>2017-06-25T08:07:30.999Z</time>
      </trkpt>
      <trkpt lat="45.84297" lon="-0.68396">
        <ele>1</ele>
        <time>2017-06-25T08:07:31.999Z</time>
      </trkpt>
      <trkpt lat="45.84296" lon="-0.68395">
        <ele>1</ele>
        <time>2017-06-25T08:07:32.999Z</time>
      </trkpt>
      <trkpt lat="45.84296" lon="-0.68393">
        <ele>1</ele>
        <time>2017-06-25T08:07:33.999Z</time>
      </trkpt>
      <trkpt lat="45.84296" lon="-0.68391">
        <ele>1</ele>
        <time>2017-06-25T08:07:35.999Z</time>
      </trkpt>
      <trkpt lat="45.84296" lon="-0.68389">
        <ele>1</ele>
        <time>2017-06-25T08:07:36.999Z</time>
      </trkpt>
      <trkpt lat="45.84296" lon="-0.68387">
        <ele>1</ele>
        <time>2017-06-25T08:07:37.999Z</time>
      </trkpt>
      <trkpt lat="45.84297" lon="-0.68385">
        <ele>1</ele>
        <time>2017-06-25T08:07:38.999Z</time>
      </trkpt>
      <trkpt lat="45.84298" lon="-0.68384">
        <ele>1</ele>
        <time>2017-06-25T08:07:39.999Z</time>
      </trkpt>
      <trkpt lat="45.84298" lon="-0.68382">
        <ele>1</ele>
        <time>2017-06-25T08:07:40.999Z</time>
      </trkpt>
      <trkpt lat="45.84298" lon="-0.6838">
        <ele>1</ele>
        <time>2017-06-25T08:07:41.999Z</time>
      </trkpt>
      <trkpt lat="45.84297" lon="-0.68378">
        <ele>1</ele>
        <time>2017-06-25T08:07:42.999Z</time>
      </trkpt>
      <trkpt lat="45.84297" lon="-0.68376">
        <ele>1</ele>
        <time>2017-06-25T08:07:43.999Z</time>
      </trkpt>
      <trkpt lat="45.84297" lon="-0.68373">
        <ele>1</ele>
        <time>2017-06-25T08:07:45.999Z</time>
      </trkpt>
      <trkpt lat="45.84297" lon="-0.68372">
        <ele>1</ele>
        <time>2017-06-25T08:07:46.999Z</time>
      </trkpt>
      <trkpt lat="45.84297" lon="-0.6837">
        <ele>1</ele>
        <time>2017-06-25T08:07:47.999Z</time>
      </trkpt>
      <trkpt lat="45.84296" lon="-0.68368">
        <ele>1</ele>
        <time>2017-06-25T08:07:49.999Z</time>
      </trkpt>
      <trkpt lat="45.84295" lon="-0.68366">
        <ele>1</ele>
        <time>2017-06-25T08:07:50.999Z</time>
      </trkpt>
      <trkpt lat="45.84294" lon="-0.68365">
        <ele>1</ele>
        <time>2017-06-25T08:07:51.999Z</time>
      </trkpt>
      <trkpt lat="45.84293" lon="-0.68364">
        <ele>1</ele>
        <time>2017-06-25T08:07:52.999Z</time>
      </trkpt>
      <trkpt lat="45.84292" lon="-0.68363">
        <ele>1</ele>
        <time>2017-06-25T08:07:53.999Z</time>
      </trkpt>
      <trkpt lat="45.84291" lon="-0.68362">
        <ele>2</ele>
        <time>2017-06-25T08:07:54.999Z</time>
      </trkpt>
      <trkpt lat="45.8429" lon="-0.6836">
        <ele>2</ele>
        <time>2017-06-25T08:07:55.999Z</time>
      </trkpt>
      <trkpt lat="45.84289" lon="-0.68359">
        <ele>2</ele>
        <time>2017-06-25T08:07:56.999Z</time>
      </trkpt>
      <trkpt lat="45.84288" lon="-0.68358">
        <ele>2</ele>
        <time>2017-06-25T08:07:57.999Z</time>
      </trkpt>
      <trkpt lat="45.84287" lon="-0.68357">
        <ele>2</ele>
        <time>2017-06-25T08:07:58.999Z</time>
      </trkpt>
      <trkpt lat="45.84286" lon="-0.68356">
        <ele>2</ele>
        <time>2017-06-25T08:07:59.999Z</time>
      </trkpt>
      <trkpt lat="45.84285" lon="-0.68355">
        <ele>2</ele>
        <time>2017-06-25T08:08:01.999Z</time>
      </trkpt>
      <trkpt lat="45.84284" lon="-0.68354">
        <ele>2</ele>
        <time>2017-06-25T08:08:02.999Z</time>
      </trkpt>
      <trkpt lat="45.84283" lon="-0.68353">
        <ele>2</ele>
        <time>2017-06-25T08:08:03.999Z</time>
      </trkpt>
      <trkpt lat="45.84282" lon="-0.68353">
        <ele>2</ele>
        <time>2017-06-25T08:08:04.999Z</time>
      </trkpt>
      <trkpt lat="45.8428" lon="-0.68352">
        <ele>2</ele>
        <time>2017-06-25T08:08:05.999Z</time>
      </trkpt>
      <trkpt lat="45.84279" lon="-0.68351">
        <ele>2</ele>
        <time>2017-06-25T08:08:06.999Z</time>
      </trkpt>
      <trkpt lat="45.84278" lon="-0.6835">
        <ele>2</ele>
        <time>2017-06-25T08:08:07.999Z</time>
      </trkpt>
      <trkpt lat="45.84276" lon="-0.68349">
        <ele>2</ele>
        <time>2017-06-25T08:08:09.999Z</time>
      </trkpt>
      <trkpt lat="45.84275" lon="-0.68349">
        <ele>2</ele>
        <time>2017-06-25T08:08:11.999Z</time>
      </trkpt>
      <trkpt lat="45.84274" lon="-0.68348">
        <ele>2</ele>
        <time>2017-06-25T08:08:13.999Z</time>
      </trkpt>
      <trkpt lat="45.84272" lon="-0.68347">
        <ele>2</ele>
        <time>2017-06-25T08:08:15.999Z</time>
      </trkpt>
      <trkpt lat="45.84271" lon="-0.68346">
        <ele>2</ele>
        <time>2017-06-25T08:08:17.999Z</time>
      </trkpt>
      <trkpt lat="45.84271" lon="-0.68345">
        <ele>2</ele>
        <time>2017-06-25T08:08:18.999Z</time>
      </trkpt>
      <trkpt lat="45.84269" lon="-0.68346">
        <ele>2</ele>
        <time>2017-06-25T08:08:21.999Z</time>
      </trkpt>
      <trkpt lat="45.84268" lon="-0.68345">
        <ele>2</ele>
        <time>2017-06-25T08:08:23.999Z</time>
      </trkpt>
      <trkpt lat="45.84267" lon="-0.68343">
        <ele>2</ele>
        <time>2017-06-25T08:08:24.999Z</time>
      </trkpt>
      <trkpt lat="45.84265" lon="-0.68342">
        <ele>2</ele>
        <time>2017-06-25T08:08:25.999Z</time>
      </trkpt>
      <trkpt lat="45.84264" lon="-0.6834">
        <ele>2</ele>
        <time>2017-06-25T08:08:27.999Z</time>
      </trkpt>
      <trkpt lat="45.84263" lon="-0.68338">
        <ele>2</ele>
        <time>2017-06-25T08:08:28.999Z</time>
      </trkpt>
      <trkpt lat="45.84262" lon="-0.68338">
        <ele>2</ele>
        <time>2017-06-25T08:08:29.999Z</time>
      </trkpt>
      <trkpt lat="45.84261" lon="-0.68338">
        <ele>2</ele>
        <time>2017-06-25T08:08:30.999Z</time>
      </trkpt>
      <trkpt lat="45.8426" lon="-0.68337">
        <ele>2</ele>
        <time>2017-06-25T08:08:31.999Z</time>
      </trkpt>
      <trkpt lat="45.84259" lon="-0.68337">
        <ele>2</ele>
        <time>2017-06-25T08:08:32.999Z</time>
      </trkpt>
      <trkpt lat="45.84258" lon="-0.68336">
        <ele>2</ele>
        <time>2017-06-25T08:08:33.999Z</time>
      </trkpt>
      <trkpt lat="45.84256" lon="-0.68335">
        <ele>2</ele>
        <time>2017-06-25T08:08:35.999Z</time>
      </trkpt>
      <trkpt lat="45.84255" lon="-0.68334">
        <ele>2</ele>
        <time>2017-06-25T08:08:36.999Z</time>
      </trkpt>
      <trkpt lat="45.84254" lon="-0.68334">
        <ele>2</ele>
        <time>2017-06-25T08:08:37.999Z</time>
      </trkpt>
      <trkpt lat="45.84252" lon="-0.68333">
        <ele>2</ele>
        <time>2017-06-25T08:08:38.999Z</time>
      </trkpt>
      <trkpt lat="45.84251" lon="-0.68332">
        <ele>2</ele>
        <time>2017-06-25T08:08:39.999Z</time>
      </trkpt>
      <trkpt lat="45.8425" lon="-0.68332">
        <ele>2</ele>
        <time>2017-06-25T08:08:40.999Z</time>
      </trkpt>
      <trkpt lat="45.84249" lon="-0.68331">
        <ele>2</ele>
        <time>2017-06-25T08:08:41.999Z</time>
      </trkpt>
      <trkpt lat="45.84248" lon="-0.6833">
        <ele>2</ele>
        <time>2017-06-25T08:08:43.999Z</time>
      </trkpt>
      <trkpt lat="45.84247" lon="-0.6833">
        <ele>2</ele>
        <time>2017-06-25T08:08:44.999Z</time>
      </trkpt>
      <trkpt lat="45.84244" lon="-0.68328">
        <ele>2</ele>
        <time>2017-06-25T08:08:47.999Z</time>
      </trkpt>
      <trkpt lat="45.84243" lon="-0.68329">
        <ele>2</ele>
        <time>2017-06-25T08:08:48.999Z</time>
      </trkpt>
      <trkpt lat="45.84241" lon="-0.68328">
        <ele>2</ele>
        <time>2017-06-25T08:08:49.999Z</time>
      </trkpt>
      <trkpt lat="45.8424" lon="-0.68327">
        <ele>2</ele>
        <time>2017-06-25T08:08:50.999Z</time>
      </trkpt>
      <trkpt lat="45.84238" lon="-0.68326">
        <ele>2</ele>
        <time>2017-06-25T08:08:51.999Z</time>
      </trkpt>
      <trkpt lat="45.84236" lon="-0.68325">
        <ele>2</ele>
        <time>2017-06-25T08:08:52.999Z</time>
      </trkpt>
      <trkpt lat="45.84235" lon="-0.68324">
        <ele>2</ele>
        <time>2017-06-25T08:08:53.999Z</time>
      </trkpt>
      <trkpt lat="45.84233" lon="-0.68323">
        <ele>2</ele>
        <time>2017-06-25T08:08:54.999Z</time>
      </trkpt>
      <trkpt lat="45.84231" lon="-0.68321">
        <ele>2</ele>
        <time>2017-06-25T08:08:55.999Z</time>
      </trkpt>
      <trkpt lat="45.8423" lon="-0.6832">
        <ele>3</ele>
        <time>2017-06-25T08:08:56.999Z</time>
      </trkpt>
      <trkpt lat="45.84228" lon="-0.6832">
        <ele>3</ele>
        <time>2017-06-25T08:08:57.999Z</time>
      </trkpt>
      <trkpt lat="45.84226" lon="-0.68319">
        <ele>3</ele>
        <time>2017-06-25T08:08:59.999Z</time>
      </trkpt>
      <trkpt lat="45.84226" lon="-0.68317">
        <ele>3</ele>
        <time>2017-06-25T08:09:00.999Z</time>
      </trkpt>
      <trkpt lat="45.84224" lon="-0.68316">
        <ele>3</ele>
        <time>2017-06-25T08:09:01.999Z</time>
      </trkpt>
      <trkpt lat="45.84222" lon="-0.68316">
        <ele>3</ele>
        <time>2017-06-25T08:09:02.999Z</time>
      </trkpt>
      <trkpt lat="45.84221" lon="-0.68315">
        <ele>3</ele>
        <time>2017-06-25T08:09:03.999Z</time>
      </trkpt>
      <trkpt lat="45.8422" lon="-0.68314">
        <ele>3</ele>
        <time>2017-06-25T08:09:04.999Z</time>
      </trkpt>
      <trkpt lat="45.84219" lon="-0.68313">
        <ele>3</ele>
        <time>2017-06-25T08:09:06.999Z</time>
      </trkpt>
      <trkpt lat="45.84218" lon="-0.68312">
        <ele>3</ele>
        <time>2017-06-25T08:09:07.999Z</time>
      </trkpt>
      <trkpt lat="45.84217" lon="-0.68311">
        <ele>3</ele>
        <time>2017-06-25T08:09:08.999Z</time>
      </trkpt>
      <trkpt lat="45.84216" lon="-0.68309">
        <ele>3</ele>
        <time>2017-06-25T08:09:09.999Z</time>
      </trkpt>
      <trkpt lat="45.84215" lon="-0.68308">
        <ele>3</ele>
        <time>2017-06-25T08:09:10.999Z</time>
      </trkpt>
      <trkpt lat="45.84214" lon="-0.68307">
        <ele>3</ele>
        <time>2017-06-25T08:09:11.999Z</time>
      </trkpt>
      <trkpt lat="45.84213" lon="-0.68306">
        <ele>3</ele>
        <time>2017-06-25T08:09:12.999Z</time>
      </trkpt>
      <trkpt lat="45.84212" lon="-0.68306">
        <ele>3</ele>
        <time>2017-06-25T08:09:13.999Z</time>
      </trkpt>
      <trkpt lat="45.84211" lon="-0.68305">
        <ele>3</ele>
        <time>2017-06-25T08:09:15.999Z</time>
      </trkpt>
      <trkpt lat="45.8421" lon="-0.68304">
        <ele>3</ele>
        <time>2017-06-25T08:09:17.999Z</time>
      </trkpt>
      <trkpt lat="45.84209" lon="-0.68303">
        <ele>3</ele>
        <time>2017-06-25T08:09:20.999Z</time>
      </trkpt>
      <trkpt lat="45.84208" lon="-0.68303">
        <ele>3</ele>
        <time>2017-06-25T08:09:21.999Z</time>
      </trkpt>
      <trkpt lat="45.84207" lon="-0.68302">
        <ele>3</ele>
        <time>2017-06-25T08:09:22.999Z</time>
      </trkpt>
      <trkpt lat="45.84205" lon="-0.68301">
        <ele>3</ele>
        <time>2017-06-25T08:09:24.999Z</time>
      </trkpt>
      <trkpt lat="45.84205" lon="-0.68301">
        <ele>3</ele>
        <time>2017-06-25T08:09:25.999Z</time>
      </trkpt>
      <trkpt lat="45.84203" lon="-0.683">
        <ele>3</ele>
        <time>2017-06-25T08:09:27.999Z</time>
      </trkpt>
      <trkpt lat="45.84202" lon="-0.683">
        <ele>3</ele>
        <time>2017-06-25T08:09:28.999Z</time>
      </trkpt>
      <trkpt lat="45.842" lon="-0.683">
        <ele>3</ele>
        <time>2017-06-25T08:09:29.999Z</time>
      </trkpt>
      <trkpt lat="45.84199" lon="-0.68299">
        <ele>3</ele>
        <time>2017-06-25T08:09:30.999Z</time>
      </trkpt>
      <trkpt lat="45.84197" lon="-0.68299">
        <ele>3</ele>
        <time>2017-06-25T08:09:31.999Z</time>
      </trkpt>
      <trkpt lat="45.84196" lon="-0.68299">
        <ele>3</ele>
        <time>2017-06-25T08:09:32.999Z</time>
      </trkpt>
      <trkpt lat="45.84195" lon="-0.68299">
        <ele>3</ele>
        <time>2017-06-25T08:09:33.999Z</time>
      </trkpt>
      <trkpt lat="45.84193" lon="-0.683">
        <ele>3</ele>
        <time>2017-06-25T08:09:34.999Z</time>
      </trkpt>
      <trkpt lat="45.84192" lon="-0.683">
        <ele>3</ele>
        <time>2017-06-25T08:09:35.999Z</time>
      </trkpt>
      <trkpt lat="45.8419" lon="-0.68299">
        <ele>3</ele>
        <time>2017-06-25T08:09:36.999Z</time>
      </trkpt>
      <trkpt lat="45.84189" lon="-0.68298">
        <ele>3</ele>
        <time>2017-06-25T08:09:37.999Z</time>
      </trkpt>
      <trkpt lat="45.84186" lon="-0.68298">
        <ele>3</ele>
        <time>2017-06-25T08:09:38.999Z</time>
      </trkpt>
      <trkpt lat="45.84184" lon="-0.68297">
        <ele>3</ele>
        <time>2017-06-25T08:09:39.999Z</time>
      </trkpt>
      <trkpt lat="45.84183" lon="-0.68297">
        <ele>3</ele>
        <time>2017-06-25T08:09:40.999Z</time>
      </trkpt>
      <trkpt lat="45.84181" lon="-0.68296">
        <ele>3</ele>
        <time>2017-06-25T08:09:41.999Z</time>
      </trkpt>
      <trkpt lat="45.84179" lon="-0.68296">
        <ele>3</ele>
        <time>2017-06-25T08:09:42.999Z</time>
      </trkpt>
      <trkpt lat="45.84178" lon="-0.68295">
        <ele>3</ele>
        <time>2017-06-25T08:09:43.999Z</time>
      </trkpt>
      <trkpt lat="45.84177" lon="-0.68294">
        <ele>3</ele>
        <time>2017-06-25T08:09:44.999Z</time>
      </trkpt>
      <trkpt lat="45.84176" lon="-0.68292">
        <ele>3</ele>
        <time>2017-06-25T08:09:45.999Z</time>
      </trkpt>
      <trkpt lat="45.84175" lon="-0.68291">
        <ele>3</ele>
        <time>2017-06-25T08:09:46.999Z</time>
      </trkpt>
      <trkpt lat="45.84174" lon="-0.68291">
        <ele>3</ele>
        <time>2017-06-25T08:09:47.999Z</time>
      </trkpt>
      <trkpt lat="45.84172" lon="-0.68291">
        <ele>3</ele>
        <time>2017-06-25T08:09:48.999Z</time>
      </trkpt>
      <trkpt lat="45.84171" lon="-0.6829">
        <ele>3</ele>
        <time>2017-06-25T08:09:49.999Z</time>
      </trkpt>
      <trkpt lat="45.8417" lon="-0.6829">
        <ele>3</ele>
        <time>2017-06-25T08:09:50.999Z</time>
      </trkpt>
      <trkpt lat="45.84168" lon="-0.68288">
        <ele>3</ele>
        <time>2017-06-25T08:09:52.999Z</time>
      </trkpt>
      <trkpt lat="45.84166" lon="-0.68287">
        <ele>4</ele>
        <time>2017-06-25T08:09:54.999Z</time>
      </trkpt>
      <trkpt lat="45.84164" lon="-0.68287">
        <ele>4</ele>
        <time>2017-06-25T08:09:55.999Z</time>
      </trkpt>
      <trkpt lat="45.84163" lon="-0.68287">
        <ele>4</ele>
        <time>2017-06-25T08:09:56.999Z</time>
      </trkpt>
      <trkpt lat="45.84162" lon="-0.68286">
        <ele>4</ele>
        <time>2017-06-25T08:09:57.999Z</time>
      </trkpt>
      <trkpt lat="45.8416" lon="-0.68285">
        <ele>4</ele>
        <time>2017-06-25T08:09:58.999Z</time>
      </trkpt>
      <trkpt lat="45.84159" lon="-0.68284">
        <ele>4</ele>
        <time>2017-06-25T08:09:59.999Z</time>
      </trkpt>
      <trkpt lat="45.84157" lon="-0.68283">
        <ele>4</ele>
        <time>2017-06-25T08:10:00.999Z</time>
      </trkpt>
      <trkpt lat="45.84156" lon="-0.68283">
        <ele>4</ele>
        <time>2017-06-25T08:10:01.999Z</time>
      </trkpt>
      <trkpt lat="45.84155" lon="-0.68282">
        <ele>4</ele>
        <time>2017-06-25T08:10:02.999Z</time>
      </trkpt>
      <trkpt lat="45.84153" lon="-0.68281">
        <ele>4</ele>
        <time>2017-06-25T08:10:03.999Z</time>
      </trkpt>
      <trkpt lat="45.84152" lon="-0.68281">
        <ele>4</ele>
        <time>2017-06-25T08:10:04.999Z</time>
      </trkpt>
      <trkpt lat="45.8415" lon="-0.6828">
        <ele>4</ele>
        <time>2017-06-25T08:10:05.999Z</time>
      </trkpt>
      <trkpt lat="45.84149" lon="-0.6828">
        <ele>4</ele>
        <time>2017-06-25T08:10:06.999Z</time>
      </trkpt>
      <trkpt lat="45.84148" lon="-0.6828">
        <ele>4</ele>
        <time>2017-06-25T08:10:07.999Z</time>
      </trkpt>
      <trkpt lat="45.84146" lon="-0.68279">
        <ele>4</ele>
        <time>2017-06-25T08:10:08.999Z</time>
      </trkpt>
      <trkpt lat="45.84145" lon="-0.68279">
        <ele>4</ele>
        <time>2017-06-25T08:10:09.999Z</time>
      </trkpt>
      <trkpt lat="45.84143" lon="-0.68278">
        <ele>4</ele>
        <time>2017-06-25T08:10:10.999Z</time>
      </trkpt>
      <trkpt lat="45.84141" lon="-0.68277">
        <ele>4</ele>
        <time>2017-06-25T08:10:12.999Z</time>
      </trkpt>
      <trkpt lat="45.8414" lon="-0.68276">
        <ele>4</ele>
        <time>2017-06-25T08:10:13.999Z</time>
      </trkpt>
      <trkpt lat="45.84139" lon="-0.68276">
        <ele>4</ele>
        <time>2017-06-25T08:10:14.999Z</time>
      </trkpt>
      <trkpt lat="45.84137" lon="-0.68275">
        <ele>4</ele>
        <time>2017-06-25T08:10:15.999Z</time>
      </trkpt>
      <trkpt lat="45.84135" lon="-0.68274">
        <ele>4</ele>
        <time>2017-06-25T08:10:16.999Z</time>
      </trkpt>
      <trkpt lat="45.84134" lon="-0.68273">
        <ele>4</ele>
        <time>2017-06-25T08:10:17.999Z</time>
      </trkpt>
      <trkpt lat="45.84133" lon="-0.68272">
        <ele>4</ele>
        <time>2017-06-25T08:10:18.999Z</time>
      </trkpt>
      <trkpt lat="45.84132" lon="-0.68271">
        <ele>4</ele>
        <time>2017-06-25T08:10:19.999Z</time>
      </trkpt>
      <trkpt lat="45.84131" lon="-0.68269">
        <ele>4</ele>
        <time>2017-06-25T08:10:21.999Z</time>
      </trkpt>
      <trkpt lat="45.8413" lon="-0.68269">
        <ele>4</ele>
        <time>2017-06-25T08:10:22.999Z</time>
      </trkpt>
      <trkpt lat="45.84128" lon="-0.68269">
        <ele>4</ele>
        <time>2017-06-25T08:10:23.999Z</time>
      </trkpt>
      <trkpt lat="45.84127" lon="-0.68269">
        <ele>4</ele>
        <time>2017-06-25T08:10:24.999Z</time>
      </trkpt>
      <trkpt lat="45.84126" lon="-0.68269">
        <ele>4</ele>
        <time>2017-06-25T08:10:25.999Z</time>
      </trkpt>
      <trkpt lat="45.84124" lon="-0.68267">
        <ele>4</ele>
        <time>2017-06-25T08:10:26.999Z</time>
      </trkpt>
      <trkpt lat="45.84123" lon="-0.68266">
        <ele>4</ele>
        <time>2017-06-25T08:10:27.999Z</time>
      </trkpt>
      <trkpt lat="45.84121" lon="-0.68265">
        <ele>4</ele>
        <time>2017-06-25T08:10:28.999Z</time>
      </trkpt>
      <trkpt lat="45.8412" lon="-0.68264">
        <ele>4</ele>
        <time>2017-06-25T08:10:29.999Z</time>
      </trkpt>
      <trkpt lat="45.84119" lon="-0.68264">
        <ele>4</ele>
        <time>2017-06-25T08:10:30.999Z</time>
      </trkpt>
      <trkpt lat="45.84118" lon="-0.68263">
        <ele>4</ele>
        <time>2017-06-25T08:10:31.999Z</time>
      </trkpt>
      <trkpt lat="45.84116" lon="-0.68261">
        <ele>4</ele>
        <time>2017-06-25T08:10:32.999Z</time>
      </trkpt>
      <trkpt lat="45.84115" lon="-0.6826">
        <ele>4</ele>
        <time>2017-06-25T08:10:33.999Z</time>
      </trkpt>
      <trkpt lat="45.84113" lon="-0.68259">
        <ele>4</ele>
        <time>2017-06-25T08:10:35.999Z</time>
      </trkpt>
      <trkpt lat="45.84113" lon="-0.68258">
        <ele>4</ele>
        <time>2017-06-25T08:10:36.999Z</time>
      </trkpt>
      <trkpt lat="45.84111" lon="-0.68256">
        <ele>4</ele>
        <time>2017-06-25T08:10:38.999Z</time>
      </trkpt>
      <trkpt lat="45.84111" lon="-0.68256">
        <ele>4</ele>
        <time>2017-06-25T08:10:39.999Z</time>
      </trkpt>
      <trkpt lat="45.8411" lon="-0.68255">
        <ele>4</ele>
        <time>2017-06-25T08:10:40.999Z</time>
      </trkpt>
      <trkpt lat="45.84108" lon="-0.68253">
        <ele>4</ele>
        <time>2017-06-25T08:10:42.999Z</time>
      </trkpt>
      <trkpt lat="45.84108" lon="-0.68252">
        <ele>4</ele>
        <time>2017-06-25T08:10:43.999Z</time>
      </trkpt>
      <trkpt lat="45.84107" lon="-0.6825">
        <ele>4</ele>
        <time>2017-06-25T08:10:44.999Z</time>
      </trkpt>
      <trkpt lat="45.84106" lon="-0.68249">
        <ele>3</ele>
        <time>2017-06-25T08:10:45.999Z</time>
      </trkpt>
      <trkpt lat="45.84105" lon="-0.68248">
        <ele>3</ele>
        <time>2017-06-25T08:10:46.999Z</time>
      </trkpt>
      <trkpt lat="45.84104" lon="-0.68247">
        <ele>3</ele>
        <time>2017-06-25T08:10:47.999Z</time>
      </trkpt>
      <trkpt lat="45.84102" lon="-0.68247">
        <ele>3</ele>
        <time>2017-06-25T08:10:48.999Z</time>
      </trkpt>
      <trkpt lat="45.84101" lon="-0.68247">
        <ele>3</ele>
        <time>2017-06-25T08:10:49.999Z</time>
      </trkpt>
      <trkpt lat="45.841" lon="-0.68247">
        <ele>4</ele>
        <time>2017-06-25T08:10:50.999Z</time>
      </trkpt>
      <trkpt lat="45.84098" lon="-0.68247">
        <ele>4</ele>
        <time>2017-06-25T08:10:51.999Z</time>
      </trkpt>
      <trkpt lat="45.84097" lon="-0.68248">
        <ele>4</ele>
        <time>2017-06-25T08:10:52.999Z</time>
      </trkpt>
      <trkpt lat="45.84096" lon="-0.68247">
        <ele>4</ele>
        <time>2017-06-25T08:10:53.999Z</time>
      </trkpt>
      <trkpt lat="45.84095" lon="-0.68248">
        <ele>4</ele>
        <time>2017-06-25T08:10:58.999Z</time>
      </trkpt>
      <trkpt lat="45.84094" lon="-0.68246">
        <ele>4</ele>
        <time>2017-06-25T08:11:03.999Z</time>
      </trkpt>
      <trkpt lat="45.84093" lon="-0.68245">
        <ele>4</ele>
        <time>2017-06-25T08:11:05.999Z</time>
      </trkpt>
      <trkpt lat="45.84091" lon="-0.68244">
        <ele>4</ele>
        <time>2017-06-25T08:11:07.999Z</time>
      </trkpt>
      <trkpt lat="45.84089" lon="-0.68244">
        <ele>4</ele>
        <time>2017-06-25T08:11:09.999Z</time>
      </trkpt>
      <trkpt lat="45.84088" lon="-0.68243">
        <ele>4</ele>
        <time>2017-06-25T08:11:10.999Z</time>
      </trkpt>
      <trkpt lat="45.84087" lon="-0.68243">
        <ele>4</ele>
        <time>2017-06-25T08:11:11.999Z</time>
      </trkpt>
      <trkpt lat="45.84086" lon="-0.68242">
        <ele>4</ele>
        <time>2017-06-25T08:11:12.999Z</time>
      </trkpt>
      <trkpt lat="45.84084" lon="-0.68242">
        <ele>4</ele>
        <time>2017-06-25T08:11:13.999Z</time>
      </trkpt>
      <trkpt lat="45.84084" lon="-0.68242">
        <ele>4</ele>
        <time>2017-06-25T08:11:14.999Z</time>
      </trkpt>
      <trkpt lat="45.84082" lon="-0.68241">
        <ele>4</ele>
        <time>2017-06-25T08:11:16.999Z</time>
      </trkpt>
      <trkpt lat="45.84081" lon="-0.6824">
        <ele>4</ele>
        <time>2017-06-25T08:11:18.999Z</time>
      </trkpt>
      <trkpt lat="45.8408" lon="-0.68239">
        <ele>4</ele>
        <time>2017-06-25T08:11:19.999Z</time>
      </trkpt>
      <trkpt lat="45.84079" lon="-0.68238">
        <ele>4</ele>
        <time>2017-06-25T08:11:20.999Z</time>
      </trkpt>
      <trkpt lat="45.84078" lon="-0.68237">
        <ele>4</ele>
        <time>2017-06-25T08:11:21.999Z</time>
      </trkpt>
      <trkpt lat="45.84076" lon="-0.68237">
        <ele>4</ele>
        <time>2017-06-25T08:11:22.999Z</time>
      </trkpt>
      <trkpt lat="45.84075" lon="-0.68236">
        <ele>4</ele>
        <time>2017-06-25T08:11:23.999Z</time>
      </trkpt>
      <trkpt lat="45.84074" lon="-0.68235">
        <ele>4</ele>
        <time>2017-06-25T08:11:24.999Z</time>
      </trkpt>
      <trkpt lat="45.84073" lon="-0.68235">
        <ele>4</ele>
        <time>2017-06-25T08:11:25.999Z</time>
      </trkpt>
      <trkpt lat="45.84071" lon="-0.68234">
        <ele>4</ele>
        <time>2017-06-25T08:11:27.999Z</time>
      </trkpt>
      <trkpt lat="45.8407" lon="-0.68234">
        <ele>4</ele>
        <time>2017-06-25T08:11:28.999Z</time>
      </trkpt>
      <trkpt lat="45.84069" lon="-0.68234">
        <ele>4</ele>
        <time>2017-06-25T08:11:30.999Z</time>
      </trkpt>
      <trkpt lat="45.84068" lon="-0.68234">
        <ele>4</ele>
        <time>2017-06-25T08:11:31.999Z</time>
      </trkpt>
      <trkpt lat="45.84066" lon="-0.68232">
        <ele>4</ele>
        <time>2017-06-25T08:11:33.999Z</time>
      </trkpt>
      <trkpt lat="45.84065" lon="-0.68231">
        <ele>4</ele>
        <time>2017-06-25T08:11:35.999Z</time>
      </trkpt>
      <trkpt lat="45.84063" lon="-0.68231">
        <ele>4</ele>
        <time>2017-06-25T08:11:36.999Z</time>
      </trkpt>
      <trkpt lat="45.84063" lon="-0.6823">
        <ele>4</ele>
        <time>2017-06-25T08:11:37.999Z</time>
      </trkpt>
      <trkpt lat="45.84063" lon="-0.68228">
        <ele>4</ele>
        <time>2017-06-25T08:11:38.999Z</time>
      </trkpt>
      <trkpt lat="45.84061" lon="-0.68229">
        <ele>4</ele>
        <time>2017-06-25T08:11:39.999Z</time>
      </trkpt>
      <trkpt lat="45.8406" lon="-0.68228">
        <ele>4</ele>
        <time>2017-06-25T08:11:40.999Z</time>
      </trkpt>
      <trkpt lat="45.84058" lon="-0.68227">
        <ele>4</ele>
        <time>2017-06-25T08:11:41.999Z</time>
      </trkpt>
      <trkpt lat="45.84057" lon="-0.68225">
        <ele>4</ele>
        <time>2017-06-25T08:11:42.999Z</time>
      </trkpt>
      <trkpt lat="45.84056" lon="-0.68224">
        <ele>4</ele>
        <time>2017-06-25T08:11:43.999Z</time>
      </trkpt>
      <trkpt lat="45.84055" lon="-0.68223">
        <ele>4</ele>
        <time>2017-06-25T08:11:44.999Z</time>
      </trkpt>
      <trkpt lat="45.84054" lon="-0.68222">
        <ele>4</ele>
        <time>2017-06-25T08:11:45.999Z</time>
      </trkpt>
      <trkpt lat="45.84052" lon="-0.68223">
        <ele>5</ele>
        <time>2017-06-25T08:11:46.999Z</time>
      </trkpt>
      <trkpt lat="45.8405" lon="-0.68222">
        <ele>5</ele>
        <time>2017-06-25T08:11:47.999Z</time>
      </trkpt>
      <trkpt lat="45.84049" lon="-0.68221">
        <ele>5</ele>
        <time>2017-06-25T08:11:48.999Z</time>
      </trkpt>
      <trkpt lat="45.84048" lon="-0.6822">
        <ele>5</ele>
        <time>2017-06-25T08:11:49.999Z</time>
      </trkpt>
      <trkpt lat="45.84047" lon="-0.68218">
        <ele>5</ele>
        <time>2017-06-25T08:11:50.999Z</time>
      </trkpt>
      <trkpt lat="45.84045" lon="-0.68218">
        <ele>5</ele>
        <time>2017-06-25T08:11:51.999Z</time>
      </trkpt>
      <trkpt lat="45.84044" lon="-0.68217">
        <ele>5</ele>
        <time>2017-06-25T08:11:52.999Z</time>
      </trkpt>
      <trkpt lat="45.84042" lon="-0.68216">
        <ele>5</ele>
        <time>2017-06-25T08:11:54.999Z</time>
      </trkpt>
      <trkpt lat="45.84041" lon="-0.68214">
        <ele>5</ele>
        <time>2017-06-25T08:11:55.999Z</time>
      </trkpt>
      <trkpt lat="45.84039" lon="-0.68213">
        <ele>5</ele>
        <time>2017-06-25T08:11:56.999Z</time>
      </trkpt>
      <trkpt lat="45.84038" lon="-0.68212">
        <ele>5</ele>
        <time>2017-06-25T08:11:57.999Z</time>
      </trkpt>
      <trkpt lat="45.84037" lon="-0.68211">
        <ele>5</ele>
        <time>2017-06-25T08:11:58.999Z</time>
      </trkpt>
      <trkpt lat="45.84036" lon="-0.68209">
        <ele>5</ele>
        <time>2017-06-25T08:11:59.999Z</time>
      </trkpt>
      <trkpt lat="45.84035" lon="-0.68206">
        <ele>5</ele>
        <time>2017-06-25T08:12:00.999Z</time>
      </trkpt>
      <trkpt lat="45.84034" lon="-0.68204">
        <ele>5</ele>
        <time>2017-06-25T08:12:01.999Z</time>
      </trkpt>
      <trkpt lat="45.84033" lon="-0.68203">
        <ele>5</ele>
        <time>2017-06-25T08:12:02.999Z</time>
      </trkpt>
      <trkpt lat="45.84032" lon="-0.68202">
        <ele>5</ele>
        <time>2017-06-25T08:12:03.999Z</time>
      </trkpt>
      <trkpt lat="45.84031" lon="-0.68201">
        <ele>5</ele>
        <time>2017-06-25T08:12:04.999Z</time>
      </trkpt>
      <trkpt lat="45.84029" lon="-0.682">
        <ele>5</ele>
        <time>2017-06-25T08:12:05.999Z</time>
      </trkpt>
      <trkpt lat="45.84028" lon="-0.68199">
        <ele>5</ele>
        <time>2017-06-25T08:12:06.999Z</time>
      </trkpt>
      <trkpt lat="45.84027" lon="-0.68199">
        <ele>5</ele>
        <time>2017-06-25T08:12:07.999Z</time>
      </trkpt>
      <trkpt lat="45.84026" lon="-0.68198">
        <ele>5</ele>
        <time>2017-06-25T08:12:08.999Z</time>
      </trkpt>
      <trkpt lat="45.84024" lon="-0.68198">
        <ele>5</ele>
        <time>2017-06-25T08:12:09.999Z</time>
      </trkpt>
      <trkpt lat="45.84023" lon="-0.68197">
        <ele>5</ele>
        <time>2017-06-25T08:12:11.999Z</time>
      </trkpt>
      <trkpt lat="45.84021" lon="-0.68197">
        <ele>5</ele>
        <time>2017-06-25T08:12:12.999Z</time>
      </trkpt>
      <trkpt lat="45.8402" lon="-0.68197">
        <ele>5</ele>
        <time>2017-06-25T08:12:13.999Z</time>
      </trkpt>
      <trkpt lat="45.8402" lon="-0.68197">
        <ele>5</ele>
        <time>2017-06-25T08:12:14.999Z</time>
      </trkpt>
      <trkpt lat="45.84018" lon="-0.68196">
        <ele>5</ele>
        <time>2017-06-25T08:12:15.999Z</time>
      </trkpt>
      <trkpt lat="45.84017" lon="-0.68196">
        <ele>5</ele>
        <time>2017-06-25T08:12:16.999Z</time>
      </trkpt>
      <trkpt lat="45.84016" lon="-0.68196">
        <ele>5</ele>
        <time>2017-06-25T08:12:17.999Z</time>
      </trkpt>
      <trkpt lat="45.84015" lon="-0.68196">
        <ele>5</ele>
        <time>2017-06-25T08:12:18.999Z</time>
      </trkpt>
      <trkpt lat="45.84014" lon="-0.68196">
        <ele>5</ele>
        <time>2017-06-25T08:12:19.999Z</time>
      </trkpt>
      <trkpt lat="45.84012" lon="-0.68195">
        <ele>5</ele>
        <time>2017-06-25T08:12:21.999Z</time>
      </trkpt>
      <trkpt lat="45.84011" lon="-0.68194">
        <ele>5</ele>
        <time>2017-06-25T08:12:22.999Z</time>
      </trkpt>
      <trkpt lat="45.8401" lon="-0.68194">
        <ele>5</ele>
        <time>2017-06-25T08:12:24.999Z</time>
      </trkpt>
      <trkpt lat="45.84008" lon="-0.68193">
        <ele>5</ele>
        <time>2017-06-25T08:12:26.999Z</time>
      </trkpt>
      <trkpt lat="45.84007" lon="-0.68193">
        <ele>5</ele>
        <time>2017-06-25T08:12:28.999Z</time>
      </trkpt>
      <trkpt lat="45.84007" lon="-0.68192">
        <ele>5</ele>
        <time>2017-06-25T08:12:30.999Z</time>
      </trkpt>
      <trkpt lat="45.84005" lon="-0.68191">
        <ele>4</ele>
        <time>2017-06-25T08:12:32.999Z</time>
      </trkpt>
      <trkpt lat="45.84004" lon="-0.6819">
        <ele>4</ele>
        <time>2017-06-25T08:12:34.999Z</time>
      </trkpt>
      <trkpt lat="45.84003" lon="-0.6819">
        <ele>4</ele>
        <time>2017-06-25T08:12:38.999Z</time>
      </trkpt>
      <trkpt lat="45.84001" lon="-0.6819">
        <ele>4</ele>
        <time>2017-06-25T08:12:40.999Z</time>
      </trkpt>
      <trkpt lat="45.84" lon="-0.6819">
        <ele>4</ele>
        <time>2017-06-25T08:12:41.999Z</time>
      </trkpt>
      <trkpt lat="45.83999" lon="-0.68191">
        <ele>6</ele>
        <time>2017-06-25T08:12:42.999Z</time>
      </trkpt>
      <trkpt lat="45.83997" lon="-0.68191">
        <ele>6</ele>
        <time>2017-06-25T08:12:43.999Z</time>
      </trkpt>
      <trkpt lat="45.83995" lon="-0.68192">
        <ele>6</ele>
        <time>2017-06-25T08:12:44.999Z</time>
      </trkpt>
      <trkpt lat="45.83993" lon="-0.68193">
        <ele>7</ele>
        <time>2017-06-25T08:12:45.999Z</time>
      </trkpt>
      <trkpt lat="45.83992" lon="-0.68193">
        <ele>7</ele>
        <time>2017-06-25T08:12:46.999Z</time>
      </trkpt>
      <trkpt lat="45.83991" lon="-0.68192">
        <ele>7</ele>
        <time>2017-06-25T08:12:47.999Z</time>
      </trkpt>
      <trkpt lat="45.83989" lon="-0.68192">
        <ele>7</ele>
        <time>2017-06-25T08:12:48.999Z</time>
      </trkpt>
      <trkpt lat="45.83988" lon="-0.68189">
        <ele>7</ele>
        <time>2017-06-25T08:12:49.999Z</time>
      </trkpt>
      <trkpt lat="45.83987" lon="-0.68189">
        <ele>7</ele>
        <time>2017-06-25T08:12:50.999Z</time>
      </trkpt>
      <trkpt lat="45.83986" lon="-0.68189">
        <ele>7</ele>
        <time>2017-06-25T08:12:51.999Z</time>
      </trkpt>
      <trkpt lat="45.83984" lon="-0.68188">
        <ele>7</ele>
        <time>2017-06-25T08:12:52.999Z</time>
      </trkpt>
      <trkpt lat="45.83983" lon="-0.68187">
        <ele>7</ele>
        <time>2017-06-25T08:12:53.999Z</time>
      </trkpt>
      <trkpt lat="45.83982" lon="-0.68187">
        <ele>7</ele>
        <time>2017-06-25T08:12:54.999Z</time>
      </trkpt>
      <trkpt lat="45.83981" lon="-0.68187">
        <ele>7</ele>
        <time>2017-06-25T08:12:55.999Z</time>
      </trkpt>
      <trkpt lat="45.83979" lon="-0.68186">
        <ele>7</ele>
        <time>2017-06-25T08:12:56.999Z</time>
      </trkpt>
      <trkpt lat="45.83979" lon="-0.68186">
        <ele>7</ele>
        <time>2017-06-25T08:12:57.999Z</time>
      </trkpt>
      <trkpt lat="45.83977" lon="-0.68186">
        <ele>7</ele>
        <time>2017-06-25T08:12:59.999Z</time>
      </trkpt>
      <trkpt lat="45.83976" lon="-0.68185">
        <ele>7</ele>
        <time>2017-06-25T08:13:00.999Z</time>
      </trkpt>
      <trkpt lat="45.83975" lon="-0.68185">
        <ele>7</ele>
        <time>2017-06-25T08:13:01.999Z</time>
      </trkpt>
      <trkpt lat="45.83974" lon="-0.68184">
        <ele>7</ele>
        <time>2017-06-25T08:13:02.999Z</time>
      </trkpt>
      <trkpt lat="45.83973" lon="-0.68183">
        <ele>7</ele>
        <time>2017-06-25T08:13:03.999Z</time>
      </trkpt>
      <trkpt lat="45.83971" lon="-0.68181">
        <ele>7</ele>
        <time>2017-06-25T08:13:04.999Z</time>
      </trkpt>
      <trkpt lat="45.8397" lon="-0.68181">
        <ele>7</ele>
        <time>2017-06-25T08:13:05.999Z</time>
      </trkpt>
      <trkpt lat="45.83969" lon="-0.6818">
        <ele>7</ele>
        <time>2017-06-25T08:13:06.999Z</time>
      </trkpt>
      <trkpt lat="45.83968" lon="-0.68179">
        <ele>7</ele>
        <time>2017-06-25T08:13:07.999Z</time>
      </trkpt>
      <trkpt lat="45.83966" lon="-0.68177">
        <ele>7</ele>
        <time>2017-06-25T08:13:08.999Z</time>
      </trkpt>
      <trkpt lat="45.83965" lon="-0.68177">
        <ele>7</ele>
        <time>2017-06-25T08:13:09.999Z</time>
      </trkpt>
      <trkpt lat="45.83964" lon="-0.68176">
        <ele>7</ele>
        <time>2017-06-25T08:13:10.999Z</time>
      </trkpt>
      <trkpt lat="45.83963" lon="-0.68175">
        <ele>7</ele>
        <time>2017-06-25T08:13:11.999Z</time>
      </trkpt>
      <trkpt lat="45.83962" lon="-0.68174">
        <ele>7</ele>
        <time>2017-06-25T08:13:12.999Z</time>
      </trkpt>
      <trkpt lat="45.83961" lon="-0.68173">
        <ele>7</ele>
        <time>2017-06-25T08:13:13.999Z</time>
      </trkpt>
      <trkpt lat="45.8396" lon="-0.68172">
        <ele>7</ele>
        <time>2017-06-25T08:13:14.999Z</time>
      </trkpt>
      <trkpt lat="45.83959" lon="-0.68171">
        <ele>7</ele>
        <time>2017-06-25T08:13:15.999Z</time>
      </trkpt>
      <trkpt lat="45.83957" lon="-0.6817">
        <ele>7</ele>
        <time>2017-06-25T08:13:17.999Z</time>
      </trkpt>
      <trkpt lat="45.83957" lon="-0.68169">
        <ele>8</ele>
        <time>2017-06-25T08:13:18.999Z</time>
      </trkpt>
      <trkpt lat="45.83955" lon="-0.68169">
        <ele>8</ele>
        <time>2017-06-25T08:13:19.999Z</time>
      </trkpt>
      <trkpt lat="45.83953" lon="-0.68168">
        <ele>8</ele>
        <time>2017-06-25T08:13:21.999Z</time>
      </trkpt>
      <trkpt lat="45.83952" lon="-0.68166">
        <ele>6</ele>
        <time>2017-06-25T08:13:22.999Z</time>
      </trkpt>
      <trkpt lat="45.83951" lon="-0.68165">
        <ele>6</ele>
        <time>2017-06-25T08:13:23.999Z</time>
      </trkpt>
      <trkpt lat="45.8395" lon="-0.68165">
        <ele>6</ele>
        <time>2017-06-25T08:13:24.999Z</time>
      </trkpt>
      <trkpt lat="45.83949" lon="-0.68163">
        <ele>6</ele>
        <time>2017-06-25T08:13:26.999Z</time>
      </trkpt>
      <trkpt lat="45.83947" lon="-0.68163">
        <ele>6</ele>
        <time>2017-06-25T08:13:27.999Z</time>
      </trkpt>
      <trkpt lat="45.83946" lon="-0.68163">
        <ele>6</ele>
        <time>2017-06-25T08:13:28.999Z</time>
      </trkpt>
      <trkpt lat="45.83944" lon="-0.68162">
        <ele>6</ele>
        <time>2017-06-25T08:13:29.999Z</time>
      </trkpt>
      <trkpt lat="45.83943" lon="-0.68161">
        <ele>6</ele>
        <time>2017-06-25T08:13:30.999Z</time>
      </trkpt>
      <trkpt lat="45.83942" lon="-0.68161">
        <ele>6</ele>
        <time>2017-06-25T08:13:31.999Z</time>
      </trkpt>
      <trkpt lat="45.83941" lon="-0.68161">
        <ele>6</ele>
        <time>2017-06-25T08:13:32.999Z</time>
      </trkpt>
      <trkpt lat="45.8394" lon="-0.6816">
        <ele>6</ele>
        <time>2017-06-25T08:13:33.999Z</time>
      </trkpt>
      <trkpt lat="45.83939" lon="-0.6816">
        <ele>6</ele>
        <time>2017-06-25T08:13:34.999Z</time>
      </trkpt>
      <trkpt lat="45.83938" lon="-0.68159">
        <ele>7</ele>
        <time>2017-06-25T08:13:35.999Z</time>
      </trkpt>
      <trkpt lat="45.83936" lon="-0.68159">
        <ele>7</ele>
        <time>2017-06-25T08:13:36.999Z</time>
      </trkpt>
      <trkpt lat="45.83935" lon="-0.68158">
        <ele>7</ele>
        <time>2017-06-25T08:13:37.999Z</time>
      </trkpt>
      <trkpt lat="45.83934" lon="-0.68158">
        <ele>7</ele>
        <time>2017-06-25T08:13:38.999Z</time>
      </trkpt>
      <trkpt lat="45.83933" lon="-0.68157">
        <ele>7</ele>
        <time>2017-06-25T08:13:39.999Z</time>
      </trkpt>
      <trkpt lat="45.83931" lon="-0.68156">
        <ele>7</ele>
        <time>2017-06-25T08:13:41.999Z</time>
      </trkpt>
      <trkpt lat="45.8393" lon="-0.68156">
        <ele>7</ele>
        <time>2017-06-25T08:13:42.999Z</time>
      </trkpt>
      <trkpt lat="45.83929" lon="-0.68155">
        <ele>7</ele>
        <time>2017-06-25T08:13:43.999Z</time>
      </trkpt>
      <trkpt lat="45.83928" lon="-0.68155">
        <ele>7</ele>
        <time>2017-06-25T08:13:44.999Z</time>
      </trkpt>
      <trkpt lat="45.83926" lon="-0.68154">
        <ele>7</ele>
        <time>2017-06-25T08:13:45.999Z</time>
      </trkpt>
      <trkpt lat="45.83925" lon="-0.68154">
        <ele>7</ele>
        <time>2017-06-25T08:13:46.999Z</time>
      </trkpt>
      <trkpt lat="45.83924" lon="-0.68153">
        <ele>7</ele>
        <time>2017-06-25T08:13:47.999Z</time>
      </trkpt>
      <trkpt lat="45.83922" lon="-0.68152">
        <ele>7</ele>
        <time>2017-06-25T08:13:49.999Z</time>
      </trkpt>
      <trkpt lat="45.8392" lon="-0.68151">
        <ele>7</ele>
        <time>2017-06-25T08:13:50.999Z</time>
      </trkpt>
      <trkpt lat="45.83919" lon="-0.68151">
        <ele>7</ele>
        <time>2017-06-25T08:13:52.999Z</time>
      </trkpt>
      <trkpt lat="45.83918" lon="-0.6815">
        <ele>7</ele>
        <time>2017-06-25T08:13:53.999Z</time>
      </trkpt>
      <trkpt lat="45.83917" lon="-0.68149">
        <ele>7</ele>
        <time>2017-06-25T08:13:54.999Z</time>
      </trkpt>
      <trkpt lat="45.83916" lon="-0.68148">
        <ele>8</ele>
        <time>2017-06-25T08:13:55.999Z</time>
      </trkpt>
      <trkpt lat="45.83915" lon="-0.68148">
        <ele>8</ele>
        <time>2017-06-25T08:13:56.999Z</time>
      </trkpt>
      <trkpt lat="45.83913" lon="-0.68148">
        <ele>8</ele>
        <time>2017-06-25T08:13:58.999Z</time>
      </trkpt>
      <trkpt lat="45.83912" lon="-0.68149">
        <ele>8</ele>
        <time>2017-06-25T08:14:03.999Z</time>
      </trkpt>
      <trkpt lat="45.83911" lon="-0.68148">
        <ele>8</ele>
        <time>2017-06-25T08:14:06.999Z</time>
      </trkpt>
      <trkpt lat="45.8391" lon="-0.68148">
        <ele>8</ele>
        <time>2017-06-25T08:14:07.999Z</time>
      </trkpt>
      <trkpt lat="45.83909" lon="-0.68149">
        <ele>8</ele>
        <time>2017-06-25T08:14:08.999Z</time>
      </trkpt>
      <trkpt lat="45.83907" lon="-0.68148">
        <ele>8</ele>
        <time>2017-06-25T08:14:10.999Z</time>
      </trkpt>
      <trkpt lat="45.83906" lon="-0.68147">
        <ele>8</ele>
        <time>2017-06-25T08:14:12.999Z</time>
      </trkpt>
      <trkpt lat="45.83905" lon="-0.68148">
        <ele>8</ele>
        <time>2017-06-25T08:14:13.999Z</time>
      </trkpt>
      <trkpt lat="45.83904" lon="-0.68146">
        <ele>8</ele>
        <time>2017-06-25T08:14:14.999Z</time>
      </trkpt>
      <trkpt lat="45.83903" lon="-0.68144">
        <ele>8</ele>
        <time>2017-06-25T08:14:16.999Z</time>
      </trkpt>
      <trkpt lat="45.83902" lon="-0.68141">
        <ele>8</ele>
        <time>2017-06-25T08:14:18.999Z</time>
      </trkpt>
      <trkpt lat="45.839" lon="-0.68141">
        <ele>8</ele>
        <time>2017-06-25T08:14:19.999Z</time>
      </trkpt>
      <trkpt lat="45.83899" lon="-0.68138">
        <ele>8</ele>
        <time>2017-06-25T08:14:20.999Z</time>
      </trkpt>
      <trkpt lat="45.83897" lon="-0.68138">
        <ele>8</ele>
        <time>2017-06-25T08:14:21.999Z</time>
      </trkpt>
      <trkpt lat="45.83895" lon="-0.68137">
        <ele>8</ele>
        <time>2017-06-25T08:14:22.999Z</time>
      </trkpt>
      <trkpt lat="45.83894" lon="-0.68138">
        <ele>8</ele>
        <time>2017-06-25T08:14:23.999Z</time>
      </trkpt>
      <trkpt lat="45.83893" lon="-0.68135">
        <ele>8</ele>
        <time>2017-06-25T08:14:24.999Z</time>
      </trkpt>
      <trkpt lat="45.83892" lon="-0.6813">
        <ele>8</ele>
        <time>2017-06-25T08:14:25.999Z</time>
      </trkpt>
      <trkpt lat="45.8389" lon="-0.68127">
        <ele>8</ele>
        <time>2017-06-25T08:14:26.999Z</time>
      </trkpt>
      <trkpt lat="45.83889" lon="-0.68126">
        <ele>8</ele>
        <time>2017-06-25T08:14:27.999Z</time>
      </trkpt>
      <trkpt lat="45.83887" lon="-0.68124">
        <ele>8</ele>
        <time>2017-06-25T08:14:28.999Z</time>
      </trkpt>
      <trkpt lat="45.83886" lon="-0.68124">
        <ele>8</ele>
        <time>2017-06-25T08:14:29.999Z</time>
      </trkpt>
      <trkpt lat="45.83885" lon="-0.68122">
        <ele>8</ele>
        <time>2017-06-25T08:14:30.999Z</time>
      </trkpt>
      <trkpt lat="45.83884" lon="-0.68121">
        <ele>7</ele>
        <time>2017-06-25T08:14:31.999Z</time>
      </trkpt>
      <trkpt lat="45.83882" lon="-0.6812">
        <ele>8</ele>
        <time>2017-06-25T08:14:32.999Z</time>
      </trkpt>
      <trkpt lat="45.83881" lon="-0.68119">
        <ele>8</ele>
        <time>2017-06-25T08:14:33.999Z</time>
      </trkpt>
      <trkpt lat="45.8388" lon="-0.68119">
        <ele>8</ele>
        <time>2017-06-25T08:14:34.999Z</time>
      </trkpt>
      <trkpt lat="45.83879" lon="-0.68118">
        <ele>7</ele>
        <time>2017-06-25T08:14:35.999Z</time>
      </trkpt>
      <trkpt lat="45.83878" lon="-0.68116">
        <ele>7</ele>
        <time>2017-06-25T08:14:36.999Z</time>
      </trkpt>
      <trkpt lat="45.83876" lon="-0.68115">
        <ele>7</ele>
        <time>2017-06-25T08:14:37.999Z</time>
      </trkpt>
      <trkpt lat="45.83875" lon="-0.68114">
        <ele>7</ele>
        <time>2017-06-25T08:14:38.999Z</time>
      </trkpt>
      <trkpt lat="45.83874" lon="-0.68114">
        <ele>7</ele>
        <time>2017-06-25T08:14:39.999Z</time>
      </trkpt>
      <trkpt lat="45.83873" lon="-0.68113">
        <ele>7</ele>
        <time>2017-06-25T08:14:40.999Z</time>
      </trkpt>
      <trkpt lat="45.83872" lon="-0.68112">
        <ele>7</ele>
        <time>2017-06-25T08:14:41.999Z</time>
      </trkpt>
      <trkpt lat="45.83871" lon="-0.68111">
        <ele>7</ele>
        <time>2017-06-25T08:14:42.999Z</time>
      </trkpt>
      <trkpt lat="45.83869" lon="-0.6811">
        <ele>7</ele>
        <time>2017-06-25T08:14:44.999Z</time>
      </trkpt>
      <trkpt lat="45.83868" lon="-0.68109">
        <ele>7</ele>
        <time>2017-06-25T08:14:45.999Z</time>
      </trkpt>
      <trkpt lat="45.83867" lon="-0.68108">
        <ele>7</ele>
        <time>2017-06-25T08:14:46.999Z</time>
      </trkpt>
      <trkpt lat="45.83866" lon="-0.68107">
        <ele>7</ele>
        <time>2017-06-25T08:14:47.999Z</time>
      </trkpt>
      <trkpt lat="45.83865" lon="-0.68106">
        <ele>7</ele>
        <time>2017-06-25T08:14:48.999Z</time>
      </trkpt>
      <trkpt lat="45.83864" lon="-0.68105">
        <ele>7</ele>
        <time>2017-06-25T08:14:49.999Z</time>
      </trkpt>
      <trkpt lat="45.83863" lon="-0.68104">
        <ele>7</ele>
        <time>2017-06-25T08:14:50.999Z</time>
      </trkpt>
      <trkpt lat="45.83862" lon="-0.68103">
        <ele>7</ele>
        <time>2017-06-25T08:14:51.999Z</time>
      </trkpt>
      <trkpt lat="45.83862" lon="-0.68102">
        <ele>7</ele>
        <time>2017-06-25T08:14:52.999Z</time>
      </trkpt>
      <trkpt lat="45.8386" lon="-0.68102">
        <ele>7</ele>
        <time>2017-06-25T08:14:53.999Z</time>
      </trkpt>
      <trkpt lat="45.83859" lon="-0.68101">
        <ele>7</ele>
        <time>2017-06-25T08:14:54.999Z</time>
      </trkpt>
      <trkpt lat="45.83858" lon="-0.681">
        <ele>7</ele>
        <time>2017-06-25T08:14:55.999Z</time>
      </trkpt>
      <trkpt lat="45.83856" lon="-0.68098">
        <ele>7</ele>
        <time>2017-06-25T08:14:57.999Z</time>
      </trkpt>
      <trkpt lat="45.83855" lon="-0.68097">
        <ele>7</ele>
        <time>2017-06-25T08:14:58.999Z</time>
      </trkpt>
      <trkpt lat="45.83854" lon="-0.68095">
        <ele>7</ele>
        <time>2017-06-25T08:14:59.999Z</time>
      </trkpt>
      <trkpt lat="45.83853" lon="-0.68094">
        <ele>7</ele>
        <time>2017-06-25T08:15:00.999Z</time>
      </trkpt>
      <trkpt lat="45.83852" lon="-0.68093">
        <ele>7</ele>
        <time>2017-06-25T08:15:01.999Z</time>
      </trkpt>
      <trkpt lat="45.83852" lon="-0.68091">
        <ele>7</ele>
        <time>2017-06-25T08:15:02.999Z</time>
      </trkpt>
      <trkpt lat="45.83851" lon="-0.6809">
        <ele>7</ele>
        <time>2017-06-25T08:15:03.999Z</time>
      </trkpt>
      <trkpt lat="45.83849" lon="-0.68088">
        <ele>7</ele>
        <time>2017-06-25T08:15:04.999Z</time>
      </trkpt>
      <trkpt lat="45.83849" lon="-0.68087">
        <ele>7</ele>
        <time>2017-06-25T08:15:06.999Z</time>
      </trkpt>
      <trkpt lat="45.83847" lon="-0.68086">
        <ele>7</ele>
        <time>2017-06-25T08:15:07.999Z</time>
      </trkpt>
      <trkpt lat="45.83846" lon="-0.68085">
        <ele>7</ele>
        <time>2017-06-25T08:15:08.999Z</time>
      </trkpt>
      <trkpt lat="45.83845" lon="-0.68086">
        <ele>7</ele>
        <time>2017-06-25T08:15:09.999Z</time>
      </trkpt>
      <trkpt lat="45.83844" lon="-0.68086">
        <ele>7</ele>
        <time>2017-06-25T08:15:10.999Z</time>
      </trkpt>
      <trkpt lat="45.83842" lon="-0.68085">
        <ele>7</ele>
        <time>2017-06-25T08:15:11.999Z</time>
      </trkpt>
      <trkpt lat="45.8384" lon="-0.68085">
        <ele>7</ele>
        <time>2017-06-25T08:15:12.999Z</time>
      </trkpt>
      <trkpt lat="45.83839" lon="-0.68084">
        <ele>7</ele>
        <time>2017-06-25T08:15:13.999Z</time>
      </trkpt>
      <trkpt lat="45.83838" lon="-0.68084">
        <ele>7</ele>
        <time>2017-06-25T08:15:14.999Z</time>
      </trkpt>
      <trkpt lat="45.83837" lon="-0.68083">
        <ele>7</ele>
        <time>2017-06-25T08:15:15.999Z</time>
      </trkpt>
      <trkpt lat="45.83836" lon="-0.68082">
        <ele>7</ele>
        <time>2017-06-25T08:15:16.999Z</time>
      </trkpt>
      <trkpt lat="45.83835" lon="-0.68081">
        <ele>7</ele>
        <time>2017-06-25T08:15:17.999Z</time>
      </trkpt>
      <trkpt lat="45.83833" lon="-0.6808">
        <ele>7</ele>
        <time>2017-06-25T08:15:18.999Z</time>
      </trkpt>
      <trkpt lat="45.83831" lon="-0.6808">
        <ele>7</ele>
        <time>2017-06-25T08:15:19.999Z</time>
      </trkpt>
      <trkpt lat="45.8383" lon="-0.6808">
        <ele>7</ele>
        <time>2017-06-25T08:15:20.999Z</time>
      </trkpt>
      <trkpt lat="45.83829" lon="-0.68079">
        <ele>7</ele>
        <time>2017-06-25T08:15:21.999Z</time>
      </trkpt>
      <trkpt lat="45.83827" lon="-0.68079">
        <ele>7</ele>
        <time>2017-06-25T08:15:22.999Z</time>
      </trkpt>
      <trkpt lat="45.83826" lon="-0.68078">
        <ele>7</ele>
        <time>2017-06-25T08:15:23.999Z</time>
      </trkpt>
      <trkpt lat="45.83825" lon="-0.68078">
        <ele>7</ele>
        <time>2017-06-25T08:15:24.999Z</time>
      </trkpt>
      <trkpt lat="45.83825" lon="-0.68076">
        <ele>7</ele>
        <time>2017-06-25T08:15:25.999Z</time>
      </trkpt>
      <trkpt lat="45.83824" lon="-0.68074">
        <ele>7</ele>
        <time>2017-06-25T08:15:26.999Z</time>
      </trkpt>
      <trkpt lat="45.83823" lon="-0.68072">
        <ele>7</ele>
        <time>2017-06-25T08:15:27.999Z</time>
      </trkpt>
      <trkpt lat="45.83822" lon="-0.68071">
        <ele>7</ele>
        <time>2017-06-25T08:15:28.999Z</time>
      </trkpt>
      <trkpt lat="45.8382" lon="-0.6807">
        <ele>7</ele>
        <time>2017-06-25T08:15:29.999Z</time>
      </trkpt>
      <trkpt lat="45.83819" lon="-0.68068">
        <ele>7</ele>
        <time>2017-06-25T08:15:30.999Z</time>
      </trkpt>
      <trkpt lat="45.83818" lon="-0.68067">
        <ele>7</ele>
        <time>2017-06-25T08:15:31.999Z</time>
      </trkpt>
      <trkpt lat="45.83817" lon="-0.68066">
        <ele>7</ele>
        <time>2017-06-25T08:15:32.999Z</time>
      </trkpt>
      <trkpt lat="45.83817" lon="-0.68064">
        <ele>7</ele>
        <time>2017-06-25T08:15:33.999Z</time>
      </trkpt>
      <trkpt lat="45.83816" lon="-0.68063">
        <ele>7</ele>
        <time>2017-06-25T08:15:34.999Z</time>
      </trkpt>
      <trkpt lat="45.83815" lon="-0.68062">
        <ele>7</ele>
        <time>2017-06-25T08:15:35.999Z</time>
      </trkpt>
      <trkpt lat="45.83814" lon="-0.68061">
        <ele>7</ele>
        <time>2017-06-25T08:15:36.999Z</time>
      </trkpt>
      <trkpt lat="45.83813" lon="-0.6806">
        <ele>7</ele>
        <time>2017-06-25T08:15:37.999Z</time>
      </trkpt>
      <trkpt lat="45.83812" lon="-0.68059">
        <ele>7</ele>
        <time>2017-06-25T08:15:38.999Z</time>
      </trkpt>
      <trkpt lat="45.8381" lon="-0.68058">
        <ele>7</ele>
        <time>2017-06-25T08:15:39.999Z</time>
      </trkpt>
      <trkpt lat="45.83809" lon="-0.68057">
        <ele>7</ele>
        <time>2017-06-25T08:15:40.999Z</time>
      </trkpt>
      <trkpt lat="45.83807" lon="-0.68056">
        <ele>7</ele>
        <time>2017-06-25T08:15:41.999Z</time>
      </trkpt>
      <trkpt lat="45.83806" lon="-0.68055">
        <ele>7</ele>
        <time>2017-06-25T08:15:42.999Z</time>
      </trkpt>
      <trkpt lat="45.83806" lon="-0.68055">
        <ele>7</ele>
        <time>2017-06-25T08:15:43.999Z</time>
      </trkpt>
      <trkpt lat="45.83804" lon="-0.68054">
        <ele>7</ele>
        <time>2017-06-25T08:15:44.999Z</time>
      </trkpt>
      <trkpt lat="45.83803" lon="-0.68053">
        <ele>7</ele>
        <time>2017-06-25T08:15:45.999Z</time>
      </trkpt>
      <trkpt lat="45.83802" lon="-0.68053">
        <ele>7</ele>
        <time>2017-06-25T08:15:46.999Z</time>
      </trkpt>
      <trkpt lat="45.83801" lon="-0.68052">
        <ele>7</ele>
        <time>2017-06-25T08:15:47.999Z</time>
      </trkpt>
      <trkpt lat="45.83799" lon="-0.68052">
        <ele>7</ele>
        <time>2017-06-25T08:15:48.999Z</time>
      </trkpt>
      <trkpt lat="45.83798" lon="-0.68051">
        <ele>7</ele>
        <time>2017-06-25T08:15:49.999Z</time>
      </trkpt>
      <trkpt lat="45.83797" lon="-0.68051">
        <ele>7</ele>
        <time>2017-06-25T08:15:50.999Z</time>
      </trkpt>
      <trkpt lat="45.83796" lon="-0.68051">
        <ele>7</ele>
        <time>2017-06-25T08:15:51.999Z</time>
      </trkpt>
      <trkpt lat="45.83794" lon="-0.68051">
        <ele>7</ele>
        <time>2017-06-25T08:15:53.999Z</time>
      </trkpt>
      <trkpt lat="45.83793" lon="-0.6805">
        <ele>7</ele>
        <time>2017-06-25T08:15:54.999Z</time>
      </trkpt>
      <trkpt lat="45.83792" lon="-0.68049">
        <ele>7</ele>
        <time>2017-06-25T08:15:55.999Z</time>
      </trkpt>
      <trkpt lat="45.8379" lon="-0.6805">
        <ele>7</ele>
        <time>2017-06-25T08:15:57.999Z</time>
      </trkpt>
      <trkpt lat="45.83789" lon="-0.6805">
        <ele>7</ele>
        <time>2017-06-25T08:15:59.999Z</time>
      </trkpt>
      <trkpt lat="45.83788" lon="-0.68048">
        <ele>7</ele>
        <time>2017-06-25T08:16:00.999Z</time>
      </trkpt>
      <trkpt lat="45.83787" lon="-0.68047">
        <ele>7</ele>
        <time>2017-06-25T08:16:01.999Z</time>
      </trkpt>
      <trkpt lat="45.83786" lon="-0.68046">
        <ele>7</ele>
        <time>2017-06-25T08:16:02.999Z</time>
      </trkpt>
      <trkpt lat="45.83784" lon="-0.68043">
        <ele>7</ele>
        <time>2017-06-25T08:16:04.999Z</time>
      </trkpt>
      <trkpt lat="45.83783" lon="-0.68042">
        <ele>7</ele>
        <time>2017-06-25T08:16:05.999Z</time>
      </trkpt>
      <trkpt lat="45.83782" lon="-0.68041">
        <ele>7</ele>
        <time>2017-06-25T08:16:07.999Z</time>
      </trkpt>
      <trkpt lat="45.8378" lon="-0.6804">
        <ele>7</ele>
        <time>2017-06-25T08:16:09.999Z</time>
      </trkpt>
      <trkpt lat="45.83778" lon="-0.6804">
        <ele>7</ele>
        <time>2017-06-25T08:16:10.999Z</time>
      </trkpt>
      <trkpt lat="45.83777" lon="-0.68039">
        <ele>7</ele>
        <time>2017-06-25T08:16:11.999Z</time>
      </trkpt>
      <trkpt lat="45.83776" lon="-0.68038">
        <ele>7</ele>
        <time>2017-06-25T08:16:12.999Z</time>
      </trkpt>
      <trkpt lat="45.83775" lon="-0.68037">
        <ele>7</ele>
        <time>2017-06-25T08:16:13.999Z</time>
      </trkpt>
      <trkpt lat="45.83773" lon="-0.68037">
        <ele>7</ele>
        <time>2017-06-25T08:16:14.999Z</time>
      </trkpt>
      <trkpt lat="45.83772" lon="-0.68037">
        <ele>7</ele>
        <time>2017-06-25T08:16:15.999Z</time>
      </trkpt>
      <trkpt lat="45.83771" lon="-0.68037">
        <ele>7</ele>
        <time>2017-06-25T08:16:19.999Z</time>
      </trkpt>
      <trkpt lat="45.8377" lon="-0.68036">
        <ele>7</ele>
        <time>2017-06-25T08:16:20.999Z</time>
      </trkpt>
      <trkpt lat="45.8377" lon="-0.68035">
        <ele>7</ele>
        <time>2017-06-25T08:16:21.999Z</time>
      </trkpt>
      <trkpt lat="45.83769" lon="-0.68034">
        <ele>7</ele>
        <time>2017-06-25T08:16:22.999Z</time>
      </trkpt>
      <trkpt lat="45.83768" lon="-0.68033">
        <ele>7</ele>
        <time>2017-06-25T08:16:23.999Z</time>
      </trkpt>
      <trkpt lat="45.83767" lon="-0.68031">
        <ele>7</ele>
        <time>2017-06-25T08:16:24.999Z</time>
      </trkpt>
      <trkpt lat="45.83765" lon="-0.6803">
        <ele>7</ele>
        <time>2017-06-25T08:16:25.999Z</time>
      </trkpt>
      <trkpt lat="45.83764" lon="-0.68028">
        <ele>7</ele>
        <time>2017-06-25T08:16:27.999Z</time>
      </trkpt>
      <trkpt lat="45.83763" lon="-0.68027">
        <ele>7</ele>
        <time>2017-06-25T08:16:29.999Z</time>
      </trkpt>
      <trkpt lat="45.83762" lon="-0.68026">
        <ele>7</ele>
        <time>2017-06-25T08:16:30.999Z</time>
      </trkpt>
      <trkpt lat="45.83761" lon="-0.68024">
        <ele>7</ele>
        <time>2017-06-25T08:16:31.999Z</time>
      </trkpt>
      <trkpt lat="45.8376" lon="-0.68022">
        <ele>7</ele>
        <time>2017-06-25T08:16:32.999Z</time>
      </trkpt>
      <trkpt lat="45.83759" lon="-0.68019">
        <ele>7</ele>
        <time>2017-06-25T08:16:33.999Z</time>
      </trkpt>
      <trkpt lat="45.83758" lon="-0.68016">
        <ele>7</ele>
        <time>2017-06-25T08:16:34.999Z</time>
      </trkpt>
      <trkpt lat="45.83757" lon="-0.68014">
        <ele>7</ele>
        <time>2017-06-25T08:16:35.999Z</time>
      </trkpt>
      <trkpt lat="45.83756" lon="-0.68012">
        <ele>7</ele>
        <time>2017-06-25T08:16:36.999Z</time>
      </trkpt>
      <trkpt lat="45.83755" lon="-0.68011">
        <ele>7</ele>
        <time>2017-06-25T08:16:37.999Z</time>
      </trkpt>
      <trkpt lat="45.83753" lon="-0.68009">
        <ele>7</ele>
        <time>2017-06-25T08:16:38.999Z</time>
      </trkpt>
      <trkpt lat="45.83752" lon="-0.68007">
        <ele>7</ele>
        <time>2017-06-25T08:16:39.999Z</time>
      </trkpt>
      <trkpt lat="45.8375" lon="-0.68005">
        <ele>7</ele>
        <time>2017-06-25T08:16:40.999Z</time>
      </trkpt>
      <trkpt lat="45.83748" lon="-0.68003">
        <ele>7</ele>
        <time>2017-06-25T08:16:41.999Z</time>
      </trkpt>
      <trkpt lat="45.83746" lon="-0.68001">
        <ele>7</ele>
        <time>2017-06-25T08:16:42.999Z</time>
      </trkpt>
      <trkpt lat="45.83745" lon="-0.68">
        <ele>7</ele>
        <time>2017-06-25T08:16:43.999Z</time>
      </trkpt>
      <trkpt lat="45.83743" lon="-0.67999">
        <ele>7</ele>
        <time>2017-06-25T08:16:44.999Z</time>
      </trkpt>
      <trkpt lat="45.83741" lon="-0.67997">
        <ele>7</ele>
        <time>2017-06-25T08:16:46.999Z</time>
      </trkpt>
      <trkpt lat="45.8374" lon="-0.67996">
        <ele>7</ele>
        <time>2017-06-25T08:16:47.999Z</time>
      </trkpt>
      <trkpt lat="45.83739" lon="-0.67995">
        <ele>7</ele>
        <time>2017-06-25T08:16:48.999Z</time>
      </trkpt>
      <trkpt lat="45.83738" lon="-0.67994">
        <ele>7</ele>
        <time>2017-06-25T08:16:49.999Z</time>
      </trkpt>
      <trkpt lat="45.83736" lon="-0.67993">
        <ele>7</ele>
        <time>2017-06-25T08:16:50.999Z</time>
      </trkpt>
      <trkpt lat="45.83735" lon="-0.67991">
        <ele>7</ele>
        <time>2017-06-25T08:16:51.999Z</time>
      </trkpt>
      <trkpt lat="45.83734" lon="-0.6799">
        <ele>7</ele>
        <time>2017-06-25T08:16:52.999Z</time>
      </trkpt>
      <trkpt lat="45.83733" lon="-0.6799">
        <ele>7</ele>
        <time>2017-06-25T08:16:53.999Z</time>
      </trkpt>
      <trkpt lat="45.83732" lon="-0.67988">
        <ele>6</ele>
        <time>2017-06-25T08:16:54.999Z</time>
      </trkpt>
      <trkpt lat="45.83731" lon="-0.67987">
        <ele>6</ele>
        <time>2017-06-25T08:16:55.999Z</time>
      </trkpt>
      <trkpt lat="45.83729" lon="-0.67986">
        <ele>6</ele>
        <time>2017-06-25T08:16:57.999Z</time>
      </trkpt>
      <trkpt lat="45.83728" lon="-0.67985">
        <ele>6</ele>
        <time>2017-06-25T08:16:58.999Z</time>
      </trkpt>
      <trkpt lat="45.83727" lon="-0.67984">
        <ele>6</ele>
        <time>2017-06-25T08:17:00.999Z</time>
      </trkpt>
      <trkpt lat="45.83726" lon="-0.67983">
        <ele>6</ele>
        <time>2017-06-25T08:17:01.999Z</time>
      </trkpt>
      <trkpt lat="45.83725" lon="-0.67981">
        <ele>6</ele>
        <time>2017-06-25T08:17:02.999Z</time>
      </trkpt>
      <trkpt lat="45.83724" lon="-0.67981">
        <ele>6</ele>
        <time>2017-06-25T08:17:05.999Z</time>
      </trkpt>
      <trkpt lat="45.83722" lon="-0.67979">
        <ele>6</ele>
        <time>2017-06-25T08:17:07.999Z</time>
      </trkpt>
      <trkpt lat="45.83722" lon="-0.67978">
        <ele>6</ele>
        <time>2017-06-25T08:17:08.999Z</time>
      </trkpt>
      <trkpt lat="45.8372" lon="-0.67977">
        <ele>6</ele>
        <time>2017-06-25T08:17:10.999Z</time>
      </trkpt>
      <trkpt lat="45.83719" lon="-0.67976">
        <ele>6</ele>
        <time>2017-06-25T08:17:11.999Z</time>
      </trkpt>
      <trkpt lat="45.83718" lon="-0.67975">
        <ele>6</ele>
        <time>2017-06-25T08:17:12.999Z</time>
      </trkpt>
      <trkpt lat="45.83717" lon="-0.67974">
        <ele>6</ele>
        <time>2017-06-25T08:17:13.999Z</time>
      </trkpt>
      <trkpt lat="45.83716" lon="-0.67972">
        <ele>6</ele>
        <time>2017-06-25T08:17:14.999Z</time>
      </trkpt>
      <trkpt lat="45.83715" lon="-0.6797">
        <ele>6</ele>
        <time>2017-06-25T08:17:15.999Z</time>
      </trkpt>
      <trkpt lat="45.83714" lon="-0.67969">
        <ele>6</ele>
        <time>2017-06-25T08:17:16.999Z</time>
      </trkpt>
      <trkpt lat="45.83713" lon="-0.67968">
        <ele>6</ele>
        <time>2017-06-25T08:17:17.999Z</time>
      </trkpt>
      <trkpt lat="45.83712" lon="-0.67965">
        <ele>6</ele>
        <time>2017-06-25T08:17:18.999Z</time>
      </trkpt>
      <trkpt lat="45.83711" lon="-0.67964">
        <ele>6</ele>
        <time>2017-06-25T08:17:19.999Z</time>
      </trkpt>
      <trkpt lat="45.83709" lon="-0.67962">
        <ele>6</ele>
        <time>2017-06-25T08:17:20.999Z</time>
      </trkpt>
      <trkpt lat="45.83708" lon="-0.67961">
        <ele>6</ele>
        <time>2017-06-25T08:17:21.999Z</time>
      </trkpt>
      <trkpt lat="45.83707" lon="-0.67958">
        <ele>6</ele>
        <time>2017-06-25T08:17:22.999Z</time>
      </trkpt>
      <trkpt lat="45.83706" lon="-0.67957">
        <ele>6</ele>
        <time>2017-06-25T08:17:23.999Z</time>
      </trkpt>
      <trkpt lat="45.83705" lon="-0.67955">
        <ele>6</ele>
        <time>2017-06-25T08:17:24.999Z</time>
      </trkpt>
      <trkpt lat="45.83704" lon="-0.67952">
        <ele>6</ele>
        <time>2017-06-25T08:17:25.999Z</time>
      </trkpt>
      <trkpt lat="45.83703" lon="-0.67952">
        <ele>6</ele>
        <time>2017-06-25T08:17:26.999Z</time>
      </trkpt>
      <trkpt lat="45.83702" lon="-0.6795">
        <ele>6</ele>
        <time>2017-06-25T08:17:27.999Z</time>
      </trkpt>
      <trkpt lat="45.83701" lon="-0.67948">
        <ele>6</ele>
        <time>2017-06-25T08:17:28.999Z</time>
      </trkpt>
      <trkpt lat="45.83701" lon="-0.67946">
        <ele>6</ele>
        <time>2017-06-25T08:17:29.999Z</time>
      </trkpt>
      <trkpt lat="45.83699" lon="-0.67944">
        <ele>6</ele>
        <time>2017-06-25T08:17:30.999Z</time>
      </trkpt>
      <trkpt lat="45.83699" lon="-0.67942">
        <ele>6</ele>
        <time>2017-06-25T08:17:31.999Z</time>
      </trkpt>
      <trkpt lat="45.83698" lon="-0.67941">
        <ele>6</ele>
        <time>2017-06-25T08:17:32.999Z</time>
      </trkpt>
      <trkpt lat="45.83698" lon="-0.67939">
        <ele>6</ele>
        <time>2017-06-25T08:17:34.999Z</time>
      </trkpt>
      <trkpt lat="45.83697" lon="-0.67938">
        <ele>6</ele>
        <time>2017-06-25T08:17:35.999Z</time>
      </trkpt>
      <trkpt lat="45.83696" lon="-0.67936">
        <ele>6</ele>
        <time>2017-06-25T08:17:36.999Z</time>
      </trkpt>
      <trkpt lat="45.83695" lon="-0.67936">
        <ele>6</ele>
        <time>2017-06-25T08:17:38.999Z</time>
      </trkpt>
      <trkpt lat="45.83693" lon="-0.67935">
        <ele>6</ele>
        <time>2017-06-25T08:17:40.999Z</time>
      </trkpt>
      <trkpt lat="45.83692" lon="-0.67934">
        <ele>6</ele>
        <time>2017-06-25T08:17:41.999Z</time>
      </trkpt>
      <trkpt lat="45.83691" lon="-0.67934">
        <ele>6</ele>
        <time>2017-06-25T08:17:42.999Z</time>
      </trkpt>
      <trkpt lat="45.8369" lon="-0.67933">
        <ele>6</ele>
        <time>2017-06-25T08:17:43.999Z</time>
      </trkpt>
      <trkpt lat="45.83688" lon="-0.67931">
        <ele>6</ele>
        <time>2017-06-25T08:17:45.999Z</time>
      </trkpt>
      <trkpt lat="45.83687" lon="-0.6793">
        <ele>6</ele>
        <time>2017-06-25T08:17:47Z</time>
      </trkpt>
      <trkpt lat="45.83686" lon="-0.67929">
        <ele>6</ele>
        <time>2017-06-25T08:17:48Z</time>
      </trkpt>
      <trkpt lat="45.83685" lon="-0.67927">
        <ele>6</ele>
        <time>2017-06-25T08:17:49Z</time>
      </trkpt>
      <trkpt lat="45.83684" lon="-0.67926">
        <ele>5</ele>
        <time>2017-06-25T08:17:50Z</time>
      </trkpt>
      <trkpt lat="45.83683" lon="-0.67925">
        <ele>5</ele>
        <time>2017-06-25T08:17:51Z</time>
      </trkpt>
      <trkpt lat="45.83682" lon="-0.67925">
        <ele>5</ele>
        <time>2017-06-25T08:17:52Z</time>
      </trkpt>
      <trkpt lat="45.83681" lon="-0.67923">
        <ele>5</ele>
        <time>2017-06-25T08:17:53Z</time>
      </trkpt>
      <trkpt lat="45.8368" lon="-0.67922">
        <ele>5</ele>
        <time>2017-06-25T08:17:54Z</time>
      </trkpt>
      <trkpt lat="45.83679" lon="-0.6792">
        <ele>5</ele>
        <time>2017-06-25T08:17:55Z</time>
      </trkpt>
      <trkpt lat="45.83678" lon="-0.67918">
        <ele>5</ele>
        <time>2017-06-25T08:17:56Z</time>
      </trkpt>
      <trkpt lat="45.83676" lon="-0.67918">
        <ele>5</ele>
        <time>2017-06-25T08:17:57Z</time>
      </trkpt>
      <trkpt lat="45.83675" lon="-0.67918">
        <ele>5</ele>
        <time>2017-06-25T08:17:58Z</time>
      </trkpt>
      <trkpt lat="45.83674" lon="-0.67916">
        <ele>4</ele>
        <time>2017-06-25T08:18:00Z</time>
      </trkpt>
      <trkpt lat="45.83672" lon="-0.67916">
        <ele>5</ele>
        <time>2017-06-25T08:18:01Z</time>
      </trkpt>
      <trkpt lat="45.8367" lon="-0.67916">
        <ele>5</ele>
        <time>2017-06-25T08:18:02Z</time>
      </trkpt>
      <trkpt lat="45.83669" lon="-0.67915">
        <ele>5</ele>
        <time>2017-06-25T08:18:03Z</time>
      </trkpt>
      <trkpt lat="45.83668" lon="-0.67914">
        <ele>5</ele>
        <time>2017-06-25T08:18:04Z</time>
      </trkpt>
      <trkpt lat="45.83667" lon="-0.67914">
        <ele>5</ele>
        <time>2017-06-25T08:18:05Z</time>
      </trkpt>
      <trkpt lat="45.83666" lon="-0.67912">
        <ele>5</ele>
        <time>2017-06-25T08:18:06Z</time>
      </trkpt>
      <trkpt lat="45.83665" lon="-0.67911">
        <ele>5</ele>
        <time>2017-06-25T08:18:07Z</time>
      </trkpt>
      <trkpt lat="45.83664" lon="-0.67911">
        <ele>5</ele>
        <time>2017-06-25T08:18:08Z</time>
      </trkpt>
      <trkpt lat="45.83663" lon="-0.6791">
        <ele>5</ele>
        <time>2017-06-25T08:18:09Z</time>
      </trkpt>
      <trkpt lat="45.83662" lon="-0.67908">
        <ele>5</ele>
        <time>2017-06-25T08:18:10Z</time>
      </trkpt>
      <trkpt lat="45.8366" lon="-0.67907">
        <ele>5</ele>
        <time>2017-06-25T08:18:11Z</time>
      </trkpt>
      <trkpt lat="45.83659" lon="-0.67905">
        <ele>5</ele>
        <time>2017-06-25T08:18:12Z</time>
      </trkpt>
      <trkpt lat="45.83658" lon="-0.67904">
        <ele>5</ele>
        <time>2017-06-25T08:18:13Z</time>
      </trkpt>
      <trkpt lat="45.83656" lon="-0.67904">
        <ele>5</ele>
        <time>2017-06-25T08:18:14Z</time>
      </trkpt>
      <trkpt lat="45.83656" lon="-0.67903">
        <ele>5</ele>
        <time>2017-06-25T08:18:15Z</time>
      </trkpt>
      <trkpt lat="45.83654" lon="-0.67903">
        <ele>5</ele>
        <time>2017-06-25T08:18:16Z</time>
      </trkpt>
      <trkpt lat="45.83653" lon="-0.67902">
        <ele>5</ele>
        <time>2017-06-25T08:18:17Z</time>
      </trkpt>
      <trkpt lat="45.83651" lon="-0.67901">
        <ele>5</ele>
        <time>2017-06-25T08:18:19Z</time>
      </trkpt>
      <trkpt lat="45.8365" lon="-0.67901">
        <ele>5</ele>
        <time>2017-06-25T08:18:20Z</time>
      </trkpt>
      <trkpt lat="45.83649" lon="-0.679">
        <ele>5</ele>
        <time>2017-06-25T08:18:22Z</time>
      </trkpt>
      <trkpt lat="45.83648" lon="-0.67899">
        <ele>5</ele>
        <time>2017-06-25T08:18:25Z</time>
      </trkpt>
      <trkpt lat="45.83647" lon="-0.67898">
        <ele>5</ele>
        <time>2017-06-25T08:18:26Z</time>
      </trkpt>
      <trkpt lat="45.83646" lon="-0.67897">
        <ele>5</ele>
        <time>2017-06-25T08:18:27Z</time>
      </trkpt>
      <trkpt lat="45.83645" lon="-0.67896">
        <ele>5</ele>
        <time>2017-06-25T08:18:29Z</time>
      </trkpt>
      <trkpt lat="45.83643" lon="-0.67893">
        <ele>5</ele>
        <time>2017-06-25T08:18:30Z</time>
      </trkpt>
      <trkpt lat="45.83642" lon="-0.67891">
        <ele>5</ele>
        <time>2017-06-25T08:18:31Z</time>
      </trkpt>
      <trkpt lat="45.8364" lon="-0.67889">
        <ele>5</ele>
        <time>2017-06-25T08:18:32Z</time>
      </trkpt>
      <trkpt lat="45.83639" lon="-0.67887">
        <ele>5</ele>
        <time>2017-06-25T08:18:33Z</time>
      </trkpt>
      <trkpt lat="45.83638" lon="-0.67886">
        <ele>5</ele>
        <time>2017-06-25T08:18:34Z</time>
      </trkpt>
      <trkpt lat="45.83637" lon="-0.67885">
        <ele>5</ele>
        <time>2017-06-25T08:18:35Z</time>
      </trkpt>
      <trkpt lat="45.83636" lon="-0.67884">
        <ele>5</ele>
        <time>2017-06-25T08:18:36Z</time>
      </trkpt>
      <trkpt lat="45.83635" lon="-0.67882">
        <ele>5</ele>
        <time>2017-06-25T08:18:37Z</time>
      </trkpt>
      <trkpt lat="45.83634" lon="-0.67881">
        <ele>5</ele>
        <time>2017-06-25T08:18:39Z</time>
      </trkpt>
      <trkpt lat="45.83633" lon="-0.67879">
        <ele>5</ele>
        <time>2017-06-25T08:18:40Z</time>
      </trkpt>
      <trkpt lat="45.83632" lon="-0.67878">
        <ele>5</ele>
        <time>2017-06-25T08:18:41Z</time>
      </trkpt>
      <trkpt lat="45.83631" lon="-0.67877">
        <ele>5</ele>
        <time>2017-06-25T08:18:42Z</time>
      </trkpt>
      <trkpt lat="45.8363" lon="-0.67876">
        <ele>5</ele>
        <time>2017-06-25T08:18:43Z</time>
      </trkpt>
      <trkpt lat="45.83629" lon="-0.67874">
        <ele>5</ele>
        <time>2017-06-25T08:18:44Z</time>
      </trkpt>
      <trkpt lat="45.83628" lon="-0.67874">
        <ele>5</ele>
        <time>2017-06-25T08:18:45Z</time>
      </trkpt>
      <trkpt lat="45.83627" lon="-0.67873">
        <ele>5</ele>
        <time>2017-06-25T08:18:46Z</time>
      </trkpt>
      <trkpt lat="45.83626" lon="-0.67871">
        <ele>5</ele>
        <time>2017-06-25T08:18:48Z</time>
      </trkpt>
      <trkpt lat="45.83625" lon="-0.67871">
        <ele>5</ele>
        <time>2017-06-25T08:18:49Z</time>
      </trkpt>
      <trkpt lat="45.83624" lon="-0.6787">
        <ele>5</ele>
        <time>2017-06-25T08:18:50Z</time>
      </trkpt>
      <trkpt lat="45.83624" lon="-0.67869">
        <ele>5</ele>
        <time>2017-06-25T08:18:52Z</time>
      </trkpt>
      <trkpt lat="45.83622" lon="-0.67869">
        <ele>5</ele>
        <time>2017-06-25T08:18:54Z</time>
      </trkpt>
      <trkpt lat="45.83621" lon="-0.6787">
        <ele>5</ele>
        <time>2017-06-25T08:18:56Z</time>
      </trkpt>
      <trkpt lat="45.8362" lon="-0.67869">
        <ele>5</ele>
        <time>2017-06-25T08:18:58Z</time>
      </trkpt>
      <trkpt lat="45.83619" lon="-0.67868">
        <ele>5</ele>
        <time>2017-06-25T08:18:59Z</time>
      </trkpt>
      <trkpt lat="45.83618" lon="-0.67867">
        <ele>5</ele>
        <time>2017-06-25T08:19:00Z</time>
      </trkpt>
      <trkpt lat="45.83617" lon="-0.67865">
        <ele>5</ele>
        <time>2017-06-25T08:19:01Z</time>
      </trkpt>
      <trkpt lat="45.83617" lon="-0.67865">
        <ele>5</ele>
        <time>2017-06-25T08:19:02Z</time>
      </trkpt>
      <trkpt lat="45.83615" lon="-0.67862">
        <ele>5</ele>
        <time>2017-06-25T08:19:04Z</time>
      </trkpt>
      <trkpt lat="45.83614" lon="-0.67861">
        <ele>5</ele>
        <time>2017-06-25T08:19:05Z</time>
      </trkpt>
      <trkpt lat="45.83614" lon="-0.6786">
        <ele>5</ele>
        <time>2017-06-25T08:19:06Z</time>
      </trkpt>
      <trkpt lat="45.83613" lon="-0.67859">
        <ele>5</ele>
        <time>2017-06-25T08:19:07Z</time>
      </trkpt>
      <trkpt lat="45.83612" lon="-0.67858">
        <ele>5</ele>
        <time>2017-06-25T08:19:08Z</time>
      </trkpt>
      <trkpt lat="45.83611" lon="-0.67857">
        <ele>5</ele>
        <time>2017-06-25T08:19:09Z</time>
      </trkpt>
      <trkpt lat="45.8361" lon="-0.67856">
        <ele>5</ele>
        <time>2017-06-25T08:19:10Z</time>
      </trkpt>
      <trkpt lat="45.8361" lon="-0.67855">
        <ele>5</ele>
        <time>2017-06-25T08:19:11Z</time>
      </trkpt>
      <trkpt lat="45.83609" lon="-0.67854">
        <ele>5</ele>
        <time>2017-06-25T08:19:12Z</time>
      </trkpt>
      <trkpt lat="45.83609" lon="-0.67852">
        <ele>5</ele>
        <time>2017-06-25T08:19:13Z</time>
      </trkpt>
      <trkpt lat="45.83608" lon="-0.6785">
        <ele>5</ele>
        <time>2017-06-25T08:19:14Z</time>
      </trkpt>
      <trkpt lat="45.83608" lon="-0.67848">
        <ele>5</ele>
        <time>2017-06-25T08:19:15Z</time>
      </trkpt>
      <trkpt lat="45.83607" lon="-0.67847">
        <ele>5</ele>
        <time>2017-06-25T08:19:16Z</time>
      </trkpt>
      <trkpt lat="45.83606" lon="-0.67846">
        <ele>5</ele>
        <time>2017-06-25T08:19:17Z</time>
      </trkpt>
      <trkpt lat="45.83604" lon="-0.67845">
        <ele>5</ele>
        <time>2017-06-25T08:19:18Z</time>
      </trkpt>
      <trkpt lat="45.83604" lon="-0.67844">
        <ele>5</ele>
        <time>2017-06-25T08:19:19Z</time>
      </trkpt>
      <trkpt lat="45.83603" lon="-0.67843">
        <ele>5</ele>
        <time>2017-06-25T08:19:20Z</time>
      </trkpt>
      <trkpt lat="45.83603" lon="-0.67841">
        <ele>5</ele>
        <time>2017-06-25T08:19:21Z</time>
      </trkpt>
      <trkpt lat="45.83601" lon="-0.6784">
        <ele>5</ele>
        <time>2017-06-25T08:19:23Z</time>
      </trkpt>
      <trkpt lat="45.83601" lon="-0.67839">
        <ele>5</ele>
        <time>2017-06-25T08:19:25Z</time>
      </trkpt>
      <trkpt lat="45.836" lon="-0.67838">
        <ele>5</ele>
        <time>2017-06-25T08:19:26Z</time>
      </trkpt>
      <trkpt lat="45.83599" lon="-0.67836">
        <ele>5</ele>
        <time>2017-06-25T08:19:27Z</time>
      </trkpt>
      <trkpt lat="45.83598" lon="-0.67834">
        <ele>5</ele>
        <time>2017-06-25T08:19:28Z</time>
      </trkpt>
      <trkpt lat="45.83597" lon="-0.67832">
        <ele>4</ele>
        <time>2017-06-25T08:19:29Z</time>
      </trkpt>
      <trkpt lat="45.83596" lon="-0.6783">
        <ele>4</ele>
        <time>2017-06-25T08:19:30Z</time>
      </trkpt>
      <trkpt lat="45.83595" lon="-0.67829">
        <ele>4</ele>
        <time>2017-06-25T08:19:31Z</time>
      </trkpt>
      <trkpt lat="45.83595" lon="-0.67827">
        <ele>4</ele>
        <time>2017-06-25T08:19:32Z</time>
      </trkpt>
      <trkpt lat="45.83595" lon="-0.67825">
        <ele>4</ele>
        <time>2017-06-25T08:19:34Z</time>
      </trkpt>
      <trkpt lat="45.83595" lon="-0.67823">
        <ele>4</ele>
        <time>2017-06-25T08:19:36Z</time>
      </trkpt>
      <trkpt lat="45.83595" lon="-0.67822">
        <ele>4</ele>
        <time>2017-06-25T08:19:40Z</time>
      </trkpt>
      <trkpt lat="45.83595" lon="-0.67823">
        <ele>4</ele>
        <time>2017-06-25T08:20:33Z</time>
      </trkpt>
      <trkpt lat="45.83596" lon="-0.67821">
        <ele>4</ele>
        <time>2017-06-25T08:20:41Z</time>
      </trkpt>
      <trkpt lat="45.83596" lon="-0.6782">
        <ele>4</ele>
        <time>2017-06-25T08:20:46Z</time>
      </trkpt>
      <trkpt lat="45.83597" lon="-0.67819">
        <ele>4</ele>
        <time>2017-06-25T08:20:47Z</time>
      </trkpt>
      <trkpt lat="45.83598" lon="-0.67818">
        <ele>4</ele>
        <time>2017-06-25T08:20:49Z</time>
      </trkpt>
      <trkpt lat="45.836" lon="-0.67817">
        <ele>4</ele>
        <time>2017-06-25T08:20:53Z</time>
      </trkpt>
      <trkpt lat="45.83601" lon="-0.67817">
        <ele>4</ele>
        <time>2017-06-25T08:20:55Z</time>
      </trkpt>
      <trkpt lat="45.83603" lon="-0.67817">
        <ele>4</ele>
        <time>2017-06-25T08:20:57Z</time>
      </trkpt>
      <trkpt lat="45.83604" lon="-0.67817">
        <ele>4</ele>
        <time>2017-06-25T08:20:58Z</time>
      </trkpt>
      <trkpt lat="45.83604" lon="-0.67819">
        <ele>4</ele>
        <time>2017-06-25T08:21:00Z</time>
      </trkpt>
      <trkpt lat="45.83606" lon="-0.6782">
        <ele>4</ele>
        <time>2017-06-25T08:21:06Z</time>
      </trkpt>
      <trkpt lat="45.83606" lon="-0.67821">
        <ele>4</ele>
        <time>2017-06-25T08:21:31Z</time>
      </trkpt>
      <trkpt lat="45.83607" lon="-0.6782">
        <ele>4</ele>
        <time>2017-06-25T08:22:25Z</time>
      </trkpt>
      <trkpt lat="45.83608" lon="-0.67818">
        <ele>4</ele>
        <time>2017-06-25T08:22:32Z</time>
      </trkpt>
      <trkpt lat="45.83608" lon="-0.67817">
        <ele>4</ele>
        <time>2017-06-25T08:22:41Z</time>
      </trkpt>
      <trkpt lat="45.83609" lon="-0.67816">
        <ele>4</ele>
        <time>2017-06-25T08:22:57Z</time>
      </trkpt>
      <trkpt lat="45.8361" lon="-0.67816">
        <ele>4</ele>
        <time>2017-06-25T08:23:03Z</time>
      </trkpt>
      <trkpt lat="45.83611" lon="-0.67816">
        <ele>4</ele>
        <time>2017-06-25T08:23:07Z</time>
      </trkpt>
      <trkpt lat="45.83612" lon="-0.67817">
        <ele>4</ele>
        <time>2017-06-25T08:23:10Z</time>
      </trkpt>
      <trkpt lat="45.83613" lon="-0.67816">
        <ele>4</ele>
        <time>2017-06-25T08:23:13Z</time>
      </trkpt>
      <trkpt lat="45.83614" lon="-0.67815">
        <ele>4</ele>
        <time>2017-06-25T08:23:16Z</time>
      </trkpt>
      <trkpt lat="45.83614" lon="-0.67814">
        <ele>4</ele>
        <time>2017-06-25T08:23:20Z</time>
      </trkpt>
      <trkpt lat="45.83614" lon="-0.67813">
        <ele>4</ele>
        <time>2017-06-25T08:23:34Z</time>
      </trkpt>
      <trkpt lat="45.83614" lon="-0.67812">
        <ele>3</ele>
        <time>2017-06-25T08:23:46Z</time>
      </trkpt>
      <trkpt lat="45.83614" lon="-0.6781">
        <ele>3</ele>
        <time>2017-06-25T08:23:53Z</time>
      </trkpt>
      <trkpt lat="45.83614" lon="-0.67809">
        <ele>3</ele>
        <time>2017-06-25T08:23:59Z</time>
      </trkpt>
      <trkpt lat="45.83613" lon="-0.67808">
        <ele>3</ele>
        <time>2017-06-25T08:24:06Z</time>
      </trkpt>
      <trkpt lat="45.83614" lon="-0.67807">
        <ele>3</ele>
        <time>2017-06-25T08:24:16Z</time>
      </trkpt>
      <trkpt lat="45.83614" lon="-0.67808">
        <ele>3</ele>
        <time>2017-06-25T08:24:36Z</time>
      </trkpt>
      <trkpt lat="45.83613" lon="-0.67809">
        <ele>3</ele>
        <time>2017-06-25T08:24:45Z</time>
      </trkpt>
      <trkpt lat="45.83612" lon="-0.6781">
        <ele>4</ele>
        <time>2017-06-25T08:24:55Z</time>
      </trkpt>
      <trkpt lat="45.83613" lon="-0.67811">
        <ele>4</ele>
        <time>2017-06-25T08:25:13Z</time>
      </trkpt>
      <trkpt lat="45.83615" lon="-0.67813">
        <ele>3</ele>
        <time>2017-06-25T08:25:16Z</time>
      </trkpt>
      <trkpt lat="45.83616" lon="-0.67814">
        <ele>3</ele>
        <time>2017-06-25T08:25:17Z</time>
      </trkpt>
      <trkpt lat="45.83616" lon="-0.67813">
        <ele>3</ele>
        <time>2017-06-25T08:25:28Z</time>
      </trkpt>
      <trkpt lat="45.83617" lon="-0.67813">
        <ele>3</ele>
        <time>2017-06-25T08:25:36Z</time>
      </trkpt>
      <trkpt lat="45.83618" lon="-0.67814">
        <ele>3</ele>
        <time>2017-06-25T08:25:38Z</time>
      </trkpt>
      <trkpt lat="45.83619" lon="-0.67815">
        <ele>3</ele>
        <time>2017-06-25T08:25:51Z</time>
      </trkpt>
      <trkpt lat="45.8362" lon="-0.67815">
        <ele>3</ele>
        <time>2017-06-25T08:25:54Z</time>
      </trkpt>
      <trkpt lat="45.83622" lon="-0.67816">
        <ele>3</ele>
        <time>2017-06-25T08:25:56Z</time>
      </trkpt>
      <trkpt lat="45.83623" lon="-0.67816">
        <ele>3</ele>
        <time>2017-06-25T08:25:57Z</time>
      </trkpt>
      <trkpt lat="45.83624" lon="-0.67816">
        <ele>3</ele>
        <time>2017-06-25T08:25:58Z</time>
      </trkpt>
      <trkpt lat="45.83625" lon="-0.67816">
        <ele>3</ele>
        <time>2017-06-25T08:25:59Z</time>
      </trkpt>
      <trkpt lat="45.83627" lon="-0.67814">
        <ele>3</ele>
        <time>2017-06-25T08:26:00Z</time>
      </trkpt>
      <trkpt lat="45.83629" lon="-0.67812">
        <ele>3</ele>
        <time>2017-06-25T08:26:01Z</time>
      </trkpt>
      <trkpt lat="45.83632" lon="-0.67811">
        <ele>3</ele>
        <time>2017-06-25T08:26:02Z</time>
      </trkpt>
      <trkpt lat="45.83634" lon="-0.6781">
        <ele>3</ele>
        <time>2017-06-25T08:26:03Z</time>
      </trkpt>
      <trkpt lat="45.83636" lon="-0.6781">
        <ele>3</ele>
        <time>2017-06-25T08:26:04Z</time>
      </trkpt>
      <trkpt lat="45.83638" lon="-0.67811">
        <ele>3</ele>
        <time>2017-06-25T08:26:05Z</time>
      </trkpt>
      <trkpt lat="45.8364" lon="-0.6781">
        <ele>3</ele>
        <time>2017-06-25T08:26:06Z</time>
      </trkpt>
      <trkpt lat="45.83642" lon="-0.6781">
        <ele>3</ele>
        <time>2017-06-25T08:26:07Z</time>
      </trkpt>
      <trkpt lat="45.83643" lon="-0.67809">
        <ele>3</ele>
        <time>2017-06-25T08:26:08Z</time>
      </trkpt>
      <trkpt lat="45.83644" lon="-0.67808">
        <ele>3</ele>
        <time>2017-06-25T08:26:09Z</time>
      </trkpt>
      <trkpt lat="45.83645" lon="-0.67807">
        <ele>3</ele>
        <time>2017-06-25T08:26:10Z</time>
      </trkpt>
      <trkpt lat="45.83646" lon="-0.67806">
        <ele>3</ele>
        <time>2017-06-25T08:26:11Z</time>
      </trkpt>
      <trkpt lat="45.83647" lon="-0.67804">
        <ele>3</ele>
        <time>2017-06-25T08:26:13Z</time>
      </trkpt>
      <trkpt lat="45.83648" lon="-0.67803">
        <ele>3</ele>
        <time>2017-06-25T08:26:14Z</time>
      </trkpt>
      <trkpt lat="45.83648" lon="-0.67801">
        <ele>3</ele>
        <time>2017-06-25T08:26:16Z</time>
      </trkpt>
      <trkpt lat="45.83649" lon="-0.67799">
        <ele>3</ele>
        <time>2017-06-25T08:26:18Z</time>
      </trkpt>
      <trkpt lat="45.83649" lon="-0.67797">
        <ele>3</ele>
        <time>2017-06-25T08:26:20Z</time>
      </trkpt>
      <trkpt lat="45.83649" lon="-0.67796">
        <ele>3</ele>
        <time>2017-06-25T08:26:21Z</time>
      </trkpt>
      <trkpt lat="45.83649" lon="-0.67794">
        <ele>3</ele>
        <time>2017-06-25T08:26:22Z</time>
      </trkpt>
      <trkpt lat="45.83649" lon="-0.67792">
        <ele>3</ele>
        <time>2017-06-25T08:26:23Z</time>
      </trkpt>
      <trkpt lat="45.83649" lon="-0.67791">
        <ele>3</ele>
        <time>2017-06-25T08:26:24Z</time>
      </trkpt>
      <trkpt lat="45.83649" lon="-0.67789">
        <ele>3</ele>
        <time>2017-06-25T08:26:25Z</time>
      </trkpt>
      <trkpt lat="45.83649" lon="-0.67787">
        <ele>3</ele>
        <time>2017-06-25T08:26:27Z</time>
      </trkpt>
      <trkpt lat="45.83648" lon="-0.67786">
        <ele>3</ele>
        <time>2017-06-25T08:26:28Z</time>
      </trkpt>
      <trkpt lat="45.83648" lon="-0.67784">
        <ele>3</ele>
        <time>2017-06-25T08:26:30Z</time>
      </trkpt>
      <trkpt lat="45.83646" lon="-0.67784">
        <ele>3</ele>
        <time>2017-06-25T08:26:31Z</time>
      </trkpt>
      <trkpt lat="45.83645" lon="-0.67783">
        <ele>3</ele>
        <time>2017-06-25T08:26:32Z</time>
      </trkpt>
      <trkpt lat="45.83641" lon="-0.67782">
        <ele>3</ele>
        <time>2017-06-25T08:26:33Z</time>
      </trkpt>
      <trkpt lat="45.83641" lon="-0.67779">
        <ele>3</ele>
        <time>2017-06-25T08:26:34Z</time>
      </trkpt>
      <trkpt lat="45.8364" lon="-0.67777">
        <ele>3</ele>
        <time>2017-06-25T08:26:35Z</time>
      </trkpt>
      <trkpt lat="45.8364" lon="-0.67775">
        <ele>3</ele>
        <time>2017-06-25T08:26:36Z</time>
      </trkpt>
      <trkpt lat="45.8364" lon="-0.67773">
        <ele>3</ele>
        <time>2017-06-25T08:26:37Z</time>
      </trkpt>
      <trkpt lat="45.8364" lon="-0.67771">
        <ele>3</ele>
        <time>2017-06-25T08:26:38Z</time>
      </trkpt>
      <trkpt lat="45.8364" lon="-0.67768">
        <ele>3</ele>
        <time>2017-06-25T08:26:39Z</time>
      </trkpt>
      <trkpt lat="45.8364" lon="-0.67766">
        <ele>3</ele>
        <time>2017-06-25T08:26:40Z</time>
      </trkpt>
      <trkpt lat="45.8364" lon="-0.67764">
        <ele>3</ele>
        <time>2017-06-25T08:26:41Z</time>
      </trkpt>
      <trkpt lat="45.8364" lon="-0.67762">
        <ele>3</ele>
        <time>2017-06-25T08:26:42Z</time>
      </trkpt>
      <trkpt lat="45.8364" lon="-0.67761">
        <ele>3</ele>
        <time>2017-06-25T08:26:43Z</time>
      </trkpt>
      <trkpt lat="45.8364" lon="-0.67759">
        <ele>3</ele>
        <time>2017-06-25T08:26:44Z</time>
      </trkpt>
      <trkpt lat="45.83641" lon="-0.67757">
        <ele>3</ele>
        <time>2017-06-25T08:26:45Z</time>
      </trkpt>
      <trkpt lat="45.83641" lon="-0.67754">
        <ele>3</ele>
        <time>2017-06-25T08:26:47Z</time>
      </trkpt>
      <trkpt lat="45.83641" lon="-0.67752">
        <ele>3</ele>
        <time>2017-06-25T08:26:49Z</time>
      </trkpt>
      <trkpt lat="45.83641" lon="-0.6775">
        <ele>3</ele>
        <time>2017-06-25T08:26:51Z</time>
      </trkpt>
      <trkpt lat="45.83641" lon="-0.67749">
        <ele>3</ele>
        <time>2017-06-25T08:26:53Z</time>
      </trkpt>
      <trkpt lat="45.83641" lon="-0.67747">
        <ele>3</ele>
        <time>2017-06-25T08:26:56Z</time>
      </trkpt>
      <trkpt lat="45.83641" lon="-0.67746">
        <ele>3</ele>
        <time>2017-06-25T08:26:59Z</time>
      </trkpt>
      <trkpt lat="45.83641" lon="-0.67744">
        <ele>3</ele>
        <time>2017-06-25T08:27:01Z</time>
      </trkpt>
      <trkpt lat="45.8364" lon="-0.67743">
        <ele>3</ele>
        <time>2017-06-25T08:27:08Z</time>
      </trkpt>
      <trkpt lat="45.83641" lon="-0.67744">
        <ele>3</ele>
        <time>2017-06-25T08:27:13Z</time>
      </trkpt>
      <trkpt lat="45.83642" lon="-0.67743">
        <ele>3</ele>
        <time>2017-06-25T08:27:15Z</time>
      </trkpt>
      <trkpt lat="45.83642" lon="-0.67741">
        <ele>3</ele>
        <time>2017-06-25T08:27:21Z</time>
      </trkpt>
      <trkpt lat="45.83644" lon="-0.67739">
        <ele>3</ele>
        <time>2017-06-25T08:27:23Z</time>
      </trkpt>
      <trkpt lat="45.83645" lon="-0.67738">
        <ele>3</ele>
        <time>2017-06-25T08:27:24Z</time>
      </trkpt>
      <trkpt lat="45.83646" lon="-0.67737">
        <ele>3</ele>
        <time>2017-06-25T08:27:26Z</time>
      </trkpt>
      <trkpt lat="45.83647" lon="-0.67736">
        <ele>3</ele>
        <time>2017-06-25T08:27:28Z</time>
      </trkpt>
      <trkpt lat="45.83648" lon="-0.67734">
        <ele>3</ele>
        <time>2017-06-25T08:27:31Z</time>
      </trkpt>
      <trkpt lat="45.8365" lon="-0.67733">
        <ele>3</ele>
        <time>2017-06-25T08:27:32Z</time>
      </trkpt>
      <trkpt lat="45.83652" lon="-0.67732">
        <ele>3</ele>
        <time>2017-06-25T08:27:34Z</time>
      </trkpt>
      <trkpt lat="45.83653" lon="-0.67732">
        <ele>3</ele>
        <time>2017-06-25T08:27:35Z</time>
      </trkpt>
      <trkpt lat="45.83654" lon="-0.6773">
        <ele>3</ele>
        <time>2017-06-25T08:27:36Z</time>
      </trkpt>
      <trkpt lat="45.83656" lon="-0.6773">
        <ele>3</ele>
        <time>2017-06-25T08:27:38Z</time>
      </trkpt>
      <trkpt lat="45.83657" lon="-0.6773">
        <ele>3</ele>
        <time>2017-06-25T08:27:39Z</time>
      </trkpt>
      <trkpt lat="45.83658" lon="-0.67729">
        <ele>3</ele>
        <time>2017-06-25T08:27:40Z</time>
      </trkpt>
      <trkpt lat="45.83659" lon="-0.67729">
        <ele>3</ele>
        <time>2017-06-25T08:27:41Z</time>
      </trkpt>
      <trkpt lat="45.8366" lon="-0.67729">
        <ele>3</ele>
        <time>2017-06-25T08:27:42Z</time>
      </trkpt>
      <trkpt lat="45.83663" lon="-0.6773">
        <ele>3</ele>
        <time>2017-06-25T08:27:44Z</time>
      </trkpt>
      <trkpt lat="45.83664" lon="-0.67729">
        <ele>3</ele>
        <time>2017-06-25T08:27:45Z</time>
      </trkpt>
      <trkpt lat="45.83667" lon="-0.67728">
        <ele>3</ele>
        <time>2017-06-25T08:27:46Z</time>
      </trkpt>
      <trkpt lat="45.83668" lon="-0.67727">
        <ele>3</ele>
        <time>2017-06-25T08:27:47Z</time>
      </trkpt>
      <trkpt lat="45.83669" lon="-0.67726">
        <ele>3</ele>
        <time>2017-06-25T08:27:48Z</time>
      </trkpt>
      <trkpt lat="45.8367" lon="-0.67725">
        <ele>3</ele>
        <time>2017-06-25T08:27:49Z</time>
      </trkpt>
      <trkpt lat="45.83672" lon="-0.67724">
        <ele>3</ele>
        <time>2017-06-25T08:27:50Z</time>
      </trkpt>
      <trkpt lat="45.83674" lon="-0.67723">
        <ele>3</ele>
        <time>2017-06-25T08:27:51Z</time>
      </trkpt>
      <trkpt lat="45.83675" lon="-0.67721">
        <ele>3</ele>
        <time>2017-06-25T08:27:52Z</time>
      </trkpt>
      <trkpt lat="45.83676" lon="-0.6772">
        <ele>3</ele>
        <time>2017-06-25T08:27:53Z</time>
      </trkpt>
      <trkpt lat="45.83677" lon="-0.6772">
        <ele>3</ele>
        <time>2017-06-25T08:27:55Z</time>
      </trkpt>
      <trkpt lat="45.83678" lon="-0.6772">
        <ele>4</ele>
        <time>2017-06-25T08:27:56Z</time>
      </trkpt>
      <trkpt lat="45.83679" lon="-0.67719">
        <ele>4</ele>
        <time>2017-06-25T08:27:59Z</time>
      </trkpt>
      <trkpt lat="45.8368" lon="-0.67717">
        <ele>4</ele>
        <time>2017-06-25T08:28:01Z</time>
      </trkpt>
      <trkpt lat="45.83682" lon="-0.67716">
        <ele>4</ele>
        <time>2017-06-25T08:28:03Z</time>
      </trkpt>
      <trkpt lat="45.83683" lon="-0.67715">
        <ele>4</ele>
        <time>2017-06-25T08:28:04Z</time>
      </trkpt>
      <trkpt lat="45.83683" lon="-0.67715">
        <ele>4</ele>
        <time>2017-06-25T08:28:06Z</time>
      </trkpt>
      <trkpt lat="45.83685" lon="-0.67714">
        <ele>4</ele>
        <time>2017-06-25T08:28:08Z</time>
      </trkpt>
      <trkpt lat="45.83685" lon="-0.67713">
        <ele>4</ele>
        <time>2017-06-25T08:28:09Z</time>
      </trkpt>
      <trkpt lat="45.83686" lon="-0.67712">
        <ele>4</ele>
        <time>2017-06-25T08:28:12Z</time>
      </trkpt>
      <trkpt lat="45.83687" lon="-0.67712">
        <ele>4</ele>
        <time>2017-06-25T08:28:15Z</time>
      </trkpt>
      <trkpt lat="45.83688" lon="-0.67711">
        <ele>4</ele>
        <time>2017-06-25T08:28:16Z</time>
      </trkpt>
      <trkpt lat="45.83688" lon="-0.67709">
        <ele>4</ele>
        <time>2017-06-25T08:28:18Z</time>
      </trkpt>
      <trkpt lat="45.83691" lon="-0.67706">
        <ele>4</ele>
        <time>2017-06-25T08:28:20Z</time>
      </trkpt>
      <trkpt lat="45.83693" lon="-0.67704">
        <ele>4</ele>
        <time>2017-06-25T08:28:21Z</time>
      </trkpt>
      <trkpt lat="45.83693" lon="-0.67703">
        <ele>4</ele>
        <time>2017-06-25T08:28:22Z</time>
      </trkpt>
      <trkpt lat="45.83695" lon="-0.67701">
        <ele>4</ele>
        <time>2017-06-25T08:28:24Z</time>
      </trkpt>
      <trkpt lat="45.83697" lon="-0.677">
        <ele>4</ele>
        <time>2017-06-25T08:28:25Z</time>
      </trkpt>
      <trkpt lat="45.83699" lon="-0.67699">
        <ele>4</ele>
        <time>2017-06-25T08:28:26Z</time>
      </trkpt>
      <trkpt lat="45.83701" lon="-0.67698">
        <ele>4</ele>
        <time>2017-06-25T08:28:28Z</time>
      </trkpt>
      <trkpt lat="45.83703" lon="-0.67698">
        <ele>4</ele>
        <time>2017-06-25T08:28:29Z</time>
      </trkpt>
      <trkpt lat="45.83703" lon="-0.67697">
        <ele>4</ele>
        <time>2017-06-25T08:28:30Z</time>
      </trkpt>
      <trkpt lat="45.83704" lon="-0.67697">
        <ele>4</ele>
        <time>2017-06-25T08:28:31Z</time>
      </trkpt>
      <trkpt lat="45.83705" lon="-0.67697">
        <ele>4</ele>
        <time>2017-06-25T08:28:32Z</time>
      </trkpt>
      <trkpt lat="45.83707" lon="-0.67695">
        <ele>4</ele>
        <time>2017-06-25T08:28:34Z</time>
      </trkpt>
      <trkpt lat="45.83709" lon="-0.67693">
        <ele>4</ele>
        <time>2017-06-25T08:28:37Z</time>
      </trkpt>
      <trkpt lat="45.8371" lon="-0.67692">
        <ele>4</ele>
        <time>2017-06-25T08:28:38Z</time>
      </trkpt>
      <trkpt lat="45.83711" lon="-0.6769">
        <ele>4</ele>
        <time>2017-06-25T08:28:39Z</time>
      </trkpt>
      <trkpt lat="45.83712" lon="-0.67691">
        <ele>4</ele>
        <time>2017-06-25T08:28:40Z</time>
      </trkpt>
      <trkpt lat="45.83714" lon="-0.6769">
        <ele>4</ele>
        <time>2017-06-25T08:28:41Z</time>
      </trkpt>
      <trkpt lat="45.83715" lon="-0.67688">
        <ele>4</ele>
        <time>2017-06-25T08:28:42Z</time>
      </trkpt>
      <trkpt lat="45.83717" lon="-0.67686">
        <ele>4</ele>
        <time>2017-06-25T08:28:43Z</time>
      </trkpt>
      <trkpt lat="45.83719" lon="-0.67684">
        <ele>4</ele>
        <time>2017-06-25T08:28:44Z</time>
      </trkpt>
      <trkpt lat="45.83722" lon="-0.67682">
        <ele>3</ele>
        <time>2017-06-25T08:28:46Z</time>
      </trkpt>
      <trkpt lat="45.83725" lon="-0.67679">
        <ele>3</ele>
        <time>2017-06-25T08:28:47Z</time>
      </trkpt>
      <trkpt lat="45.83727" lon="-0.67677">
        <ele>3</ele>
        <time>2017-06-25T08:28:48Z</time>
      </trkpt>
      <trkpt lat="45.83729" lon="-0.67675">
        <ele>3</ele>
        <time>2017-06-25T08:28:49Z</time>
      </trkpt>
      <trkpt lat="45.83731" lon="-0.67672">
        <ele>3</ele>
        <time>2017-06-25T08:28:50Z</time>
      </trkpt>
      <trkpt lat="45.83733" lon="-0.6767">
        <ele>3</ele>
        <time>2017-06-25T08:28:51Z</time>
      </trkpt>
      <trkpt lat="45.83733" lon="-0.67669">
        <ele>3</ele>
        <time>2017-06-25T08:28:52Z</time>
      </trkpt>
      <trkpt lat="45.83735" lon="-0.67668">
        <ele>3</ele>
        <time>2017-06-25T08:28:53Z</time>
      </trkpt>
      <trkpt lat="45.83736" lon="-0.67668">
        <ele>3</ele>
        <time>2017-06-25T08:28:54Z</time>
      </trkpt>
      <trkpt lat="45.83738" lon="-0.67667">
        <ele>3</ele>
        <time>2017-06-25T08:28:55Z</time>
      </trkpt>
      <trkpt lat="45.83739" lon="-0.67667">
        <ele>3</ele>
        <time>2017-06-25T08:28:56Z</time>
      </trkpt>
      <trkpt lat="45.8374" lon="-0.67665">
        <ele>3</ele>
        <time>2017-06-25T08:28:58Z</time>
      </trkpt>
      <trkpt lat="45.83741" lon="-0.67665">
        <ele>3</ele>
        <time>2017-06-25T08:29:01Z</time>
      </trkpt>
      <trkpt lat="45.83743" lon="-0.67664">
        <ele>3</ele>
        <time>2017-06-25T08:29:03Z</time>
      </trkpt>
      <trkpt lat="45.83744" lon="-0.67663">
        <ele>3</ele>
        <time>2017-06-25T08:29:04Z</time>
      </trkpt>
      <trkpt lat="45.83744" lon="-0.67662">
        <ele>3</ele>
        <time>2017-06-25T08:29:05Z</time>
      </trkpt>
      <trkpt lat="45.83746" lon="-0.67661">
        <ele>3</ele>
        <time>2017-06-25T08:29:06Z</time>
      </trkpt>
      <trkpt lat="45.83747" lon="-0.67659">
        <ele>3</ele>
        <time>2017-06-25T08:29:07Z</time>
      </trkpt>
      <trkpt lat="45.83748" lon="-0.67657">
        <ele>3</ele>
        <time>2017-06-25T08:29:08Z</time>
      </trkpt>
      <trkpt lat="45.83748" lon="-0.67657">
        <ele>3</ele>
        <time>2017-06-25T08:29:10Z</time>
      </trkpt>
      <trkpt lat="45.83749" lon="-0.67655">
        <ele>3</ele>
        <time>2017-06-25T08:29:12Z</time>
      </trkpt>
      <trkpt lat="45.83751" lon="-0.67654">
        <ele>2</ele>
        <time>2017-06-25T08:29:14Z</time>
      </trkpt>
      <trkpt lat="45.83752" lon="-0.67653">
        <ele>2</ele>
        <time>2017-06-25T08:29:16Z</time>
      </trkpt>
      <trkpt lat="45.83754" lon="-0.67652">
        <ele>2</ele>
        <time>2017-06-25T08:29:18Z</time>
      </trkpt>
      <trkpt lat="45.83755" lon="-0.67651">
        <ele>2</ele>
        <time>2017-06-25T08:29:19Z</time>
      </trkpt>
      <trkpt lat="45.83756" lon="-0.67649">
        <ele>2</ele>
        <time>2017-06-25T08:29:20Z</time>
      </trkpt>
      <trkpt lat="45.83758" lon="-0.67648">
        <ele>2</ele>
        <time>2017-06-25T08:29:21Z</time>
      </trkpt>
      <trkpt lat="45.83759" lon="-0.67647">
        <ele>2</ele>
        <time>2017-06-25T08:29:22Z</time>
      </trkpt>
      <trkpt lat="45.83761" lon="-0.67647">
        <ele>2</ele>
        <time>2017-06-25T08:29:23Z</time>
      </trkpt>
      <trkpt lat="45.83763" lon="-0.67645">
        <ele>2</ele>
        <time>2017-06-25T08:29:24Z</time>
      </trkpt>
      <trkpt lat="45.83765" lon="-0.67643">
        <ele>2</ele>
        <time>2017-06-25T08:29:25Z</time>
      </trkpt>
      <trkpt lat="45.83767" lon="-0.67641">
        <ele>2</ele>
        <time>2017-06-25T08:29:26Z</time>
      </trkpt>
      <trkpt lat="45.83768" lon="-0.6764">
        <ele>2</ele>
        <time>2017-06-25T08:29:27Z</time>
      </trkpt>
      <trkpt lat="45.83769" lon="-0.67638">
        <ele>2</ele>
        <time>2017-06-25T08:29:28Z</time>
      </trkpt>
      <trkpt lat="45.83771" lon="-0.67637">
        <ele>2</ele>
        <time>2017-06-25T08:29:29Z</time>
      </trkpt>
      <trkpt lat="45.83772" lon="-0.67636">
        <ele>2</ele>
        <time>2017-06-25T08:29:30Z</time>
      </trkpt>
      <trkpt lat="45.83774" lon="-0.67634">
        <ele>2</ele>
        <time>2017-06-25T08:29:31Z</time>
      </trkpt>
      <trkpt lat="45.83776" lon="-0.67634">
        <ele>2</ele>
        <time>2017-06-25T08:29:32Z</time>
      </trkpt>
      <trkpt lat="45.83778" lon="-0.67633">
        <ele>2</ele>
        <time>2017-06-25T08:29:33Z</time>
      </trkpt>
      <trkpt lat="45.8378" lon="-0.67632">
        <ele>2</ele>
        <time>2017-06-25T08:29:34Z</time>
      </trkpt>
      <trkpt lat="45.83781" lon="-0.67631">
        <ele>2</ele>
        <time>2017-06-25T08:29:35Z</time>
      </trkpt>
      <trkpt lat="45.83783" lon="-0.67631">
        <ele>2</ele>
        <time>2017-06-25T08:29:36Z</time>
      </trkpt>
      <trkpt lat="45.83784" lon="-0.6763">
        <ele>2</ele>
        <time>2017-06-25T08:29:37Z</time>
      </trkpt>
      <trkpt lat="45.83786" lon="-0.6763">
        <ele>2</ele>
        <time>2017-06-25T08:29:38Z</time>
      </trkpt>
      <trkpt lat="45.83787" lon="-0.67629">
        <ele>2</ele>
        <time>2017-06-25T08:29:39Z</time>
      </trkpt>
      <trkpt lat="45.83789" lon="-0.67628">
        <ele>2</ele>
        <time>2017-06-25T08:29:40Z</time>
      </trkpt>
      <trkpt lat="45.83791" lon="-0.67627">
        <ele>2</ele>
        <time>2017-06-25T08:29:41Z</time>
      </trkpt>
      <trkpt lat="45.83792" lon="-0.67627">
        <ele>2</ele>
        <time>2017-06-25T08:29:42Z</time>
      </trkpt>
      <trkpt lat="45.83794" lon="-0.67626">
        <ele>2</ele>
        <time>2017-06-25T08:29:43Z</time>
      </trkpt>
      <trkpt lat="45.83795" lon="-0.67624">
        <ele>2</ele>
        <time>2017-06-25T08:29:44Z</time>
      </trkpt>
      <trkpt lat="45.83796" lon="-0.67624">
        <ele>2</ele>
        <time>2017-06-25T08:29:45Z</time>
      </trkpt>
      <trkpt lat="45.83798" lon="-0.67623">
        <ele>2</ele>
        <time>2017-06-25T08:29:46Z</time>
      </trkpt>
      <trkpt lat="45.83799" lon="-0.67622">
        <ele>2</ele>
        <time>2017-06-25T08:29:47Z</time>
      </trkpt>
      <trkpt lat="45.838" lon="-0.67622">
        <ele>2</ele>
        <time>2017-06-25T08:29:48Z</time>
      </trkpt>
      <trkpt lat="45.83801" lon="-0.67621">
        <ele>2</ele>
        <time>2017-06-25T08:29:49Z</time>
      </trkpt>
      <trkpt lat="45.83802" lon="-0.67619">
        <ele>2</ele>
        <time>2017-06-25T08:29:50Z</time>
      </trkpt>
      <trkpt lat="45.83804" lon="-0.67618">
        <ele>2</ele>
        <time>2017-06-25T08:29:51Z</time>
      </trkpt>
      <trkpt lat="45.83804" lon="-0.67617">
        <ele>2</ele>
        <time>2017-06-25T08:29:52Z</time>
      </trkpt>
      <trkpt lat="45.83806" lon="-0.67616">
        <ele>2</ele>
        <time>2017-06-25T08:29:53Z</time>
      </trkpt>
      <trkpt lat="45.83807" lon="-0.67616">
        <ele>2</ele>
        <time>2017-06-25T08:29:54Z</time>
      </trkpt>
      <trkpt lat="45.83808" lon="-0.67615">
        <ele>2</ele>
        <time>2017-06-25T08:29:56Z</time>
      </trkpt>
      <trkpt lat="45.83809" lon="-0.67615">
        <ele>2</ele>
        <time>2017-06-25T08:29:57Z</time>
      </trkpt>
      <trkpt lat="45.8381" lon="-0.67614">
        <ele>2</ele>
        <time>2017-06-25T08:29:58Z</time>
      </trkpt>
      <trkpt lat="45.83811" lon="-0.67613">
        <ele>2</ele>
        <time>2017-06-25T08:29:59Z</time>
      </trkpt>
      <trkpt lat="45.83812" lon="-0.67612">
        <ele>2</ele>
        <time>2017-06-25T08:30:00Z</time>
      </trkpt>
      <trkpt lat="45.83814" lon="-0.67611">
        <ele>2</ele>
        <time>2017-06-25T08:30:01Z</time>
      </trkpt>
      <trkpt lat="45.83814" lon="-0.6761">
        <ele>2</ele>
        <time>2017-06-25T08:30:02Z</time>
      </trkpt>
      <trkpt lat="45.83815" lon="-0.67609">
        <ele>2</ele>
        <time>2017-06-25T08:30:04Z</time>
      </trkpt>
      <trkpt lat="45.83816" lon="-0.67608">
        <ele>2</ele>
        <time>2017-06-25T08:30:06Z</time>
      </trkpt>
      <trkpt lat="45.83817" lon="-0.67607">
        <ele>2</ele>
        <time>2017-06-25T08:30:07Z</time>
      </trkpt>
      <trkpt lat="45.83818" lon="-0.67607">
        <ele>2</ele>
        <time>2017-06-25T08:30:08Z</time>
      </trkpt>
      <trkpt lat="45.83819" lon="-0.67606">
        <ele>2</ele>
        <time>2017-06-25T08:30:10Z</time>
      </trkpt>
      <trkpt lat="45.83822" lon="-0.67605">
        <ele>2</ele>
        <time>2017-06-25T08:30:13Z</time>
      </trkpt>
      <trkpt lat="45.83824" lon="-0.67603">
        <ele>2</ele>
        <time>2017-06-25T08:30:15Z</time>
      </trkpt>
      <trkpt lat="45.83825" lon="-0.67602">
        <ele>2</ele>
        <time>2017-06-25T08:30:17Z</time>
      </trkpt>
      <trkpt lat="45.83826" lon="-0.676">
        <ele>2</ele>
        <time>2017-06-25T08:30:18Z</time>
      </trkpt>
      <trkpt lat="45.83827" lon="-0.67599">
        <ele>2</ele>
        <time>2017-06-25T08:30:19Z</time>
      </trkpt>
      <trkpt lat="45.83828" lon="-0.67598">
        <ele>2</ele>
        <time>2017-06-25T08:30:20Z</time>
      </trkpt>
      <trkpt lat="45.83829" lon="-0.67597">
        <ele>2</ele>
        <time>2017-06-25T08:30:21Z</time>
      </trkpt>
      <trkpt lat="45.8383" lon="-0.67596">
        <ele>2</ele>
        <time>2017-06-25T08:30:22Z</time>
      </trkpt>
      <trkpt lat="45.83832" lon="-0.67595">
        <ele>2</ele>
        <time>2017-06-25T08:30:24Z</time>
      </trkpt>
      <trkpt lat="45.83834" lon="-0.67594">
        <ele>2</ele>
        <time>2017-06-25T08:30:26Z</time>
      </trkpt>
      <trkpt lat="45.83835" lon="-0.67593">
        <ele>2</ele>
        <time>2017-06-25T08:30:28Z</time>
      </trkpt>
      <trkpt lat="45.83836" lon="-0.67593">
        <ele>2</ele>
        <time>2017-06-25T08:30:29Z</time>
      </trkpt>
      <trkpt lat="45.83838" lon="-0.67591">
        <ele>2</ele>
        <time>2017-06-25T08:30:30Z</time>
      </trkpt>
      <trkpt lat="45.83839" lon="-0.6759">
        <ele>2</ele>
        <time>2017-06-25T08:30:31Z</time>
      </trkpt>
      <trkpt lat="45.8384" lon="-0.67589">
        <ele>2</ele>
        <time>2017-06-25T08:30:32Z</time>
      </trkpt>
      <trkpt lat="45.83841" lon="-0.67588">
        <ele>2</ele>
        <time>2017-06-25T08:30:33Z</time>
      </trkpt>
      <trkpt lat="45.83843" lon="-0.67587">
        <ele>2</ele>
        <time>2017-06-25T08:30:34Z</time>
      </trkpt>
      <trkpt lat="45.83844" lon="-0.67585">
        <ele>2</ele>
        <time>2017-06-25T08:30:35Z</time>
      </trkpt>
      <trkpt lat="45.83845" lon="-0.67584">
        <ele>2</ele>
        <time>2017-06-25T08:30:36Z</time>
      </trkpt>
      <trkpt lat="45.83847" lon="-0.67583">
        <ele>2</ele>
        <time>2017-06-25T08:30:37Z</time>
      </trkpt>
      <trkpt lat="45.83849" lon="-0.67582">
        <ele>2</ele>
        <time>2017-06-25T08:30:39Z</time>
      </trkpt>
      <trkpt lat="45.8385" lon="-0.67581">
        <ele>2</ele>
        <time>2017-06-25T08:30:41Z</time>
      </trkpt>
      <trkpt lat="45.83851" lon="-0.6758">
        <ele>2</ele>
        <time>2017-06-25T08:30:42Z</time>
      </trkpt>
      <trkpt lat="45.83852" lon="-0.67579">
        <ele>2</ele>
        <time>2017-06-25T08:30:43Z</time>
      </trkpt>
      <trkpt lat="45.83853" lon="-0.67578">
        <ele>2</ele>
        <time>2017-06-25T08:30:44Z</time>
      </trkpt>
      <trkpt lat="45.83854" lon="-0.67577">
        <ele>2</ele>
        <time>2017-06-25T08:30:45Z</time>
      </trkpt>
      <trkpt lat="45.83854" lon="-0.67576">
        <ele>2</ele>
        <time>2017-06-25T08:30:46Z</time>
      </trkpt>
      <trkpt lat="45.83855" lon="-0.67575">
        <ele>2</ele>
        <time>2017-06-25T08:30:47Z</time>
      </trkpt>
      <trkpt lat="45.83857" lon="-0.67573">
        <ele>2</ele>
        <time>2017-06-25T08:30:48Z</time>
      </trkpt>
      <trkpt lat="45.83857" lon="-0.67572">
        <ele>2</ele>
        <time>2017-06-25T08:30:49Z</time>
      </trkpt>
      <trkpt lat="45.83858" lon="-0.67571">
        <ele>2</ele>
        <time>2017-06-25T08:30:50Z</time>
      </trkpt>
      <trkpt lat="45.83859" lon="-0.6757">
        <ele>2</ele>
        <time>2017-06-25T08:30:51Z</time>
      </trkpt>
      <trkpt lat="45.8386" lon="-0.67569">
        <ele>2</ele>
        <time>2017-06-25T08:30:52Z</time>
      </trkpt>
      <trkpt lat="45.83861" lon="-0.67567">
        <ele>2</ele>
        <time>2017-06-25T08:30:54Z</time>
      </trkpt>
      <trkpt lat="45.83862" lon="-0.67566">
        <ele>2</ele>
        <time>2017-06-25T08:30:55Z</time>
      </trkpt>
      <trkpt lat="45.83863" lon="-0.67564">
        <ele>2</ele>
        <time>2017-06-25T08:30:57Z</time>
      </trkpt>
      <trkpt lat="45.83864" lon="-0.67563">
        <ele>2</ele>
        <time>2017-06-25T08:30:58Z</time>
      </trkpt>
      <trkpt lat="45.83865" lon="-0.67562">
        <ele>2</ele>
        <time>2017-06-25T08:30:59Z</time>
      </trkpt>
      <trkpt lat="45.83866" lon="-0.67561">
        <ele>2</ele>
        <time>2017-06-25T08:31:00Z</time>
      </trkpt>
      <trkpt lat="45.83867" lon="-0.6756">
        <ele>2</ele>
        <time>2017-06-25T08:31:01Z</time>
      </trkpt>
      <trkpt lat="45.83868" lon="-0.67559">
        <ele>2</ele>
        <time>2017-06-25T08:31:02Z</time>
      </trkpt>
      <trkpt lat="45.83869" lon="-0.67558">
        <ele>2</ele>
        <time>2017-06-25T08:31:03Z</time>
      </trkpt>
      <trkpt lat="45.8387" lon="-0.67557">
        <ele>2</ele>
        <time>2017-06-25T08:31:04Z</time>
      </trkpt>
      <trkpt lat="45.83871" lon="-0.67556">
        <ele>2</ele>
        <time>2017-06-25T08:31:05Z</time>
      </trkpt>
      <trkpt lat="45.83872" lon="-0.67555">
        <ele>2</ele>
        <time>2017-06-25T08:31:06Z</time>
      </trkpt>
      <trkpt lat="45.83873" lon="-0.67555">
        <ele>2</ele>
        <time>2017-06-25T08:31:07Z</time>
      </trkpt>
      <trkpt lat="45.83874" lon="-0.67554">
        <ele>2</ele>
        <time>2017-06-25T08:31:08Z</time>
      </trkpt>
      <trkpt lat="45.83876" lon="-0.67554">
        <ele>2</ele>
        <time>2017-06-25T08:31:09Z</time>
      </trkpt>
      <trkpt lat="45.83877" lon="-0.67553">
        <ele>2</ele>
        <time>2017-06-25T08:31:10Z</time>
      </trkpt>
      <trkpt lat="45.83878" lon="-0.67552">
        <ele>2</ele>
        <time>2017-06-25T08:31:11Z</time>
      </trkpt>
      <trkpt lat="45.8388" lon="-0.67551">
        <ele>2</ele>
        <time>2017-06-25T08:31:12Z</time>
      </trkpt>
      <trkpt lat="45.83881" lon="-0.67551">
        <ele>2</ele>
        <time>2017-06-25T08:31:13Z</time>
      </trkpt>
      <trkpt lat="45.83882" lon="-0.6755">
        <ele>2</ele>
        <time>2017-06-25T08:31:14Z</time>
      </trkpt>
      <trkpt lat="45.83883" lon="-0.6755">
        <ele>2</ele>
        <time>2017-06-25T08:31:15Z</time>
      </trkpt>
      <trkpt lat="45.83884" lon="-0.67549">
        <ele>2</ele>
        <time>2017-06-25T08:31:16Z</time>
      </trkpt>
      <trkpt lat="45.83885" lon="-0.67548">
        <ele>2</ele>
        <time>2017-06-25T08:31:18Z</time>
      </trkpt>
      <trkpt lat="45.83886" lon="-0.67548">
        <ele>2</ele>
        <time>2017-06-25T08:31:19Z</time>
      </trkpt>
      <trkpt lat="45.83887" lon="-0.67546">
        <ele>2</ele>
        <time>2017-06-25T08:31:20Z</time>
      </trkpt>
      <trkpt lat="45.83888" lon="-0.67545">
        <ele>2</ele>
        <time>2017-06-25T08:31:21Z</time>
      </trkpt>
      <trkpt lat="45.83889" lon="-0.67543">
        <ele>2</ele>
        <time>2017-06-25T08:31:22Z</time>
      </trkpt>
      <trkpt lat="45.83891" lon="-0.67542">
        <ele>2</ele>
        <time>2017-06-25T08:31:23Z</time>
      </trkpt>
      <trkpt lat="45.83892" lon="-0.6754">
        <ele>3</ele>
        <time>2017-06-25T08:31:24Z</time>
      </trkpt>
      <trkpt lat="45.83894" lon="-0.67539">
        <ele>3</ele>
        <time>2017-06-25T08:31:25Z</time>
      </trkpt>
      <trkpt lat="45.83896" lon="-0.67537">
        <ele>3</ele>
        <time>2017-06-25T08:31:26Z</time>
      </trkpt>
      <trkpt lat="45.83898" lon="-0.67536">
        <ele>3</ele>
        <time>2017-06-25T08:31:27Z</time>
      </trkpt>
      <trkpt lat="45.83899" lon="-0.67535">
        <ele>3</ele>
        <time>2017-06-25T08:31:28Z</time>
      </trkpt>
      <trkpt lat="45.83901" lon="-0.67535">
        <ele>3</ele>
        <time>2017-06-25T08:31:30Z</time>
      </trkpt>
      <trkpt lat="45.83902" lon="-0.67534">
        <ele>3</ele>
        <time>2017-06-25T08:31:31Z</time>
      </trkpt>
      <trkpt lat="45.83903" lon="-0.67532">
        <ele>3</ele>
        <time>2017-06-25T08:31:32Z</time>
      </trkpt>
      <trkpt lat="45.83904" lon="-0.67531">
        <ele>3</ele>
        <time>2017-06-25T08:31:34Z</time>
      </trkpt>
      <trkpt lat="45.83905" lon="-0.6753">
        <ele>3</ele>
        <time>2017-06-25T08:31:37Z</time>
      </trkpt>
      <trkpt lat="45.83906" lon="-0.67529">
        <ele>3</ele>
        <time>2017-06-25T08:31:38Z</time>
      </trkpt>
      <trkpt lat="45.83907" lon="-0.67528">
        <ele>3</ele>
        <time>2017-06-25T08:31:39Z</time>
      </trkpt>
      <trkpt lat="45.83909" lon="-0.67527">
        <ele>3</ele>
        <time>2017-06-25T08:31:41Z</time>
      </trkpt>
      <trkpt lat="45.8391" lon="-0.67526">
        <ele>3</ele>
        <time>2017-06-25T08:31:42Z</time>
      </trkpt>
      <trkpt lat="45.8391" lon="-0.67526">
        <ele>3</ele>
        <time>2017-06-25T08:31:43Z</time>
      </trkpt>
      <trkpt lat="45.83912" lon="-0.67525">
        <ele>3</ele>
        <time>2017-06-25T08:31:44Z</time>
      </trkpt>
      <trkpt lat="45.83913" lon="-0.67524">
        <ele>3</ele>
        <time>2017-06-25T08:31:46Z</time>
      </trkpt>
      <trkpt lat="45.83915" lon="-0.67523">
        <ele>3</ele>
        <time>2017-06-25T08:31:48Z</time>
      </trkpt>
      <trkpt lat="45.83917" lon="-0.67523">
        <ele>3</ele>
        <time>2017-06-25T08:31:49Z</time>
      </trkpt>
      <trkpt lat="45.83918" lon="-0.67522">
        <ele>2</ele>
        <time>2017-06-25T08:31:50Z</time>
      </trkpt>
      <trkpt lat="45.83919" lon="-0.67521">
        <ele>2</ele>
        <time>2017-06-25T08:31:51Z</time>
      </trkpt>
      <trkpt lat="45.8392" lon="-0.6752">
        <ele>2</ele>
        <time>2017-06-25T08:31:52Z</time>
      </trkpt>
      <trkpt lat="45.83922" lon="-0.67519">
        <ele>2</ele>
        <time>2017-06-25T08:31:53Z</time>
      </trkpt>
      <trkpt lat="45.83923" lon="-0.67519">
        <ele>2</ele>
        <time>2017-06-25T08:31:54Z</time>
      </trkpt>
      <trkpt lat="45.83924" lon="-0.67518">
        <ele>2</ele>
        <time>2017-06-25T08:31:55Z</time>
      </trkpt>
      <trkpt lat="45.83925" lon="-0.67517">
        <ele>2</ele>
        <time>2017-06-25T08:31:56Z</time>
      </trkpt>
      <trkpt lat="45.83927" lon="-0.67516">
        <ele>2</ele>
        <time>2017-06-25T08:31:57Z</time>
      </trkpt>
      <trkpt lat="45.83928" lon="-0.67515">
        <ele>2</ele>
        <time>2017-06-25T08:31:58Z</time>
      </trkpt>
      <trkpt lat="45.8393" lon="-0.67514">
        <ele>2</ele>
        <time>2017-06-25T08:31:59Z</time>
      </trkpt>
      <trkpt lat="45.83931" lon="-0.67512">
        <ele>2</ele>
        <time>2017-06-25T08:32:00Z</time>
      </trkpt>
      <trkpt lat="45.83933" lon="-0.67511">
        <ele>2</ele>
        <time>2017-06-25T08:32:01Z</time>
      </trkpt>
      <trkpt lat="45.83933" lon="-0.6751">
        <ele>2</ele>
        <time>2017-06-25T08:32:02Z</time>
      </trkpt>
      <trkpt lat="45.83934" lon="-0.67509">
        <ele>2</ele>
        <time>2017-06-25T08:32:03Z</time>
      </trkpt>
      <trkpt lat="45.83935" lon="-0.67508">
        <ele>2</ele>
        <time>2017-06-25T08:32:04Z</time>
      </trkpt>
      <trkpt lat="45.83936" lon="-0.67507">
        <ele>2</ele>
        <time>2017-06-25T08:32:05Z</time>
      </trkpt>
      <trkpt lat="45.83937" lon="-0.67506">
        <ele>2</ele>
        <time>2017-06-25T08:32:06Z</time>
      </trkpt>
      <trkpt lat="45.83938" lon="-0.67505">
        <ele>2</ele>
        <time>2017-06-25T08:32:07Z</time>
      </trkpt>
      <trkpt lat="45.8394" lon="-0.67504">
        <ele>2</ele>
        <time>2017-06-25T08:32:08Z</time>
      </trkpt>
      <trkpt lat="45.83941" lon="-0.67503">
        <ele>2</ele>
        <time>2017-06-25T08:32:09Z</time>
      </trkpt>
      <trkpt lat="45.83942" lon="-0.67502">
        <ele>2</ele>
        <time>2017-06-25T08:32:11Z</time>
      </trkpt>
      <trkpt lat="45.83943" lon="-0.67501">
        <ele>2</ele>
        <time>2017-06-25T08:32:13Z</time>
      </trkpt>
      <trkpt lat="45.83944" lon="-0.675">
        <ele>2</ele>
        <time>2017-06-25T08:32:14Z</time>
      </trkpt>
      <trkpt lat="45.83946" lon="-0.67499">
        <ele>2</ele>
        <time>2017-06-25T08:32:15Z</time>
      </trkpt>
      <trkpt lat="45.83947" lon="-0.67498">
        <ele>2</ele>
        <time>2017-06-25T08:32:16Z</time>
      </trkpt>
      <trkpt lat="45.83948" lon="-0.67498">
        <ele>2</ele>
        <time>2017-06-25T08:32:17Z</time>
      </trkpt>
      <trkpt lat="45.83949" lon="-0.67497">
        <ele>2</ele>
        <time>2017-06-25T08:32:19Z</time>
      </trkpt>
      <trkpt lat="45.8395" lon="-0.67496">
        <ele>2</ele>
        <time>2017-06-25T08:32:20Z</time>
      </trkpt>
      <trkpt lat="45.83951" lon="-0.67495">
        <ele>2</ele>
        <time>2017-06-25T08:32:21Z</time>
      </trkpt>
      <trkpt lat="45.83952" lon="-0.67495">
        <ele>2</ele>
        <time>2017-06-25T08:32:22Z</time>
      </trkpt>
      <trkpt lat="45.83953" lon="-0.67494">
        <ele>2</ele>
        <time>2017-06-25T08:32:23Z</time>
      </trkpt>
      <trkpt lat="45.83954" lon="-0.67493">
        <ele>2</ele>
        <time>2017-06-25T08:32:24Z</time>
      </trkpt>
      <trkpt lat="45.83955" lon="-0.67492">
        <ele>2</ele>
        <time>2017-06-25T08:32:25Z</time>
      </trkpt>
      <trkpt lat="45.83956" lon="-0.67491">
        <ele>2</ele>
        <time>2017-06-25T08:32:26Z</time>
      </trkpt>
      <trkpt lat="45.83958" lon="-0.67489">
        <ele>2</ele>
        <time>2017-06-25T08:32:27Z</time>
      </trkpt>
      <trkpt lat="45.83959" lon="-0.67489">
        <ele>2</ele>
        <time>2017-06-25T08:32:28Z</time>
      </trkpt>
      <trkpt lat="45.8396" lon="-0.67488">
        <ele>2</ele>
        <time>2017-06-25T08:32:29Z</time>
      </trkpt>
      <trkpt lat="45.83961" lon="-0.67487">
        <ele>2</ele>
        <time>2017-06-25T08:32:30Z</time>
      </trkpt>
      <trkpt lat="45.83963" lon="-0.67486">
        <ele>2</ele>
        <time>2017-06-25T08:32:31Z</time>
      </trkpt>
      <trkpt lat="45.83964" lon="-0.67484">
        <ele>2</ele>
        <time>2017-06-25T08:32:32Z</time>
      </trkpt>
      <trkpt lat="45.83965" lon="-0.67484">
        <ele>2</ele>
        <time>2017-06-25T08:32:33Z</time>
      </trkpt>
      <trkpt lat="45.83967" lon="-0.67482">
        <ele>2</ele>
        <time>2017-06-25T08:32:34Z</time>
      </trkpt>
      <trkpt lat="45.83969" lon="-0.67482">
        <ele>2</ele>
        <time>2017-06-25T08:32:35Z</time>
      </trkpt>
      <trkpt lat="45.8397" lon="-0.67481">
        <ele>2</ele>
        <time>2017-06-25T08:32:36Z</time>
      </trkpt>
      <trkpt lat="45.83971" lon="-0.6748">
        <ele>2</ele>
        <time>2017-06-25T08:32:37Z</time>
      </trkpt>
      <trkpt lat="45.83972" lon="-0.6748">
        <ele>2</ele>
        <time>2017-06-25T08:32:38Z</time>
      </trkpt>
      <trkpt lat="45.83973" lon="-0.67479">
        <ele>2</ele>
        <time>2017-06-25T08:32:39Z</time>
      </trkpt>
      <trkpt lat="45.83975" lon="-0.67478">
        <ele>2</ele>
        <time>2017-06-25T08:32:41Z</time>
      </trkpt>
      <trkpt lat="45.83976" lon="-0.67476">
        <ele>2</ele>
        <time>2017-06-25T08:32:43Z</time>
      </trkpt>
      <trkpt lat="45.83978" lon="-0.67476">
        <ele>2</ele>
        <time>2017-06-25T08:32:44Z</time>
      </trkpt>
      <trkpt lat="45.83979" lon="-0.67475">
        <ele>2</ele>
        <time>2017-06-25T08:32:45Z</time>
      </trkpt>
      <trkpt lat="45.8398" lon="-0.67473">
        <ele>2</ele>
        <time>2017-06-25T08:32:46Z</time>
      </trkpt>
      <trkpt lat="45.83981" lon="-0.67472">
        <ele>2</ele>
        <time>2017-06-25T08:32:47Z</time>
      </trkpt>
      <trkpt lat="45.83982" lon="-0.67471">
        <ele>2</ele>
        <time>2017-06-25T08:32:48Z</time>
      </trkpt>
      <trkpt lat="45.83983" lon="-0.67471">
        <ele>2</ele>
        <time>2017-06-25T08:32:49Z</time>
      </trkpt>
      <trkpt lat="45.83984" lon="-0.6747">
        <ele>2</ele>
        <time>2017-06-25T08:32:50Z</time>
      </trkpt>
      <trkpt lat="45.83985" lon="-0.67469">
        <ele>2</ele>
        <time>2017-06-25T08:32:51Z</time>
      </trkpt>
      <trkpt lat="45.83987" lon="-0.67469">
        <ele>2</ele>
        <time>2017-06-25T08:32:52Z</time>
      </trkpt>
      <trkpt lat="45.83987" lon="-0.67468">
        <ele>2</ele>
        <time>2017-06-25T08:32:53Z</time>
      </trkpt>
      <trkpt lat="45.83989" lon="-0.67468">
        <ele>2</ele>
        <time>2017-06-25T08:32:54Z</time>
      </trkpt>
      <trkpt lat="45.8399" lon="-0.67468">
        <ele>2</ele>
        <time>2017-06-25T08:32:55Z</time>
      </trkpt>
      <trkpt lat="45.83992" lon="-0.67467">
        <ele>2</ele>
        <time>2017-06-25T08:32:57Z</time>
      </trkpt>
      <trkpt lat="45.83993" lon="-0.67466">
        <ele>2</ele>
        <time>2017-06-25T08:32:58Z</time>
      </trkpt>
      <trkpt lat="45.83994" lon="-0.67465">
        <ele>2</ele>
        <time>2017-06-25T08:32:59Z</time>
      </trkpt>
      <trkpt lat="45.83995" lon="-0.67464">
        <ele>2</ele>
        <time>2017-06-25T08:33:00Z</time>
      </trkpt>
      <trkpt lat="45.83996" lon="-0.67463">
        <ele>2</ele>
        <time>2017-06-25T08:33:01Z</time>
      </trkpt>
      <trkpt lat="45.83997" lon="-0.67463">
        <ele>2</ele>
        <time>2017-06-25T08:33:02Z</time>
      </trkpt>
      <trkpt lat="45.83998" lon="-0.67462">
        <ele>2</ele>
        <time>2017-06-25T08:33:03Z</time>
      </trkpt>
      <trkpt lat="45.83999" lon="-0.67461">
        <ele>2</ele>
        <time>2017-06-25T08:33:04Z</time>
      </trkpt>
      <trkpt lat="45.84" lon="-0.6746">
        <ele>2</ele>
        <time>2017-06-25T08:33:05Z</time>
      </trkpt>
      <trkpt lat="45.84001" lon="-0.67459">
        <ele>2</ele>
        <time>2017-06-25T08:33:06Z</time>
      </trkpt>
      <trkpt lat="45.84003" lon="-0.67458">
        <ele>2</ele>
        <time>2017-06-25T08:33:07Z</time>
      </trkpt>
      <trkpt lat="45.84004" lon="-0.67457">
        <ele>2</ele>
        <time>2017-06-25T08:33:08Z</time>
      </trkpt>
      <trkpt lat="45.84005" lon="-0.67455">
        <ele>2</ele>
        <time>2017-06-25T08:33:09Z</time>
      </trkpt>
      <trkpt lat="45.84006" lon="-0.67455">
        <ele>2</ele>
        <time>2017-06-25T08:33:10Z</time>
      </trkpt>
      <trkpt lat="45.84008" lon="-0.67454">
        <ele>2</ele>
        <time>2017-06-25T08:33:11Z</time>
      </trkpt>
      <trkpt lat="45.84009" lon="-0.67454">
        <ele>2</ele>
        <time>2017-06-25T08:33:12Z</time>
      </trkpt>
      <trkpt lat="45.84011" lon="-0.67453">
        <ele>2</ele>
        <time>2017-06-25T08:33:13Z</time>
      </trkpt>
      <trkpt lat="45.84012" lon="-0.67452">
        <ele>2</ele>
        <time>2017-06-25T08:33:14Z</time>
      </trkpt>
      <trkpt lat="45.84013" lon="-0.67451">
        <ele>2</ele>
        <time>2017-06-25T08:33:15Z</time>
      </trkpt>
      <trkpt lat="45.84015" lon="-0.67449">
        <ele>2</ele>
        <time>2017-06-25T08:33:16Z</time>
      </trkpt>
      <trkpt lat="45.84016" lon="-0.67448">
        <ele>2</ele>
        <time>2017-06-25T08:33:17Z</time>
      </trkpt>
      <trkpt lat="45.84018" lon="-0.67447">
        <ele>2</ele>
        <time>2017-06-25T08:33:18Z</time>
      </trkpt>
      <trkpt lat="45.84019" lon="-0.67446">
        <ele>2</ele>
        <time>2017-06-25T08:33:19Z</time>
      </trkpt>
      <trkpt lat="45.8402" lon="-0.67445">
        <ele>2</ele>
        <time>2017-06-25T08:33:20Z</time>
      </trkpt>
      <trkpt lat="45.84021" lon="-0.67445">
        <ele>2</ele>
        <time>2017-06-25T08:33:21Z</time>
      </trkpt>
      <trkpt lat="45.84022" lon="-0.67444">
        <ele>2</ele>
        <time>2017-06-25T08:33:22Z</time>
      </trkpt>
      <trkpt lat="45.84023" lon="-0.67444">
        <ele>2</ele>
        <time>2017-06-25T08:33:23Z</time>
      </trkpt>
      <trkpt lat="45.84024" lon="-0.67443">
        <ele>2</ele>
        <time>2017-06-25T08:33:24Z</time>
      </trkpt>
      <trkpt lat="45.84025" lon="-0.67442">
        <ele>2</ele>
        <time>2017-06-25T08:33:25Z</time>
      </trkpt>
      <trkpt lat="45.84026" lon="-0.67441">
        <ele>2</ele>
        <time>2017-06-25T08:33:26Z</time>
      </trkpt>
      <trkpt lat="45.84027" lon="-0.6744">
        <ele>2</ele>
        <time>2017-06-25T08:33:27Z</time>
      </trkpt>
      <trkpt lat="45.84028" lon="-0.67439">
        <ele>2</ele>
        <time>2017-06-25T08:33:28Z</time>
      </trkpt>
      <trkpt lat="45.84029" lon="-0.67438">
        <ele>2</ele>
        <time>2017-06-25T08:33:29Z</time>
      </trkpt>
      <trkpt lat="45.8403" lon="-0.67437">
        <ele>2</ele>
        <time>2017-06-25T08:33:30Z</time>
      </trkpt>
      <trkpt lat="45.84031" lon="-0.67436">
        <ele>2</ele>
        <time>2017-06-25T08:33:31Z</time>
      </trkpt>
      <trkpt lat="45.84032" lon="-0.67434">
        <ele>2</ele>
        <time>2017-06-25T08:33:33Z</time>
      </trkpt>
      <trkpt lat="45.84034" lon="-0.67434">
        <ele>2</ele>
        <time>2017-06-25T08:33:34Z</time>
      </trkpt>
      <trkpt lat="45.84036" lon="-0.67433">
        <ele>2</ele>
        <time>2017-06-25T08:33:36Z</time>
      </trkpt>
      <trkpt lat="45.84036" lon="-0.67433">
        <ele>2</ele>
        <time>2017-06-25T08:33:37Z</time>
      </trkpt>
      <trkpt lat="45.84038" lon="-0.67431">
        <ele>2</ele>
        <time>2017-06-25T08:33:39Z</time>
      </trkpt>
      <trkpt lat="45.84039" lon="-0.67431">
        <ele>2</ele>
        <time>2017-06-25T08:33:40Z</time>
      </trkpt>
      <trkpt lat="45.8404" lon="-0.6743">
        <ele>2</ele>
        <time>2017-06-25T08:33:41Z</time>
      </trkpt>
      <trkpt lat="45.84041" lon="-0.67429">
        <ele>2</ele>
        <time>2017-06-25T08:33:42Z</time>
      </trkpt>
      <trkpt lat="45.84042" lon="-0.67428">
        <ele>2</ele>
        <time>2017-06-25T08:33:43Z</time>
      </trkpt>
      <trkpt lat="45.84043" lon="-0.67427">
        <ele>2</ele>
        <time>2017-06-25T08:33:44Z</time>
      </trkpt>
      <trkpt lat="45.84044" lon="-0.67426">
        <ele>2</ele>
        <time>2017-06-25T08:33:46Z</time>
      </trkpt>
      <trkpt lat="45.84045" lon="-0.67425">
        <ele>2</ele>
        <time>2017-06-25T08:33:47Z</time>
      </trkpt>
      <trkpt lat="45.84046" lon="-0.67425">
        <ele>2</ele>
        <time>2017-06-25T08:33:48Z</time>
      </trkpt>
      <trkpt lat="45.84047" lon="-0.67423">
        <ele>2</ele>
        <time>2017-06-25T08:33:49Z</time>
      </trkpt>
      <trkpt lat="45.84048" lon="-0.67422">
        <ele>2</ele>
        <time>2017-06-25T08:33:50Z</time>
      </trkpt>
      <trkpt lat="45.84049" lon="-0.67421">
        <ele>2</ele>
        <time>2017-06-25T08:33:51Z</time>
      </trkpt>
      <trkpt lat="45.8405" lon="-0.6742">
        <ele>2</ele>
        <time>2017-06-25T08:33:52Z</time>
      </trkpt>
      <trkpt lat="45.84052" lon="-0.67419">
        <ele>2</ele>
        <time>2017-06-25T08:33:53Z</time>
      </trkpt>
      <trkpt lat="45.84052" lon="-0.67418">
        <ele>2</ele>
        <time>2017-06-25T08:33:54Z</time>
      </trkpt>
      <trkpt lat="45.84053" lon="-0.67418">
        <ele>2</ele>
        <time>2017-06-25T08:33:55Z</time>
      </trkpt>
      <trkpt lat="45.84054" lon="-0.67417">
        <ele>2</ele>
        <time>2017-06-25T08:33:56Z</time>
      </trkpt>
      <trkpt lat="45.84055" lon="-0.67416">
        <ele>2</ele>
        <time>2017-06-25T08:33:57Z</time>
      </trkpt>
      <trkpt lat="45.84056" lon="-0.67415">
        <ele>2</ele>
        <time>2017-06-25T08:33:58Z</time>
      </trkpt>
      <trkpt lat="45.84057" lon="-0.67415">
        <ele>2</ele>
        <time>2017-06-25T08:33:59Z</time>
      </trkpt>
      <trkpt lat="45.84057" lon="-0.67414">
        <ele>2</ele>
        <time>2017-06-25T08:34:00Z</time>
      </trkpt>
      <trkpt lat="45.84058" lon="-0.67413">
        <ele>2</ele>
        <time>2017-06-25T08:34:01Z</time>
      </trkpt>
      <trkpt lat="45.84059" lon="-0.67412">
        <ele>2</ele>
        <time>2017-06-25T08:34:02Z</time>
      </trkpt>
      <trkpt lat="45.8406" lon="-0.67411">
        <ele>2</ele>
        <time>2017-06-25T08:34:03Z</time>
      </trkpt>
      <trkpt lat="45.84061" lon="-0.6741">
        <ele>2</ele>
        <time>2017-06-25T08:34:05Z</time>
      </trkpt>
      <trkpt lat="45.84061" lon="-0.67408">
        <ele>2</ele>
        <time>2017-06-25T08:34:06Z</time>
      </trkpt>
      <trkpt lat="45.84063" lon="-0.67405">
        <ele>2</ele>
        <time>2017-06-25T08:34:07Z</time>
      </trkpt>
      <trkpt lat="45.84063" lon="-0.67404">
        <ele>2</ele>
        <time>2017-06-25T08:34:09Z</time>
      </trkpt>
      <trkpt lat="45.84066" lon="-0.67402">
        <ele>2</ele>
        <time>2017-06-25T08:34:11Z</time>
      </trkpt>
      <trkpt lat="45.84068" lon="-0.67401">
        <ele>2</ele>
        <time>2017-06-25T08:34:12Z</time>
      </trkpt>
      <trkpt lat="45.84069" lon="-0.674">
        <ele>2</ele>
        <time>2017-06-25T08:34:14Z</time>
      </trkpt>
      <trkpt lat="45.84071" lon="-0.67399">
        <ele>2</ele>
        <time>2017-06-25T08:34:16Z</time>
      </trkpt>
      <trkpt lat="45.84072" lon="-0.67398">
        <ele>2</ele>
        <time>2017-06-25T08:34:18Z</time>
      </trkpt>
      <trkpt lat="45.84074" lon="-0.67396">
        <ele>2</ele>
        <time>2017-06-25T08:34:20Z</time>
      </trkpt>
      <trkpt lat="45.84075" lon="-0.67396">
        <ele>2</ele>
        <time>2017-06-25T08:34:21Z</time>
      </trkpt>
      <trkpt lat="45.84076" lon="-0.67395">
        <ele>2</ele>
        <time>2017-06-25T08:34:22Z</time>
      </trkpt>
      <trkpt lat="45.84077" lon="-0.67394">
        <ele>2</ele>
        <time>2017-06-25T08:34:23Z</time>
      </trkpt>
      <trkpt lat="45.84078" lon="-0.67393">
        <ele>2</ele>
        <time>2017-06-25T08:34:24Z</time>
      </trkpt>
      <trkpt lat="45.84079" lon="-0.67391">
        <ele>2</ele>
        <time>2017-06-25T08:34:25Z</time>
      </trkpt>
      <trkpt lat="45.8408" lon="-0.67389">
        <ele>2</ele>
        <time>2017-06-25T08:34:26Z</time>
      </trkpt>
      <trkpt lat="45.84081" lon="-0.67388">
        <ele>2</ele>
        <time>2017-06-25T08:34:27Z</time>
      </trkpt>
      <trkpt lat="45.84081" lon="-0.67387">
        <ele>2</ele>
        <time>2017-06-25T08:34:28Z</time>
      </trkpt>
      <trkpt lat="45.84082" lon="-0.67386">
        <ele>2</ele>
        <time>2017-06-25T08:34:29Z</time>
      </trkpt>
      <trkpt lat="45.84083" lon="-0.67386">
        <ele>2</ele>
        <time>2017-06-25T08:34:30Z</time>
      </trkpt>
      <trkpt lat="45.84084" lon="-0.67385">
        <ele>3</ele>
        <time>2017-06-25T08:34:32Z</time>
      </trkpt>
      <trkpt lat="45.84087" lon="-0.67382">
        <ele>3</ele>
        <time>2017-06-25T08:34:33Z</time>
      </trkpt>
      <trkpt lat="45.84088" lon="-0.67381">
        <ele>3</ele>
        <time>2017-06-25T08:34:34Z</time>
      </trkpt>
      <trkpt lat="45.8409" lon="-0.6738">
        <ele>3</ele>
        <time>2017-06-25T08:34:35Z</time>
      </trkpt>
      <trkpt lat="45.84091" lon="-0.6738">
        <ele>3</ele>
        <time>2017-06-25T08:34:36Z</time>
      </trkpt>
      <trkpt lat="45.84092" lon="-0.67379">
        <ele>3</ele>
        <time>2017-06-25T08:34:37Z</time>
      </trkpt>
      <trkpt lat="45.84093" lon="-0.67378">
        <ele>3</ele>
        <time>2017-06-25T08:34:38Z</time>
      </trkpt>
      <trkpt lat="45.84094" lon="-0.67377">
        <ele>3</ele>
        <time>2017-06-25T08:34:39Z</time>
      </trkpt>
      <trkpt lat="45.84096" lon="-0.67376">
        <ele>3</ele>
        <time>2017-06-25T08:34:40Z</time>
      </trkpt>
      <trkpt lat="45.84097" lon="-0.67375">
        <ele>3</ele>
        <time>2017-06-25T08:34:41Z</time>
      </trkpt>
      <trkpt lat="45.84101" lon="-0.67372">
        <ele>3</ele>
        <time>2017-06-25T08:34:42Z</time>
      </trkpt>
      <trkpt lat="45.84104" lon="-0.6737">
        <ele>3</ele>
        <time>2017-06-25T08:34:43Z</time>
      </trkpt>
      <trkpt lat="45.84105" lon="-0.67369">
        <ele>3</ele>
        <time>2017-06-25T08:34:44Z</time>
      </trkpt>
      <trkpt lat="45.84107" lon="-0.67368">
        <ele>3</ele>
        <time>2017-06-25T08:34:45Z</time>
      </trkpt>
      <trkpt lat="45.84109" lon="-0.67367">
        <ele>3</ele>
        <time>2017-06-25T08:34:46Z</time>
      </trkpt>
      <trkpt lat="45.84111" lon="-0.67366">
        <ele>3</ele>
        <time>2017-06-25T08:34:47Z</time>
      </trkpt>
      <trkpt lat="45.84112" lon="-0.67365">
        <ele>3</ele>
        <time>2017-06-25T08:34:48Z</time>
      </trkpt>
      <trkpt lat="45.84113" lon="-0.67364">
        <ele>3</ele>
        <time>2017-06-25T08:34:49Z</time>
      </trkpt>
      <trkpt lat="45.84115" lon="-0.67362">
        <ele>3</ele>
        <time>2017-06-25T08:34:50Z</time>
      </trkpt>
      <trkpt lat="45.84116" lon="-0.6736">
        <ele>3</ele>
        <time>2017-06-25T08:34:51Z</time>
      </trkpt>
      <trkpt lat="45.84117" lon="-0.67359">
        <ele>3</ele>
        <time>2017-06-25T08:34:52Z</time>
      </trkpt>
      <trkpt lat="45.84119" lon="-0.67359">
        <ele>3</ele>
        <time>2017-06-25T08:34:53Z</time>
      </trkpt>
      <trkpt lat="45.84121" lon="-0.67357">
        <ele>3</ele>
        <time>2017-06-25T08:34:54Z</time>
      </trkpt>
      <trkpt lat="45.84122" lon="-0.67356">
        <ele>3</ele>
        <time>2017-06-25T08:34:55Z</time>
      </trkpt>
      <trkpt lat="45.84123" lon="-0.67355">
        <ele>3</ele>
        <time>2017-06-25T08:34:56Z</time>
      </trkpt>
      <trkpt lat="45.84124" lon="-0.67354">
        <ele>3</ele>
        <time>2017-06-25T08:34:57Z</time>
      </trkpt>
      <trkpt lat="45.84126" lon="-0.67353">
        <ele>3</ele>
        <time>2017-06-25T08:34:58Z</time>
      </trkpt>
      <trkpt lat="45.84127" lon="-0.67351">
        <ele>3</ele>
        <time>2017-06-25T08:34:59Z</time>
      </trkpt>
      <trkpt lat="45.84128" lon="-0.6735">
        <ele>3</ele>
        <time>2017-06-25T08:35:00Z</time>
      </trkpt>
      <trkpt lat="45.84129" lon="-0.67348">
        <ele>3</ele>
        <time>2017-06-25T08:35:02Z</time>
      </trkpt>
      <trkpt lat="45.84131" lon="-0.67347">
        <ele>3</ele>
        <time>2017-06-25T08:35:04Z</time>
      </trkpt>
      <trkpt lat="45.84131" lon="-0.67346">
        <ele>3</ele>
        <time>2017-06-25T08:35:06Z</time>
      </trkpt>
      <trkpt lat="45.84132" lon="-0.67345">
        <ele>3</ele>
        <time>2017-06-25T08:35:08Z</time>
      </trkpt>
      <trkpt lat="45.84133" lon="-0.67344">
        <ele>3</ele>
        <time>2017-06-25T08:35:10Z</time>
      </trkpt>
      <trkpt lat="45.84135" lon="-0.67345">
        <ele>3</ele>
        <time>2017-06-25T08:35:12Z</time>
      </trkpt>
      <trkpt lat="45.84135" lon="-0.67345">
        <ele>3</ele>
        <time>2017-06-25T08:35:27Z</time>
      </trkpt>
      <trkpt lat="45.84137" lon="-0.67345">
        <ele>3</ele>
        <time>2017-06-25T08:35:44Z</time>
      </trkpt>
      <trkpt lat="45.84137" lon="-0.67344">
        <ele>3</ele>
        <time>2017-06-25T08:35:46Z</time>
      </trkpt>
      <trkpt lat="45.84137" lon="-0.67341">
        <ele>3</ele>
        <time>2017-06-25T08:35:48Z</time>
      </trkpt>
      <trkpt lat="45.84137" lon="-0.67339">
        <ele>3</ele>
        <time>2017-06-25T08:35:49Z</time>
      </trkpt>
      <trkpt lat="45.84137" lon="-0.67338">
        <ele>3</ele>
        <time>2017-06-25T08:35:55Z</time>
      </trkpt>
      <trkpt lat="45.8414" lon="-0.67337">
        <ele>3</ele>
        <time>2017-06-25T08:36:12Z</time>
      </trkpt>
      <trkpt lat="45.84141" lon="-0.67337">
        <ele>3</ele>
        <time>2017-06-25T08:36:13Z</time>
      </trkpt>
      <trkpt lat="45.84142" lon="-0.67336">
        <ele>3</ele>
        <time>2017-06-25T08:36:14Z</time>
      </trkpt>
      <trkpt lat="45.84143" lon="-0.67335">
        <ele>3</ele>
        <time>2017-06-25T08:36:15Z</time>
      </trkpt>
      <trkpt lat="45.84144" lon="-0.67334">
        <ele>3</ele>
        <time>2017-06-25T08:36:16Z</time>
      </trkpt>
      <trkpt lat="45.84146" lon="-0.67333">
        <ele>3</ele>
        <time>2017-06-25T08:36:18Z</time>
      </trkpt>
      <trkpt lat="45.84147" lon="-0.67332">
        <ele>3</ele>
        <time>2017-06-25T08:36:19Z</time>
      </trkpt>
      <trkpt lat="45.84149" lon="-0.67327">
        <ele>3</ele>
        <time>2017-06-25T08:36:22Z</time>
      </trkpt>
      <trkpt lat="45.8415" lon="-0.67325">
        <ele>3</ele>
        <time>2017-06-25T08:36:24Z</time>
      </trkpt>
      <trkpt lat="45.84152" lon="-0.67323">
        <ele>3</ele>
        <time>2017-06-25T08:36:26Z</time>
      </trkpt>
      <trkpt lat="45.84152" lon="-0.67321">
        <ele>3</ele>
        <time>2017-06-25T08:36:27Z</time>
      </trkpt>
      <trkpt lat="45.84152" lon="-0.6732">
        <ele>3</ele>
        <time>2017-06-25T08:36:29Z</time>
      </trkpt>
      <trkpt lat="45.84153" lon="-0.67318">
        <ele>3</ele>
        <time>2017-06-25T08:36:30Z</time>
      </trkpt>
      <trkpt lat="45.84153" lon="-0.67317">
        <ele>3</ele>
        <time>2017-06-25T08:36:31Z</time>
      </trkpt>
      <trkpt lat="45.84153" lon="-0.67316">
        <ele>3</ele>
        <time>2017-06-25T08:36:32Z</time>
      </trkpt>
      <trkpt lat="45.84155" lon="-0.67313">
        <ele>3</ele>
        <time>2017-06-25T08:36:34Z</time>
      </trkpt>
      <trkpt lat="45.84156" lon="-0.67312">
        <ele>3</ele>
        <time>2017-06-25T08:36:35Z</time>
      </trkpt>
      <trkpt lat="45.84157" lon="-0.67309">
        <ele>3</ele>
        <time>2017-06-25T08:36:38Z</time>
      </trkpt>
      <trkpt lat="45.84159" lon="-0.67307">
        <ele>3</ele>
        <time>2017-06-25T08:36:40Z</time>
      </trkpt>
      <trkpt lat="45.84161" lon="-0.67305">
        <ele>3</ele>
        <time>2017-06-25T08:36:42Z</time>
      </trkpt>
      <trkpt lat="45.84161" lon="-0.67303">
        <ele>3</ele>
        <time>2017-06-25T08:36:43Z</time>
      </trkpt>
      <trkpt lat="45.84162" lon="-0.67302">
        <ele>3</ele>
        <time>2017-06-25T08:36:44Z</time>
      </trkpt>
      <trkpt lat="45.84164" lon="-0.673">
        <ele>3</ele>
        <time>2017-06-25T08:36:46Z</time>
      </trkpt>
      <trkpt lat="45.84165" lon="-0.67299">
        <ele>3</ele>
        <time>2017-06-25T08:36:47Z</time>
      </trkpt>
      <trkpt lat="45.84167" lon="-0.67297">
        <ele>3</ele>
        <time>2017-06-25T08:36:49Z</time>
      </trkpt>
      <trkpt lat="45.84168" lon="-0.67296">
        <ele>3</ele>
        <time>2017-06-25T08:36:50Z</time>
      </trkpt>
      <trkpt lat="45.84169" lon="-0.67295">
        <ele>3</ele>
        <time>2017-06-25T08:36:51Z</time>
      </trkpt>
      <trkpt lat="45.84171" lon="-0.67293">
        <ele>3</ele>
        <time>2017-06-25T08:36:53Z</time>
      </trkpt>
      <trkpt lat="45.84173" lon="-0.6729">
        <ele>3</ele>
        <time>2017-06-25T08:36:55Z</time>
      </trkpt>
      <trkpt lat="45.84174" lon="-0.67289">
        <ele>3</ele>
        <time>2017-06-25T08:36:56Z</time>
      </trkpt>
      <trkpt lat="45.84176" lon="-0.67287">
        <ele>3</ele>
        <time>2017-06-25T08:36:58Z</time>
      </trkpt>
      <trkpt lat="45.84177" lon="-0.67285">
        <ele>3</ele>
        <time>2017-06-25T08:36:59Z</time>
      </trkpt>
      <trkpt lat="45.84178" lon="-0.67284">
        <ele>3</ele>
        <time>2017-06-25T08:37:01Z</time>
      </trkpt>
      <trkpt lat="45.84179" lon="-0.67283">
        <ele>3</ele>
        <time>2017-06-25T08:37:02Z</time>
      </trkpt>
      <trkpt lat="45.84181" lon="-0.67282">
        <ele>3</ele>
        <time>2017-06-25T08:37:04Z</time>
      </trkpt>
      <trkpt lat="45.84182" lon="-0.67278">
        <ele>3</ele>
        <time>2017-06-25T08:37:06Z</time>
      </trkpt>
      <trkpt lat="45.84184" lon="-0.67276">
        <ele>3</ele>
        <time>2017-06-25T08:37:08Z</time>
      </trkpt>
      <trkpt lat="45.84185" lon="-0.67275">
        <ele>3</ele>
        <time>2017-06-25T08:37:10Z</time>
      </trkpt>
      <trkpt lat="45.84186" lon="-0.67274">
        <ele>3</ele>
        <time>2017-06-25T08:37:11Z</time>
      </trkpt>
      <trkpt lat="45.84187" lon="-0.67272">
        <ele>3</ele>
        <time>2017-06-25T08:37:12Z</time>
      </trkpt>
      <trkpt lat="45.84187" lon="-0.67271">
        <ele>3</ele>
        <time>2017-06-25T08:37:13Z</time>
      </trkpt>
      <trkpt lat="45.84188" lon="-0.6727">
        <ele>3</ele>
        <time>2017-06-25T08:37:15Z</time>
      </trkpt>
      <trkpt lat="45.8419" lon="-0.67268">
        <ele>3</ele>
        <time>2017-06-25T08:37:17Z</time>
      </trkpt>
      <trkpt lat="45.84192" lon="-0.67267">
        <ele>3</ele>
        <time>2017-06-25T08:37:18Z</time>
      </trkpt>
      <trkpt lat="45.84193" lon="-0.67266">
        <ele>3</ele>
        <time>2017-06-25T08:37:19Z</time>
      </trkpt>
      <trkpt lat="45.84195" lon="-0.67265">
        <ele>3</ele>
        <time>2017-06-25T08:37:21Z</time>
      </trkpt>
      <trkpt lat="45.84196" lon="-0.67264">
        <ele>3</ele>
        <time>2017-06-25T08:37:22Z</time>
      </trkpt>
      <trkpt lat="45.84197" lon="-0.67263">
        <ele>3</ele>
        <time>2017-06-25T08:37:23Z</time>
      </trkpt>
      <trkpt lat="45.84198" lon="-0.67262">
        <ele>3</ele>
        <time>2017-06-25T08:37:24Z</time>
      </trkpt>
      <trkpt lat="45.84199" lon="-0.67259">
        <ele>3</ele>
        <time>2017-06-25T08:37:25Z</time>
      </trkpt>
      <trkpt lat="45.842" lon="-0.67258">
        <ele>3</ele>
        <time>2017-06-25T08:37:26Z</time>
      </trkpt>
      <trkpt lat="45.84201" lon="-0.67255">
        <ele>3</ele>
        <time>2017-06-25T08:37:28Z</time>
      </trkpt>
      <trkpt lat="45.84202" lon="-0.67254">
        <ele>3</ele>
        <time>2017-06-25T08:37:29Z</time>
      </trkpt>
      <trkpt lat="45.84204" lon="-0.67252">
        <ele>3</ele>
        <time>2017-06-25T08:37:31Z</time>
      </trkpt>
      <trkpt lat="45.84205" lon="-0.67251">
        <ele>3</ele>
        <time>2017-06-25T08:37:32Z</time>
      </trkpt>
      <trkpt lat="45.84206" lon="-0.6725">
        <ele>3</ele>
        <time>2017-06-25T08:37:33Z</time>
      </trkpt>
      <trkpt lat="45.84206" lon="-0.67249">
        <ele>3</ele>
        <time>2017-06-25T08:37:34Z</time>
      </trkpt>
      <trkpt lat="45.84207" lon="-0.67247">
        <ele>3</ele>
        <time>2017-06-25T08:37:36Z</time>
      </trkpt>
      <trkpt lat="45.84208" lon="-0.67245">
        <ele>3</ele>
        <time>2017-06-25T08:37:37Z</time>
      </trkpt>
      <trkpt lat="45.8421" lon="-0.67243">
        <ele>3</ele>
        <time>2017-06-25T08:37:38Z</time>
      </trkpt>
      <trkpt lat="45.84212" lon="-0.6724">
        <ele>3</ele>
        <time>2017-06-25T08:37:39Z</time>
      </trkpt>
      <trkpt lat="45.84213" lon="-0.67238">
        <ele>3</ele>
        <time>2017-06-25T08:37:40Z</time>
      </trkpt>
      <trkpt lat="45.84214" lon="-0.67236">
        <ele>3</ele>
        <time>2017-06-25T08:37:41Z</time>
      </trkpt>
      <trkpt lat="45.84216" lon="-0.67235">
        <ele>3</ele>
        <time>2017-06-25T08:37:42Z</time>
      </trkpt>
      <trkpt lat="45.84218" lon="-0.67232">
        <ele>3</ele>
        <time>2017-06-25T08:37:43Z</time>
      </trkpt>
      <trkpt lat="45.84219" lon="-0.67231">
        <ele>3</ele>
        <time>2017-06-25T08:37:44Z</time>
      </trkpt>
      <trkpt lat="45.84219" lon="-0.6723">
        <ele>3</ele>
        <time>2017-06-25T08:37:45Z</time>
      </trkpt>
      <trkpt lat="45.8422" lon="-0.67229">
        <ele>3</ele>
        <time>2017-06-25T08:37:46Z</time>
      </trkpt>
      <trkpt lat="45.84221" lon="-0.67225">
        <ele>3</ele>
        <time>2017-06-25T08:37:47Z</time>
      </trkpt>
      <trkpt lat="45.84222" lon="-0.67224">
        <ele>3</ele>
        <time>2017-06-25T08:37:48Z</time>
      </trkpt>
      <trkpt lat="45.84223" lon="-0.67223">
        <ele>3</ele>
        <time>2017-06-25T08:37:49Z</time>
      </trkpt>
      <trkpt lat="45.84224" lon="-0.67221">
        <ele>3</ele>
        <time>2017-06-25T08:37:50Z</time>
      </trkpt>
      <trkpt lat="45.84224" lon="-0.67218">
        <ele>3</ele>
        <time>2017-06-25T08:37:51Z</time>
      </trkpt>
      <trkpt lat="45.84226" lon="-0.67218">
        <ele>3</ele>
        <time>2017-06-25T08:37:52Z</time>
      </trkpt>
      <trkpt lat="45.84226" lon="-0.67216">
        <ele>3</ele>
        <time>2017-06-25T08:37:53Z</time>
      </trkpt>
      <trkpt lat="45.84227" lon="-0.67215">
        <ele>3</ele>
        <time>2017-06-25T08:37:54Z</time>
      </trkpt>
      <trkpt lat="45.84229" lon="-0.67214">
        <ele>3</ele>
        <time>2017-06-25T08:37:56Z</time>
      </trkpt>
      <trkpt lat="45.8423" lon="-0.67212">
        <ele>3</ele>
        <time>2017-06-25T08:37:57Z</time>
      </trkpt>
      <trkpt lat="45.8423" lon="-0.67209">
        <ele>3</ele>
        <time>2017-06-25T08:37:58Z</time>
      </trkpt>
      <trkpt lat="45.84232" lon="-0.67207">
        <ele>3</ele>
        <time>2017-06-25T08:37:59Z</time>
      </trkpt>
      <trkpt lat="45.84232" lon="-0.67206">
        <ele>3</ele>
        <time>2017-06-25T08:38:00Z</time>
      </trkpt>
      <trkpt lat="45.84234" lon="-0.67204">
        <ele>3</ele>
        <time>2017-06-25T08:38:01Z</time>
      </trkpt>
      <trkpt lat="45.84235" lon="-0.67202">
        <ele>3</ele>
        <time>2017-06-25T08:38:02Z</time>
      </trkpt>
      <trkpt lat="45.84237" lon="-0.672">
        <ele>3</ele>
        <time>2017-06-25T08:38:04Z</time>
      </trkpt>
      <trkpt lat="45.84237" lon="-0.67198">
        <ele>3</ele>
        <time>2017-06-25T08:38:05Z</time>
      </trkpt>
      <trkpt lat="45.84238" lon="-0.67197">
        <ele>3</ele>
        <time>2017-06-25T08:38:06Z</time>
      </trkpt>
      <trkpt lat="45.84239" lon="-0.67195">
        <ele>2</ele>
        <time>2017-06-25T08:38:08Z</time>
      </trkpt>
      <trkpt lat="45.8424" lon="-0.67192">
        <ele>2</ele>
        <time>2017-06-25T08:38:10Z</time>
      </trkpt>
      <trkpt lat="45.84242" lon="-0.67192">
        <ele>2</ele>
        <time>2017-06-25T08:38:11Z</time>
      </trkpt>
      <trkpt lat="45.84243" lon="-0.67193">
        <ele>2</ele>
        <time>2017-06-25T08:38:12Z</time>
      </trkpt>
      <trkpt lat="45.84244" lon="-0.67193">
        <ele>2</ele>
        <time>2017-06-25T08:38:13Z</time>
      </trkpt>
      <trkpt lat="45.84245" lon="-0.67192">
        <ele>2</ele>
        <time>2017-06-25T08:38:14Z</time>
      </trkpt>
      <trkpt lat="45.84246" lon="-0.67191">
        <ele>2</ele>
        <time>2017-06-25T08:38:16Z</time>
      </trkpt>
      <trkpt lat="45.84247" lon="-0.6719">
        <ele>2</ele>
        <time>2017-06-25T08:38:17Z</time>
      </trkpt>
      <trkpt lat="45.84248" lon="-0.67189">
        <ele>2</ele>
        <time>2017-06-25T08:38:18Z</time>
      </trkpt>
      <trkpt lat="45.8425" lon="-0.67187">
        <ele>2</ele>
        <time>2017-06-25T08:38:20Z</time>
      </trkpt>
      <trkpt lat="45.84251" lon="-0.67185">
        <ele>2</ele>
        <time>2017-06-25T08:38:21Z</time>
      </trkpt>
      <trkpt lat="45.84253" lon="-0.67184">
        <ele>2</ele>
        <time>2017-06-25T08:38:22Z</time>
      </trkpt>
      <trkpt lat="45.84254" lon="-0.67182">
        <ele>2</ele>
        <time>2017-06-25T08:38:23Z</time>
      </trkpt>
      <trkpt lat="45.84255" lon="-0.67182">
        <ele>2</ele>
        <time>2017-06-25T08:38:24Z</time>
      </trkpt>
      <trkpt lat="45.84257" lon="-0.67181">
        <ele>2</ele>
        <time>2017-06-25T08:38:25Z</time>
      </trkpt>
      <trkpt lat="45.84258" lon="-0.67181">
        <ele>2</ele>
        <time>2017-06-25T08:38:26Z</time>
      </trkpt>
      <trkpt lat="45.84259" lon="-0.67179">
        <ele>2</ele>
        <time>2017-06-25T08:38:27Z</time>
      </trkpt>
      <trkpt lat="45.8426" lon="-0.67177">
        <ele>2</ele>
        <time>2017-06-25T08:38:28Z</time>
      </trkpt>
      <trkpt lat="45.84261" lon="-0.67175">
        <ele>2</ele>
        <time>2017-06-25T08:38:29Z</time>
      </trkpt>
      <trkpt lat="45.84261" lon="-0.6717">
        <ele>2</ele>
        <time>2017-06-25T08:38:30Z</time>
      </trkpt>
      <trkpt lat="45.84263" lon="-0.67168">
        <ele>2</ele>
        <time>2017-06-25T08:38:31Z</time>
      </trkpt>
      <trkpt lat="45.84264" lon="-0.67167">
        <ele>3</ele>
        <time>2017-06-25T08:38:32Z</time>
      </trkpt>
      <trkpt lat="45.84266" lon="-0.67165">
        <ele>3</ele>
        <time>2017-06-25T08:38:33Z</time>
      </trkpt>
      <trkpt lat="45.84267" lon="-0.67164">
        <ele>3</ele>
        <time>2017-06-25T08:38:34Z</time>
      </trkpt>
      <trkpt lat="45.84269" lon="-0.67163">
        <ele>3</ele>
        <time>2017-06-25T08:38:35Z</time>
      </trkpt>
      <trkpt lat="45.8427" lon="-0.6716">
        <ele>3</ele>
        <time>2017-06-25T08:38:36Z</time>
      </trkpt>
      <trkpt lat="45.84271" lon="-0.67159">
        <ele>3</ele>
        <time>2017-06-25T08:38:37Z</time>
      </trkpt>
      <trkpt lat="45.84272" lon="-0.67157">
        <ele>3</ele>
        <time>2017-06-25T08:38:38Z</time>
      </trkpt>
      <trkpt lat="45.84273" lon="-0.67156">
        <ele>3</ele>
        <time>2017-06-25T08:38:39Z</time>
      </trkpt>
      <trkpt lat="45.84274" lon="-0.67155">
        <ele>3</ele>
        <time>2017-06-25T08:38:40Z</time>
      </trkpt>
      <trkpt lat="45.84275" lon="-0.67154">
        <ele>3</ele>
        <time>2017-06-25T08:38:41Z</time>
      </trkpt>
      <trkpt lat="45.84276" lon="-0.67152">
        <ele>3</ele>
        <time>2017-06-25T08:38:44Z</time>
      </trkpt>
      <trkpt lat="45.84277" lon="-0.6715">
        <ele>3</ele>
        <time>2017-06-25T08:38:45Z</time>
      </trkpt>
      <trkpt lat="45.84277" lon="-0.67149">
        <ele>3</ele>
        <time>2017-06-25T08:38:46Z</time>
      </trkpt>
      <trkpt lat="45.84278" lon="-0.67147">
        <ele>3</ele>
        <time>2017-06-25T08:38:47Z</time>
      </trkpt>
      <trkpt lat="45.8428" lon="-0.67145">
        <ele>3</ele>
        <time>2017-06-25T08:38:48Z</time>
      </trkpt>
      <trkpt lat="45.84281" lon="-0.67143">
        <ele>3</ele>
        <time>2017-06-25T08:38:49Z</time>
      </trkpt>
      <trkpt lat="45.84282" lon="-0.67142">
        <ele>3</ele>
        <time>2017-06-25T08:38:50Z</time>
      </trkpt>
      <trkpt lat="45.84283" lon="-0.6714">
        <ele>3</ele>
        <time>2017-06-25T08:38:51Z</time>
      </trkpt>
      <trkpt lat="45.84284" lon="-0.6714">
        <ele>3</ele>
        <time>2017-06-25T08:38:52Z</time>
      </trkpt>
      <trkpt lat="45.84285" lon="-0.67138">
        <ele>3</ele>
        <time>2017-06-25T08:38:53Z</time>
      </trkpt>
      <trkpt lat="45.84286" lon="-0.67137">
        <ele>3</ele>
        <time>2017-06-25T08:38:54Z</time>
      </trkpt>
      <trkpt lat="45.84287" lon="-0.67136">
        <ele>3</ele>
        <time>2017-06-25T08:38:55Z</time>
      </trkpt>
      <trkpt lat="45.84288" lon="-0.67135">
        <ele>3</ele>
        <time>2017-06-25T08:38:56Z</time>
      </trkpt>
      <trkpt lat="45.8429" lon="-0.67135">
        <ele>3</ele>
        <time>2017-06-25T08:38:57Z</time>
      </trkpt>
      <trkpt lat="45.84291" lon="-0.67134">
        <ele>3</ele>
        <time>2017-06-25T08:38:58Z</time>
      </trkpt>
      <trkpt lat="45.84292" lon="-0.67134">
        <ele>3</ele>
        <time>2017-06-25T08:38:59Z</time>
      </trkpt>
      <trkpt lat="45.84293" lon="-0.67133">
        <ele>3</ele>
        <time>2017-06-25T08:39:00Z</time>
      </trkpt>
      <trkpt lat="45.84294" lon="-0.67132">
        <ele>3</ele>
        <time>2017-06-25T08:39:01Z</time>
      </trkpt>
      <trkpt lat="45.84296" lon="-0.67129">
        <ele>3</ele>
        <time>2017-06-25T08:39:03Z</time>
      </trkpt>
      <trkpt lat="45.84297" lon="-0.67128">
        <ele>3</ele>
        <time>2017-06-25T08:39:04Z</time>
      </trkpt>
      <trkpt lat="45.84298" lon="-0.67126">
        <ele>4</ele>
        <time>2017-06-25T08:39:05Z</time>
      </trkpt>
      <trkpt lat="45.84299" lon="-0.67124">
        <ele>4</ele>
        <time>2017-06-25T08:39:06Z</time>
      </trkpt>
      <trkpt lat="45.84301" lon="-0.6712">
        <ele>4</ele>
        <time>2017-06-25T08:39:08Z</time>
      </trkpt>
      <trkpt lat="45.84302" lon="-0.67118">
        <ele>4</ele>
        <time>2017-06-25T08:39:10Z</time>
      </trkpt>
      <trkpt lat="45.84303" lon="-0.67117">
        <ele>4</ele>
        <time>2017-06-25T08:39:11Z</time>
      </trkpt>
      <trkpt lat="45.84303" lon="-0.67114">
        <ele>4</ele>
        <time>2017-06-25T08:39:13Z</time>
      </trkpt>
      <trkpt lat="45.84304" lon="-0.67113">
        <ele>4</ele>
        <time>2017-06-25T08:39:14Z</time>
      </trkpt>
      <trkpt lat="45.84304" lon="-0.67111">
        <ele>4</ele>
        <time>2017-06-25T08:39:15Z</time>
      </trkpt>
      <trkpt lat="45.84305" lon="-0.6711">
        <ele>4</ele>
        <time>2017-06-25T08:39:16Z</time>
      </trkpt>
      <trkpt lat="45.84306" lon="-0.67109">
        <ele>4</ele>
        <time>2017-06-25T08:39:17Z</time>
      </trkpt>
      <trkpt lat="45.84307" lon="-0.67107">
        <ele>4</ele>
        <time>2017-06-25T08:39:18Z</time>
      </trkpt>
      <trkpt lat="45.84307" lon="-0.67105">
        <ele>4</ele>
        <time>2017-06-25T08:39:19Z</time>
      </trkpt>
      <trkpt lat="45.84308" lon="-0.67103">
        <ele>4</ele>
        <time>2017-06-25T08:39:21Z</time>
      </trkpt>
      <trkpt lat="45.84309" lon="-0.67101">
        <ele>4</ele>
        <time>2017-06-25T08:39:22Z</time>
      </trkpt>
      <trkpt lat="45.84309" lon="-0.671">
        <ele>4</ele>
        <time>2017-06-25T08:39:23Z</time>
      </trkpt>
      <trkpt lat="45.8431" lon="-0.67098">
        <ele>4</ele>
        <time>2017-06-25T08:39:24Z</time>
      </trkpt>
      <trkpt lat="45.8431" lon="-0.67096">
        <ele>4</ele>
        <time>2017-06-25T08:39:25Z</time>
      </trkpt>
      <trkpt lat="45.8431" lon="-0.67095">
        <ele>4</ele>
        <time>2017-06-25T08:39:26Z</time>
      </trkpt>
      <trkpt lat="45.8431" lon="-0.67093">
        <ele>4</ele>
        <time>2017-06-25T08:39:27Z</time>
      </trkpt>
      <trkpt lat="45.8431" lon="-0.67092">
        <ele>4</ele>
        <time>2017-06-25T08:39:28Z</time>
      </trkpt>
      <trkpt lat="45.8431" lon="-0.6709">
        <ele>4</ele>
        <time>2017-06-25T08:39:29Z</time>
      </trkpt>
      <trkpt lat="45.8431" lon="-0.67088">
        <ele>4</ele>
        <time>2017-06-25T08:39:30Z</time>
      </trkpt>
      <trkpt lat="45.8431" lon="-0.67086">
        <ele>4</ele>
        <time>2017-06-25T08:39:31Z</time>
      </trkpt>
      <trkpt lat="45.84309" lon="-0.67084">
        <ele>4</ele>
        <time>2017-06-25T08:39:32Z</time>
      </trkpt>
      <trkpt lat="45.8431" lon="-0.67083">
        <ele>5</ele>
        <time>2017-06-25T08:39:33Z</time>
      </trkpt>
      <trkpt lat="45.84309" lon="-0.6708">
        <ele>5</ele>
        <time>2017-06-25T08:39:35Z</time>
      </trkpt>
      <trkpt lat="45.84309" lon="-0.67078">
        <ele>5</ele>
        <time>2017-06-25T08:39:36Z</time>
      </trkpt>
      <trkpt lat="45.84309" lon="-0.67076">
        <ele>5</ele>
        <time>2017-06-25T08:39:38Z</time>
      </trkpt>
      <trkpt lat="45.84308" lon="-0.67073">
        <ele>5</ele>
        <time>2017-06-25T08:39:40Z</time>
      </trkpt>
      <trkpt lat="45.84307" lon="-0.67071">
        <ele>5</ele>
        <time>2017-06-25T08:39:41Z</time>
      </trkpt>
      <trkpt lat="45.84306" lon="-0.67069">
        <ele>5</ele>
        <time>2017-06-25T08:39:42Z</time>
      </trkpt>
      <trkpt lat="45.84306" lon="-0.67067">
        <ele>5</ele>
        <time>2017-06-25T08:39:43Z</time>
      </trkpt>
      <trkpt lat="45.84305" lon="-0.67065">
        <ele>5</ele>
        <time>2017-06-25T08:39:44Z</time>
      </trkpt>
      <trkpt lat="45.84304" lon="-0.67063">
        <ele>5</ele>
        <time>2017-06-25T08:39:45Z</time>
      </trkpt>
      <trkpt lat="45.84304" lon="-0.67061">
        <ele>5</ele>
        <time>2017-06-25T08:39:46Z</time>
      </trkpt>
      <trkpt lat="45.84303" lon="-0.67057">
        <ele>5</ele>
        <time>2017-06-25T08:39:48Z</time>
      </trkpt>
      <trkpt lat="45.84303" lon="-0.67055">
        <ele>5</ele>
        <time>2017-06-25T08:39:49Z</time>
      </trkpt>
      <trkpt lat="45.84302" lon="-0.67052">
        <ele>5</ele>
        <time>2017-06-25T08:39:50Z</time>
      </trkpt>
      <trkpt lat="45.84302" lon="-0.67051">
        <ele>5</ele>
        <time>2017-06-25T08:39:51Z</time>
      </trkpt>
      <trkpt lat="45.84302" lon="-0.67049">
        <ele>5</ele>
        <time>2017-06-25T08:39:52Z</time>
      </trkpt>
      <trkpt lat="45.84301" lon="-0.67048">
        <ele>5</ele>
        <time>2017-06-25T08:39:53Z</time>
      </trkpt>
      <trkpt lat="45.843" lon="-0.67046">
        <ele>5</ele>
        <time>2017-06-25T08:39:55Z</time>
      </trkpt>
      <trkpt lat="45.843" lon="-0.67044">
        <ele>5</ele>
        <time>2017-06-25T08:39:56Z</time>
      </trkpt>
      <trkpt lat="45.843" lon="-0.67043">
        <ele>5</ele>
        <time>2017-06-25T08:39:57Z</time>
      </trkpt>
      <trkpt lat="45.84299" lon="-0.67041">
        <ele>5</ele>
        <time>2017-06-25T08:39:58Z</time>
      </trkpt>
      <trkpt lat="45.84298" lon="-0.6704">
        <ele>5</ele>
        <time>2017-06-25T08:39:59Z</time>
      </trkpt>
      <trkpt lat="45.84298" lon="-0.67039">
        <ele>5</ele>
        <time>2017-06-25T08:40:00Z</time>
      </trkpt>
      <trkpt lat="45.84296" lon="-0.67038">
        <ele>5</ele>
        <time>2017-06-25T08:40:01Z</time>
      </trkpt>
      <trkpt lat="45.84296" lon="-0.67037">
        <ele>5</ele>
        <time>2017-06-25T08:40:02Z</time>
      </trkpt>
      <trkpt lat="45.84295" lon="-0.67035">
        <ele>5</ele>
        <time>2017-06-25T08:40:03Z</time>
      </trkpt>
      <trkpt lat="45.84294" lon="-0.67034">
        <ele>5</ele>
        <time>2017-06-25T08:40:04Z</time>
      </trkpt>
      <trkpt lat="45.84294" lon="-0.67032">
        <ele>5</ele>
        <time>2017-06-25T08:40:05Z</time>
      </trkpt>
      <trkpt lat="45.84293" lon="-0.67031">
        <ele>5</ele>
        <time>2017-06-25T08:40:06Z</time>
      </trkpt>
      <trkpt lat="45.84292" lon="-0.6703">
        <ele>5</ele>
        <time>2017-06-25T08:40:07Z</time>
      </trkpt>
      <trkpt lat="45.84292" lon="-0.67028">
        <ele>5</ele>
        <time>2017-06-25T08:40:08Z</time>
      </trkpt>
      <trkpt lat="45.84292" lon="-0.67027">
        <ele>5</ele>
        <time>2017-06-25T08:40:09Z</time>
      </trkpt>
      <trkpt lat="45.84291" lon="-0.67025">
        <ele>5</ele>
        <time>2017-06-25T08:40:11Z</time>
      </trkpt>
      <trkpt lat="45.8429" lon="-0.67024">
        <ele>5</ele>
        <time>2017-06-25T08:40:12Z</time>
      </trkpt>
      <trkpt lat="45.84288" lon="-0.67021">
        <ele>5</ele>
        <time>2017-06-25T08:40:14Z</time>
      </trkpt>
      <trkpt lat="45.84287" lon="-0.67019">
        <ele>5</ele>
        <time>2017-06-25T08:40:15Z</time>
      </trkpt>
      <trkpt lat="45.84287" lon="-0.67018">
        <ele>5</ele>
        <time>2017-06-25T08:40:16Z</time>
      </trkpt>
      <trkpt lat="45.84285" lon="-0.67017">
        <ele>5</ele>
        <time>2017-06-25T08:40:17Z</time>
      </trkpt>
      <trkpt lat="45.84285" lon="-0.67015">
        <ele>5</ele>
        <time>2017-06-25T08:40:18Z</time>
      </trkpt>
      <trkpt lat="45.84283" lon="-0.67013">
        <ele>5</ele>
        <time>2017-06-25T08:40:19Z</time>
      </trkpt>
      <trkpt lat="45.84283" lon="-0.67012">
        <ele>5</ele>
        <time>2017-06-25T08:40:20Z</time>
      </trkpt>
      <trkpt lat="45.84282" lon="-0.6701">
        <ele>5</ele>
        <time>2017-06-25T08:40:21Z</time>
      </trkpt>
      <trkpt lat="45.84282" lon="-0.67008">
        <ele>5</ele>
        <time>2017-06-25T08:40:22Z</time>
      </trkpt>
      <trkpt lat="45.84282" lon="-0.67006">
        <ele>5</ele>
        <time>2017-06-25T08:40:23Z</time>
      </trkpt>
      <trkpt lat="45.84281" lon="-0.67004">
        <ele>5</ele>
        <time>2017-06-25T08:40:24Z</time>
      </trkpt>
      <trkpt lat="45.8428" lon="-0.67002">
        <ele>5</ele>
        <time>2017-06-25T08:40:25Z</time>
      </trkpt>
      <trkpt lat="45.8428" lon="-0.67001">
        <ele>5</ele>
        <time>2017-06-25T08:40:26Z</time>
      </trkpt>
      <trkpt lat="45.84279" lon="-0.66999">
        <ele>6</ele>
        <time>2017-06-25T08:40:27Z</time>
      </trkpt>
      <trkpt lat="45.84279" lon="-0.66997">
        <ele>6</ele>
        <time>2017-06-25T08:40:28Z</time>
      </trkpt>
      <trkpt lat="45.84278" lon="-0.66995">
        <ele>6</ele>
        <time>2017-06-25T08:40:29Z</time>
      </trkpt>
      <trkpt lat="45.84277" lon="-0.66994">
        <ele>6</ele>
        <time>2017-06-25T08:40:30Z</time>
      </trkpt>
      <trkpt lat="45.84277" lon="-0.66992">
        <ele>6</ele>
        <time>2017-06-25T08:40:31Z</time>
      </trkpt>
      <trkpt lat="45.84275" lon="-0.6699">
        <ele>6</ele>
        <time>2017-06-25T08:40:32Z</time>
      </trkpt>
      <trkpt lat="45.84275" lon="-0.66989">
        <ele>6</ele>
        <time>2017-06-25T08:40:33Z</time>
      </trkpt>
      <trkpt lat="45.84274" lon="-0.66987">
        <ele>6</ele>
        <time>2017-06-25T08:40:34Z</time>
      </trkpt>
      <trkpt lat="45.84274" lon="-0.66986">
        <ele>6</ele>
        <time>2017-06-25T08:40:35Z</time>
      </trkpt>
      <trkpt lat="45.84274" lon="-0.66984">
        <ele>6</ele>
        <time>2017-06-25T08:40:36Z</time>
      </trkpt>
      <trkpt lat="45.84273" lon="-0.66983">
        <ele>6</ele>
        <time>2017-06-25T08:40:37Z</time>
      </trkpt>
      <trkpt lat="45.84272" lon="-0.66981">
        <ele>6</ele>
        <time>2017-06-25T08:40:38Z</time>
      </trkpt>
      <trkpt lat="45.84271" lon="-0.66979">
        <ele>6</ele>
        <time>2017-06-25T08:40:39Z</time>
      </trkpt>
      <trkpt lat="45.8427" lon="-0.66977">
        <ele>6</ele>
        <time>2017-06-25T08:40:40Z</time>
      </trkpt>
      <trkpt lat="45.84269" lon="-0.66976">
        <ele>6</ele>
        <time>2017-06-25T08:40:41Z</time>
      </trkpt>
      <trkpt lat="45.84269" lon="-0.66975">
        <ele>6</ele>
        <time>2017-06-25T08:40:42Z</time>
      </trkpt>
      <trkpt lat="45.84267" lon="-0.66974">
        <ele>6</ele>
        <time>2017-06-25T08:40:43Z</time>
      </trkpt>
      <trkpt lat="45.84266" lon="-0.66972">
        <ele>7</ele>
        <time>2017-06-25T08:40:44Z</time>
      </trkpt>
      <trkpt lat="45.84266" lon="-0.66971">
        <ele>7</ele>
        <time>2017-06-25T08:40:45Z</time>
      </trkpt>
      <trkpt lat="45.84264" lon="-0.66969">
        <ele>7</ele>
        <time>2017-06-25T08:40:46Z</time>
      </trkpt>
      <trkpt lat="45.84263" lon="-0.66967">
        <ele>7</ele>
        <time>2017-06-25T08:40:47Z</time>
      </trkpt>
      <trkpt lat="45.84262" lon="-0.66964">
        <ele>7</ele>
        <time>2017-06-25T08:40:48Z</time>
      </trkpt>
      <trkpt lat="45.84261" lon="-0.66962">
        <ele>7</ele>
        <time>2017-06-25T08:40:49Z</time>
      </trkpt>
      <trkpt lat="45.84261" lon="-0.6696">
        <ele>7</ele>
        <time>2017-06-25T08:40:50Z</time>
      </trkpt>
      <trkpt lat="45.8426" lon="-0.66959">
        <ele>7</ele>
        <time>2017-06-25T08:40:51Z</time>
      </trkpt>
      <trkpt lat="45.8426" lon="-0.66957">
        <ele>7</ele>
        <time>2017-06-25T08:40:52Z</time>
      </trkpt>
      <trkpt lat="45.84259" lon="-0.66956">
        <ele>7</ele>
        <time>2017-06-25T08:40:53Z</time>
      </trkpt>
      <trkpt lat="45.84258" lon="-0.66953">
        <ele>7</ele>
        <time>2017-06-25T08:40:55Z</time>
      </trkpt>
      <trkpt lat="45.84258" lon="-0.66951">
        <ele>7</ele>
        <time>2017-06-25T08:40:56Z</time>
      </trkpt>
      <trkpt lat="45.84257" lon="-0.6695">
        <ele>7</ele>
        <time>2017-06-25T08:40:57Z</time>
      </trkpt>
      <trkpt lat="45.84256" lon="-0.66948">
        <ele>7</ele>
        <time>2017-06-25T08:40:58Z</time>
      </trkpt>
      <trkpt lat="45.84255" lon="-0.66944">
        <ele>7</ele>
        <time>2017-06-25T08:41:00Z</time>
      </trkpt>
      <trkpt lat="45.84255" lon="-0.66943">
        <ele>7</ele>
        <time>2017-06-25T08:41:01Z</time>
      </trkpt>
      <trkpt lat="45.84253" lon="-0.66941">
        <ele>7</ele>
        <time>2017-06-25T08:41:02Z</time>
      </trkpt>
      <trkpt lat="45.84253" lon="-0.66939">
        <ele>7</ele>
        <time>2017-06-25T08:41:03Z</time>
      </trkpt>
      <trkpt lat="45.84252" lon="-0.66938">
        <ele>7</ele>
        <time>2017-06-25T08:41:04Z</time>
      </trkpt>
      <trkpt lat="45.84251" lon="-0.66937">
        <ele>7</ele>
        <time>2017-06-25T08:41:05Z</time>
      </trkpt>
      <trkpt lat="45.84251" lon="-0.66936">
        <ele>7</ele>
        <time>2017-06-25T08:41:06Z</time>
      </trkpt>
      <trkpt lat="45.8425" lon="-0.66935">
        <ele>5</ele>
        <time>2017-06-25T08:41:07Z</time>
      </trkpt>
      <trkpt lat="45.84249" lon="-0.66934">
        <ele>6</ele>
        <time>2017-06-25T08:41:08Z</time>
      </trkpt>
      <trkpt lat="45.84248" lon="-0.66933">
        <ele>6</ele>
        <time>2017-06-25T08:41:09Z</time>
      </trkpt>
      <trkpt lat="45.84246" lon="-0.66931">
        <ele>6</ele>
        <time>2017-06-25T08:41:10Z</time>
      </trkpt>
      <trkpt lat="45.84245" lon="-0.6693">
        <ele>6</ele>
        <time>2017-06-25T08:41:11Z</time>
      </trkpt>
      <trkpt lat="45.84245" lon="-0.66929">
        <ele>6</ele>
        <time>2017-06-25T08:41:12Z</time>
      </trkpt>
      <trkpt lat="45.84243" lon="-0.66927">
        <ele>6</ele>
        <time>2017-06-25T08:41:14Z</time>
      </trkpt>
      <trkpt lat="45.84242" lon="-0.66926">
        <ele>6</ele>
        <time>2017-06-25T08:41:15Z</time>
      </trkpt>
      <trkpt lat="45.8424" lon="-0.66924">
        <ele>6</ele>
        <time>2017-06-25T08:41:17Z</time>
      </trkpt>
      <trkpt lat="45.8424" lon="-0.66922">
        <ele>6</ele>
        <time>2017-06-25T08:41:19Z</time>
      </trkpt>
      <trkpt lat="45.84238" lon="-0.6692">
        <ele>6</ele>
        <time>2017-06-25T08:41:20Z</time>
      </trkpt>
      <trkpt lat="45.84238" lon="-0.66919">
        <ele>6</ele>
        <time>2017-06-25T08:41:21Z</time>
      </trkpt>
      <trkpt lat="45.84237" lon="-0.66917">
        <ele>6</ele>
        <time>2017-06-25T08:41:22Z</time>
      </trkpt>
      <trkpt lat="45.84236" lon="-0.66916">
        <ele>7</ele>
        <time>2017-06-25T08:41:23Z</time>
      </trkpt>
      <trkpt lat="45.84235" lon="-0.66915">
        <ele>7</ele>
        <time>2017-06-25T08:41:24Z</time>
      </trkpt>
      <trkpt lat="45.84235" lon="-0.66914">
        <ele>7</ele>
        <time>2017-06-25T08:41:25Z</time>
      </trkpt>
      <trkpt lat="45.84234" lon="-0.66912">
        <ele>7</ele>
        <time>2017-06-25T08:41:26Z</time>
      </trkpt>
      <trkpt lat="45.84233" lon="-0.66911">
        <ele>7</ele>
        <time>2017-06-25T08:41:27Z</time>
      </trkpt>
      <trkpt lat="45.84232" lon="-0.6691">
        <ele>7</ele>
        <time>2017-06-25T08:41:28Z</time>
      </trkpt>
      <trkpt lat="45.84231" lon="-0.66908">
        <ele>7</ele>
        <time>2017-06-25T08:41:29Z</time>
      </trkpt>
      <trkpt lat="45.8423" lon="-0.66907">
        <ele>7</ele>
        <time>2017-06-25T08:41:30Z</time>
      </trkpt>
      <trkpt lat="45.84229" lon="-0.66906">
        <ele>7</ele>
        <time>2017-06-25T08:41:31Z</time>
      </trkpt>
      <trkpt lat="45.84228" lon="-0.66905">
        <ele>7</ele>
        <time>2017-06-25T08:41:32Z</time>
      </trkpt>
      <trkpt lat="45.84227" lon="-0.66903">
        <ele>7</ele>
        <time>2017-06-25T08:41:33Z</time>
      </trkpt>
      <trkpt lat="45.84226" lon="-0.66902">
        <ele>7</ele>
        <time>2017-06-25T08:41:34Z</time>
      </trkpt>
      <trkpt lat="45.84225" lon="-0.66901">
        <ele>7</ele>
        <time>2017-06-25T08:41:35Z</time>
      </trkpt>
      <trkpt lat="45.84224" lon="-0.66899">
        <ele>7</ele>
        <time>2017-06-25T08:41:36Z</time>
      </trkpt>
      <trkpt lat="45.84222" lon="-0.66898">
        <ele>7</ele>
        <time>2017-06-25T08:41:37Z</time>
      </trkpt>
      <trkpt lat="45.84221" lon="-0.66897">
        <ele>7</ele>
        <time>2017-06-25T08:41:38Z</time>
      </trkpt>
      <trkpt lat="45.84221" lon="-0.66895">
        <ele>7</ele>
        <time>2017-06-25T08:41:39Z</time>
      </trkpt>
      <trkpt lat="45.84219" lon="-0.66894">
        <ele>7</ele>
        <time>2017-06-25T08:41:40Z</time>
      </trkpt>
      <trkpt lat="45.84218" lon="-0.66893">
        <ele>7</ele>
        <time>2017-06-25T08:41:41Z</time>
      </trkpt>
      <trkpt lat="45.84217" lon="-0.66892">
        <ele>7</ele>
        <time>2017-06-25T08:41:42Z</time>
      </trkpt>
      <trkpt lat="45.84216" lon="-0.6689">
        <ele>7</ele>
        <time>2017-06-25T08:41:43Z</time>
      </trkpt>
      <trkpt lat="45.84216" lon="-0.66888">
        <ele>7</ele>
        <time>2017-06-25T08:41:44Z</time>
      </trkpt>
      <trkpt lat="45.84215" lon="-0.66887">
        <ele>7</ele>
        <time>2017-06-25T08:41:45Z</time>
      </trkpt>
      <trkpt lat="45.84214" lon="-0.66886">
        <ele>7</ele>
        <time>2017-06-25T08:41:46Z</time>
      </trkpt>
      <trkpt lat="45.84213" lon="-0.66885">
        <ele>7</ele>
        <time>2017-06-25T08:41:47Z</time>
      </trkpt>
      <trkpt lat="45.84212" lon="-0.66883">
        <ele>7</ele>
        <time>2017-06-25T08:41:48Z</time>
      </trkpt>
      <trkpt lat="45.84211" lon="-0.66881">
        <ele>7</ele>
        <time>2017-06-25T08:41:49Z</time>
      </trkpt>
      <trkpt lat="45.8421" lon="-0.66879">
        <ele>7</ele>
        <time>2017-06-25T08:41:50Z</time>
      </trkpt>
      <trkpt lat="45.84209" lon="-0.66877">
        <ele>7</ele>
        <time>2017-06-25T08:41:51Z</time>
      </trkpt>
      <trkpt lat="45.84208" lon="-0.66875">
        <ele>7</ele>
        <time>2017-06-25T08:41:52Z</time>
      </trkpt>
      <trkpt lat="45.84207" lon="-0.66873">
        <ele>7</ele>
        <time>2017-06-25T08:41:53Z</time>
      </trkpt>
      <trkpt lat="45.84206" lon="-0.66871">
        <ele>7</ele>
        <time>2017-06-25T08:41:54Z</time>
      </trkpt>
      <trkpt lat="45.84205" lon="-0.6687">
        <ele>7</ele>
        <time>2017-06-25T08:41:55Z</time>
      </trkpt>
      <trkpt lat="45.84204" lon="-0.66869">
        <ele>7</ele>
        <time>2017-06-25T08:41:56Z</time>
      </trkpt>
      <trkpt lat="45.84203" lon="-0.66867">
        <ele>7</ele>
        <time>2017-06-25T08:41:57Z</time>
      </trkpt>
      <trkpt lat="45.84202" lon="-0.66866">
        <ele>7</ele>
        <time>2017-06-25T08:41:58Z</time>
      </trkpt>
      <trkpt lat="45.84201" lon="-0.66864">
        <ele>7</ele>
        <time>2017-06-25T08:41:59Z</time>
      </trkpt>
      <trkpt lat="45.842" lon="-0.66863">
        <ele>7</ele>
        <time>2017-06-25T08:42:00Z</time>
      </trkpt>
      <trkpt lat="45.84199" lon="-0.66861">
        <ele>7</ele>
        <time>2017-06-25T08:42:01Z</time>
      </trkpt>
      <trkpt lat="45.84198" lon="-0.6686">
        <ele>7</ele>
        <time>2017-06-25T08:42:02Z</time>
      </trkpt>
      <trkpt lat="45.84197" lon="-0.66859">
        <ele>7</ele>
        <time>2017-06-25T08:42:03Z</time>
      </trkpt>
      <trkpt lat="45.84196" lon="-0.66858">
        <ele>7</ele>
        <time>2017-06-25T08:42:04Z</time>
      </trkpt>
      <trkpt lat="45.84195" lon="-0.66857">
        <ele>7</ele>
        <time>2017-06-25T08:42:05Z</time>
      </trkpt>
      <trkpt lat="45.84194" lon="-0.66856">
        <ele>7</ele>
        <time>2017-06-25T08:42:06Z</time>
      </trkpt>
      <trkpt lat="45.84193" lon="-0.66854">
        <ele>7</ele>
        <time>2017-06-25T08:42:07Z</time>
      </trkpt>
      <trkpt lat="45.84192" lon="-0.66853">
        <ele>7</ele>
        <time>2017-06-25T08:42:08Z</time>
      </trkpt>
      <trkpt lat="45.84191" lon="-0.66852">
        <ele>7</ele>
        <time>2017-06-25T08:42:09Z</time>
      </trkpt>
      <trkpt lat="45.8419" lon="-0.6685">
        <ele>7</ele>
        <time>2017-06-25T08:42:10Z</time>
      </trkpt>
      <trkpt lat="45.8419" lon="-0.66849">
        <ele>7</ele>
        <time>2017-06-25T08:42:11Z</time>
      </trkpt>
      <trkpt lat="45.84189" lon="-0.66848">
        <ele>7</ele>
        <time>2017-06-25T08:42:12Z</time>
      </trkpt>
      <trkpt lat="45.84188" lon="-0.66846">
        <ele>7</ele>
        <time>2017-06-25T08:42:13Z</time>
      </trkpt>
      <trkpt lat="45.84187" lon="-0.66844">
        <ele>7</ele>
        <time>2017-06-25T08:42:14Z</time>
      </trkpt>
      <trkpt lat="45.84185" lon="-0.66842">
        <ele>7</ele>
        <time>2017-06-25T08:42:15Z</time>
      </trkpt>
      <trkpt lat="45.84185" lon="-0.66841">
        <ele>7</ele>
        <time>2017-06-25T08:42:16Z</time>
      </trkpt>
      <trkpt lat="45.84185" lon="-0.66839">
        <ele>7</ele>
        <time>2017-06-25T08:42:17Z</time>
      </trkpt>
      <trkpt lat="45.84184" lon="-0.66837">
        <ele>7</ele>
        <time>2017-06-25T08:42:18Z</time>
      </trkpt>
      <trkpt lat="45.84183" lon="-0.66835">
        <ele>7</ele>
        <time>2017-06-25T08:42:19Z</time>
      </trkpt>
      <trkpt lat="45.84183" lon="-0.66833">
        <ele>9</ele>
        <time>2017-06-25T08:42:20Z</time>
      </trkpt>
      <trkpt lat="45.84182" lon="-0.66831">
        <ele>9</ele>
        <time>2017-06-25T08:42:21Z</time>
      </trkpt>
      <trkpt lat="45.84182" lon="-0.66829">
        <ele>9</ele>
        <time>2017-06-25T08:42:22Z</time>
      </trkpt>
      <trkpt lat="45.84182" lon="-0.66827">
        <ele>9</ele>
        <time>2017-06-25T08:42:23Z</time>
      </trkpt>
      <trkpt lat="45.84181" lon="-0.66825">
        <ele>9</ele>
        <time>2017-06-25T08:42:24Z</time>
      </trkpt>
      <trkpt lat="45.84181" lon="-0.66823">
        <ele>9</ele>
        <time>2017-06-25T08:42:25Z</time>
      </trkpt>
      <trkpt lat="45.8418" lon="-0.66821">
        <ele>9</ele>
        <time>2017-06-25T08:42:26Z</time>
      </trkpt>
      <trkpt lat="45.84179" lon="-0.6682">
        <ele>9</ele>
        <time>2017-06-25T08:42:27Z</time>
      </trkpt>
      <trkpt lat="45.84178" lon="-0.66819">
        <ele>9</ele>
        <time>2017-06-25T08:42:28Z</time>
      </trkpt>
      <trkpt lat="45.84177" lon="-0.66817">
        <ele>9</ele>
        <time>2017-06-25T08:42:29Z</time>
      </trkpt>
      <trkpt lat="45.84177" lon="-0.66815">
        <ele>9</ele>
        <time>2017-06-25T08:42:30Z</time>
      </trkpt>
      <trkpt lat="45.84176" lon="-0.66814">
        <ele>9</ele>
        <time>2017-06-25T08:42:31Z</time>
      </trkpt>
      <trkpt lat="45.84175" lon="-0.66812">
        <ele>9</ele>
        <time>2017-06-25T08:42:32Z</time>
      </trkpt>
      <trkpt lat="45.84174" lon="-0.66811">
        <ele>9</ele>
        <time>2017-06-25T08:42:33Z</time>
      </trkpt>
      <trkpt lat="45.84174" lon="-0.6681">
        <ele>9</ele>
        <time>2017-06-25T08:42:34Z</time>
      </trkpt>
      <trkpt lat="45.84172" lon="-0.66808">
        <ele>9</ele>
        <time>2017-06-25T08:42:35Z</time>
      </trkpt>
      <trkpt lat="45.84172" lon="-0.66807">
        <ele>9</ele>
        <time>2017-06-25T08:42:36Z</time>
      </trkpt>
      <trkpt lat="45.84171" lon="-0.66805">
        <ele>9</ele>
        <time>2017-06-25T08:42:38Z</time>
      </trkpt>
      <trkpt lat="45.8417" lon="-0.66803">
        <ele>9</ele>
        <time>2017-06-25T08:42:40Z</time>
      </trkpt>
      <trkpt lat="45.84169" lon="-0.66802">
        <ele>9</ele>
        <time>2017-06-25T08:42:41Z</time>
      </trkpt>
      <trkpt lat="45.84169" lon="-0.668">
        <ele>10</ele>
        <time>2017-06-25T08:42:42Z</time>
      </trkpt>
      <trkpt lat="45.84168" lon="-0.66798">
        <ele>10</ele>
        <time>2017-06-25T08:42:43Z</time>
      </trkpt>
      <trkpt lat="45.84168" lon="-0.66797">
        <ele>10</ele>
        <time>2017-06-25T08:42:44Z</time>
      </trkpt>
      <trkpt lat="45.84168" lon="-0.66795">
        <ele>10</ele>
        <time>2017-06-25T08:42:45Z</time>
      </trkpt>
      <trkpt lat="45.84168" lon="-0.66793">
        <ele>10</ele>
        <time>2017-06-25T08:42:47Z</time>
      </trkpt>
      <trkpt lat="45.84167" lon="-0.66792">
        <ele>10</ele>
        <time>2017-06-25T08:42:48Z</time>
      </trkpt>
      <trkpt lat="45.84166" lon="-0.6679">
        <ele>7</ele>
        <time>2017-06-25T08:42:49Z</time>
      </trkpt>
      <trkpt lat="45.84166" lon="-0.66788">
        <ele>7</ele>
        <time>2017-06-25T08:42:51Z</time>
      </trkpt>
      <trkpt lat="45.84166" lon="-0.66786">
        <ele>7</ele>
        <time>2017-06-25T08:42:52Z</time>
      </trkpt>
      <trkpt lat="45.84164" lon="-0.66784">
        <ele>7</ele>
        <time>2017-06-25T08:42:53Z</time>
      </trkpt>
      <trkpt lat="45.84164" lon="-0.66783">
        <ele>7</ele>
        <time>2017-06-25T08:42:54Z</time>
      </trkpt>
      <trkpt lat="45.84163" lon="-0.66781">
        <ele>7</ele>
        <time>2017-06-25T08:42:55Z</time>
      </trkpt>
      <trkpt lat="45.84162" lon="-0.66779">
        <ele>7</ele>
        <time>2017-06-25T08:42:56Z</time>
      </trkpt>
      <trkpt lat="45.84161" lon="-0.66778">
        <ele>7</ele>
        <time>2017-06-25T08:42:57Z</time>
      </trkpt>
      <trkpt lat="45.8416" lon="-0.66776">
        <ele>7</ele>
        <time>2017-06-25T08:42:58Z</time>
      </trkpt>
      <trkpt lat="45.8416" lon="-0.66775">
        <ele>7</ele>
        <time>2017-06-25T08:42:59Z</time>
      </trkpt>
      <trkpt lat="45.84159" lon="-0.66774">
        <ele>7</ele>
        <time>2017-06-25T08:43:00Z</time>
      </trkpt>
      <trkpt lat="45.84158" lon="-0.66772">
        <ele>7</ele>
        <time>2017-06-25T08:43:01Z</time>
      </trkpt>
      <trkpt lat="45.84158" lon="-0.6677">
        <ele>7</ele>
        <time>2017-06-25T08:43:02Z</time>
      </trkpt>
      <trkpt lat="45.84158" lon="-0.66768">
        <ele>7</ele>
        <time>2017-06-25T08:43:03Z</time>
      </trkpt>
      <trkpt lat="45.84157" lon="-0.66767">
        <ele>7</ele>
        <time>2017-06-25T08:43:04Z</time>
      </trkpt>
      <trkpt lat="45.84157" lon="-0.66764">
        <ele>7</ele>
        <time>2017-06-25T08:43:05Z</time>
      </trkpt>
      <trkpt lat="45.84156" lon="-0.66763">
        <ele>8</ele>
        <time>2017-06-25T08:43:06Z</time>
      </trkpt>
      <trkpt lat="45.84156" lon="-0.66761">
        <ele>8</ele>
        <time>2017-06-25T08:43:07Z</time>
      </trkpt>
      <trkpt lat="45.84156" lon="-0.66759">
        <ele>8</ele>
        <time>2017-06-25T08:43:08Z</time>
      </trkpt>
      <trkpt lat="45.84155" lon="-0.66758">
        <ele>8</ele>
        <time>2017-06-25T08:43:09Z</time>
      </trkpt>
      <trkpt lat="45.84155" lon="-0.66756">
        <ele>8</ele>
        <time>2017-06-25T08:43:10Z</time>
      </trkpt>
      <trkpt lat="45.84154" lon="-0.66755">
        <ele>8</ele>
        <time>2017-06-25T08:43:11Z</time>
      </trkpt>
      <trkpt lat="45.84153" lon="-0.66753">
        <ele>8</ele>
        <time>2017-06-25T08:43:12Z</time>
      </trkpt>
      <trkpt lat="45.84152" lon="-0.66751">
        <ele>8</ele>
        <time>2017-06-25T08:43:13Z</time>
      </trkpt>
      <trkpt lat="45.84152" lon="-0.6675">
        <ele>8</ele>
        <time>2017-06-25T08:43:14Z</time>
      </trkpt>
      <trkpt lat="45.84151" lon="-0.66748">
        <ele>8</ele>
        <time>2017-06-25T08:43:15Z</time>
      </trkpt>
      <trkpt lat="45.8415" lon="-0.66747">
        <ele>8</ele>
        <time>2017-06-25T08:43:16Z</time>
      </trkpt>
      <trkpt lat="45.84149" lon="-0.66745">
        <ele>8</ele>
        <time>2017-06-25T08:43:17Z</time>
      </trkpt>
      <trkpt lat="45.84149" lon="-0.66743">
        <ele>8</ele>
        <time>2017-06-25T08:43:18Z</time>
      </trkpt>
      <trkpt lat="45.84148" lon="-0.66741">
        <ele>7</ele>
        <time>2017-06-25T08:43:19Z</time>
      </trkpt>
      <trkpt lat="45.84147" lon="-0.6674">
        <ele>7</ele>
        <time>2017-06-25T08:43:20Z</time>
      </trkpt>
      <trkpt lat="45.84146" lon="-0.66738">
        <ele>7</ele>
        <time>2017-06-25T08:43:21Z</time>
      </trkpt>
      <trkpt lat="45.84145" lon="-0.66736">
        <ele>7</ele>
        <time>2017-06-25T08:43:22Z</time>
      </trkpt>
      <trkpt lat="45.84145" lon="-0.66735">
        <ele>7</ele>
        <time>2017-06-25T08:43:23Z</time>
      </trkpt>
      <trkpt lat="45.84144" lon="-0.66733">
        <ele>7</ele>
        <time>2017-06-25T08:43:24Z</time>
      </trkpt>
      <trkpt lat="45.84142" lon="-0.66732">
        <ele>7</ele>
        <time>2017-06-25T08:43:25Z</time>
      </trkpt>
      <trkpt lat="45.84142" lon="-0.66731">
        <ele>7</ele>
        <time>2017-06-25T08:43:26Z</time>
      </trkpt>
      <trkpt lat="45.8414" lon="-0.66729">
        <ele>7</ele>
        <time>2017-06-25T08:43:27Z</time>
      </trkpt>
      <trkpt lat="45.8414" lon="-0.66728">
        <ele>7</ele>
        <time>2017-06-25T08:43:28Z</time>
      </trkpt>
      <trkpt lat="45.84139" lon="-0.66726">
        <ele>7</ele>
        <time>2017-06-25T08:43:29Z</time>
      </trkpt>
      <trkpt lat="45.84139" lon="-0.66725">
        <ele>7</ele>
        <time>2017-06-25T08:43:30Z</time>
      </trkpt>
      <trkpt lat="45.84139" lon="-0.66722">
        <ele>7</ele>
        <time>2017-06-25T08:43:32Z</time>
      </trkpt>
      <trkpt lat="45.84138" lon="-0.66721">
        <ele>7</ele>
        <time>2017-06-25T08:43:33Z</time>
      </trkpt>
      <trkpt lat="45.84137" lon="-0.66719">
        <ele>7</ele>
        <time>2017-06-25T08:43:34Z</time>
      </trkpt>
      <trkpt lat="45.84137" lon="-0.66717">
        <ele>7</ele>
        <time>2017-06-25T08:43:35Z</time>
      </trkpt>
      <trkpt lat="45.84137" lon="-0.66716">
        <ele>7</ele>
        <time>2017-06-25T08:43:36Z</time>
      </trkpt>
      <trkpt lat="45.84136" lon="-0.66714">
        <ele>7</ele>
        <time>2017-06-25T08:43:37Z</time>
      </trkpt>
      <trkpt lat="45.84136" lon="-0.66713">
        <ele>7</ele>
        <time>2017-06-25T08:43:38Z</time>
      </trkpt>
      <trkpt lat="45.84135" lon="-0.6671">
        <ele>7</ele>
        <time>2017-06-25T08:43:39Z</time>
      </trkpt>
      <trkpt lat="45.84135" lon="-0.66709">
        <ele>7</ele>
        <time>2017-06-25T08:43:40Z</time>
      </trkpt>
      <trkpt lat="45.84134" lon="-0.66707">
        <ele>7</ele>
        <time>2017-06-25T08:43:41Z</time>
      </trkpt>
      <trkpt lat="45.84133" lon="-0.66704">
        <ele>7</ele>
        <time>2017-06-25T08:43:42Z</time>
      </trkpt>
      <trkpt lat="45.84133" lon="-0.66702">
        <ele>7</ele>
        <time>2017-06-25T08:43:43Z</time>
      </trkpt>
      <trkpt lat="45.84132" lon="-0.667">
        <ele>7</ele>
        <time>2017-06-25T08:43:44Z</time>
      </trkpt>
      <trkpt lat="45.84131" lon="-0.66697">
        <ele>7</ele>
        <time>2017-06-25T08:43:46Z</time>
      </trkpt>
      <trkpt lat="45.8413" lon="-0.66695">
        <ele>7</ele>
        <time>2017-06-25T08:43:47Z</time>
      </trkpt>
      <trkpt lat="45.84129" lon="-0.66692">
        <ele>7</ele>
        <time>2017-06-25T08:43:49Z</time>
      </trkpt>
      <trkpt lat="45.84127" lon="-0.6669">
        <ele>7</ele>
        <time>2017-06-25T08:43:50Z</time>
      </trkpt>
      <trkpt lat="45.84127" lon="-0.66688">
        <ele>7</ele>
        <time>2017-06-25T08:43:51Z</time>
      </trkpt>
      <trkpt lat="45.84126" lon="-0.66687">
        <ele>7</ele>
        <time>2017-06-25T08:43:52Z</time>
      </trkpt>
      <trkpt lat="45.84126" lon="-0.66686">
        <ele>7</ele>
        <time>2017-06-25T08:43:53Z</time>
      </trkpt>
      <trkpt lat="45.84126" lon="-0.66684">
        <ele>7</ele>
        <time>2017-06-25T08:43:54Z</time>
      </trkpt>
      <trkpt lat="45.84125" lon="-0.66682">
        <ele>6</ele>
        <time>2017-06-25T08:43:55Z</time>
      </trkpt>
      <trkpt lat="45.84124" lon="-0.66679">
        <ele>6</ele>
        <time>2017-06-25T08:43:57Z</time>
      </trkpt>
      <trkpt lat="45.84124" lon="-0.66677">
        <ele>6</ele>
        <time>2017-06-25T08:43:58Z</time>
      </trkpt>
      <trkpt lat="45.84124" lon="-0.66675">
        <ele>6</ele>
        <time>2017-06-25T08:43:59Z</time>
      </trkpt>
      <trkpt lat="45.84123" lon="-0.66672">
        <ele>6</ele>
        <time>2017-06-25T08:44:01Z</time>
      </trkpt>
      <trkpt lat="45.84123" lon="-0.66671">
        <ele>6</ele>
        <time>2017-06-25T08:44:02Z</time>
      </trkpt>
      <trkpt lat="45.84123" lon="-0.66668">
        <ele>6</ele>
        <time>2017-06-25T08:44:03Z</time>
      </trkpt>
      <trkpt lat="45.84123" lon="-0.66667">
        <ele>6</ele>
        <time>2017-06-25T08:44:04Z</time>
      </trkpt>
      <trkpt lat="45.84123" lon="-0.66665">
        <ele>7</ele>
        <time>2017-06-25T08:44:05Z</time>
      </trkpt>
      <trkpt lat="45.84122" lon="-0.66663">
        <ele>7</ele>
        <time>2017-06-25T08:44:07Z</time>
      </trkpt>
      <trkpt lat="45.84122" lon="-0.66661">
        <ele>7</ele>
        <time>2017-06-25T08:44:08Z</time>
      </trkpt>
      <trkpt lat="45.84122" lon="-0.6666">
        <ele>7</ele>
        <time>2017-06-25T08:44:09Z</time>
      </trkpt>
      <trkpt lat="45.84121" lon="-0.66656">
        <ele>7</ele>
        <time>2017-06-25T08:44:11Z</time>
      </trkpt>
      <trkpt lat="45.84121" lon="-0.66653">
        <ele>7</ele>
        <time>2017-06-25T08:44:12Z</time>
      </trkpt>
      <trkpt lat="45.8412" lon="-0.66652">
        <ele>7</ele>
        <time>2017-06-25T08:44:13Z</time>
      </trkpt>
      <trkpt lat="45.8412" lon="-0.66651">
        <ele>7</ele>
        <time>2017-06-25T08:44:14Z</time>
      </trkpt>
      <trkpt lat="45.84119" lon="-0.66648">
        <ele>7</ele>
        <time>2017-06-25T08:44:15Z</time>
      </trkpt>
      <trkpt lat="45.84119" lon="-0.66646">
        <ele>7</ele>
        <time>2017-06-25T08:44:16Z</time>
      </trkpt>
      <trkpt lat="45.84119" lon="-0.66643">
        <ele>7</ele>
        <time>2017-06-25T08:44:17Z</time>
      </trkpt>
      <trkpt lat="45.84118" lon="-0.66642">
        <ele>7</ele>
        <time>2017-06-25T08:44:19Z</time>
      </trkpt>
      <trkpt lat="45.84117" lon="-0.6664">
        <ele>7</ele>
        <time>2017-06-25T08:44:20Z</time>
      </trkpt>
      <trkpt lat="45.84117" lon="-0.66637">
        <ele>7</ele>
        <time>2017-06-25T08:44:21Z</time>
      </trkpt>
      <trkpt lat="45.84116" lon="-0.66636">
        <ele>7</ele>
        <time>2017-06-25T08:44:22Z</time>
      </trkpt>
      <trkpt lat="45.84115" lon="-0.66635">
        <ele>7</ele>
        <time>2017-06-25T08:44:23Z</time>
      </trkpt>
      <trkpt lat="45.84113" lon="-0.66634">
        <ele>7</ele>
        <time>2017-06-25T08:44:24Z</time>
      </trkpt>
      <trkpt lat="45.84112" lon="-0.66632">
        <ele>7</ele>
        <time>2017-06-25T08:44:25Z</time>
      </trkpt>
      <trkpt lat="45.84112" lon="-0.66631">
        <ele>7</ele>
        <time>2017-06-25T08:44:26Z</time>
      </trkpt>
      <trkpt lat="45.84111" lon="-0.66629">
        <ele>7</ele>
        <time>2017-06-25T08:44:28Z</time>
      </trkpt>
      <trkpt lat="45.84111" lon="-0.66627">
        <ele>7</ele>
        <time>2017-06-25T08:44:29Z</time>
      </trkpt>
      <trkpt lat="45.8411" lon="-0.66627">
        <ele>7</ele>
        <time>2017-06-25T08:44:30Z</time>
      </trkpt>
      <trkpt lat="45.84108" lon="-0.66626">
        <ele>7</ele>
        <time>2017-06-25T08:44:31Z</time>
      </trkpt>
      <trkpt lat="45.84107" lon="-0.66624">
        <ele>7</ele>
        <time>2017-06-25T08:44:32Z</time>
      </trkpt>
      <trkpt lat="45.84106" lon="-0.66622">
        <ele>7</ele>
        <time>2017-06-25T08:44:33Z</time>
      </trkpt>
      <trkpt lat="45.84105" lon="-0.66621">
        <ele>7</ele>
        <time>2017-06-25T08:44:34Z</time>
      </trkpt>
      <trkpt lat="45.84104" lon="-0.66619">
        <ele>7</ele>
        <time>2017-06-25T08:44:35Z</time>
      </trkpt>
      <trkpt lat="45.84102" lon="-0.66618">
        <ele>7</ele>
        <time>2017-06-25T08:44:36Z</time>
      </trkpt>
      <trkpt lat="45.84101" lon="-0.66616">
        <ele>7</ele>
        <time>2017-06-25T08:44:37Z</time>
      </trkpt>
      <trkpt lat="45.841" lon="-0.66615">
        <ele>7</ele>
        <time>2017-06-25T08:44:38Z</time>
      </trkpt>
      <trkpt lat="45.84098" lon="-0.66613">
        <ele>7</ele>
        <time>2017-06-25T08:44:39Z</time>
      </trkpt>
      <trkpt lat="45.84097" lon="-0.66611">
        <ele>7</ele>
        <time>2017-06-25T08:44:40Z</time>
      </trkpt>
      <trkpt lat="45.84097" lon="-0.6661">
        <ele>7</ele>
        <time>2017-06-25T08:44:41Z</time>
      </trkpt>
      <trkpt lat="45.84096" lon="-0.66607">
        <ele>7</ele>
        <time>2017-06-25T08:44:43Z</time>
      </trkpt>
      <trkpt lat="45.84095" lon="-0.66605">
        <ele>7</ele>
        <time>2017-06-25T08:44:44Z</time>
      </trkpt>
      <trkpt lat="45.84094" lon="-0.66603">
        <ele>7</ele>
        <time>2017-06-25T08:44:45Z</time>
      </trkpt>
      <trkpt lat="45.84093" lon="-0.66601">
        <ele>7</ele>
        <time>2017-06-25T08:44:46Z</time>
      </trkpt>
      <trkpt lat="45.84092" lon="-0.66599">
        <ele>7</ele>
        <time>2017-06-25T08:44:47Z</time>
      </trkpt>
      <trkpt lat="45.8409" lon="-0.66597">
        <ele>7</ele>
        <time>2017-06-25T08:44:48Z</time>
      </trkpt>
      <trkpt lat="45.84089" lon="-0.66595">
        <ele>7</ele>
        <time>2017-06-25T08:44:49Z</time>
      </trkpt>
      <trkpt lat="45.84089" lon="-0.66594">
        <ele>7</ele>
        <time>2017-06-25T08:44:50Z</time>
      </trkpt>
      <trkpt lat="45.84088" lon="-0.66591">
        <ele>7</ele>
        <time>2017-06-25T08:44:51Z</time>
      </trkpt>
      <trkpt lat="45.84087" lon="-0.66589">
        <ele>7</ele>
        <time>2017-06-25T08:44:52Z</time>
      </trkpt>
      <trkpt lat="45.84087" lon="-0.66587">
        <ele>7</ele>
        <time>2017-06-25T08:44:53Z</time>
      </trkpt>
      <trkpt lat="45.84086" lon="-0.66585">
        <ele>7</ele>
        <time>2017-06-25T08:44:54Z</time>
      </trkpt>
      <trkpt lat="45.84085" lon="-0.66584">
        <ele>7</ele>
        <time>2017-06-25T08:44:55Z</time>
      </trkpt>
      <trkpt lat="45.84085" lon="-0.66582">
        <ele>7</ele>
        <time>2017-06-25T08:44:56Z</time>
      </trkpt>
      <trkpt lat="45.84084" lon="-0.66581">
        <ele>7</ele>
        <time>2017-06-25T08:44:57Z</time>
      </trkpt>
      <trkpt lat="45.84084" lon="-0.66579">
        <ele>7</ele>
        <time>2017-06-25T08:44:58Z</time>
      </trkpt>
      <trkpt lat="45.84083" lon="-0.66578">
        <ele>7</ele>
        <time>2017-06-25T08:44:59Z</time>
      </trkpt>
      <trkpt lat="45.84083" lon="-0.66576">
        <ele>7</ele>
        <time>2017-06-25T08:45:00Z</time>
      </trkpt>
      <trkpt lat="45.84082" lon="-0.66575">
        <ele>7</ele>
        <time>2017-06-25T08:45:01Z</time>
      </trkpt>
      <trkpt lat="45.84082" lon="-0.66573">
        <ele>7</ele>
        <time>2017-06-25T08:45:02Z</time>
      </trkpt>
      <trkpt lat="45.84081" lon="-0.6657">
        <ele>7</ele>
        <time>2017-06-25T08:45:04Z</time>
      </trkpt>
      <trkpt lat="45.8408" lon="-0.66568">
        <ele>7</ele>
        <time>2017-06-25T08:45:05Z</time>
      </trkpt>
      <trkpt lat="45.8408" lon="-0.66566">
        <ele>7</ele>
        <time>2017-06-25T08:45:06Z</time>
      </trkpt>
      <trkpt lat="45.84079" lon="-0.66565">
        <ele>7</ele>
        <time>2017-06-25T08:45:07Z</time>
      </trkpt>
      <trkpt lat="45.84079" lon="-0.66563">
        <ele>6</ele>
        <time>2017-06-25T08:45:08Z</time>
      </trkpt>
      <trkpt lat="45.84079" lon="-0.66561">
        <ele>6</ele>
        <time>2017-06-25T08:45:09Z</time>
      </trkpt>
      <trkpt lat="45.84079" lon="-0.66559">
        <ele>6</ele>
        <time>2017-06-25T08:45:10Z</time>
      </trkpt>
      <trkpt lat="45.84078" lon="-0.66557">
        <ele>6</ele>
        <time>2017-06-25T08:45:11Z</time>
      </trkpt>
      <trkpt lat="45.84078" lon="-0.66555">
        <ele>7</ele>
        <time>2017-06-25T08:45:12Z</time>
      </trkpt>
      <trkpt lat="45.84078" lon="-0.66553">
        <ele>7</ele>
        <time>2017-06-25T08:45:13Z</time>
      </trkpt>
      <trkpt lat="45.84078" lon="-0.66551">
        <ele>7</ele>
        <time>2017-06-25T08:45:14Z</time>
      </trkpt>
      <trkpt lat="45.84078" lon="-0.6655">
        <ele>7</ele>
        <time>2017-06-25T08:45:15Z</time>
      </trkpt>
      <trkpt lat="45.84078" lon="-0.66549">
        <ele>7</ele>
        <time>2017-06-25T08:45:16Z</time>
      </trkpt>
      <trkpt lat="45.84078" lon="-0.66547">
        <ele>7</ele>
        <time>2017-06-25T08:45:17Z</time>
      </trkpt>
      <trkpt lat="45.84078" lon="-0.66545">
        <ele>7</ele>
        <time>2017-06-25T08:45:18Z</time>
      </trkpt>
      <trkpt lat="45.84077" lon="-0.66543">
        <ele>7</ele>
        <time>2017-06-25T08:45:19Z</time>
      </trkpt>
      <trkpt lat="45.84077" lon="-0.66541">
        <ele>7</ele>
        <time>2017-06-25T08:45:20Z</time>
      </trkpt>
      <trkpt lat="45.84077" lon="-0.6654">
        <ele>7</ele>
        <time>2017-06-25T08:45:21Z</time>
      </trkpt>
      <trkpt lat="45.84076" lon="-0.66538">
        <ele>7</ele>
        <time>2017-06-25T08:45:22Z</time>
      </trkpt>
      <trkpt lat="45.84076" lon="-0.66536">
        <ele>7</ele>
        <time>2017-06-25T08:45:23Z</time>
      </trkpt>
      <trkpt lat="45.84076" lon="-0.66535">
        <ele>7</ele>
        <time>2017-06-25T08:45:24Z</time>
      </trkpt>
      <trkpt lat="45.84075" lon="-0.66533">
        <ele>7</ele>
        <time>2017-06-25T08:45:25Z</time>
      </trkpt>
      <trkpt lat="45.84074" lon="-0.66532">
        <ele>7</ele>
        <time>2017-06-25T08:45:26Z</time>
      </trkpt>
      <trkpt lat="45.84074" lon="-0.6653">
        <ele>7</ele>
        <time>2017-06-25T08:45:27Z</time>
      </trkpt>
      <trkpt lat="45.84074" lon="-0.66528">
        <ele>7</ele>
        <time>2017-06-25T08:45:28Z</time>
      </trkpt>
      <trkpt lat="45.84073" lon="-0.66525">
        <ele>7</ele>
        <time>2017-06-25T08:45:29Z</time>
      </trkpt>
      <trkpt lat="45.84073" lon="-0.66523">
        <ele>7</ele>
        <time>2017-06-25T08:45:30Z</time>
      </trkpt>
      <trkpt lat="45.84073" lon="-0.66522">
        <ele>7</ele>
        <time>2017-06-25T08:45:31Z</time>
      </trkpt>
      <trkpt lat="45.84072" lon="-0.66519">
        <ele>8</ele>
        <time>2017-06-25T08:45:32Z</time>
      </trkpt>
      <trkpt lat="45.84072" lon="-0.66518">
        <ele>8</ele>
        <time>2017-06-25T08:45:33Z</time>
      </trkpt>
      <trkpt lat="45.84072" lon="-0.66516">
        <ele>8</ele>
        <time>2017-06-25T08:45:34Z</time>
      </trkpt>
      <trkpt lat="45.84071" lon="-0.66514">
        <ele>8</ele>
        <time>2017-06-25T08:45:35Z</time>
      </trkpt>
      <trkpt lat="45.84071" lon="-0.66513">
        <ele>8</ele>
        <time>2017-06-25T08:45:36Z</time>
      </trkpt>
      <trkpt lat="45.8407" lon="-0.66511">
        <ele>8</ele>
        <time>2017-06-25T08:45:37Z</time>
      </trkpt>
      <trkpt lat="45.8407" lon="-0.6651">
        <ele>8</ele>
        <time>2017-06-25T08:45:38Z</time>
      </trkpt>
      <trkpt lat="45.8407" lon="-0.66508">
        <ele>8</ele>
        <time>2017-06-25T08:45:39Z</time>
      </trkpt>
      <trkpt lat="45.84069" lon="-0.66506">
        <ele>8</ele>
        <time>2017-06-25T08:45:40Z</time>
      </trkpt>
      <trkpt lat="45.84069" lon="-0.66505">
        <ele>8</ele>
        <time>2017-06-25T08:45:41Z</time>
      </trkpt>
      <trkpt lat="45.84069" lon="-0.66503">
        <ele>8</ele>
        <time>2017-06-25T08:45:42Z</time>
      </trkpt>
      <trkpt lat="45.84069" lon="-0.66502">
        <ele>8</ele>
        <time>2017-06-25T08:45:43Z</time>
      </trkpt>
      <trkpt lat="45.84068" lon="-0.665">
        <ele>9</ele>
        <time>2017-06-25T08:45:44Z</time>
      </trkpt>
      <trkpt lat="45.84068" lon="-0.66498">
        <ele>9</ele>
        <time>2017-06-25T08:45:45Z</time>
      </trkpt>
      <trkpt lat="45.84068" lon="-0.66497">
        <ele>9</ele>
        <time>2017-06-25T08:45:46Z</time>
      </trkpt>
      <trkpt lat="45.84067" lon="-0.66495">
        <ele>9</ele>
        <time>2017-06-25T08:45:47Z</time>
      </trkpt>
      <trkpt lat="45.84067" lon="-0.66493">
        <ele>9</ele>
        <time>2017-06-25T08:45:48Z</time>
      </trkpt>
      <trkpt lat="45.84066" lon="-0.66491">
        <ele>9</ele>
        <time>2017-06-25T08:45:49Z</time>
      </trkpt>
      <trkpt lat="45.84065" lon="-0.6649">
        <ele>9</ele>
        <time>2017-06-25T08:45:50Z</time>
      </trkpt>
      <trkpt lat="45.84065" lon="-0.66488">
        <ele>9</ele>
        <time>2017-06-25T08:45:51Z</time>
      </trkpt>
      <trkpt lat="45.84063" lon="-0.66487">
        <ele>9</ele>
        <time>2017-06-25T08:45:52Z</time>
      </trkpt>
      <trkpt lat="45.84063" lon="-0.66485">
        <ele>9</ele>
        <time>2017-06-25T08:45:53Z</time>
      </trkpt>
      <trkpt lat="45.84062" lon="-0.66484">
        <ele>9</ele>
        <time>2017-06-25T08:45:54Z</time>
      </trkpt>
      <trkpt lat="45.84061" lon="-0.66481">
        <ele>9</ele>
        <time>2017-06-25T08:45:56Z</time>
      </trkpt>
      <trkpt lat="45.84061" lon="-0.66479">
        <ele>9</ele>
        <time>2017-06-25T08:45:57Z</time>
      </trkpt>
      <trkpt lat="45.84061" lon="-0.66478">
        <ele>9</ele>
        <time>2017-06-25T08:45:58Z</time>
      </trkpt>
      <trkpt lat="45.84061" lon="-0.66476">
        <ele>9</ele>
        <time>2017-06-25T08:45:59Z</time>
      </trkpt>
      <trkpt lat="45.8406" lon="-0.66473">
        <ele>9</ele>
        <time>2017-06-25T08:46:00Z</time>
      </trkpt>
      <trkpt lat="45.8406" lon="-0.66471">
        <ele>9</ele>
        <time>2017-06-25T08:46:01Z</time>
      </trkpt>
      <trkpt lat="45.84059" lon="-0.66469">
        <ele>9</ele>
        <time>2017-06-25T08:46:02Z</time>
      </trkpt>
      <trkpt lat="45.84059" lon="-0.66467">
        <ele>9</ele>
        <time>2017-06-25T08:46:03Z</time>
      </trkpt>
      <trkpt lat="45.84058" lon="-0.66465">
        <ele>9</ele>
        <time>2017-06-25T08:46:04Z</time>
      </trkpt>
      <trkpt lat="45.84058" lon="-0.66464">
        <ele>9</ele>
        <time>2017-06-25T08:46:05Z</time>
      </trkpt>
      <trkpt lat="45.84058" lon="-0.66461">
        <ele>9</ele>
        <time>2017-06-25T08:46:06Z</time>
      </trkpt>
      <trkpt lat="45.84058" lon="-0.66459">
        <ele>9</ele>
        <time>2017-06-25T08:46:07Z</time>
      </trkpt>
      <trkpt lat="45.84058" lon="-0.66457">
        <ele>9</ele>
        <time>2017-06-25T08:46:08Z</time>
      </trkpt>
      <trkpt lat="45.84058" lon="-0.66455">
        <ele>9</ele>
        <time>2017-06-25T08:46:09Z</time>
      </trkpt>
      <trkpt lat="45.84058" lon="-0.66452">
        <ele>9</ele>
        <time>2017-06-25T08:46:10Z</time>
      </trkpt>
      <trkpt lat="45.84059" lon="-0.66451">
        <ele>9</ele>
        <time>2017-06-25T08:46:12Z</time>
      </trkpt>
      <trkpt lat="45.84059" lon="-0.66449">
        <ele>9</ele>
        <time>2017-06-25T08:46:13Z</time>
      </trkpt>
      <trkpt lat="45.84059" lon="-0.66448">
        <ele>9</ele>
        <time>2017-06-25T08:46:14Z</time>
      </trkpt>
      <trkpt lat="45.84058" lon="-0.66445">
        <ele>9</ele>
        <time>2017-06-25T08:46:16Z</time>
      </trkpt>
      <trkpt lat="45.84058" lon="-0.66443">
        <ele>9</ele>
        <time>2017-06-25T08:46:17Z</time>
      </trkpt>
      <trkpt lat="45.84057" lon="-0.66441">
        <ele>9</ele>
        <time>2017-06-25T08:46:18Z</time>
      </trkpt>
      <trkpt lat="45.84057" lon="-0.66438">
        <ele>9</ele>
        <time>2017-06-25T08:46:19Z</time>
      </trkpt>
      <trkpt lat="45.84056" lon="-0.66436">
        <ele>10</ele>
        <time>2017-06-25T08:46:20Z</time>
      </trkpt>
      <trkpt lat="45.84055" lon="-0.66434">
        <ele>10</ele>
        <time>2017-06-25T08:46:21Z</time>
      </trkpt>
      <trkpt lat="45.84054" lon="-0.66432">
        <ele>10</ele>
        <time>2017-06-25T08:46:23Z</time>
      </trkpt>
      <trkpt lat="45.84054" lon="-0.66431">
        <ele>10</ele>
        <time>2017-06-25T08:46:24Z</time>
      </trkpt>
      <trkpt lat="45.84053" lon="-0.66429">
        <ele>9</ele>
        <time>2017-06-25T08:46:25Z</time>
      </trkpt>
      <trkpt lat="45.84053" lon="-0.66428">
        <ele>10</ele>
        <time>2017-06-25T08:46:26Z</time>
      </trkpt>
      <trkpt lat="45.84053" lon="-0.66425">
        <ele>10</ele>
        <time>2017-06-25T08:46:28Z</time>
      </trkpt>
      <trkpt lat="45.84052" lon="-0.66424">
        <ele>10</ele>
        <time>2017-06-25T08:46:29Z</time>
      </trkpt>
      <trkpt lat="45.84052" lon="-0.66421">
        <ele>10</ele>
        <time>2017-06-25T08:46:30Z</time>
      </trkpt>
      <trkpt lat="45.84051" lon="-0.6642">
        <ele>9</ele>
        <time>2017-06-25T08:46:31Z</time>
      </trkpt>
      <trkpt lat="45.8405" lon="-0.66418">
        <ele>9</ele>
        <time>2017-06-25T08:46:32Z</time>
      </trkpt>
      <trkpt lat="45.8405" lon="-0.66417">
        <ele>10</ele>
        <time>2017-06-25T08:46:33Z</time>
      </trkpt>
      <trkpt lat="45.84049" lon="-0.66415">
        <ele>10</ele>
        <time>2017-06-25T08:46:34Z</time>
      </trkpt>
      <trkpt lat="45.84048" lon="-0.66413">
        <ele>10</ele>
        <time>2017-06-25T08:46:35Z</time>
      </trkpt>
      <trkpt lat="45.84048" lon="-0.6641">
        <ele>10</ele>
        <time>2017-06-25T08:46:36Z</time>
      </trkpt>
      <trkpt lat="45.84047" lon="-0.66408">
        <ele>10</ele>
        <time>2017-06-25T08:46:37Z</time>
      </trkpt>
      <trkpt lat="45.84047" lon="-0.66406">
        <ele>10</ele>
        <time>2017-06-25T08:46:38Z</time>
      </trkpt>
      <trkpt lat="45.84046" lon="-0.66403">
        <ele>10</ele>
        <time>2017-06-25T08:46:39Z</time>
      </trkpt>
      <trkpt lat="45.84046" lon="-0.66401">
        <ele>10</ele>
        <time>2017-06-25T08:46:40Z</time>
      </trkpt>
      <trkpt lat="45.84046" lon="-0.66399">
        <ele>10</ele>
        <time>2017-06-25T08:46:41Z</time>
      </trkpt>
      <trkpt lat="45.84045" lon="-0.66397">
        <ele>10</ele>
        <time>2017-06-25T08:46:43Z</time>
      </trkpt>
      <trkpt lat="45.84045" lon="-0.66395">
        <ele>10</ele>
        <time>2017-06-25T08:46:44Z</time>
      </trkpt>
      <trkpt lat="45.84046" lon="-0.66394">
        <ele>10</ele>
        <time>2017-06-25T08:46:45Z</time>
      </trkpt>
      <trkpt lat="45.84045" lon="-0.66392">
        <ele>10</ele>
        <time>2017-06-25T08:46:46Z</time>
      </trkpt>
      <trkpt lat="45.84045" lon="-0.6639">
        <ele>10</ele>
        <time>2017-06-25T08:46:47Z</time>
      </trkpt>
      <trkpt lat="45.84044" lon="-0.66387">
        <ele>10</ele>
        <time>2017-06-25T08:46:49Z</time>
      </trkpt>
      <trkpt lat="45.84044" lon="-0.66385">
        <ele>10</ele>
        <time>2017-06-25T08:46:50Z</time>
      </trkpt>
      <trkpt lat="45.84044" lon="-0.66383">
        <ele>10</ele>
        <time>2017-06-25T08:46:52Z</time>
      </trkpt>
      <trkpt lat="45.84044" lon="-0.66381">
        <ele>10</ele>
        <time>2017-06-25T08:46:53Z</time>
      </trkpt>
      <trkpt lat="45.84043" lon="-0.66379">
        <ele>10</ele>
        <time>2017-06-25T08:46:54Z</time>
      </trkpt>
      <trkpt lat="45.84042" lon="-0.66378">
        <ele>10</ele>
        <time>2017-06-25T08:46:55Z</time>
      </trkpt>
      <trkpt lat="45.84042" lon="-0.66376">
        <ele>10</ele>
        <time>2017-06-25T08:46:56Z</time>
      </trkpt>
      <trkpt lat="45.84042" lon="-0.66374">
        <ele>10</ele>
        <time>2017-06-25T08:46:57Z</time>
      </trkpt>
      <trkpt lat="45.84042" lon="-0.66373">
        <ele>10</ele>
        <time>2017-06-25T08:46:58Z</time>
      </trkpt>
      <trkpt lat="45.84042" lon="-0.66371">
        <ele>10</ele>
        <time>2017-06-25T08:46:59Z</time>
      </trkpt>
      <trkpt lat="45.84042" lon="-0.66369">
        <ele>10</ele>
        <time>2017-06-25T08:47:00Z</time>
      </trkpt>
      <trkpt lat="45.84042" lon="-0.66367">
        <ele>10</ele>
        <time>2017-06-25T08:47:01Z</time>
      </trkpt>
      <trkpt lat="45.84042" lon="-0.66366">
        <ele>10</ele>
        <time>2017-06-25T08:47:02Z</time>
      </trkpt>
      <trkpt lat="45.84041" lon="-0.66363">
        <ele>10</ele>
        <time>2017-06-25T08:47:03Z</time>
      </trkpt>
      <trkpt lat="45.84042" lon="-0.6636">
        <ele>10</ele>
        <time>2017-06-25T08:47:04Z</time>
      </trkpt>
      <trkpt lat="45.84042" lon="-0.66358">
        <ele>10</ele>
        <time>2017-06-25T08:47:05Z</time>
      </trkpt>
      <trkpt lat="45.84042" lon="-0.66356">
        <ele>10</ele>
        <time>2017-06-25T08:47:06Z</time>
      </trkpt>
      <trkpt lat="45.84042" lon="-0.66354">
        <ele>10</ele>
        <time>2017-06-25T08:47:07Z</time>
      </trkpt>
      <trkpt lat="45.84042" lon="-0.66352">
        <ele>10</ele>
        <time>2017-06-25T08:47:08Z</time>
      </trkpt>
      <trkpt lat="45.84042" lon="-0.6635">
        <ele>10</ele>
        <time>2017-06-25T08:47:09Z</time>
      </trkpt>
      <trkpt lat="45.84042" lon="-0.66348">
        <ele>10</ele>
        <time>2017-06-25T08:47:10Z</time>
      </trkpt>
      <trkpt lat="45.84042" lon="-0.66346">
        <ele>10</ele>
        <time>2017-06-25T08:47:11Z</time>
      </trkpt>
      <trkpt lat="45.84041" lon="-0.66344">
        <ele>10</ele>
        <time>2017-06-25T08:47:12Z</time>
      </trkpt>
      <trkpt lat="45.84041" lon="-0.66342">
        <ele>10</ele>
        <time>2017-06-25T08:47:13Z</time>
      </trkpt>
      <trkpt lat="45.84041" lon="-0.6634">
        <ele>10</ele>
        <time>2017-06-25T08:47:14Z</time>
      </trkpt>
      <trkpt lat="45.84041" lon="-0.66338">
        <ele>10</ele>
        <time>2017-06-25T08:47:15Z</time>
      </trkpt>
      <trkpt lat="45.8404" lon="-0.66336">
        <ele>10</ele>
        <time>2017-06-25T08:47:16Z</time>
      </trkpt>
      <trkpt lat="45.84039" lon="-0.66333">
        <ele>10</ele>
        <time>2017-06-25T08:47:18Z</time>
      </trkpt>
      <trkpt lat="45.84039" lon="-0.66331">
        <ele>10</ele>
        <time>2017-06-25T08:47:19Z</time>
      </trkpt>
      <trkpt lat="45.84039" lon="-0.66329">
        <ele>10</ele>
        <time>2017-06-25T08:47:20Z</time>
      </trkpt>
      <trkpt lat="45.84038" lon="-0.66328">
        <ele>10</ele>
        <time>2017-06-25T08:47:21Z</time>
      </trkpt>
      <trkpt lat="45.84038" lon="-0.66326">
        <ele>10</ele>
        <time>2017-06-25T08:47:22Z</time>
      </trkpt>
      <trkpt lat="45.84038" lon="-0.66324">
        <ele>10</ele>
        <time>2017-06-25T08:47:23Z</time>
      </trkpt>
      <trkpt lat="45.84038" lon="-0.66322">
        <ele>10</ele>
        <time>2017-06-25T08:47:24Z</time>
      </trkpt>
      <trkpt lat="45.84039" lon="-0.6632">
        <ele>10</ele>
        <time>2017-06-25T08:47:25Z</time>
      </trkpt>
      <trkpt lat="45.84038" lon="-0.66318">
        <ele>10</ele>
        <time>2017-06-25T08:47:26Z</time>
      </trkpt>
      <trkpt lat="45.84038" lon="-0.66316">
        <ele>10</ele>
        <time>2017-06-25T08:47:27Z</time>
      </trkpt>
      <trkpt lat="45.84038" lon="-0.66314">
        <ele>10</ele>
        <time>2017-06-25T08:47:28Z</time>
      </trkpt>
      <trkpt lat="45.84038" lon="-0.66313">
        <ele>10</ele>
        <time>2017-06-25T08:47:29Z</time>
      </trkpt>
      <trkpt lat="45.84038" lon="-0.6631">
        <ele>10</ele>
        <time>2017-06-25T08:47:30Z</time>
      </trkpt>
      <trkpt lat="45.84038" lon="-0.66309">
        <ele>10</ele>
        <time>2017-06-25T08:47:31Z</time>
      </trkpt>
      <trkpt lat="45.84038" lon="-0.66306">
        <ele>10</ele>
        <time>2017-06-25T08:47:32Z</time>
      </trkpt>
      <trkpt lat="45.84038" lon="-0.66305">
        <ele>10</ele>
        <time>2017-06-25T08:47:33Z</time>
      </trkpt>
      <trkpt lat="45.84038" lon="-0.66303">
        <ele>10</ele>
        <time>2017-06-25T08:47:34Z</time>
      </trkpt>
      <trkpt lat="45.84038" lon="-0.663">
        <ele>10</ele>
        <time>2017-06-25T08:47:35Z</time>
      </trkpt>
      <trkpt lat="45.84038" lon="-0.66298">
        <ele>10</ele>
        <time>2017-06-25T08:47:36Z</time>
      </trkpt>
      <trkpt lat="45.84037" lon="-0.66295">
        <ele>10</ele>
        <time>2017-06-25T08:47:37Z</time>
      </trkpt>
      <trkpt lat="45.84037" lon="-0.66294">
        <ele>10</ele>
        <time>2017-06-25T08:47:38Z</time>
      </trkpt>
      <trkpt lat="45.84037" lon="-0.66292">
        <ele>10</ele>
        <time>2017-06-25T08:47:39Z</time>
      </trkpt>
      <trkpt lat="45.84037" lon="-0.6629">
        <ele>10</ele>
        <time>2017-06-25T08:47:40Z</time>
      </trkpt>
      <trkpt lat="45.84036" lon="-0.66288">
        <ele>10</ele>
        <time>2017-06-25T08:47:41Z</time>
      </trkpt>
      <trkpt lat="45.84036" lon="-0.66286">
        <ele>10</ele>
        <time>2017-06-25T08:47:42Z</time>
      </trkpt>
      <trkpt lat="45.84035" lon="-0.66284">
        <ele>10</ele>
        <time>2017-06-25T08:47:43Z</time>
      </trkpt>
      <trkpt lat="45.84035" lon="-0.66282">
        <ele>10</ele>
        <time>2017-06-25T08:47:44Z</time>
      </trkpt>
      <trkpt lat="45.84034" lon="-0.6628">
        <ele>10</ele>
        <time>2017-06-25T08:47:45Z</time>
      </trkpt>
      <trkpt lat="45.84034" lon="-0.66279">
        <ele>10</ele>
        <time>2017-06-25T08:47:46Z</time>
      </trkpt>
      <trkpt lat="45.84033" lon="-0.66277">
        <ele>10</ele>
        <time>2017-06-25T08:47:47Z</time>
      </trkpt>
      <trkpt lat="45.84032" lon="-0.66275">
        <ele>10</ele>
        <time>2017-06-25T08:47:48Z</time>
      </trkpt>
      <trkpt lat="45.84032" lon="-0.66273">
        <ele>9</ele>
        <time>2017-06-25T08:47:49Z</time>
      </trkpt>
      <trkpt lat="45.84031" lon="-0.66271">
        <ele>9</ele>
        <time>2017-06-25T08:47:50Z</time>
      </trkpt>
      <trkpt lat="45.84031" lon="-0.6627">
        <ele>9</ele>
        <time>2017-06-25T08:47:51Z</time>
      </trkpt>
      <trkpt lat="45.8403" lon="-0.66268">
        <ele>9</ele>
        <time>2017-06-25T08:47:52Z</time>
      </trkpt>
      <trkpt lat="45.8403" lon="-0.66265">
        <ele>9</ele>
        <time>2017-06-25T08:47:53Z</time>
      </trkpt>
      <trkpt lat="45.84029" lon="-0.66264">
        <ele>9</ele>
        <time>2017-06-25T08:47:54Z</time>
      </trkpt>
      <trkpt lat="45.84029" lon="-0.66262">
        <ele>9</ele>
        <time>2017-06-25T08:47:55Z</time>
      </trkpt>
      <trkpt lat="45.84028" lon="-0.6626">
        <ele>9</ele>
        <time>2017-06-25T08:47:56Z</time>
      </trkpt>
      <trkpt lat="45.84028" lon="-0.66259">
        <ele>9</ele>
        <time>2017-06-25T08:47:57Z</time>
      </trkpt>
      <trkpt lat="45.84027" lon="-0.66257">
        <ele>9</ele>
        <time>2017-06-25T08:47:58Z</time>
      </trkpt>
      <trkpt lat="45.84027" lon="-0.66254">
        <ele>9</ele>
        <time>2017-06-25T08:47:59Z</time>
      </trkpt>
      <trkpt lat="45.84026" lon="-0.66252">
        <ele>9</ele>
        <time>2017-06-25T08:48:00Z</time>
      </trkpt>
      <trkpt lat="45.84026" lon="-0.6625">
        <ele>9</ele>
        <time>2017-06-25T08:48:01Z</time>
      </trkpt>
      <trkpt lat="45.84026" lon="-0.66248">
        <ele>9</ele>
        <time>2017-06-25T08:48:02Z</time>
      </trkpt>
      <trkpt lat="45.84025" lon="-0.66246">
        <ele>8</ele>
        <time>2017-06-25T08:48:03Z</time>
      </trkpt>
      <trkpt lat="45.84024" lon="-0.66244">
        <ele>8</ele>
        <time>2017-06-25T08:48:05Z</time>
      </trkpt>
      <trkpt lat="45.84024" lon="-0.66241">
        <ele>8</ele>
        <time>2017-06-25T08:48:07Z</time>
      </trkpt>
      <trkpt lat="45.84023" lon="-0.66239">
        <ele>8</ele>
        <time>2017-06-25T08:48:08Z</time>
      </trkpt>
      <trkpt lat="45.84022" lon="-0.66237">
        <ele>8</ele>
        <time>2017-06-25T08:48:09Z</time>
      </trkpt>
      <trkpt lat="45.84021" lon="-0.66235">
        <ele>8</ele>
        <time>2017-06-25T08:48:10Z</time>
      </trkpt>
      <trkpt lat="45.8402" lon="-0.66232">
        <ele>8</ele>
        <time>2017-06-25T08:48:11Z</time>
      </trkpt>
      <trkpt lat="45.84018" lon="-0.6623">
        <ele>8</ele>
        <time>2017-06-25T08:48:12Z</time>
      </trkpt>
      <trkpt lat="45.84018" lon="-0.66228">
        <ele>8</ele>
        <time>2017-06-25T08:48:13Z</time>
      </trkpt>
      <trkpt lat="45.84017" lon="-0.66227">
        <ele>8</ele>
        <time>2017-06-25T08:48:14Z</time>
      </trkpt>
      <trkpt lat="45.84016" lon="-0.66225">
        <ele>8</ele>
        <time>2017-06-25T08:48:15Z</time>
      </trkpt>
      <trkpt lat="45.84016" lon="-0.66223">
        <ele>8</ele>
        <time>2017-06-25T08:48:16Z</time>
      </trkpt>
      <trkpt lat="45.84015" lon="-0.66222">
        <ele>8</ele>
        <time>2017-06-25T08:48:17Z</time>
      </trkpt>
      <trkpt lat="45.84014" lon="-0.6622">
        <ele>8</ele>
        <time>2017-06-25T08:48:18Z</time>
      </trkpt>
      <trkpt lat="45.84013" lon="-0.66219">
        <ele>8</ele>
        <time>2017-06-25T08:48:19Z</time>
      </trkpt>
      <trkpt lat="45.84012" lon="-0.66219">
        <ele>8</ele>
        <time>2017-06-25T08:48:20Z</time>
      </trkpt>
      <trkpt lat="45.84012" lon="-0.66218">
        <ele>8</ele>
        <time>2017-06-25T08:48:21Z</time>
      </trkpt>
      <trkpt lat="45.84012" lon="-0.66215">
        <ele>8</ele>
        <time>2017-06-25T08:48:22Z</time>
      </trkpt>
      <trkpt lat="45.84013" lon="-0.66213">
        <ele>9</ele>
        <time>2017-06-25T08:48:23Z</time>
      </trkpt>
      <trkpt lat="45.84013" lon="-0.66211">
        <ele>9</ele>
        <time>2017-06-25T08:48:24Z</time>
      </trkpt>
      <trkpt lat="45.84013" lon="-0.66209">
        <ele>9</ele>
        <time>2017-06-25T08:48:25Z</time>
      </trkpt>
      <trkpt lat="45.84012" lon="-0.66207">
        <ele>9</ele>
        <time>2017-06-25T08:48:27Z</time>
      </trkpt>
      <trkpt lat="45.84012" lon="-0.66205">
        <ele>9</ele>
        <time>2017-06-25T08:48:28Z</time>
      </trkpt>
      <trkpt lat="45.84012" lon="-0.66203">
        <ele>9</ele>
        <time>2017-06-25T08:48:29Z</time>
      </trkpt>
      <trkpt lat="45.84012" lon="-0.66201">
        <ele>9</ele>
        <time>2017-06-25T08:48:30Z</time>
      </trkpt>
      <trkpt lat="45.84012" lon="-0.662">
        <ele>9</ele>
        <time>2017-06-25T08:48:31Z</time>
      </trkpt>
      <trkpt lat="45.84012" lon="-0.66198">
        <ele>9</ele>
        <time>2017-06-25T08:48:32Z</time>
      </trkpt>
      <trkpt lat="45.84012" lon="-0.66196">
        <ele>9</ele>
        <time>2017-06-25T08:48:34Z</time>
      </trkpt>
      <trkpt lat="45.84012" lon="-0.66194">
        <ele>8</ele>
        <time>2017-06-25T08:48:35Z</time>
      </trkpt>
      <trkpt lat="45.84012" lon="-0.66193">
        <ele>8</ele>
        <time>2017-06-25T08:48:36Z</time>
      </trkpt>
      <trkpt lat="45.84011" lon="-0.6619">
        <ele>8</ele>
        <time>2017-06-25T08:48:37Z</time>
      </trkpt>
      <trkpt lat="45.8401" lon="-0.66189">
        <ele>8</ele>
        <time>2017-06-25T08:48:38Z</time>
      </trkpt>
      <trkpt lat="45.8401" lon="-0.66185">
        <ele>8</ele>
        <time>2017-06-25T08:48:39Z</time>
      </trkpt>
      <trkpt lat="45.84009" lon="-0.66183">
        <ele>8</ele>
        <time>2017-06-25T08:48:40Z</time>
      </trkpt>
      <trkpt lat="45.84008" lon="-0.6618">
        <ele>8</ele>
        <time>2017-06-25T08:48:41Z</time>
      </trkpt>
      <trkpt lat="45.84007" lon="-0.66178">
        <ele>8</ele>
        <time>2017-06-25T08:48:43Z</time>
      </trkpt>
      <trkpt lat="45.84006" lon="-0.66177">
        <ele>7</ele>
        <time>2017-06-25T08:48:45Z</time>
      </trkpt>
      <trkpt lat="45.84006" lon="-0.66175">
        <ele>7</ele>
        <time>2017-06-25T08:48:47Z</time>
      </trkpt>
      <trkpt lat="45.84007" lon="-0.66172">
        <ele>7</ele>
        <time>2017-06-25T08:48:49Z</time>
      </trkpt>
      <trkpt lat="45.84007" lon="-0.66168">
        <ele>7</ele>
        <time>2017-06-25T08:48:51Z</time>
      </trkpt>
      <trkpt lat="45.84007" lon="-0.66165">
        <ele>7</ele>
        <time>2017-06-25T08:48:52Z</time>
      </trkpt>
      <trkpt lat="45.84007" lon="-0.66164">
        <ele>7</ele>
        <time>2017-06-25T08:48:53Z</time>
      </trkpt>
      <trkpt lat="45.84008" lon="-0.66161">
        <ele>7</ele>
        <time>2017-06-25T08:48:54Z</time>
      </trkpt>
      <trkpt lat="45.84008" lon="-0.66159">
        <ele>7</ele>
        <time>2017-06-25T08:48:55Z</time>
      </trkpt>
      <trkpt lat="45.84009" lon="-0.66158">
        <ele>7</ele>
        <time>2017-06-25T08:48:56Z</time>
      </trkpt>
      <trkpt lat="45.8401" lon="-0.66156">
        <ele>7</ele>
        <time>2017-06-25T08:48:57Z</time>
      </trkpt>
      <trkpt lat="45.8401" lon="-0.66153">
        <ele>7</ele>
        <time>2017-06-25T08:48:58Z</time>
      </trkpt>
      <trkpt lat="45.84011" lon="-0.66151">
        <ele>7</ele>
        <time>2017-06-25T08:48:59Z</time>
      </trkpt>
      <trkpt lat="45.84011" lon="-0.6615">
        <ele>7</ele>
        <time>2017-06-25T08:49:00Z</time>
      </trkpt>
      <trkpt lat="45.84011" lon="-0.66148">
        <ele>7</ele>
        <time>2017-06-25T08:49:01Z</time>
      </trkpt>
      <trkpt lat="45.84011" lon="-0.66147">
        <ele>8</ele>
        <time>2017-06-25T08:49:02Z</time>
      </trkpt>
      <trkpt lat="45.84011" lon="-0.66145">
        <ele>8</ele>
        <time>2017-06-25T08:49:04Z</time>
      </trkpt>
      <trkpt lat="45.84011" lon="-0.66143">
        <ele>8</ele>
        <time>2017-06-25T08:49:06Z</time>
      </trkpt>
      <trkpt lat="45.84012" lon="-0.6614">
        <ele>8</ele>
        <time>2017-06-25T08:49:08Z</time>
      </trkpt>
      <trkpt lat="45.84012" lon="-0.66138">
        <ele>8</ele>
        <time>2017-06-25T08:49:09Z</time>
      </trkpt>
      <trkpt lat="45.8401" lon="-0.66135">
        <ele>8</ele>
        <time>2017-06-25T08:49:11Z</time>
      </trkpt>
      <trkpt lat="45.8401" lon="-0.66134">
        <ele>8</ele>
        <time>2017-06-25T08:49:12Z</time>
      </trkpt>
      <trkpt lat="45.84009" lon="-0.66132">
        <ele>8</ele>
        <time>2017-06-25T08:49:13Z</time>
      </trkpt>
      <trkpt lat="45.84008" lon="-0.66131">
        <ele>8</ele>
        <time>2017-06-25T08:49:14Z</time>
      </trkpt>
      <trkpt lat="45.84008" lon="-0.6613">
        <ele>8</ele>
        <time>2017-06-25T08:49:15Z</time>
      </trkpt>
      <trkpt lat="45.84007" lon="-0.66127">
        <ele>8</ele>
        <time>2017-06-25T08:49:16Z</time>
      </trkpt>
      <trkpt lat="45.84007" lon="-0.66125">
        <ele>8</ele>
        <time>2017-06-25T08:49:17Z</time>
      </trkpt>
      <trkpt lat="45.84006" lon="-0.66123">
        <ele>8</ele>
        <time>2017-06-25T08:49:18Z</time>
      </trkpt>
      <trkpt lat="45.84006" lon="-0.66122">
        <ele>8</ele>
        <time>2017-06-25T08:49:19Z</time>
      </trkpt>
      <trkpt lat="45.84005" lon="-0.66121">
        <ele>8</ele>
        <time>2017-06-25T08:49:21Z</time>
      </trkpt>
      <trkpt lat="45.84005" lon="-0.66119">
        <ele>8</ele>
        <time>2017-06-25T08:49:22Z</time>
      </trkpt>
      <trkpt lat="45.84004" lon="-0.66117">
        <ele>8</ele>
        <time>2017-06-25T08:49:24Z</time>
      </trkpt>
      <trkpt lat="45.84004" lon="-0.66116">
        <ele>7</ele>
        <time>2017-06-25T08:49:25Z</time>
      </trkpt>
      <trkpt lat="45.84004" lon="-0.66114">
        <ele>7</ele>
        <time>2017-06-25T08:49:26Z</time>
      </trkpt>
      <trkpt lat="45.84004" lon="-0.66113">
        <ele>7</ele>
        <time>2017-06-25T08:49:27Z</time>
      </trkpt>
      <trkpt lat="45.84003" lon="-0.66111">
        <ele>7</ele>
        <time>2017-06-25T08:49:28Z</time>
      </trkpt>
      <trkpt lat="45.84003" lon="-0.66109">
        <ele>7</ele>
        <time>2017-06-25T08:49:29Z</time>
      </trkpt>
      <trkpt lat="45.84003" lon="-0.66107">
        <ele>7</ele>
        <time>2017-06-25T08:49:30Z</time>
      </trkpt>
      <trkpt lat="45.84003" lon="-0.66103">
        <ele>7</ele>
        <time>2017-06-25T08:49:31Z</time>
      </trkpt>
      <trkpt lat="45.84003" lon="-0.66099">
        <ele>7</ele>
        <time>2017-06-25T08:49:32Z</time>
      </trkpt>
      <trkpt lat="45.84002" lon="-0.66098">
        <ele>7</ele>
        <time>2017-06-25T08:49:33Z</time>
      </trkpt>
      <trkpt lat="45.84002" lon="-0.66096">
        <ele>7</ele>
        <time>2017-06-25T08:49:34Z</time>
      </trkpt>
      <trkpt lat="45.84002" lon="-0.66094">
        <ele>7</ele>
        <time>2017-06-25T08:49:35Z</time>
      </trkpt>
      <trkpt lat="45.84002" lon="-0.66091">
        <ele>7</ele>
        <time>2017-06-25T08:49:37Z</time>
      </trkpt>
      <trkpt lat="45.84002" lon="-0.66089">
        <ele>6</ele>
        <time>2017-06-25T08:49:38Z</time>
      </trkpt>
      <trkpt lat="45.84001" lon="-0.66088">
        <ele>6</ele>
        <time>2017-06-25T08:49:40Z</time>
      </trkpt>
      <trkpt lat="45.84" lon="-0.66086">
        <ele>6</ele>
        <time>2017-06-25T08:49:42Z</time>
      </trkpt>
      <trkpt lat="45.84" lon="-0.66083">
        <ele>6</ele>
        <time>2017-06-25T08:49:43Z</time>
      </trkpt>
      <trkpt lat="45.84" lon="-0.6608">
        <ele>6</ele>
        <time>2017-06-25T08:49:44Z</time>
      </trkpt>
      <trkpt lat="45.84001" lon="-0.66078">
        <ele>6</ele>
        <time>2017-06-25T08:49:45Z</time>
      </trkpt>
      <trkpt lat="45.84" lon="-0.66076">
        <ele>6</ele>
        <time>2017-06-25T08:49:46Z</time>
      </trkpt>
      <trkpt lat="45.84" lon="-0.66074">
        <ele>6</ele>
        <time>2017-06-25T08:49:47Z</time>
      </trkpt>
      <trkpt lat="45.83999" lon="-0.66072">
        <ele>5</ele>
        <time>2017-06-25T08:49:49Z</time>
      </trkpt>
      <trkpt lat="45.83997" lon="-0.66068">
        <ele>5</ele>
        <time>2017-06-25T08:49:50Z</time>
      </trkpt>
      <trkpt lat="45.83996" lon="-0.66067">
        <ele>5</ele>
        <time>2017-06-25T08:49:51Z</time>
      </trkpt>
      <trkpt lat="45.83996" lon="-0.66065">
        <ele>5</ele>
        <time>2017-06-25T08:49:52Z</time>
      </trkpt>
      <trkpt lat="45.83995" lon="-0.66064">
        <ele>5</ele>
        <time>2017-06-25T08:49:53Z</time>
      </trkpt>
      <trkpt lat="45.83994" lon="-0.66061">
        <ele>5</ele>
        <time>2017-06-25T08:49:54Z</time>
      </trkpt>
      <trkpt lat="45.83994" lon="-0.66058">
        <ele>5</ele>
        <time>2017-06-25T08:49:55Z</time>
      </trkpt>
      <trkpt lat="45.83994" lon="-0.66057">
        <ele>5</ele>
        <time>2017-06-25T08:49:56Z</time>
      </trkpt>
      <trkpt lat="45.83992" lon="-0.66056">
        <ele>5</ele>
        <time>2017-06-25T08:49:58Z</time>
      </trkpt>
      <trkpt lat="45.83991" lon="-0.66055">
        <ele>5</ele>
        <time>2017-06-25T08:49:59Z</time>
      </trkpt>
      <trkpt lat="45.8399" lon="-0.66054">
        <ele>5</ele>
        <time>2017-06-25T08:50:00Z</time>
      </trkpt>
      <trkpt lat="45.83989" lon="-0.66053">
        <ele>5</ele>
        <time>2017-06-25T08:50:01Z</time>
      </trkpt>
      <trkpt lat="45.83988" lon="-0.66053">
        <ele>5</ele>
        <time>2017-06-25T08:50:02Z</time>
      </trkpt>
      <trkpt lat="45.83987" lon="-0.66051">
        <ele>5</ele>
        <time>2017-06-25T08:50:03Z</time>
      </trkpt>
      <trkpt lat="45.83987" lon="-0.6605">
        <ele>5</ele>
        <time>2017-06-25T08:50:04Z</time>
      </trkpt>
      <trkpt lat="45.83986" lon="-0.66049">
        <ele>5</ele>
        <time>2017-06-25T08:50:05Z</time>
      </trkpt>
      <trkpt lat="45.83986" lon="-0.66047">
        <ele>5</ele>
        <time>2017-06-25T08:50:06Z</time>
      </trkpt>
      <trkpt lat="45.83986" lon="-0.66045">
        <ele>5</ele>
        <time>2017-06-25T08:50:07Z</time>
      </trkpt>
      <trkpt lat="45.83985" lon="-0.66042">
        <ele>5</ele>
        <time>2017-06-25T08:50:08Z</time>
      </trkpt>
      <trkpt lat="45.83984" lon="-0.66041">
        <ele>5</ele>
        <time>2017-06-25T08:50:09Z</time>
      </trkpt>
      <trkpt lat="45.83984" lon="-0.66039">
        <ele>5</ele>
        <time>2017-06-25T08:50:10Z</time>
      </trkpt>
      <trkpt lat="45.83984" lon="-0.66038">
        <ele>5</ele>
        <time>2017-06-25T08:50:11Z</time>
      </trkpt>
      <trkpt lat="45.83984" lon="-0.66036">
        <ele>5</ele>
        <time>2017-06-25T08:50:12Z</time>
      </trkpt>
      <trkpt lat="45.83983" lon="-0.66031">
        <ele>5</ele>
        <time>2017-06-25T08:50:14Z</time>
      </trkpt>
      <trkpt lat="45.83982" lon="-0.66029">
        <ele>5</ele>
        <time>2017-06-25T08:50:15Z</time>
      </trkpt>
      <trkpt lat="45.83981" lon="-0.66026">
        <ele>5</ele>
        <time>2017-06-25T08:50:16Z</time>
      </trkpt>
      <trkpt lat="45.83981" lon="-0.66025">
        <ele>5</ele>
        <time>2017-06-25T08:50:17Z</time>
      </trkpt>
      <trkpt lat="45.83981" lon="-0.66023">
        <ele>5</ele>
        <time>2017-06-25T08:50:18Z</time>
      </trkpt>
      <trkpt lat="45.83981" lon="-0.66022">
        <ele>5</ele>
        <time>2017-06-25T08:50:19Z</time>
      </trkpt>
      <trkpt lat="45.8398" lon="-0.66019">
        <ele>5</ele>
        <time>2017-06-25T08:50:21Z</time>
      </trkpt>
      <trkpt lat="45.8398" lon="-0.66015">
        <ele>5</ele>
        <time>2017-06-25T08:50:22Z</time>
      </trkpt>
      <trkpt lat="45.83979" lon="-0.66011">
        <ele>5</ele>
        <time>2017-06-25T08:50:23Z</time>
      </trkpt>
      <trkpt lat="45.83979" lon="-0.6601">
        <ele>5</ele>
        <time>2017-06-25T08:50:24Z</time>
      </trkpt>
      <trkpt lat="45.83978" lon="-0.66009">
        <ele>5</ele>
        <time>2017-06-25T08:50:26Z</time>
      </trkpt>
      <trkpt lat="45.83977" lon="-0.66008">
        <ele>5</ele>
        <time>2017-06-25T08:50:27Z</time>
      </trkpt>
      <trkpt lat="45.83976" lon="-0.66006">
        <ele>5</ele>
        <time>2017-06-25T08:50:29Z</time>
      </trkpt>
      <trkpt lat="45.83975" lon="-0.66004">
        <ele>5</ele>
        <time>2017-06-25T08:50:31Z</time>
      </trkpt>
      <trkpt lat="45.83975" lon="-0.66002">
        <ele>5</ele>
        <time>2017-06-25T08:50:32Z</time>
      </trkpt>
      <trkpt lat="45.83974" lon="-0.66">
        <ele>6</ele>
        <time>2017-06-25T08:50:33Z</time>
      </trkpt>
      <trkpt lat="45.83973" lon="-0.65998">
        <ele>6</ele>
        <time>2017-06-25T08:50:34Z</time>
      </trkpt>
      <trkpt lat="45.83973" lon="-0.65996">
        <ele>6</ele>
        <time>2017-06-25T08:50:36Z</time>
      </trkpt>
      <trkpt lat="45.83971" lon="-0.65996">
        <ele>6</ele>
        <time>2017-06-25T08:50:39Z</time>
      </trkpt>
      <trkpt lat="45.83969" lon="-0.65993">
        <ele>6</ele>
        <time>2017-06-25T08:50:41Z</time>
      </trkpt>
      <trkpt lat="45.83968" lon="-0.65991">
        <ele>6</ele>
        <time>2017-06-25T08:50:42Z</time>
      </trkpt>
      <trkpt lat="45.83967" lon="-0.6599">
        <ele>6</ele>
        <time>2017-06-25T08:50:43Z</time>
      </trkpt>
      <trkpt lat="45.83967" lon="-0.65988">
        <ele>6</ele>
        <time>2017-06-25T08:50:44Z</time>
      </trkpt>
      <trkpt lat="45.83966" lon="-0.65986">
        <ele>6</ele>
        <time>2017-06-25T08:50:45Z</time>
      </trkpt>
      <trkpt lat="45.83965" lon="-0.65984">
        <ele>6</ele>
        <time>2017-06-25T08:50:46Z</time>
      </trkpt>
      <trkpt lat="45.83965" lon="-0.65983">
        <ele>6</ele>
        <time>2017-06-25T08:50:47Z</time>
      </trkpt>
      <trkpt lat="45.83964" lon="-0.6598">
        <ele>6</ele>
        <time>2017-06-25T08:50:48Z</time>
      </trkpt>
      <trkpt lat="45.83964" lon="-0.65978">
        <ele>6</ele>
        <time>2017-06-25T08:50:49Z</time>
      </trkpt>
      <trkpt lat="45.83964" lon="-0.65976">
        <ele>6</ele>
        <time>2017-06-25T08:50:50Z</time>
      </trkpt>
      <trkpt lat="45.83964" lon="-0.65973">
        <ele>6</ele>
        <time>2017-06-25T08:50:51Z</time>
      </trkpt>
      <trkpt lat="45.83964" lon="-0.65972">
        <ele>6</ele>
        <time>2017-06-25T08:50:52Z</time>
      </trkpt>
      <trkpt lat="45.83963" lon="-0.6597">
        <ele>6</ele>
        <time>2017-06-25T08:50:53Z</time>
      </trkpt>
      <trkpt lat="45.83963" lon="-0.65967">
        <ele>6</ele>
        <time>2017-06-25T08:50:55Z</time>
      </trkpt>
      <trkpt lat="45.83962" lon="-0.65964">
        <ele>6</ele>
        <time>2017-06-25T08:50:56Z</time>
      </trkpt>
      <trkpt lat="45.83962" lon="-0.65962">
        <ele>6</ele>
        <time>2017-06-25T08:50:57Z</time>
      </trkpt>
      <trkpt lat="45.83961" lon="-0.6596">
        <ele>6</ele>
        <time>2017-06-25T08:50:58Z</time>
      </trkpt>
      <trkpt lat="45.8396" lon="-0.65958">
        <ele>6</ele>
        <time>2017-06-25T08:50:59Z</time>
      </trkpt>
      <trkpt lat="45.83959" lon="-0.65955">
        <ele>6</ele>
        <time>2017-06-25T08:51:00Z</time>
      </trkpt>
      <trkpt lat="45.83958" lon="-0.65954">
        <ele>6</ele>
        <time>2017-06-25T08:51:01Z</time>
      </trkpt>
      <trkpt lat="45.83957" lon="-0.65953">
        <ele>6</ele>
        <time>2017-06-25T08:51:02Z</time>
      </trkpt>
      <trkpt lat="45.83955" lon="-0.65951">
        <ele>6</ele>
        <time>2017-06-25T08:51:03Z</time>
      </trkpt>
      <trkpt lat="45.83955" lon="-0.65948">
        <ele>6</ele>
        <time>2017-06-25T08:51:04Z</time>
      </trkpt>
      <trkpt lat="45.83955" lon="-0.65947">
        <ele>6</ele>
        <time>2017-06-25T08:51:05Z</time>
      </trkpt>
      <trkpt lat="45.83954" lon="-0.65945">
        <ele>6</ele>
        <time>2017-06-25T08:51:06Z</time>
      </trkpt>
      <trkpt lat="45.83954" lon="-0.65943">
        <ele>6</ele>
        <time>2017-06-25T08:51:07Z</time>
      </trkpt>
      <trkpt lat="45.83954" lon="-0.6594">
        <ele>6</ele>
        <time>2017-06-25T08:51:08Z</time>
      </trkpt>
      <trkpt lat="45.83953" lon="-0.65938">
        <ele>6</ele>
        <time>2017-06-25T08:51:09Z</time>
      </trkpt>
      <trkpt lat="45.83953" lon="-0.65936">
        <ele>6</ele>
        <time>2017-06-25T08:51:10Z</time>
      </trkpt>
      <trkpt lat="45.83953" lon="-0.65935">
        <ele>6</ele>
        <time>2017-06-25T08:51:11Z</time>
      </trkpt>
      <trkpt lat="45.83953" lon="-0.65932">
        <ele>6</ele>
        <time>2017-06-25T08:51:12Z</time>
      </trkpt>
      <trkpt lat="45.83952" lon="-0.6593">
        <ele>6</ele>
        <time>2017-06-25T08:51:13Z</time>
      </trkpt>
      <trkpt lat="45.83952" lon="-0.65929">
        <ele>6</ele>
        <time>2017-06-25T08:51:14Z</time>
      </trkpt>
      <trkpt lat="45.83952" lon="-0.65927">
        <ele>6</ele>
        <time>2017-06-25T08:51:15Z</time>
      </trkpt>
      <trkpt lat="45.83951" lon="-0.65925">
        <ele>6</ele>
        <time>2017-06-25T08:51:16Z</time>
      </trkpt>
      <trkpt lat="45.83951" lon="-0.65924">
        <ele>6</ele>
        <time>2017-06-25T08:51:17Z</time>
      </trkpt>
      <trkpt lat="45.8395" lon="-0.65922">
        <ele>6</ele>
        <time>2017-06-25T08:51:18Z</time>
      </trkpt>
      <trkpt lat="45.83951" lon="-0.65919">
        <ele>6</ele>
        <time>2017-06-25T08:51:19Z</time>
      </trkpt>
      <trkpt lat="45.8395" lon="-0.65918">
        <ele>6</ele>
        <time>2017-06-25T08:51:20Z</time>
      </trkpt>
      <trkpt lat="45.83949" lon="-0.65916">
        <ele>7</ele>
        <time>2017-06-25T08:51:21Z</time>
      </trkpt>
      <trkpt lat="45.83949" lon="-0.65915">
        <ele>7</ele>
        <time>2017-06-25T08:51:22Z</time>
      </trkpt>
      <trkpt lat="45.83948" lon="-0.65913">
        <ele>7</ele>
        <time>2017-06-25T08:51:24Z</time>
      </trkpt>
      <trkpt lat="45.83947" lon="-0.65912">
        <ele>7</ele>
        <time>2017-06-25T08:51:25Z</time>
      </trkpt>
      <trkpt lat="45.83947" lon="-0.6591">
        <ele>7</ele>
        <time>2017-06-25T08:51:26Z</time>
      </trkpt>
      <trkpt lat="45.83946" lon="-0.65908">
        <ele>7</ele>
        <time>2017-06-25T08:51:28Z</time>
      </trkpt>
      <trkpt lat="45.83946" lon="-0.65906">
        <ele>7</ele>
        <time>2017-06-25T08:51:29Z</time>
      </trkpt>
      <trkpt lat="45.83945" lon="-0.65904">
        <ele>7</ele>
        <time>2017-06-25T08:51:31Z</time>
      </trkpt>
      <trkpt lat="45.83944" lon="-0.65902">
        <ele>7</ele>
        <time>2017-06-25T08:51:32Z</time>
      </trkpt>
      <trkpt lat="45.83944" lon="-0.65901">
        <ele>7</ele>
        <time>2017-06-25T08:51:33Z</time>
      </trkpt>
      <trkpt lat="45.83944" lon="-0.65899">
        <ele>7</ele>
        <time>2017-06-25T08:51:34Z</time>
      </trkpt>
      <trkpt lat="45.83943" lon="-0.65897">
        <ele>7</ele>
        <time>2017-06-25T08:51:35Z</time>
      </trkpt>
      <trkpt lat="45.83942" lon="-0.65895">
        <ele>7</ele>
        <time>2017-06-25T08:51:37Z</time>
      </trkpt>
      <trkpt lat="45.83942" lon="-0.65893">
        <ele>7</ele>
        <time>2017-06-25T08:51:38Z</time>
      </trkpt>
      <trkpt lat="45.83941" lon="-0.65891">
        <ele>7</ele>
        <time>2017-06-25T08:51:39Z</time>
      </trkpt>
      <trkpt lat="45.8394" lon="-0.6589">
        <ele>7</ele>
        <time>2017-06-25T08:51:40Z</time>
      </trkpt>
      <trkpt lat="45.83939" lon="-0.65888">
        <ele>7</ele>
        <time>2017-06-25T08:51:42Z</time>
      </trkpt>
      <trkpt lat="45.83938" lon="-0.65886">
        <ele>7</ele>
        <time>2017-06-25T08:51:43Z</time>
      </trkpt>
      <trkpt lat="45.83937" lon="-0.65885">
        <ele>7</ele>
        <time>2017-06-25T08:51:44Z</time>
      </trkpt>
      <trkpt lat="45.83936" lon="-0.65883">
        <ele>7</ele>
        <time>2017-06-25T08:51:45Z</time>
      </trkpt>
      <trkpt lat="45.83935" lon="-0.65881">
        <ele>7</ele>
        <time>2017-06-25T08:51:46Z</time>
      </trkpt>
      <trkpt lat="45.83935" lon="-0.65879">
        <ele>7</ele>
        <time>2017-06-25T08:51:47Z</time>
      </trkpt>
      <trkpt lat="45.83934" lon="-0.65878">
        <ele>7</ele>
        <time>2017-06-25T08:51:48Z</time>
      </trkpt>
      <trkpt lat="45.83934" lon="-0.65875">
        <ele>7</ele>
        <time>2017-06-25T08:51:50Z</time>
      </trkpt>
      <trkpt lat="45.83932" lon="-0.65873">
        <ele>7</ele>
        <time>2017-06-25T08:51:52Z</time>
      </trkpt>
      <trkpt lat="45.83931" lon="-0.65871">
        <ele>7</ele>
        <time>2017-06-25T08:51:55Z</time>
      </trkpt>
      <trkpt lat="45.8393" lon="-0.65868">
        <ele>7</ele>
        <time>2017-06-25T08:51:56Z</time>
      </trkpt>
      <trkpt lat="45.83929" lon="-0.65867">
        <ele>7</ele>
        <time>2017-06-25T08:51:57Z</time>
      </trkpt>
      <trkpt lat="45.83929" lon="-0.65865">
        <ele>7</ele>
        <time>2017-06-25T08:51:58Z</time>
      </trkpt>
      <trkpt lat="45.83928" lon="-0.65863">
        <ele>7</ele>
        <time>2017-06-25T08:51:59Z</time>
      </trkpt>
      <trkpt lat="45.83928" lon="-0.65861">
        <ele>7</ele>
        <time>2017-06-25T08:52:00Z</time>
      </trkpt>
      <trkpt lat="45.83926" lon="-0.65861">
        <ele>7</ele>
        <time>2017-06-25T08:52:01Z</time>
      </trkpt>
      <trkpt lat="45.83926" lon="-0.65859">
        <ele>7</ele>
        <time>2017-06-25T08:52:02Z</time>
      </trkpt>
      <trkpt lat="45.83925" lon="-0.65858">
        <ele>7</ele>
        <time>2017-06-25T08:52:03Z</time>
      </trkpt>
      <trkpt lat="45.83923" lon="-0.65858">
        <ele>7</ele>
        <time>2017-06-25T08:52:04Z</time>
      </trkpt>
      <trkpt lat="45.83923" lon="-0.65858">
        <ele>7</ele>
        <time>2017-06-25T08:52:05Z</time>
      </trkpt>
      <trkpt lat="45.83921" lon="-0.65856">
        <ele>7</ele>
        <time>2017-06-25T08:52:06Z</time>
      </trkpt>
      <trkpt lat="45.83921" lon="-0.65855">
        <ele>7</ele>
        <time>2017-06-25T08:52:07Z</time>
      </trkpt>
      <trkpt lat="45.8392" lon="-0.65855">
        <ele>7</ele>
        <time>2017-06-25T08:52:08Z</time>
      </trkpt>
      <trkpt lat="45.83919" lon="-0.65853">
        <ele>7</ele>
        <time>2017-06-25T08:52:09Z</time>
      </trkpt>
      <trkpt lat="45.83918" lon="-0.65852">
        <ele>7</ele>
        <time>2017-06-25T08:52:10Z</time>
      </trkpt>
      <trkpt lat="45.83918" lon="-0.65851">
        <ele>7</ele>
        <time>2017-06-25T08:52:12Z</time>
      </trkpt>
      <trkpt lat="45.83917" lon="-0.65849">
        <ele>7</ele>
        <time>2017-06-25T08:52:13Z</time>
      </trkpt>
      <trkpt lat="45.83917" lon="-0.65847">
        <ele>7</ele>
        <time>2017-06-25T08:52:15Z</time>
      </trkpt>
      <trkpt lat="45.83917" lon="-0.65845">
        <ele>5</ele>
        <time>2017-06-25T08:52:16Z</time>
      </trkpt>
      <trkpt lat="45.83915" lon="-0.65842">
        <ele>5</ele>
        <time>2017-06-25T08:52:18Z</time>
      </trkpt>
      <trkpt lat="45.83915" lon="-0.6584">
        <ele>5</ele>
        <time>2017-06-25T08:52:19Z</time>
      </trkpt>
      <trkpt lat="45.83914" lon="-0.65839">
        <ele>5</ele>
        <time>2017-06-25T08:52:20Z</time>
      </trkpt>
      <trkpt lat="45.83914" lon="-0.65837">
        <ele>6</ele>
        <time>2017-06-25T08:52:21Z</time>
      </trkpt>
      <trkpt lat="45.83913" lon="-0.65835">
        <ele>6</ele>
        <time>2017-06-25T08:52:22Z</time>
      </trkpt>
      <trkpt lat="45.83913" lon="-0.65834">
        <ele>6</ele>
        <time>2017-06-25T08:52:23Z</time>
      </trkpt>
      <trkpt lat="45.83911" lon="-0.65829">
        <ele>6</ele>
        <time>2017-06-25T08:52:25Z</time>
      </trkpt>
      <trkpt lat="45.83911" lon="-0.65828">
        <ele>6</ele>
        <time>2017-06-25T08:52:26Z</time>
      </trkpt>
      <trkpt lat="45.83911" lon="-0.65826">
        <ele>6</ele>
        <time>2017-06-25T08:52:27Z</time>
      </trkpt>
      <trkpt lat="45.8391" lon="-0.65824">
        <ele>6</ele>
        <time>2017-06-25T08:52:28Z</time>
      </trkpt>
      <trkpt lat="45.83909" lon="-0.65822">
        <ele>6</ele>
        <time>2017-06-25T08:52:29Z</time>
      </trkpt>
      <trkpt lat="45.83909" lon="-0.65819">
        <ele>6</ele>
        <time>2017-06-25T08:52:30Z</time>
      </trkpt>
      <trkpt lat="45.83908" lon="-0.65818">
        <ele>6</ele>
        <time>2017-06-25T08:52:31Z</time>
      </trkpt>
      <trkpt lat="45.83907" lon="-0.65815">
        <ele>6</ele>
        <time>2017-06-25T08:52:32Z</time>
      </trkpt>
      <trkpt lat="45.83905" lon="-0.65813">
        <ele>6</ele>
        <time>2017-06-25T08:52:33Z</time>
      </trkpt>
      <trkpt lat="45.83904" lon="-0.65811">
        <ele>6</ele>
        <time>2017-06-25T08:52:35Z</time>
      </trkpt>
      <trkpt lat="45.83903" lon="-0.6581">
        <ele>6</ele>
        <time>2017-06-25T08:52:37Z</time>
      </trkpt>
      <trkpt lat="45.83902" lon="-0.65808">
        <ele>6</ele>
        <time>2017-06-25T08:52:38Z</time>
      </trkpt>
      <trkpt lat="45.83901" lon="-0.65807">
        <ele>6</ele>
        <time>2017-06-25T08:52:39Z</time>
      </trkpt>
      <trkpt lat="45.83901" lon="-0.65806">
        <ele>6</ele>
        <time>2017-06-25T08:52:40Z</time>
      </trkpt>
      <trkpt lat="45.83901" lon="-0.65804">
        <ele>6</ele>
        <time>2017-06-25T08:52:42Z</time>
      </trkpt>
      <trkpt lat="45.839" lon="-0.65802">
        <ele>6</ele>
        <time>2017-06-25T08:52:43Z</time>
      </trkpt>
      <trkpt lat="45.83899" lon="-0.65801">
        <ele>6</ele>
        <time>2017-06-25T08:52:45Z</time>
      </trkpt>
      <trkpt lat="45.83898" lon="-0.658">
        <ele>6</ele>
        <time>2017-06-25T08:52:46Z</time>
      </trkpt>
      <trkpt lat="45.83897" lon="-0.65797">
        <ele>6</ele>
        <time>2017-06-25T08:52:47Z</time>
      </trkpt>
      <trkpt lat="45.83897" lon="-0.65795">
        <ele>6</ele>
        <time>2017-06-25T08:52:48Z</time>
      </trkpt>
      <trkpt lat="45.83896" lon="-0.65793">
        <ele>6</ele>
        <time>2017-06-25T08:52:49Z</time>
      </trkpt>
      <trkpt lat="45.83895" lon="-0.65791">
        <ele>6</ele>
        <time>2017-06-25T08:52:50Z</time>
      </trkpt>
      <trkpt lat="45.83895" lon="-0.65786">
        <ele>6</ele>
        <time>2017-06-25T08:52:51Z</time>
      </trkpt>
      <trkpt lat="45.83895" lon="-0.65783">
        <ele>6</ele>
        <time>2017-06-25T08:52:52Z</time>
      </trkpt>
      <trkpt lat="45.83894" lon="-0.6578">
        <ele>6</ele>
        <time>2017-06-25T08:52:53Z</time>
      </trkpt>
      <trkpt lat="45.83894" lon="-0.65778">
        <ele>6</ele>
        <time>2017-06-25T08:52:54Z</time>
      </trkpt>
      <trkpt lat="45.83893" lon="-0.65774">
        <ele>6</ele>
        <time>2017-06-25T08:52:56Z</time>
      </trkpt>
      <trkpt lat="45.83892" lon="-0.65773">
        <ele>6</ele>
        <time>2017-06-25T08:52:57Z</time>
      </trkpt>
      <trkpt lat="45.83892" lon="-0.6577">
        <ele>6</ele>
        <time>2017-06-25T08:52:58Z</time>
      </trkpt>
      <trkpt lat="45.83892" lon="-0.65767">
        <ele>6</ele>
        <time>2017-06-25T08:53:00Z</time>
      </trkpt>
      <trkpt lat="45.83891" lon="-0.65765">
        <ele>6</ele>
        <time>2017-06-25T08:53:01Z</time>
      </trkpt>
      <trkpt lat="45.8389" lon="-0.65762">
        <ele>6</ele>
        <time>2017-06-25T08:53:02Z</time>
      </trkpt>
      <trkpt lat="45.8389" lon="-0.6576">
        <ele>6</ele>
        <time>2017-06-25T08:53:03Z</time>
      </trkpt>
      <trkpt lat="45.8389" lon="-0.65754">
        <ele>6</ele>
        <time>2017-06-25T08:53:05Z</time>
      </trkpt>
      <trkpt lat="45.8389" lon="-0.6575">
        <ele>6</ele>
        <time>2017-06-25T08:53:07Z</time>
      </trkpt>
      <trkpt lat="45.83889" lon="-0.65748">
        <ele>8</ele>
        <time>2017-06-25T08:53:08Z</time>
      </trkpt>
      <trkpt lat="45.83888" lon="-0.65747">
        <ele>8</ele>
        <time>2017-06-25T08:53:09Z</time>
      </trkpt>
      <trkpt lat="45.83888" lon="-0.65744">
        <ele>8</ele>
        <time>2017-06-25T08:53:10Z</time>
      </trkpt>
      <trkpt lat="45.83888" lon="-0.65742">
        <ele>8</ele>
        <time>2017-06-25T08:53:11Z</time>
      </trkpt>
      <trkpt lat="45.83887" lon="-0.6574">
        <ele>7</ele>
        <time>2017-06-25T08:53:12Z</time>
      </trkpt>
      <trkpt lat="45.83886" lon="-0.65738">
        <ele>7</ele>
        <time>2017-06-25T08:53:13Z</time>
      </trkpt>
      <trkpt lat="45.83885" lon="-0.65733">
        <ele>7</ele>
        <time>2017-06-25T08:53:15Z</time>
      </trkpt>
      <trkpt lat="45.83884" lon="-0.65731">
        <ele>7</ele>
        <time>2017-06-25T08:53:17Z</time>
      </trkpt>
      <trkpt lat="45.83884" lon="-0.6573">
        <ele>7</ele>
        <time>2017-06-25T08:53:18Z</time>
      </trkpt>
      <trkpt lat="45.83883" lon="-0.65726">
        <ele>7</ele>
        <time>2017-06-25T08:53:20Z</time>
      </trkpt>
      <trkpt lat="45.83882" lon="-0.65725">
        <ele>7</ele>
        <time>2017-06-25T08:53:21Z</time>
      </trkpt>
      <trkpt lat="45.83881" lon="-0.65723">
        <ele>7</ele>
        <time>2017-06-25T08:53:22Z</time>
      </trkpt>
      <trkpt lat="45.8388" lon="-0.65721">
        <ele>7</ele>
        <time>2017-06-25T08:53:23Z</time>
      </trkpt>
      <trkpt lat="45.8388" lon="-0.65718">
        <ele>7</ele>
        <time>2017-06-25T08:53:24Z</time>
      </trkpt>
      <trkpt lat="45.8388" lon="-0.65715">
        <ele>7</ele>
        <time>2017-06-25T08:53:25Z</time>
      </trkpt>
      <trkpt lat="45.8388" lon="-0.65712">
        <ele>7</ele>
        <time>2017-06-25T08:53:26Z</time>
      </trkpt>
      <trkpt lat="45.83878" lon="-0.65708">
        <ele>7</ele>
        <time>2017-06-25T08:53:28Z</time>
      </trkpt>
      <trkpt lat="45.83878" lon="-0.65707">
        <ele>7</ele>
        <time>2017-06-25T08:53:29Z</time>
      </trkpt>
      <trkpt lat="45.83876" lon="-0.65706">
        <ele>7</ele>
        <time>2017-06-25T08:53:30Z</time>
      </trkpt>
      <trkpt lat="45.83876" lon="-0.65706">
        <ele>7</ele>
        <time>2017-06-25T08:53:31Z</time>
      </trkpt>
      <trkpt lat="45.83875" lon="-0.65704">
        <ele>7</ele>
        <time>2017-06-25T08:53:32Z</time>
      </trkpt>
      <trkpt lat="45.83875" lon="-0.65702">
        <ele>7</ele>
        <time>2017-06-25T08:53:33Z</time>
      </trkpt>
      <trkpt lat="45.83874" lon="-0.65701">
        <ele>7</ele>
        <time>2017-06-25T08:53:34Z</time>
      </trkpt>
      <trkpt lat="45.83873" lon="-0.65698">
        <ele>7</ele>
        <time>2017-06-25T08:53:36Z</time>
      </trkpt>
      <trkpt lat="45.83873" lon="-0.65696">
        <ele>7</ele>
        <time>2017-06-25T08:53:37Z</time>
      </trkpt>
      <trkpt lat="45.83873" lon="-0.65693">
        <ele>7</ele>
        <time>2017-06-25T08:53:38Z</time>
      </trkpt>
      <trkpt lat="45.83873" lon="-0.65691">
        <ele>7</ele>
        <time>2017-06-25T08:53:39Z</time>
      </trkpt>
      <trkpt lat="45.83873" lon="-0.65689">
        <ele>7</ele>
        <time>2017-06-25T08:53:40Z</time>
      </trkpt>
      <trkpt lat="45.83873" lon="-0.65686">
        <ele>7</ele>
        <time>2017-06-25T08:53:41Z</time>
      </trkpt>
      <trkpt lat="45.83872" lon="-0.65683">
        <ele>7</ele>
        <time>2017-06-25T08:53:42Z</time>
      </trkpt>
      <trkpt lat="45.83872" lon="-0.65681">
        <ele>7</ele>
        <time>2017-06-25T08:53:43Z</time>
      </trkpt>
      <trkpt lat="45.83873" lon="-0.65679">
        <ele>7</ele>
        <time>2017-06-25T08:53:44Z</time>
      </trkpt>
      <trkpt lat="45.83873" lon="-0.65677">
        <ele>7</ele>
        <time>2017-06-25T08:53:45Z</time>
      </trkpt>
      <trkpt lat="45.83873" lon="-0.65674">
        <ele>7</ele>
        <time>2017-06-25T08:53:46Z</time>
      </trkpt>
      <trkpt lat="45.83873" lon="-0.65672">
        <ele>7</ele>
        <time>2017-06-25T08:53:47Z</time>
      </trkpt>
      <trkpt lat="45.83872" lon="-0.65671">
        <ele>7</ele>
        <time>2017-06-25T08:53:48Z</time>
      </trkpt>
      <trkpt lat="45.83872" lon="-0.65669">
        <ele>7</ele>
        <time>2017-06-25T08:53:49Z</time>
      </trkpt>
      <trkpt lat="45.8387" lon="-0.65665">
        <ele>9</ele>
        <time>2017-06-25T08:53:50Z</time>
      </trkpt>
      <trkpt lat="45.8387" lon="-0.65663">
        <ele>9</ele>
        <time>2017-06-25T08:53:51Z</time>
      </trkpt>
      <trkpt lat="45.83869" lon="-0.6566">
        <ele>9</ele>
        <time>2017-06-25T08:53:52Z</time>
      </trkpt>
      <trkpt lat="45.83869" lon="-0.65657">
        <ele>9</ele>
        <time>2017-06-25T08:53:53Z</time>
      </trkpt>
      <trkpt lat="45.83868" lon="-0.65656">
        <ele>9</ele>
        <time>2017-06-25T08:53:54Z</time>
      </trkpt>
      <trkpt lat="45.83868" lon="-0.65655">
        <ele>9</ele>
        <time>2017-06-25T08:53:55Z</time>
      </trkpt>
      <trkpt lat="45.83867" lon="-0.65651">
        <ele>9</ele>
        <time>2017-06-25T08:53:56Z</time>
      </trkpt>
      <trkpt lat="45.83866" lon="-0.65649">
        <ele>9</ele>
        <time>2017-06-25T08:53:57Z</time>
      </trkpt>
      <trkpt lat="45.83865" lon="-0.65646">
        <ele>9</ele>
        <time>2017-06-25T08:53:58Z</time>
      </trkpt>
      <trkpt lat="45.83865" lon="-0.65645">
        <ele>9</ele>
        <time>2017-06-25T08:53:59Z</time>
      </trkpt>
      <trkpt lat="45.83864" lon="-0.65641">
        <ele>9</ele>
        <time>2017-06-25T08:54:00Z</time>
      </trkpt>
      <trkpt lat="45.83863" lon="-0.65639">
        <ele>9</ele>
        <time>2017-06-25T08:54:01Z</time>
      </trkpt>
      <trkpt lat="45.83863" lon="-0.65637">
        <ele>9</ele>
        <time>2017-06-25T08:54:03Z</time>
      </trkpt>
      <trkpt lat="45.83863" lon="-0.65634">
        <ele>9</ele>
        <time>2017-06-25T08:54:04Z</time>
      </trkpt>
      <trkpt lat="45.83863" lon="-0.65633">
        <ele>9</ele>
        <time>2017-06-25T08:54:05Z</time>
      </trkpt>
      <trkpt lat="45.83862" lon="-0.65631">
        <ele>9</ele>
        <time>2017-06-25T08:54:06Z</time>
      </trkpt>
      <trkpt lat="45.83862" lon="-0.65628">
        <ele>9</ele>
        <time>2017-06-25T08:54:07Z</time>
      </trkpt>
      <trkpt lat="45.83863" lon="-0.65627">
        <ele>9</ele>
        <time>2017-06-25T08:54:08Z</time>
      </trkpt>
      <trkpt lat="45.83863" lon="-0.65625">
        <ele>9</ele>
        <time>2017-06-25T08:54:09Z</time>
      </trkpt>
      <trkpt lat="45.83863" lon="-0.65622">
        <ele>9</ele>
        <time>2017-06-25T08:54:10Z</time>
      </trkpt>
      <trkpt lat="45.83863" lon="-0.6562">
        <ele>9</ele>
        <time>2017-06-25T08:54:11Z</time>
      </trkpt>
      <trkpt lat="45.83863" lon="-0.65617">
        <ele>9</ele>
        <time>2017-06-25T08:54:12Z</time>
      </trkpt>
      <trkpt lat="45.83863" lon="-0.65616">
        <ele>9</ele>
        <time>2017-06-25T08:54:13Z</time>
      </trkpt>
      <trkpt lat="45.83862" lon="-0.65613">
        <ele>9</ele>
        <time>2017-06-25T08:54:14Z</time>
      </trkpt>
      <trkpt lat="45.83862" lon="-0.6561">
        <ele>9</ele>
        <time>2017-06-25T08:54:15Z</time>
      </trkpt>
      <trkpt lat="45.83862" lon="-0.65608">
        <ele>9</ele>
        <time>2017-06-25T08:54:16Z</time>
      </trkpt>
      <trkpt lat="45.83861" lon="-0.65606">
        <ele>9</ele>
        <time>2017-06-25T08:54:17Z</time>
      </trkpt>
      <trkpt lat="45.8386" lon="-0.65604">
        <ele>9</ele>
        <time>2017-06-25T08:54:18Z</time>
      </trkpt>
      <trkpt lat="45.8386" lon="-0.65602">
        <ele>9</ele>
        <time>2017-06-25T08:54:19Z</time>
      </trkpt>
      <trkpt lat="45.8386" lon="-0.656">
        <ele>9</ele>
        <time>2017-06-25T08:54:20Z</time>
      </trkpt>
      <trkpt lat="45.8386" lon="-0.65597">
        <ele>9</ele>
        <time>2017-06-25T08:54:21Z</time>
      </trkpt>
      <trkpt lat="45.83859" lon="-0.65595">
        <ele>9</ele>
        <time>2017-06-25T08:54:22Z</time>
      </trkpt>
      <trkpt lat="45.83859" lon="-0.65593">
        <ele>9</ele>
        <time>2017-06-25T08:54:23Z</time>
      </trkpt>
      <trkpt lat="45.83859" lon="-0.65591">
        <ele>9</ele>
        <time>2017-06-25T08:54:24Z</time>
      </trkpt>
      <trkpt lat="45.83859" lon="-0.6559">
        <ele>9</ele>
        <time>2017-06-25T08:54:25Z</time>
      </trkpt>
      <trkpt lat="45.83858" lon="-0.65589">
        <ele>9</ele>
        <time>2017-06-25T08:54:26Z</time>
      </trkpt>
      <trkpt lat="45.83858" lon="-0.65587">
        <ele>9</ele>
        <time>2017-06-25T08:54:27Z</time>
      </trkpt>
      <trkpt lat="45.83857" lon="-0.65585">
        <ele>9</ele>
        <time>2017-06-25T08:54:28Z</time>
      </trkpt>
      <trkpt lat="45.83857" lon="-0.65582">
        <ele>10</ele>
        <time>2017-06-25T08:54:29Z</time>
      </trkpt>
      <trkpt lat="45.83857" lon="-0.65579">
        <ele>10</ele>
        <time>2017-06-25T08:54:31Z</time>
      </trkpt>
      <trkpt lat="45.83857" lon="-0.65577">
        <ele>10</ele>
        <time>2017-06-25T08:54:33Z</time>
      </trkpt>
      <trkpt lat="45.83856" lon="-0.65576">
        <ele>10</ele>
        <time>2017-06-25T08:54:34Z</time>
      </trkpt>
      <trkpt lat="45.83855" lon="-0.65574">
        <ele>10</ele>
        <time>2017-06-25T08:54:35Z</time>
      </trkpt>
      <trkpt lat="45.83854" lon="-0.65573">
        <ele>10</ele>
        <time>2017-06-25T08:54:36Z</time>
      </trkpt>
      <trkpt lat="45.83853" lon="-0.65571">
        <ele>10</ele>
        <time>2017-06-25T08:54:38Z</time>
      </trkpt>
      <trkpt lat="45.83853" lon="-0.65569">
        <ele>10</ele>
        <time>2017-06-25T08:54:40Z</time>
      </trkpt>
      <trkpt lat="45.83852" lon="-0.65566">
        <ele>10</ele>
        <time>2017-06-25T08:54:42Z</time>
      </trkpt>
      <trkpt lat="45.83851" lon="-0.65565">
        <ele>10</ele>
        <time>2017-06-25T08:54:43Z</time>
      </trkpt>
      <trkpt lat="45.83851" lon="-0.65564">
        <ele>10</ele>
        <time>2017-06-25T08:54:44Z</time>
      </trkpt>
      <trkpt lat="45.83849" lon="-0.65562">
        <ele>10</ele>
        <time>2017-06-25T08:54:45Z</time>
      </trkpt>
      <trkpt lat="45.83849" lon="-0.65561">
        <ele>10</ele>
        <time>2017-06-25T08:54:46Z</time>
      </trkpt>
      <trkpt lat="45.83847" lon="-0.65558">
        <ele>10</ele>
        <time>2017-06-25T08:54:48Z</time>
      </trkpt>
      <trkpt lat="45.83847" lon="-0.65557">
        <ele>10</ele>
        <time>2017-06-25T08:54:49Z</time>
      </trkpt>
      <trkpt lat="45.83846" lon="-0.65555">
        <ele>10</ele>
        <time>2017-06-25T08:54:50Z</time>
      </trkpt>
      <trkpt lat="45.83846" lon="-0.65554">
        <ele>10</ele>
        <time>2017-06-25T08:54:52Z</time>
      </trkpt>
      <trkpt lat="45.83845" lon="-0.65553">
        <ele>10</ele>
        <time>2017-06-25T08:54:53Z</time>
      </trkpt>
      <trkpt lat="45.83844" lon="-0.65551">
        <ele>10</ele>
        <time>2017-06-25T08:54:55Z</time>
      </trkpt>
      <trkpt lat="45.83844" lon="-0.6555">
        <ele>10</ele>
        <time>2017-06-25T08:54:56Z</time>
      </trkpt>
      <trkpt lat="45.83843" lon="-0.65548">
        <ele>10</ele>
        <time>2017-06-25T08:54:57Z</time>
      </trkpt>
      <trkpt lat="45.83843" lon="-0.65547">
        <ele>10</ele>
        <time>2017-06-25T08:54:58Z</time>
      </trkpt>
      <trkpt lat="45.83841" lon="-0.65545">
        <ele>10</ele>
        <time>2017-06-25T08:54:59Z</time>
      </trkpt>
      <trkpt lat="45.83841" lon="-0.65545">
        <ele>10</ele>
        <time>2017-06-25T08:55:00Z</time>
      </trkpt>
      <trkpt lat="45.83839" lon="-0.65543">
        <ele>10</ele>
        <time>2017-06-25T08:55:01Z</time>
      </trkpt>
      <trkpt lat="45.83838" lon="-0.65542">
        <ele>10</ele>
        <time>2017-06-25T08:55:02Z</time>
      </trkpt>
      <trkpt lat="45.83838" lon="-0.65541">
        <ele>10</ele>
        <time>2017-06-25T08:55:03Z</time>
      </trkpt>
      <trkpt lat="45.83836" lon="-0.65541">
        <ele>10</ele>
        <time>2017-06-25T08:55:05Z</time>
      </trkpt>
      <trkpt lat="45.83835" lon="-0.65538">
        <ele>10</ele>
        <time>2017-06-25T08:55:07Z</time>
      </trkpt>
      <trkpt lat="45.83834" lon="-0.65537">
        <ele>10</ele>
        <time>2017-06-25T08:55:08Z</time>
      </trkpt>
      <trkpt lat="45.83833" lon="-0.65535">
        <ele>6</ele>
        <time>2017-06-25T08:55:09Z</time>
      </trkpt>
      <trkpt lat="45.83832" lon="-0.65533">
        <ele>6</ele>
        <time>2017-06-25T08:55:10Z</time>
      </trkpt>
      <trkpt lat="45.83831" lon="-0.65531">
        <ele>6</ele>
        <time>2017-06-25T08:55:11Z</time>
      </trkpt>
      <trkpt lat="45.8383" lon="-0.65529">
        <ele>6</ele>
        <time>2017-06-25T08:55:12Z</time>
      </trkpt>
      <trkpt lat="45.83828" lon="-0.65526">
        <ele>6</ele>
        <time>2017-06-25T08:55:14Z</time>
      </trkpt>
      <trkpt lat="45.83827" lon="-0.65523">
        <ele>6</ele>
        <time>2017-06-25T08:55:15Z</time>
      </trkpt>
      <trkpt lat="45.83826" lon="-0.65521">
        <ele>6</ele>
        <time>2017-06-25T08:55:16Z</time>
      </trkpt>
      <trkpt lat="45.83826" lon="-0.65519">
        <ele>6</ele>
        <time>2017-06-25T08:55:17Z</time>
      </trkpt>
      <trkpt lat="45.83825" lon="-0.65517">
        <ele>6</ele>
        <time>2017-06-25T08:55:18Z</time>
      </trkpt>
      <trkpt lat="45.83825" lon="-0.65514">
        <ele>6</ele>
        <time>2017-06-25T08:55:20Z</time>
      </trkpt>
      <trkpt lat="45.83824" lon="-0.65511">
        <ele>6</ele>
        <time>2017-06-25T08:55:21Z</time>
      </trkpt>
      <trkpt lat="45.83823" lon="-0.65509">
        <ele>6</ele>
        <time>2017-06-25T08:55:22Z</time>
      </trkpt>
      <trkpt lat="45.83822" lon="-0.65508">
        <ele>6</ele>
        <time>2017-06-25T08:55:23Z</time>
      </trkpt>
      <trkpt lat="45.83821" lon="-0.65506">
        <ele>6</ele>
        <time>2017-06-25T08:55:24Z</time>
      </trkpt>
      <trkpt lat="45.83821" lon="-0.65504">
        <ele>7</ele>
        <time>2017-06-25T08:55:25Z</time>
      </trkpt>
      <trkpt lat="45.8382" lon="-0.65502">
        <ele>7</ele>
        <time>2017-06-25T08:55:27Z</time>
      </trkpt>
      <trkpt lat="45.8382" lon="-0.65501">
        <ele>7</ele>
        <time>2017-06-25T08:55:28Z</time>
      </trkpt>
      <trkpt lat="45.83819" lon="-0.65499">
        <ele>7</ele>
        <time>2017-06-25T08:55:29Z</time>
      </trkpt>
      <trkpt lat="45.83819" lon="-0.65498">
        <ele>7</ele>
        <time>2017-06-25T08:55:30Z</time>
      </trkpt>
      <trkpt lat="45.83818" lon="-0.65496">
        <ele>7</ele>
        <time>2017-06-25T08:55:31Z</time>
      </trkpt>
      <trkpt lat="45.83818" lon="-0.65492">
        <ele>7</ele>
        <time>2017-06-25T08:55:32Z</time>
      </trkpt>
      <trkpt lat="45.83817" lon="-0.65491">
        <ele>7</ele>
        <time>2017-06-25T08:55:33Z</time>
      </trkpt>
      <trkpt lat="45.83817" lon="-0.65488">
        <ele>7</ele>
        <time>2017-06-25T08:55:34Z</time>
      </trkpt>
      <trkpt lat="45.83817" lon="-0.65485">
        <ele>7</ele>
        <time>2017-06-25T08:55:35Z</time>
      </trkpt>
      <trkpt lat="45.83816" lon="-0.65484">
        <ele>7</ele>
        <time>2017-06-25T08:55:36Z</time>
      </trkpt>
      <trkpt lat="45.83816" lon="-0.65481">
        <ele>7</ele>
        <time>2017-06-25T08:55:38Z</time>
      </trkpt>
      <trkpt lat="45.83816" lon="-0.65478">
        <ele>7</ele>
        <time>2017-06-25T08:55:41Z</time>
      </trkpt>
      <trkpt lat="45.83816" lon="-0.65476">
        <ele>8</ele>
        <time>2017-06-25T08:55:43Z</time>
      </trkpt>
      <trkpt lat="45.83815" lon="-0.65473">
        <ele>8</ele>
        <time>2017-06-25T08:55:45Z</time>
      </trkpt>
      <trkpt lat="45.83815" lon="-0.6547">
        <ele>8</ele>
        <time>2017-06-25T08:55:46Z</time>
      </trkpt>
      <trkpt lat="45.83814" lon="-0.65468">
        <ele>8</ele>
        <time>2017-06-25T08:55:47Z</time>
      </trkpt>
      <trkpt lat="45.83814" lon="-0.65466">
        <ele>8</ele>
        <time>2017-06-25T08:55:48Z</time>
      </trkpt>
      <trkpt lat="45.83812" lon="-0.65464">
        <ele>8</ele>
        <time>2017-06-25T08:55:49Z</time>
      </trkpt>
      <trkpt lat="45.83811" lon="-0.65461">
        <ele>8</ele>
        <time>2017-06-25T08:55:50Z</time>
      </trkpt>
      <trkpt lat="45.8381" lon="-0.65459">
        <ele>8</ele>
        <time>2017-06-25T08:55:51Z</time>
      </trkpt>
      <trkpt lat="45.8381" lon="-0.65456">
        <ele>8</ele>
        <time>2017-06-25T08:55:52Z</time>
      </trkpt>
      <trkpt lat="45.83809" lon="-0.65454">
        <ele>8</ele>
        <time>2017-06-25T08:55:54Z</time>
      </trkpt>
      <trkpt lat="45.83808" lon="-0.65451">
        <ele>8</ele>
        <time>2017-06-25T08:55:55Z</time>
      </trkpt>
      <trkpt lat="45.83807" lon="-0.6545">
        <ele>8</ele>
        <time>2017-06-25T08:55:56Z</time>
      </trkpt>
      <trkpt lat="45.83807" lon="-0.65448">
        <ele>8</ele>
        <time>2017-06-25T08:55:57Z</time>
      </trkpt>
      <trkpt lat="45.83807" lon="-0.65445">
        <ele>8</ele>
        <time>2017-06-25T08:55:58Z</time>
      </trkpt>
      <trkpt lat="45.83807" lon="-0.65443">
        <ele>8</ele>
        <time>2017-06-25T08:55:59Z</time>
      </trkpt>
      <trkpt lat="45.83806" lon="-0.65442">
        <ele>8</ele>
        <time>2017-06-25T08:56:00Z</time>
      </trkpt>
      <trkpt lat="45.83806" lon="-0.6544">
        <ele>8</ele>
        <time>2017-06-25T08:56:01Z</time>
      </trkpt>
      <trkpt lat="45.83805" lon="-0.65439">
        <ele>8</ele>
        <time>2017-06-25T08:56:02Z</time>
      </trkpt>
      <trkpt lat="45.83805" lon="-0.65438">
        <ele>8</ele>
        <time>2017-06-25T08:56:03Z</time>
      </trkpt>
      <trkpt lat="45.83806" lon="-0.65436">
        <ele>8</ele>
        <time>2017-06-25T08:56:04Z</time>
      </trkpt>
      <trkpt lat="45.83805" lon="-0.65434">
        <ele>8</ele>
        <time>2017-06-25T08:56:05Z</time>
      </trkpt>
      <trkpt lat="45.83805" lon="-0.65433">
        <ele>8</ele>
        <time>2017-06-25T08:56:06Z</time>
      </trkpt>
      <trkpt lat="45.83804" lon="-0.65431">
        <ele>8</ele>
        <time>2017-06-25T08:56:08Z</time>
      </trkpt>
      <trkpt lat="45.83804" lon="-0.65428">
        <ele>8</ele>
        <time>2017-06-25T08:56:09Z</time>
      </trkpt>
      <trkpt lat="45.83803" lon="-0.65426">
        <ele>8</ele>
        <time>2017-06-25T08:56:10Z</time>
      </trkpt>
      <trkpt lat="45.83802" lon="-0.65424">
        <ele>8</ele>
        <time>2017-06-25T08:56:11Z</time>
      </trkpt>
      <trkpt lat="45.83802" lon="-0.65422">
        <ele>8</ele>
        <time>2017-06-25T08:56:12Z</time>
      </trkpt>
      <trkpt lat="45.83802" lon="-0.65421">
        <ele>8</ele>
        <time>2017-06-25T08:56:13Z</time>
      </trkpt>
      <trkpt lat="45.83802" lon="-0.65419">
        <ele>8</ele>
        <time>2017-06-25T08:56:14Z</time>
      </trkpt>
      <trkpt lat="45.83801" lon="-0.65416">
        <ele>10</ele>
        <time>2017-06-25T08:56:15Z</time>
      </trkpt>
      <trkpt lat="45.83801" lon="-0.65414">
        <ele>10</ele>
        <time>2017-06-25T08:56:16Z</time>
      </trkpt>
      <trkpt lat="45.83801" lon="-0.65411">
        <ele>10</ele>
        <time>2017-06-25T08:56:18Z</time>
      </trkpt>
      <trkpt lat="45.83801" lon="-0.6541">
        <ele>10</ele>
        <time>2017-06-25T08:56:19Z</time>
      </trkpt>
      <trkpt lat="45.838" lon="-0.65408">
        <ele>10</ele>
        <time>2017-06-25T08:56:20Z</time>
      </trkpt>
      <trkpt lat="45.838" lon="-0.65407">
        <ele>10</ele>
        <time>2017-06-25T08:56:21Z</time>
      </trkpt>
      <trkpt lat="45.83799" lon="-0.65405">
        <ele>10</ele>
        <time>2017-06-25T08:56:22Z</time>
      </trkpt>
      <trkpt lat="45.83799" lon="-0.65403">
        <ele>10</ele>
        <time>2017-06-25T08:56:23Z</time>
      </trkpt>
      <trkpt lat="45.83798" lon="-0.654">
        <ele>9</ele>
        <time>2017-06-25T08:56:25Z</time>
      </trkpt>
      <trkpt lat="45.83798" lon="-0.65397">
        <ele>9</ele>
        <time>2017-06-25T08:56:26Z</time>
      </trkpt>
      <trkpt lat="45.83797" lon="-0.65396">
        <ele>9</ele>
        <time>2017-06-25T08:56:27Z</time>
      </trkpt>
      <trkpt lat="45.83796" lon="-0.65395">
        <ele>9</ele>
        <time>2017-06-25T08:56:28Z</time>
      </trkpt>
      <trkpt lat="45.83796" lon="-0.65393">
        <ele>9</ele>
        <time>2017-06-25T08:56:29Z</time>
      </trkpt>
      <trkpt lat="45.83795" lon="-0.65391">
        <ele>9</ele>
        <time>2017-06-25T08:56:30Z</time>
      </trkpt>
      <trkpt lat="45.83794" lon="-0.6539">
        <ele>9</ele>
        <time>2017-06-25T08:56:31Z</time>
      </trkpt>
      <trkpt lat="45.83794" lon="-0.65389">
        <ele>9</ele>
        <time>2017-06-25T08:56:32Z</time>
      </trkpt>
      <trkpt lat="45.83793" lon="-0.65387">
        <ele>9</ele>
        <time>2017-06-25T08:56:33Z</time>
      </trkpt>
      <trkpt lat="45.83793" lon="-0.65385">
        <ele>9</ele>
        <time>2017-06-25T08:56:34Z</time>
      </trkpt>
      <trkpt lat="45.83792" lon="-0.65383">
        <ele>9</ele>
        <time>2017-06-25T08:56:35Z</time>
      </trkpt>
      <trkpt lat="45.83791" lon="-0.65381">
        <ele>9</ele>
        <time>2017-06-25T08:56:36Z</time>
      </trkpt>
      <trkpt lat="45.8379" lon="-0.6538">
        <ele>9</ele>
        <time>2017-06-25T08:56:37Z</time>
      </trkpt>
      <trkpt lat="45.83789" lon="-0.65379">
        <ele>9</ele>
        <time>2017-06-25T08:56:38Z</time>
      </trkpt>
      <trkpt lat="45.83789" lon="-0.65376">
        <ele>9</ele>
        <time>2017-06-25T08:56:39Z</time>
      </trkpt>
      <trkpt lat="45.83788" lon="-0.65374">
        <ele>9</ele>
        <time>2017-06-25T08:56:40Z</time>
      </trkpt>
      <trkpt lat="45.83788" lon="-0.65373">
        <ele>9</ele>
        <time>2017-06-25T08:56:41Z</time>
      </trkpt>
      <trkpt lat="45.83787" lon="-0.65371">
        <ele>9</ele>
        <time>2017-06-25T08:56:42Z</time>
      </trkpt>
      <trkpt lat="45.83787" lon="-0.65369">
        <ele>9</ele>
        <time>2017-06-25T08:56:43Z</time>
      </trkpt>
      <trkpt lat="45.83786" lon="-0.65367">
        <ele>9</ele>
        <time>2017-06-25T08:56:44Z</time>
      </trkpt>
      <trkpt lat="45.83785" lon="-0.65365">
        <ele>9</ele>
        <time>2017-06-25T08:56:45Z</time>
      </trkpt>
      <trkpt lat="45.83785" lon="-0.65363">
        <ele>9</ele>
        <time>2017-06-25T08:56:46Z</time>
      </trkpt>
      <trkpt lat="45.83784" lon="-0.65361">
        <ele>9</ele>
        <time>2017-06-25T08:56:47Z</time>
      </trkpt>
      <trkpt lat="45.83783" lon="-0.65359">
        <ele>9</ele>
        <time>2017-06-25T08:56:48Z</time>
      </trkpt>
      <trkpt lat="45.83782" lon="-0.65357">
        <ele>9</ele>
        <time>2017-06-25T08:56:49Z</time>
      </trkpt>
      <trkpt lat="45.83781" lon="-0.65356">
        <ele>9</ele>
        <time>2017-06-25T08:56:50Z</time>
      </trkpt>
      <trkpt lat="45.83781" lon="-0.65354">
        <ele>9</ele>
        <time>2017-06-25T08:56:51Z</time>
      </trkpt>
      <trkpt lat="45.8378" lon="-0.65352">
        <ele>9</ele>
        <time>2017-06-25T08:56:52Z</time>
      </trkpt>
      <trkpt lat="45.83779" lon="-0.65351">
        <ele>9</ele>
        <time>2017-06-25T08:56:53Z</time>
      </trkpt>
      <trkpt lat="45.83779" lon="-0.65348">
        <ele>9</ele>
        <time>2017-06-25T08:56:54Z</time>
      </trkpt>
      <trkpt lat="45.83778" lon="-0.65347">
        <ele>9</ele>
        <time>2017-06-25T08:56:55Z</time>
      </trkpt>
      <trkpt lat="45.83778" lon="-0.65345">
        <ele>9</ele>
        <time>2017-06-25T08:56:57Z</time>
      </trkpt>
      <trkpt lat="45.83777" lon="-0.65343">
        <ele>9</ele>
        <time>2017-06-25T08:56:58Z</time>
      </trkpt>
      <trkpt lat="45.83777" lon="-0.65341">
        <ele>9</ele>
        <time>2017-06-25T08:56:59Z</time>
      </trkpt>
      <trkpt lat="45.83775" lon="-0.6534">
        <ele>9</ele>
        <time>2017-06-25T08:57:00Z</time>
      </trkpt>
      <trkpt lat="45.83775" lon="-0.65338">
        <ele>9</ele>
        <time>2017-06-25T08:57:01Z</time>
      </trkpt>
      <trkpt lat="45.83774" lon="-0.65337">
        <ele>9</ele>
        <time>2017-06-25T08:57:02Z</time>
      </trkpt>
      <trkpt lat="45.83773" lon="-0.65335">
        <ele>8</ele>
        <time>2017-06-25T08:57:03Z</time>
      </trkpt>
      <trkpt lat="45.83772" lon="-0.65332">
        <ele>9</ele>
        <time>2017-06-25T08:57:04Z</time>
      </trkpt>
      <trkpt lat="45.83772" lon="-0.65331">
        <ele>9</ele>
        <time>2017-06-25T08:57:05Z</time>
      </trkpt>
      <trkpt lat="45.83771" lon="-0.65329">
        <ele>9</ele>
        <time>2017-06-25T08:57:06Z</time>
      </trkpt>
      <trkpt lat="45.8377" lon="-0.65327">
        <ele>9</ele>
        <time>2017-06-25T08:57:07Z</time>
      </trkpt>
      <trkpt lat="45.8377" lon="-0.65325">
        <ele>9</ele>
        <time>2017-06-25T08:57:08Z</time>
      </trkpt>
      <trkpt lat="45.83769" lon="-0.65323">
        <ele>9</ele>
        <time>2017-06-25T08:57:10Z</time>
      </trkpt>
      <trkpt lat="45.83769" lon="-0.65321">
        <ele>9</ele>
        <time>2017-06-25T08:57:11Z</time>
      </trkpt>
      <trkpt lat="45.83768" lon="-0.6532">
        <ele>9</ele>
        <time>2017-06-25T08:57:12Z</time>
      </trkpt>
      <trkpt lat="45.83767" lon="-0.65318">
        <ele>9</ele>
        <time>2017-06-25T08:57:14Z</time>
      </trkpt>
      <trkpt lat="45.83767" lon="-0.65316">
        <ele>9</ele>
        <time>2017-06-25T08:57:15Z</time>
      </trkpt>
      <trkpt lat="45.83766" lon="-0.65314">
        <ele>10</ele>
        <time>2017-06-25T08:57:16Z</time>
      </trkpt>
      <trkpt lat="45.83765" lon="-0.65312">
        <ele>10</ele>
        <time>2017-06-25T08:57:17Z</time>
      </trkpt>
      <trkpt lat="45.83765" lon="-0.6531">
        <ele>10</ele>
        <time>2017-06-25T08:57:18Z</time>
      </trkpt>
      <trkpt lat="45.83764" lon="-0.65309">
        <ele>10</ele>
        <time>2017-06-25T08:57:19Z</time>
      </trkpt>
      <trkpt lat="45.83764" lon="-0.65307">
        <ele>10</ele>
        <time>2017-06-25T08:57:20Z</time>
      </trkpt>
      <trkpt lat="45.83764" lon="-0.65304">
        <ele>10</ele>
        <time>2017-06-25T08:57:22Z</time>
      </trkpt>
      <trkpt lat="45.83763" lon="-0.65302">
        <ele>10</ele>
        <time>2017-06-25T08:57:23Z</time>
      </trkpt>
      <trkpt lat="45.83763" lon="-0.653">
        <ele>10</ele>
        <time>2017-06-25T08:57:24Z</time>
      </trkpt>
      <trkpt lat="45.83762" lon="-0.65297">
        <ele>10</ele>
        <time>2017-06-25T08:57:26Z</time>
      </trkpt>
      <trkpt lat="45.83762" lon="-0.65295">
        <ele>10</ele>
        <time>2017-06-25T08:57:28Z</time>
      </trkpt>
      <trkpt lat="45.83761" lon="-0.65293">
        <ele>10</ele>
        <time>2017-06-25T08:57:29Z</time>
      </trkpt>
      <trkpt lat="45.83761" lon="-0.65291">
        <ele>10</ele>
        <time>2017-06-25T08:57:31Z</time>
      </trkpt>
      <trkpt lat="45.8376" lon="-0.65289">
        <ele>10</ele>
        <time>2017-06-25T08:57:32Z</time>
      </trkpt>
      <trkpt lat="45.83759" lon="-0.65287">
        <ele>10</ele>
        <time>2017-06-25T08:57:33Z</time>
      </trkpt>
      <trkpt lat="45.83759" lon="-0.65285">
        <ele>10</ele>
        <time>2017-06-25T08:57:34Z</time>
      </trkpt>
      <trkpt lat="45.83759" lon="-0.65283">
        <ele>10</ele>
        <time>2017-06-25T08:57:35Z</time>
      </trkpt>
      <trkpt lat="45.83758" lon="-0.65281">
        <ele>10</ele>
        <time>2017-06-25T08:57:36Z</time>
      </trkpt>
      <trkpt lat="45.83757" lon="-0.65279">
        <ele>10</ele>
        <time>2017-06-25T08:57:38Z</time>
      </trkpt>
      <trkpt lat="45.83757" lon="-0.65278">
        <ele>10</ele>
        <time>2017-06-25T08:57:39Z</time>
      </trkpt>
      <trkpt lat="45.83756" lon="-0.65277">
        <ele>10</ele>
        <time>2017-06-25T08:57:40Z</time>
      </trkpt>
      <trkpt lat="45.83756" lon="-0.65275">
        <ele>10</ele>
        <time>2017-06-25T08:57:41Z</time>
      </trkpt>
      <trkpt lat="45.83755" lon="-0.65274">
        <ele>10</ele>
        <time>2017-06-25T08:57:42Z</time>
      </trkpt>
      <trkpt lat="45.83754" lon="-0.65272">
        <ele>10</ele>
        <time>2017-06-25T08:57:43Z</time>
      </trkpt>
      <trkpt lat="45.83754" lon="-0.6527">
        <ele>9</ele>
        <time>2017-06-25T08:57:44Z</time>
      </trkpt>
      <trkpt lat="45.83754" lon="-0.65268">
        <ele>9</ele>
        <time>2017-06-25T08:57:45Z</time>
      </trkpt>
      <trkpt lat="45.83753" lon="-0.65267">
        <ele>9</ele>
        <time>2017-06-25T08:57:46Z</time>
      </trkpt>
      <trkpt lat="45.83753" lon="-0.65265">
        <ele>9</ele>
        <time>2017-06-25T08:57:47Z</time>
      </trkpt>
      <trkpt lat="45.83752" lon="-0.65264">
        <ele>9</ele>
        <time>2017-06-25T08:57:48Z</time>
      </trkpt>
      <trkpt lat="45.83751" lon="-0.65262">
        <ele>9</ele>
        <time>2017-06-25T08:57:49Z</time>
      </trkpt>
      <trkpt lat="45.83751" lon="-0.6526">
        <ele>9</ele>
        <time>2017-06-25T08:57:50Z</time>
      </trkpt>
      <trkpt lat="45.8375" lon="-0.65259">
        <ele>8</ele>
        <time>2017-06-25T08:57:51Z</time>
      </trkpt>
      <trkpt lat="45.8375" lon="-0.65258">
        <ele>6</ele>
        <time>2017-06-25T08:57:52Z</time>
      </trkpt>
      <trkpt lat="45.83749" lon="-0.65256">
        <ele>7</ele>
        <time>2017-06-25T08:57:53Z</time>
      </trkpt>
      <trkpt lat="45.83748" lon="-0.65255">
        <ele>7</ele>
        <time>2017-06-25T08:57:54Z</time>
      </trkpt>
      <trkpt lat="45.83748" lon="-0.65253">
        <ele>7</ele>
        <time>2017-06-25T08:57:55Z</time>
      </trkpt>
      <trkpt lat="45.83747" lon="-0.65252">
        <ele>7</ele>
        <time>2017-06-25T08:57:56Z</time>
      </trkpt>
      <trkpt lat="45.83746" lon="-0.6525">
        <ele>7</ele>
        <time>2017-06-25T08:57:57Z</time>
      </trkpt>
      <trkpt lat="45.83744" lon="-0.65249">
        <ele>7</ele>
        <time>2017-06-25T08:57:59Z</time>
      </trkpt>
      <trkpt lat="45.83743" lon="-0.65248">
        <ele>7</ele>
        <time>2017-06-25T08:58:00Z</time>
      </trkpt>
      <trkpt lat="45.83743" lon="-0.65246">
        <ele>7</ele>
        <time>2017-06-25T08:58:01Z</time>
      </trkpt>
      <trkpt lat="45.83742" lon="-0.65244">
        <ele>7</ele>
        <time>2017-06-25T08:58:02Z</time>
      </trkpt>
      <trkpt lat="45.83742" lon="-0.65243">
        <ele>7</ele>
        <time>2017-06-25T08:58:03Z</time>
      </trkpt>
      <trkpt lat="45.83741" lon="-0.65241">
        <ele>7</ele>
        <time>2017-06-25T08:58:04Z</time>
      </trkpt>
      <trkpt lat="45.8374" lon="-0.65238">
        <ele>7</ele>
        <time>2017-06-25T08:58:05Z</time>
      </trkpt>
      <trkpt lat="45.83739" lon="-0.65236">
        <ele>6</ele>
        <time>2017-06-25T08:58:06Z</time>
      </trkpt>
      <trkpt lat="45.83738" lon="-0.65234">
        <ele>6</ele>
        <time>2017-06-25T08:58:07Z</time>
      </trkpt>
      <trkpt lat="45.83737" lon="-0.65232">
        <ele>6</ele>
        <time>2017-06-25T08:58:08Z</time>
      </trkpt>
      <trkpt lat="45.83736" lon="-0.6523">
        <ele>6</ele>
        <time>2017-06-25T08:58:09Z</time>
      </trkpt>
      <trkpt lat="45.83736" lon="-0.65229">
        <ele>6</ele>
        <time>2017-06-25T08:58:10Z</time>
      </trkpt>
      <trkpt lat="45.83735" lon="-0.65228">
        <ele>6</ele>
        <time>2017-06-25T08:58:11Z</time>
      </trkpt>
      <trkpt lat="45.83734" lon="-0.65226">
        <ele>6</ele>
        <time>2017-06-25T08:58:13Z</time>
      </trkpt>
      <trkpt lat="45.83733" lon="-0.65224">
        <ele>6</ele>
        <time>2017-06-25T08:58:14Z</time>
      </trkpt>
      <trkpt lat="45.83732" lon="-0.65223">
        <ele>6</ele>
        <time>2017-06-25T08:58:15Z</time>
      </trkpt>
      <trkpt lat="45.83731" lon="-0.65222">
        <ele>6</ele>
        <time>2017-06-25T08:58:16Z</time>
      </trkpt>
      <trkpt lat="45.8373" lon="-0.6522">
        <ele>6</ele>
        <time>2017-06-25T08:58:17Z</time>
      </trkpt>
      <trkpt lat="45.83729" lon="-0.65219">
        <ele>6</ele>
        <time>2017-06-25T08:58:18Z</time>
      </trkpt>
      <trkpt lat="45.83728" lon="-0.65217">
        <ele>6</ele>
        <time>2017-06-25T08:58:19Z</time>
      </trkpt>
      <trkpt lat="45.83727" lon="-0.65216">
        <ele>6</ele>
        <time>2017-06-25T08:58:20Z</time>
      </trkpt>
      <trkpt lat="45.83727" lon="-0.65215">
        <ele>6</ele>
        <time>2017-06-25T08:58:21Z</time>
      </trkpt>
      <trkpt lat="45.83726" lon="-0.65213">
        <ele>6</ele>
        <time>2017-06-25T08:58:22Z</time>
      </trkpt>
      <trkpt lat="45.83725" lon="-0.65211">
        <ele>6</ele>
        <time>2017-06-25T08:58:23Z</time>
      </trkpt>
      <trkpt lat="45.83724" lon="-0.6521">
        <ele>6</ele>
        <time>2017-06-25T08:58:24Z</time>
      </trkpt>
      <trkpt lat="45.83723" lon="-0.65208">
        <ele>6</ele>
        <time>2017-06-25T08:58:25Z</time>
      </trkpt>
      <trkpt lat="45.83722" lon="-0.65208">
        <ele>6</ele>
        <time>2017-06-25T08:58:26Z</time>
      </trkpt>
      <trkpt lat="45.83721" lon="-0.65206">
        <ele>6</ele>
        <time>2017-06-25T08:58:27Z</time>
      </trkpt>
      <trkpt lat="45.8372" lon="-0.65206">
        <ele>6</ele>
        <time>2017-06-25T08:58:28Z</time>
      </trkpt>
      <trkpt lat="45.83719" lon="-0.65205">
        <ele>6</ele>
        <time>2017-06-25T08:58:29Z</time>
      </trkpt>
      <trkpt lat="45.83717" lon="-0.65203">
        <ele>6</ele>
        <time>2017-06-25T08:58:30Z</time>
      </trkpt>
      <trkpt lat="45.83716" lon="-0.65202">
        <ele>6</ele>
        <time>2017-06-25T08:58:31Z</time>
      </trkpt>
      <trkpt lat="45.83716" lon="-0.65201">
        <ele>6</ele>
        <time>2017-06-25T08:58:32Z</time>
      </trkpt>
      <trkpt lat="45.83715" lon="-0.65199">
        <ele>6</ele>
        <time>2017-06-25T08:58:33Z</time>
      </trkpt>
      <trkpt lat="45.83715" lon="-0.65197">
        <ele>6</ele>
        <time>2017-06-25T08:58:34Z</time>
      </trkpt>
      <trkpt lat="45.83714" lon="-0.65195">
        <ele>6</ele>
        <time>2017-06-25T08:58:35Z</time>
      </trkpt>
      <trkpt lat="45.83713" lon="-0.65193">
        <ele>6</ele>
        <time>2017-06-25T08:58:36Z</time>
      </trkpt>
      <trkpt lat="45.83712" lon="-0.65191">
        <ele>6</ele>
        <time>2017-06-25T08:58:37Z</time>
      </trkpt>
      <trkpt lat="45.83711" lon="-0.65189">
        <ele>6</ele>
        <time>2017-06-25T08:58:38Z</time>
      </trkpt>
      <trkpt lat="45.8371" lon="-0.65187">
        <ele>6</ele>
        <time>2017-06-25T08:58:39Z</time>
      </trkpt>
      <trkpt lat="45.83709" lon="-0.65186">
        <ele>6</ele>
        <time>2017-06-25T08:58:40Z</time>
      </trkpt>
      <trkpt lat="45.83707" lon="-0.65185">
        <ele>6</ele>
        <time>2017-06-25T08:58:41Z</time>
      </trkpt>
      <trkpt lat="45.83707" lon="-0.65183">
        <ele>6</ele>
        <time>2017-06-25T08:58:42Z</time>
      </trkpt>
      <trkpt lat="45.83706" lon="-0.65182">
        <ele>6</ele>
        <time>2017-06-25T08:58:43Z</time>
      </trkpt>
      <trkpt lat="45.83705" lon="-0.6518">
        <ele>6</ele>
        <time>2017-06-25T08:58:44Z</time>
      </trkpt>
      <trkpt lat="45.83704" lon="-0.65179">
        <ele>6</ele>
        <time>2017-06-25T08:58:45Z</time>
      </trkpt>
      <trkpt lat="45.83704" lon="-0.65178">
        <ele>6</ele>
        <time>2017-06-25T08:58:46Z</time>
      </trkpt>
      <trkpt lat="45.83703" lon="-0.65176">
        <ele>6</ele>
        <time>2017-06-25T08:58:47Z</time>
      </trkpt>
      <trkpt lat="45.83702" lon="-0.65175">
        <ele>6</ele>
        <time>2017-06-25T08:58:48Z</time>
      </trkpt>
      <trkpt lat="45.83702" lon="-0.65174">
        <ele>6</ele>
        <time>2017-06-25T08:58:49Z</time>
      </trkpt>
      <trkpt lat="45.83701" lon="-0.65172">
        <ele>6</ele>
        <time>2017-06-25T08:58:50Z</time>
      </trkpt>
      <trkpt lat="45.837" lon="-0.65171">
        <ele>6</ele>
        <time>2017-06-25T08:58:51Z</time>
      </trkpt>
      <trkpt lat="45.83699" lon="-0.6517">
        <ele>6</ele>
        <time>2017-06-25T08:58:52Z</time>
      </trkpt>
      <trkpt lat="45.83698" lon="-0.65168">
        <ele>6</ele>
        <time>2017-06-25T08:58:53Z</time>
      </trkpt>
      <trkpt lat="45.83697" lon="-0.65166">
        <ele>6</ele>
        <time>2017-06-25T08:58:55Z</time>
      </trkpt>
      <trkpt lat="45.83696" lon="-0.65165">
        <ele>6</ele>
        <time>2017-06-25T08:58:56Z</time>
      </trkpt>
      <trkpt lat="45.83695" lon="-0.65163">
        <ele>6</ele>
        <time>2017-06-25T08:58:57Z</time>
      </trkpt>
      <trkpt lat="45.83695" lon="-0.65162">
        <ele>6</ele>
        <time>2017-06-25T08:58:58Z</time>
      </trkpt>
      <trkpt lat="45.83694" lon="-0.65161">
        <ele>6</ele>
        <time>2017-06-25T08:58:59Z</time>
      </trkpt>
      <trkpt lat="45.83693" lon="-0.65159">
        <ele>6</ele>
        <time>2017-06-25T08:59:00Z</time>
      </trkpt>
      <trkpt lat="45.83692" lon="-0.65158">
        <ele>6</ele>
        <time>2017-06-25T08:59:01Z</time>
      </trkpt>
      <trkpt lat="45.83691" lon="-0.65157">
        <ele>6</ele>
        <time>2017-06-25T08:59:02Z</time>
      </trkpt>
      <trkpt lat="45.8369" lon="-0.65156">
        <ele>6</ele>
        <time>2017-06-25T08:59:03Z</time>
      </trkpt>
      <trkpt lat="45.83688" lon="-0.65156">
        <ele>6</ele>
        <time>2017-06-25T08:59:04Z</time>
      </trkpt>
      <trkpt lat="45.83686" lon="-0.65155">
        <ele>6</ele>
        <time>2017-06-25T08:59:05Z</time>
      </trkpt>
      <trkpt lat="45.83685" lon="-0.65154">
        <ele>6</ele>
        <time>2017-06-25T08:59:06Z</time>
      </trkpt>
      <trkpt lat="45.83683" lon="-0.65152">
        <ele>6</ele>
        <time>2017-06-25T08:59:07Z</time>
      </trkpt>
      <trkpt lat="45.83682" lon="-0.65151">
        <ele>6</ele>
        <time>2017-06-25T08:59:08Z</time>
      </trkpt>
      <trkpt lat="45.83682" lon="-0.6515">
        <ele>6</ele>
        <time>2017-06-25T08:59:09Z</time>
      </trkpt>
      <trkpt lat="45.83681" lon="-0.65149">
        <ele>6</ele>
        <time>2017-06-25T08:59:10Z</time>
      </trkpt>
      <trkpt lat="45.8368" lon="-0.65148">
        <ele>6</ele>
        <time>2017-06-25T08:59:11Z</time>
      </trkpt>
      <trkpt lat="45.83678" lon="-0.65147">
        <ele>6</ele>
        <time>2017-06-25T08:59:12Z</time>
      </trkpt>
      <trkpt lat="45.83677" lon="-0.65146">
        <ele>6</ele>
        <time>2017-06-25T08:59:13Z</time>
      </trkpt>
      <trkpt lat="45.83677" lon="-0.65145">
        <ele>6</ele>
        <time>2017-06-25T08:59:14Z</time>
      </trkpt>
      <trkpt lat="45.83675" lon="-0.65145">
        <ele>6</ele>
        <time>2017-06-25T08:59:15Z</time>
      </trkpt>
      <trkpt lat="45.83675" lon="-0.65143">
        <ele>6</ele>
        <time>2017-06-25T08:59:16Z</time>
      </trkpt>
      <trkpt lat="45.83674" lon="-0.65143">
        <ele>6</ele>
        <time>2017-06-25T08:59:17Z</time>
      </trkpt>
      <trkpt lat="45.83672" lon="-0.65141">
        <ele>6</ele>
        <time>2017-06-25T08:59:19Z</time>
      </trkpt>
      <trkpt lat="45.8367" lon="-0.65139">
        <ele>6</ele>
        <time>2017-06-25T08:59:21Z</time>
      </trkpt>
      <trkpt lat="45.83669" lon="-0.65138">
        <ele>6</ele>
        <time>2017-06-25T08:59:22Z</time>
      </trkpt>
      <trkpt lat="45.83668" lon="-0.65136">
        <ele>6</ele>
        <time>2017-06-25T08:59:23Z</time>
      </trkpt>
      <trkpt lat="45.83667" lon="-0.65135">
        <ele>5</ele>
        <time>2017-06-25T08:59:24Z</time>
      </trkpt>
      <trkpt lat="45.83666" lon="-0.65134">
        <ele>5</ele>
        <time>2017-06-25T08:59:25Z</time>
      </trkpt>
      <trkpt lat="45.83665" lon="-0.65133">
        <ele>5</ele>
        <time>2017-06-25T08:59:26Z</time>
      </trkpt>
      <trkpt lat="45.83664" lon="-0.65132">
        <ele>5</ele>
        <time>2017-06-25T08:59:27Z</time>
      </trkpt>
      <trkpt lat="45.83663" lon="-0.6513">
        <ele>5</ele>
        <time>2017-06-25T08:59:28Z</time>
      </trkpt>
      <trkpt lat="45.83663" lon="-0.65129">
        <ele>5</ele>
        <time>2017-06-25T08:59:29Z</time>
      </trkpt>
      <trkpt lat="45.83662" lon="-0.65128">
        <ele>5</ele>
        <time>2017-06-25T08:59:31Z</time>
      </trkpt>
      <trkpt lat="45.83661" lon="-0.65126">
        <ele>5</ele>
        <time>2017-06-25T08:59:32Z</time>
      </trkpt>
      <trkpt lat="45.8366" lon="-0.65126">
        <ele>5</ele>
        <time>2017-06-25T08:59:33Z</time>
      </trkpt>
      <trkpt lat="45.83659" lon="-0.65125">
        <ele>5</ele>
        <time>2017-06-25T08:59:34Z</time>
      </trkpt>
      <trkpt lat="45.83658" lon="-0.65124">
        <ele>5</ele>
        <time>2017-06-25T08:59:35Z</time>
      </trkpt>
      <trkpt lat="45.83657" lon="-0.65122">
        <ele>5</ele>
        <time>2017-06-25T08:59:36Z</time>
      </trkpt>
      <trkpt lat="45.83656" lon="-0.65121">
        <ele>5</ele>
        <time>2017-06-25T08:59:37Z</time>
      </trkpt>
      <trkpt lat="45.83654" lon="-0.6512">
        <ele>5</ele>
        <time>2017-06-25T08:59:38Z</time>
      </trkpt>
      <trkpt lat="45.83654" lon="-0.65119">
        <ele>5</ele>
        <time>2017-06-25T08:59:39Z</time>
      </trkpt>
      <trkpt lat="45.83653" lon="-0.65118">
        <ele>5</ele>
        <time>2017-06-25T08:59:40Z</time>
      </trkpt>
      <trkpt lat="45.83652" lon="-0.65116">
        <ele>5</ele>
        <time>2017-06-25T08:59:41Z</time>
      </trkpt>
      <trkpt lat="45.83651" lon="-0.65114">
        <ele>5</ele>
        <time>2017-06-25T08:59:42Z</time>
      </trkpt>
      <trkpt lat="45.83651" lon="-0.65111">
        <ele>5</ele>
        <time>2017-06-25T08:59:43Z</time>
      </trkpt>
      <trkpt lat="45.83649" lon="-0.6511">
        <ele>5</ele>
        <time>2017-06-25T08:59:44Z</time>
      </trkpt>
      <trkpt lat="45.83648" lon="-0.65109">
        <ele>5</ele>
        <time>2017-06-25T08:59:45Z</time>
      </trkpt>
      <trkpt lat="45.83646" lon="-0.65108">
        <ele>5</ele>
        <time>2017-06-25T08:59:46Z</time>
      </trkpt>
      <trkpt lat="45.83645" lon="-0.65105">
        <ele>5</ele>
        <time>2017-06-25T08:59:47Z</time>
      </trkpt>
      <trkpt lat="45.83644" lon="-0.65101">
        <ele>5</ele>
        <time>2017-06-25T08:59:48Z</time>
      </trkpt>
      <trkpt lat="45.83643" lon="-0.65098">
        <ele>5</ele>
        <time>2017-06-25T08:59:49Z</time>
      </trkpt>
      <trkpt lat="45.83643" lon="-0.65095">
        <ele>5</ele>
        <time>2017-06-25T08:59:50Z</time>
      </trkpt>
      <trkpt lat="45.83643" lon="-0.65093">
        <ele>5</ele>
        <time>2017-06-25T08:59:51Z</time>
      </trkpt>
      <trkpt lat="45.83643" lon="-0.6509">
        <ele>5</ele>
        <time>2017-06-25T08:59:52Z</time>
      </trkpt>
      <trkpt lat="45.83642" lon="-0.65089">
        <ele>5</ele>
        <time>2017-06-25T08:59:53Z</time>
      </trkpt>
      <trkpt lat="45.83641" lon="-0.65087">
        <ele>5</ele>
        <time>2017-06-25T08:59:54Z</time>
      </trkpt>
      <trkpt lat="45.8364" lon="-0.65086">
        <ele>5</ele>
        <time>2017-06-25T08:59:55Z</time>
      </trkpt>
      <trkpt lat="45.8364" lon="-0.65084">
        <ele>5</ele>
        <time>2017-06-25T08:59:56Z</time>
      </trkpt>
      <trkpt lat="45.8364" lon="-0.65082">
        <ele>5</ele>
        <time>2017-06-25T08:59:57Z</time>
      </trkpt>
      <trkpt lat="45.83639" lon="-0.65081">
        <ele>5</ele>
        <time>2017-06-25T08:59:58Z</time>
      </trkpt>
      <trkpt lat="45.83639" lon="-0.6508">
        <ele>5</ele>
        <time>2017-06-25T08:59:59Z</time>
      </trkpt>
      <trkpt lat="45.83638" lon="-0.65078">
        <ele>5</ele>
        <time>2017-06-25T09:00:00Z</time>
      </trkpt>
      <trkpt lat="45.83637" lon="-0.65077">
        <ele>5</ele>
        <time>2017-06-25T09:00:01Z</time>
      </trkpt>
      <trkpt lat="45.83636" lon="-0.65076">
        <ele>5</ele>
        <time>2017-06-25T09:00:02Z</time>
      </trkpt>
      <trkpt lat="45.83635" lon="-0.65075">
        <ele>5</ele>
        <time>2017-06-25T09:00:03Z</time>
      </trkpt>
      <trkpt lat="45.83635" lon="-0.65074">
        <ele>5</ele>
        <time>2017-06-25T09:00:04Z</time>
      </trkpt>
      <trkpt lat="45.83633" lon="-0.65072">
        <ele>5</ele>
        <time>2017-06-25T09:00:06Z</time>
      </trkpt>
      <trkpt lat="45.83633" lon="-0.65071">
        <ele>5</ele>
        <time>2017-06-25T09:00:07Z</time>
      </trkpt>
      <trkpt lat="45.83632" lon="-0.6507">
        <ele>5</ele>
        <time>2017-06-25T09:00:08Z</time>
      </trkpt>
      <trkpt lat="45.83631" lon="-0.65069">
        <ele>5</ele>
        <time>2017-06-25T09:00:10Z</time>
      </trkpt>
      <trkpt lat="45.8363" lon="-0.65068">
        <ele>5</ele>
        <time>2017-06-25T09:00:11Z</time>
      </trkpt>
      <trkpt lat="45.83629" lon="-0.65067">
        <ele>5</ele>
        <time>2017-06-25T09:00:12Z</time>
      </trkpt>
      <trkpt lat="45.83629" lon="-0.65066">
        <ele>5</ele>
        <time>2017-06-25T09:00:13Z</time>
      </trkpt>
      <trkpt lat="45.83627" lon="-0.65064">
        <ele>5</ele>
        <time>2017-06-25T09:00:15Z</time>
      </trkpt>
      <trkpt lat="45.83627" lon="-0.65063">
        <ele>5</ele>
        <time>2017-06-25T09:00:16Z</time>
      </trkpt>
      <trkpt lat="45.83625" lon="-0.65062">
        <ele>4</ele>
        <time>2017-06-25T09:00:18Z</time>
      </trkpt>
      <trkpt lat="45.83625" lon="-0.6506">
        <ele>4</ele>
        <time>2017-06-25T09:00:19Z</time>
      </trkpt>
      <trkpt lat="45.83624" lon="-0.65059">
        <ele>4</ele>
        <time>2017-06-25T09:00:21Z</time>
      </trkpt>
      <trkpt lat="45.83623" lon="-0.65058">
        <ele>4</ele>
        <time>2017-06-25T09:00:22Z</time>
      </trkpt>
      <trkpt lat="45.83621" lon="-0.65057">
        <ele>4</ele>
        <time>2017-06-25T09:00:23Z</time>
      </trkpt>
      <trkpt lat="45.83619" lon="-0.65055">
        <ele>4</ele>
        <time>2017-06-25T09:00:24Z</time>
      </trkpt>
      <trkpt lat="45.83618" lon="-0.65053">
        <ele>4</ele>
        <time>2017-06-25T09:00:25Z</time>
      </trkpt>
      <trkpt lat="45.83617" lon="-0.65052">
        <ele>4</ele>
        <time>2017-06-25T09:00:26Z</time>
      </trkpt>
      <trkpt lat="45.83616" lon="-0.65051">
        <ele>4</ele>
        <time>2017-06-25T09:00:27Z</time>
      </trkpt>
      <trkpt lat="45.83615" lon="-0.65051">
        <ele>4</ele>
        <time>2017-06-25T09:00:28Z</time>
      </trkpt>
      <trkpt lat="45.83613" lon="-0.65049">
        <ele>4</ele>
        <time>2017-06-25T09:00:29Z</time>
      </trkpt>
      <trkpt lat="45.83612" lon="-0.65048">
        <ele>4</ele>
        <time>2017-06-25T09:00:30Z</time>
      </trkpt>
      <trkpt lat="45.83611" lon="-0.65046">
        <ele>4</ele>
        <time>2017-06-25T09:00:31Z</time>
      </trkpt>
      <trkpt lat="45.8361" lon="-0.65045">
        <ele>4</ele>
        <time>2017-06-25T09:00:32Z</time>
      </trkpt>
      <trkpt lat="45.83609" lon="-0.65044">
        <ele>4</ele>
        <time>2017-06-25T09:00:33Z</time>
      </trkpt>
      <trkpt lat="45.83608" lon="-0.65044">
        <ele>4</ele>
        <time>2017-06-25T09:00:34Z</time>
      </trkpt>
      <trkpt lat="45.83607" lon="-0.65043">
        <ele>4</ele>
        <time>2017-06-25T09:00:39Z</time>
      </trkpt>
      <trkpt lat="45.83606" lon="-0.65043">
        <ele>4</ele>
        <time>2017-06-25T09:00:58Z</time>
      </trkpt>
      <trkpt lat="45.83605" lon="-0.65042">
        <ele>4</ele>
        <time>2017-06-25T09:01:19Z</time>
      </trkpt>
      <trkpt lat="45.83605" lon="-0.65041">
        <ele>5</ele>
        <time>2017-06-25T09:01:36Z</time>
      </trkpt>
      <trkpt lat="45.83604" lon="-0.6504">
        <ele>5</ele>
        <time>2017-06-25T09:01:43Z</time>
      </trkpt>
      <trkpt lat="45.83604" lon="-0.65039">
        <ele>5</ele>
        <time>2017-06-25T09:01:50Z</time>
      </trkpt>
      <trkpt lat="45.83603" lon="-0.65038">
        <ele>5</ele>
        <time>2017-06-25T09:01:52Z</time>
      </trkpt>
      <trkpt lat="45.83601" lon="-0.65035">
        <ele>5</ele>
        <time>2017-06-25T09:01:55Z</time>
      </trkpt>
      <trkpt lat="45.836" lon="-0.65034">
        <ele>5</ele>
        <time>2017-06-25T09:01:56Z</time>
      </trkpt>
      <trkpt lat="45.836" lon="-0.65033">
        <ele>5</ele>
        <time>2017-06-25T09:01:57Z</time>
      </trkpt>
      <trkpt lat="45.83598" lon="-0.65033">
        <ele>5</ele>
        <time>2017-06-25T09:01:58Z</time>
      </trkpt>
      <trkpt lat="45.83597" lon="-0.65032">
        <ele>5</ele>
        <time>2017-06-25T09:02:00Z</time>
      </trkpt>
      <trkpt lat="45.83596" lon="-0.65031">
        <ele>5</ele>
        <time>2017-06-25T09:02:02Z</time>
      </trkpt>
      <trkpt lat="45.83595" lon="-0.6503">
        <ele>5</ele>
        <time>2017-06-25T09:02:05Z</time>
      </trkpt>
      <trkpt lat="45.83595" lon="-0.65028">
        <ele>5</ele>
        <time>2017-06-25T09:02:06Z</time>
      </trkpt>
      <trkpt lat="45.83593" lon="-0.65028">
        <ele>5</ele>
        <time>2017-06-25T09:02:07Z</time>
      </trkpt>
      <trkpt lat="45.83593" lon="-0.65027">
        <ele>5</ele>
        <time>2017-06-25T09:02:08Z</time>
      </trkpt>
      <trkpt lat="45.83592" lon="-0.65025">
        <ele>5</ele>
        <time>2017-06-25T09:02:09Z</time>
      </trkpt>
      <trkpt lat="45.83591" lon="-0.65023">
        <ele>5</ele>
        <time>2017-06-25T09:02:10Z</time>
      </trkpt>
      <trkpt lat="45.8359" lon="-0.65021">
        <ele>5</ele>
        <time>2017-06-25T09:02:11Z</time>
      </trkpt>
      <trkpt lat="45.83589" lon="-0.6502">
        <ele>5</ele>
        <time>2017-06-25T09:02:12Z</time>
      </trkpt>
      <trkpt lat="45.83588" lon="-0.65019">
        <ele>5</ele>
        <time>2017-06-25T09:02:13Z</time>
      </trkpt>
      <trkpt lat="45.83587" lon="-0.65017">
        <ele>5</ele>
        <time>2017-06-25T09:02:14Z</time>
      </trkpt>
      <trkpt lat="45.83587" lon="-0.65016">
        <ele>5</ele>
        <time>2017-06-25T09:02:15Z</time>
      </trkpt>
      <trkpt lat="45.83586" lon="-0.65015">
        <ele>5</ele>
        <time>2017-06-25T09:02:16Z</time>
      </trkpt>
      <trkpt lat="45.83585" lon="-0.65014">
        <ele>5</ele>
        <time>2017-06-25T09:02:17Z</time>
      </trkpt>
      <trkpt lat="45.83584" lon="-0.65013">
        <ele>5</ele>
        <time>2017-06-25T09:02:18Z</time>
      </trkpt>
      <trkpt lat="45.83582" lon="-0.65013">
        <ele>5</ele>
        <time>2017-06-25T09:02:19Z</time>
      </trkpt>
      <trkpt lat="45.8358" lon="-0.65012">
        <ele>5</ele>
        <time>2017-06-25T09:02:20Z</time>
      </trkpt>
      <trkpt lat="45.83579" lon="-0.65012">
        <ele>5</ele>
        <time>2017-06-25T09:02:21Z</time>
      </trkpt>
      <trkpt lat="45.83578" lon="-0.6501">
        <ele>5</ele>
        <time>2017-06-25T09:02:23Z</time>
      </trkpt>
      <trkpt lat="45.83577" lon="-0.65008">
        <ele>5</ele>
        <time>2017-06-25T09:02:25Z</time>
      </trkpt>
      <trkpt lat="45.83576" lon="-0.65008">
        <ele>5</ele>
        <time>2017-06-25T09:02:26Z</time>
      </trkpt>
      <trkpt lat="45.83575" lon="-0.65008">
        <ele>5</ele>
        <time>2017-06-25T09:02:27Z</time>
      </trkpt>
      <trkpt lat="45.83574" lon="-0.65006">
        <ele>5</ele>
        <time>2017-06-25T09:02:28Z</time>
      </trkpt>
      <trkpt lat="45.83572" lon="-0.65006">
        <ele>5</ele>
        <time>2017-06-25T09:02:29Z</time>
      </trkpt>
      <trkpt lat="45.83571" lon="-0.65005">
        <ele>5</ele>
        <time>2017-06-25T09:02:31Z</time>
      </trkpt>
      <trkpt lat="45.83573" lon="-0.65006">
        <ele>5</ele>
        <time>2017-06-25T09:02:34Z</time>
      </trkpt>
      <trkpt lat="45.83574" lon="-0.65007">
        <ele>5</ele>
        <time>2017-06-25T09:02:35Z</time>
      </trkpt>
      <trkpt lat="45.83575" lon="-0.65008">
        <ele>5</ele>
        <time>2017-06-25T09:02:37Z</time>
      </trkpt>
      <trkpt lat="45.83576" lon="-0.65009">
        <ele>5</ele>
        <time>2017-06-25T09:02:38Z</time>
      </trkpt>
      <trkpt lat="45.83577" lon="-0.6501">
        <ele>5</ele>
        <time>2017-06-25T09:02:39Z</time>
      </trkpt>
      <trkpt lat="45.83578" lon="-0.65011">
        <ele>5</ele>
        <time>2017-06-25T09:02:40Z</time>
      </trkpt>
      <trkpt lat="45.83579" lon="-0.65012">
        <ele>5</ele>
        <time>2017-06-25T09:02:42Z</time>
      </trkpt>
      <trkpt lat="45.8358" lon="-0.65013">
        <ele>5</ele>
        <time>2017-06-25T09:02:43Z</time>
      </trkpt>
      <trkpt lat="45.83582" lon="-0.65014">
        <ele>5</ele>
        <time>2017-06-25T09:02:45Z</time>
      </trkpt>
      <trkpt lat="45.83583" lon="-0.65016">
        <ele>5</ele>
        <time>2017-06-25T09:02:46Z</time>
      </trkpt>
      <trkpt lat="45.83584" lon="-0.65016">
        <ele>5</ele>
        <time>2017-06-25T09:02:47Z</time>
      </trkpt>
      <trkpt lat="45.83585" lon="-0.65018">
        <ele>5</ele>
        <time>2017-06-25T09:02:48Z</time>
      </trkpt>
      <trkpt lat="45.83586" lon="-0.65019">
        <ele>5</ele>
        <time>2017-06-25T09:02:49Z</time>
      </trkpt>
      <trkpt lat="45.83587" lon="-0.6502">
        <ele>5</ele>
        <time>2017-06-25T09:02:50Z</time>
      </trkpt>
      <trkpt lat="45.83587" lon="-0.65021">
        <ele>5</ele>
        <time>2017-06-25T09:02:51Z</time>
      </trkpt>
      <trkpt lat="45.83588" lon="-0.65023">
        <ele>5</ele>
        <time>2017-06-25T09:02:52Z</time>
      </trkpt>
      <trkpt lat="45.83589" lon="-0.65024">
        <ele>5</ele>
        <time>2017-06-25T09:02:53Z</time>
      </trkpt>
      <trkpt lat="45.83589" lon="-0.65025">
        <ele>5</ele>
        <time>2017-06-25T09:02:54Z</time>
      </trkpt>
      <trkpt lat="45.8359" lon="-0.65027">
        <ele>5</ele>
        <time>2017-06-25T09:02:55Z</time>
      </trkpt>
      <trkpt lat="45.83592" lon="-0.65028">
        <ele>5</ele>
        <time>2017-06-25T09:02:56Z</time>
      </trkpt>
      <trkpt lat="45.83593" lon="-0.65029">
        <ele>5</ele>
        <time>2017-06-25T09:02:57Z</time>
      </trkpt>
      <trkpt lat="45.83594" lon="-0.6503">
        <ele>5</ele>
        <time>2017-06-25T09:02:58Z</time>
      </trkpt>
      <trkpt lat="45.83595" lon="-0.65031">
        <ele>5</ele>
        <time>2017-06-25T09:02:59Z</time>
      </trkpt>
      <trkpt lat="45.83596" lon="-0.65033">
        <ele>5</ele>
        <time>2017-06-25T09:03:00Z</time>
      </trkpt>
      <trkpt lat="45.83597" lon="-0.65035">
        <ele>5</ele>
        <time>2017-06-25T09:03:01Z</time>
      </trkpt>
      <trkpt lat="45.83598" lon="-0.65036">
        <ele>5</ele>
        <time>2017-06-25T09:03:02Z</time>
      </trkpt>
      <trkpt lat="45.83599" lon="-0.65037">
        <ele>5</ele>
        <time>2017-06-25T09:03:04Z</time>
      </trkpt>
      <trkpt lat="45.836" lon="-0.65038">
        <ele>5</ele>
        <time>2017-06-25T09:03:06Z</time>
      </trkpt>
      <trkpt lat="45.83599" lon="-0.65039">
        <ele>5</ele>
        <time>2017-06-25T09:03:14Z</time>
      </trkpt>
      <trkpt lat="45.83599" lon="-0.6504">
        <ele>5</ele>
        <time>2017-06-25T09:03:17Z</time>
      </trkpt>
      <trkpt lat="45.836" lon="-0.65041">
        <ele>5</ele>
        <time>2017-06-25T09:03:27Z</time>
      </trkpt>
      <trkpt lat="45.836" lon="-0.65042">
        <ele>4</ele>
        <time>2017-06-25T09:03:28Z</time>
      </trkpt>
      <trkpt lat="45.83601" lon="-0.65042">
        <ele>4</ele>
        <time>2017-06-25T09:03:31Z</time>
      </trkpt>
      <trkpt lat="45.83602" lon="-0.65044">
        <ele>4</ele>
        <time>2017-06-25T09:03:33Z</time>
      </trkpt>
      <trkpt lat="45.83603" lon="-0.65045">
        <ele>4</ele>
        <time>2017-06-25T09:03:40Z</time>
      </trkpt>
      <trkpt lat="45.83603" lon="-0.65045">
        <ele>4</ele>
        <time>2017-06-25T09:03:49Z</time>
      </trkpt>
      <trkpt lat="45.83603" lon="-0.65044">
        <ele>4</ele>
        <time>2017-06-25T09:04:11Z</time>
      </trkpt>
      <trkpt lat="45.83603" lon="-0.65043">
        <ele>4</ele>
        <time>2017-06-25T09:04:27Z</time>
      </trkpt>
      <trkpt lat="45.83603" lon="-0.65041">
        <ele>5</ele>
        <time>2017-06-25T09:04:32Z</time>
      </trkpt>
      <trkpt lat="45.83602" lon="-0.65039">
        <ele>5</ele>
        <time>2017-06-25T09:04:34Z</time>
      </trkpt>
      <trkpt lat="45.83603" lon="-0.6504">
        <ele>5</ele>
        <time>2017-06-25T09:04:48Z</time>
      </trkpt>
      <trkpt lat="45.83601" lon="-0.65039">
        <ele>5</ele>
        <time>2017-06-25T09:05:02Z</time>
      </trkpt>
      <trkpt lat="45.83601" lon="-0.65037">
        <ele>5</ele>
        <time>2017-06-25T09:05:03Z</time>
      </trkpt>
      <trkpt lat="45.83599" lon="-0.65035">
        <ele>5</ele>
        <time>2017-06-25T09:05:05Z</time>
      </trkpt>
      <trkpt lat="45.83599" lon="-0.65034">
        <ele>5</ele>
        <time>2017-06-25T09:05:06Z</time>
      </trkpt>
      <trkpt lat="45.83597" lon="-0.65032">
        <ele>5</ele>
        <time>2017-06-25T09:05:07Z</time>
      </trkpt>
      <trkpt lat="45.83597" lon="-0.6503">
        <ele>5</ele>
        <time>2017-06-25T09:05:08Z</time>
      </trkpt>
      <trkpt lat="45.83596" lon="-0.65029">
        <ele>5</ele>
        <time>2017-06-25T09:05:10Z</time>
      </trkpt>
      <trkpt lat="45.83595" lon="-0.65029">
        <ele>5</ele>
        <time>2017-06-25T09:05:11Z</time>
      </trkpt>
      <trkpt lat="45.83593" lon="-0.65028">
        <ele>5</ele>
        <time>2017-06-25T09:05:12Z</time>
      </trkpt>
      <trkpt lat="45.83592" lon="-0.65026">
        <ele>5</ele>
        <time>2017-06-25T09:05:13Z</time>
      </trkpt>
      <trkpt lat="45.8359" lon="-0.65025">
        <ele>5</ele>
        <time>2017-06-25T09:05:14Z</time>
      </trkpt>
      <trkpt lat="45.83589" lon="-0.65024">
        <ele>5</ele>
        <time>2017-06-25T09:05:15Z</time>
      </trkpt>
      <trkpt lat="45.83587" lon="-0.65023">
        <ele>5</ele>
        <time>2017-06-25T09:05:16Z</time>
      </trkpt>
      <trkpt lat="45.83587" lon="-0.65022">
        <ele>5</ele>
        <time>2017-06-25T09:05:17Z</time>
      </trkpt>
      <trkpt lat="45.83585" lon="-0.65021">
        <ele>5</ele>
        <time>2017-06-25T09:05:18Z</time>
      </trkpt>
      <trkpt lat="45.83584" lon="-0.6502">
        <ele>5</ele>
        <time>2017-06-25T09:05:19Z</time>
      </trkpt>
      <trkpt lat="45.83583" lon="-0.65019">
        <ele>4</ele>
        <time>2017-06-25T09:05:20Z</time>
      </trkpt>
      <trkpt lat="45.83582" lon="-0.65017">
        <ele>5</ele>
        <time>2017-06-25T09:05:21Z</time>
      </trkpt>
      <trkpt lat="45.8358" lon="-0.65015">
        <ele>5</ele>
        <time>2017-06-25T09:05:23Z</time>
      </trkpt>
      <trkpt lat="45.83579" lon="-0.65014">
        <ele>5</ele>
        <time>2017-06-25T09:05:24Z</time>
      </trkpt>
      <trkpt lat="45.83578" lon="-0.65013">
        <ele>5</ele>
        <time>2017-06-25T09:05:25Z</time>
      </trkpt>
      <trkpt lat="45.83577" lon="-0.65013">
        <ele>5</ele>
        <time>2017-06-25T09:05:26Z</time>
      </trkpt>
      <trkpt lat="45.83576" lon="-0.65012">
        <ele>5</ele>
        <time>2017-06-25T09:05:27Z</time>
      </trkpt>
      <trkpt lat="45.83575" lon="-0.65011">
        <ele>5</ele>
        <time>2017-06-25T09:05:28Z</time>
      </trkpt>
      <trkpt lat="45.83574" lon="-0.65009">
        <ele>5</ele>
        <time>2017-06-25T09:05:29Z</time>
      </trkpt>
      <trkpt lat="45.83573" lon="-0.65008">
        <ele>5</ele>
        <time>2017-06-25T09:05:30Z</time>
      </trkpt>
      <trkpt lat="45.83572" lon="-0.65007">
        <ele>5</ele>
        <time>2017-06-25T09:05:31Z</time>
      </trkpt>
      <trkpt lat="45.83571" lon="-0.65007">
        <ele>5</ele>
        <time>2017-06-25T09:05:32Z</time>
      </trkpt>
      <trkpt lat="45.8357" lon="-0.65006">
        <ele>5</ele>
        <time>2017-06-25T09:05:33Z</time>
      </trkpt>
      <trkpt lat="45.83569" lon="-0.65006">
        <ele>5</ele>
        <time>2017-06-25T09:05:34Z</time>
      </trkpt>
      <trkpt lat="45.83568" lon="-0.65005">
        <ele>5</ele>
        <time>2017-06-25T09:05:35Z</time>
      </trkpt>
      <trkpt lat="45.83567" lon="-0.65004">
        <ele>5</ele>
        <time>2017-06-25T09:05:36Z</time>
      </trkpt>
      <trkpt lat="45.83566" lon="-0.65003">
        <ele>5</ele>
        <time>2017-06-25T09:05:37Z</time>
      </trkpt>
      <trkpt lat="45.83565" lon="-0.65002">
        <ele>4</ele>
        <time>2017-06-25T09:05:38Z</time>
      </trkpt>
      <trkpt lat="45.83564" lon="-0.65001">
        <ele>4</ele>
        <time>2017-06-25T09:05:39Z</time>
      </trkpt>
      <trkpt lat="45.83563" lon="-0.65">
        <ele>5</ele>
        <time>2017-06-25T09:05:40Z</time>
      </trkpt>
      <trkpt lat="45.83562" lon="-0.64999">
        <ele>5</ele>
        <time>2017-06-25T09:05:41Z</time>
      </trkpt>
      <trkpt lat="45.83561" lon="-0.64998">
        <ele>5</ele>
        <time>2017-06-25T09:05:42Z</time>
      </trkpt>
      <trkpt lat="45.83559" lon="-0.64997">
        <ele>5</ele>
        <time>2017-06-25T09:05:44Z</time>
      </trkpt>
      <trkpt lat="45.83558" lon="-0.64996">
        <ele>5</ele>
        <time>2017-06-25T09:05:46Z</time>
      </trkpt>
      <trkpt lat="45.83557" lon="-0.64995">
        <ele>5</ele>
        <time>2017-06-25T09:05:47Z</time>
      </trkpt>
      <trkpt lat="45.83556" lon="-0.64994">
        <ele>5</ele>
        <time>2017-06-25T09:05:48Z</time>
      </trkpt>
      <trkpt lat="45.83555" lon="-0.64994">
        <ele>5</ele>
        <time>2017-06-25T09:05:49Z</time>
      </trkpt>
      <trkpt lat="45.83553" lon="-0.64993">
        <ele>5</ele>
        <time>2017-06-25T09:05:50Z</time>
      </trkpt>
      <trkpt lat="45.83552" lon="-0.64993">
        <ele>5</ele>
        <time>2017-06-25T09:05:51Z</time>
      </trkpt>
      <trkpt lat="45.8355" lon="-0.64992">
        <ele>5</ele>
        <time>2017-06-25T09:05:52Z</time>
      </trkpt>
      <trkpt lat="45.83549" lon="-0.6499">
        <ele>5</ele>
        <time>2017-06-25T09:05:53Z</time>
      </trkpt>
      <trkpt lat="45.83548" lon="-0.6499">
        <ele>5</ele>
        <time>2017-06-25T09:05:54Z</time>
      </trkpt>
      <trkpt lat="45.83546" lon="-0.64988">
        <ele>5</ele>
        <time>2017-06-25T09:05:56Z</time>
      </trkpt>
      <trkpt lat="45.83545" lon="-0.64987">
        <ele>5</ele>
        <time>2017-06-25T09:05:57Z</time>
      </trkpt>
      <trkpt lat="45.83544" lon="-0.64986">
        <ele>5</ele>
        <time>2017-06-25T09:05:58Z</time>
      </trkpt>
      <trkpt lat="45.83543" lon="-0.64985">
        <ele>5</ele>
        <time>2017-06-25T09:05:59Z</time>
      </trkpt>
      <trkpt lat="45.83542" lon="-0.64983">
        <ele>5</ele>
        <time>2017-06-25T09:06:00Z</time>
      </trkpt>
      <trkpt lat="45.83541" lon="-0.64982">
        <ele>5</ele>
        <time>2017-06-25T09:06:01Z</time>
      </trkpt>
      <trkpt lat="45.8354" lon="-0.64981">
        <ele>5</ele>
        <time>2017-06-25T09:06:02Z</time>
      </trkpt>
      <trkpt lat="45.83539" lon="-0.6498">
        <ele>5</ele>
        <time>2017-06-25T09:06:03Z</time>
      </trkpt>
      <trkpt lat="45.83538" lon="-0.64979">
        <ele>5</ele>
        <time>2017-06-25T09:06:05Z</time>
      </trkpt>
      <trkpt lat="45.83537" lon="-0.64977">
        <ele>5</ele>
        <time>2017-06-25T09:06:08Z</time>
      </trkpt>
      <trkpt lat="45.83536" lon="-0.64976">
        <ele>5</ele>
        <time>2017-06-25T09:06:10Z</time>
      </trkpt>
      <trkpt lat="45.83535" lon="-0.64975">
        <ele>5</ele>
        <time>2017-06-25T09:06:12Z</time>
      </trkpt>
      <trkpt lat="45.83535" lon="-0.64975">
        <ele>5</ele>
        <time>2017-06-25T09:06:13Z</time>
      </trkpt>
      <trkpt lat="45.83533" lon="-0.64973">
        <ele>5</ele>
        <time>2017-06-25T09:06:14Z</time>
      </trkpt>
      <trkpt lat="45.83531" lon="-0.64971">
        <ele>5</ele>
        <time>2017-06-25T09:06:15Z</time>
      </trkpt>
      <trkpt lat="45.8353" lon="-0.64969">
        <ele>5</ele>
        <time>2017-06-25T09:06:16Z</time>
      </trkpt>
      <trkpt lat="45.83529" lon="-0.64968">
        <ele>5</ele>
        <time>2017-06-25T09:06:18Z</time>
      </trkpt>
      <trkpt lat="45.83527" lon="-0.64967">
        <ele>5</ele>
        <time>2017-06-25T09:06:20Z</time>
      </trkpt>
      <trkpt lat="45.83526" lon="-0.64965">
        <ele>5</ele>
        <time>2017-06-25T09:06:21Z</time>
      </trkpt>
      <trkpt lat="45.83525" lon="-0.64964">
        <ele>5</ele>
        <time>2017-06-25T09:06:22Z</time>
      </trkpt>
      <trkpt lat="45.83524" lon="-0.64963">
        <ele>5</ele>
        <time>2017-06-25T09:06:25Z</time>
      </trkpt>
      <trkpt lat="45.83524" lon="-0.64962">
        <ele>5</ele>
        <time>2017-06-25T09:06:27Z</time>
      </trkpt>
      <trkpt lat="45.83525" lon="-0.6496">
        <ele>5</ele>
        <time>2017-06-25T09:06:28Z</time>
      </trkpt>
      <trkpt lat="45.83525" lon="-0.64959">
        <ele>5</ele>
        <time>2017-06-25T09:06:29Z</time>
      </trkpt>
      <trkpt lat="45.83526" lon="-0.64958">
        <ele>5</ele>
        <time>2017-06-25T09:06:30Z</time>
      </trkpt>
      <trkpt lat="45.83527" lon="-0.64957">
        <ele>5</ele>
        <time>2017-06-25T09:06:31Z</time>
      </trkpt>
      <trkpt lat="45.83527" lon="-0.64954">
        <ele>5</ele>
        <time>2017-06-25T09:06:33Z</time>
      </trkpt>
      <trkpt lat="45.83527" lon="-0.64953">
        <ele>5</ele>
        <time>2017-06-25T09:06:34Z</time>
      </trkpt>
      <trkpt lat="45.83528" lon="-0.64951">
        <ele>5</ele>
        <time>2017-06-25T09:06:36Z</time>
      </trkpt>
      <trkpt lat="45.83528" lon="-0.64948">
        <ele>5</ele>
        <time>2017-06-25T09:06:37Z</time>
      </trkpt>
      <trkpt lat="45.83527" lon="-0.64946">
        <ele>5</ele>
        <time>2017-06-25T09:06:39Z</time>
      </trkpt>
      <trkpt lat="45.83527" lon="-0.64944">
        <ele>5</ele>
        <time>2017-06-25T09:06:40Z</time>
      </trkpt>
      <trkpt lat="45.83527" lon="-0.64943">
        <ele>5</ele>
        <time>2017-06-25T09:06:41Z</time>
      </trkpt>
      <trkpt lat="45.83528" lon="-0.64941">
        <ele>5</ele>
        <time>2017-06-25T09:06:42Z</time>
      </trkpt>
      <trkpt lat="45.83528" lon="-0.64938">
        <ele>5</ele>
        <time>2017-06-25T09:06:43Z</time>
      </trkpt>
      <trkpt lat="45.83529" lon="-0.64937">
        <ele>5</ele>
        <time>2017-06-25T09:06:44Z</time>
      </trkpt>
      <trkpt lat="45.83529" lon="-0.64935">
        <ele>5</ele>
        <time>2017-06-25T09:06:45Z</time>
      </trkpt>
      <trkpt lat="45.83528" lon="-0.64932">
        <ele>5</ele>
        <time>2017-06-25T09:06:46Z</time>
      </trkpt>
      <trkpt lat="45.83527" lon="-0.64929">
        <ele>5</ele>
        <time>2017-06-25T09:06:47Z</time>
      </trkpt>
      <trkpt lat="45.83527" lon="-0.64926">
        <ele>5</ele>
        <time>2017-06-25T09:06:48Z</time>
      </trkpt>
      <trkpt lat="45.83527" lon="-0.64924">
        <ele>5</ele>
        <time>2017-06-25T09:06:49Z</time>
      </trkpt>
      <trkpt lat="45.83527" lon="-0.64922">
        <ele>5</ele>
        <time>2017-06-25T09:06:50Z</time>
      </trkpt>
      <trkpt lat="45.83527" lon="-0.6492">
        <ele>5</ele>
        <time>2017-06-25T09:06:51Z</time>
      </trkpt>
      <trkpt lat="45.83528" lon="-0.64919">
        <ele>5</ele>
        <time>2017-06-25T09:06:52Z</time>
      </trkpt>
      <trkpt lat="45.83528" lon="-0.64916">
        <ele>6</ele>
        <time>2017-06-25T09:06:53Z</time>
      </trkpt>
      <trkpt lat="45.83528" lon="-0.64912">
        <ele>6</ele>
        <time>2017-06-25T09:06:54Z</time>
      </trkpt>
      <trkpt lat="45.83529" lon="-0.6491">
        <ele>6</ele>
        <time>2017-06-25T09:06:55Z</time>
      </trkpt>
      <trkpt lat="45.8353" lon="-0.64908">
        <ele>6</ele>
        <time>2017-06-25T09:06:56Z</time>
      </trkpt>
      <trkpt lat="45.83531" lon="-0.64906">
        <ele>6</ele>
        <time>2017-06-25T09:06:57Z</time>
      </trkpt>
      <trkpt lat="45.83532" lon="-0.64903">
        <ele>6</ele>
        <time>2017-06-25T09:06:59Z</time>
      </trkpt>
      <trkpt lat="45.83532" lon="-0.64902">
        <ele>6</ele>
        <time>2017-06-25T09:07:00Z</time>
      </trkpt>
      <trkpt lat="45.83533" lon="-0.64901">
        <ele>6</ele>
        <time>2017-06-25T09:07:01Z</time>
      </trkpt>
      <trkpt lat="45.83534" lon="-0.649">
        <ele>6</ele>
        <time>2017-06-25T09:07:02Z</time>
      </trkpt>
      <trkpt lat="45.83534" lon="-0.64899">
        <ele>6</ele>
        <time>2017-06-25T09:07:03Z</time>
      </trkpt>
      <trkpt lat="45.83535" lon="-0.64897">
        <ele>6</ele>
        <time>2017-06-25T09:07:04Z</time>
      </trkpt>
      <trkpt lat="45.83536" lon="-0.64896">
        <ele>6</ele>
        <time>2017-06-25T09:07:05Z</time>
      </trkpt>
      <trkpt lat="45.83537" lon="-0.64895">
        <ele>6</ele>
        <time>2017-06-25T09:07:06Z</time>
      </trkpt>
      <trkpt lat="45.83538" lon="-0.64894">
        <ele>6</ele>
        <time>2017-06-25T09:07:08Z</time>
      </trkpt>
      <trkpt lat="45.8354" lon="-0.64893">
        <ele>6</ele>
        <time>2017-06-25T09:07:09Z</time>
      </trkpt>
      <trkpt lat="45.83541" lon="-0.64893">
        <ele>6</ele>
        <time>2017-06-25T09:07:10Z</time>
      </trkpt>
      <trkpt lat="45.83542" lon="-0.64891">
        <ele>6</ele>
        <time>2017-06-25T09:07:11Z</time>
      </trkpt>
      <trkpt lat="45.83543" lon="-0.6489">
        <ele>6</ele>
        <time>2017-06-25T09:07:13Z</time>
      </trkpt>
      <trkpt lat="45.83544" lon="-0.64889">
        <ele>6</ele>
        <time>2017-06-25T09:07:19Z</time>
      </trkpt>
      <trkpt lat="45.83545" lon="-0.64888">
        <ele>6</ele>
        <time>2017-06-25T09:07:20Z</time>
      </trkpt>
      <trkpt lat="45.83546" lon="-0.64887">
        <ele>6</ele>
        <time>2017-06-25T09:07:21Z</time>
      </trkpt>
      <trkpt lat="45.83547" lon="-0.64886">
        <ele>6</ele>
        <time>2017-06-25T09:07:22Z</time>
      </trkpt>
      <trkpt lat="45.83548" lon="-0.64884">
        <ele>6</ele>
        <time>2017-06-25T09:07:23Z</time>
      </trkpt>
      <trkpt lat="45.83549" lon="-0.64882">
        <ele>6</ele>
        <time>2017-06-25T09:07:24Z</time>
      </trkpt>
      <trkpt lat="45.8355" lon="-0.6488">
        <ele>6</ele>
        <time>2017-06-25T09:07:25Z</time>
      </trkpt>
      <trkpt lat="45.83551" lon="-0.64878">
        <ele>6</ele>
        <time>2017-06-25T09:07:26Z</time>
      </trkpt>
      <trkpt lat="45.83551" lon="-0.64876">
        <ele>6</ele>
        <time>2017-06-25T09:07:27Z</time>
      </trkpt>
      <trkpt lat="45.83552" lon="-0.64874">
        <ele>6</ele>
        <time>2017-06-25T09:07:28Z</time>
      </trkpt>
      <trkpt lat="45.83553" lon="-0.64873">
        <ele>6</ele>
        <time>2017-06-25T09:07:29Z</time>
      </trkpt>
      <trkpt lat="45.83553" lon="-0.64871">
        <ele>6</ele>
        <time>2017-06-25T09:07:30Z</time>
      </trkpt>
      <trkpt lat="45.83554" lon="-0.6487">
        <ele>6</ele>
        <time>2017-06-25T09:07:31Z</time>
      </trkpt>
      <trkpt lat="45.83554" lon="-0.64869">
        <ele>6</ele>
        <time>2017-06-25T09:07:32Z</time>
      </trkpt>
      <trkpt lat="45.83554" lon="-0.64867">
        <ele>6</ele>
        <time>2017-06-25T09:07:33Z</time>
      </trkpt>
      <trkpt lat="45.83555" lon="-0.64866">
        <ele>6</ele>
        <time>2017-06-25T09:07:34Z</time>
      </trkpt>
      <trkpt lat="45.83555" lon="-0.64864">
        <ele>6</ele>
        <time>2017-06-25T09:07:35Z</time>
      </trkpt>
      <trkpt lat="45.83556" lon="-0.64862">
        <ele>6</ele>
        <time>2017-06-25T09:07:36Z</time>
      </trkpt>
      <trkpt lat="45.83557" lon="-0.64859">
        <ele>6</ele>
        <time>2017-06-25T09:07:38Z</time>
      </trkpt>
      <trkpt lat="45.83558" lon="-0.64858">
        <ele>6</ele>
        <time>2017-06-25T09:07:39Z</time>
      </trkpt>
      <trkpt lat="45.8356" lon="-0.64855">
        <ele>6</ele>
        <time>2017-06-25T09:07:40Z</time>
      </trkpt>
      <trkpt lat="45.83561" lon="-0.64851">
        <ele>6</ele>
        <time>2017-06-25T09:07:41Z</time>
      </trkpt>
      <trkpt lat="45.83562" lon="-0.6485">
        <ele>6</ele>
        <time>2017-06-25T09:07:42Z</time>
      </trkpt>
      <trkpt lat="45.83563" lon="-0.64848">
        <ele>6</ele>
        <time>2017-06-25T09:07:43Z</time>
      </trkpt>
      <trkpt lat="45.83563" lon="-0.64846">
        <ele>6</ele>
        <time>2017-06-25T09:07:44Z</time>
      </trkpt>
      <trkpt lat="45.83564" lon="-0.64844">
        <ele>6</ele>
        <time>2017-06-25T09:07:45Z</time>
      </trkpt>
      <trkpt lat="45.83563" lon="-0.64841">
        <ele>6</ele>
        <time>2017-06-25T09:07:46Z</time>
      </trkpt>
      <trkpt lat="45.83564" lon="-0.6484">
        <ele>6</ele>
        <time>2017-06-25T09:07:47Z</time>
      </trkpt>
      <trkpt lat="45.83564" lon="-0.64836">
        <ele>6</ele>
        <time>2017-06-25T09:07:49Z</time>
      </trkpt>
      <trkpt lat="45.83565" lon="-0.64833">
        <ele>8</ele>
        <time>2017-06-25T09:07:50Z</time>
      </trkpt>
      <trkpt lat="45.83565" lon="-0.64832">
        <ele>8</ele>
        <time>2017-06-25T09:07:51Z</time>
      </trkpt>
      <trkpt lat="45.83565" lon="-0.6483">
        <ele>8</ele>
        <time>2017-06-25T09:07:52Z</time>
      </trkpt>
      <trkpt lat="45.83566" lon="-0.64829">
        <ele>8</ele>
        <time>2017-06-25T09:07:53Z</time>
      </trkpt>
      <trkpt lat="45.83566" lon="-0.64826">
        <ele>8</ele>
        <time>2017-06-25T09:07:55Z</time>
      </trkpt>
      <trkpt lat="45.83566" lon="-0.64825">
        <ele>8</ele>
        <time>2017-06-25T09:07:56Z</time>
      </trkpt>
      <trkpt lat="45.83568" lon="-0.64824">
        <ele>8</ele>
        <time>2017-06-25T09:07:57Z</time>
      </trkpt>
      <trkpt lat="45.83569" lon="-0.64823">
        <ele>8</ele>
        <time>2017-06-25T09:07:58Z</time>
      </trkpt>
      <trkpt lat="45.8357" lon="-0.64822">
        <ele>8</ele>
        <time>2017-06-25T09:07:59Z</time>
      </trkpt>
      <trkpt lat="45.83572" lon="-0.6482">
        <ele>8</ele>
        <time>2017-06-25T09:08:00Z</time>
      </trkpt>
      <trkpt lat="45.83573" lon="-0.64818">
        <ele>8</ele>
        <time>2017-06-25T09:08:01Z</time>
      </trkpt>
      <trkpt lat="45.83575" lon="-0.64816">
        <ele>8</ele>
        <time>2017-06-25T09:08:02Z</time>
      </trkpt>
      <trkpt lat="45.83576" lon="-0.64815">
        <ele>8</ele>
        <time>2017-06-25T09:08:03Z</time>
      </trkpt>
      <trkpt lat="45.83577" lon="-0.64814">
        <ele>8</ele>
        <time>2017-06-25T09:08:04Z</time>
      </trkpt>
      <trkpt lat="45.83578" lon="-0.64813">
        <ele>8</ele>
        <time>2017-06-25T09:08:05Z</time>
      </trkpt>
      <trkpt lat="45.8358" lon="-0.64811">
        <ele>8</ele>
        <time>2017-06-25T09:08:06Z</time>
      </trkpt>
      <trkpt lat="45.83581" lon="-0.64809">
        <ele>8</ele>
        <time>2017-06-25T09:08:08Z</time>
      </trkpt>
      <trkpt lat="45.83582" lon="-0.64808">
        <ele>8</ele>
        <time>2017-06-25T09:08:09Z</time>
      </trkpt>
      <trkpt lat="45.83582" lon="-0.64807">
        <ele>8</ele>
        <time>2017-06-25T09:08:10Z</time>
      </trkpt>
      <trkpt lat="45.83583" lon="-0.64805">
        <ele>8</ele>
        <time>2017-06-25T09:08:11Z</time>
      </trkpt>
      <trkpt lat="45.83584" lon="-0.64804">
        <ele>6</ele>
        <time>2017-06-25T09:08:12Z</time>
      </trkpt>
      <trkpt lat="45.83584" lon="-0.64802">
        <ele>6</ele>
        <time>2017-06-25T09:08:13Z</time>
      </trkpt>
      <trkpt lat="45.83585" lon="-0.64801">
        <ele>6</ele>
        <time>2017-06-25T09:08:14Z</time>
      </trkpt>
      <trkpt lat="45.83585" lon="-0.648">
        <ele>6</ele>
        <time>2017-06-25T09:08:15Z</time>
      </trkpt>
      <trkpt lat="45.83586" lon="-0.64798">
        <ele>6</ele>
        <time>2017-06-25T09:08:17Z</time>
      </trkpt>
      <trkpt lat="45.83587" lon="-0.64796">
        <ele>6</ele>
        <time>2017-06-25T09:08:18Z</time>
      </trkpt>
      <trkpt lat="45.83588" lon="-0.64795">
        <ele>6</ele>
        <time>2017-06-25T09:08:19Z</time>
      </trkpt>
      <trkpt lat="45.83588" lon="-0.64794">
        <ele>6</ele>
        <time>2017-06-25T09:08:20Z</time>
      </trkpt>
      <trkpt lat="45.83589" lon="-0.64792">
        <ele>6</ele>
        <time>2017-06-25T09:08:21Z</time>
      </trkpt>
      <trkpt lat="45.8359" lon="-0.64791">
        <ele>6</ele>
        <time>2017-06-25T09:08:22Z</time>
      </trkpt>
      <trkpt lat="45.83592" lon="-0.64789">
        <ele>6</ele>
        <time>2017-06-25T09:08:24Z</time>
      </trkpt>
      <trkpt lat="45.83593" lon="-0.64787">
        <ele>6</ele>
        <time>2017-06-25T09:08:25Z</time>
      </trkpt>
      <trkpt lat="45.83594" lon="-0.64785">
        <ele>6</ele>
        <time>2017-06-25T09:08:26Z</time>
      </trkpt>
      <trkpt lat="45.83595" lon="-0.64783">
        <ele>6</ele>
        <time>2017-06-25T09:08:27Z</time>
      </trkpt>
      <trkpt lat="45.83596" lon="-0.64781">
        <ele>6</ele>
        <time>2017-06-25T09:08:28Z</time>
      </trkpt>
      <trkpt lat="45.83596" lon="-0.64779">
        <ele>6</ele>
        <time>2017-06-25T09:08:29Z</time>
      </trkpt>
      <trkpt lat="45.83597" lon="-0.64777">
        <ele>6</ele>
        <time>2017-06-25T09:08:30Z</time>
      </trkpt>
      <trkpt lat="45.83597" lon="-0.64774">
        <ele>6</ele>
        <time>2017-06-25T09:08:32Z</time>
      </trkpt>
      <trkpt lat="45.83597" lon="-0.64772">
        <ele>6</ele>
        <time>2017-06-25T09:08:33Z</time>
      </trkpt>
      <trkpt lat="45.83598" lon="-0.6477">
        <ele>6</ele>
        <time>2017-06-25T09:08:34Z</time>
      </trkpt>
      <trkpt lat="45.83598" lon="-0.64768">
        <ele>6</ele>
        <time>2017-06-25T09:08:35Z</time>
      </trkpt>
      <trkpt lat="45.83598" lon="-0.64766">
        <ele>6</ele>
        <time>2017-06-25T09:08:36Z</time>
      </trkpt>
      <trkpt lat="45.83599" lon="-0.64763">
        <ele>6</ele>
        <time>2017-06-25T09:08:38Z</time>
      </trkpt>
      <trkpt lat="45.83598" lon="-0.6476">
        <ele>6</ele>
        <time>2017-06-25T09:08:39Z</time>
      </trkpt>
      <trkpt lat="45.83598" lon="-0.64758">
        <ele>6</ele>
        <time>2017-06-25T09:08:40Z</time>
      </trkpt>
      <trkpt lat="45.83597" lon="-0.64755">
        <ele>6</ele>
        <time>2017-06-25T09:08:41Z</time>
      </trkpt>
      <trkpt lat="45.83598" lon="-0.64753">
        <ele>6</ele>
        <time>2017-06-25T09:08:42Z</time>
      </trkpt>
      <trkpt lat="45.83597" lon="-0.64751">
        <ele>6</ele>
        <time>2017-06-25T09:08:43Z</time>
      </trkpt>
      <trkpt lat="45.83596" lon="-0.64749">
        <ele>7</ele>
        <time>2017-06-25T09:08:44Z</time>
      </trkpt>
      <trkpt lat="45.83595" lon="-0.64747">
        <ele>7</ele>
        <time>2017-06-25T09:08:45Z</time>
      </trkpt>
      <trkpt lat="45.83595" lon="-0.64746">
        <ele>7</ele>
        <time>2017-06-25T09:08:46Z</time>
      </trkpt>
      <trkpt lat="45.83593" lon="-0.64743">
        <ele>7</ele>
        <time>2017-06-25T09:08:47Z</time>
      </trkpt>
      <trkpt lat="45.83592" lon="-0.64742">
        <ele>7</ele>
        <time>2017-06-25T09:08:48Z</time>
      </trkpt>
      <trkpt lat="45.83592" lon="-0.6474">
        <ele>7</ele>
        <time>2017-06-25T09:08:49Z</time>
      </trkpt>
      <trkpt lat="45.83591" lon="-0.64738">
        <ele>7</ele>
        <time>2017-06-25T09:08:50Z</time>
      </trkpt>
      <trkpt lat="45.83591" lon="-0.64737">
        <ele>7</ele>
        <time>2017-06-25T09:08:51Z</time>
      </trkpt>
      <trkpt lat="45.8359" lon="-0.64735">
        <ele>7</ele>
        <time>2017-06-25T09:08:53Z</time>
      </trkpt>
      <trkpt lat="45.8359" lon="-0.64733">
        <ele>7</ele>
        <time>2017-06-25T09:08:54Z</time>
      </trkpt>
      <trkpt lat="45.8359" lon="-0.6473">
        <ele>7</ele>
        <time>2017-06-25T09:08:55Z</time>
      </trkpt>
      <trkpt lat="45.8359" lon="-0.64728">
        <ele>7</ele>
        <time>2017-06-25T09:08:56Z</time>
      </trkpt>
      <trkpt lat="45.83591" lon="-0.64725">
        <ele>7</ele>
        <time>2017-06-25T09:08:57Z</time>
      </trkpt>
      <trkpt lat="45.83591" lon="-0.64724">
        <ele>7</ele>
        <time>2017-06-25T09:08:58Z</time>
      </trkpt>
      <trkpt lat="45.83592" lon="-0.64722">
        <ele>7</ele>
        <time>2017-06-25T09:08:59Z</time>
      </trkpt>
      <trkpt lat="45.83592" lon="-0.64721">
        <ele>7</ele>
        <time>2017-06-25T09:09:00Z</time>
      </trkpt>
      <trkpt lat="45.83594" lon="-0.64719">
        <ele>7</ele>
        <time>2017-06-25T09:09:01Z</time>
      </trkpt>
      <trkpt lat="45.83595" lon="-0.64717">
        <ele>7</ele>
        <time>2017-06-25T09:09:02Z</time>
      </trkpt>
      <trkpt lat="45.83596" lon="-0.64716">
        <ele>7</ele>
        <time>2017-06-25T09:09:03Z</time>
      </trkpt>
      <trkpt lat="45.83598" lon="-0.64714">
        <ele>7</ele>
        <time>2017-06-25T09:09:04Z</time>
      </trkpt>
      <trkpt lat="45.83599" lon="-0.64712">
        <ele>7</ele>
        <time>2017-06-25T09:09:05Z</time>
      </trkpt>
      <trkpt lat="45.836" lon="-0.64711">
        <ele>7</ele>
        <time>2017-06-25T09:09:06Z</time>
      </trkpt>
      <trkpt lat="45.83601" lon="-0.64709">
        <ele>7</ele>
        <time>2017-06-25T09:09:07Z</time>
      </trkpt>
      <trkpt lat="45.83601" lon="-0.64708">
        <ele>7</ele>
        <time>2017-06-25T09:09:08Z</time>
      </trkpt>
      <trkpt lat="45.83603" lon="-0.64706">
        <ele>7</ele>
        <time>2017-06-25T09:09:10Z</time>
      </trkpt>
      <trkpt lat="45.83604" lon="-0.64704">
        <ele>7</ele>
        <time>2017-06-25T09:09:12Z</time>
      </trkpt>
      <trkpt lat="45.83605" lon="-0.64702">
        <ele>7</ele>
        <time>2017-06-25T09:09:13Z</time>
      </trkpt>
      <trkpt lat="45.83606" lon="-0.64701">
        <ele>7</ele>
        <time>2017-06-25T09:09:14Z</time>
      </trkpt>
      <trkpt lat="45.83608" lon="-0.64699">
        <ele>7</ele>
        <time>2017-06-25T09:09:15Z</time>
      </trkpt>
      <trkpt lat="45.83608" lon="-0.64698">
        <ele>7</ele>
        <time>2017-06-25T09:09:16Z</time>
      </trkpt>
      <trkpt lat="45.83609" lon="-0.64697">
        <ele>7</ele>
        <time>2017-06-25T09:09:17Z</time>
      </trkpt>
      <trkpt lat="45.83611" lon="-0.64694">
        <ele>7</ele>
        <time>2017-06-25T09:09:18Z</time>
      </trkpt>
      <trkpt lat="45.83612" lon="-0.64693">
        <ele>7</ele>
        <time>2017-06-25T09:09:19Z</time>
      </trkpt>
      <trkpt lat="45.83612" lon="-0.64692">
        <ele>7</ele>
        <time>2017-06-25T09:09:20Z</time>
      </trkpt>
      <trkpt lat="45.83614" lon="-0.64691">
        <ele>7</ele>
        <time>2017-06-25T09:09:21Z</time>
      </trkpt>
      <trkpt lat="45.83615" lon="-0.6469">
        <ele>7</ele>
        <time>2017-06-25T09:09:22Z</time>
      </trkpt>
      <trkpt lat="45.83616" lon="-0.64688">
        <ele>7</ele>
        <time>2017-06-25T09:09:23Z</time>
      </trkpt>
      <trkpt lat="45.83618" lon="-0.64687">
        <ele>7</ele>
        <time>2017-06-25T09:09:24Z</time>
      </trkpt>
      <trkpt lat="45.8362" lon="-0.64685">
        <ele>7</ele>
        <time>2017-06-25T09:09:25Z</time>
      </trkpt>
      <trkpt lat="45.83622" lon="-0.64683">
        <ele>7</ele>
        <time>2017-06-25T09:09:26Z</time>
      </trkpt>
      <trkpt lat="45.83623" lon="-0.64682">
        <ele>7</ele>
        <time>2017-06-25T09:09:27Z</time>
      </trkpt>
      <trkpt lat="45.83623" lon="-0.6468">
        <ele>7</ele>
        <time>2017-06-25T09:09:28Z</time>
      </trkpt>
      <trkpt lat="45.83624" lon="-0.64679">
        <ele>7</ele>
        <time>2017-06-25T09:09:29Z</time>
      </trkpt>
      <trkpt lat="45.83625" lon="-0.64678">
        <ele>7</ele>
        <time>2017-06-25T09:09:30Z</time>
      </trkpt>
      <trkpt lat="45.83626" lon="-0.64677">
        <ele>7</ele>
        <time>2017-06-25T09:09:31Z</time>
      </trkpt>
      <trkpt lat="45.83627" lon="-0.64675">
        <ele>7</ele>
        <time>2017-06-25T09:09:32Z</time>
      </trkpt>
      <trkpt lat="45.83628" lon="-0.64673">
        <ele>7</ele>
        <time>2017-06-25T09:09:33Z</time>
      </trkpt>
      <trkpt lat="45.83629" lon="-0.64672">
        <ele>7</ele>
        <time>2017-06-25T09:09:34Z</time>
      </trkpt>
      <trkpt lat="45.8363" lon="-0.6467">
        <ele>7</ele>
        <time>2017-06-25T09:09:35Z</time>
      </trkpt>
      <trkpt lat="45.83631" lon="-0.64668">
        <ele>7</ele>
        <time>2017-06-25T09:09:36Z</time>
      </trkpt>
      <trkpt lat="45.83631" lon="-0.64667">
        <ele>7</ele>
        <time>2017-06-25T09:09:37Z</time>
      </trkpt>
      <trkpt lat="45.83632" lon="-0.64665">
        <ele>9</ele>
        <time>2017-06-25T09:09:39Z</time>
      </trkpt>
      <trkpt lat="45.83633" lon="-0.64663">
        <ele>9</ele>
        <time>2017-06-25T09:09:40Z</time>
      </trkpt>
      <trkpt lat="45.83633" lon="-0.64661">
        <ele>9</ele>
        <time>2017-06-25T09:09:41Z</time>
      </trkpt>
      <trkpt lat="45.83634" lon="-0.6466">
        <ele>9</ele>
        <time>2017-06-25T09:09:42Z</time>
      </trkpt>
      <trkpt lat="45.83635" lon="-0.64659">
        <ele>9</ele>
        <time>2017-06-25T09:09:43Z</time>
      </trkpt>
      <trkpt lat="45.83636" lon="-0.64657">
        <ele>9</ele>
        <time>2017-06-25T09:09:45Z</time>
      </trkpt>
      <trkpt lat="45.83636" lon="-0.64656">
        <ele>9</ele>
        <time>2017-06-25T09:09:46Z</time>
      </trkpt>
      <trkpt lat="45.83637" lon="-0.64655">
        <ele>9</ele>
        <time>2017-06-25T09:09:47Z</time>
      </trkpt>
      <trkpt lat="45.83638" lon="-0.64654">
        <ele>9</ele>
        <time>2017-06-25T09:09:48Z</time>
      </trkpt>
      <trkpt lat="45.83638" lon="-0.64653">
        <ele>9</ele>
        <time>2017-06-25T09:09:49Z</time>
      </trkpt>
      <trkpt lat="45.83639" lon="-0.64652">
        <ele>9</ele>
        <time>2017-06-25T09:09:50Z</time>
      </trkpt>
      <trkpt lat="45.8364" lon="-0.6465">
        <ele>9</ele>
        <time>2017-06-25T09:09:51Z</time>
      </trkpt>
      <trkpt lat="45.83641" lon="-0.64649">
        <ele>9</ele>
        <time>2017-06-25T09:09:52Z</time>
      </trkpt>
      <trkpt lat="45.83642" lon="-0.64647">
        <ele>9</ele>
        <time>2017-06-25T09:09:54Z</time>
      </trkpt>
      <trkpt lat="45.83643" lon="-0.64645">
        <ele>9</ele>
        <time>2017-06-25T09:09:55Z</time>
      </trkpt>
      <trkpt lat="45.83643" lon="-0.64644">
        <ele>9</ele>
        <time>2017-06-25T09:09:56Z</time>
      </trkpt>
      <trkpt lat="45.83644" lon="-0.64642">
        <ele>9</ele>
        <time>2017-06-25T09:09:57Z</time>
      </trkpt>
      <trkpt lat="45.83646" lon="-0.64639">
        <ele>9</ele>
        <time>2017-06-25T09:09:58Z</time>
      </trkpt>
      <trkpt lat="45.83646" lon="-0.64637">
        <ele>9</ele>
        <time>2017-06-25T09:09:59Z</time>
      </trkpt>
      <trkpt lat="45.83647" lon="-0.64635">
        <ele>9</ele>
        <time>2017-06-25T09:10:00Z</time>
      </trkpt>
      <trkpt lat="45.83648" lon="-0.64634">
        <ele>9</ele>
        <time>2017-06-25T09:10:02Z</time>
      </trkpt>
      <trkpt lat="45.83649" lon="-0.64632">
        <ele>9</ele>
        <time>2017-06-25T09:10:03Z</time>
      </trkpt>
      <trkpt lat="45.8365" lon="-0.6463">
        <ele>9</ele>
        <time>2017-06-25T09:10:04Z</time>
      </trkpt>
      <trkpt lat="45.83651" lon="-0.64628">
        <ele>9</ele>
        <time>2017-06-25T09:10:06Z</time>
      </trkpt>
      <trkpt lat="45.83652" lon="-0.64627">
        <ele>9</ele>
        <time>2017-06-25T09:10:07Z</time>
      </trkpt>
      <trkpt lat="45.83653" lon="-0.64625">
        <ele>9</ele>
        <time>2017-06-25T09:10:09Z</time>
      </trkpt>
      <trkpt lat="45.83653" lon="-0.64623">
        <ele>9</ele>
        <time>2017-06-25T09:10:10Z</time>
      </trkpt>
      <trkpt lat="45.83654" lon="-0.64622">
        <ele>9</ele>
        <time>2017-06-25T09:10:11Z</time>
      </trkpt>
      <trkpt lat="45.83654" lon="-0.6462">
        <ele>9</ele>
        <time>2017-06-25T09:10:12Z</time>
      </trkpt>
      <trkpt lat="45.83655" lon="-0.64617">
        <ele>9</ele>
        <time>2017-06-25T09:10:14Z</time>
      </trkpt>
      <trkpt lat="45.83656" lon="-0.64615">
        <ele>9</ele>
        <time>2017-06-25T09:10:15Z</time>
      </trkpt>
      <trkpt lat="45.83657" lon="-0.64614">
        <ele>9</ele>
        <time>2017-06-25T09:10:16Z</time>
      </trkpt>
      <trkpt lat="45.83658" lon="-0.64612">
        <ele>9</ele>
        <time>2017-06-25T09:10:17Z</time>
      </trkpt>
      <trkpt lat="45.83658" lon="-0.64611">
        <ele>9</ele>
        <time>2017-06-25T09:10:18Z</time>
      </trkpt>
      <trkpt lat="45.83659" lon="-0.64609">
        <ele>9</ele>
        <time>2017-06-25T09:10:19Z</time>
      </trkpt>
      <trkpt lat="45.8366" lon="-0.64608">
        <ele>9</ele>
        <time>2017-06-25T09:10:20Z</time>
      </trkpt>
      <trkpt lat="45.83661" lon="-0.64606">
        <ele>9</ele>
        <time>2017-06-25T09:10:21Z</time>
      </trkpt>
      <trkpt lat="45.83663" lon="-0.64605">
        <ele>9</ele>
        <time>2017-06-25T09:10:22Z</time>
      </trkpt>
      <trkpt lat="45.83665" lon="-0.64602">
        <ele>9</ele>
        <time>2017-06-25T09:10:23Z</time>
      </trkpt>
      <trkpt lat="45.83666" lon="-0.64601">
        <ele>9</ele>
        <time>2017-06-25T09:10:24Z</time>
      </trkpt>
      <trkpt lat="45.83667" lon="-0.64599">
        <ele>7</ele>
        <time>2017-06-25T09:10:25Z</time>
      </trkpt>
      <trkpt lat="45.83668" lon="-0.64598">
        <ele>7</ele>
        <time>2017-06-25T09:10:26Z</time>
      </trkpt>
      <trkpt lat="45.83669" lon="-0.64597">
        <ele>7</ele>
        <time>2017-06-25T09:10:27Z</time>
      </trkpt>
      <trkpt lat="45.8367" lon="-0.64595">
        <ele>7</ele>
        <time>2017-06-25T09:10:28Z</time>
      </trkpt>
      <trkpt lat="45.8367" lon="-0.64594">
        <ele>7</ele>
        <time>2017-06-25T09:10:29Z</time>
      </trkpt>
      <trkpt lat="45.83671" lon="-0.64592">
        <ele>7</ele>
        <time>2017-06-25T09:10:31Z</time>
      </trkpt>
      <trkpt lat="45.83672" lon="-0.6459">
        <ele>7</ele>
        <time>2017-06-25T09:10:33Z</time>
      </trkpt>
      <trkpt lat="45.83673" lon="-0.64588">
        <ele>7</ele>
        <time>2017-06-25T09:10:34Z</time>
      </trkpt>
      <trkpt lat="45.83675" lon="-0.64587">
        <ele>7</ele>
        <time>2017-06-25T09:10:35Z</time>
      </trkpt>
      <trkpt lat="45.83676" lon="-0.64585">
        <ele>7</ele>
        <time>2017-06-25T09:10:36Z</time>
      </trkpt>
      <trkpt lat="45.83678" lon="-0.64584">
        <ele>7</ele>
        <time>2017-06-25T09:10:37Z</time>
      </trkpt>
      <trkpt lat="45.83679" lon="-0.64582">
        <ele>8</ele>
        <time>2017-06-25T09:10:38Z</time>
      </trkpt>
      <trkpt lat="45.8368" lon="-0.6458">
        <ele>8</ele>
        <time>2017-06-25T09:10:39Z</time>
      </trkpt>
      <trkpt lat="45.8368" lon="-0.64578">
        <ele>8</ele>
        <time>2017-06-25T09:10:40Z</time>
      </trkpt>
      <trkpt lat="45.83682" lon="-0.64576">
        <ele>8</ele>
        <time>2017-06-25T09:10:41Z</time>
      </trkpt>
      <trkpt lat="45.83683" lon="-0.64575">
        <ele>8</ele>
        <time>2017-06-25T09:10:42Z</time>
      </trkpt>
      <trkpt lat="45.83685" lon="-0.64573">
        <ele>8</ele>
        <time>2017-06-25T09:10:43Z</time>
      </trkpt>
      <trkpt lat="45.83686" lon="-0.64571">
        <ele>8</ele>
        <time>2017-06-25T09:10:44Z</time>
      </trkpt>
      <trkpt lat="45.83687" lon="-0.6457">
        <ele>8</ele>
        <time>2017-06-25T09:10:45Z</time>
      </trkpt>
      <trkpt lat="45.83688" lon="-0.64568">
        <ele>8</ele>
        <time>2017-06-25T09:10:46Z</time>
      </trkpt>
      <trkpt lat="45.83688" lon="-0.64565">
        <ele>8</ele>
        <time>2017-06-25T09:10:47Z</time>
      </trkpt>
      <trkpt lat="45.83689" lon="-0.64563">
        <ele>8</ele>
        <time>2017-06-25T09:10:48Z</time>
      </trkpt>
      <trkpt lat="45.8369" lon="-0.6456">
        <ele>8</ele>
        <time>2017-06-25T09:10:49Z</time>
      </trkpt>
      <trkpt lat="45.83691" lon="-0.64559">
        <ele>8</ele>
        <time>2017-06-25T09:10:50Z</time>
      </trkpt>
      <trkpt lat="45.83692" lon="-0.64557">
        <ele>8</ele>
        <time>2017-06-25T09:10:51Z</time>
      </trkpt>
      <trkpt lat="45.83693" lon="-0.64555">
        <ele>8</ele>
        <time>2017-06-25T09:10:52Z</time>
      </trkpt>
      <trkpt lat="45.83695" lon="-0.64554">
        <ele>8</ele>
        <time>2017-06-25T09:10:53Z</time>
      </trkpt>
      <trkpt lat="45.83696" lon="-0.64552">
        <ele>8</ele>
        <time>2017-06-25T09:10:54Z</time>
      </trkpt>
      <trkpt lat="45.83698" lon="-0.64551">
        <ele>8</ele>
        <time>2017-06-25T09:10:55Z</time>
      </trkpt>
      <trkpt lat="45.837" lon="-0.6455">
        <ele>8</ele>
        <time>2017-06-25T09:10:56Z</time>
      </trkpt>
      <trkpt lat="45.83701" lon="-0.64549">
        <ele>8</ele>
        <time>2017-06-25T09:10:57Z</time>
      </trkpt>
      <trkpt lat="45.83702" lon="-0.64547">
        <ele>8</ele>
        <time>2017-06-25T09:10:59Z</time>
      </trkpt>
      <trkpt lat="45.83703" lon="-0.64546">
        <ele>8</ele>
        <time>2017-06-25T09:11:00Z</time>
      </trkpt>
      <trkpt lat="45.83703" lon="-0.64545">
        <ele>8</ele>
        <time>2017-06-25T09:11:01Z</time>
      </trkpt>
      <trkpt lat="45.83705" lon="-0.64544">
        <ele>8</ele>
        <time>2017-06-25T09:11:02Z</time>
      </trkpt>
      <trkpt lat="45.83706" lon="-0.64542">
        <ele>8</ele>
        <time>2017-06-25T09:11:03Z</time>
      </trkpt>
      <trkpt lat="45.83707" lon="-0.64541">
        <ele>8</ele>
        <time>2017-06-25T09:11:04Z</time>
      </trkpt>
      <trkpt lat="45.83709" lon="-0.6454">
        <ele>8</ele>
        <time>2017-06-25T09:11:05Z</time>
      </trkpt>
      <trkpt lat="45.83709" lon="-0.64539">
        <ele>8</ele>
        <time>2017-06-25T09:11:06Z</time>
      </trkpt>
      <trkpt lat="45.8371" lon="-0.64538">
        <ele>7</ele>
        <time>2017-06-25T09:11:07Z</time>
      </trkpt>
      <trkpt lat="45.83711" lon="-0.64537">
        <ele>7</ele>
        <time>2017-06-25T09:11:08Z</time>
      </trkpt>
      <trkpt lat="45.83713" lon="-0.64536">
        <ele>7</ele>
        <time>2017-06-25T09:11:09Z</time>
      </trkpt>
      <trkpt lat="45.83714" lon="-0.64535">
        <ele>7</ele>
        <time>2017-06-25T09:11:10Z</time>
      </trkpt>
      <trkpt lat="45.83715" lon="-0.64534">
        <ele>7</ele>
        <time>2017-06-25T09:11:11Z</time>
      </trkpt>
      <trkpt lat="45.83716" lon="-0.64533">
        <ele>7</ele>
        <time>2017-06-25T09:11:12Z</time>
      </trkpt>
      <trkpt lat="45.83717" lon="-0.64531">
        <ele>7</ele>
        <time>2017-06-25T09:11:14Z</time>
      </trkpt>
      <trkpt lat="45.83718" lon="-0.64529">
        <ele>7</ele>
        <time>2017-06-25T09:11:15Z</time>
      </trkpt>
      <trkpt lat="45.83719" lon="-0.64528">
        <ele>7</ele>
        <time>2017-06-25T09:11:16Z</time>
      </trkpt>
      <trkpt lat="45.83719" lon="-0.64527">
        <ele>7</ele>
        <time>2017-06-25T09:11:17Z</time>
      </trkpt>
      <trkpt lat="45.83719" lon="-0.64525">
        <ele>7</ele>
        <time>2017-06-25T09:11:19Z</time>
      </trkpt>
      <trkpt lat="45.8372" lon="-0.64524">
        <ele>7</ele>
        <time>2017-06-25T09:11:20Z</time>
      </trkpt>
      <trkpt lat="45.83721" lon="-0.64522">
        <ele>7</ele>
        <time>2017-06-25T09:11:22Z</time>
      </trkpt>
      <trkpt lat="45.83721" lon="-0.64521">
        <ele>7</ele>
        <time>2017-06-25T09:11:23Z</time>
      </trkpt>
      <trkpt lat="45.83722" lon="-0.6452">
        <ele>7</ele>
        <time>2017-06-25T09:11:24Z</time>
      </trkpt>
      <trkpt lat="45.83723" lon="-0.64519">
        <ele>7</ele>
        <time>2017-06-25T09:11:25Z</time>
      </trkpt>
      <trkpt lat="45.83724" lon="-0.64518">
        <ele>7</ele>
        <time>2017-06-25T09:11:26Z</time>
      </trkpt>
      <trkpt lat="45.83726" lon="-0.64516">
        <ele>7</ele>
        <time>2017-06-25T09:11:27Z</time>
      </trkpt>
      <trkpt lat="45.83726" lon="-0.64515">
        <ele>7</ele>
        <time>2017-06-25T09:11:28Z</time>
      </trkpt>
      <trkpt lat="45.83726" lon="-0.64513">
        <ele>7</ele>
        <time>2017-06-25T09:11:30Z</time>
      </trkpt>
      <trkpt lat="45.83725" lon="-0.6451">
        <ele>7</ele>
        <time>2017-06-25T09:11:32Z</time>
      </trkpt>
      <trkpt lat="45.83725" lon="-0.64507">
        <ele>7</ele>
        <time>2017-06-25T09:11:33Z</time>
      </trkpt>
      <trkpt lat="45.83724" lon="-0.64505">
        <ele>7</ele>
        <time>2017-06-25T09:11:34Z</time>
      </trkpt>
      <trkpt lat="45.83724" lon="-0.64504">
        <ele>7</ele>
        <time>2017-06-25T09:11:35Z</time>
      </trkpt>
      <trkpt lat="45.83722" lon="-0.64502">
        <ele>7</ele>
        <time>2017-06-25T09:11:37Z</time>
      </trkpt>
      <trkpt lat="45.83721" lon="-0.64502">
        <ele>7</ele>
        <time>2017-06-25T09:11:38Z</time>
      </trkpt>
      <trkpt lat="45.8372" lon="-0.64501">
        <ele>7</ele>
        <time>2017-06-25T09:11:39Z</time>
      </trkpt>
      <trkpt lat="45.83719" lon="-0.645">
        <ele>9</ele>
        <time>2017-06-25T09:11:40Z</time>
      </trkpt>
      <trkpt lat="45.83717" lon="-0.64498">
        <ele>9</ele>
        <time>2017-06-25T09:11:41Z</time>
      </trkpt>
      <trkpt lat="45.83715" lon="-0.64497">
        <ele>9</ele>
        <time>2017-06-25T09:11:42Z</time>
      </trkpt>
      <trkpt lat="45.83714" lon="-0.64496">
        <ele>9</ele>
        <time>2017-06-25T09:11:43Z</time>
      </trkpt>
      <trkpt lat="45.83713" lon="-0.64495">
        <ele>10</ele>
        <time>2017-06-25T09:11:44Z</time>
      </trkpt>
      <trkpt lat="45.83712" lon="-0.64493">
        <ele>10</ele>
        <time>2017-06-25T09:11:45Z</time>
      </trkpt>
      <trkpt lat="45.83711" lon="-0.64492">
        <ele>10</ele>
        <time>2017-06-25T09:11:46Z</time>
      </trkpt>
      <trkpt lat="45.83709" lon="-0.6449">
        <ele>10</ele>
        <time>2017-06-25T09:11:47Z</time>
      </trkpt>
      <trkpt lat="45.83708" lon="-0.64489">
        <ele>10</ele>
        <time>2017-06-25T09:11:48Z</time>
      </trkpt>
      <trkpt lat="45.83706" lon="-0.64488">
        <ele>10</ele>
        <time>2017-06-25T09:11:49Z</time>
      </trkpt>
      <trkpt lat="45.83705" lon="-0.64486">
        <ele>10</ele>
        <time>2017-06-25T09:11:50Z</time>
      </trkpt>
      <trkpt lat="45.83703" lon="-0.64484">
        <ele>10</ele>
        <time>2017-06-25T09:11:52Z</time>
      </trkpt>
      <trkpt lat="45.83703" lon="-0.64483">
        <ele>10</ele>
        <time>2017-06-25T09:11:53Z</time>
      </trkpt>
      <trkpt lat="45.83701" lon="-0.64483">
        <ele>10</ele>
        <time>2017-06-25T09:11:54Z</time>
      </trkpt>
      <trkpt lat="45.837" lon="-0.64482">
        <ele>10</ele>
        <time>2017-06-25T09:11:55Z</time>
      </trkpt>
      <trkpt lat="45.83699" lon="-0.64482">
        <ele>10</ele>
        <time>2017-06-25T09:11:57Z</time>
      </trkpt>
      <trkpt lat="45.83698" lon="-0.64483">
        <ele>10</ele>
        <time>2017-06-25T09:11:58Z</time>
      </trkpt>
      <trkpt lat="45.83697" lon="-0.64484">
        <ele>10</ele>
        <time>2017-06-25T09:11:59Z</time>
      </trkpt>
      <trkpt lat="45.83696" lon="-0.64485">
        <ele>10</ele>
        <time>2017-06-25T09:12:00Z</time>
      </trkpt>
      <trkpt lat="45.83695" lon="-0.64487">
        <ele>10</ele>
        <time>2017-06-25T09:12:01Z</time>
      </trkpt>
      <trkpt lat="45.83694" lon="-0.64488">
        <ele>10</ele>
        <time>2017-06-25T09:12:02Z</time>
      </trkpt>
      <trkpt lat="45.83693" lon="-0.6449">
        <ele>10</ele>
        <time>2017-06-25T09:12:03Z</time>
      </trkpt>
      <trkpt lat="45.83693" lon="-0.64491">
        <ele>10</ele>
        <time>2017-06-25T09:12:04Z</time>
      </trkpt>
      <trkpt lat="45.83692" lon="-0.64491">
        <ele>10</ele>
        <time>2017-06-25T09:12:05Z</time>
      </trkpt>
      <trkpt lat="45.8369" lon="-0.64492">
        <ele>10</ele>
        <time>2017-06-25T09:12:06Z</time>
      </trkpt>
      <trkpt lat="45.83689" lon="-0.64492">
        <ele>11</ele>
        <time>2017-06-25T09:12:07Z</time>
      </trkpt>
      <trkpt lat="45.83688" lon="-0.64493">
        <ele>11</ele>
        <time>2017-06-25T09:12:08Z</time>
      </trkpt>
      <trkpt lat="45.83687" lon="-0.64493">
        <ele>11</ele>
        <time>2017-06-25T09:12:10Z</time>
      </trkpt>
      <trkpt lat="45.83686" lon="-0.6449">
        <ele>11</ele>
        <time>2017-06-25T09:12:13Z</time>
      </trkpt>
      <trkpt lat="45.83684" lon="-0.6449">
        <ele>11</ele>
        <time>2017-06-25T09:12:15Z</time>
      </trkpt>
      <trkpt lat="45.83683" lon="-0.6449">
        <ele>11</ele>
        <time>2017-06-25T09:12:16Z</time>
      </trkpt>
      <trkpt lat="45.83681" lon="-0.6449">
        <ele>11</ele>
        <time>2017-06-25T09:12:17Z</time>
      </trkpt>
      <trkpt lat="45.8368" lon="-0.6449">
        <ele>11</ele>
        <time>2017-06-25T09:12:18Z</time>
      </trkpt>
      <trkpt lat="45.83679" lon="-0.64488">
        <ele>11</ele>
        <time>2017-06-25T09:12:19Z</time>
      </trkpt>
      <trkpt lat="45.83678" lon="-0.64487">
        <ele>11</ele>
        <time>2017-06-25T09:12:20Z</time>
      </trkpt>
      <trkpt lat="45.83677" lon="-0.64486">
        <ele>11</ele>
        <time>2017-06-25T09:12:22Z</time>
      </trkpt>
      <trkpt lat="45.83676" lon="-0.64485">
        <ele>11</ele>
        <time>2017-06-25T09:12:23Z</time>
      </trkpt>
      <trkpt lat="45.83674" lon="-0.64484">
        <ele>11</ele>
        <time>2017-06-25T09:12:24Z</time>
      </trkpt>
      <trkpt lat="45.83673" lon="-0.64482">
        <ele>11</ele>
        <time>2017-06-25T09:12:25Z</time>
      </trkpt>
      <trkpt lat="45.83672" lon="-0.64481">
        <ele>11</ele>
        <time>2017-06-25T09:12:26Z</time>
      </trkpt>
      <trkpt lat="45.83671" lon="-0.6448">
        <ele>11</ele>
        <time>2017-06-25T09:12:27Z</time>
      </trkpt>
      <trkpt lat="45.83669" lon="-0.64479">
        <ele>11</ele>
        <time>2017-06-25T09:12:28Z</time>
      </trkpt>
      <trkpt lat="45.83668" lon="-0.64477">
        <ele>11</ele>
        <time>2017-06-25T09:12:29Z</time>
      </trkpt>
      <trkpt lat="45.83667" lon="-0.64476">
        <ele>15</ele>
        <time>2017-06-25T09:12:30Z</time>
      </trkpt>
      <trkpt lat="45.83666" lon="-0.64475">
        <ele>15</ele>
        <time>2017-06-25T09:12:31Z</time>
      </trkpt>
      <trkpt lat="45.83665" lon="-0.64474">
        <ele>15</ele>
        <time>2017-06-25T09:12:32Z</time>
      </trkpt>
      <trkpt lat="45.83663" lon="-0.64474">
        <ele>15</ele>
        <time>2017-06-25T09:12:34Z</time>
      </trkpt>
      <trkpt lat="45.83662" lon="-0.64474">
        <ele>15</ele>
        <time>2017-06-25T09:12:35Z</time>
      </trkpt>
      <trkpt lat="45.8366" lon="-0.64473">
        <ele>15</ele>
        <time>2017-06-25T09:12:37Z</time>
      </trkpt>
      <trkpt lat="45.83659" lon="-0.64473">
        <ele>15</ele>
        <time>2017-06-25T09:12:38Z</time>
      </trkpt>
      <trkpt lat="45.83658" lon="-0.64471">
        <ele>15</ele>
        <time>2017-06-25T09:12:39Z</time>
      </trkpt>
      <trkpt lat="45.83656" lon="-0.64471">
        <ele>16</ele>
        <time>2017-06-25T09:12:40Z</time>
      </trkpt>
      <trkpt lat="45.83654" lon="-0.64471">
        <ele>16</ele>
        <time>2017-06-25T09:12:42Z</time>
      </trkpt>
      <trkpt lat="45.83654" lon="-0.64469">
        <ele>16</ele>
        <time>2017-06-25T09:12:45Z</time>
      </trkpt>
      <trkpt lat="45.83654" lon="-0.64466">
        <ele>16</ele>
        <time>2017-06-25T09:12:46Z</time>
      </trkpt>
      <trkpt lat="45.83654" lon="-0.64464">
        <ele>16</ele>
        <time>2017-06-25T09:12:47Z</time>
      </trkpt>
      <trkpt lat="45.83653" lon="-0.64461">
        <ele>16</ele>
        <time>2017-06-25T09:12:48Z</time>
      </trkpt>
      <trkpt lat="45.83652" lon="-0.64458">
        <ele>16</ele>
        <time>2017-06-25T09:12:49Z</time>
      </trkpt>
      <trkpt lat="45.83651" lon="-0.64455">
        <ele>16</ele>
        <time>2017-06-25T09:12:50Z</time>
      </trkpt>
      <trkpt lat="45.83652" lon="-0.64453">
        <ele>17</ele>
        <time>2017-06-25T09:12:52Z</time>
      </trkpt>
      <trkpt lat="45.83653" lon="-0.64453">
        <ele>17</ele>
        <time>2017-06-25T09:12:53Z</time>
      </trkpt>
      <trkpt lat="45.83654" lon="-0.64452">
        <ele>16</ele>
        <time>2017-06-25T09:12:54Z</time>
      </trkpt>
      <trkpt lat="45.83655" lon="-0.64451">
        <ele>17</ele>
        <time>2017-06-25T09:12:56Z</time>
      </trkpt>
      <trkpt lat="45.83656" lon="-0.6445">
        <ele>16</ele>
        <time>2017-06-25T09:12:57Z</time>
      </trkpt>
      <trkpt lat="45.83657" lon="-0.64448">
        <ele>17</ele>
        <time>2017-06-25T09:12:58Z</time>
      </trkpt>
      <trkpt lat="45.83658" lon="-0.64447">
        <ele>17</ele>
        <time>2017-06-25T09:12:59Z</time>
      </trkpt>
      <trkpt lat="45.83659" lon="-0.64446">
        <ele>16</ele>
        <time>2017-06-25T09:13:00Z</time>
      </trkpt>
      <trkpt lat="45.8366" lon="-0.64444">
        <ele>17</ele>
        <time>2017-06-25T09:13:02Z</time>
      </trkpt>
      <trkpt lat="45.8366" lon="-0.64442">
        <ele>17</ele>
        <time>2017-06-25T09:13:05Z</time>
      </trkpt>
      <trkpt lat="45.83659" lon="-0.64442">
        <ele>17</ele>
        <time>2017-06-25T09:13:06Z</time>
      </trkpt>
      <trkpt lat="45.83658" lon="-0.64441">
        <ele>17</ele>
        <time>2017-06-25T09:13:07Z</time>
      </trkpt>
      <trkpt lat="45.83657" lon="-0.6444">
        <ele>17</ele>
        <time>2017-06-25T09:13:08Z</time>
      </trkpt>
      <trkpt lat="45.83656" lon="-0.64438">
        <ele>17</ele>
        <time>2017-06-25T09:13:09Z</time>
      </trkpt>
      <trkpt lat="45.83654" lon="-0.64436">
        <ele>17</ele>
        <time>2017-06-25T09:13:11Z</time>
      </trkpt>
      <trkpt lat="45.83653" lon="-0.64436">
        <ele>17</ele>
        <time>2017-06-25T09:13:12Z</time>
      </trkpt>
      <trkpt lat="45.83652" lon="-0.64435">
        <ele>17</ele>
        <time>2017-06-25T09:13:13Z</time>
      </trkpt>
      <trkpt lat="45.83651" lon="-0.64434">
        <ele>17</ele>
        <time>2017-06-25T09:13:14Z</time>
      </trkpt>
      <trkpt lat="45.8365" lon="-0.64432">
        <ele>17</ele>
        <time>2017-06-25T09:13:15Z</time>
      </trkpt>
      <trkpt lat="45.83648" lon="-0.6443">
        <ele>17</ele>
        <time>2017-06-25T09:13:16Z</time>
      </trkpt>
      <trkpt lat="45.83647" lon="-0.64429">
        <ele>17</ele>
        <time>2017-06-25T09:13:17Z</time>
      </trkpt>
      <trkpt lat="45.83646" lon="-0.64428">
        <ele>17</ele>
        <time>2017-06-25T09:13:18Z</time>
      </trkpt>
      <trkpt lat="45.83645" lon="-0.64426">
        <ele>17</ele>
        <time>2017-06-25T09:13:20Z</time>
      </trkpt>
      <trkpt lat="45.83644" lon="-0.64424">
        <ele>17</ele>
        <time>2017-06-25T09:13:21Z</time>
      </trkpt>
      <trkpt lat="45.83643" lon="-0.64423">
        <ele>17</ele>
        <time>2017-06-25T09:13:22Z</time>
      </trkpt>
      <trkpt lat="45.83644" lon="-0.64422">
        <ele>17</ele>
        <time>2017-06-25T09:13:23Z</time>
      </trkpt>
      <trkpt lat="45.83644" lon="-0.64419">
        <ele>17</ele>
        <time>2017-06-25T09:13:25Z</time>
      </trkpt>
      <trkpt lat="45.83643" lon="-0.64418">
        <ele>17</ele>
        <time>2017-06-25T09:13:26Z</time>
      </trkpt>
      <trkpt lat="45.83643" lon="-0.64417">
        <ele>19</ele>
        <time>2017-06-25T09:13:27Z</time>
      </trkpt>
      <trkpt lat="45.83642" lon="-0.64414">
        <ele>19</ele>
        <time>2017-06-25T09:13:29Z</time>
      </trkpt>
      <trkpt lat="45.83642" lon="-0.64412">
        <ele>19</ele>
        <time>2017-06-25T09:13:30Z</time>
      </trkpt>
      <trkpt lat="45.83642" lon="-0.64411">
        <ele>19</ele>
        <time>2017-06-25T09:13:32Z</time>
      </trkpt>
      <trkpt lat="45.83642" lon="-0.6441">
        <ele>19</ele>
        <time>2017-06-25T09:13:35Z</time>
      </trkpt>
      <trkpt lat="45.83643" lon="-0.64408">
        <ele>19</ele>
        <time>2017-06-25T09:13:38Z</time>
      </trkpt>
      <trkpt lat="45.83645" lon="-0.64407">
        <ele>19</ele>
        <time>2017-06-25T09:13:39Z</time>
      </trkpt>
      <trkpt lat="45.83646" lon="-0.64405">
        <ele>19</ele>
        <time>2017-06-25T09:13:42Z</time>
      </trkpt>
      <trkpt lat="45.83647" lon="-0.64405">
        <ele>19</ele>
        <time>2017-06-25T09:13:43Z</time>
      </trkpt>
      <trkpt lat="45.83649" lon="-0.64403">
        <ele>19</ele>
        <time>2017-06-25T09:13:46Z</time>
      </trkpt>
      <trkpt lat="45.8365" lon="-0.64402">
        <ele>19</ele>
        <time>2017-06-25T09:13:48Z</time>
      </trkpt>
      <trkpt lat="45.83651" lon="-0.64401">
        <ele>19</ele>
        <time>2017-06-25T09:13:49Z</time>
      </trkpt>
      <trkpt lat="45.83651" lon="-0.64399">
        <ele>19</ele>
        <time>2017-06-25T09:13:50Z</time>
      </trkpt>
      <trkpt lat="45.83652" lon="-0.64398">
        <ele>19</ele>
        <time>2017-06-25T09:13:51Z</time>
      </trkpt>
      <trkpt lat="45.83653" lon="-0.64396">
        <ele>19</ele>
        <time>2017-06-25T09:13:52Z</time>
      </trkpt>
      <trkpt lat="45.83654" lon="-0.64395">
        <ele>19</ele>
        <time>2017-06-25T09:13:53Z</time>
      </trkpt>
      <trkpt lat="45.83656" lon="-0.64392">
        <ele>20</ele>
        <time>2017-06-25T09:13:55Z</time>
      </trkpt>
      <trkpt lat="45.83657" lon="-0.64391">
        <ele>20</ele>
        <time>2017-06-25T09:13:56Z</time>
      </trkpt>
      <trkpt lat="45.83659" lon="-0.6439">
        <ele>20</ele>
        <time>2017-06-25T09:13:58Z</time>
      </trkpt>
      <trkpt lat="45.8366" lon="-0.6439">
        <ele>20</ele>
        <time>2017-06-25T09:13:59Z</time>
      </trkpt>
      <trkpt lat="45.83661" lon="-0.64389">
        <ele>20</ele>
        <time>2017-06-25T09:14:00Z</time>
      </trkpt>
      <trkpt lat="45.83662" lon="-0.64386">
        <ele>20</ele>
        <time>2017-06-25T09:14:01Z</time>
      </trkpt>
      <trkpt lat="45.83663" lon="-0.64385">
        <ele>20</ele>
        <time>2017-06-25T09:14:02Z</time>
      </trkpt>
      <trkpt lat="45.83664" lon="-0.64383">
        <ele>20</ele>
        <time>2017-06-25T09:14:04Z</time>
      </trkpt>
      <trkpt lat="45.83667" lon="-0.6438">
        <ele>20</ele>
        <time>2017-06-25T09:14:06Z</time>
      </trkpt>
      <trkpt lat="45.83667" lon="-0.64379">
        <ele>16</ele>
        <time>2017-06-25T09:14:07Z</time>
      </trkpt>
      <trkpt lat="45.83668" lon="-0.64377">
        <ele>17</ele>
        <time>2017-06-25T09:14:08Z</time>
      </trkpt>
      <trkpt lat="45.83669" lon="-0.64376">
        <ele>17</ele>
        <time>2017-06-25T09:14:09Z</time>
      </trkpt>
      <trkpt lat="45.83671" lon="-0.64372">
        <ele>17</ele>
        <time>2017-06-25T09:14:11Z</time>
      </trkpt>
      <trkpt lat="45.83672" lon="-0.64371">
        <ele>17</ele>
        <time>2017-06-25T09:14:13Z</time>
      </trkpt>
      <trkpt lat="45.83674" lon="-0.64371">
        <ele>17</ele>
        <time>2017-06-25T09:14:15Z</time>
      </trkpt>
      <trkpt lat="45.83676" lon="-0.64367">
        <ele>17</ele>
        <time>2017-06-25T09:14:18Z</time>
      </trkpt>
      <trkpt lat="45.83677" lon="-0.64366">
        <ele>17</ele>
        <time>2017-06-25T09:14:19Z</time>
      </trkpt>
      <trkpt lat="45.83677" lon="-0.64365">
        <ele>17</ele>
        <time>2017-06-25T09:14:20Z</time>
      </trkpt>
      <trkpt lat="45.83678" lon="-0.64364">
        <ele>17</ele>
        <time>2017-06-25T09:14:22Z</time>
      </trkpt>
      <trkpt lat="45.8368" lon="-0.64362">
        <ele>17</ele>
        <time>2017-06-25T09:14:24Z</time>
      </trkpt>
      <trkpt lat="45.83682" lon="-0.6436">
        <ele>17</ele>
        <time>2017-06-25T09:14:26Z</time>
      </trkpt>
      <trkpt lat="45.83683" lon="-0.64357">
        <ele>17</ele>
        <time>2017-06-25T09:14:27Z</time>
      </trkpt>
      <trkpt lat="45.83684" lon="-0.64356">
        <ele>17</ele>
        <time>2017-06-25T09:14:28Z</time>
      </trkpt>
      <trkpt lat="45.83686" lon="-0.64352">
        <ele>18</ele>
        <time>2017-06-25T09:14:30Z</time>
      </trkpt>
      <trkpt lat="45.83687" lon="-0.64351">
        <ele>18</ele>
        <time>2017-06-25T09:14:31Z</time>
      </trkpt>
      <trkpt lat="45.8369" lon="-0.64348">
        <ele>17</ele>
        <time>2017-06-25T09:14:34Z</time>
      </trkpt>
      <trkpt lat="45.83691" lon="-0.64346">
        <ele>17</ele>
        <time>2017-06-25T09:14:36Z</time>
      </trkpt>
      <trkpt lat="45.83693" lon="-0.64345">
        <ele>17</ele>
        <time>2017-06-25T09:14:38Z</time>
      </trkpt>
      <trkpt lat="45.83694" lon="-0.64345">
        <ele>17</ele>
        <time>2017-06-25T09:14:39Z</time>
      </trkpt>
      <trkpt lat="45.83696" lon="-0.64342">
        <ele>17</ele>
        <time>2017-06-25T09:14:41Z</time>
      </trkpt>
      <trkpt lat="45.83697" lon="-0.64341">
        <ele>17</ele>
        <time>2017-06-25T09:14:42Z</time>
      </trkpt>
      <trkpt lat="45.83698" lon="-0.6434">
        <ele>17</ele>
        <time>2017-06-25T09:14:43Z</time>
      </trkpt>
      <trkpt lat="45.83699" lon="-0.64339">
        <ele>17</ele>
        <time>2017-06-25T09:14:46Z</time>
      </trkpt>
      <trkpt lat="45.83701" lon="-0.64338">
        <ele>17</ele>
        <time>2017-06-25T09:14:48Z</time>
      </trkpt>
      <trkpt lat="45.83702" lon="-0.64336">
        <ele>17</ele>
        <time>2017-06-25T09:14:49Z</time>
      </trkpt>
      <trkpt lat="45.83704" lon="-0.64333">
        <ele>17</ele>
        <time>2017-06-25T09:14:50Z</time>
      </trkpt>
      <trkpt lat="45.83704" lon="-0.64331">
        <ele>20</ele>
        <time>2017-06-25T09:14:51Z</time>
      </trkpt>
      <trkpt lat="45.83704" lon="-0.6433">
        <ele>20</ele>
        <time>2017-06-25T09:14:52Z</time>
      </trkpt>
      <trkpt lat="45.83704" lon="-0.64329">
        <ele>20</ele>
        <time>2017-06-25T09:14:54Z</time>
      </trkpt>
      <trkpt lat="45.83704" lon="-0.64326">
        <ele>20</ele>
        <time>2017-06-25T09:14:57Z</time>
      </trkpt>
      <trkpt lat="45.83704" lon="-0.64325">
        <ele>20</ele>
        <time>2017-06-25T09:14:59Z</time>
      </trkpt>
      <trkpt lat="45.83702" lon="-0.64323">
        <ele>20</ele>
        <time>2017-06-25T09:15:00Z</time>
      </trkpt>
      <trkpt lat="45.83702" lon="-0.64322">
        <ele>20</ele>
        <time>2017-06-25T09:15:01Z</time>
      </trkpt>
      <trkpt lat="45.83701" lon="-0.64321">
        <ele>20</ele>
        <time>2017-06-25T09:15:02Z</time>
      </trkpt>
      <trkpt lat="45.83699" lon="-0.64319">
        <ele>20</ele>
        <time>2017-06-25T09:15:03Z</time>
      </trkpt>
      <trkpt lat="45.83699" lon="-0.64317">
        <ele>20</ele>
        <time>2017-06-25T09:15:05Z</time>
      </trkpt>
      <trkpt lat="45.83697" lon="-0.64316">
        <ele>20</ele>
        <time>2017-06-25T09:15:07Z</time>
      </trkpt>
      <trkpt lat="45.83696" lon="-0.64315">
        <ele>20</ele>
        <time>2017-06-25T09:15:08Z</time>
      </trkpt>
      <trkpt lat="45.83696" lon="-0.64312">
        <ele>20</ele>
        <time>2017-06-25T09:15:11Z</time>
      </trkpt>
      <trkpt lat="45.83696" lon="-0.64311">
        <ele>21</ele>
        <time>2017-06-25T09:15:12Z</time>
      </trkpt>
      <trkpt lat="45.83695" lon="-0.64309">
        <ele>21</ele>
        <time>2017-06-25T09:15:14Z</time>
      </trkpt>
      <trkpt lat="45.83694" lon="-0.64306">
        <ele>21</ele>
        <time>2017-06-25T09:15:17Z</time>
      </trkpt>
      <trkpt lat="45.83692" lon="-0.64305">
        <ele>21</ele>
        <time>2017-06-25T09:15:19Z</time>
      </trkpt>
      <trkpt lat="45.8369" lon="-0.64303">
        <ele>21</ele>
        <time>2017-06-25T09:15:21Z</time>
      </trkpt>
      <trkpt lat="45.83689" lon="-0.64301">
        <ele>21</ele>
        <time>2017-06-25T09:15:23Z</time>
      </trkpt>
      <trkpt lat="45.83689" lon="-0.643">
        <ele>21</ele>
        <time>2017-06-25T09:15:24Z</time>
      </trkpt>
      <trkpt lat="45.83688" lon="-0.64298">
        <ele>21</ele>
        <time>2017-06-25T09:15:25Z</time>
      </trkpt>
      <trkpt lat="45.83687" lon="-0.64297">
        <ele>21</ele>
        <time>2017-06-25T09:15:26Z</time>
      </trkpt>
      <trkpt lat="45.83686" lon="-0.64295">
        <ele>21</ele>
        <time>2017-06-25T09:15:27Z</time>
      </trkpt>
      <trkpt lat="45.83685" lon="-0.64294">
        <ele>21</ele>
        <time>2017-06-25T09:15:28Z</time>
      </trkpt>
      <trkpt lat="45.83684" lon="-0.64293">
        <ele>21</ele>
        <time>2017-06-25T09:15:29Z</time>
      </trkpt>
      <trkpt lat="45.83683" lon="-0.64291">
        <ele>21</ele>
        <time>2017-06-25T09:15:30Z</time>
      </trkpt>
      <trkpt lat="45.83683" lon="-0.64289">
        <ele>21</ele>
        <time>2017-06-25T09:15:31Z</time>
      </trkpt>
      <trkpt lat="45.83683" lon="-0.64288">
        <ele>21</ele>
        <time>2017-06-25T09:15:32Z</time>
      </trkpt>
      <trkpt lat="45.83682" lon="-0.64287">
        <ele>21</ele>
        <time>2017-06-25T09:15:33Z</time>
      </trkpt>
      <trkpt lat="45.83682" lon="-0.64286">
        <ele>21</ele>
        <time>2017-06-25T09:15:35Z</time>
      </trkpt>
      <trkpt lat="45.83681" lon="-0.64284">
        <ele>21</ele>
        <time>2017-06-25T09:15:37Z</time>
      </trkpt>
      <trkpt lat="45.83681" lon="-0.64281">
        <ele>22</ele>
        <time>2017-06-25T09:15:38Z</time>
      </trkpt>
      <trkpt lat="45.83681" lon="-0.64279">
        <ele>22</ele>
        <time>2017-06-25T09:15:39Z</time>
      </trkpt>
      <trkpt lat="45.83681" lon="-0.64277">
        <ele>22</ele>
        <time>2017-06-25T09:15:40Z</time>
      </trkpt>
      <trkpt lat="45.8368" lon="-0.64275">
        <ele>22</ele>
        <time>2017-06-25T09:15:41Z</time>
      </trkpt>
      <trkpt lat="45.83681" lon="-0.64272">
        <ele>22</ele>
        <time>2017-06-25T09:15:42Z</time>
      </trkpt>
      <trkpt lat="45.83681" lon="-0.64269">
        <ele>22</ele>
        <time>2017-06-25T09:15:43Z</time>
      </trkpt>
      <trkpt lat="45.8368" lon="-0.64268">
        <ele>22</ele>
        <time>2017-06-25T09:15:44Z</time>
      </trkpt>
      <trkpt lat="45.8368" lon="-0.64266">
        <ele>22</ele>
        <time>2017-06-25T09:15:45Z</time>
      </trkpt>
      <trkpt lat="45.8368" lon="-0.64264">
        <ele>22</ele>
        <time>2017-06-25T09:15:46Z</time>
      </trkpt>
      <trkpt lat="45.83679" lon="-0.64262">
        <ele>22</ele>
        <time>2017-06-25T09:15:48Z</time>
      </trkpt>
      <trkpt lat="45.83679" lon="-0.6426">
        <ele>22</ele>
        <time>2017-06-25T09:15:49Z</time>
      </trkpt>
      <trkpt lat="45.83678" lon="-0.64259">
        <ele>23</ele>
        <time>2017-06-25T09:15:52Z</time>
      </trkpt>
      <trkpt lat="45.83677" lon="-0.64258">
        <ele>23</ele>
        <time>2017-06-25T09:15:56Z</time>
      </trkpt>
      <trkpt lat="45.83676" lon="-0.64259">
        <ele>23</ele>
        <time>2017-06-25T09:15:57Z</time>
      </trkpt>
      <trkpt lat="45.83674" lon="-0.64258">
        <ele>23</ele>
        <time>2017-06-25T09:15:58Z</time>
      </trkpt>
      <trkpt lat="45.83671" lon="-0.64259">
        <ele>23</ele>
        <time>2017-06-25T09:15:59Z</time>
      </trkpt>
      <trkpt lat="45.83669" lon="-0.6426">
        <ele>23</ele>
        <time>2017-06-25T09:16:00Z</time>
      </trkpt>
      <trkpt lat="45.83667" lon="-0.64261">
        <ele>23</ele>
        <time>2017-06-25T09:16:01Z</time>
      </trkpt>
      <trkpt lat="45.83665" lon="-0.64262">
        <ele>24</ele>
        <time>2017-06-25T09:16:02Z</time>
      </trkpt>
      <trkpt lat="45.83664" lon="-0.64262">
        <ele>24</ele>
        <time>2017-06-25T09:16:03Z</time>
      </trkpt>
      <trkpt lat="45.83663" lon="-0.64263">
        <ele>24</ele>
        <time>2017-06-25T09:16:04Z</time>
      </trkpt>
      <trkpt lat="45.83662" lon="-0.64263">
        <ele>24</ele>
        <time>2017-06-25T09:16:05Z</time>
      </trkpt>
      <trkpt lat="45.83661" lon="-0.64263">
        <ele>23</ele>
        <time>2017-06-25T09:16:06Z</time>
      </trkpt>
      <trkpt lat="45.8366" lon="-0.64264">
        <ele>23</ele>
        <time>2017-06-25T09:16:07Z</time>
      </trkpt>
      <trkpt lat="45.83658" lon="-0.64265">
        <ele>23</ele>
        <time>2017-06-25T09:16:08Z</time>
      </trkpt>
      <trkpt lat="45.83658" lon="-0.64266">
        <ele>23</ele>
        <time>2017-06-25T09:16:09Z</time>
      </trkpt>
      <trkpt lat="45.83657" lon="-0.64268">
        <ele>23</ele>
        <time>2017-06-25T09:16:10Z</time>
      </trkpt>
      <trkpt lat="45.83655" lon="-0.64269">
        <ele>23</ele>
        <time>2017-06-25T09:16:11Z</time>
      </trkpt>
      <trkpt lat="45.83653" lon="-0.6427">
        <ele>23</ele>
        <time>2017-06-25T09:16:12Z</time>
      </trkpt>
      <trkpt lat="45.83652" lon="-0.64271">
        <ele>23</ele>
        <time>2017-06-25T09:16:13Z</time>
      </trkpt>
      <trkpt lat="45.83651" lon="-0.64272">
        <ele>23</ele>
        <time>2017-06-25T09:16:14Z</time>
      </trkpt>
      <trkpt lat="45.8365" lon="-0.64273">
        <ele>23</ele>
        <time>2017-06-25T09:16:15Z</time>
      </trkpt>
      <trkpt lat="45.83649" lon="-0.64274">
        <ele>23</ele>
        <time>2017-06-25T09:16:16Z</time>
      </trkpt>
      <trkpt lat="45.83648" lon="-0.64274">
        <ele>23</ele>
        <time>2017-06-25T09:16:17Z</time>
      </trkpt>
      <trkpt lat="45.83646" lon="-0.64274">
        <ele>23</ele>
        <time>2017-06-25T09:16:18Z</time>
      </trkpt>
      <trkpt lat="45.83645" lon="-0.64275">
        <ele>23</ele>
        <time>2017-06-25T09:16:19Z</time>
      </trkpt>
      <trkpt lat="45.83643" lon="-0.64275">
        <ele>23</ele>
        <time>2017-06-25T09:16:20Z</time>
      </trkpt>
      <trkpt lat="45.83642" lon="-0.64276">
        <ele>23</ele>
        <time>2017-06-25T09:16:21Z</time>
      </trkpt>
      <trkpt lat="45.83641" lon="-0.64277">
        <ele>23</ele>
        <time>2017-06-25T09:16:22Z</time>
      </trkpt>
      <trkpt lat="45.8364" lon="-0.64278">
        <ele>23</ele>
        <time>2017-06-25T09:16:23Z</time>
      </trkpt>
      <trkpt lat="45.8364" lon="-0.64279">
        <ele>23</ele>
        <time>2017-06-25T09:16:24Z</time>
      </trkpt>
      <trkpt lat="45.83638" lon="-0.6428">
        <ele>23</ele>
        <time>2017-06-25T09:16:25Z</time>
      </trkpt>
      <trkpt lat="45.83637" lon="-0.64282">
        <ele>23</ele>
        <time>2017-06-25T09:16:26Z</time>
      </trkpt>
      <trkpt lat="45.83637" lon="-0.64284">
        <ele>23</ele>
        <time>2017-06-25T09:16:27Z</time>
      </trkpt>
      <trkpt lat="45.83635" lon="-0.64286">
        <ele>23</ele>
        <time>2017-06-25T09:16:28Z</time>
      </trkpt>
      <trkpt lat="45.83634" lon="-0.64286">
        <ele>23</ele>
        <time>2017-06-25T09:16:29Z</time>
      </trkpt>
      <trkpt lat="45.83632" lon="-0.64287">
        <ele>23</ele>
        <time>2017-06-25T09:16:30Z</time>
      </trkpt>
      <trkpt lat="45.83631" lon="-0.64287">
        <ele>23</ele>
        <time>2017-06-25T09:16:31Z</time>
      </trkpt>
      <trkpt lat="45.8363" lon="-0.64288">
        <ele>23</ele>
        <time>2017-06-25T09:16:32Z</time>
      </trkpt>
      <trkpt lat="45.83629" lon="-0.64289">
        <ele>23</ele>
        <time>2017-06-25T09:16:33Z</time>
      </trkpt>
      <trkpt lat="45.83628" lon="-0.64289">
        <ele>23</ele>
        <time>2017-06-25T09:16:34Z</time>
      </trkpt>
      <trkpt lat="45.83627" lon="-0.6429">
        <ele>23</ele>
        <time>2017-06-25T09:16:35Z</time>
      </trkpt>
      <trkpt lat="45.83627" lon="-0.6429">
        <ele>23</ele>
        <time>2017-06-25T09:16:36Z</time>
      </trkpt>
      <trkpt lat="45.83625" lon="-0.64291">
        <ele>23</ele>
        <time>2017-06-25T09:16:38Z</time>
      </trkpt>
      <trkpt lat="45.83623" lon="-0.64293">
        <ele>23</ele>
        <time>2017-06-25T09:16:40Z</time>
      </trkpt>
      <trkpt lat="45.83622" lon="-0.64294">
        <ele>23</ele>
        <time>2017-06-25T09:16:41Z</time>
      </trkpt>
      <trkpt lat="45.8362" lon="-0.64294">
        <ele>23</ele>
        <time>2017-06-25T09:16:43Z</time>
      </trkpt>
      <trkpt lat="45.83619" lon="-0.64294">
        <ele>23</ele>
        <time>2017-06-25T09:16:44Z</time>
      </trkpt>
      <trkpt lat="45.83617" lon="-0.64294">
        <ele>23</ele>
        <time>2017-06-25T09:16:45Z</time>
      </trkpt>
      <trkpt lat="45.83616" lon="-0.64294">
        <ele>23</ele>
        <time>2017-06-25T09:16:47Z</time>
      </trkpt>
      <trkpt lat="45.83615" lon="-0.64295">
        <ele>23</ele>
        <time>2017-06-25T09:16:48Z</time>
      </trkpt>
      <trkpt lat="45.83614" lon="-0.64298">
        <ele>23</ele>
        <time>2017-06-25T09:16:49Z</time>
      </trkpt>
      <trkpt lat="45.83614" lon="-0.64299">
        <ele>23</ele>
        <time>2017-06-25T09:16:50Z</time>
      </trkpt>
      <trkpt lat="45.83613" lon="-0.64301">
        <ele>23</ele>
        <time>2017-06-25T09:16:52Z</time>
      </trkpt>
      <trkpt lat="45.83612" lon="-0.64304">
        <ele>23</ele>
        <time>2017-06-25T09:16:54Z</time>
      </trkpt>
      <trkpt lat="45.83613" lon="-0.64305">
        <ele>23</ele>
        <time>2017-06-25T09:16:56Z</time>
      </trkpt>
      <trkpt lat="45.83612" lon="-0.64307">
        <ele>23</ele>
        <time>2017-06-25T09:17:00Z</time>
      </trkpt>
      <trkpt lat="45.83612" lon="-0.64308">
        <ele>23</ele>
        <time>2017-06-25T09:17:01Z</time>
      </trkpt>
      <trkpt lat="45.83612" lon="-0.64309">
        <ele>23</ele>
        <time>2017-06-25T09:17:02Z</time>
      </trkpt>
      <trkpt lat="45.83611" lon="-0.6431">
        <ele>23</ele>
        <time>2017-06-25T09:17:03Z</time>
      </trkpt>
      <trkpt lat="45.8361" lon="-0.64312">
        <ele>23</ele>
        <time>2017-06-25T09:17:04Z</time>
      </trkpt>
      <trkpt lat="45.8361" lon="-0.64314">
        <ele>23</ele>
        <time>2017-06-25T09:17:05Z</time>
      </trkpt>
      <trkpt lat="45.83609" lon="-0.64316">
        <ele>23</ele>
        <time>2017-06-25T09:17:06Z</time>
      </trkpt>
      <trkpt lat="45.83609" lon="-0.64318">
        <ele>23</ele>
        <time>2017-06-25T09:17:07Z</time>
      </trkpt>
      <trkpt lat="45.83609" lon="-0.64321">
        <ele>23</ele>
        <time>2017-06-25T09:17:09Z</time>
      </trkpt>
      <trkpt lat="45.83608" lon="-0.64324">
        <ele>23</ele>
        <time>2017-06-25T09:17:10Z</time>
      </trkpt>
      <trkpt lat="45.83607" lon="-0.64326">
        <ele>23</ele>
        <time>2017-06-25T09:17:12Z</time>
      </trkpt>
      <trkpt lat="45.83607" lon="-0.64328">
        <ele>23</ele>
        <time>2017-06-25T09:17:13Z</time>
      </trkpt>
      <trkpt lat="45.83606" lon="-0.6433">
        <ele>23</ele>
        <time>2017-06-25T09:17:14Z</time>
      </trkpt>
      <trkpt lat="45.83606" lon="-0.64332">
        <ele>23</ele>
        <time>2017-06-25T09:17:15Z</time>
      </trkpt>
      <trkpt lat="45.83605" lon="-0.64334">
        <ele>23</ele>
        <time>2017-06-25T09:17:16Z</time>
      </trkpt>
      <trkpt lat="45.83604" lon="-0.64337">
        <ele>23</ele>
        <time>2017-06-25T09:17:17Z</time>
      </trkpt>
      <trkpt lat="45.83604" lon="-0.64338">
        <ele>23</ele>
        <time>2017-06-25T09:17:18Z</time>
      </trkpt>
      <trkpt lat="45.83604" lon="-0.64341">
        <ele>23</ele>
        <time>2017-06-25T09:17:19Z</time>
      </trkpt>
      <trkpt lat="45.83604" lon="-0.64343">
        <ele>22</ele>
        <time>2017-06-25T09:17:20Z</time>
      </trkpt>
      <trkpt lat="45.83603" lon="-0.64345">
        <ele>22</ele>
        <time>2017-06-25T09:17:21Z</time>
      </trkpt>
      <trkpt lat="45.83603" lon="-0.64347">
        <ele>22</ele>
        <time>2017-06-25T09:17:22Z</time>
      </trkpt>
      <trkpt lat="45.83602" lon="-0.64348">
        <ele>22</ele>
        <time>2017-06-25T09:17:23Z</time>
      </trkpt>
      <trkpt lat="45.83601" lon="-0.6435">
        <ele>22</ele>
        <time>2017-06-25T09:17:24Z</time>
      </trkpt>
      <trkpt lat="45.83601" lon="-0.64351">
        <ele>22</ele>
        <time>2017-06-25T09:17:25Z</time>
      </trkpt>
      <trkpt lat="45.83601" lon="-0.64353">
        <ele>22</ele>
        <time>2017-06-25T09:17:26Z</time>
      </trkpt>
      <trkpt lat="45.83601" lon="-0.64355">
        <ele>22</ele>
        <time>2017-06-25T09:17:27Z</time>
      </trkpt>
      <trkpt lat="45.83601" lon="-0.64357">
        <ele>22</ele>
        <time>2017-06-25T09:17:28Z</time>
      </trkpt>
      <trkpt lat="45.836" lon="-0.64359">
        <ele>22</ele>
        <time>2017-06-25T09:17:29Z</time>
      </trkpt>
      <trkpt lat="45.836" lon="-0.64361">
        <ele>22</ele>
        <time>2017-06-25T09:17:30Z</time>
      </trkpt>
      <trkpt lat="45.836" lon="-0.64363">
        <ele>22</ele>
        <time>2017-06-25T09:17:31Z</time>
      </trkpt>
      <trkpt lat="45.836" lon="-0.64365">
        <ele>22</ele>
        <time>2017-06-25T09:17:32Z</time>
      </trkpt>
      <trkpt lat="45.83599" lon="-0.64367">
        <ele>22</ele>
        <time>2017-06-25T09:17:33Z</time>
      </trkpt>
      <trkpt lat="45.83598" lon="-0.64369">
        <ele>22</ele>
        <time>2017-06-25T09:17:34Z</time>
      </trkpt>
      <trkpt lat="45.83598" lon="-0.64371">
        <ele>22</ele>
        <time>2017-06-25T09:17:35Z</time>
      </trkpt>
      <trkpt lat="45.83598" lon="-0.64373">
        <ele>22</ele>
        <time>2017-06-25T09:17:36Z</time>
      </trkpt>
      <trkpt lat="45.83597" lon="-0.64376">
        <ele>22</ele>
        <time>2017-06-25T09:17:37Z</time>
      </trkpt>
      <trkpt lat="45.83596" lon="-0.64377">
        <ele>22</ele>
        <time>2017-06-25T09:17:38Z</time>
      </trkpt>
      <trkpt lat="45.83597" lon="-0.64379">
        <ele>22</ele>
        <time>2017-06-25T09:17:39Z</time>
      </trkpt>
      <trkpt lat="45.83597" lon="-0.6438">
        <ele>22</ele>
        <time>2017-06-25T09:17:40Z</time>
      </trkpt>
      <trkpt lat="45.83598" lon="-0.64381">
        <ele>22</ele>
        <time>2017-06-25T09:17:41Z</time>
      </trkpt>
      <trkpt lat="45.83598" lon="-0.64383">
        <ele>22</ele>
        <time>2017-06-25T09:17:43Z</time>
      </trkpt>
      <trkpt lat="45.83599" lon="-0.64384">
        <ele>22</ele>
        <time>2017-06-25T09:17:46Z</time>
      </trkpt>
      <trkpt lat="45.83598" lon="-0.64387">
        <ele>22</ele>
        <time>2017-06-25T09:17:49Z</time>
      </trkpt>
      <trkpt lat="45.83598" lon="-0.6439">
        <ele>22</ele>
        <time>2017-06-25T09:17:51Z</time>
      </trkpt>
      <trkpt lat="45.83598" lon="-0.64391">
        <ele>22</ele>
        <time>2017-06-25T09:17:52Z</time>
      </trkpt>
      <trkpt lat="45.83597" lon="-0.64393">
        <ele>22</ele>
        <time>2017-06-25T09:17:53Z</time>
      </trkpt>
      <trkpt lat="45.83597" lon="-0.64395">
        <ele>22</ele>
        <time>2017-06-25T09:17:54Z</time>
      </trkpt>
      <trkpt lat="45.83596" lon="-0.64396">
        <ele>22</ele>
        <time>2017-06-25T09:17:55Z</time>
      </trkpt>
      <trkpt lat="45.83595" lon="-0.64398">
        <ele>22</ele>
        <time>2017-06-25T09:17:56Z</time>
      </trkpt>
      <trkpt lat="45.83594" lon="-0.644">
        <ele>22</ele>
        <time>2017-06-25T09:17:57Z</time>
      </trkpt>
      <trkpt lat="45.83593" lon="-0.64402">
        <ele>22</ele>
        <time>2017-06-25T09:17:58Z</time>
      </trkpt>
      <trkpt lat="45.83593" lon="-0.64403">
        <ele>22</ele>
        <time>2017-06-25T09:17:59Z</time>
      </trkpt>
      <trkpt lat="45.83592" lon="-0.64406">
        <ele>22</ele>
        <time>2017-06-25T09:18:00Z</time>
      </trkpt>
      <trkpt lat="45.83591" lon="-0.64408">
        <ele>22</ele>
        <time>2017-06-25T09:18:02Z</time>
      </trkpt>
      <trkpt lat="45.8359" lon="-0.6441">
        <ele>22</ele>
        <time>2017-06-25T09:18:03Z</time>
      </trkpt>
      <trkpt lat="45.83589" lon="-0.64412">
        <ele>23</ele>
        <time>2017-06-25T09:18:04Z</time>
      </trkpt>
      <trkpt lat="45.83588" lon="-0.64414">
        <ele>23</ele>
        <time>2017-06-25T09:18:05Z</time>
      </trkpt>
      <trkpt lat="45.83586" lon="-0.64416">
        <ele>23</ele>
        <time>2017-06-25T09:18:06Z</time>
      </trkpt>
      <trkpt lat="45.83583" lon="-0.64419">
        <ele>23</ele>
        <time>2017-06-25T09:18:07Z</time>
      </trkpt>
      <trkpt lat="45.83582" lon="-0.64421">
        <ele>23</ele>
        <time>2017-06-25T09:18:08Z</time>
      </trkpt>
      <trkpt lat="45.8358" lon="-0.64423">
        <ele>22</ele>
        <time>2017-06-25T09:18:09Z</time>
      </trkpt>
      <trkpt lat="45.83579" lon="-0.64425">
        <ele>22</ele>
        <time>2017-06-25T09:18:10Z</time>
      </trkpt>
      <trkpt lat="45.83578" lon="-0.64427">
        <ele>22</ele>
        <time>2017-06-25T09:18:11Z</time>
      </trkpt>
      <trkpt lat="45.83577" lon="-0.64428">
        <ele>22</ele>
        <time>2017-06-25T09:18:12Z</time>
      </trkpt>
      <trkpt lat="45.83577" lon="-0.64431">
        <ele>22</ele>
        <time>2017-06-25T09:18:13Z</time>
      </trkpt>
      <trkpt lat="45.83575" lon="-0.64433">
        <ele>21</ele>
        <time>2017-06-25T09:18:14Z</time>
      </trkpt>
      <trkpt lat="45.83575" lon="-0.64434">
        <ele>21</ele>
        <time>2017-06-25T09:18:15Z</time>
      </trkpt>
      <trkpt lat="45.83574" lon="-0.64437">
        <ele>21</ele>
        <time>2017-06-25T09:18:16Z</time>
      </trkpt>
      <trkpt lat="45.83574" lon="-0.64439">
        <ele>21</ele>
        <time>2017-06-25T09:18:17Z</time>
      </trkpt>
      <trkpt lat="45.83573" lon="-0.64441">
        <ele>21</ele>
        <time>2017-06-25T09:18:18Z</time>
      </trkpt>
      <trkpt lat="45.83572" lon="-0.64442">
        <ele>21</ele>
        <time>2017-06-25T09:18:19Z</time>
      </trkpt>
      <trkpt lat="45.83572" lon="-0.64444">
        <ele>21</ele>
        <time>2017-06-25T09:18:20Z</time>
      </trkpt>
      <trkpt lat="45.83572" lon="-0.64445">
        <ele>21</ele>
        <time>2017-06-25T09:18:21Z</time>
      </trkpt>
      <trkpt lat="45.83572" lon="-0.64446">
        <ele>21</ele>
        <time>2017-06-25T09:18:22Z</time>
      </trkpt>
      <trkpt lat="45.83571" lon="-0.64448">
        <ele>21</ele>
        <time>2017-06-25T09:18:23Z</time>
      </trkpt>
      <trkpt lat="45.83571" lon="-0.6445">
        <ele>21</ele>
        <time>2017-06-25T09:18:24Z</time>
      </trkpt>
      <trkpt lat="45.83571" lon="-0.64452">
        <ele>21</ele>
        <time>2017-06-25T09:18:25Z</time>
      </trkpt>
      <trkpt lat="45.8357" lon="-0.64454">
        <ele>21</ele>
        <time>2017-06-25T09:18:26Z</time>
      </trkpt>
      <trkpt lat="45.8357" lon="-0.64455">
        <ele>21</ele>
        <time>2017-06-25T09:18:27Z</time>
      </trkpt>
      <trkpt lat="45.83569" lon="-0.64458">
        <ele>21</ele>
        <time>2017-06-25T09:18:28Z</time>
      </trkpt>
      <trkpt lat="45.83569" lon="-0.64459">
        <ele>21</ele>
        <time>2017-06-25T09:18:30Z</time>
      </trkpt>
      <trkpt lat="45.83568" lon="-0.64461">
        <ele>21</ele>
        <time>2017-06-25T09:18:32Z</time>
      </trkpt>
      <trkpt lat="45.83568" lon="-0.64463">
        <ele>21</ele>
        <time>2017-06-25T09:18:33Z</time>
      </trkpt>
      <trkpt lat="45.83569" lon="-0.64465">
        <ele>21</ele>
        <time>2017-06-25T09:18:34Z</time>
      </trkpt>
      <trkpt lat="45.83569" lon="-0.64467">
        <ele>20</ele>
        <time>2017-06-25T09:18:35Z</time>
      </trkpt>
      <trkpt lat="45.83569" lon="-0.6447">
        <ele>20</ele>
        <time>2017-06-25T09:18:37Z</time>
      </trkpt>
      <trkpt lat="45.83569" lon="-0.64472">
        <ele>20</ele>
        <time>2017-06-25T09:18:39Z</time>
      </trkpt>
      <trkpt lat="45.83568" lon="-0.64475">
        <ele>20</ele>
        <time>2017-06-25T09:18:41Z</time>
      </trkpt>
      <trkpt lat="45.83567" lon="-0.64477">
        <ele>20</ele>
        <time>2017-06-25T09:18:42Z</time>
      </trkpt>
      <trkpt lat="45.83567" lon="-0.64479">
        <ele>20</ele>
        <time>2017-06-25T09:18:43Z</time>
      </trkpt>
      <trkpt lat="45.83567" lon="-0.64481">
        <ele>20</ele>
        <time>2017-06-25T09:18:44Z</time>
      </trkpt>
      <trkpt lat="45.83566" lon="-0.64483">
        <ele>20</ele>
        <time>2017-06-25T09:18:45Z</time>
      </trkpt>
      <trkpt lat="45.83566" lon="-0.64485">
        <ele>20</ele>
        <time>2017-06-25T09:18:46Z</time>
      </trkpt>
      <trkpt lat="45.83566" lon="-0.64487">
        <ele>20</ele>
        <time>2017-06-25T09:18:47Z</time>
      </trkpt>
      <trkpt lat="45.83565" lon="-0.64489">
        <ele>20</ele>
        <time>2017-06-25T09:18:48Z</time>
      </trkpt>
      <trkpt lat="45.83565" lon="-0.6449">
        <ele>20</ele>
        <time>2017-06-25T09:18:49Z</time>
      </trkpt>
      <trkpt lat="45.83564" lon="-0.64493">
        <ele>20</ele>
        <time>2017-06-25T09:18:50Z</time>
      </trkpt>
      <trkpt lat="45.83564" lon="-0.64495">
        <ele>20</ele>
        <time>2017-06-25T09:18:52Z</time>
      </trkpt>
      <trkpt lat="45.83564" lon="-0.64497">
        <ele>20</ele>
        <time>2017-06-25T09:18:54Z</time>
      </trkpt>
      <trkpt lat="45.83563" lon="-0.64498">
        <ele>20</ele>
        <time>2017-06-25T09:18:56Z</time>
      </trkpt>
      <trkpt lat="45.83563" lon="-0.64501">
        <ele>20</ele>
        <time>2017-06-25T09:18:58Z</time>
      </trkpt>
      <trkpt lat="45.83563" lon="-0.64502">
        <ele>20</ele>
        <time>2017-06-25T09:18:59Z</time>
      </trkpt>
      <trkpt lat="45.83562" lon="-0.64504">
        <ele>20</ele>
        <time>2017-06-25T09:19:00Z</time>
      </trkpt>
      <trkpt lat="45.83561" lon="-0.64505">
        <ele>20</ele>
        <time>2017-06-25T09:19:01Z</time>
      </trkpt>
      <trkpt lat="45.83561" lon="-0.64507">
        <ele>20</ele>
        <time>2017-06-25T09:19:03Z</time>
      </trkpt>
      <trkpt lat="45.83559" lon="-0.64509">
        <ele>20</ele>
        <time>2017-06-25T09:19:05Z</time>
      </trkpt>
      <trkpt lat="45.83558" lon="-0.6451">
        <ele>20</ele>
        <time>2017-06-25T09:19:06Z</time>
      </trkpt>
      <trkpt lat="45.83558" lon="-0.64511">
        <ele>20</ele>
        <time>2017-06-25T09:19:07Z</time>
      </trkpt>
      <trkpt lat="45.83556" lon="-0.64512">
        <ele>20</ele>
        <time>2017-06-25T09:19:08Z</time>
      </trkpt>
      <trkpt lat="45.83556" lon="-0.64514">
        <ele>20</ele>
        <time>2017-06-25T09:19:09Z</time>
      </trkpt>
      <trkpt lat="45.83555" lon="-0.64515">
        <ele>20</ele>
        <time>2017-06-25T09:19:10Z</time>
      </trkpt>
      <trkpt lat="45.83555" lon="-0.64517">
        <ele>20</ele>
        <time>2017-06-25T09:19:11Z</time>
      </trkpt>
      <trkpt lat="45.83554" lon="-0.64519">
        <ele>20</ele>
        <time>2017-06-25T09:19:12Z</time>
      </trkpt>
      <trkpt lat="45.83553" lon="-0.64522">
        <ele>20</ele>
        <time>2017-06-25T09:19:13Z</time>
      </trkpt>
      <trkpt lat="45.83553" lon="-0.64525">
        <ele>20</ele>
        <time>2017-06-25T09:19:14Z</time>
      </trkpt>
      <trkpt lat="45.83551" lon="-0.64527">
        <ele>20</ele>
        <time>2017-06-25T09:19:15Z</time>
      </trkpt>
      <trkpt lat="45.8355" lon="-0.64528">
        <ele>20</ele>
        <time>2017-06-25T09:19:16Z</time>
      </trkpt>
      <trkpt lat="45.83548" lon="-0.6453">
        <ele>20</ele>
        <time>2017-06-25T09:19:17Z</time>
      </trkpt>
      <trkpt lat="45.83546" lon="-0.64531">
        <ele>20</ele>
        <time>2017-06-25T09:19:19Z</time>
      </trkpt>
      <trkpt lat="45.83546" lon="-0.64532">
        <ele>20</ele>
        <time>2017-06-25T09:19:22Z</time>
      </trkpt>
      <trkpt lat="45.83545" lon="-0.64535">
        <ele>20</ele>
        <time>2017-06-25T09:19:24Z</time>
      </trkpt>
      <trkpt lat="45.83545" lon="-0.64537">
        <ele>20</ele>
        <time>2017-06-25T09:19:25Z</time>
      </trkpt>
      <trkpt lat="45.83544" lon="-0.6454">
        <ele>20</ele>
        <time>2017-06-25T09:19:26Z</time>
      </trkpt>
      <trkpt lat="45.83542" lon="-0.64543">
        <ele>20</ele>
        <time>2017-06-25T09:19:28Z</time>
      </trkpt>
      <trkpt lat="45.83542" lon="-0.64545">
        <ele>20</ele>
        <time>2017-06-25T09:19:29Z</time>
      </trkpt>
      <trkpt lat="45.83541" lon="-0.64547">
        <ele>20</ele>
        <time>2017-06-25T09:19:30Z</time>
      </trkpt>
      <trkpt lat="45.8354" lon="-0.64551">
        <ele>20</ele>
        <time>2017-06-25T09:19:31Z</time>
      </trkpt>
      <trkpt lat="45.83538" lon="-0.64553">
        <ele>20</ele>
        <time>2017-06-25T09:19:32Z</time>
      </trkpt>
      <trkpt lat="45.83538" lon="-0.64556">
        <ele>20</ele>
        <time>2017-06-25T09:19:33Z</time>
      </trkpt>
      <trkpt lat="45.83537" lon="-0.64558">
        <ele>20</ele>
        <time>2017-06-25T09:19:34Z</time>
      </trkpt>
      <trkpt lat="45.83536" lon="-0.6456">
        <ele>20</ele>
        <time>2017-06-25T09:19:35Z</time>
      </trkpt>
      <trkpt lat="45.83534" lon="-0.64563">
        <ele>20</ele>
        <time>2017-06-25T09:19:37Z</time>
      </trkpt>
      <trkpt lat="45.83533" lon="-0.64565">
        <ele>20</ele>
        <time>2017-06-25T09:19:38Z</time>
      </trkpt>
      <trkpt lat="45.83532" lon="-0.64566">
        <ele>20</ele>
        <time>2017-06-25T09:19:39Z</time>
      </trkpt>
      <trkpt lat="45.8353" lon="-0.64568">
        <ele>20</ele>
        <time>2017-06-25T09:19:40Z</time>
      </trkpt>
      <trkpt lat="45.83528" lon="-0.64569">
        <ele>20</ele>
        <time>2017-06-25T09:19:41Z</time>
      </trkpt>
      <trkpt lat="45.83527" lon="-0.6457">
        <ele>20</ele>
        <time>2017-06-25T09:19:42Z</time>
      </trkpt>
      <trkpt lat="45.83526" lon="-0.6457">
        <ele>20</ele>
        <time>2017-06-25T09:19:43Z</time>
      </trkpt>
      <trkpt lat="45.83524" lon="-0.64572">
        <ele>20</ele>
        <time>2017-06-25T09:19:44Z</time>
      </trkpt>
      <trkpt lat="45.83523" lon="-0.64573">
        <ele>21</ele>
        <time>2017-06-25T09:19:45Z</time>
      </trkpt>
      <trkpt lat="45.83521" lon="-0.64575">
        <ele>21</ele>
        <time>2017-06-25T09:19:46Z</time>
      </trkpt>
      <trkpt lat="45.8352" lon="-0.64577">
        <ele>21</ele>
        <time>2017-06-25T09:19:47Z</time>
      </trkpt>
      <trkpt lat="45.83519" lon="-0.64578">
        <ele>21</ele>
        <time>2017-06-25T09:19:48Z</time>
      </trkpt>
      <trkpt lat="45.83518" lon="-0.6458">
        <ele>21</ele>
        <time>2017-06-25T09:19:50Z</time>
      </trkpt>
      <trkpt lat="45.83516" lon="-0.64582">
        <ele>21</ele>
        <time>2017-06-25T09:19:51Z</time>
      </trkpt>
      <trkpt lat="45.83516" lon="-0.64583">
        <ele>21</ele>
        <time>2017-06-25T09:19:52Z</time>
      </trkpt>
      <trkpt lat="45.83514" lon="-0.64586">
        <ele>20</ele>
        <time>2017-06-25T09:19:54Z</time>
      </trkpt>
      <trkpt lat="45.83513" lon="-0.64587">
        <ele>20</ele>
        <time>2017-06-25T09:19:55Z</time>
      </trkpt>
      <trkpt lat="45.83513" lon="-0.64588">
        <ele>20</ele>
        <time>2017-06-25T09:19:56Z</time>
      </trkpt>
      <trkpt lat="45.83512" lon="-0.64589">
        <ele>20</ele>
        <time>2017-06-25T09:19:57Z</time>
      </trkpt>
      <trkpt lat="45.83511" lon="-0.64591">
        <ele>20</ele>
        <time>2017-06-25T09:19:58Z</time>
      </trkpt>
      <trkpt lat="45.8351" lon="-0.64593">
        <ele>20</ele>
        <time>2017-06-25T09:19:59Z</time>
      </trkpt>
      <trkpt lat="45.83509" lon="-0.64594">
        <ele>20</ele>
        <time>2017-06-25T09:20:00Z</time>
      </trkpt>
      <trkpt lat="45.83509" lon="-0.64595">
        <ele>20</ele>
        <time>2017-06-25T09:20:01Z</time>
      </trkpt>
      <trkpt lat="45.83508" lon="-0.64597">
        <ele>20</ele>
        <time>2017-06-25T09:20:02Z</time>
      </trkpt>
      <trkpt lat="45.83506" lon="-0.64601">
        <ele>20</ele>
        <time>2017-06-25T09:20:04Z</time>
      </trkpt>
      <trkpt lat="45.83505" lon="-0.64602">
        <ele>20</ele>
        <time>2017-06-25T09:20:05Z</time>
      </trkpt>
      <trkpt lat="45.83504" lon="-0.64604">
        <ele>20</ele>
        <time>2017-06-25T09:20:07Z</time>
      </trkpt>
      <trkpt lat="45.83504" lon="-0.64605">
        <ele>20</ele>
        <time>2017-06-25T09:20:10Z</time>
      </trkpt>
      <trkpt lat="45.83503" lon="-0.64607">
        <ele>19</ele>
        <time>2017-06-25T09:20:12Z</time>
      </trkpt>
      <trkpt lat="45.83502" lon="-0.64608">
        <ele>19</ele>
        <time>2017-06-25T09:20:13Z</time>
      </trkpt>
      <trkpt lat="45.83501" lon="-0.64609">
        <ele>19</ele>
        <time>2017-06-25T09:20:14Z</time>
      </trkpt>
      <trkpt lat="45.835" lon="-0.6461">
        <ele>21</ele>
        <time>2017-06-25T09:20:15Z</time>
      </trkpt>
      <trkpt lat="45.83499" lon="-0.64612">
        <ele>21</ele>
        <time>2017-06-25T09:20:16Z</time>
      </trkpt>
      <trkpt lat="45.83498" lon="-0.64613">
        <ele>21</ele>
        <time>2017-06-25T09:20:17Z</time>
      </trkpt>
      <trkpt lat="45.83497" lon="-0.64615">
        <ele>21</ele>
        <time>2017-06-25T09:20:19Z</time>
      </trkpt>
      <trkpt lat="45.83496" lon="-0.64617">
        <ele>21</ele>
        <time>2017-06-25T09:20:20Z</time>
      </trkpt>
      <trkpt lat="45.83495" lon="-0.64618">
        <ele>21</ele>
        <time>2017-06-25T09:20:21Z</time>
      </trkpt>
      <trkpt lat="45.83494" lon="-0.64619">
        <ele>21</ele>
        <time>2017-06-25T09:20:22Z</time>
      </trkpt>
      <trkpt lat="45.83493" lon="-0.64621">
        <ele>21</ele>
        <time>2017-06-25T09:20:23Z</time>
      </trkpt>
      <trkpt lat="45.83492" lon="-0.64622">
        <ele>21</ele>
        <time>2017-06-25T09:20:25Z</time>
      </trkpt>
      <trkpt lat="45.8349" lon="-0.64624">
        <ele>21</ele>
        <time>2017-06-25T09:20:27Z</time>
      </trkpt>
      <trkpt lat="45.83488" lon="-0.64625">
        <ele>21</ele>
        <time>2017-06-25T09:20:28Z</time>
      </trkpt>
      <trkpt lat="45.83487" lon="-0.64627">
        <ele>21</ele>
        <time>2017-06-25T09:20:31Z</time>
      </trkpt>
      <trkpt lat="45.83487" lon="-0.64628">
        <ele>21</ele>
        <time>2017-06-25T09:20:32Z</time>
      </trkpt>
      <trkpt lat="45.83486" lon="-0.6463">
        <ele>21</ele>
        <time>2017-06-25T09:20:33Z</time>
      </trkpt>
      <trkpt lat="45.83485" lon="-0.64631">
        <ele>21</ele>
        <time>2017-06-25T09:20:34Z</time>
      </trkpt>
      <trkpt lat="45.83485" lon="-0.64632">
        <ele>21</ele>
        <time>2017-06-25T09:20:35Z</time>
      </trkpt>
      <trkpt lat="45.83484" lon="-0.64633">
        <ele>21</ele>
        <time>2017-06-25T09:20:36Z</time>
      </trkpt>
      <trkpt lat="45.83483" lon="-0.64635">
        <ele>21</ele>
        <time>2017-06-25T09:20:37Z</time>
      </trkpt>
      <trkpt lat="45.83481" lon="-0.64638">
        <ele>21</ele>
        <time>2017-06-25T09:20:39Z</time>
      </trkpt>
      <trkpt lat="45.8348" lon="-0.64639">
        <ele>21</ele>
        <time>2017-06-25T09:20:40Z</time>
      </trkpt>
      <trkpt lat="45.8348" lon="-0.64641">
        <ele>21</ele>
        <time>2017-06-25T09:20:41Z</time>
      </trkpt>
      <trkpt lat="45.83478" lon="-0.64643">
        <ele>21</ele>
        <time>2017-06-25T09:20:43Z</time>
      </trkpt>
      <trkpt lat="45.83477" lon="-0.64644">
        <ele>21</ele>
        <time>2017-06-25T09:20:44Z</time>
      </trkpt>
      <trkpt lat="45.83475" lon="-0.64646">
        <ele>21</ele>
        <time>2017-06-25T09:20:45Z</time>
      </trkpt>
      <trkpt lat="45.83474" lon="-0.64648">
        <ele>21</ele>
        <time>2017-06-25T09:20:46Z</time>
      </trkpt>
      <trkpt lat="45.83474" lon="-0.6465">
        <ele>21</ele>
        <time>2017-06-25T09:20:47Z</time>
      </trkpt>
      <trkpt lat="45.83473" lon="-0.64651">
        <ele>21</ele>
        <time>2017-06-25T09:20:48Z</time>
      </trkpt>
      <trkpt lat="45.83472" lon="-0.64653">
        <ele>21</ele>
        <time>2017-06-25T09:20:49Z</time>
      </trkpt>
      <trkpt lat="45.83471" lon="-0.64654">
        <ele>21</ele>
        <time>2017-06-25T09:20:50Z</time>
      </trkpt>
      <trkpt lat="45.8347" lon="-0.64655">
        <ele>21</ele>
        <time>2017-06-25T09:20:51Z</time>
      </trkpt>
      <trkpt lat="45.83469" lon="-0.64657">
        <ele>21</ele>
        <time>2017-06-25T09:20:52Z</time>
      </trkpt>
      <trkpt lat="45.83468" lon="-0.64659">
        <ele>21</ele>
        <time>2017-06-25T09:20:53Z</time>
      </trkpt>
      <trkpt lat="45.83466" lon="-0.6466">
        <ele>21</ele>
        <time>2017-06-25T09:20:54Z</time>
      </trkpt>
      <trkpt lat="45.83465" lon="-0.64662">
        <ele>21</ele>
        <time>2017-06-25T09:20:55Z</time>
      </trkpt>
      <trkpt lat="45.83464" lon="-0.64664">
        <ele>21</ele>
        <time>2017-06-25T09:20:57Z</time>
      </trkpt>
      <trkpt lat="45.83463" lon="-0.64667">
        <ele>21</ele>
        <time>2017-06-25T09:20:58Z</time>
      </trkpt>
      <trkpt lat="45.83463" lon="-0.64668">
        <ele>21</ele>
        <time>2017-06-25T09:20:59Z</time>
      </trkpt>
      <trkpt lat="45.83461" lon="-0.6467">
        <ele>21</ele>
        <time>2017-06-25T09:21:00Z</time>
      </trkpt>
      <trkpt lat="45.83461" lon="-0.64672">
        <ele>21</ele>
        <time>2017-06-25T09:21:01Z</time>
      </trkpt>
      <trkpt lat="45.8346" lon="-0.64673">
        <ele>21</ele>
        <time>2017-06-25T09:21:02Z</time>
      </trkpt>
      <trkpt lat="45.83458" lon="-0.64675">
        <ele>21</ele>
        <time>2017-06-25T09:21:03Z</time>
      </trkpt>
      <trkpt lat="45.83457" lon="-0.64677">
        <ele>21</ele>
        <time>2017-06-25T09:21:04Z</time>
      </trkpt>
      <trkpt lat="45.83456" lon="-0.64678">
        <ele>21</ele>
        <time>2017-06-25T09:21:05Z</time>
      </trkpt>
      <trkpt lat="45.83455" lon="-0.6468">
        <ele>21</ele>
        <time>2017-06-25T09:21:06Z</time>
      </trkpt>
      <trkpt lat="45.83454" lon="-0.64681">
        <ele>21</ele>
        <time>2017-06-25T09:21:07Z</time>
      </trkpt>
      <trkpt lat="45.83453" lon="-0.64681">
        <ele>21</ele>
        <time>2017-06-25T09:21:08Z</time>
      </trkpt>
      <trkpt lat="45.83452" lon="-0.64683">
        <ele>21</ele>
        <time>2017-06-25T09:21:09Z</time>
      </trkpt>
      <trkpt lat="45.83451" lon="-0.64684">
        <ele>21</ele>
        <time>2017-06-25T09:21:10Z</time>
      </trkpt>
      <trkpt lat="45.8345" lon="-0.64685">
        <ele>21</ele>
        <time>2017-06-25T09:21:11Z</time>
      </trkpt>
      <trkpt lat="45.83448" lon="-0.64687">
        <ele>21</ele>
        <time>2017-06-25T09:21:12Z</time>
      </trkpt>
      <trkpt lat="45.83447" lon="-0.64688">
        <ele>21</ele>
        <time>2017-06-25T09:21:13Z</time>
      </trkpt>
      <trkpt lat="45.83447" lon="-0.64689">
        <ele>21</ele>
        <time>2017-06-25T09:21:14Z</time>
      </trkpt>
      <trkpt lat="45.83445" lon="-0.6469">
        <ele>21</ele>
        <time>2017-06-25T09:21:15Z</time>
      </trkpt>
      <trkpt lat="45.83444" lon="-0.64691">
        <ele>21</ele>
        <time>2017-06-25T09:21:16Z</time>
      </trkpt>
      <trkpt lat="45.83443" lon="-0.64693">
        <ele>21</ele>
        <time>2017-06-25T09:21:17Z</time>
      </trkpt>
      <trkpt lat="45.83442" lon="-0.64694">
        <ele>21</ele>
        <time>2017-06-25T09:21:18Z</time>
      </trkpt>
      <trkpt lat="45.83441" lon="-0.64695">
        <ele>21</ele>
        <time>2017-06-25T09:21:19Z</time>
      </trkpt>
      <trkpt lat="45.8344" lon="-0.64696">
        <ele>21</ele>
        <time>2017-06-25T09:21:20Z</time>
      </trkpt>
      <trkpt lat="45.83439" lon="-0.64698">
        <ele>21</ele>
        <time>2017-06-25T09:21:21Z</time>
      </trkpt>
      <trkpt lat="45.83438" lon="-0.647">
        <ele>21</ele>
        <time>2017-06-25T09:21:22Z</time>
      </trkpt>
      <trkpt lat="45.83437" lon="-0.64702">
        <ele>21</ele>
        <time>2017-06-25T09:21:23Z</time>
      </trkpt>
      <trkpt lat="45.83436" lon="-0.64703">
        <ele>21</ele>
        <time>2017-06-25T09:21:24Z</time>
      </trkpt>
      <trkpt lat="45.83435" lon="-0.64704">
        <ele>21</ele>
        <time>2017-06-25T09:21:25Z</time>
      </trkpt>
      <trkpt lat="45.83434" lon="-0.64705">
        <ele>21</ele>
        <time>2017-06-25T09:21:26Z</time>
      </trkpt>
      <trkpt lat="45.83434" lon="-0.64707">
        <ele>21</ele>
        <time>2017-06-25T09:21:27Z</time>
      </trkpt>
      <trkpt lat="45.83432" lon="-0.64708">
        <ele>21</ele>
        <time>2017-06-25T09:21:28Z</time>
      </trkpt>
      <trkpt lat="45.83432" lon="-0.6471">
        <ele>21</ele>
        <time>2017-06-25T09:21:30Z</time>
      </trkpt>
      <trkpt lat="45.83431" lon="-0.64713">
        <ele>21</ele>
        <time>2017-06-25T09:21:32Z</time>
      </trkpt>
      <trkpt lat="45.8343" lon="-0.64714">
        <ele>21</ele>
        <time>2017-06-25T09:21:33Z</time>
      </trkpt>
      <trkpt lat="45.83429" lon="-0.64715">
        <ele>21</ele>
        <time>2017-06-25T09:21:34Z</time>
      </trkpt>
      <trkpt lat="45.83428" lon="-0.64718">
        <ele>21</ele>
        <time>2017-06-25T09:21:36Z</time>
      </trkpt>
      <trkpt lat="45.83427" lon="-0.6472">
        <ele>21</ele>
        <time>2017-06-25T09:21:37Z</time>
      </trkpt>
      <trkpt lat="45.83426" lon="-0.64722">
        <ele>21</ele>
        <time>2017-06-25T09:21:38Z</time>
      </trkpt>
      <trkpt lat="45.83426" lon="-0.64724">
        <ele>21</ele>
        <time>2017-06-25T09:21:39Z</time>
      </trkpt>
      <trkpt lat="45.83426" lon="-0.64725">
        <ele>21</ele>
        <time>2017-06-25T09:21:40Z</time>
      </trkpt>
      <trkpt lat="45.83425" lon="-0.64728">
        <ele>21</ele>
        <time>2017-06-25T09:21:41Z</time>
      </trkpt>
      <trkpt lat="45.83425" lon="-0.64729">
        <ele>21</ele>
        <time>2017-06-25T09:21:42Z</time>
      </trkpt>
      <trkpt lat="45.83424" lon="-0.64732">
        <ele>21</ele>
        <time>2017-06-25T09:21:43Z</time>
      </trkpt>
      <trkpt lat="45.83424" lon="-0.64733">
        <ele>21</ele>
        <time>2017-06-25T09:21:44Z</time>
      </trkpt>
      <trkpt lat="45.83424" lon="-0.64736">
        <ele>21</ele>
        <time>2017-06-25T09:21:46Z</time>
      </trkpt>
      <trkpt lat="45.83424" lon="-0.64738">
        <ele>21</ele>
        <time>2017-06-25T09:21:47Z</time>
      </trkpt>
      <trkpt lat="45.83424" lon="-0.64739">
        <ele>21</ele>
        <time>2017-06-25T09:21:48Z</time>
      </trkpt>
      <trkpt lat="45.83424" lon="-0.64741">
        <ele>21</ele>
        <time>2017-06-25T09:21:49Z</time>
      </trkpt>
      <trkpt lat="45.83423" lon="-0.64743">
        <ele>21</ele>
        <time>2017-06-25T09:21:50Z</time>
      </trkpt>
      <trkpt lat="45.83423" lon="-0.64744">
        <ele>21</ele>
        <time>2017-06-25T09:21:51Z</time>
      </trkpt>
      <trkpt lat="45.83424" lon="-0.64746">
        <ele>21</ele>
        <time>2017-06-25T09:21:53Z</time>
      </trkpt>
      <trkpt lat="45.83424" lon="-0.64749">
        <ele>22</ele>
        <time>2017-06-25T09:21:55Z</time>
      </trkpt>
      <trkpt lat="45.83423" lon="-0.6475">
        <ele>22</ele>
        <time>2017-06-25T09:21:56Z</time>
      </trkpt>
      <trkpt lat="45.83424" lon="-0.64752">
        <ele>20</ele>
        <time>2017-06-25T09:21:58Z</time>
      </trkpt>
      <trkpt lat="45.83424" lon="-0.64754">
        <ele>20</ele>
        <time>2017-06-25T09:21:59Z</time>
      </trkpt>
      <trkpt lat="45.83423" lon="-0.64756">
        <ele>20</ele>
        <time>2017-06-25T09:22:01Z</time>
      </trkpt>
      <trkpt lat="45.83423" lon="-0.64757">
        <ele>19</ele>
        <time>2017-06-25T09:22:02Z</time>
      </trkpt>
      <trkpt lat="45.83423" lon="-0.6476">
        <ele>19</ele>
        <time>2017-06-25T09:22:04Z</time>
      </trkpt>
      <trkpt lat="45.83423" lon="-0.64761">
        <ele>19</ele>
        <time>2017-06-25T09:22:05Z</time>
      </trkpt>
      <trkpt lat="45.83424" lon="-0.64764">
        <ele>18</ele>
        <time>2017-06-25T09:22:07Z</time>
      </trkpt>
      <trkpt lat="45.83424" lon="-0.64765">
        <ele>18</ele>
        <time>2017-06-25T09:22:08Z</time>
      </trkpt>
      <trkpt lat="45.83423" lon="-0.64767">
        <ele>18</ele>
        <time>2017-06-25T09:22:09Z</time>
      </trkpt>
      <trkpt lat="45.83423" lon="-0.6477">
        <ele>17</ele>
        <time>2017-06-25T09:22:10Z</time>
      </trkpt>
      <trkpt lat="45.83423" lon="-0.64772">
        <ele>17</ele>
        <time>2017-06-25T09:22:11Z</time>
      </trkpt>
      <trkpt lat="45.83423" lon="-0.64776">
        <ele>17</ele>
        <time>2017-06-25T09:22:12Z</time>
      </trkpt>
      <trkpt lat="45.83423" lon="-0.64778">
        <ele>16</ele>
        <time>2017-06-25T09:22:13Z</time>
      </trkpt>
      <trkpt lat="45.83423" lon="-0.6478">
        <ele>16</ele>
        <time>2017-06-25T09:22:14Z</time>
      </trkpt>
      <trkpt lat="45.83423" lon="-0.64782">
        <ele>16</ele>
        <time>2017-06-25T09:22:15Z</time>
      </trkpt>
      <trkpt lat="45.83423" lon="-0.64784">
        <ele>16</ele>
        <time>2017-06-25T09:22:16Z</time>
      </trkpt>
      <trkpt lat="45.83423" lon="-0.64786">
        <ele>15</ele>
        <time>2017-06-25T09:22:17Z</time>
      </trkpt>
      <trkpt lat="45.83423" lon="-0.64788">
        <ele>15</ele>
        <time>2017-06-25T09:22:18Z</time>
      </trkpt>
      <trkpt lat="45.83423" lon="-0.64791">
        <ele>15</ele>
        <time>2017-06-25T09:22:20Z</time>
      </trkpt>
      <trkpt lat="45.83423" lon="-0.64794">
        <ele>15</ele>
        <time>2017-06-25T09:22:21Z</time>
      </trkpt>
      <trkpt lat="45.83423" lon="-0.64795">
        <ele>14</ele>
        <time>2017-06-25T09:22:22Z</time>
      </trkpt>
      <trkpt lat="45.83423" lon="-0.64797">
        <ele>14</ele>
        <time>2017-06-25T09:22:23Z</time>
      </trkpt>
      <trkpt lat="45.83423" lon="-0.64798">
        <ele>14</ele>
        <time>2017-06-25T09:22:24Z</time>
      </trkpt>
      <trkpt lat="45.83423" lon="-0.648">
        <ele>14</ele>
        <time>2017-06-25T09:22:26Z</time>
      </trkpt>
      <trkpt lat="45.83423" lon="-0.64801">
        <ele>14</ele>
        <time>2017-06-25T09:22:28Z</time>
      </trkpt>
      <trkpt lat="45.83424" lon="-0.64803">
        <ele>14</ele>
        <time>2017-06-25T09:22:30Z</time>
      </trkpt>
      <trkpt lat="45.83425" lon="-0.64805">
        <ele>13</ele>
        <time>2017-06-25T09:22:32Z</time>
      </trkpt>
      <trkpt lat="45.83425" lon="-0.64806">
        <ele>13</ele>
        <time>2017-06-25T09:22:33Z</time>
      </trkpt>
      <trkpt lat="45.83425" lon="-0.64809">
        <ele>13</ele>
        <time>2017-06-25T09:22:35Z</time>
      </trkpt>
      <trkpt lat="45.83425" lon="-0.6481">
        <ele>13</ele>
        <time>2017-06-25T09:22:36Z</time>
      </trkpt>
      <trkpt lat="45.83426" lon="-0.64812">
        <ele>13</ele>
        <time>2017-06-25T09:22:45Z</time>
      </trkpt>
      <trkpt lat="45.83426" lon="-0.64814">
        <ele>13</ele>
        <time>2017-06-25T09:22:47Z</time>
      </trkpt>
      <trkpt lat="45.83427" lon="-0.64815">
        <ele>13</ele>
        <time>2017-06-25T09:23:04Z</time>
      </trkpt>
      <trkpt lat="45.83427" lon="-0.64816">
        <ele>12</ele>
        <time>2017-06-25T09:23:06Z</time>
      </trkpt>
      <trkpt lat="45.83428" lon="-0.64818">
        <ele>12</ele>
        <time>2017-06-25T09:23:08Z</time>
      </trkpt>
      <trkpt lat="45.83428" lon="-0.64819">
        <ele>12</ele>
        <time>2017-06-25T09:23:10Z</time>
      </trkpt>
      <trkpt lat="45.83428" lon="-0.6482">
        <ele>12</ele>
        <time>2017-06-25T09:23:13Z</time>
      </trkpt>
      <trkpt lat="45.83429" lon="-0.6482">
        <ele>12</ele>
        <time>2017-06-25T09:23:39Z</time>
      </trkpt>
      <trkpt lat="45.83429" lon="-0.6482">
        <ele>12</ele>
        <time>2017-06-25T09:23:53Z</time>
      </trkpt>
      <trkpt lat="45.83427" lon="-0.6482">
        <ele>12</ele>
        <time>2017-06-25T09:24:08Z</time>
      </trkpt>
      <trkpt lat="45.83429" lon="-0.6482">
        <ele>12</ele>
        <time>2017-06-25T09:24:14Z</time>
      </trkpt>
      <trkpt lat="45.83427" lon="-0.6482">
        <ele>12</ele>
        <time>2017-06-25T09:24:31Z</time>
      </trkpt>
      <trkpt lat="45.83428" lon="-0.64819">
        <ele>12</ele>
        <time>2017-06-25T09:24:36Z</time>
      </trkpt>
      <trkpt lat="45.83427" lon="-0.64821">
        <ele>12</ele>
        <time>2017-06-25T09:24:45Z</time>
      </trkpt>
      <trkpt lat="45.83427" lon="-0.64822">
        <ele>12</ele>
        <time>2017-06-25T09:24:46Z</time>
      </trkpt>
      <trkpt lat="45.83427" lon="-0.64824">
        <ele>12</ele>
        <time>2017-06-25T09:24:56Z</time>
      </trkpt>
      <trkpt lat="45.83427" lon="-0.64824">
        <ele>12</ele>
        <time>2017-06-25T09:25:31Z</time>
      </trkpt>
      <trkpt lat="45.83427" lon="-0.64822">
        <ele>12</ele>
        <time>2017-06-25T09:26:14Z</time>
      </trkpt>
      <trkpt lat="45.83427" lon="-0.64821">
        <ele>12</ele>
        <time>2017-06-25T09:26:18Z</time>
      </trkpt>
      <trkpt lat="45.83427" lon="-0.64823">
        <ele>12</ele>
        <time>2017-06-25T09:26:43Z</time>
      </trkpt>
      <trkpt lat="45.83426" lon="-0.64824">
        <ele>12</ele>
        <time>2017-06-25T09:26:44Z</time>
      </trkpt>
      <trkpt lat="45.83425" lon="-0.64824">
        <ele>12</ele>
        <time>2017-06-25T09:27:00Z</time>
      </trkpt>
      <trkpt lat="45.83424" lon="-0.64824">
        <ele>12</ele>
        <time>2017-06-25T09:27:02Z</time>
      </trkpt>
      <trkpt lat="45.83423" lon="-0.64823">
        <ele>12</ele>
        <time>2017-06-25T09:27:13Z</time>
      </trkpt>
      <trkpt lat="45.83423" lon="-0.64825">
        <ele>12</ele>
        <time>2017-06-25T09:27:16Z</time>
      </trkpt>
      <trkpt lat="45.83424" lon="-0.64826">
        <ele>11</ele>
        <time>2017-06-25T09:27:20Z</time>
      </trkpt>
      <trkpt lat="45.83426" lon="-0.64825">
        <ele>12</ele>
        <time>2017-06-25T09:27:29Z</time>
      </trkpt>
      <trkpt lat="45.83427" lon="-0.64826">
        <ele>12</ele>
        <time>2017-06-25T09:27:44Z</time>
      </trkpt>
      <trkpt lat="45.83427" lon="-0.64825">
        <ele>12</ele>
        <time>2017-06-25T09:27:50Z</time>
      </trkpt>
      <trkpt lat="45.83428" lon="-0.64823">
        <ele>12</ele>
        <time>2017-06-25T09:28:12Z</time>
      </trkpt>
      <trkpt lat="45.83428" lon="-0.64822">
        <ele>12</ele>
        <time>2017-06-25T09:28:33Z</time>
      </trkpt>
      <trkpt lat="45.83429" lon="-0.64821">
        <ele>12</ele>
        <time>2017-06-25T09:28:52Z</time>
      </trkpt>
      <trkpt lat="45.83429" lon="-0.6482">
        <ele>12</ele>
        <time>2017-06-25T09:29:17.999Z</time>
      </trkpt>
      <trkpt lat="45.8343" lon="-0.64819">
        <ele>12</ele>
        <time>2017-06-25T09:29:21.999Z</time>
      </trkpt>
      <trkpt lat="45.83431" lon="-0.6482">
        <ele>12</ele>
        <time>2017-06-25T09:29:51.999Z</time>
      </trkpt>
      <trkpt lat="45.8343" lon="-0.64821">
        <ele>12</ele>
        <time>2017-06-25T09:30:04.999Z</time>
      </trkpt>
      <trkpt lat="45.83431" lon="-0.64823">
        <ele>12</ele>
        <time>2017-06-25T09:30:07.999Z</time>
      </trkpt>
      <trkpt lat="45.83431" lon="-0.64824">
        <ele>12</ele>
        <time>2017-06-25T09:30:11.999Z</time>
      </trkpt>
      <trkpt lat="45.83429" lon="-0.64824">
        <ele>12</ele>
        <time>2017-06-25T09:30:14.999Z</time>
      </trkpt>
      <trkpt lat="45.83429" lon="-0.64823">
        <ele>12</ele>
        <time>2017-06-25T09:30:15.999Z</time>
      </trkpt>
      <trkpt lat="45.83428" lon="-0.64822">
        <ele>12</ele>
        <time>2017-06-25T09:30:17.999Z</time>
      </trkpt>
      <trkpt lat="45.83428" lon="-0.6482">
        <ele>12</ele>
        <time>2017-06-25T09:30:20.999Z</time>
      </trkpt>
      <trkpt lat="45.83428" lon="-0.64818">
        <ele>12</ele>
        <time>2017-06-25T09:30:22.999Z</time>
      </trkpt>
      <trkpt lat="45.83427" lon="-0.64817">
        <ele>12</ele>
        <time>2017-06-25T09:30:24.999Z</time>
      </trkpt>
      <trkpt lat="45.83427" lon="-0.64813">
        <ele>13</ele>
        <time>2017-06-25T09:30:25.999Z</time>
      </trkpt>
      <trkpt lat="45.83426" lon="-0.64811">
        <ele>13</ele>
        <time>2017-06-25T09:30:27.999Z</time>
      </trkpt>
      <trkpt lat="45.83426" lon="-0.6481">
        <ele>13</ele>
        <time>2017-06-25T09:30:28.999Z</time>
      </trkpt>
      <trkpt lat="45.83425" lon="-0.64808">
        <ele>13</ele>
        <time>2017-06-25T09:30:29.999Z</time>
      </trkpt>
      <trkpt lat="45.83424" lon="-0.64807">
        <ele>13</ele>
        <time>2017-06-25T09:30:30.999Z</time>
      </trkpt>
      <trkpt lat="45.83424" lon="-0.64806">
        <ele>13</ele>
        <time>2017-06-25T09:30:31.999Z</time>
      </trkpt>
      <trkpt lat="45.83423" lon="-0.64804">
        <ele>13</ele>
        <time>2017-06-25T09:30:32.999Z</time>
      </trkpt>
      <trkpt lat="45.83423" lon="-0.64802">
        <ele>14</ele>
        <time>2017-06-25T09:30:33.999Z</time>
      </trkpt>
      <trkpt lat="45.83422" lon="-0.648">
        <ele>14</ele>
        <time>2017-06-25T09:30:34.999Z</time>
      </trkpt>
      <trkpt lat="45.83421" lon="-0.64799">
        <ele>14</ele>
        <time>2017-06-25T09:30:35.999Z</time>
      </trkpt>
      <trkpt lat="45.83421" lon="-0.64796">
        <ele>14</ele>
        <time>2017-06-25T09:30:36.999Z</time>
      </trkpt>
      <trkpt lat="45.8342" lon="-0.64794">
        <ele>15</ele>
        <time>2017-06-25T09:30:38.999Z</time>
      </trkpt>
      <trkpt lat="45.83419" lon="-0.64792">
        <ele>15</ele>
        <time>2017-06-25T09:30:39.999Z</time>
      </trkpt>
      <trkpt lat="45.83419" lon="-0.6479">
        <ele>15</ele>
        <time>2017-06-25T09:30:40.999Z</time>
      </trkpt>
      <trkpt lat="45.83418" lon="-0.64789">
        <ele>15</ele>
        <time>2017-06-25T09:30:41.999Z</time>
      </trkpt>
      <trkpt lat="45.83418" lon="-0.64787">
        <ele>15</ele>
        <time>2017-06-25T09:30:42.999Z</time>
      </trkpt>
      <trkpt lat="45.83416" lon="-0.64786">
        <ele>15</ele>
        <time>2017-06-25T09:30:43.999Z</time>
      </trkpt>
      <trkpt lat="45.83416" lon="-0.64785">
        <ele>15</ele>
        <time>2017-06-25T09:30:45.999Z</time>
      </trkpt>
      <trkpt lat="45.83416" lon="-0.64783">
        <ele>15</ele>
        <time>2017-06-25T09:30:46.999Z</time>
      </trkpt>
      <trkpt lat="45.83415" lon="-0.64781">
        <ele>15</ele>
        <time>2017-06-25T09:30:48.999Z</time>
      </trkpt>
      <trkpt lat="45.83415" lon="-0.64779">
        <ele>15</ele>
        <time>2017-06-25T09:30:49.999Z</time>
      </trkpt>
      <trkpt lat="45.83415" lon="-0.64776">
        <ele>16</ele>
        <time>2017-06-25T09:30:51.999Z</time>
      </trkpt>
      <trkpt lat="45.83415" lon="-0.64775">
        <ele>16</ele>
        <time>2017-06-25T09:30:52.999Z</time>
      </trkpt>
      <trkpt lat="45.83414" lon="-0.64773">
        <ele>16</ele>
        <time>2017-06-25T09:30:53.999Z</time>
      </trkpt>
      <trkpt lat="45.83414" lon="-0.64772">
        <ele>16</ele>
        <time>2017-06-25T09:30:54.999Z</time>
      </trkpt>
      <trkpt lat="45.83414" lon="-0.6477">
        <ele>17</ele>
        <time>2017-06-25T09:30:56.999Z</time>
      </trkpt>
      <trkpt lat="45.83415" lon="-0.64768">
        <ele>17</ele>
        <time>2017-06-25T09:30:57.999Z</time>
      </trkpt>
      <trkpt lat="45.83415" lon="-0.64766">
        <ele>17</ele>
        <time>2017-06-25T09:30:58.999Z</time>
      </trkpt>
      <trkpt lat="45.83415" lon="-0.64765">
        <ele>18</ele>
        <time>2017-06-25T09:30:59.999Z</time>
      </trkpt>
      <trkpt lat="45.83415" lon="-0.64762">
        <ele>18</ele>
        <time>2017-06-25T09:31:01.999Z</time>
      </trkpt>
      <trkpt lat="45.83416" lon="-0.64761">
        <ele>19</ele>
        <time>2017-06-25T09:31:02.999Z</time>
      </trkpt>
      <trkpt lat="45.83416" lon="-0.64759">
        <ele>19</ele>
        <time>2017-06-25T09:31:03.999Z</time>
      </trkpt>
      <trkpt lat="45.83416" lon="-0.64757">
        <ele>20</ele>
        <time>2017-06-25T09:31:04.999Z</time>
      </trkpt>
      <trkpt lat="45.83416" lon="-0.64755">
        <ele>20</ele>
        <time>2017-06-25T09:31:05.999Z</time>
      </trkpt>
      <trkpt lat="45.83417" lon="-0.64754">
        <ele>21</ele>
        <time>2017-06-25T09:31:06.999Z</time>
      </trkpt>
      <trkpt lat="45.83417" lon="-0.64752">
        <ele>21</ele>
        <time>2017-06-25T09:31:07.999Z</time>
      </trkpt>
      <trkpt lat="45.83418" lon="-0.64749">
        <ele>22</ele>
        <time>2017-06-25T09:31:08.999Z</time>
      </trkpt>
      <trkpt lat="45.83418" lon="-0.64746">
        <ele>22</ele>
        <time>2017-06-25T09:31:09.999Z</time>
      </trkpt>
      <trkpt lat="45.83419" lon="-0.64744">
        <ele>22</ele>
        <time>2017-06-25T09:31:10.999Z</time>
      </trkpt>
      <trkpt lat="45.83419" lon="-0.64742">
        <ele>21</ele>
        <time>2017-06-25T09:31:11.999Z</time>
      </trkpt>
      <trkpt lat="45.83419" lon="-0.6474">
        <ele>21</ele>
        <time>2017-06-25T09:31:12.999Z</time>
      </trkpt>
      <trkpt lat="45.83419" lon="-0.64738">
        <ele>21</ele>
        <time>2017-06-25T09:31:13.999Z</time>
      </trkpt>
      <trkpt lat="45.83419" lon="-0.64737">
        <ele>21</ele>
        <time>2017-06-25T09:31:14.999Z</time>
      </trkpt>
      <trkpt lat="45.8342" lon="-0.64735">
        <ele>21</ele>
        <time>2017-06-25T09:31:15.999Z</time>
      </trkpt>
      <trkpt lat="45.8342" lon="-0.64734">
        <ele>21</ele>
        <time>2017-06-25T09:31:16.999Z</time>
      </trkpt>
      <trkpt lat="45.83421" lon="-0.64733">
        <ele>21</ele>
        <time>2017-06-25T09:31:17.999Z</time>
      </trkpt>
      <trkpt lat="45.83421" lon="-0.64731">
        <ele>21</ele>
        <time>2017-06-25T09:31:18.999Z</time>
      </trkpt>
      <trkpt lat="45.83422" lon="-0.6473">
        <ele>21</ele>
        <time>2017-06-25T09:31:20.999Z</time>
      </trkpt>
      <trkpt lat="45.83423" lon="-0.64728">
        <ele>21</ele>
        <time>2017-06-25T09:31:21.999Z</time>
      </trkpt>
      <trkpt lat="45.83424" lon="-0.64727">
        <ele>21</ele>
        <time>2017-06-25T09:31:22.999Z</time>
      </trkpt>
      <trkpt lat="45.83425" lon="-0.64726">
        <ele>21</ele>
        <time>2017-06-25T09:31:23.999Z</time>
      </trkpt>
      <trkpt lat="45.83426" lon="-0.64725">
        <ele>21</ele>
        <time>2017-06-25T09:31:25.999Z</time>
      </trkpt>
      <trkpt lat="45.83427" lon="-0.64724">
        <ele>21</ele>
        <time>2017-06-25T09:31:26.999Z</time>
      </trkpt>
      <trkpt lat="45.83428" lon="-0.64724">
        <ele>21</ele>
        <time>2017-06-25T09:31:27.999Z</time>
      </trkpt>
      <trkpt lat="45.83429" lon="-0.64723">
        <ele>21</ele>
        <time>2017-06-25T09:31:28.999Z</time>
      </trkpt>
      <trkpt lat="45.8343" lon="-0.64722">
        <ele>21</ele>
        <time>2017-06-25T09:31:29.999Z</time>
      </trkpt>
      <trkpt lat="45.83431" lon="-0.64721">
        <ele>21</ele>
        <time>2017-06-25T09:31:30.999Z</time>
      </trkpt>
      <trkpt lat="45.83432" lon="-0.6472">
        <ele>21</ele>
        <time>2017-06-25T09:31:31.999Z</time>
      </trkpt>
      <trkpt lat="45.83433" lon="-0.64719">
        <ele>21</ele>
        <time>2017-06-25T09:31:32.999Z</time>
      </trkpt>
      <trkpt lat="45.83434" lon="-0.64718">
        <ele>21</ele>
        <time>2017-06-25T09:31:33.999Z</time>
      </trkpt>
      <trkpt lat="45.83435" lon="-0.64717">
        <ele>21</ele>
        <time>2017-06-25T09:31:34.999Z</time>
      </trkpt>
      <trkpt lat="45.83436" lon="-0.64715">
        <ele>21</ele>
        <time>2017-06-25T09:31:35.999Z</time>
      </trkpt>
      <trkpt lat="45.83437" lon="-0.64714">
        <ele>21</ele>
        <time>2017-06-25T09:31:36.999Z</time>
      </trkpt>
      <trkpt lat="45.83437" lon="-0.64712">
        <ele>21</ele>
        <time>2017-06-25T09:31:37.999Z</time>
      </trkpt>
      <trkpt lat="45.83438" lon="-0.6471">
        <ele>21</ele>
        <time>2017-06-25T09:31:38.999Z</time>
      </trkpt>
      <trkpt lat="45.83439" lon="-0.64709">
        <ele>21</ele>
        <time>2017-06-25T09:31:39.999Z</time>
      </trkpt>
      <trkpt lat="45.8344" lon="-0.64708">
        <ele>21</ele>
        <time>2017-06-25T09:31:40.999Z</time>
      </trkpt>
      <trkpt lat="45.8344" lon="-0.64707">
        <ele>21</ele>
        <time>2017-06-25T09:31:41.999Z</time>
      </trkpt>
      <trkpt lat="45.83442" lon="-0.64705">
        <ele>21</ele>
        <time>2017-06-25T09:31:42.999Z</time>
      </trkpt>
      <trkpt lat="45.83442" lon="-0.64704">
        <ele>21</ele>
        <time>2017-06-25T09:31:43.999Z</time>
      </trkpt>
      <trkpt lat="45.83443" lon="-0.64703">
        <ele>21</ele>
        <time>2017-06-25T09:31:44.999Z</time>
      </trkpt>
      <trkpt lat="45.83444" lon="-0.64702">
        <ele>21</ele>
        <time>2017-06-25T09:31:45.999Z</time>
      </trkpt>
      <trkpt lat="45.83445" lon="-0.64701">
        <ele>21</ele>
        <time>2017-06-25T09:31:46.999Z</time>
      </trkpt>
      <trkpt lat="45.83446" lon="-0.64699">
        <ele>21</ele>
        <time>2017-06-25T09:31:48.999Z</time>
      </trkpt>
      <trkpt lat="45.83447" lon="-0.64698">
        <ele>21</ele>
        <time>2017-06-25T09:31:49.999Z</time>
      </trkpt>
      <trkpt lat="45.83448" lon="-0.64697">
        <ele>21</ele>
        <time>2017-06-25T09:31:50.999Z</time>
      </trkpt>
      <trkpt lat="45.83449" lon="-0.64696">
        <ele>21</ele>
        <time>2017-06-25T09:31:51.999Z</time>
      </trkpt>
      <trkpt lat="45.8345" lon="-0.64694">
        <ele>21</ele>
        <time>2017-06-25T09:31:53.999Z</time>
      </trkpt>
      <trkpt lat="45.83452" lon="-0.64693">
        <ele>21</ele>
        <time>2017-06-25T09:31:54.999Z</time>
      </trkpt>
      <trkpt lat="45.83452" lon="-0.64692">
        <ele>21</ele>
        <time>2017-06-25T09:31:55.999Z</time>
      </trkpt>
      <trkpt lat="45.83453" lon="-0.64691">
        <ele>21</ele>
        <time>2017-06-25T09:31:56.999Z</time>
      </trkpt>
      <trkpt lat="45.83454" lon="-0.64689">
        <ele>21</ele>
        <time>2017-06-25T09:31:57.999Z</time>
      </trkpt>
      <trkpt lat="45.83455" lon="-0.64688">
        <ele>21</ele>
        <time>2017-06-25T09:31:58.999Z</time>
      </trkpt>
      <trkpt lat="45.83456" lon="-0.64687">
        <ele>21</ele>
        <time>2017-06-25T09:31:59.999Z</time>
      </trkpt>
      <trkpt lat="45.83457" lon="-0.64685">
        <ele>21</ele>
        <time>2017-06-25T09:32:00.999Z</time>
      </trkpt>
      <trkpt lat="45.83458" lon="-0.64684">
        <ele>21</ele>
        <time>2017-06-25T09:32:01.999Z</time>
      </trkpt>
      <trkpt lat="45.83459" lon="-0.64683">
        <ele>21</ele>
        <time>2017-06-25T09:32:02.999Z</time>
      </trkpt>
      <trkpt lat="45.83459" lon="-0.64681">
        <ele>21</ele>
        <time>2017-06-25T09:32:03.999Z</time>
      </trkpt>
      <trkpt lat="45.8346" lon="-0.6468">
        <ele>21</ele>
        <time>2017-06-25T09:32:04.999Z</time>
      </trkpt>
      <trkpt lat="45.8346" lon="-0.64679">
        <ele>21</ele>
        <time>2017-06-25T09:32:05.999Z</time>
      </trkpt>
      <trkpt lat="45.83462" lon="-0.64677">
        <ele>21</ele>
        <time>2017-06-25T09:32:07.999Z</time>
      </trkpt>
      <trkpt lat="45.83463" lon="-0.64676">
        <ele>21</ele>
        <time>2017-06-25T09:32:08.999Z</time>
      </trkpt>
      <trkpt lat="45.83463" lon="-0.64674">
        <ele>21</ele>
        <time>2017-06-25T09:32:09.999Z</time>
      </trkpt>
      <trkpt lat="45.83464" lon="-0.64673">
        <ele>21</ele>
        <time>2017-06-25T09:32:10.999Z</time>
      </trkpt>
      <trkpt lat="45.83465" lon="-0.64672">
        <ele>21</ele>
        <time>2017-06-25T09:32:11.999Z</time>
      </trkpt>
      <trkpt lat="45.83466" lon="-0.6467">
        <ele>21</ele>
        <time>2017-06-25T09:32:12.999Z</time>
      </trkpt>
      <trkpt lat="45.83467" lon="-0.64669">
        <ele>21</ele>
        <time>2017-06-25T09:32:13.999Z</time>
      </trkpt>
      <trkpt lat="45.83468" lon="-0.64667">
        <ele>21</ele>
        <time>2017-06-25T09:32:15.999Z</time>
      </trkpt>
      <trkpt lat="45.83468" lon="-0.64666">
        <ele>21</ele>
        <time>2017-06-25T09:32:16.999Z</time>
      </trkpt>
      <trkpt lat="45.83469" lon="-0.64664">
        <ele>21</ele>
        <time>2017-06-25T09:32:17.999Z</time>
      </trkpt>
      <trkpt lat="45.83469" lon="-0.64662">
        <ele>21</ele>
        <time>2017-06-25T09:32:19.999Z</time>
      </trkpt>
      <trkpt lat="45.8347" lon="-0.64661">
        <ele>21</ele>
        <time>2017-06-25T09:32:20.999Z</time>
      </trkpt>
      <trkpt lat="45.83471" lon="-0.64658">
        <ele>21</ele>
        <time>2017-06-25T09:32:22.999Z</time>
      </trkpt>
      <trkpt lat="45.83472" lon="-0.64657">
        <ele>21</ele>
        <time>2017-06-25T09:32:23.999Z</time>
      </trkpt>
      <trkpt lat="45.83473" lon="-0.64655">
        <ele>21</ele>
        <time>2017-06-25T09:32:24.999Z</time>
      </trkpt>
      <trkpt lat="45.83474" lon="-0.64654">
        <ele>21</ele>
        <time>2017-06-25T09:32:25.999Z</time>
      </trkpt>
      <trkpt lat="45.83475" lon="-0.64653">
        <ele>21</ele>
        <time>2017-06-25T09:32:26.999Z</time>
      </trkpt>
      <trkpt lat="45.83476" lon="-0.64651">
        <ele>21</ele>
        <time>2017-06-25T09:32:27.999Z</time>
      </trkpt>
      <trkpt lat="45.83476" lon="-0.64649">
        <ele>21</ele>
        <time>2017-06-25T09:32:29.999Z</time>
      </trkpt>
      <trkpt lat="45.83476" lon="-0.64648">
        <ele>21</ele>
        <time>2017-06-25T09:32:30.999Z</time>
      </trkpt>
      <trkpt lat="45.83477" lon="-0.64646">
        <ele>21</ele>
        <time>2017-06-25T09:32:31.999Z</time>
      </trkpt>
      <trkpt lat="45.83479" lon="-0.64644">
        <ele>21</ele>
        <time>2017-06-25T09:32:33.999Z</time>
      </trkpt>
      <trkpt lat="45.83479" lon="-0.64643">
        <ele>21</ele>
        <time>2017-06-25T09:32:34.999Z</time>
      </trkpt>
      <trkpt lat="45.83481" lon="-0.64642">
        <ele>21</ele>
        <time>2017-06-25T09:32:36.999Z</time>
      </trkpt>
      <trkpt lat="45.83482" lon="-0.64641">
        <ele>21</ele>
        <time>2017-06-25T09:32:38.999Z</time>
      </trkpt>
      <trkpt lat="45.83483" lon="-0.64639">
        <ele>21</ele>
        <time>2017-06-25T09:32:39.999Z</time>
      </trkpt>
      <trkpt lat="45.83484" lon="-0.64638">
        <ele>21</ele>
        <time>2017-06-25T09:32:40.999Z</time>
      </trkpt>
      <trkpt lat="45.83485" lon="-0.64636">
        <ele>21</ele>
        <time>2017-06-25T09:32:41.999Z</time>
      </trkpt>
      <trkpt lat="45.83487" lon="-0.64634">
        <ele>21</ele>
        <time>2017-06-25T09:32:42.999Z</time>
      </trkpt>
      <trkpt lat="45.83489" lon="-0.64633">
        <ele>21</ele>
        <time>2017-06-25T09:32:43.999Z</time>
      </trkpt>
      <trkpt lat="45.8349" lon="-0.64631">
        <ele>21</ele>
        <time>2017-06-25T09:32:44.999Z</time>
      </trkpt>
      <trkpt lat="45.83492" lon="-0.64629">
        <ele>21</ele>
        <time>2017-06-25T09:32:45.999Z</time>
      </trkpt>
      <trkpt lat="45.83493" lon="-0.64628">
        <ele>21</ele>
        <time>2017-06-25T09:32:46.999Z</time>
      </trkpt>
      <trkpt lat="45.83494" lon="-0.64626">
        <ele>21</ele>
        <time>2017-06-25T09:32:47.999Z</time>
      </trkpt>
      <trkpt lat="45.83495" lon="-0.64625">
        <ele>21</ele>
        <time>2017-06-25T09:32:48.999Z</time>
      </trkpt>
      <trkpt lat="45.83496" lon="-0.64624">
        <ele>21</ele>
        <time>2017-06-25T09:32:49.999Z</time>
      </trkpt>
      <trkpt lat="45.83497" lon="-0.64622">
        <ele>21</ele>
        <time>2017-06-25T09:32:50.999Z</time>
      </trkpt>
      <trkpt lat="45.83497" lon="-0.64621">
        <ele>21</ele>
        <time>2017-06-25T09:32:52.999Z</time>
      </trkpt>
      <trkpt lat="45.83497" lon="-0.64619">
        <ele>21</ele>
        <time>2017-06-25T09:32:54.999Z</time>
      </trkpt>
      <trkpt lat="45.83498" lon="-0.64617">
        <ele>21</ele>
        <time>2017-06-25T09:32:57.999Z</time>
      </trkpt>
      <trkpt lat="45.83497" lon="-0.64616">
        <ele>21</ele>
        <time>2017-06-25T09:32:59.999Z</time>
      </trkpt>
      <trkpt lat="45.83498" lon="-0.64613">
        <ele>21</ele>
        <time>2017-06-25T09:33:00.999Z</time>
      </trkpt>
      <trkpt lat="45.83497" lon="-0.64611">
        <ele>21</ele>
        <time>2017-06-25T09:33:01.999Z</time>
      </trkpt>
      <trkpt lat="45.83496" lon="-0.64608">
        <ele>21</ele>
        <time>2017-06-25T09:33:02.999Z</time>
      </trkpt>
      <trkpt lat="45.83496" lon="-0.64607">
        <ele>21</ele>
        <time>2017-06-25T09:33:03.999Z</time>
      </trkpt>
      <trkpt lat="45.83495" lon="-0.64605">
        <ele>21</ele>
        <time>2017-06-25T09:33:04.999Z</time>
      </trkpt>
      <trkpt lat="45.83495" lon="-0.64602">
        <ele>21</ele>
        <time>2017-06-25T09:33:05.999Z</time>
      </trkpt>
      <trkpt lat="45.83494" lon="-0.646">
        <ele>21</ele>
        <time>2017-06-25T09:33:06.999Z</time>
      </trkpt>
      <trkpt lat="45.83493" lon="-0.64598">
        <ele>21</ele>
        <time>2017-06-25T09:33:08.999Z</time>
      </trkpt>
      <trkpt lat="45.83492" lon="-0.64597">
        <ele>21</ele>
        <time>2017-06-25T09:33:09.999Z</time>
      </trkpt>
      <trkpt lat="45.83491" lon="-0.64596">
        <ele>21</ele>
        <time>2017-06-25T09:33:10.999Z</time>
      </trkpt>
      <trkpt lat="45.8349" lon="-0.64595">
        <ele>21</ele>
        <time>2017-06-25T09:33:11.999Z</time>
      </trkpt>
      <trkpt lat="45.83489" lon="-0.64594">
        <ele>21</ele>
        <time>2017-06-25T09:33:12.999Z</time>
      </trkpt>
      <trkpt lat="45.83488" lon="-0.64593">
        <ele>21</ele>
        <time>2017-06-25T09:33:13.999Z</time>
      </trkpt>
      <trkpt lat="45.83487" lon="-0.64591">
        <ele>21</ele>
        <time>2017-06-25T09:33:14.999Z</time>
      </trkpt>
      <trkpt lat="45.83487" lon="-0.6459">
        <ele>21</ele>
        <time>2017-06-25T09:33:15.999Z</time>
      </trkpt>
      <trkpt lat="45.83485" lon="-0.64588">
        <ele>21</ele>
        <time>2017-06-25T09:33:16.999Z</time>
      </trkpt>
      <trkpt lat="45.83485" lon="-0.64586">
        <ele>21</ele>
        <time>2017-06-25T09:33:17.999Z</time>
      </trkpt>
      <trkpt lat="45.83484" lon="-0.64584">
        <ele>21</ele>
        <time>2017-06-25T09:33:18.999Z</time>
      </trkpt>
      <trkpt lat="45.83483" lon="-0.64583">
        <ele>20</ele>
        <time>2017-06-25T09:33:19.999Z</time>
      </trkpt>
      <trkpt lat="45.83481" lon="-0.64582">
        <ele>20</ele>
        <time>2017-06-25T09:33:20.999Z</time>
      </trkpt>
      <trkpt lat="45.8348" lon="-0.64581">
        <ele>20</ele>
        <time>2017-06-25T09:33:21.999Z</time>
      </trkpt>
      <trkpt lat="45.83479" lon="-0.64579">
        <ele>20</ele>
        <time>2017-06-25T09:33:22.999Z</time>
      </trkpt>
      <trkpt lat="45.83479" lon="-0.64578">
        <ele>19</ele>
        <time>2017-06-25T09:33:23.999Z</time>
      </trkpt>
      <trkpt lat="45.83478" lon="-0.64577">
        <ele>19</ele>
        <time>2017-06-25T09:33:24.999Z</time>
      </trkpt>
      <trkpt lat="45.83477" lon="-0.64576">
        <ele>19</ele>
        <time>2017-06-25T09:33:25.999Z</time>
      </trkpt>
      <trkpt lat="45.83476" lon="-0.64575">
        <ele>19</ele>
        <time>2017-06-25T09:33:26.999Z</time>
      </trkpt>
      <trkpt lat="45.83475" lon="-0.64573">
        <ele>19</ele>
        <time>2017-06-25T09:33:28.999Z</time>
      </trkpt>
      <trkpt lat="45.83474" lon="-0.64571">
        <ele>19</ele>
        <time>2017-06-25T09:33:29.999Z</time>
      </trkpt>
      <trkpt lat="45.83472" lon="-0.6457">
        <ele>19</ele>
        <time>2017-06-25T09:33:30.999Z</time>
      </trkpt>
      <trkpt lat="45.83471" lon="-0.64568">
        <ele>19</ele>
        <time>2017-06-25T09:33:31.999Z</time>
      </trkpt>
      <trkpt lat="45.8347" lon="-0.64566">
        <ele>19</ele>
        <time>2017-06-25T09:33:33.999Z</time>
      </trkpt>
      <trkpt lat="45.83468" lon="-0.64565">
        <ele>19</ele>
        <time>2017-06-25T09:33:34.999Z</time>
      </trkpt>
      <trkpt lat="45.83467" lon="-0.64563">
        <ele>18</ele>
        <time>2017-06-25T09:33:35.999Z</time>
      </trkpt>
      <trkpt lat="45.83466" lon="-0.64562">
        <ele>18</ele>
        <time>2017-06-25T09:33:36.999Z</time>
      </trkpt>
      <trkpt lat="45.83465" lon="-0.6456">
        <ele>18</ele>
        <time>2017-06-25T09:33:37.999Z</time>
      </trkpt>
      <trkpt lat="45.83464" lon="-0.64559">
        <ele>18</ele>
        <time>2017-06-25T09:33:38.999Z</time>
      </trkpt>
      <trkpt lat="45.83462" lon="-0.64558">
        <ele>18</ele>
        <time>2017-06-25T09:33:39.999Z</time>
      </trkpt>
      <trkpt lat="45.83461" lon="-0.64557">
        <ele>18</ele>
        <time>2017-06-25T09:33:41.999Z</time>
      </trkpt>
      <trkpt lat="45.8346" lon="-0.64556">
        <ele>18</ele>
        <time>2017-06-25T09:33:42.999Z</time>
      </trkpt>
      <trkpt lat="45.83459" lon="-0.64554">
        <ele>18</ele>
        <time>2017-06-25T09:33:43.999Z</time>
      </trkpt>
      <trkpt lat="45.83458" lon="-0.64553">
        <ele>18</ele>
        <time>2017-06-25T09:33:44.999Z</time>
      </trkpt>
      <trkpt lat="45.83458" lon="-0.64552">
        <ele>18</ele>
        <time>2017-06-25T09:33:45.999Z</time>
      </trkpt>
      <trkpt lat="45.83457" lon="-0.64551">
        <ele>18</ele>
        <time>2017-06-25T09:33:47.999Z</time>
      </trkpt>
      <trkpt lat="45.83455" lon="-0.64549">
        <ele>18</ele>
        <time>2017-06-25T09:33:48.999Z</time>
      </trkpt>
      <trkpt lat="45.83455" lon="-0.64547">
        <ele>18</ele>
        <time>2017-06-25T09:33:49.999Z</time>
      </trkpt>
      <trkpt lat="45.83455" lon="-0.64546">
        <ele>18</ele>
        <time>2017-06-25T09:33:51.999Z</time>
      </trkpt>
      <trkpt lat="45.83454" lon="-0.64545">
        <ele>18</ele>
        <time>2017-06-25T09:33:53.999Z</time>
      </trkpt>
      <trkpt lat="45.83452" lon="-0.64545">
        <ele>18</ele>
        <time>2017-06-25T09:33:54.999Z</time>
      </trkpt>
      <trkpt lat="45.83451" lon="-0.64544">
        <ele>17</ele>
        <time>2017-06-25T09:33:55.999Z</time>
      </trkpt>
      <trkpt lat="45.8345" lon="-0.64543">
        <ele>17</ele>
        <time>2017-06-25T09:33:56.999Z</time>
      </trkpt>
      <trkpt lat="45.83449" lon="-0.64543">
        <ele>17</ele>
        <time>2017-06-25T09:33:57.999Z</time>
      </trkpt>
      <trkpt lat="45.83448" lon="-0.64544">
        <ele>17</ele>
        <time>2017-06-25T09:33:58.999Z</time>
      </trkpt>
      <trkpt lat="45.83447" lon="-0.64544">
        <ele>17</ele>
        <time>2017-06-25T09:33:59.999Z</time>
      </trkpt>
      <trkpt lat="45.83446" lon="-0.64545">
        <ele>17</ele>
        <time>2017-06-25T09:34:02.999Z</time>
      </trkpt>
      <trkpt lat="45.83447" lon="-0.64547">
        <ele>17</ele>
        <time>2017-06-25T09:34:03.999Z</time>
      </trkpt>
      <trkpt lat="45.83447" lon="-0.64548">
        <ele>17</ele>
        <time>2017-06-25T09:34:04.999Z</time>
      </trkpt>
      <trkpt lat="45.83449" lon="-0.64549">
        <ele>17</ele>
        <time>2017-06-25T09:34:05.999Z</time>
      </trkpt>
      <trkpt lat="45.8345" lon="-0.6455">
        <ele>18</ele>
        <time>2017-06-25T09:34:06.999Z</time>
      </trkpt>
      <trkpt lat="45.8345" lon="-0.64552">
        <ele>18</ele>
        <time>2017-06-25T09:34:07.999Z</time>
      </trkpt>
      <trkpt lat="45.83451" lon="-0.64553">
        <ele>18</ele>
        <time>2017-06-25T09:34:08.999Z</time>
      </trkpt>
      <trkpt lat="45.83452" lon="-0.64555">
        <ele>18</ele>
        <time>2017-06-25T09:34:09.999Z</time>
      </trkpt>
      <trkpt lat="45.83453" lon="-0.64556">
        <ele>18</ele>
        <time>2017-06-25T09:34:10.999Z</time>
      </trkpt>
      <trkpt lat="45.83453" lon="-0.64558">
        <ele>18</ele>
        <time>2017-06-25T09:34:11.999Z</time>
      </trkpt>
      <trkpt lat="45.83453" lon="-0.6456">
        <ele>18</ele>
        <time>2017-06-25T09:34:13.999Z</time>
      </trkpt>
      <trkpt lat="45.83455" lon="-0.64561">
        <ele>18</ele>
        <time>2017-06-25T09:34:14.999Z</time>
      </trkpt>
      <trkpt lat="45.83456" lon="-0.64562">
        <ele>18</ele>
        <time>2017-06-25T09:34:15.999Z</time>
      </trkpt>
      <trkpt lat="45.83457" lon="-0.64564">
        <ele>18</ele>
        <time>2017-06-25T09:34:16.999Z</time>
      </trkpt>
      <trkpt lat="45.83457" lon="-0.64565">
        <ele>18</ele>
        <time>2017-06-25T09:34:17.999Z</time>
      </trkpt>
      <trkpt lat="45.83458" lon="-0.64566">
        <ele>18</ele>
        <time>2017-06-25T09:34:18.999Z</time>
      </trkpt>
      <trkpt lat="45.83459" lon="-0.64566">
        <ele>18</ele>
        <time>2017-06-25T09:34:19.999Z</time>
      </trkpt>
      <trkpt lat="45.8346" lon="-0.64568">
        <ele>18</ele>
        <time>2017-06-25T09:34:20.999Z</time>
      </trkpt>
      <trkpt lat="45.83459" lon="-0.6457">
        <ele>18</ele>
        <time>2017-06-25T09:34:21.999Z</time>
      </trkpt>
      <trkpt lat="45.83458" lon="-0.64571">
        <ele>18</ele>
        <time>2017-06-25T09:34:22.999Z</time>
      </trkpt>
      <trkpt lat="45.83458" lon="-0.64572">
        <ele>18</ele>
        <time>2017-06-25T09:34:23.999Z</time>
      </trkpt>
      <trkpt lat="45.83457" lon="-0.64576">
        <ele>18</ele>
        <time>2017-06-25T09:34:25.999Z</time>
      </trkpt>
      <trkpt lat="45.83456" lon="-0.64577">
        <ele>18</ele>
        <time>2017-06-25T09:34:26.999Z</time>
      </trkpt>
      <trkpt lat="45.83455" lon="-0.64578">
        <ele>18</ele>
        <time>2017-06-25T09:34:27.999Z</time>
      </trkpt>
      <trkpt lat="45.83454" lon="-0.6458">
        <ele>18</ele>
        <time>2017-06-25T09:34:28.999Z</time>
      </trkpt>
      <trkpt lat="45.83453" lon="-0.64582">
        <ele>18</ele>
        <time>2017-06-25T09:34:29.999Z</time>
      </trkpt>
      <trkpt lat="45.83453" lon="-0.64584">
        <ele>20</ele>
        <time>2017-06-25T09:34:30.999Z</time>
      </trkpt>
      <trkpt lat="45.83452" lon="-0.64585">
        <ele>20</ele>
        <time>2017-06-25T09:34:31.999Z</time>
      </trkpt>
      <trkpt lat="45.83451" lon="-0.64587">
        <ele>20</ele>
        <time>2017-06-25T09:34:32.999Z</time>
      </trkpt>
      <trkpt lat="45.8345" lon="-0.64589">
        <ele>20</ele>
        <time>2017-06-25T09:34:33.999Z</time>
      </trkpt>
      <trkpt lat="45.8345" lon="-0.6459">
        <ele>20</ele>
        <time>2017-06-25T09:34:34.999Z</time>
      </trkpt>
      <trkpt lat="45.83449" lon="-0.64591">
        <ele>20</ele>
        <time>2017-06-25T09:34:35.999Z</time>
      </trkpt>
      <trkpt lat="45.83448" lon="-0.64592">
        <ele>20</ele>
        <time>2017-06-25T09:34:36.999Z</time>
      </trkpt>
      <trkpt lat="45.83447" lon="-0.64594">
        <ele>20</ele>
        <time>2017-06-25T09:34:37.999Z</time>
      </trkpt>
      <trkpt lat="45.83447" lon="-0.64596">
        <ele>20</ele>
        <time>2017-06-25T09:34:38.999Z</time>
      </trkpt>
      <trkpt lat="45.83445" lon="-0.64597">
        <ele>20</ele>
        <time>2017-06-25T09:34:39.999Z</time>
      </trkpt>
      <trkpt lat="45.83444" lon="-0.64598">
        <ele>19</ele>
        <time>2017-06-25T09:34:40.999Z</time>
      </trkpt>
      <trkpt lat="45.83443" lon="-0.64599">
        <ele>19</ele>
        <time>2017-06-25T09:34:41.999Z</time>
      </trkpt>
      <trkpt lat="45.83442" lon="-0.646">
        <ele>19</ele>
        <time>2017-06-25T09:34:42.999Z</time>
      </trkpt>
      <trkpt lat="45.83441" lon="-0.64601">
        <ele>19</ele>
        <time>2017-06-25T09:34:43.999Z</time>
      </trkpt>
      <trkpt lat="45.8344" lon="-0.64602">
        <ele>19</ele>
        <time>2017-06-25T09:34:44.999Z</time>
      </trkpt>
      <trkpt lat="45.83439" lon="-0.64603">
        <ele>19</ele>
        <time>2017-06-25T09:34:46.999Z</time>
      </trkpt>
      <trkpt lat="45.83437" lon="-0.64604">
        <ele>19</ele>
        <time>2017-06-25T09:34:47.999Z</time>
      </trkpt>
      <trkpt lat="45.83437" lon="-0.64605">
        <ele>19</ele>
        <time>2017-06-25T09:34:48.999Z</time>
      </trkpt>
      <trkpt lat="45.83435" lon="-0.64606">
        <ele>19</ele>
        <time>2017-06-25T09:34:49.999Z</time>
      </trkpt>
      <trkpt lat="45.83434" lon="-0.64606">
        <ele>19</ele>
        <time>2017-06-25T09:34:50.999Z</time>
      </trkpt>
      <trkpt lat="45.83433" lon="-0.64608">
        <ele>19</ele>
        <time>2017-06-25T09:34:51.999Z</time>
      </trkpt>
      <trkpt lat="45.83432" lon="-0.64609">
        <ele>19</ele>
        <time>2017-06-25T09:34:52.999Z</time>
      </trkpt>
      <trkpt lat="45.83431" lon="-0.64609">
        <ele>19</ele>
        <time>2017-06-25T09:34:53.999Z</time>
      </trkpt>
      <trkpt lat="45.83429" lon="-0.6461">
        <ele>19</ele>
        <time>2017-06-25T09:34:55.999Z</time>
      </trkpt>
      <trkpt lat="45.83428" lon="-0.64611">
        <ele>20</ele>
        <time>2017-06-25T09:34:56.999Z</time>
      </trkpt>
      <trkpt lat="45.83427" lon="-0.64613">
        <ele>20</ele>
        <time>2017-06-25T09:34:57.999Z</time>
      </trkpt>
      <trkpt lat="45.83426" lon="-0.64613">
        <ele>20</ele>
        <time>2017-06-25T09:34:58.999Z</time>
      </trkpt>
      <trkpt lat="45.83425" lon="-0.64614">
        <ele>20</ele>
        <time>2017-06-25T09:34:59.999Z</time>
      </trkpt>
      <trkpt lat="45.83424" lon="-0.64615">
        <ele>20</ele>
        <time>2017-06-25T09:35:00.999Z</time>
      </trkpt>
      <trkpt lat="45.83423" lon="-0.64615">
        <ele>20</ele>
        <time>2017-06-25T09:35:01.999Z</time>
      </trkpt>
      <trkpt lat="45.83422" lon="-0.64617">
        <ele>20</ele>
        <time>2017-06-25T09:35:02.999Z</time>
      </trkpt>
      <trkpt lat="45.83421" lon="-0.64617">
        <ele>20</ele>
        <time>2017-06-25T09:35:03.999Z</time>
      </trkpt>
      <trkpt lat="45.8342" lon="-0.64618">
        <ele>20</ele>
        <time>2017-06-25T09:35:04.999Z</time>
      </trkpt>
      <trkpt lat="45.83419" lon="-0.64618">
        <ele>20</ele>
        <time>2017-06-25T09:35:05.999Z</time>
      </trkpt>
      <trkpt lat="45.83418" lon="-0.64619">
        <ele>20</ele>
        <time>2017-06-25T09:35:06.999Z</time>
      </trkpt>
      <trkpt lat="45.83417" lon="-0.64619">
        <ele>20</ele>
        <time>2017-06-25T09:35:07.999Z</time>
      </trkpt>
      <trkpt lat="45.83415" lon="-0.6462">
        <ele>17</ele>
        <time>2017-06-25T09:35:09.999Z</time>
      </trkpt>
      <trkpt lat="45.83414" lon="-0.64621">
        <ele>17</ele>
        <time>2017-06-25T09:35:10.999Z</time>
      </trkpt>
      <trkpt lat="45.83413" lon="-0.64622">
        <ele>17</ele>
        <time>2017-06-25T09:35:11.999Z</time>
      </trkpt>
      <trkpt lat="45.83412" lon="-0.64622">
        <ele>17</ele>
        <time>2017-06-25T09:35:12.999Z</time>
      </trkpt>
      <trkpt lat="45.83411" lon="-0.64622">
        <ele>17</ele>
        <time>2017-06-25T09:35:13.999Z</time>
      </trkpt>
      <trkpt lat="45.83409" lon="-0.64623">
        <ele>17</ele>
        <time>2017-06-25T09:35:14.999Z</time>
      </trkpt>
      <trkpt lat="45.83408" lon="-0.64624">
        <ele>17</ele>
        <time>2017-06-25T09:35:15.999Z</time>
      </trkpt>
      <trkpt lat="45.83407" lon="-0.64625">
        <ele>17</ele>
        <time>2017-06-25T09:35:16.999Z</time>
      </trkpt>
      <trkpt lat="45.83405" lon="-0.64625">
        <ele>17</ele>
        <time>2017-06-25T09:35:18.999Z</time>
      </trkpt>
      <trkpt lat="45.83403" lon="-0.64627">
        <ele>17</ele>
        <time>2017-06-25T09:35:20.999Z</time>
      </trkpt>
      <trkpt lat="45.83403" lon="-0.64628">
        <ele>17</ele>
        <time>2017-06-25T09:35:21.999Z</time>
      </trkpt>
      <trkpt lat="45.83401" lon="-0.64629">
        <ele>17</ele>
        <time>2017-06-25T09:35:23.999Z</time>
      </trkpt>
      <trkpt lat="45.83399" lon="-0.64631">
        <ele>17</ele>
        <time>2017-06-25T09:35:24.999Z</time>
      </trkpt>
      <trkpt lat="45.83398" lon="-0.64632">
        <ele>17</ele>
        <time>2017-06-25T09:35:25.999Z</time>
      </trkpt>
      <trkpt lat="45.83396" lon="-0.64634">
        <ele>17</ele>
        <time>2017-06-25T09:35:26.999Z</time>
      </trkpt>
      <trkpt lat="45.83395" lon="-0.64635">
        <ele>17</ele>
        <time>2017-06-25T09:35:27.999Z</time>
      </trkpt>
      <trkpt lat="45.83393" lon="-0.64636">
        <ele>17</ele>
        <time>2017-06-25T09:35:28.999Z</time>
      </trkpt>
      <trkpt lat="45.83392" lon="-0.64637">
        <ele>17</ele>
        <time>2017-06-25T09:35:29.999Z</time>
      </trkpt>
      <trkpt lat="45.83391" lon="-0.64638">
        <ele>17</ele>
        <time>2017-06-25T09:35:30.999Z</time>
      </trkpt>
      <trkpt lat="45.83389" lon="-0.64639">
        <ele>17</ele>
        <time>2017-06-25T09:35:31.999Z</time>
      </trkpt>
      <trkpt lat="45.83388" lon="-0.64639">
        <ele>17</ele>
        <time>2017-06-25T09:35:32.999Z</time>
      </trkpt>
      <trkpt lat="45.83386" lon="-0.64639">
        <ele>17</ele>
        <time>2017-06-25T09:35:33.999Z</time>
      </trkpt>
      <trkpt lat="45.83385" lon="-0.64639">
        <ele>16</ele>
        <time>2017-06-25T09:35:34.999Z</time>
      </trkpt>
      <trkpt lat="45.83384" lon="-0.64638">
        <ele>16</ele>
        <time>2017-06-25T09:35:35.999Z</time>
      </trkpt>
      <trkpt lat="45.83383" lon="-0.64637">
        <ele>16</ele>
        <time>2017-06-25T09:35:36.999Z</time>
      </trkpt>
      <trkpt lat="45.83382" lon="-0.64637">
        <ele>16</ele>
        <time>2017-06-25T09:35:37.999Z</time>
      </trkpt>
      <trkpt lat="45.83381" lon="-0.64636">
        <ele>16</ele>
        <time>2017-06-25T09:35:38.999Z</time>
      </trkpt>
      <trkpt lat="45.83379" lon="-0.64636">
        <ele>16</ele>
        <time>2017-06-25T09:35:39.999Z</time>
      </trkpt>
      <trkpt lat="45.83377" lon="-0.64637">
        <ele>16</ele>
        <time>2017-06-25T09:35:41.999Z</time>
      </trkpt>
      <trkpt lat="45.83376" lon="-0.64637">
        <ele>16</ele>
        <time>2017-06-25T09:35:42.999Z</time>
      </trkpt>
      <trkpt lat="45.83375" lon="-0.64637">
        <ele>16</ele>
        <time>2017-06-25T09:35:43.999Z</time>
      </trkpt>
      <trkpt lat="45.83374" lon="-0.64638">
        <ele>16</ele>
        <time>2017-06-25T09:35:44.999Z</time>
      </trkpt>
      <trkpt lat="45.83373" lon="-0.64638">
        <ele>16</ele>
        <time>2017-06-25T09:35:45.999Z</time>
      </trkpt>
      <trkpt lat="45.83372" lon="-0.64638">
        <ele>16</ele>
        <time>2017-06-25T09:35:46.999Z</time>
      </trkpt>
      <trkpt lat="45.83371" lon="-0.64639">
        <ele>15</ele>
        <time>2017-06-25T09:35:47.999Z</time>
      </trkpt>
      <trkpt lat="45.83369" lon="-0.64639">
        <ele>15</ele>
        <time>2017-06-25T09:35:48.999Z</time>
      </trkpt>
      <trkpt lat="45.83369" lon="-0.64639">
        <ele>15</ele>
        <time>2017-06-25T09:35:49.999Z</time>
      </trkpt>
      <trkpt lat="45.83367" lon="-0.6464">
        <ele>15</ele>
        <time>2017-06-25T09:35:51.999Z</time>
      </trkpt>
      <trkpt lat="45.83366" lon="-0.64641">
        <ele>15</ele>
        <time>2017-06-25T09:35:52.999Z</time>
      </trkpt>
      <trkpt lat="45.83365" lon="-0.64642">
        <ele>15</ele>
        <time>2017-06-25T09:35:53.999Z</time>
      </trkpt>
      <trkpt lat="45.83364" lon="-0.64642">
        <ele>15</ele>
        <time>2017-06-25T09:35:54.999Z</time>
      </trkpt>
      <trkpt lat="45.83363" lon="-0.64643">
        <ele>15</ele>
        <time>2017-06-25T09:35:55.999Z</time>
      </trkpt>
      <trkpt lat="45.83362" lon="-0.64644">
        <ele>15</ele>
        <time>2017-06-25T09:35:56.999Z</time>
      </trkpt>
      <trkpt lat="45.83361" lon="-0.64645">
        <ele>15</ele>
        <time>2017-06-25T09:35:57.999Z</time>
      </trkpt>
      <trkpt lat="45.83361" lon="-0.64647">
        <ele>15</ele>
        <time>2017-06-25T09:35:58.999Z</time>
      </trkpt>
      <trkpt lat="45.8336" lon="-0.64649">
        <ele>15</ele>
        <time>2017-06-25T09:35:59.999Z</time>
      </trkpt>
      <trkpt lat="45.8336" lon="-0.6465">
        <ele>15</ele>
        <time>2017-06-25T09:36:00.999Z</time>
      </trkpt>
      <trkpt lat="45.83358" lon="-0.64652">
        <ele>15</ele>
        <time>2017-06-25T09:36:01.999Z</time>
      </trkpt>
      <trkpt lat="45.83358" lon="-0.64654">
        <ele>15</ele>
        <time>2017-06-25T09:36:02.999Z</time>
      </trkpt>
      <trkpt lat="45.83358" lon="-0.64655">
        <ele>15</ele>
        <time>2017-06-25T09:36:03.999Z</time>
      </trkpt>
      <trkpt lat="45.83357" lon="-0.64657">
        <ele>15</ele>
        <time>2017-06-25T09:36:04.999Z</time>
      </trkpt>
      <trkpt lat="45.83357" lon="-0.64659">
        <ele>15</ele>
        <time>2017-06-25T09:36:05.999Z</time>
      </trkpt>
      <trkpt lat="45.83357" lon="-0.6466">
        <ele>15</ele>
        <time>2017-06-25T09:36:06.999Z</time>
      </trkpt>
      <trkpt lat="45.83356" lon="-0.64662">
        <ele>15</ele>
        <time>2017-06-25T09:36:07.999Z</time>
      </trkpt>
      <trkpt lat="45.83355" lon="-0.64663">
        <ele>15</ele>
        <time>2017-06-25T09:36:08.999Z</time>
      </trkpt>
      <trkpt lat="45.83355" lon="-0.64665">
        <ele>15</ele>
        <time>2017-06-25T09:36:09.999Z</time>
      </trkpt>
      <trkpt lat="45.83355" lon="-0.64667">
        <ele>16</ele>
        <time>2017-06-25T09:36:10.999Z</time>
      </trkpt>
      <trkpt lat="45.83355" lon="-0.64669">
        <ele>16</ele>
        <time>2017-06-25T09:36:12.999Z</time>
      </trkpt>
      <trkpt lat="45.83355" lon="-0.64671">
        <ele>16</ele>
        <time>2017-06-25T09:36:14.999Z</time>
      </trkpt>
      <trkpt lat="45.83354" lon="-0.64673">
        <ele>16</ele>
        <time>2017-06-25T09:36:16.999Z</time>
      </trkpt>
      <trkpt lat="45.83353" lon="-0.64675">
        <ele>16</ele>
        <time>2017-06-25T09:36:17.999Z</time>
      </trkpt>
      <trkpt lat="45.83352" lon="-0.64676">
        <ele>16</ele>
        <time>2017-06-25T09:36:18.999Z</time>
      </trkpt>
      <trkpt lat="45.83351" lon="-0.64676">
        <ele>16</ele>
        <time>2017-06-25T09:36:19.999Z</time>
      </trkpt>
      <trkpt lat="45.8335" lon="-0.64676">
        <ele>16</ele>
        <time>2017-06-25T09:36:20.999Z</time>
      </trkpt>
      <trkpt lat="45.83349" lon="-0.64678">
        <ele>15</ele>
        <time>2017-06-25T09:36:22.999Z</time>
      </trkpt>
      <trkpt lat="45.83347" lon="-0.64678">
        <ele>15</ele>
        <time>2017-06-25T09:36:23.999Z</time>
      </trkpt>
      <trkpt lat="45.83345" lon="-0.6468">
        <ele>15</ele>
        <time>2017-06-25T09:36:25.999Z</time>
      </trkpt>
      <trkpt lat="45.83345" lon="-0.6468">
        <ele>15</ele>
        <time>2017-06-25T09:36:26.999Z</time>
      </trkpt>
      <trkpt lat="45.83343" lon="-0.6468">
        <ele>15</ele>
        <time>2017-06-25T09:36:27.999Z</time>
      </trkpt>
      <trkpt lat="45.83342" lon="-0.64681">
        <ele>15</ele>
        <time>2017-06-25T09:36:28.999Z</time>
      </trkpt>
      <trkpt lat="45.83341" lon="-0.64682">
        <ele>15</ele>
        <time>2017-06-25T09:36:29.999Z</time>
      </trkpt>
      <trkpt lat="45.8334" lon="-0.64683">
        <ele>15</ele>
        <time>2017-06-25T09:36:30.999Z</time>
      </trkpt>
      <trkpt lat="45.83339" lon="-0.64684">
        <ele>15</ele>
        <time>2017-06-25T09:36:31.999Z</time>
      </trkpt>
      <trkpt lat="45.83338" lon="-0.64685">
        <ele>15</ele>
        <time>2017-06-25T09:36:32.999Z</time>
      </trkpt>
      <trkpt lat="45.83336" lon="-0.64685">
        <ele>15</ele>
        <time>2017-06-25T09:36:34.999Z</time>
      </trkpt>
      <trkpt lat="45.83335" lon="-0.64685">
        <ele>15</ele>
        <time>2017-06-25T09:36:36.999Z</time>
      </trkpt>
      <trkpt lat="45.83334" lon="-0.64686">
        <ele>15</ele>
        <time>2017-06-25T09:36:37.999Z</time>
      </trkpt>
      <trkpt lat="45.83333" lon="-0.64688">
        <ele>11</ele>
        <time>2017-06-25T09:36:39.999Z</time>
      </trkpt>
      <trkpt lat="45.83332" lon="-0.64689">
        <ele>11</ele>
        <time>2017-06-25T09:36:40.999Z</time>
      </trkpt>
      <trkpt lat="45.83332" lon="-0.6469">
        <ele>11</ele>
        <time>2017-06-25T09:36:42.999Z</time>
      </trkpt>
      <trkpt lat="45.83331" lon="-0.64693">
        <ele>11</ele>
        <time>2017-06-25T09:36:45.999Z</time>
      </trkpt>
      <trkpt lat="45.83329" lon="-0.64696">
        <ele>10</ele>
        <time>2017-06-25T09:36:46.999Z</time>
      </trkpt>
      <trkpt lat="45.83329" lon="-0.64698">
        <ele>10</ele>
        <time>2017-06-25T09:36:47.999Z</time>
      </trkpt>
      <trkpt lat="45.83328" lon="-0.64699">
        <ele>10</ele>
        <time>2017-06-25T09:36:48.999Z</time>
      </trkpt>
      <trkpt lat="45.83327" lon="-0.647">
        <ele>10</ele>
        <time>2017-06-25T09:36:49.999Z</time>
      </trkpt>
      <trkpt lat="45.83326" lon="-0.64702">
        <ele>10</ele>
        <time>2017-06-25T09:36:50.999Z</time>
      </trkpt>
      <trkpt lat="45.83326" lon="-0.64704">
        <ele>10</ele>
        <time>2017-06-25T09:36:51.999Z</time>
      </trkpt>
      <trkpt lat="45.83325" lon="-0.64707">
        <ele>10</ele>
        <time>2017-06-25T09:36:52.999Z</time>
      </trkpt>
      <trkpt lat="45.83325" lon="-0.6471">
        <ele>10</ele>
        <time>2017-06-25T09:36:54.999Z</time>
      </trkpt>
      <trkpt lat="45.83324" lon="-0.64712">
        <ele>10</ele>
        <time>2017-06-25T09:36:56.999Z</time>
      </trkpt>
      <trkpt lat="45.83324" lon="-0.64713">
        <ele>10</ele>
        <time>2017-06-25T09:36:57.999Z</time>
      </trkpt>
      <trkpt lat="45.83324" lon="-0.64715">
        <ele>10</ele>
        <time>2017-06-25T09:36:58.999Z</time>
      </trkpt>
      <trkpt lat="45.83323" lon="-0.64717">
        <ele>10</ele>
        <time>2017-06-25T09:37:00.999Z</time>
      </trkpt>
      <trkpt lat="45.83323" lon="-0.64718">
        <ele>10</ele>
        <time>2017-06-25T09:37:01.999Z</time>
      </trkpt>
      <trkpt lat="45.83321" lon="-0.64719">
        <ele>10</ele>
        <time>2017-06-25T09:37:03.999Z</time>
      </trkpt>
      <trkpt lat="45.8332" lon="-0.64719">
        <ele>10</ele>
        <time>2017-06-25T09:37:04.999Z</time>
      </trkpt>
      <trkpt lat="45.83319" lon="-0.64719">
        <ele>10</ele>
        <time>2017-06-25T09:37:05.999Z</time>
      </trkpt>
      <trkpt lat="45.83317" lon="-0.64719">
        <ele>10</ele>
        <time>2017-06-25T09:37:07.999Z</time>
      </trkpt>
      <trkpt lat="45.83315" lon="-0.64718">
        <ele>10</ele>
        <time>2017-06-25T09:37:09.999Z</time>
      </trkpt>
      <trkpt lat="45.83314" lon="-0.64718">
        <ele>10</ele>
        <time>2017-06-25T09:37:10.999Z</time>
      </trkpt>
      <trkpt lat="45.83313" lon="-0.64717">
        <ele>10</ele>
        <time>2017-06-25T09:37:11.999Z</time>
      </trkpt>
      <trkpt lat="45.83311" lon="-0.64717">
        <ele>10</ele>
        <time>2017-06-25T09:37:12.999Z</time>
      </trkpt>
      <trkpt lat="45.8331" lon="-0.64716">
        <ele>10</ele>
        <time>2017-06-25T09:37:13.999Z</time>
      </trkpt>
      <trkpt lat="45.83309" lon="-0.64716">
        <ele>10</ele>
        <time>2017-06-25T09:37:14.999Z</time>
      </trkpt>
      <trkpt lat="45.83308" lon="-0.64715">
        <ele>10</ele>
        <time>2017-06-25T09:37:15.999Z</time>
      </trkpt>
      <trkpt lat="45.83307" lon="-0.64714">
        <ele>9</ele>
        <time>2017-06-25T09:37:16.999Z</time>
      </trkpt>
      <trkpt lat="45.83306" lon="-0.64712">
        <ele>9</ele>
        <time>2017-06-25T09:37:18.999Z</time>
      </trkpt>
      <trkpt lat="45.83305" lon="-0.6471">
        <ele>9</ele>
        <time>2017-06-25T09:37:20.999Z</time>
      </trkpt>
      <trkpt lat="45.83303" lon="-0.64708">
        <ele>9</ele>
        <time>2017-06-25T09:37:22.999Z</time>
      </trkpt>
      <trkpt lat="45.83302" lon="-0.64706">
        <ele>9</ele>
        <time>2017-06-25T09:37:23.999Z</time>
      </trkpt>
      <trkpt lat="45.83302" lon="-0.64705">
        <ele>9</ele>
        <time>2017-06-25T09:37:24.999Z</time>
      </trkpt>
      <trkpt lat="45.83301" lon="-0.64704">
        <ele>9</ele>
        <time>2017-06-25T09:37:25.999Z</time>
      </trkpt>
      <trkpt lat="45.833" lon="-0.64703">
        <ele>9</ele>
        <time>2017-06-25T09:37:26.999Z</time>
      </trkpt>
      <trkpt lat="45.833" lon="-0.64701">
        <ele>9</ele>
        <time>2017-06-25T09:37:28.999Z</time>
      </trkpt>
      <trkpt lat="45.83299" lon="-0.647">
        <ele>9</ele>
        <time>2017-06-25T09:37:29.999Z</time>
      </trkpt>
      <trkpt lat="45.83298" lon="-0.64699">
        <ele>9</ele>
        <time>2017-06-25T09:37:30.999Z</time>
      </trkpt>
      <trkpt lat="45.83297" lon="-0.64698">
        <ele>9</ele>
        <time>2017-06-25T09:37:31.999Z</time>
      </trkpt>
      <trkpt lat="45.83295" lon="-0.64696">
        <ele>9</ele>
        <time>2017-06-25T09:37:32.999Z</time>
      </trkpt>
      <trkpt lat="45.83294" lon="-0.64696">
        <ele>9</ele>
        <time>2017-06-25T09:37:33.999Z</time>
      </trkpt>
      <trkpt lat="45.83293" lon="-0.64695">
        <ele>9</ele>
        <time>2017-06-25T09:37:34.999Z</time>
      </trkpt>
      <trkpt lat="45.83292" lon="-0.64694">
        <ele>9</ele>
        <time>2017-06-25T09:37:35.999Z</time>
      </trkpt>
      <trkpt lat="45.83291" lon="-0.64692">
        <ele>9</ele>
        <time>2017-06-25T09:37:37.999Z</time>
      </trkpt>
      <trkpt lat="45.8329" lon="-0.64692">
        <ele>9</ele>
        <time>2017-06-25T09:37:38.999Z</time>
      </trkpt>
      <trkpt lat="45.83288" lon="-0.64691">
        <ele>9</ele>
        <time>2017-06-25T09:37:39.999Z</time>
      </trkpt>
      <trkpt lat="45.83287" lon="-0.6469">
        <ele>9</ele>
        <time>2017-06-25T09:37:40.999Z</time>
      </trkpt>
      <trkpt lat="45.83286" lon="-0.64689">
        <ele>9</ele>
        <time>2017-06-25T09:37:41.999Z</time>
      </trkpt>
      <trkpt lat="45.83285" lon="-0.64688">
        <ele>9</ele>
        <time>2017-06-25T09:37:42.999Z</time>
      </trkpt>
      <trkpt lat="45.83284" lon="-0.64688">
        <ele>9</ele>
        <time>2017-06-25T09:37:43.999Z</time>
      </trkpt>
      <trkpt lat="45.83283" lon="-0.64687">
        <ele>9</ele>
        <time>2017-06-25T09:37:44.999Z</time>
      </trkpt>
      <trkpt lat="45.83281" lon="-0.64686">
        <ele>9</ele>
        <time>2017-06-25T09:37:45.999Z</time>
      </trkpt>
      <trkpt lat="45.83281" lon="-0.64685">
        <ele>9</ele>
        <time>2017-06-25T09:37:46.999Z</time>
      </trkpt>
      <trkpt lat="45.83279" lon="-0.64684">
        <ele>9</ele>
        <time>2017-06-25T09:37:48.999Z</time>
      </trkpt>
      <trkpt lat="45.83279" lon="-0.64683">
        <ele>8</ele>
        <time>2017-06-25T09:37:50.999Z</time>
      </trkpt>
      <trkpt lat="45.83278" lon="-0.64682">
        <ele>8</ele>
        <time>2017-06-25T09:37:52.999Z</time>
      </trkpt>
      <trkpt lat="45.83278" lon="-0.6468">
        <ele>8</ele>
        <time>2017-06-25T09:37:53.999Z</time>
      </trkpt>
      <trkpt lat="45.83278" lon="-0.64679">
        <ele>8</ele>
        <time>2017-06-25T09:37:55.999Z</time>
      </trkpt>
      <trkpt lat="45.83276" lon="-0.64677">
        <ele>8</ele>
        <time>2017-06-25T09:37:57.999Z</time>
      </trkpt>
      <trkpt lat="45.83276" lon="-0.64677">
        <ele>8</ele>
        <time>2017-06-25T09:37:59.999Z</time>
      </trkpt>
      <trkpt lat="45.83275" lon="-0.64676">
        <ele>8</ele>
        <time>2017-06-25T09:38:00.999Z</time>
      </trkpt>
      <trkpt lat="45.83274" lon="-0.64676">
        <ele>8</ele>
        <time>2017-06-25T09:38:01.999Z</time>
      </trkpt>
      <trkpt lat="45.83273" lon="-0.64673">
        <ele>8</ele>
        <time>2017-06-25T09:38:03.999Z</time>
      </trkpt>
      <trkpt lat="45.83272" lon="-0.64672">
        <ele>8</ele>
        <time>2017-06-25T09:38:04.999Z</time>
      </trkpt>
      <trkpt lat="45.83271" lon="-0.64671">
        <ele>8</ele>
        <time>2017-06-25T09:38:06.999Z</time>
      </trkpt>
      <trkpt lat="45.83269" lon="-0.6467">
        <ele>8</ele>
        <time>2017-06-25T09:38:08.999Z</time>
      </trkpt>
      <trkpt lat="45.83268" lon="-0.64669">
        <ele>8</ele>
        <time>2017-06-25T09:38:09.999Z</time>
      </trkpt>
      <trkpt lat="45.83266" lon="-0.64667">
        <ele>8</ele>
        <time>2017-06-25T09:38:11.999Z</time>
      </trkpt>
      <trkpt lat="45.83265" lon="-0.64666">
        <ele>7</ele>
        <time>2017-06-25T09:38:13.999Z</time>
      </trkpt>
      <trkpt lat="45.83263" lon="-0.64665">
        <ele>7</ele>
        <time>2017-06-25T09:38:14.999Z</time>
      </trkpt>
      <trkpt lat="45.83263" lon="-0.64664">
        <ele>7</ele>
        <time>2017-06-25T09:38:15.999Z</time>
      </trkpt>
      <trkpt lat="45.83261" lon="-0.64663">
        <ele>7</ele>
        <time>2017-06-25T09:38:17.999Z</time>
      </trkpt>
      <trkpt lat="45.8326" lon="-0.64663">
        <ele>7</ele>
        <time>2017-06-25T09:38:18.999Z</time>
      </trkpt>
      <trkpt lat="45.8326" lon="-0.64662">
        <ele>7</ele>
        <time>2017-06-25T09:38:19.999Z</time>
      </trkpt>
      <trkpt lat="45.83258" lon="-0.64661">
        <ele>7</ele>
        <time>2017-06-25T09:38:20.999Z</time>
      </trkpt>
      <trkpt lat="45.83258" lon="-0.64661">
        <ele>7</ele>
        <time>2017-06-25T09:38:21.999Z</time>
      </trkpt>
      <trkpt lat="45.83257" lon="-0.6466">
        <ele>7</ele>
        <time>2017-06-25T09:38:22.999Z</time>
      </trkpt>
      <trkpt lat="45.83255" lon="-0.6466">
        <ele>7</ele>
        <time>2017-06-25T09:38:23.999Z</time>
      </trkpt>
      <trkpt lat="45.83254" lon="-0.6466">
        <ele>7</ele>
        <time>2017-06-25T09:38:24.999Z</time>
      </trkpt>
      <trkpt lat="45.83253" lon="-0.6466">
        <ele>7</ele>
        <time>2017-06-25T09:38:26.999Z</time>
      </trkpt>
      <trkpt lat="45.83252" lon="-0.64661">
        <ele>7</ele>
        <time>2017-06-25T09:38:27.999Z</time>
      </trkpt>
      <trkpt lat="45.83252" lon="-0.64663">
        <ele>6</ele>
        <time>2017-06-25T09:38:28.999Z</time>
      </trkpt>
      <trkpt lat="45.83251" lon="-0.64665">
        <ele>6</ele>
        <time>2017-06-25T09:38:29.999Z</time>
      </trkpt>
      <trkpt lat="45.8325" lon="-0.64667">
        <ele>6</ele>
        <time>2017-06-25T09:38:30.999Z</time>
      </trkpt>
      <trkpt lat="45.8325" lon="-0.64668">
        <ele>6</ele>
        <time>2017-06-25T09:38:31.999Z</time>
      </trkpt>
      <trkpt lat="45.8325" lon="-0.6467">
        <ele>6</ele>
        <time>2017-06-25T09:38:32.999Z</time>
      </trkpt>
      <trkpt lat="45.83249" lon="-0.64671">
        <ele>6</ele>
        <time>2017-06-25T09:38:34.999Z</time>
      </trkpt>
      <trkpt lat="45.83248" lon="-0.64674">
        <ele>6</ele>
        <time>2017-06-25T09:38:36.999Z</time>
      </trkpt>
      <trkpt lat="45.83247" lon="-0.64676">
        <ele>6</ele>
        <time>2017-06-25T09:38:37.999Z</time>
      </trkpt>
      <trkpt lat="45.83247" lon="-0.64678">
        <ele>6</ele>
        <time>2017-06-25T09:38:38.999Z</time>
      </trkpt>
      <trkpt lat="45.83248" lon="-0.6468">
        <ele>6</ele>
        <time>2017-06-25T09:38:39.999Z</time>
      </trkpt>
      <trkpt lat="45.83248" lon="-0.64683">
        <ele>6</ele>
        <time>2017-06-25T09:38:40.999Z</time>
      </trkpt>
      <trkpt lat="45.83249" lon="-0.64685">
        <ele>6</ele>
        <time>2017-06-25T09:38:41.999Z</time>
      </trkpt>
      <trkpt lat="45.83249" lon="-0.64687">
        <ele>6</ele>
        <time>2017-06-25T09:38:42.999Z</time>
      </trkpt>
      <trkpt lat="45.8325" lon="-0.64688">
        <ele>8</ele>
        <time>2017-06-25T09:38:43.999Z</time>
      </trkpt>
      <trkpt lat="45.83251" lon="-0.6469">
        <ele>8</ele>
        <time>2017-06-25T09:38:44.999Z</time>
      </trkpt>
      <trkpt lat="45.83252" lon="-0.64691">
        <ele>8</ele>
        <time>2017-06-25T09:38:45.999Z</time>
      </trkpt>
      <trkpt lat="45.83252" lon="-0.64693">
        <ele>8</ele>
        <time>2017-06-25T09:38:46.999Z</time>
      </trkpt>
      <trkpt lat="45.83254" lon="-0.64694">
        <ele>8</ele>
        <time>2017-06-25T09:38:47.999Z</time>
      </trkpt>
      <trkpt lat="45.83254" lon="-0.64695">
        <ele>8</ele>
        <time>2017-06-25T09:38:48.999Z</time>
      </trkpt>
      <trkpt lat="45.83255" lon="-0.64696">
        <ele>8</ele>
        <time>2017-06-25T09:38:49.999Z</time>
      </trkpt>
      <trkpt lat="45.83257" lon="-0.64697">
        <ele>8</ele>
        <time>2017-06-25T09:38:51.999Z</time>
      </trkpt>
      <trkpt lat="45.83258" lon="-0.64698">
        <ele>8</ele>
        <time>2017-06-25T09:38:53.999Z</time>
      </trkpt>
      <trkpt lat="45.83259" lon="-0.64699">
        <ele>8</ele>
        <time>2017-06-25T09:38:54.999Z</time>
      </trkpt>
      <trkpt lat="45.8326" lon="-0.64701">
        <ele>8</ele>
        <time>2017-06-25T09:38:56.999Z</time>
      </trkpt>
      <trkpt lat="45.83262" lon="-0.64702">
        <ele>8</ele>
        <time>2017-06-25T09:38:57.999Z</time>
      </trkpt>
      <trkpt lat="45.83262" lon="-0.64704">
        <ele>8</ele>
        <time>2017-06-25T09:38:58.999Z</time>
      </trkpt>
      <trkpt lat="45.83263" lon="-0.64706">
        <ele>8</ele>
        <time>2017-06-25T09:38:59.999Z</time>
      </trkpt>
      <trkpt lat="45.83262" lon="-0.64708">
        <ele>8</ele>
        <time>2017-06-25T09:39:00.999Z</time>
      </trkpt>
      <trkpt lat="45.83262" lon="-0.64709">
        <ele>8</ele>
        <time>2017-06-25T09:39:01.999Z</time>
      </trkpt>
      <trkpt lat="45.8326" lon="-0.6471">
        <ele>8</ele>
        <time>2017-06-25T09:39:02.999Z</time>
      </trkpt>
      <trkpt lat="45.83259" lon="-0.64711">
        <ele>8</ele>
        <time>2017-06-25T09:39:03.999Z</time>
      </trkpt>
      <trkpt lat="45.83257" lon="-0.64711">
        <ele>8</ele>
        <time>2017-06-25T09:39:04.999Z</time>
      </trkpt>
      <trkpt lat="45.83256" lon="-0.64712">
        <ele>8</ele>
        <time>2017-06-25T09:39:05.999Z</time>
      </trkpt>
      <trkpt lat="45.83255" lon="-0.64711">
        <ele>8</ele>
        <time>2017-06-25T09:39:07.999Z</time>
      </trkpt>
      <trkpt lat="45.83254" lon="-0.64712">
        <ele>8</ele>
        <time>2017-06-25T09:39:08.999Z</time>
      </trkpt>
      <trkpt lat="45.83252" lon="-0.64712">
        <ele>8</ele>
        <time>2017-06-25T09:39:10.999Z</time>
      </trkpt>
      <trkpt lat="45.83251" lon="-0.64711">
        <ele>8</ele>
        <time>2017-06-25T09:39:12.999Z</time>
      </trkpt>
      <trkpt lat="45.8325" lon="-0.6471">
        <ele>6</ele>
        <time>2017-06-25T09:39:13.999Z</time>
      </trkpt>
      <trkpt lat="45.83249" lon="-0.64709">
        <ele>6</ele>
        <time>2017-06-25T09:39:14.999Z</time>
      </trkpt>
      <trkpt lat="45.83247" lon="-0.64709">
        <ele>6</ele>
        <time>2017-06-25T09:39:15.999Z</time>
      </trkpt>
      <trkpt lat="45.83246" lon="-0.64708">
        <ele>6</ele>
        <time>2017-06-25T09:39:16.999Z</time>
      </trkpt>
      <trkpt lat="45.83244" lon="-0.64708">
        <ele>6</ele>
        <time>2017-06-25T09:39:17.999Z</time>
      </trkpt>
      <trkpt lat="45.83243" lon="-0.64708">
        <ele>6</ele>
        <time>2017-06-25T09:39:18.999Z</time>
      </trkpt>
      <trkpt lat="45.83242" lon="-0.64708">
        <ele>6</ele>
        <time>2017-06-25T09:39:19.999Z</time>
      </trkpt>
      <trkpt lat="45.83241" lon="-0.64708">
        <ele>6</ele>
        <time>2017-06-25T09:39:20.999Z</time>
      </trkpt>
      <trkpt lat="45.8324" lon="-0.64709">
        <ele>6</ele>
        <time>2017-06-25T09:39:21.999Z</time>
      </trkpt>
      <trkpt lat="45.83239" lon="-0.6471">
        <ele>6</ele>
        <time>2017-06-25T09:39:22.999Z</time>
      </trkpt>
      <trkpt lat="45.83238" lon="-0.64711">
        <ele>6</ele>
        <time>2017-06-25T09:39:23.999Z</time>
      </trkpt>
      <trkpt lat="45.83237" lon="-0.64712">
        <ele>6</ele>
        <time>2017-06-25T09:39:24.999Z</time>
      </trkpt>
      <trkpt lat="45.83236" lon="-0.64714">
        <ele>6</ele>
        <time>2017-06-25T09:39:26.999Z</time>
      </trkpt>
      <trkpt lat="45.83235" lon="-0.64715">
        <ele>6</ele>
        <time>2017-06-25T09:39:28.999Z</time>
      </trkpt>
      <trkpt lat="45.83235" lon="-0.64717">
        <ele>6</ele>
        <time>2017-06-25T09:39:29.999Z</time>
      </trkpt>
      <trkpt lat="45.83234" lon="-0.6472">
        <ele>6</ele>
        <time>2017-06-25T09:39:30.999Z</time>
      </trkpt>
      <trkpt lat="45.83233" lon="-0.64721">
        <ele>6</ele>
        <time>2017-06-25T09:39:31.999Z</time>
      </trkpt>
      <trkpt lat="45.83232" lon="-0.64723">
        <ele>6</ele>
        <time>2017-06-25T09:39:32.999Z</time>
      </trkpt>
      <trkpt lat="45.83231" lon="-0.64725">
        <ele>6</ele>
        <time>2017-06-25T09:39:33.999Z</time>
      </trkpt>
      <trkpt lat="45.83231" lon="-0.64726">
        <ele>6</ele>
        <time>2017-06-25T09:39:34.999Z</time>
      </trkpt>
      <trkpt lat="45.83231" lon="-0.64727">
        <ele>6</ele>
        <time>2017-06-25T09:39:35.999Z</time>
      </trkpt>
      <trkpt lat="45.83231" lon="-0.64729">
        <ele>6</ele>
        <time>2017-06-25T09:39:36.999Z</time>
      </trkpt>
      <trkpt lat="45.8323" lon="-0.64731">
        <ele>6</ele>
        <time>2017-06-25T09:39:38.999Z</time>
      </trkpt>
      <trkpt lat="45.83229" lon="-0.64733">
        <ele>6</ele>
        <time>2017-06-25T09:39:39.999Z</time>
      </trkpt>
      <trkpt lat="45.83229" lon="-0.64735">
        <ele>6</ele>
        <time>2017-06-25T09:39:40.999Z</time>
      </trkpt>
      <trkpt lat="45.83229" lon="-0.64738">
        <ele>6</ele>
        <time>2017-06-25T09:39:41.999Z</time>
      </trkpt>
      <trkpt lat="45.83229" lon="-0.64739">
        <ele>6</ele>
        <time>2017-06-25T09:39:42.999Z</time>
      </trkpt>
      <trkpt lat="45.83228" lon="-0.64741">
        <ele>6</ele>
        <time>2017-06-25T09:39:43.999Z</time>
      </trkpt>
      <trkpt lat="45.83228" lon="-0.64743">
        <ele>6</ele>
        <time>2017-06-25T09:39:44.999Z</time>
      </trkpt>
      <trkpt lat="45.83227" lon="-0.64744">
        <ele>6</ele>
        <time>2017-06-25T09:39:45.999Z</time>
      </trkpt>
      <trkpt lat="45.83226" lon="-0.64746">
        <ele>6</ele>
        <time>2017-06-25T09:39:46.999Z</time>
      </trkpt>
      <trkpt lat="45.83226" lon="-0.64748">
        <ele>6</ele>
        <time>2017-06-25T09:39:47.999Z</time>
      </trkpt>
      <trkpt lat="45.83225" lon="-0.6475">
        <ele>5</ele>
        <time>2017-06-25T09:39:48.999Z</time>
      </trkpt>
      <trkpt lat="45.83225" lon="-0.64752">
        <ele>5</ele>
        <time>2017-06-25T09:39:49.999Z</time>
      </trkpt>
      <trkpt lat="45.83224" lon="-0.64753">
        <ele>5</ele>
        <time>2017-06-25T09:39:50.999Z</time>
      </trkpt>
      <trkpt lat="45.83223" lon="-0.64755">
        <ele>5</ele>
        <time>2017-06-25T09:39:51.999Z</time>
      </trkpt>
      <trkpt lat="45.83223" lon="-0.64756">
        <ele>5</ele>
        <time>2017-06-25T09:39:52.999Z</time>
      </trkpt>
      <trkpt lat="45.83222" lon="-0.64758">
        <ele>5</ele>
        <time>2017-06-25T09:39:54.999Z</time>
      </trkpt>
      <trkpt lat="45.83221" lon="-0.64761">
        <ele>5</ele>
        <time>2017-06-25T09:39:56.999Z</time>
      </trkpt>
      <trkpt lat="45.83221" lon="-0.64762">
        <ele>5</ele>
        <time>2017-06-25T09:39:57.999Z</time>
      </trkpt>
      <trkpt lat="45.8322" lon="-0.64764">
        <ele>5</ele>
        <time>2017-06-25T09:39:58.999Z</time>
      </trkpt>
      <trkpt lat="45.8322" lon="-0.64765">
        <ele>5</ele>
        <time>2017-06-25T09:39:59.999Z</time>
      </trkpt>
      <trkpt lat="45.8322" lon="-0.64768">
        <ele>5</ele>
        <time>2017-06-25T09:40:01.999Z</time>
      </trkpt>
      <trkpt lat="45.83219" lon="-0.6477">
        <ele>5</ele>
        <time>2017-06-25T09:40:03.999Z</time>
      </trkpt>
      <trkpt lat="45.83218" lon="-0.64773">
        <ele>5</ele>
        <time>2017-06-25T09:40:05.999Z</time>
      </trkpt>
      <trkpt lat="45.83218" lon="-0.64774">
        <ele>5</ele>
        <time>2017-06-25T09:40:06.999Z</time>
      </trkpt>
      <trkpt lat="45.83217" lon="-0.64776">
        <ele>5</ele>
        <time>2017-06-25T09:40:08.999Z</time>
      </trkpt>
      <trkpt lat="45.83217" lon="-0.64778">
        <ele>5</ele>
        <time>2017-06-25T09:40:10.999Z</time>
      </trkpt>
      <trkpt lat="45.83217" lon="-0.64781">
        <ele>5</ele>
        <time>2017-06-25T09:40:12.999Z</time>
      </trkpt>
      <trkpt lat="45.83216" lon="-0.64785">
        <ele>5</ele>
        <time>2017-06-25T09:40:14.999Z</time>
      </trkpt>
      <trkpt lat="45.83216" lon="-0.64786">
        <ele>5</ele>
        <time>2017-06-25T09:40:15.999Z</time>
      </trkpt>
      <trkpt lat="45.83215" lon="-0.64788">
        <ele>5</ele>
        <time>2017-06-25T09:40:16.999Z</time>
      </trkpt>
      <trkpt lat="45.83215" lon="-0.6479">
        <ele>5</ele>
        <time>2017-06-25T09:40:18.999Z</time>
      </trkpt>
      <trkpt lat="45.83215" lon="-0.64791">
        <ele>5</ele>
        <time>2017-06-25T09:40:19.999Z</time>
      </trkpt>
      <trkpt lat="45.83215" lon="-0.64793">
        <ele>5</ele>
        <time>2017-06-25T09:40:21.999Z</time>
      </trkpt>
      <trkpt lat="45.83213" lon="-0.64795">
        <ele>5</ele>
        <time>2017-06-25T09:40:23.999Z</time>
      </trkpt>
      <trkpt lat="45.83213" lon="-0.64797">
        <ele>5</ele>
        <time>2017-06-25T09:40:24.999Z</time>
      </trkpt>
      <trkpt lat="45.83213" lon="-0.64798">
        <ele>5</ele>
        <time>2017-06-25T09:40:25.999Z</time>
      </trkpt>
      <trkpt lat="45.83213" lon="-0.648">
        <ele>5</ele>
        <time>2017-06-25T09:40:26.999Z</time>
      </trkpt>
      <trkpt lat="45.83213" lon="-0.64801">
        <ele>5</ele>
        <time>2017-06-25T09:40:27.999Z</time>
      </trkpt>
      <trkpt lat="45.83213" lon="-0.64802">
        <ele>5</ele>
        <time>2017-06-25T09:40:28.999Z</time>
      </trkpt>
      <trkpt lat="45.83212" lon="-0.64804">
        <ele>5</ele>
        <time>2017-06-25T09:40:29.999Z</time>
      </trkpt>
      <trkpt lat="45.83212" lon="-0.64805">
        <ele>5</ele>
        <time>2017-06-25T09:40:30.999Z</time>
      </trkpt>
      <trkpt lat="45.83211" lon="-0.64807">
        <ele>5</ele>
        <time>2017-06-25T09:40:31.999Z</time>
      </trkpt>
      <trkpt lat="45.8321" lon="-0.64808">
        <ele>5</ele>
        <time>2017-06-25T09:40:32.999Z</time>
      </trkpt>
      <trkpt lat="45.8321" lon="-0.6481">
        <ele>5</ele>
        <time>2017-06-25T09:40:33.999Z</time>
      </trkpt>
      <trkpt lat="45.8321" lon="-0.64811">
        <ele>5</ele>
        <time>2017-06-25T09:40:34.999Z</time>
      </trkpt>
      <trkpt lat="45.83209" lon="-0.64813">
        <ele>5</ele>
        <time>2017-06-25T09:40:36.999Z</time>
      </trkpt>
      <trkpt lat="45.83209" lon="-0.64816">
        <ele>5</ele>
        <time>2017-06-25T09:40:38.999Z</time>
      </trkpt>
      <trkpt lat="45.83208" lon="-0.64819">
        <ele>5</ele>
        <time>2017-06-25T09:40:40.999Z</time>
      </trkpt>
      <trkpt lat="45.83208" lon="-0.64821">
        <ele>5</ele>
        <time>2017-06-25T09:40:41.999Z</time>
      </trkpt>
      <trkpt lat="45.83208" lon="-0.64823">
        <ele>5</ele>
        <time>2017-06-25T09:40:42.999Z</time>
      </trkpt>
      <trkpt lat="45.83207" lon="-0.64824">
        <ele>5</ele>
        <time>2017-06-25T09:40:43.999Z</time>
      </trkpt>
      <trkpt lat="45.83207" lon="-0.64826">
        <ele>5</ele>
        <time>2017-06-25T09:40:44.999Z</time>
      </trkpt>
      <trkpt lat="45.83206" lon="-0.64827">
        <ele>5</ele>
        <time>2017-06-25T09:40:45.999Z</time>
      </trkpt>
      <trkpt lat="45.83205" lon="-0.64829">
        <ele>5</ele>
        <time>2017-06-25T09:40:47.999Z</time>
      </trkpt>
      <trkpt lat="45.83205" lon="-0.6483">
        <ele>5</ele>
        <time>2017-06-25T09:40:48.999Z</time>
      </trkpt>
      <trkpt lat="45.83205" lon="-0.64832">
        <ele>5</ele>
        <time>2017-06-25T09:40:49.999Z</time>
      </trkpt>
      <trkpt lat="45.83204" lon="-0.64834">
        <ele>5</ele>
        <time>2017-06-25T09:40:50.999Z</time>
      </trkpt>
      <trkpt lat="45.83204" lon="-0.64836">
        <ele>5</ele>
        <time>2017-06-25T09:40:51.999Z</time>
      </trkpt>
      <trkpt lat="45.83203" lon="-0.64838">
        <ele>5</ele>
        <time>2017-06-25T09:40:52.999Z</time>
      </trkpt>
      <trkpt lat="45.83203" lon="-0.6484">
        <ele>5</ele>
        <time>2017-06-25T09:40:53.999Z</time>
      </trkpt>
      <trkpt lat="45.83202" lon="-0.64842">
        <ele>5</ele>
        <time>2017-06-25T09:40:54.999Z</time>
      </trkpt>
      <trkpt lat="45.83202" lon="-0.64843">
        <ele>5</ele>
        <time>2017-06-25T09:40:55.999Z</time>
      </trkpt>
      <trkpt lat="45.83202" lon="-0.64845">
        <ele>5</ele>
        <time>2017-06-25T09:40:56.999Z</time>
      </trkpt>
      <trkpt lat="45.83202" lon="-0.64848">
        <ele>5</ele>
        <time>2017-06-25T09:40:57.999Z</time>
      </trkpt>
      <trkpt lat="45.83201" lon="-0.6485">
        <ele>5</ele>
        <time>2017-06-25T09:40:58.999Z</time>
      </trkpt>
      <trkpt lat="45.83201" lon="-0.64852">
        <ele>5</ele>
        <time>2017-06-25T09:40:59.999Z</time>
      </trkpt>
      <trkpt lat="45.832" lon="-0.64854">
        <ele>5</ele>
        <time>2017-06-25T09:41:00.999Z</time>
      </trkpt>
      <trkpt lat="45.832" lon="-0.64856">
        <ele>5</ele>
        <time>2017-06-25T09:41:01.999Z</time>
      </trkpt>
      <trkpt lat="45.83199" lon="-0.64858">
        <ele>5</ele>
        <time>2017-06-25T09:41:02.999Z</time>
      </trkpt>
      <trkpt lat="45.83198" lon="-0.6486">
        <ele>5</ele>
        <time>2017-06-25T09:41:03.999Z</time>
      </trkpt>
      <trkpt lat="45.83198" lon="-0.64862">
        <ele>5</ele>
        <time>2017-06-25T09:41:04.999Z</time>
      </trkpt>
      <trkpt lat="45.83197" lon="-0.64864">
        <ele>5</ele>
        <time>2017-06-25T09:41:05.999Z</time>
      </trkpt>
      <trkpt lat="45.83197" lon="-0.64865">
        <ele>5</ele>
        <time>2017-06-25T09:41:06.999Z</time>
      </trkpt>
      <trkpt lat="45.83196" lon="-0.64867">
        <ele>5</ele>
        <time>2017-06-25T09:41:07.999Z</time>
      </trkpt>
      <trkpt lat="45.83196" lon="-0.64868">
        <ele>5</ele>
        <time>2017-06-25T09:41:08.999Z</time>
      </trkpt>
      <trkpt lat="45.83195" lon="-0.6487">
        <ele>5</ele>
        <time>2017-06-25T09:41:09.999Z</time>
      </trkpt>
      <trkpt lat="45.83195" lon="-0.64872">
        <ele>5</ele>
        <time>2017-06-25T09:41:11.999Z</time>
      </trkpt>
      <trkpt lat="45.83194" lon="-0.64873">
        <ele>5</ele>
        <time>2017-06-25T09:41:12.999Z</time>
      </trkpt>
      <trkpt lat="45.83194" lon="-0.64876">
        <ele>5</ele>
        <time>2017-06-25T09:41:14.999Z</time>
      </trkpt>
      <trkpt lat="45.83194" lon="-0.64878">
        <ele>5</ele>
        <time>2017-06-25T09:41:15.999Z</time>
      </trkpt>
      <trkpt lat="45.83193" lon="-0.64879">
        <ele>5</ele>
        <time>2017-06-25T09:41:16.999Z</time>
      </trkpt>
      <trkpt lat="45.83193" lon="-0.64881">
        <ele>5</ele>
        <time>2017-06-25T09:41:17.999Z</time>
      </trkpt>
      <trkpt lat="45.83193" lon="-0.64882">
        <ele>5</ele>
        <time>2017-06-25T09:41:18.999Z</time>
      </trkpt>
      <trkpt lat="45.83192" lon="-0.64884">
        <ele>5</ele>
        <time>2017-06-25T09:41:20.999Z</time>
      </trkpt>
      <trkpt lat="45.83192" lon="-0.64886">
        <ele>5</ele>
        <time>2017-06-25T09:41:21.999Z</time>
      </trkpt>
      <trkpt lat="45.83191" lon="-0.64888">
        <ele>5</ele>
        <time>2017-06-25T09:41:22.999Z</time>
      </trkpt>
      <trkpt lat="45.83191" lon="-0.64889">
        <ele>5</ele>
        <time>2017-06-25T09:41:23.999Z</time>
      </trkpt>
      <trkpt lat="45.8319" lon="-0.6489">
        <ele>5</ele>
        <time>2017-06-25T09:41:24.999Z</time>
      </trkpt>
      <trkpt lat="45.8319" lon="-0.64892">
        <ele>5</ele>
        <time>2017-06-25T09:41:25.999Z</time>
      </trkpt>
      <trkpt lat="45.83189" lon="-0.64893">
        <ele>5</ele>
        <time>2017-06-25T09:41:26.999Z</time>
      </trkpt>
      <trkpt lat="45.83189" lon="-0.64894">
        <ele>5</ele>
        <time>2017-06-25T09:41:27.999Z</time>
      </trkpt>
      <trkpt lat="45.83189" lon="-0.64897">
        <ele>5</ele>
        <time>2017-06-25T09:41:29.999Z</time>
      </trkpt>
      <trkpt lat="45.83188" lon="-0.64898">
        <ele>5</ele>
        <time>2017-06-25T09:41:30.999Z</time>
      </trkpt>
      <trkpt lat="45.83188" lon="-0.649">
        <ele>5</ele>
        <time>2017-06-25T09:41:31.999Z</time>
      </trkpt>
      <trkpt lat="45.83188" lon="-0.64902">
        <ele>5</ele>
        <time>2017-06-25T09:41:32.999Z</time>
      </trkpt>
      <trkpt lat="45.83188" lon="-0.64903">
        <ele>5</ele>
        <time>2017-06-25T09:41:33.999Z</time>
      </trkpt>
      <trkpt lat="45.83188" lon="-0.64905">
        <ele>5</ele>
        <time>2017-06-25T09:41:35.999Z</time>
      </trkpt>
      <trkpt lat="45.83187" lon="-0.64908">
        <ele>5</ele>
        <time>2017-06-25T09:41:37.999Z</time>
      </trkpt>
      <trkpt lat="45.83187" lon="-0.6491">
        <ele>5</ele>
        <time>2017-06-25T09:41:38.999Z</time>
      </trkpt>
      <trkpt lat="45.83186" lon="-0.64911">
        <ele>5</ele>
        <time>2017-06-25T09:41:39.999Z</time>
      </trkpt>
      <trkpt lat="45.83186" lon="-0.64913">
        <ele>5</ele>
        <time>2017-06-25T09:41:40.999Z</time>
      </trkpt>
      <trkpt lat="45.83186" lon="-0.64915">
        <ele>5</ele>
        <time>2017-06-25T09:41:41.999Z</time>
      </trkpt>
      <trkpt lat="45.83185" lon="-0.64917">
        <ele>5</ele>
        <time>2017-06-25T09:41:43.999Z</time>
      </trkpt>
      <trkpt lat="45.83184" lon="-0.64919">
        <ele>5</ele>
        <time>2017-06-25T09:41:45.999Z</time>
      </trkpt>
      <trkpt lat="45.83183" lon="-0.64921">
        <ele>5</ele>
        <time>2017-06-25T09:41:46.999Z</time>
      </trkpt>
      <trkpt lat="45.83183" lon="-0.64924">
        <ele>5</ele>
        <time>2017-06-25T09:41:47.999Z</time>
      </trkpt>
      <trkpt lat="45.83182" lon="-0.64925">
        <ele>5</ele>
        <time>2017-06-25T09:41:48.999Z</time>
      </trkpt>
      <trkpt lat="45.83182" lon="-0.64927">
        <ele>5</ele>
        <time>2017-06-25T09:41:49.999Z</time>
      </trkpt>
      <trkpt lat="45.83182" lon="-0.64929">
        <ele>5</ele>
        <time>2017-06-25T09:41:50.999Z</time>
      </trkpt>
      <trkpt lat="45.83181" lon="-0.64931">
        <ele>5</ele>
        <time>2017-06-25T09:41:51.999Z</time>
      </trkpt>
      <trkpt lat="45.83181" lon="-0.64933">
        <ele>5</ele>
        <time>2017-06-25T09:41:52.999Z</time>
      </trkpt>
      <trkpt lat="45.83181" lon="-0.64934">
        <ele>5</ele>
        <time>2017-06-25T09:41:53.999Z</time>
      </trkpt>
      <trkpt lat="45.8318" lon="-0.64935">
        <ele>5</ele>
        <time>2017-06-25T09:41:54.999Z</time>
      </trkpt>
      <trkpt lat="45.8318" lon="-0.64937">
        <ele>5</ele>
        <time>2017-06-25T09:41:55.999Z</time>
      </trkpt>
      <trkpt lat="45.8318" lon="-0.64938">
        <ele>5</ele>
        <time>2017-06-25T09:41:56.999Z</time>
      </trkpt>
      <trkpt lat="45.83179" lon="-0.6494">
        <ele>5</ele>
        <time>2017-06-25T09:41:57.999Z</time>
      </trkpt>
      <trkpt lat="45.83179" lon="-0.64942">
        <ele>6</ele>
        <time>2017-06-25T09:41:58.999Z</time>
      </trkpt>
      <trkpt lat="45.83179" lon="-0.64944">
        <ele>6</ele>
        <time>2017-06-25T09:41:59.999Z</time>
      </trkpt>
      <trkpt lat="45.83178" lon="-0.64946">
        <ele>6</ele>
        <time>2017-06-25T09:42:01.999Z</time>
      </trkpt>
      <trkpt lat="45.83178" lon="-0.64949">
        <ele>6</ele>
        <time>2017-06-25T09:42:02.999Z</time>
      </trkpt>
      <trkpt lat="45.83178" lon="-0.64952">
        <ele>6</ele>
        <time>2017-06-25T09:42:03.999Z</time>
      </trkpt>
      <trkpt lat="45.83178" lon="-0.64954">
        <ele>6</ele>
        <time>2017-06-25T09:42:04.999Z</time>
      </trkpt>
      <trkpt lat="45.83178" lon="-0.64957">
        <ele>6</ele>
        <time>2017-06-25T09:42:05.999Z</time>
      </trkpt>
      <trkpt lat="45.83178" lon="-0.64959">
        <ele>6</ele>
        <time>2017-06-25T09:42:06.999Z</time>
      </trkpt>
      <trkpt lat="45.83178" lon="-0.64962">
        <ele>6</ele>
        <time>2017-06-25T09:42:07.999Z</time>
      </trkpt>
      <trkpt lat="45.83177" lon="-0.64964">
        <ele>6</ele>
        <time>2017-06-25T09:42:08.999Z</time>
      </trkpt>
      <trkpt lat="45.83176" lon="-0.64966">
        <ele>6</ele>
        <time>2017-06-25T09:42:09.999Z</time>
      </trkpt>
      <trkpt lat="45.83175" lon="-0.64968">
        <ele>6</ele>
        <time>2017-06-25T09:42:10.999Z</time>
      </trkpt>
      <trkpt lat="45.83175" lon="-0.6497">
        <ele>6</ele>
        <time>2017-06-25T09:42:11.999Z</time>
      </trkpt>
      <trkpt lat="45.83175" lon="-0.64972">
        <ele>6</ele>
        <time>2017-06-25T09:42:13.999Z</time>
      </trkpt>
      <trkpt lat="45.83175" lon="-0.64974">
        <ele>6</ele>
        <time>2017-06-25T09:42:15.999Z</time>
      </trkpt>
      <trkpt lat="45.83175" lon="-0.64975">
        <ele>6</ele>
        <time>2017-06-25T09:42:16.999Z</time>
      </trkpt>
      <trkpt lat="45.83174" lon="-0.64976">
        <ele>6</ele>
        <time>2017-06-25T09:42:17.999Z</time>
      </trkpt>
      <trkpt lat="45.83173" lon="-0.64977">
        <ele>6</ele>
        <time>2017-06-25T09:42:18.999Z</time>
      </trkpt>
      <trkpt lat="45.83172" lon="-0.6498">
        <ele>6</ele>
        <time>2017-06-25T09:42:20.999Z</time>
      </trkpt>
      <trkpt lat="45.83172" lon="-0.64982">
        <ele>6</ele>
        <time>2017-06-25T09:42:22.999Z</time>
      </trkpt>
      <trkpt lat="45.83171" lon="-0.64985">
        <ele>6</ele>
        <time>2017-06-25T09:42:23.999Z</time>
      </trkpt>
      <trkpt lat="45.8317" lon="-0.64987">
        <ele>6</ele>
        <time>2017-06-25T09:42:24.999Z</time>
      </trkpt>
      <trkpt lat="45.8317" lon="-0.64989">
        <ele>6</ele>
        <time>2017-06-25T09:42:27.999Z</time>
      </trkpt>
      <trkpt lat="45.83169" lon="-0.6499">
        <ele>6</ele>
        <time>2017-06-25T09:42:29.999Z</time>
      </trkpt>
      <trkpt lat="45.83168" lon="-0.64991">
        <ele>6</ele>
        <time>2017-06-25T09:42:30.999Z</time>
      </trkpt>
      <trkpt lat="45.83168" lon="-0.64993">
        <ele>6</ele>
        <time>2017-06-25T09:42:32.999Z</time>
      </trkpt>
      <trkpt lat="45.83168" lon="-0.64996">
        <ele>6</ele>
        <time>2017-06-25T09:42:35.999Z</time>
      </trkpt>
      <trkpt lat="45.83167" lon="-0.64998">
        <ele>6</ele>
        <time>2017-06-25T09:42:36.999Z</time>
      </trkpt>
      <trkpt lat="45.83167" lon="-0.65">
        <ele>6</ele>
        <time>2017-06-25T09:42:37.999Z</time>
      </trkpt>
      <trkpt lat="45.83167" lon="-0.65003">
        <ele>6</ele>
        <time>2017-06-25T09:42:38.999Z</time>
      </trkpt>
      <trkpt lat="45.83165" lon="-0.65006">
        <ele>6</ele>
        <time>2017-06-25T09:42:39.999Z</time>
      </trkpt>
      <trkpt lat="45.83165" lon="-0.65008">
        <ele>6</ele>
        <time>2017-06-25T09:42:40.999Z</time>
      </trkpt>
      <trkpt lat="45.83164" lon="-0.65011">
        <ele>5</ele>
        <time>2017-06-25T09:42:41.999Z</time>
      </trkpt>
      <trkpt lat="45.83163" lon="-0.65013">
        <ele>5</ele>
        <time>2017-06-25T09:42:42.999Z</time>
      </trkpt>
      <trkpt lat="45.83162" lon="-0.65015">
        <ele>5</ele>
        <time>2017-06-25T09:42:43.999Z</time>
      </trkpt>
      <trkpt lat="45.83161" lon="-0.65017">
        <ele>5</ele>
        <time>2017-06-25T09:42:44.999Z</time>
      </trkpt>
      <trkpt lat="45.8316" lon="-0.65019">
        <ele>5</ele>
        <time>2017-06-25T09:42:45.999Z</time>
      </trkpt>
      <trkpt lat="45.8316" lon="-0.65021">
        <ele>5</ele>
        <time>2017-06-25T09:42:46.999Z</time>
      </trkpt>
      <trkpt lat="45.83159" lon="-0.65022">
        <ele>5</ele>
        <time>2017-06-25T09:42:47.999Z</time>
      </trkpt>
      <trkpt lat="45.83159" lon="-0.65024">
        <ele>5</ele>
        <time>2017-06-25T09:42:48.999Z</time>
      </trkpt>
      <trkpt lat="45.83159" lon="-0.65026">
        <ele>5</ele>
        <time>2017-06-25T09:42:49.999Z</time>
      </trkpt>
      <trkpt lat="45.83157" lon="-0.65028">
        <ele>5</ele>
        <time>2017-06-25T09:42:50.999Z</time>
      </trkpt>
      <trkpt lat="45.83157" lon="-0.6503">
        <ele>5</ele>
        <time>2017-06-25T09:42:51.999Z</time>
      </trkpt>
      <trkpt lat="45.83156" lon="-0.65031">
        <ele>5</ele>
        <time>2017-06-25T09:42:52.999Z</time>
      </trkpt>
      <trkpt lat="45.83155" lon="-0.65032">
        <ele>5</ele>
        <time>2017-06-25T09:42:53.999Z</time>
      </trkpt>
      <trkpt lat="45.83154" lon="-0.65033">
        <ele>5</ele>
        <time>2017-06-25T09:42:54.999Z</time>
      </trkpt>
      <trkpt lat="45.83154" lon="-0.65035">
        <ele>5</ele>
        <time>2017-06-25T09:42:55.999Z</time>
      </trkpt>
      <trkpt lat="45.83153" lon="-0.65037">
        <ele>5</ele>
        <time>2017-06-25T09:42:56.999Z</time>
      </trkpt>
      <trkpt lat="45.83152" lon="-0.65039">
        <ele>5</ele>
        <time>2017-06-25T09:42:57.999Z</time>
      </trkpt>
      <trkpt lat="45.83152" lon="-0.6504">
        <ele>4</ele>
        <time>2017-06-25T09:42:58.999Z</time>
      </trkpt>
      <trkpt lat="45.83152" lon="-0.65043">
        <ele>4</ele>
        <time>2017-06-25T09:42:59.999Z</time>
      </trkpt>
      <trkpt lat="45.83152" lon="-0.65044">
        <ele>4</ele>
        <time>2017-06-25T09:43:00.999Z</time>
      </trkpt>
      <trkpt lat="45.83153" lon="-0.65047">
        <ele>4</ele>
        <time>2017-06-25T09:43:02.999Z</time>
      </trkpt>
      <trkpt lat="45.83153" lon="-0.65048">
        <ele>4</ele>
        <time>2017-06-25T09:43:03.999Z</time>
      </trkpt>
      <trkpt lat="45.83153" lon="-0.65051">
        <ele>4</ele>
        <time>2017-06-25T09:43:05.999Z</time>
      </trkpt>
      <trkpt lat="45.83154" lon="-0.65053">
        <ele>4</ele>
        <time>2017-06-25T09:43:06.999Z</time>
      </trkpt>
      <trkpt lat="45.83154" lon="-0.65054">
        <ele>4</ele>
        <time>2017-06-25T09:43:08.999Z</time>
      </trkpt>
      <trkpt lat="45.83155" lon="-0.65055">
        <ele>4</ele>
        <time>2017-06-25T09:43:09.999Z</time>
      </trkpt>
      <trkpt lat="45.83156" lon="-0.65057">
        <ele>4</ele>
        <time>2017-06-25T09:43:10.999Z</time>
      </trkpt>
      <trkpt lat="45.83157" lon="-0.65059">
        <ele>4</ele>
        <time>2017-06-25T09:43:11.999Z</time>
      </trkpt>
      <trkpt lat="45.83157" lon="-0.65062">
        <ele>4</ele>
        <time>2017-06-25T09:43:12.999Z</time>
      </trkpt>
      <trkpt lat="45.83157" lon="-0.65064">
        <ele>4</ele>
        <time>2017-06-25T09:43:13.999Z</time>
      </trkpt>
      <trkpt lat="45.83157" lon="-0.65065">
        <ele>4</ele>
        <time>2017-06-25T09:43:14.999Z</time>
      </trkpt>
      <trkpt lat="45.83157" lon="-0.65067">
        <ele>4</ele>
        <time>2017-06-25T09:43:15.999Z</time>
      </trkpt>
      <trkpt lat="45.83158" lon="-0.65069">
        <ele>4</ele>
        <time>2017-06-25T09:43:16.999Z</time>
      </trkpt>
      <trkpt lat="45.83159" lon="-0.65071">
        <ele>4</ele>
        <time>2017-06-25T09:43:17.999Z</time>
      </trkpt>
      <trkpt lat="45.83159" lon="-0.65072">
        <ele>4</ele>
        <time>2017-06-25T09:43:18.999Z</time>
      </trkpt>
      <trkpt lat="45.83159" lon="-0.65074">
        <ele>4</ele>
        <time>2017-06-25T09:43:19.999Z</time>
      </trkpt>
      <trkpt lat="45.83159" lon="-0.65076">
        <ele>4</ele>
        <time>2017-06-25T09:43:20.999Z</time>
      </trkpt>
      <trkpt lat="45.8316" lon="-0.65078">
        <ele>4</ele>
        <time>2017-06-25T09:43:21.999Z</time>
      </trkpt>
      <trkpt lat="45.8316" lon="-0.6508">
        <ele>4</ele>
        <time>2017-06-25T09:43:22.999Z</time>
      </trkpt>
      <trkpt lat="45.8316" lon="-0.65082">
        <ele>4</ele>
        <time>2017-06-25T09:43:23.999Z</time>
      </trkpt>
      <trkpt lat="45.83161" lon="-0.65083">
        <ele>4</ele>
        <time>2017-06-25T09:43:24.999Z</time>
      </trkpt>
      <trkpt lat="45.83161" lon="-0.65085">
        <ele>4</ele>
        <time>2017-06-25T09:43:25.999Z</time>
      </trkpt>
      <trkpt lat="45.83162" lon="-0.65087">
        <ele>4</ele>
        <time>2017-06-25T09:43:27.999Z</time>
      </trkpt>
      <trkpt lat="45.83162" lon="-0.65089">
        <ele>4</ele>
        <time>2017-06-25T09:43:29.999Z</time>
      </trkpt>
      <trkpt lat="45.83161" lon="-0.6509">
        <ele>4</ele>
        <time>2017-06-25T09:43:30.999Z</time>
      </trkpt>
      <trkpt lat="45.8316" lon="-0.65093">
        <ele>4</ele>
        <time>2017-06-25T09:43:32.999Z</time>
      </trkpt>
      <trkpt lat="45.8316" lon="-0.65095">
        <ele>4</ele>
        <time>2017-06-25T09:43:33.999Z</time>
      </trkpt>
      <trkpt lat="45.83159" lon="-0.65096">
        <ele>4</ele>
        <time>2017-06-25T09:43:34.999Z</time>
      </trkpt>
      <trkpt lat="45.83159" lon="-0.65097">
        <ele>4</ele>
        <time>2017-06-25T09:43:35.999Z</time>
      </trkpt>
      <trkpt lat="45.83158" lon="-0.65099">
        <ele>4</ele>
        <time>2017-06-25T09:43:37.999Z</time>
      </trkpt>
      <trkpt lat="45.83157" lon="-0.651">
        <ele>4</ele>
        <time>2017-06-25T09:43:38.999Z</time>
      </trkpt>
      <trkpt lat="45.83155" lon="-0.651">
        <ele>4</ele>
        <time>2017-06-25T09:43:39.999Z</time>
      </trkpt>
      <trkpt lat="45.83154" lon="-0.65101">
        <ele>4</ele>
        <time>2017-06-25T09:43:40.999Z</time>
      </trkpt>
      <trkpt lat="45.83154" lon="-0.65102">
        <ele>4</ele>
        <time>2017-06-25T09:43:41.999Z</time>
      </trkpt>
      <trkpt lat="45.83152" lon="-0.65103">
        <ele>4</ele>
        <time>2017-06-25T09:43:42.999Z</time>
      </trkpt>
      <trkpt lat="45.83151" lon="-0.65104">
        <ele>4</ele>
        <time>2017-06-25T09:43:43.999Z</time>
      </trkpt>
      <trkpt lat="45.83149" lon="-0.65104">
        <ele>4</ele>
        <time>2017-06-25T09:43:44.999Z</time>
      </trkpt>
      <trkpt lat="45.83147" lon="-0.65105">
        <ele>4</ele>
        <time>2017-06-25T09:43:46.999Z</time>
      </trkpt>
      <trkpt lat="45.83146" lon="-0.65106">
        <ele>4</ele>
        <time>2017-06-25T09:43:47.999Z</time>
      </trkpt>
      <trkpt lat="45.83144" lon="-0.65107">
        <ele>4</ele>
        <time>2017-06-25T09:43:48.999Z</time>
      </trkpt>
      <trkpt lat="45.83143" lon="-0.65108">
        <ele>4</ele>
        <time>2017-06-25T09:43:49.999Z</time>
      </trkpt>
      <trkpt lat="45.83141" lon="-0.65108">
        <ele>4</ele>
        <time>2017-06-25T09:43:50.999Z</time>
      </trkpt>
      <trkpt lat="45.8314" lon="-0.65109">
        <ele>4</ele>
        <time>2017-06-25T09:43:51.999Z</time>
      </trkpt>
      <trkpt lat="45.83138" lon="-0.65111">
        <ele>4</ele>
        <time>2017-06-25T09:43:52.999Z</time>
      </trkpt>
      <trkpt lat="45.83137" lon="-0.65111">
        <ele>4</ele>
        <time>2017-06-25T09:43:53.999Z</time>
      </trkpt>
      <trkpt lat="45.83136" lon="-0.65112">
        <ele>4</ele>
        <time>2017-06-25T09:43:55.999Z</time>
      </trkpt>
      <trkpt lat="45.83134" lon="-0.65112">
        <ele>4</ele>
        <time>2017-06-25T09:43:57.999Z</time>
      </trkpt>
      <trkpt lat="45.83132" lon="-0.65113">
        <ele>4</ele>
        <time>2017-06-25T09:43:59.999Z</time>
      </trkpt>
      <trkpt lat="45.83131" lon="-0.65114">
        <ele>4</ele>
        <time>2017-06-25T09:44:00.999Z</time>
      </trkpt>
      <trkpt lat="45.8313" lon="-0.65115">
        <ele>4</ele>
        <time>2017-06-25T09:44:01.999Z</time>
      </trkpt>
      <trkpt lat="45.83129" lon="-0.65116">
        <ele>4</ele>
        <time>2017-06-25T09:44:02.999Z</time>
      </trkpt>
      <trkpt lat="45.83128" lon="-0.65118">
        <ele>4</ele>
        <time>2017-06-25T09:44:03.999Z</time>
      </trkpt>
      <trkpt lat="45.83127" lon="-0.65119">
        <ele>4</ele>
        <time>2017-06-25T09:44:05.999Z</time>
      </trkpt>
      <trkpt lat="45.83125" lon="-0.65121">
        <ele>4</ele>
        <time>2017-06-25T09:44:07.999Z</time>
      </trkpt>
      <trkpt lat="45.83125" lon="-0.65122">
        <ele>4</ele>
        <time>2017-06-25T09:44:08.999Z</time>
      </trkpt>
      <trkpt lat="45.83123" lon="-0.65123">
        <ele>4</ele>
        <time>2017-06-25T09:44:09.999Z</time>
      </trkpt>
      <trkpt lat="45.83122" lon="-0.65125">
        <ele>4</ele>
        <time>2017-06-25T09:44:10.999Z</time>
      </trkpt>
      <trkpt lat="45.83121" lon="-0.65126">
        <ele>4</ele>
        <time>2017-06-25T09:44:11.999Z</time>
      </trkpt>
      <trkpt lat="45.8312" lon="-0.65126">
        <ele>4</ele>
        <time>2017-06-25T09:44:12.999Z</time>
      </trkpt>
      <trkpt lat="45.83118" lon="-0.65127">
        <ele>4</ele>
        <time>2017-06-25T09:44:13.999Z</time>
      </trkpt>
      <trkpt lat="45.83117" lon="-0.65127">
        <ele>4</ele>
        <time>2017-06-25T09:44:14.999Z</time>
      </trkpt>
      <trkpt lat="45.83116" lon="-0.65128">
        <ele>4</ele>
        <time>2017-06-25T09:44:16.999Z</time>
      </trkpt>
      <trkpt lat="45.83114" lon="-0.65129">
        <ele>4</ele>
        <time>2017-06-25T09:44:18.999Z</time>
      </trkpt>
      <trkpt lat="45.83113" lon="-0.6513">
        <ele>4</ele>
        <time>2017-06-25T09:44:19.999Z</time>
      </trkpt>
      <trkpt lat="45.83112" lon="-0.65131">
        <ele>4</ele>
        <time>2017-06-25T09:44:20.999Z</time>
      </trkpt>
      <trkpt lat="45.83111" lon="-0.65132">
        <ele>4</ele>
        <time>2017-06-25T09:44:21.999Z</time>
      </trkpt>
      <trkpt lat="45.8311" lon="-0.65133">
        <ele>4</ele>
        <time>2017-06-25T09:44:22.999Z</time>
      </trkpt>
      <trkpt lat="45.83109" lon="-0.65134">
        <ele>4</ele>
        <time>2017-06-25T09:44:24.999Z</time>
      </trkpt>
      <trkpt lat="45.83107" lon="-0.65136">
        <ele>4</ele>
        <time>2017-06-25T09:44:26.999Z</time>
      </trkpt>
      <trkpt lat="45.83106" lon="-0.65137">
        <ele>4</ele>
        <time>2017-06-25T09:44:27.999Z</time>
      </trkpt>
      <trkpt lat="45.83105" lon="-0.65137">
        <ele>4</ele>
        <time>2017-06-25T09:44:28.999Z</time>
      </trkpt>
      <trkpt lat="45.83104" lon="-0.65138">
        <ele>4</ele>
        <time>2017-06-25T09:44:29.999Z</time>
      </trkpt>
      <trkpt lat="45.83103" lon="-0.65139">
        <ele>4</ele>
        <time>2017-06-25T09:44:30.999Z</time>
      </trkpt>
      <trkpt lat="45.83102" lon="-0.6514">
        <ele>4</ele>
        <time>2017-06-25T09:44:31.999Z</time>
      </trkpt>
      <trkpt lat="45.83101" lon="-0.65141">
        <ele>4</ele>
        <time>2017-06-25T09:44:32.999Z</time>
      </trkpt>
      <trkpt lat="45.83099" lon="-0.65142">
        <ele>4</ele>
        <time>2017-06-25T09:44:33.999Z</time>
      </trkpt>
      <trkpt lat="45.83099" lon="-0.65142">
        <ele>4</ele>
        <time>2017-06-25T09:44:34.999Z</time>
      </trkpt>
      <trkpt lat="45.83098" lon="-0.65143">
        <ele>4</ele>
        <time>2017-06-25T09:44:35.999Z</time>
      </trkpt>
      <trkpt lat="45.83097" lon="-0.65144">
        <ele>4</ele>
        <time>2017-06-25T09:44:36.999Z</time>
      </trkpt>
      <trkpt lat="45.83096" lon="-0.65144">
        <ele>4</ele>
        <time>2017-06-25T09:44:37.999Z</time>
      </trkpt>
      <trkpt lat="45.83094" lon="-0.65145">
        <ele>4</ele>
        <time>2017-06-25T09:44:39.999Z</time>
      </trkpt>
      <trkpt lat="45.83092" lon="-0.65146">
        <ele>4</ele>
        <time>2017-06-25T09:44:40.999Z</time>
      </trkpt>
      <trkpt lat="45.83091" lon="-0.65147">
        <ele>4</ele>
        <time>2017-06-25T09:44:41.999Z</time>
      </trkpt>
      <trkpt lat="45.8309" lon="-0.65147">
        <ele>4</ele>
        <time>2017-06-25T09:44:42.999Z</time>
      </trkpt>
      <trkpt lat="45.83089" lon="-0.65146">
        <ele>4</ele>
        <time>2017-06-25T09:44:43.999Z</time>
      </trkpt>
      <trkpt lat="45.83088" lon="-0.65147">
        <ele>4</ele>
        <time>2017-06-25T09:44:44.999Z</time>
      </trkpt>
      <trkpt lat="45.83087" lon="-0.65148">
        <ele>4</ele>
        <time>2017-06-25T09:44:45.999Z</time>
      </trkpt>
      <trkpt lat="45.83086" lon="-0.65149">
        <ele>4</ele>
        <time>2017-06-25T09:44:46.999Z</time>
      </trkpt>
      <trkpt lat="45.83084" lon="-0.6515">
        <ele>4</ele>
        <time>2017-06-25T09:44:47.999Z</time>
      </trkpt>
      <trkpt lat="45.83083" lon="-0.65151">
        <ele>4</ele>
        <time>2017-06-25T09:44:48.999Z</time>
      </trkpt>
      <trkpt lat="45.83081" lon="-0.65152">
        <ele>4</ele>
        <time>2017-06-25T09:44:49.999Z</time>
      </trkpt>
      <trkpt lat="45.8308" lon="-0.65153">
        <ele>4</ele>
        <time>2017-06-25T09:44:50.999Z</time>
      </trkpt>
      <trkpt lat="45.83079" lon="-0.65154">
        <ele>4</ele>
        <time>2017-06-25T09:44:51.999Z</time>
      </trkpt>
      <trkpt lat="45.83078" lon="-0.65155">
        <ele>4</ele>
        <time>2017-06-25T09:44:52.999Z</time>
      </trkpt>
      <trkpt lat="45.83077" lon="-0.65156">
        <ele>4</ele>
        <time>2017-06-25T09:44:53.999Z</time>
      </trkpt>
      <trkpt lat="45.83076" lon="-0.65158">
        <ele>4</ele>
        <time>2017-06-25T09:44:54.999Z</time>
      </trkpt>
      <trkpt lat="45.83075" lon="-0.65158">
        <ele>4</ele>
        <time>2017-06-25T09:44:55.999Z</time>
      </trkpt>
      <trkpt lat="45.83073" lon="-0.6516">
        <ele>4</ele>
        <time>2017-06-25T09:44:57.999Z</time>
      </trkpt>
      <trkpt lat="45.83072" lon="-0.6516">
        <ele>4</ele>
        <time>2017-06-25T09:44:58.999Z</time>
      </trkpt>
      <trkpt lat="45.83071" lon="-0.65161">
        <ele>4</ele>
        <time>2017-06-25T09:44:59.999Z</time>
      </trkpt>
      <trkpt lat="45.8307" lon="-0.65161">
        <ele>4</ele>
        <time>2017-06-25T09:45:00.999Z</time>
      </trkpt>
      <trkpt lat="45.83069" lon="-0.65162">
        <ele>4</ele>
        <time>2017-06-25T09:45:01.999Z</time>
      </trkpt>
      <trkpt lat="45.83068" lon="-0.65163">
        <ele>4</ele>
        <time>2017-06-25T09:45:02.999Z</time>
      </trkpt>
      <trkpt lat="45.83066" lon="-0.65164">
        <ele>4</ele>
        <time>2017-06-25T09:45:04.999Z</time>
      </trkpt>
      <trkpt lat="45.83065" lon="-0.65165">
        <ele>4</ele>
        <time>2017-06-25T09:45:05.999Z</time>
      </trkpt>
      <trkpt lat="45.83065" lon="-0.65166">
        <ele>4</ele>
        <time>2017-06-25T09:45:06.999Z</time>
      </trkpt>
      <trkpt lat="45.83063" lon="-0.65167">
        <ele>4</ele>
        <time>2017-06-25T09:45:08.999Z</time>
      </trkpt>
      <trkpt lat="45.83061" lon="-0.65168">
        <ele>4</ele>
        <time>2017-06-25T09:45:09.999Z</time>
      </trkpt>
      <trkpt lat="45.8306" lon="-0.65169">
        <ele>4</ele>
        <time>2017-06-25T09:45:10.999Z</time>
      </trkpt>
      <trkpt lat="45.83059" lon="-0.65171">
        <ele>4</ele>
        <time>2017-06-25T09:45:11.999Z</time>
      </trkpt>
      <trkpt lat="45.83058" lon="-0.65172">
        <ele>4</ele>
        <time>2017-06-25T09:45:12.999Z</time>
      </trkpt>
      <trkpt lat="45.83057" lon="-0.65172">
        <ele>4</ele>
        <time>2017-06-25T09:45:13.999Z</time>
      </trkpt>
      <trkpt lat="45.83055" lon="-0.65173">
        <ele>4</ele>
        <time>2017-06-25T09:45:15.999Z</time>
      </trkpt>
      <trkpt lat="45.83054" lon="-0.65173">
        <ele>4</ele>
        <time>2017-06-25T09:45:16.999Z</time>
      </trkpt>
      <trkpt lat="45.83052" lon="-0.65175">
        <ele>4</ele>
        <time>2017-06-25T09:45:17.999Z</time>
      </trkpt>
      <trkpt lat="45.83051" lon="-0.65176">
        <ele>4</ele>
        <time>2017-06-25T09:45:18.999Z</time>
      </trkpt>
      <trkpt lat="45.8305" lon="-0.65177">
        <ele>4</ele>
        <time>2017-06-25T09:45:19.999Z</time>
      </trkpt>
      <trkpt lat="45.83049" lon="-0.65178">
        <ele>4</ele>
        <time>2017-06-25T09:45:20.999Z</time>
      </trkpt>
      <trkpt lat="45.83048" lon="-0.65179">
        <ele>4</ele>
        <time>2017-06-25T09:45:22.999Z</time>
      </trkpt>
      <trkpt lat="45.83047" lon="-0.6518">
        <ele>4</ele>
        <time>2017-06-25T09:45:23.999Z</time>
      </trkpt>
      <trkpt lat="45.83046" lon="-0.65181">
        <ele>4</ele>
        <time>2017-06-25T09:45:24.999Z</time>
      </trkpt>
      <trkpt lat="45.83045" lon="-0.65182">
        <ele>4</ele>
        <time>2017-06-25T09:45:25.999Z</time>
      </trkpt>
      <trkpt lat="45.83044" lon="-0.65183">
        <ele>4</ele>
        <time>2017-06-25T09:45:26.999Z</time>
      </trkpt>
      <trkpt lat="45.83043" lon="-0.65183">
        <ele>4</ele>
        <time>2017-06-25T09:45:27.999Z</time>
      </trkpt>
      <trkpt lat="45.83042" lon="-0.65184">
        <ele>4</ele>
        <time>2017-06-25T09:45:28.999Z</time>
      </trkpt>
      <trkpt lat="45.83041" lon="-0.65185">
        <ele>4</ele>
        <time>2017-06-25T09:45:29.999Z</time>
      </trkpt>
      <trkpt lat="45.8304" lon="-0.65186">
        <ele>4</ele>
        <time>2017-06-25T09:45:30.999Z</time>
      </trkpt>
      <trkpt lat="45.83039" lon="-0.65187">
        <ele>4</ele>
        <time>2017-06-25T09:45:31.999Z</time>
      </trkpt>
      <trkpt lat="45.83038" lon="-0.65189">
        <ele>4</ele>
        <time>2017-06-25T09:45:32.999Z</time>
      </trkpt>
      <trkpt lat="45.83037" lon="-0.6519">
        <ele>4</ele>
        <time>2017-06-25T09:45:33.999Z</time>
      </trkpt>
      <trkpt lat="45.83036" lon="-0.65191">
        <ele>4</ele>
        <time>2017-06-25T09:45:34.999Z</time>
      </trkpt>
      <trkpt lat="45.83033" lon="-0.65192">
        <ele>4</ele>
        <time>2017-06-25T09:45:36.999Z</time>
      </trkpt>
      <trkpt lat="45.83032" lon="-0.65193">
        <ele>4</ele>
        <time>2017-06-25T09:45:37.999Z</time>
      </trkpt>
      <trkpt lat="45.83031" lon="-0.65195">
        <ele>4</ele>
        <time>2017-06-25T09:45:38.999Z</time>
      </trkpt>
      <trkpt lat="45.83029" lon="-0.65195">
        <ele>4</ele>
        <time>2017-06-25T09:45:39.999Z</time>
      </trkpt>
      <trkpt lat="45.83028" lon="-0.65196">
        <ele>4</ele>
        <time>2017-06-25T09:45:40.999Z</time>
      </trkpt>
      <trkpt lat="45.83026" lon="-0.65198">
        <ele>4</ele>
        <time>2017-06-25T09:45:42.999Z</time>
      </trkpt>
      <trkpt lat="45.83024" lon="-0.65199">
        <ele>4</ele>
        <time>2017-06-25T09:45:43.999Z</time>
      </trkpt>
      <trkpt lat="45.83023" lon="-0.652">
        <ele>4</ele>
        <time>2017-06-25T09:45:44.999Z</time>
      </trkpt>
      <trkpt lat="45.83022" lon="-0.65201">
        <ele>4</ele>
        <time>2017-06-25T09:45:45.999Z</time>
      </trkpt>
      <trkpt lat="45.8302" lon="-0.65202">
        <ele>4</ele>
        <time>2017-06-25T09:45:47.999Z</time>
      </trkpt>
      <trkpt lat="45.83019" lon="-0.65203">
        <ele>4</ele>
        <time>2017-06-25T09:45:48.999Z</time>
      </trkpt>
      <trkpt lat="45.83018" lon="-0.65204">
        <ele>4</ele>
        <time>2017-06-25T09:45:49.999Z</time>
      </trkpt>
      <trkpt lat="45.83017" lon="-0.65205">
        <ele>4</ele>
        <time>2017-06-25T09:45:50.999Z</time>
      </trkpt>
      <trkpt lat="45.83016" lon="-0.65206">
        <ele>4</ele>
        <time>2017-06-25T09:45:51.999Z</time>
      </trkpt>
      <trkpt lat="45.83015" lon="-0.65206">
        <ele>4</ele>
        <time>2017-06-25T09:45:52.999Z</time>
      </trkpt>
      <trkpt lat="45.83014" lon="-0.65207">
        <ele>4</ele>
        <time>2017-06-25T09:45:53.999Z</time>
      </trkpt>
      <trkpt lat="45.83013" lon="-0.65209">
        <ele>4</ele>
        <time>2017-06-25T09:45:55.999Z</time>
      </trkpt>
      <trkpt lat="45.83012" lon="-0.6521">
        <ele>4</ele>
        <time>2017-06-25T09:45:56.999Z</time>
      </trkpt>
      <trkpt lat="45.83011" lon="-0.65211">
        <ele>4</ele>
        <time>2017-06-25T09:45:57.999Z</time>
      </trkpt>
      <trkpt lat="45.83009" lon="-0.65212">
        <ele>4</ele>
        <time>2017-06-25T09:45:59.999Z</time>
      </trkpt>
      <trkpt lat="45.83009" lon="-0.65214">
        <ele>4</ele>
        <time>2017-06-25T09:46:01.999Z</time>
      </trkpt>
      <trkpt lat="45.83007" lon="-0.65215">
        <ele>4</ele>
        <time>2017-06-25T09:46:03.999Z</time>
      </trkpt>
      <trkpt lat="45.83006" lon="-0.65217">
        <ele>4</ele>
        <time>2017-06-25T09:46:05.999Z</time>
      </trkpt>
      <trkpt lat="45.83005" lon="-0.65218">
        <ele>4</ele>
        <time>2017-06-25T09:46:06.999Z</time>
      </trkpt>
      <trkpt lat="45.83003" lon="-0.65219">
        <ele>4</ele>
        <time>2017-06-25T09:46:07.999Z</time>
      </trkpt>
      <trkpt lat="45.83003" lon="-0.6522">
        <ele>4</ele>
        <time>2017-06-25T09:46:08.999Z</time>
      </trkpt>
      <trkpt lat="45.83001" lon="-0.65221">
        <ele>4</ele>
        <time>2017-06-25T09:46:09.999Z</time>
      </trkpt>
      <trkpt lat="45.83" lon="-0.65222">
        <ele>4</ele>
        <time>2017-06-25T09:46:10.999Z</time>
      </trkpt>
      <trkpt lat="45.82999" lon="-0.65223">
        <ele>4</ele>
        <time>2017-06-25T09:46:11.999Z</time>
      </trkpt>
      <trkpt lat="45.82998" lon="-0.65225">
        <ele>4</ele>
        <time>2017-06-25T09:46:12.999Z</time>
      </trkpt>
      <trkpt lat="45.82996" lon="-0.65227">
        <ele>4</ele>
        <time>2017-06-25T09:46:13.999Z</time>
      </trkpt>
      <trkpt lat="45.82995" lon="-0.65228">
        <ele>4</ele>
        <time>2017-06-25T09:46:14.999Z</time>
      </trkpt>
      <trkpt lat="45.82994" lon="-0.6523">
        <ele>4</ele>
        <time>2017-06-25T09:46:15.999Z</time>
      </trkpt>
      <trkpt lat="45.82993" lon="-0.65231">
        <ele>4</ele>
        <time>2017-06-25T09:46:16.999Z</time>
      </trkpt>
      <trkpt lat="45.82992" lon="-0.65232">
        <ele>4</ele>
        <time>2017-06-25T09:46:17.999Z</time>
      </trkpt>
      <trkpt lat="45.82991" lon="-0.65232">
        <ele>4</ele>
        <time>2017-06-25T09:46:18.999Z</time>
      </trkpt>
      <trkpt lat="45.8299" lon="-0.65233">
        <ele>4</ele>
        <time>2017-06-25T09:46:19.999Z</time>
      </trkpt>
      <trkpt lat="45.82989" lon="-0.65234">
        <ele>4</ele>
        <time>2017-06-25T09:46:20.999Z</time>
      </trkpt>
      <trkpt lat="45.82988" lon="-0.65235">
        <ele>4</ele>
        <time>2017-06-25T09:46:21.999Z</time>
      </trkpt>
      <trkpt lat="45.82987" lon="-0.65236">
        <ele>4</ele>
        <time>2017-06-25T09:46:22.999Z</time>
      </trkpt>
      <trkpt lat="45.82986" lon="-0.65237">
        <ele>4</ele>
        <time>2017-06-25T09:46:23.999Z</time>
      </trkpt>
      <trkpt lat="45.82985" lon="-0.65238">
        <ele>4</ele>
        <time>2017-06-25T09:46:24.999Z</time>
      </trkpt>
      <trkpt lat="45.82983" lon="-0.65238">
        <ele>4</ele>
        <time>2017-06-25T09:46:26.999Z</time>
      </trkpt>
      <trkpt lat="45.82982" lon="-0.65239">
        <ele>4</ele>
        <time>2017-06-25T09:46:27.999Z</time>
      </trkpt>
      <trkpt lat="45.8298" lon="-0.65241">
        <ele>4</ele>
        <time>2017-06-25T09:46:28.999Z</time>
      </trkpt>
      <trkpt lat="45.82978" lon="-0.65242">
        <ele>4</ele>
        <time>2017-06-25T09:46:29.999Z</time>
      </trkpt>
      <trkpt lat="45.82977" lon="-0.65242">
        <ele>4</ele>
        <time>2017-06-25T09:46:30.999Z</time>
      </trkpt>
      <trkpt lat="45.82976" lon="-0.65243">
        <ele>4</ele>
        <time>2017-06-25T09:46:31.999Z</time>
      </trkpt>
      <trkpt lat="45.82975" lon="-0.65243">
        <ele>4</ele>
        <time>2017-06-25T09:46:32.999Z</time>
      </trkpt>
      <trkpt lat="45.82974" lon="-0.65244">
        <ele>4</ele>
        <time>2017-06-25T09:46:33.999Z</time>
      </trkpt>
      <trkpt lat="45.82973" lon="-0.65246">
        <ele>4</ele>
        <time>2017-06-25T09:46:34.999Z</time>
      </trkpt>
      <trkpt lat="45.82972" lon="-0.65247">
        <ele>4</ele>
        <time>2017-06-25T09:46:35.999Z</time>
      </trkpt>
      <trkpt lat="45.82972" lon="-0.65248">
        <ele>4</ele>
        <time>2017-06-25T09:46:36.999Z</time>
      </trkpt>
      <trkpt lat="45.8297" lon="-0.65249">
        <ele>4</ele>
        <time>2017-06-25T09:46:38.999Z</time>
      </trkpt>
      <trkpt lat="45.8297" lon="-0.6525">
        <ele>4</ele>
        <time>2017-06-25T09:46:39.999Z</time>
      </trkpt>
      <trkpt lat="45.82969" lon="-0.6525">
        <ele>3</ele>
        <time>2017-06-25T09:46:40.999Z</time>
      </trkpt>
      <trkpt lat="45.82968" lon="-0.65251">
        <ele>3</ele>
        <time>2017-06-25T09:46:41.999Z</time>
      </trkpt>
      <trkpt lat="45.82967" lon="-0.65252">
        <ele>3</ele>
        <time>2017-06-25T09:46:42.999Z</time>
      </trkpt>
      <trkpt lat="45.82966" lon="-0.65254">
        <ele>3</ele>
        <time>2017-06-25T09:46:43.999Z</time>
      </trkpt>
      <trkpt lat="45.82965" lon="-0.65254">
        <ele>3</ele>
        <time>2017-06-25T09:46:44.999Z</time>
      </trkpt>
      <trkpt lat="45.82964" lon="-0.65256">
        <ele>3</ele>
        <time>2017-06-25T09:46:45.999Z</time>
      </trkpt>
      <trkpt lat="45.82962" lon="-0.65257">
        <ele>3</ele>
        <time>2017-06-25T09:46:46.999Z</time>
      </trkpt>
      <trkpt lat="45.82961" lon="-0.65259">
        <ele>3</ele>
        <time>2017-06-25T09:46:47.999Z</time>
      </trkpt>
      <trkpt lat="45.8296" lon="-0.6526">
        <ele>3</ele>
        <time>2017-06-25T09:46:48.999Z</time>
      </trkpt>
      <trkpt lat="45.82959" lon="-0.65261">
        <ele>3</ele>
        <time>2017-06-25T09:46:49.999Z</time>
      </trkpt>
      <trkpt lat="45.82958" lon="-0.65262">
        <ele>3</ele>
        <time>2017-06-25T09:46:50.999Z</time>
      </trkpt>
      <trkpt lat="45.82958" lon="-0.65264">
        <ele>3</ele>
        <time>2017-06-25T09:46:51.999Z</time>
      </trkpt>
      <trkpt lat="45.82956" lon="-0.65265">
        <ele>3</ele>
        <time>2017-06-25T09:46:52.999Z</time>
      </trkpt>
      <trkpt lat="45.82955" lon="-0.65266">
        <ele>3</ele>
        <time>2017-06-25T09:46:53.999Z</time>
      </trkpt>
      <trkpt lat="45.82954" lon="-0.65268">
        <ele>3</ele>
        <time>2017-06-25T09:46:54.999Z</time>
      </trkpt>
      <trkpt lat="45.82954" lon="-0.65269">
        <ele>3</ele>
        <time>2017-06-25T09:46:55.999Z</time>
      </trkpt>
      <trkpt lat="45.82953" lon="-0.65271">
        <ele>3</ele>
        <time>2017-06-25T09:46:56.999Z</time>
      </trkpt>
      <trkpt lat="45.82952" lon="-0.65272">
        <ele>3</ele>
        <time>2017-06-25T09:46:57.999Z</time>
      </trkpt>
      <trkpt lat="45.8295" lon="-0.65274">
        <ele>3</ele>
        <time>2017-06-25T09:46:59.999Z</time>
      </trkpt>
      <trkpt lat="45.82949" lon="-0.65275">
        <ele>3</ele>
        <time>2017-06-25T09:47:00.999Z</time>
      </trkpt>
      <trkpt lat="45.82948" lon="-0.65276">
        <ele>3</ele>
        <time>2017-06-25T09:47:01.999Z</time>
      </trkpt>
      <trkpt lat="45.82946" lon="-0.65277">
        <ele>3</ele>
        <time>2017-06-25T09:47:02.999Z</time>
      </trkpt>
      <trkpt lat="45.82945" lon="-0.65278">
        <ele>3</ele>
        <time>2017-06-25T09:47:03.999Z</time>
      </trkpt>
      <trkpt lat="45.82944" lon="-0.65279">
        <ele>3</ele>
        <time>2017-06-25T09:47:04.999Z</time>
      </trkpt>
      <trkpt lat="45.82943" lon="-0.65281">
        <ele>3</ele>
        <time>2017-06-25T09:47:05.999Z</time>
      </trkpt>
      <trkpt lat="45.82941" lon="-0.65282">
        <ele>3</ele>
        <time>2017-06-25T09:47:06.999Z</time>
      </trkpt>
      <trkpt lat="45.82941" lon="-0.65283">
        <ele>3</ele>
        <time>2017-06-25T09:47:07.999Z</time>
      </trkpt>
      <trkpt lat="45.8294" lon="-0.65284">
        <ele>3</ele>
        <time>2017-06-25T09:47:08.999Z</time>
      </trkpt>
      <trkpt lat="45.82939" lon="-0.65284">
        <ele>3</ele>
        <time>2017-06-25T09:47:09.999Z</time>
      </trkpt>
      <trkpt lat="45.82938" lon="-0.65286">
        <ele>3</ele>
        <time>2017-06-25T09:47:10.999Z</time>
      </trkpt>
      <trkpt lat="45.82937" lon="-0.65287">
        <ele>3</ele>
        <time>2017-06-25T09:47:11.999Z</time>
      </trkpt>
      <trkpt lat="45.82936" lon="-0.65288">
        <ele>3</ele>
        <time>2017-06-25T09:47:12.999Z</time>
      </trkpt>
      <trkpt lat="45.82935" lon="-0.65289">
        <ele>3</ele>
        <time>2017-06-25T09:47:13.999Z</time>
      </trkpt>
      <trkpt lat="45.82935" lon="-0.65291">
        <ele>3</ele>
        <time>2017-06-25T09:47:14.999Z</time>
      </trkpt>
      <trkpt lat="45.82933" lon="-0.65292">
        <ele>3</ele>
        <time>2017-06-25T09:47:15.999Z</time>
      </trkpt>
      <trkpt lat="45.82932" lon="-0.65293">
        <ele>3</ele>
        <time>2017-06-25T09:47:16.999Z</time>
      </trkpt>
      <trkpt lat="45.82931" lon="-0.65294">
        <ele>3</ele>
        <time>2017-06-25T09:47:17.999Z</time>
      </trkpt>
      <trkpt lat="45.8293" lon="-0.65296">
        <ele>3</ele>
        <time>2017-06-25T09:47:18.999Z</time>
      </trkpt>
      <trkpt lat="45.82929" lon="-0.65296">
        <ele>3</ele>
        <time>2017-06-25T09:47:19.999Z</time>
      </trkpt>
      <trkpt lat="45.82928" lon="-0.65297">
        <ele>3</ele>
        <time>2017-06-25T09:47:20.999Z</time>
      </trkpt>
      <trkpt lat="45.82927" lon="-0.65298">
        <ele>3</ele>
        <time>2017-06-25T09:47:21.999Z</time>
      </trkpt>
      <trkpt lat="45.82926" lon="-0.65299">
        <ele>3</ele>
        <time>2017-06-25T09:47:22.999Z</time>
      </trkpt>
      <trkpt lat="45.82925" lon="-0.653">
        <ele>3</ele>
        <time>2017-06-25T09:47:23.999Z</time>
      </trkpt>
      <trkpt lat="45.82925" lon="-0.65302">
        <ele>3</ele>
        <time>2017-06-25T09:47:24.999Z</time>
      </trkpt>
      <trkpt lat="45.82924" lon="-0.65302">
        <ele>3</ele>
        <time>2017-06-25T09:47:25.999Z</time>
      </trkpt>
      <trkpt lat="45.82922" lon="-0.65304">
        <ele>3</ele>
        <time>2017-06-25T09:47:27.999Z</time>
      </trkpt>
      <trkpt lat="45.82922" lon="-0.65305">
        <ele>3</ele>
        <time>2017-06-25T09:47:28.999Z</time>
      </trkpt>
      <trkpt lat="45.82921" lon="-0.65306">
        <ele>3</ele>
        <time>2017-06-25T09:47:29.999Z</time>
      </trkpt>
      <trkpt lat="45.8292" lon="-0.65307">
        <ele>3</ele>
        <time>2017-06-25T09:47:30.999Z</time>
      </trkpt>
      <trkpt lat="45.82919" lon="-0.65308">
        <ele>3</ele>
        <time>2017-06-25T09:47:31.999Z</time>
      </trkpt>
      <trkpt lat="45.82918" lon="-0.6531">
        <ele>3</ele>
        <time>2017-06-25T09:47:32.999Z</time>
      </trkpt>
      <trkpt lat="45.82917" lon="-0.65311">
        <ele>2</ele>
        <time>2017-06-25T09:47:33.999Z</time>
      </trkpt>
      <trkpt lat="45.82916" lon="-0.65312">
        <ele>2</ele>
        <time>2017-06-25T09:47:34.999Z</time>
      </trkpt>
      <trkpt lat="45.82915" lon="-0.65313">
        <ele>2</ele>
        <time>2017-06-25T09:47:35.999Z</time>
      </trkpt>
      <trkpt lat="45.82914" lon="-0.65314">
        <ele>2</ele>
        <time>2017-06-25T09:47:36.999Z</time>
      </trkpt>
      <trkpt lat="45.82912" lon="-0.65315">
        <ele>2</ele>
        <time>2017-06-25T09:47:38.999Z</time>
      </trkpt>
      <trkpt lat="45.82912" lon="-0.65316">
        <ele>2</ele>
        <time>2017-06-25T09:47:39.999Z</time>
      </trkpt>
      <trkpt lat="45.82911" lon="-0.65317">
        <ele>2</ele>
        <time>2017-06-25T09:47:40.999Z</time>
      </trkpt>
      <trkpt lat="45.8291" lon="-0.65319">
        <ele>2</ele>
        <time>2017-06-25T09:47:41.999Z</time>
      </trkpt>
      <trkpt lat="45.82909" lon="-0.6532">
        <ele>2</ele>
        <time>2017-06-25T09:47:42.999Z</time>
      </trkpt>
      <trkpt lat="45.82908" lon="-0.65321">
        <ele>2</ele>
        <time>2017-06-25T09:47:43.999Z</time>
      </trkpt>
      <trkpt lat="45.82907" lon="-0.65323">
        <ele>2</ele>
        <time>2017-06-25T09:47:44.999Z</time>
      </trkpt>
      <trkpt lat="45.82906" lon="-0.65324">
        <ele>2</ele>
        <time>2017-06-25T09:47:45.999Z</time>
      </trkpt>
      <trkpt lat="45.82905" lon="-0.65325">
        <ele>2</ele>
        <time>2017-06-25T09:47:46.999Z</time>
      </trkpt>
      <trkpt lat="45.82904" lon="-0.65326">
        <ele>2</ele>
        <time>2017-06-25T09:47:47.999Z</time>
      </trkpt>
      <trkpt lat="45.82902" lon="-0.65328">
        <ele>2</ele>
        <time>2017-06-25T09:47:48.999Z</time>
      </trkpt>
      <trkpt lat="45.82901" lon="-0.65329">
        <ele>2</ele>
        <time>2017-06-25T09:47:49.999Z</time>
      </trkpt>
      <trkpt lat="45.829" lon="-0.6533">
        <ele>2</ele>
        <time>2017-06-25T09:47:50.999Z</time>
      </trkpt>
      <trkpt lat="45.82898" lon="-0.65332">
        <ele>2</ele>
        <time>2017-06-25T09:47:51.999Z</time>
      </trkpt>
      <trkpt lat="45.82897" lon="-0.65333">
        <ele>2</ele>
        <time>2017-06-25T09:47:52.999Z</time>
      </trkpt>
      <trkpt lat="45.82896" lon="-0.65334">
        <ele>2</ele>
        <time>2017-06-25T09:47:53.999Z</time>
      </trkpt>
      <trkpt lat="45.82895" lon="-0.65335">
        <ele>2</ele>
        <time>2017-06-25T09:47:54.999Z</time>
      </trkpt>
      <trkpt lat="45.82894" lon="-0.65336">
        <ele>2</ele>
        <time>2017-06-25T09:47:55.999Z</time>
      </trkpt>
      <trkpt lat="45.82893" lon="-0.65337">
        <ele>2</ele>
        <time>2017-06-25T09:47:56.999Z</time>
      </trkpt>
      <trkpt lat="45.82892" lon="-0.65338">
        <ele>2</ele>
        <time>2017-06-25T09:47:57.999Z</time>
      </trkpt>
      <trkpt lat="45.82892" lon="-0.65339">
        <ele>2</ele>
        <time>2017-06-25T09:47:58.999Z</time>
      </trkpt>
      <trkpt lat="45.8289" lon="-0.6534">
        <ele>2</ele>
        <time>2017-06-25T09:47:59.999Z</time>
      </trkpt>
      <trkpt lat="45.82889" lon="-0.65342">
        <ele>2</ele>
        <time>2017-06-25T09:48:00.999Z</time>
      </trkpt>
      <trkpt lat="45.82888" lon="-0.65344">
        <ele>2</ele>
        <time>2017-06-25T09:48:01.999Z</time>
      </trkpt>
      <trkpt lat="45.82887" lon="-0.65345">
        <ele>2</ele>
        <time>2017-06-25T09:48:02.999Z</time>
      </trkpt>
      <trkpt lat="45.82885" lon="-0.65346">
        <ele>2</ele>
        <time>2017-06-25T09:48:03.999Z</time>
      </trkpt>
      <trkpt lat="45.82884" lon="-0.65347">
        <ele>2</ele>
        <time>2017-06-25T09:48:04.999Z</time>
      </trkpt>
      <trkpt lat="45.82883" lon="-0.65348">
        <ele>2</ele>
        <time>2017-06-25T09:48:05.999Z</time>
      </trkpt>
      <trkpt lat="45.82882" lon="-0.65349">
        <ele>2</ele>
        <time>2017-06-25T09:48:06.999Z</time>
      </trkpt>
      <trkpt lat="45.82881" lon="-0.6535">
        <ele>2</ele>
        <time>2017-06-25T09:48:07.999Z</time>
      </trkpt>
      <trkpt lat="45.8288" lon="-0.65351">
        <ele>2</ele>
        <time>2017-06-25T09:48:08.999Z</time>
      </trkpt>
      <trkpt lat="45.82879" lon="-0.65352">
        <ele>2</ele>
        <time>2017-06-25T09:48:09.999Z</time>
      </trkpt>
      <trkpt lat="45.82878" lon="-0.65353">
        <ele>2</ele>
        <time>2017-06-25T09:48:10.999Z</time>
      </trkpt>
      <trkpt lat="45.82877" lon="-0.65354">
        <ele>2</ele>
        <time>2017-06-25T09:48:11.999Z</time>
      </trkpt>
      <trkpt lat="45.82876" lon="-0.65356">
        <ele>2</ele>
        <time>2017-06-25T09:48:12.999Z</time>
      </trkpt>
      <trkpt lat="45.82875" lon="-0.65357">
        <ele>2</ele>
        <time>2017-06-25T09:48:13.999Z</time>
      </trkpt>
      <trkpt lat="45.82874" lon="-0.65358">
        <ele>2</ele>
        <time>2017-06-25T09:48:14.999Z</time>
      </trkpt>
      <trkpt lat="45.82873" lon="-0.65359">
        <ele>2</ele>
        <time>2017-06-25T09:48:15.999Z</time>
      </trkpt>
      <trkpt lat="45.82872" lon="-0.6536">
        <ele>2</ele>
        <time>2017-06-25T09:48:16.999Z</time>
      </trkpt>
      <trkpt lat="45.82871" lon="-0.65361">
        <ele>2</ele>
        <time>2017-06-25T09:48:17.999Z</time>
      </trkpt>
      <trkpt lat="45.8287" lon="-0.65363">
        <ele>2</ele>
        <time>2017-06-25T09:48:18.999Z</time>
      </trkpt>
      <trkpt lat="45.82869" lon="-0.65364">
        <ele>2</ele>
        <time>2017-06-25T09:48:19.999Z</time>
      </trkpt>
      <trkpt lat="45.82867" lon="-0.65365">
        <ele>2</ele>
        <time>2017-06-25T09:48:20.999Z</time>
      </trkpt>
      <trkpt lat="45.82866" lon="-0.65366">
        <ele>2</ele>
        <time>2017-06-25T09:48:21.999Z</time>
      </trkpt>
      <trkpt lat="45.82865" lon="-0.65367">
        <ele>2</ele>
        <time>2017-06-25T09:48:22.999Z</time>
      </trkpt>
      <trkpt lat="45.82864" lon="-0.65367">
        <ele>2</ele>
        <time>2017-06-25T09:48:23.999Z</time>
      </trkpt>
      <trkpt lat="45.82863" lon="-0.65368">
        <ele>2</ele>
        <time>2017-06-25T09:48:24.999Z</time>
      </trkpt>
      <trkpt lat="45.82862" lon="-0.65369">
        <ele>2</ele>
        <time>2017-06-25T09:48:25.999Z</time>
      </trkpt>
      <trkpt lat="45.82861" lon="-0.6537">
        <ele>2</ele>
        <time>2017-06-25T09:48:26.999Z</time>
      </trkpt>
      <trkpt lat="45.82859" lon="-0.65371">
        <ele>2</ele>
        <time>2017-06-25T09:48:28.999Z</time>
      </trkpt>
      <trkpt lat="45.82859" lon="-0.65372">
        <ele>2</ele>
        <time>2017-06-25T09:48:29.999Z</time>
      </trkpt>
      <trkpt lat="45.82858" lon="-0.65373">
        <ele>2</ele>
        <time>2017-06-25T09:48:30.999Z</time>
      </trkpt>
      <trkpt lat="45.82856" lon="-0.65374">
        <ele>2</ele>
        <time>2017-06-25T09:48:31.999Z</time>
      </trkpt>
      <trkpt lat="45.82855" lon="-0.65375">
        <ele>2</ele>
        <time>2017-06-25T09:48:32.999Z</time>
      </trkpt>
      <trkpt lat="45.82854" lon="-0.65376">
        <ele>2</ele>
        <time>2017-06-25T09:48:33.999Z</time>
      </trkpt>
      <trkpt lat="45.82853" lon="-0.65377">
        <ele>2</ele>
        <time>2017-06-25T09:48:34.999Z</time>
      </trkpt>
      <trkpt lat="45.82851" lon="-0.65378">
        <ele>2</ele>
        <time>2017-06-25T09:48:35.999Z</time>
      </trkpt>
      <trkpt lat="45.8285" lon="-0.65379">
        <ele>2</ele>
        <time>2017-06-25T09:48:36.999Z</time>
      </trkpt>
      <trkpt lat="45.82848" lon="-0.6538">
        <ele>2</ele>
        <time>2017-06-25T09:48:37.999Z</time>
      </trkpt>
      <trkpt lat="45.82848" lon="-0.65381">
        <ele>2</ele>
        <time>2017-06-25T09:48:38.999Z</time>
      </trkpt>
      <trkpt lat="45.82847" lon="-0.65382">
        <ele>2</ele>
        <time>2017-06-25T09:48:39.999Z</time>
      </trkpt>
      <trkpt lat="45.82846" lon="-0.65383">
        <ele>2</ele>
        <time>2017-06-25T09:48:40.999Z</time>
      </trkpt>
      <trkpt lat="45.82845" lon="-0.65385">
        <ele>2</ele>
        <time>2017-06-25T09:48:41.999Z</time>
      </trkpt>
      <trkpt lat="45.82844" lon="-0.65386">
        <ele>2</ele>
        <time>2017-06-25T09:48:42.999Z</time>
      </trkpt>
      <trkpt lat="45.82843" lon="-0.65387">
        <ele>2</ele>
        <time>2017-06-25T09:48:43.999Z</time>
      </trkpt>
      <trkpt lat="45.82842" lon="-0.65388">
        <ele>2</ele>
        <time>2017-06-25T09:48:44.999Z</time>
      </trkpt>
      <trkpt lat="45.82841" lon="-0.65389">
        <ele>2</ele>
        <time>2017-06-25T09:48:45.999Z</time>
      </trkpt>
      <trkpt lat="45.8284" lon="-0.65389">
        <ele>2</ele>
        <time>2017-06-25T09:48:46.999Z</time>
      </trkpt>
      <trkpt lat="45.82839" lon="-0.6539">
        <ele>2</ele>
        <time>2017-06-25T09:48:47.999Z</time>
      </trkpt>
      <trkpt lat="45.82837" lon="-0.65392">
        <ele>2</ele>
        <time>2017-06-25T09:48:49.999Z</time>
      </trkpt>
      <trkpt lat="45.82836" lon="-0.65393">
        <ele>2</ele>
        <time>2017-06-25T09:48:50.999Z</time>
      </trkpt>
      <trkpt lat="45.82835" lon="-0.65394">
        <ele>2</ele>
        <time>2017-06-25T09:48:51.999Z</time>
      </trkpt>
      <trkpt lat="45.82834" lon="-0.65396">
        <ele>2</ele>
        <time>2017-06-25T09:48:53.999Z</time>
      </trkpt>
      <trkpt lat="45.82832" lon="-0.65398">
        <ele>2</ele>
        <time>2017-06-25T09:48:55.999Z</time>
      </trkpt>
      <trkpt lat="45.8283" lon="-0.654">
        <ele>2</ele>
        <time>2017-06-25T09:48:57.999Z</time>
      </trkpt>
      <trkpt lat="45.8283" lon="-0.65401">
        <ele>2</ele>
        <time>2017-06-25T09:48:58.999Z</time>
      </trkpt>
      <trkpt lat="45.82829" lon="-0.65403">
        <ele>2</ele>
        <time>2017-06-25T09:48:59.999Z</time>
      </trkpt>
      <trkpt lat="45.82828" lon="-0.65403">
        <ele>2</ele>
        <time>2017-06-25T09:49:00.999Z</time>
      </trkpt>
      <trkpt lat="45.82826" lon="-0.65404">
        <ele>2</ele>
        <time>2017-06-25T09:49:01.999Z</time>
      </trkpt>
      <trkpt lat="45.82825" lon="-0.65405">
        <ele>2</ele>
        <time>2017-06-25T09:49:02.999Z</time>
      </trkpt>
      <trkpt lat="45.82824" lon="-0.65406">
        <ele>2</ele>
        <time>2017-06-25T09:49:03.999Z</time>
      </trkpt>
      <trkpt lat="45.82823" lon="-0.65408">
        <ele>2</ele>
        <time>2017-06-25T09:49:04.999Z</time>
      </trkpt>
      <trkpt lat="45.82822" lon="-0.6541">
        <ele>2</ele>
        <time>2017-06-25T09:49:05.999Z</time>
      </trkpt>
      <trkpt lat="45.82821" lon="-0.65412">
        <ele>2</ele>
        <time>2017-06-25T09:49:06.999Z</time>
      </trkpt>
      <trkpt lat="45.82819" lon="-0.65414">
        <ele>2</ele>
        <time>2017-06-25T09:49:08.999Z</time>
      </trkpt>
      <trkpt lat="45.82818" lon="-0.65416">
        <ele>2</ele>
        <time>2017-06-25T09:49:10.999Z</time>
      </trkpt>
      <trkpt lat="45.82817" lon="-0.65418">
        <ele>2</ele>
        <time>2017-06-25T09:49:12.999Z</time>
      </trkpt>
      <trkpt lat="45.82815" lon="-0.6542">
        <ele>2</ele>
        <time>2017-06-25T09:49:14.999Z</time>
      </trkpt>
      <trkpt lat="45.82814" lon="-0.65421">
        <ele>2</ele>
        <time>2017-06-25T09:49:15.999Z</time>
      </trkpt>
      <trkpt lat="45.82813" lon="-0.65421">
        <ele>2</ele>
        <time>2017-06-25T09:49:16.999Z</time>
      </trkpt>
      <trkpt lat="45.82812" lon="-0.65424">
        <ele>2</ele>
        <time>2017-06-25T09:49:19.999Z</time>
      </trkpt>
      <trkpt lat="45.82811" lon="-0.65425">
        <ele>2</ele>
        <time>2017-06-25T09:49:20.999Z</time>
      </trkpt>
      <trkpt lat="45.8281" lon="-0.65426">
        <ele>2</ele>
        <time>2017-06-25T09:49:21.999Z</time>
      </trkpt>
      <trkpt lat="45.82809" lon="-0.65427">
        <ele>2</ele>
        <time>2017-06-25T09:49:22.999Z</time>
      </trkpt>
      <trkpt lat="45.82808" lon="-0.65429">
        <ele>2</ele>
        <time>2017-06-25T09:49:23.999Z</time>
      </trkpt>
      <trkpt lat="45.82807" lon="-0.65431">
        <ele>2</ele>
        <time>2017-06-25T09:49:25.999Z</time>
      </trkpt>
      <trkpt lat="45.82806" lon="-0.65432">
        <ele>2</ele>
        <time>2017-06-25T09:49:26.999Z</time>
      </trkpt>
      <trkpt lat="45.82805" lon="-0.65433">
        <ele>2</ele>
        <time>2017-06-25T09:49:27.999Z</time>
      </trkpt>
      <trkpt lat="45.82804" lon="-0.65435">
        <ele>2</ele>
        <time>2017-06-25T09:49:28.999Z</time>
      </trkpt>
      <trkpt lat="45.82803" lon="-0.65436">
        <ele>2</ele>
        <time>2017-06-25T09:49:29.999Z</time>
      </trkpt>
      <trkpt lat="45.82801" lon="-0.65439">
        <ele>2</ele>
        <time>2017-06-25T09:49:31.999Z</time>
      </trkpt>
      <trkpt lat="45.82798" lon="-0.65442">
        <ele>2</ele>
        <time>2017-06-25T09:49:33.999Z</time>
      </trkpt>
      <trkpt lat="45.82795" lon="-0.65444">
        <ele>2</ele>
        <time>2017-06-25T09:49:35.999Z</time>
      </trkpt>
      <trkpt lat="45.82792" lon="-0.65446">
        <ele>2</ele>
        <time>2017-06-25T09:49:37.999Z</time>
      </trkpt>
      <trkpt lat="45.82791" lon="-0.65448">
        <ele>3</ele>
        <time>2017-06-25T09:49:38.999Z</time>
      </trkpt>
      <trkpt lat="45.8279" lon="-0.65449">
        <ele>3</ele>
        <time>2017-06-25T09:49:39.999Z</time>
      </trkpt>
      <trkpt lat="45.82789" lon="-0.65449">
        <ele>3</ele>
        <time>2017-06-25T09:49:40.999Z</time>
      </trkpt>
      <trkpt lat="45.82788" lon="-0.6545">
        <ele>3</ele>
        <time>2017-06-25T09:49:41.999Z</time>
      </trkpt>
      <trkpt lat="45.82786" lon="-0.65452">
        <ele>3</ele>
        <time>2017-06-25T09:49:43.999Z</time>
      </trkpt>
      <trkpt lat="45.82785" lon="-0.65453">
        <ele>3</ele>
        <time>2017-06-25T09:49:44.999Z</time>
      </trkpt>
      <trkpt lat="45.82784" lon="-0.65455">
        <ele>3</ele>
        <time>2017-06-25T09:49:45.999Z</time>
      </trkpt>
      <trkpt lat="45.82783" lon="-0.65455">
        <ele>3</ele>
        <time>2017-06-25T09:49:46.999Z</time>
      </trkpt>
      <trkpt lat="45.82782" lon="-0.65456">
        <ele>3</ele>
        <time>2017-06-25T09:49:47.999Z</time>
      </trkpt>
      <trkpt lat="45.8278" lon="-0.65458">
        <ele>3</ele>
        <time>2017-06-25T09:49:49.999Z</time>
      </trkpt>
      <trkpt lat="45.82779" lon="-0.65459">
        <ele>3</ele>
        <time>2017-06-25T09:49:50.999Z</time>
      </trkpt>
      <trkpt lat="45.82777" lon="-0.6546">
        <ele>3</ele>
        <time>2017-06-25T09:49:51.999Z</time>
      </trkpt>
      <trkpt lat="45.82775" lon="-0.65462">
        <ele>3</ele>
        <time>2017-06-25T09:49:53.999Z</time>
      </trkpt>
      <trkpt lat="45.82773" lon="-0.65464">
        <ele>3</ele>
        <time>2017-06-25T09:49:55.999Z</time>
      </trkpt>
      <trkpt lat="45.82772" lon="-0.65465">
        <ele>3</ele>
        <time>2017-06-25T09:49:56.999Z</time>
      </trkpt>
      <trkpt lat="45.82771" lon="-0.65466">
        <ele>3</ele>
        <time>2017-06-25T09:49:57.999Z</time>
      </trkpt>
      <trkpt lat="45.82768" lon="-0.65468">
        <ele>3</ele>
        <time>2017-06-25T09:49:59.999Z</time>
      </trkpt>
      <trkpt lat="45.82767" lon="-0.65469">
        <ele>3</ele>
        <time>2017-06-25T09:50:00.999Z</time>
      </trkpt>
      <trkpt lat="45.82764" lon="-0.65471">
        <ele>3</ele>
        <time>2017-06-25T09:50:02.999Z</time>
      </trkpt>
      <trkpt lat="45.82763" lon="-0.65472">
        <ele>3</ele>
        <time>2017-06-25T09:50:04.999Z</time>
      </trkpt>
      <trkpt lat="45.82761" lon="-0.65473">
        <ele>3</ele>
        <time>2017-06-25T09:50:05.999Z</time>
      </trkpt>
      <trkpt lat="45.8276" lon="-0.65474">
        <ele>3</ele>
        <time>2017-06-25T09:50:06.999Z</time>
      </trkpt>
      <trkpt lat="45.82759" lon="-0.65476">
        <ele>3</ele>
        <time>2017-06-25T09:50:07.999Z</time>
      </trkpt>
      <trkpt lat="45.82757" lon="-0.65478">
        <ele>3</ele>
        <time>2017-06-25T09:50:09.999Z</time>
      </trkpt>
      <trkpt lat="45.82756" lon="-0.65479">
        <ele>3</ele>
        <time>2017-06-25T09:50:10.999Z</time>
      </trkpt>
      <trkpt lat="45.82755" lon="-0.65481">
        <ele>3</ele>
        <time>2017-06-25T09:50:11.999Z</time>
      </trkpt>
      <trkpt lat="45.82754" lon="-0.65482">
        <ele>3</ele>
        <time>2017-06-25T09:50:12.999Z</time>
      </trkpt>
      <trkpt lat="45.82753" lon="-0.65484">
        <ele>3</ele>
        <time>2017-06-25T09:50:13.999Z</time>
      </trkpt>
      <trkpt lat="45.82751" lon="-0.65486">
        <ele>3</ele>
        <time>2017-06-25T09:50:15.999Z</time>
      </trkpt>
      <trkpt lat="45.8275" lon="-0.65487">
        <ele>3</ele>
        <time>2017-06-25T09:50:16.999Z</time>
      </trkpt>
      <trkpt lat="45.82748" lon="-0.65488">
        <ele>3</ele>
        <time>2017-06-25T09:50:17.999Z</time>
      </trkpt>
      <trkpt lat="45.82747" lon="-0.6549">
        <ele>3</ele>
        <time>2017-06-25T09:50:18.999Z</time>
      </trkpt>
      <trkpt lat="45.82746" lon="-0.65491">
        <ele>3</ele>
        <time>2017-06-25T09:50:19.999Z</time>
      </trkpt>
      <trkpt lat="45.82745" lon="-0.65491">
        <ele>3</ele>
        <time>2017-06-25T09:50:20.999Z</time>
      </trkpt>
      <trkpt lat="45.82743" lon="-0.65492">
        <ele>3</ele>
        <time>2017-06-25T09:50:21.999Z</time>
      </trkpt>
      <trkpt lat="45.82742" lon="-0.65493">
        <ele>3</ele>
        <time>2017-06-25T09:50:22.999Z</time>
      </trkpt>
      <trkpt lat="45.82741" lon="-0.65494">
        <ele>3</ele>
        <time>2017-06-25T09:50:23.999Z</time>
      </trkpt>
      <trkpt lat="45.82738" lon="-0.65496">
        <ele>3</ele>
        <time>2017-06-25T09:50:25.999Z</time>
      </trkpt>
      <trkpt lat="45.82736" lon="-0.65497">
        <ele>3</ele>
        <time>2017-06-25T09:50:27.999Z</time>
      </trkpt>
      <trkpt lat="45.82735" lon="-0.65498">
        <ele>3</ele>
        <time>2017-06-25T09:50:28.999Z</time>
      </trkpt>
      <trkpt lat="45.82734" lon="-0.65499">
        <ele>3</ele>
        <time>2017-06-25T09:50:29.999Z</time>
      </trkpt>
      <trkpt lat="45.82733" lon="-0.65499">
        <ele>3</ele>
        <time>2017-06-25T09:50:30.999Z</time>
      </trkpt>
      <trkpt lat="45.82732" lon="-0.65501">
        <ele>3</ele>
        <time>2017-06-25T09:50:31.999Z</time>
      </trkpt>
      <trkpt lat="45.82731" lon="-0.65503">
        <ele>3</ele>
        <time>2017-06-25T09:50:33.999Z</time>
      </trkpt>
      <trkpt lat="45.8273" lon="-0.65503">
        <ele>3</ele>
        <time>2017-06-25T09:50:34.999Z</time>
      </trkpt>
      <trkpt lat="45.82729" lon="-0.65504">
        <ele>3</ele>
        <time>2017-06-25T09:50:35.999Z</time>
      </trkpt>
      <trkpt lat="45.82727" lon="-0.65506">
        <ele>3</ele>
        <time>2017-06-25T09:50:37.999Z</time>
      </trkpt>
      <trkpt lat="45.82726" lon="-0.65507">
        <ele>3</ele>
        <time>2017-06-25T09:50:39.999Z</time>
      </trkpt>
      <trkpt lat="45.82724" lon="-0.65508">
        <ele>3</ele>
        <time>2017-06-25T09:50:41.999Z</time>
      </trkpt>
      <trkpt lat="45.82723" lon="-0.6551">
        <ele>3</ele>
        <time>2017-06-25T09:50:42.999Z</time>
      </trkpt>
      <trkpt lat="45.82722" lon="-0.65511">
        <ele>3</ele>
        <time>2017-06-25T09:50:43.999Z</time>
      </trkpt>
      <trkpt lat="45.82721" lon="-0.65512">
        <ele>3</ele>
        <time>2017-06-25T09:50:45.999Z</time>
      </trkpt>
      <trkpt lat="45.82719" lon="-0.65514">
        <ele>3</ele>
        <time>2017-06-25T09:50:47.999Z</time>
      </trkpt>
      <trkpt lat="45.82718" lon="-0.65514">
        <ele>3</ele>
        <time>2017-06-25T09:50:48.999Z</time>
      </trkpt>
      <trkpt lat="45.82717" lon="-0.65515">
        <ele>3</ele>
        <time>2017-06-25T09:50:49.999Z</time>
      </trkpt>
      <trkpt lat="45.82716" lon="-0.65516">
        <ele>3</ele>
        <time>2017-06-25T09:50:50.999Z</time>
      </trkpt>
      <trkpt lat="45.82715" lon="-0.65517">
        <ele>3</ele>
        <time>2017-06-25T09:50:51.999Z</time>
      </trkpt>
      <trkpt lat="45.82712" lon="-0.6552">
        <ele>3</ele>
        <time>2017-06-25T09:50:53.999Z</time>
      </trkpt>
      <trkpt lat="45.8271" lon="-0.65521">
        <ele>3</ele>
        <time>2017-06-25T09:50:54.999Z</time>
      </trkpt>
      <trkpt lat="45.82707" lon="-0.65523">
        <ele>3</ele>
        <time>2017-06-25T09:50:56.999Z</time>
      </trkpt>
      <trkpt lat="45.82705" lon="-0.65525">
        <ele>3</ele>
        <time>2017-06-25T09:50:57.999Z</time>
      </trkpt>
      <trkpt lat="45.82703" lon="-0.65527">
        <ele>3</ele>
        <time>2017-06-25T09:50:58.999Z</time>
      </trkpt>
      <trkpt lat="45.82702" lon="-0.65528">
        <ele>3</ele>
        <time>2017-06-25T09:50:59.999Z</time>
      </trkpt>
      <trkpt lat="45.82701" lon="-0.65529">
        <ele>3</ele>
        <time>2017-06-25T09:51:00.999Z</time>
      </trkpt>
      <trkpt lat="45.827" lon="-0.6553">
        <ele>3</ele>
        <time>2017-06-25T09:51:01.999Z</time>
      </trkpt>
      <trkpt lat="45.82699" lon="-0.65532">
        <ele>3</ele>
        <time>2017-06-25T09:51:02.999Z</time>
      </trkpt>
      <trkpt lat="45.82698" lon="-0.65533">
        <ele>3</ele>
        <time>2017-06-25T09:51:03.999Z</time>
      </trkpt>
      <trkpt lat="45.82696" lon="-0.65536">
        <ele>3</ele>
        <time>2017-06-25T09:51:05.999Z</time>
      </trkpt>
      <trkpt lat="45.82695" lon="-0.65538">
        <ele>3</ele>
        <time>2017-06-25T09:51:07.999Z</time>
      </trkpt>
      <trkpt lat="45.82694" lon="-0.65539">
        <ele>3</ele>
        <time>2017-06-25T09:51:10.999Z</time>
      </trkpt>
      <trkpt lat="45.82691" lon="-0.65541">
        <ele>3</ele>
        <time>2017-06-25T09:51:12.999Z</time>
      </trkpt>
      <trkpt lat="45.82689" lon="-0.65543">
        <ele>3</ele>
        <time>2017-06-25T09:51:13.999Z</time>
      </trkpt>
      <trkpt lat="45.82687" lon="-0.65545">
        <ele>3</ele>
        <time>2017-06-25T09:51:14.999Z</time>
      </trkpt>
      <trkpt lat="45.82685" lon="-0.65545">
        <ele>3</ele>
        <time>2017-06-25T09:51:15.999Z</time>
      </trkpt>
      <trkpt lat="45.82683" lon="-0.65545">
        <ele>3</ele>
        <time>2017-06-25T09:51:16.999Z</time>
      </trkpt>
      <trkpt lat="45.82682" lon="-0.65546">
        <ele>3</ele>
        <time>2017-06-25T09:51:17.999Z</time>
      </trkpt>
      <trkpt lat="45.82681" lon="-0.65546">
        <ele>3</ele>
        <time>2017-06-25T09:51:18.999Z</time>
      </trkpt>
      <trkpt lat="45.82679" lon="-0.65547">
        <ele>3</ele>
        <time>2017-06-25T09:51:19.999Z</time>
      </trkpt>
      <trkpt lat="45.82678" lon="-0.65548">
        <ele>3</ele>
        <time>2017-06-25T09:51:20.999Z</time>
      </trkpt>
      <trkpt lat="45.82677" lon="-0.65549">
        <ele>3</ele>
        <time>2017-06-25T09:51:21.999Z</time>
      </trkpt>
      <trkpt lat="45.82676" lon="-0.6555">
        <ele>3</ele>
        <time>2017-06-25T09:51:22.999Z</time>
      </trkpt>
      <trkpt lat="45.82674" lon="-0.65551">
        <ele>3</ele>
        <time>2017-06-25T09:51:23.999Z</time>
      </trkpt>
      <trkpt lat="45.82673" lon="-0.65551">
        <ele>3</ele>
        <time>2017-06-25T09:51:24.999Z</time>
      </trkpt>
      <trkpt lat="45.82672" lon="-0.65552">
        <ele>3</ele>
        <time>2017-06-25T09:51:25.999Z</time>
      </trkpt>
      <trkpt lat="45.82671" lon="-0.65552">
        <ele>3</ele>
        <time>2017-06-25T09:51:26.999Z</time>
      </trkpt>
      <trkpt lat="45.82669" lon="-0.65554">
        <ele>3</ele>
        <time>2017-06-25T09:51:29.999Z</time>
      </trkpt>
      <trkpt lat="45.82666" lon="-0.65556">
        <ele>3</ele>
        <time>2017-06-25T09:51:31.999Z</time>
      </trkpt>
      <trkpt lat="45.82665" lon="-0.65557">
        <ele>4</ele>
        <time>2017-06-25T09:51:32.999Z</time>
      </trkpt>
      <trkpt lat="45.82664" lon="-0.65558">
        <ele>4</ele>
        <time>2017-06-25T09:51:33.999Z</time>
      </trkpt>
      <trkpt lat="45.82663" lon="-0.65558">
        <ele>4</ele>
        <time>2017-06-25T09:51:34.999Z</time>
      </trkpt>
      <trkpt lat="45.82661" lon="-0.65559">
        <ele>4</ele>
        <time>2017-06-25T09:51:35.999Z</time>
      </trkpt>
      <trkpt lat="45.8266" lon="-0.6556">
        <ele>4</ele>
        <time>2017-06-25T09:51:36.999Z</time>
      </trkpt>
      <trkpt lat="45.8266" lon="-0.65561">
        <ele>4</ele>
        <time>2017-06-25T09:51:37.999Z</time>
      </trkpt>
      <trkpt lat="45.82658" lon="-0.65562">
        <ele>4</ele>
        <time>2017-06-25T09:51:38.999Z</time>
      </trkpt>
      <trkpt lat="45.82658" lon="-0.65563">
        <ele>4</ele>
        <time>2017-06-25T09:51:39.999Z</time>
      </trkpt>
      <trkpt lat="45.82656" lon="-0.65564">
        <ele>4</ele>
        <time>2017-06-25T09:51:41.999Z</time>
      </trkpt>
      <trkpt lat="45.82654" lon="-0.65567">
        <ele>4</ele>
        <time>2017-06-25T09:51:43.999Z</time>
      </trkpt>
      <trkpt lat="45.82652" lon="-0.6557">
        <ele>4</ele>
        <time>2017-06-25T09:51:45.999Z</time>
      </trkpt>
      <trkpt lat="45.8265" lon="-0.65571">
        <ele>4</ele>
        <time>2017-06-25T09:51:46.999Z</time>
      </trkpt>
      <trkpt lat="45.8265" lon="-0.65572">
        <ele>4</ele>
        <time>2017-06-25T09:51:47.999Z</time>
      </trkpt>
      <trkpt lat="45.82648" lon="-0.65573">
        <ele>4</ele>
        <time>2017-06-25T09:51:48.999Z</time>
      </trkpt>
      <trkpt lat="45.82647" lon="-0.65574">
        <ele>4</ele>
        <time>2017-06-25T09:51:49.999Z</time>
      </trkpt>
      <trkpt lat="45.82646" lon="-0.65576">
        <ele>4</ele>
        <time>2017-06-25T09:51:50.999Z</time>
      </trkpt>
      <trkpt lat="45.82645" lon="-0.65577">
        <ele>4</ele>
        <time>2017-06-25T09:51:51.999Z</time>
      </trkpt>
      <trkpt lat="45.82643" lon="-0.6558">
        <ele>4</ele>
        <time>2017-06-25T09:51:53.999Z</time>
      </trkpt>
      <trkpt lat="45.82642" lon="-0.65581">
        <ele>4</ele>
        <time>2017-06-25T09:51:54.999Z</time>
      </trkpt>
      <trkpt lat="45.82641" lon="-0.65583">
        <ele>4</ele>
        <time>2017-06-25T09:51:56.999Z</time>
      </trkpt>
      <trkpt lat="45.82641" lon="-0.65584">
        <ele>4</ele>
        <time>2017-06-25T09:51:57.999Z</time>
      </trkpt>
      <trkpt lat="45.82639" lon="-0.65584">
        <ele>4</ele>
        <time>2017-06-25T09:51:58.999Z</time>
      </trkpt>
      <trkpt lat="45.82638" lon="-0.65584">
        <ele>4</ele>
        <time>2017-06-25T09:51:59.999Z</time>
      </trkpt>
      <trkpt lat="45.82636" lon="-0.65585">
        <ele>4</ele>
        <time>2017-06-25T09:52:01.999Z</time>
      </trkpt>
      <trkpt lat="45.82635" lon="-0.65586">
        <ele>4</ele>
        <time>2017-06-25T09:52:02.999Z</time>
      </trkpt>
      <trkpt lat="45.82633" lon="-0.65586">
        <ele>4</ele>
        <time>2017-06-25T09:52:04.999Z</time>
      </trkpt>
      <trkpt lat="45.82632" lon="-0.65587">
        <ele>4</ele>
        <time>2017-06-25T09:52:05.999Z</time>
      </trkpt>
      <trkpt lat="45.82631" lon="-0.65587">
        <ele>4</ele>
        <time>2017-06-25T09:52:06.999Z</time>
      </trkpt>
      <trkpt lat="45.82629" lon="-0.65588">
        <ele>4</ele>
        <time>2017-06-25T09:52:08.999Z</time>
      </trkpt>
      <trkpt lat="45.82629" lon="-0.65589">
        <ele>4</ele>
        <time>2017-06-25T09:52:09.999Z</time>
      </trkpt>
      <trkpt lat="45.82628" lon="-0.6559">
        <ele>4</ele>
        <time>2017-06-25T09:52:10.999Z</time>
      </trkpt>
      <trkpt lat="45.82627" lon="-0.65591">
        <ele>4</ele>
        <time>2017-06-25T09:52:11.999Z</time>
      </trkpt>
      <trkpt lat="45.82626" lon="-0.65592">
        <ele>4</ele>
        <time>2017-06-25T09:52:12.999Z</time>
      </trkpt>
      <trkpt lat="45.82623" lon="-0.65594">
        <ele>4</ele>
        <time>2017-06-25T09:52:14.999Z</time>
      </trkpt>
      <trkpt lat="45.82622" lon="-0.65595">
        <ele>4</ele>
        <time>2017-06-25T09:52:15.999Z</time>
      </trkpt>
      <trkpt lat="45.82621" lon="-0.65595">
        <ele>4</ele>
        <time>2017-06-25T09:52:16.999Z</time>
      </trkpt>
      <trkpt lat="45.8262" lon="-0.65596">
        <ele>4</ele>
        <time>2017-06-25T09:52:17.999Z</time>
      </trkpt>
      <trkpt lat="45.82618" lon="-0.65598">
        <ele>4</ele>
        <time>2017-06-25T09:52:19.999Z</time>
      </trkpt>
      <trkpt lat="45.82618" lon="-0.65599">
        <ele>4</ele>
        <time>2017-06-25T09:52:20.999Z</time>
      </trkpt>
      <trkpt lat="45.82616" lon="-0.65601">
        <ele>4</ele>
        <time>2017-06-25T09:52:22.999Z</time>
      </trkpt>
      <trkpt lat="45.82614" lon="-0.65603">
        <ele>4</ele>
        <time>2017-06-25T09:52:23.999Z</time>
      </trkpt>
      <trkpt lat="45.82613" lon="-0.65603">
        <ele>4</ele>
        <time>2017-06-25T09:52:24.999Z</time>
      </trkpt>
      <trkpt lat="45.82612" lon="-0.65605">
        <ele>4</ele>
        <time>2017-06-25T09:52:25.999Z</time>
      </trkpt>
      <trkpt lat="45.82611" lon="-0.65606">
        <ele>4</ele>
        <time>2017-06-25T09:52:26.999Z</time>
      </trkpt>
      <trkpt lat="45.82609" lon="-0.65611">
        <ele>4</ele>
        <time>2017-06-25T09:52:28.999Z</time>
      </trkpt>
      <trkpt lat="45.82608" lon="-0.65611">
        <ele>4</ele>
        <time>2017-06-25T09:52:29.999Z</time>
      </trkpt>
      <trkpt lat="45.82607" lon="-0.65613">
        <ele>4</ele>
        <time>2017-06-25T09:52:30.999Z</time>
      </trkpt>
      <trkpt lat="45.82605" lon="-0.65613">
        <ele>4</ele>
        <time>2017-06-25T09:52:32.999Z</time>
      </trkpt>
      <trkpt lat="45.82604" lon="-0.65614">
        <ele>4</ele>
        <time>2017-06-25T09:52:34.999Z</time>
      </trkpt>
      <trkpt lat="45.82603" lon="-0.65615">
        <ele>4</ele>
        <time>2017-06-25T09:52:35.999Z</time>
      </trkpt>
      <trkpt lat="45.82602" lon="-0.65615">
        <ele>4</ele>
        <time>2017-06-25T09:52:36.999Z</time>
      </trkpt>
      <trkpt lat="45.82601" lon="-0.65616">
        <ele>4</ele>
        <time>2017-06-25T09:52:37.999Z</time>
      </trkpt>
      <trkpt lat="45.82599" lon="-0.65618">
        <ele>4</ele>
        <time>2017-06-25T09:52:39.999Z</time>
      </trkpt>
      <trkpt lat="45.82597" lon="-0.65619">
        <ele>4</ele>
        <time>2017-06-25T09:52:40.999Z</time>
      </trkpt>
      <trkpt lat="45.82596" lon="-0.6562">
        <ele>4</ele>
        <time>2017-06-25T09:52:41.999Z</time>
      </trkpt>
      <trkpt lat="45.82595" lon="-0.65621">
        <ele>4</ele>
        <time>2017-06-25T09:52:42.999Z</time>
      </trkpt>
      <trkpt lat="45.82593" lon="-0.65622">
        <ele>4</ele>
        <time>2017-06-25T09:52:44.999Z</time>
      </trkpt>
      <trkpt lat="45.82592" lon="-0.65623">
        <ele>4</ele>
        <time>2017-06-25T09:52:45.999Z</time>
      </trkpt>
      <trkpt lat="45.82592" lon="-0.65624">
        <ele>4</ele>
        <time>2017-06-25T09:52:46.999Z</time>
      </trkpt>
      <trkpt lat="45.8259" lon="-0.65625">
        <ele>4</ele>
        <time>2017-06-25T09:52:47.999Z</time>
      </trkpt>
      <trkpt lat="45.82589" lon="-0.65626">
        <ele>4</ele>
        <time>2017-06-25T09:52:48.999Z</time>
      </trkpt>
      <trkpt lat="45.82587" lon="-0.65627">
        <ele>4</ele>
        <time>2017-06-25T09:52:49.999Z</time>
      </trkpt>
      <trkpt lat="45.82586" lon="-0.65629">
        <ele>4</ele>
        <time>2017-06-25T09:52:50.999Z</time>
      </trkpt>
      <trkpt lat="45.82585" lon="-0.65629">
        <ele>4</ele>
        <time>2017-06-25T09:52:51.999Z</time>
      </trkpt>
      <trkpt lat="45.82584" lon="-0.6563">
        <ele>4</ele>
        <time>2017-06-25T09:52:52.999Z</time>
      </trkpt>
      <trkpt lat="45.82582" lon="-0.65632">
        <ele>4</ele>
        <time>2017-06-25T09:52:53.999Z</time>
      </trkpt>
      <trkpt lat="45.82581" lon="-0.65633">
        <ele>4</ele>
        <time>2017-06-25T09:52:54.999Z</time>
      </trkpt>
      <trkpt lat="45.82579" lon="-0.65635">
        <ele>4</ele>
        <time>2017-06-25T09:52:55.999Z</time>
      </trkpt>
      <trkpt lat="45.82577" lon="-0.65636">
        <ele>4</ele>
        <time>2017-06-25T09:52:56.999Z</time>
      </trkpt>
      <trkpt lat="45.82576" lon="-0.65637">
        <ele>4</ele>
        <time>2017-06-25T09:52:57.999Z</time>
      </trkpt>
      <trkpt lat="45.82575" lon="-0.65638">
        <ele>4</ele>
        <time>2017-06-25T09:52:58.999Z</time>
      </trkpt>
      <trkpt lat="45.82573" lon="-0.6564">
        <ele>4</ele>
        <time>2017-06-25T09:52:59.999Z</time>
      </trkpt>
      <trkpt lat="45.82571" lon="-0.65641">
        <ele>4</ele>
        <time>2017-06-25T09:53:00.999Z</time>
      </trkpt>
      <trkpt lat="45.8257" lon="-0.65642">
        <ele>4</ele>
        <time>2017-06-25T09:53:01.999Z</time>
      </trkpt>
      <trkpt lat="45.82568" lon="-0.65643">
        <ele>4</ele>
        <time>2017-06-25T09:53:02.999Z</time>
      </trkpt>
      <trkpt lat="45.82567" lon="-0.65644">
        <ele>4</ele>
        <time>2017-06-25T09:53:03.999Z</time>
      </trkpt>
      <trkpt lat="45.82566" lon="-0.65645">
        <ele>4</ele>
        <time>2017-06-25T09:53:04.999Z</time>
      </trkpt>
      <trkpt lat="45.82565" lon="-0.65646">
        <ele>4</ele>
        <time>2017-06-25T09:53:05.999Z</time>
      </trkpt>
      <trkpt lat="45.82563" lon="-0.65648">
        <ele>4</ele>
        <time>2017-06-25T09:53:07.999Z</time>
      </trkpt>
      <trkpt lat="45.82562" lon="-0.65649">
        <ele>4</ele>
        <time>2017-06-25T09:53:08.999Z</time>
      </trkpt>
      <trkpt lat="45.82562" lon="-0.6565">
        <ele>4</ele>
        <time>2017-06-25T09:53:09.999Z</time>
      </trkpt>
      <trkpt lat="45.8256" lon="-0.6565">
        <ele>4</ele>
        <time>2017-06-25T09:53:10.999Z</time>
      </trkpt>
      <trkpt lat="45.82559" lon="-0.65651">
        <ele>4</ele>
        <time>2017-06-25T09:53:11.999Z</time>
      </trkpt>
      <trkpt lat="45.82558" lon="-0.65652">
        <ele>4</ele>
        <time>2017-06-25T09:53:12.999Z</time>
      </trkpt>
      <trkpt lat="45.82557" lon="-0.65652">
        <ele>4</ele>
        <time>2017-06-25T09:53:13.999Z</time>
      </trkpt>
      <trkpt lat="45.82555" lon="-0.65653">
        <ele>4</ele>
        <time>2017-06-25T09:53:14.999Z</time>
      </trkpt>
      <trkpt lat="45.82554" lon="-0.65654">
        <ele>4</ele>
        <time>2017-06-25T09:53:15.999Z</time>
      </trkpt>
      <trkpt lat="45.82553" lon="-0.65656">
        <ele>4</ele>
        <time>2017-06-25T09:53:16.999Z</time>
      </trkpt>
      <trkpt lat="45.82552" lon="-0.65657">
        <ele>4</ele>
        <time>2017-06-25T09:53:17.999Z</time>
      </trkpt>
      <trkpt lat="45.82551" lon="-0.65657">
        <ele>4</ele>
        <time>2017-06-25T09:53:18.999Z</time>
      </trkpt>
      <trkpt lat="45.8255" lon="-0.65658">
        <ele>4</ele>
        <time>2017-06-25T09:53:19.999Z</time>
      </trkpt>
      <trkpt lat="45.82549" lon="-0.65659">
        <ele>4</ele>
        <time>2017-06-25T09:53:21.999Z</time>
      </trkpt>
      <trkpt lat="45.82547" lon="-0.6566">
        <ele>4</ele>
        <time>2017-06-25T09:53:22.999Z</time>
      </trkpt>
      <trkpt lat="45.82546" lon="-0.65661">
        <ele>4</ele>
        <time>2017-06-25T09:53:24.999Z</time>
      </trkpt>
      <trkpt lat="45.82544" lon="-0.65662">
        <ele>4</ele>
        <time>2017-06-25T09:53:25.999Z</time>
      </trkpt>
      <trkpt lat="45.82544" lon="-0.65663">
        <ele>4</ele>
        <time>2017-06-25T09:53:26.999Z</time>
      </trkpt>
      <trkpt lat="45.82542" lon="-0.65665">
        <ele>4</ele>
        <time>2017-06-25T09:53:28.999Z</time>
      </trkpt>
      <trkpt lat="45.82542" lon="-0.65666">
        <ele>4</ele>
        <time>2017-06-25T09:53:29.999Z</time>
      </trkpt>
      <trkpt lat="45.8254" lon="-0.65667">
        <ele>4</ele>
        <time>2017-06-25T09:53:30.999Z</time>
      </trkpt>
      <trkpt lat="45.82539" lon="-0.65667">
        <ele>4</ele>
        <time>2017-06-25T09:53:31.999Z</time>
      </trkpt>
      <trkpt lat="45.82539" lon="-0.65669">
        <ele>4</ele>
        <time>2017-06-25T09:53:32.999Z</time>
      </trkpt>
      <trkpt lat="45.82538" lon="-0.6567">
        <ele>4</ele>
        <time>2017-06-25T09:53:33.999Z</time>
      </trkpt>
      <trkpt lat="45.82536" lon="-0.65671">
        <ele>4</ele>
        <time>2017-06-25T09:53:34.999Z</time>
      </trkpt>
      <trkpt lat="45.82535" lon="-0.65671">
        <ele>4</ele>
        <time>2017-06-25T09:53:35.999Z</time>
      </trkpt>
      <trkpt lat="45.82534" lon="-0.65673">
        <ele>4</ele>
        <time>2017-06-25T09:53:37.999Z</time>
      </trkpt>
      <trkpt lat="45.82533" lon="-0.65675">
        <ele>4</ele>
        <time>2017-06-25T09:53:38.999Z</time>
      </trkpt>
      <trkpt lat="45.82531" lon="-0.65676">
        <ele>4</ele>
        <time>2017-06-25T09:53:39.999Z</time>
      </trkpt>
      <trkpt lat="45.82531" lon="-0.65676">
        <ele>4</ele>
        <time>2017-06-25T09:53:40.999Z</time>
      </trkpt>
      <trkpt lat="45.82529" lon="-0.65678">
        <ele>4</ele>
        <time>2017-06-25T09:53:41.999Z</time>
      </trkpt>
      <trkpt lat="45.82528" lon="-0.65679">
        <ele>4</ele>
        <time>2017-06-25T09:53:42.999Z</time>
      </trkpt>
      <trkpt lat="45.82527" lon="-0.6568">
        <ele>4</ele>
        <time>2017-06-25T09:53:43.999Z</time>
      </trkpt>
      <trkpt lat="45.82526" lon="-0.65681">
        <ele>4</ele>
        <time>2017-06-25T09:53:44.999Z</time>
      </trkpt>
      <trkpt lat="45.82525" lon="-0.65682">
        <ele>4</ele>
        <time>2017-06-25T09:53:45.999Z</time>
      </trkpt>
      <trkpt lat="45.82524" lon="-0.65683">
        <ele>4</ele>
        <time>2017-06-25T09:53:46.999Z</time>
      </trkpt>
      <trkpt lat="45.82523" lon="-0.65683">
        <ele>4</ele>
        <time>2017-06-25T09:53:47.999Z</time>
      </trkpt>
      <trkpt lat="45.82522" lon="-0.65684">
        <ele>4</ele>
        <time>2017-06-25T09:53:48.999Z</time>
      </trkpt>
      <trkpt lat="45.82521" lon="-0.65684">
        <ele>4</ele>
        <time>2017-06-25T09:53:49.999Z</time>
      </trkpt>
      <trkpt lat="45.8252" lon="-0.65685">
        <ele>4</ele>
        <time>2017-06-25T09:53:50.999Z</time>
      </trkpt>
      <trkpt lat="45.82519" lon="-0.65685">
        <ele>4</ele>
        <time>2017-06-25T09:53:51.999Z</time>
      </trkpt>
      <trkpt lat="45.82518" lon="-0.65686">
        <ele>4</ele>
        <time>2017-06-25T09:53:52.999Z</time>
      </trkpt>
      <trkpt lat="45.82517" lon="-0.65687">
        <ele>4</ele>
        <time>2017-06-25T09:53:53.999Z</time>
      </trkpt>
      <trkpt lat="45.82515" lon="-0.65688">
        <ele>4</ele>
        <time>2017-06-25T09:53:55.999Z</time>
      </trkpt>
      <trkpt lat="45.82513" lon="-0.65689">
        <ele>4</ele>
        <time>2017-06-25T09:53:56.999Z</time>
      </trkpt>
      <trkpt lat="45.82512" lon="-0.6569">
        <ele>4</ele>
        <time>2017-06-25T09:53:57.999Z</time>
      </trkpt>
      <trkpt lat="45.82511" lon="-0.6569">
        <ele>4</ele>
        <time>2017-06-25T09:53:58.999Z</time>
      </trkpt>
      <trkpt lat="45.8251" lon="-0.65691">
        <ele>4</ele>
        <time>2017-06-25T09:54:00.999Z</time>
      </trkpt>
      <trkpt lat="45.82509" lon="-0.65691">
        <ele>4</ele>
        <time>2017-06-25T09:54:01.999Z</time>
      </trkpt>
      <trkpt lat="45.82508" lon="-0.65692">
        <ele>4</ele>
        <time>2017-06-25T09:54:02.999Z</time>
      </trkpt>
      <trkpt lat="45.82506" lon="-0.65694">
        <ele>4</ele>
        <time>2017-06-25T09:54:04.999Z</time>
      </trkpt>
      <trkpt lat="45.82505" lon="-0.65696">
        <ele>4</ele>
        <time>2017-06-25T09:54:05.999Z</time>
      </trkpt>
      <trkpt lat="45.82503" lon="-0.657">
        <ele>4</ele>
        <time>2017-06-25T09:54:06.999Z</time>
      </trkpt>
      <trkpt lat="45.82502" lon="-0.65703">
        <ele>4</ele>
        <time>2017-06-25T09:54:07.999Z</time>
      </trkpt>
      <trkpt lat="45.82501" lon="-0.65704">
        <ele>4</ele>
        <time>2017-06-25T09:54:08.999Z</time>
      </trkpt>
      <trkpt lat="45.82499" lon="-0.65706">
        <ele>4</ele>
        <time>2017-06-25T09:54:09.999Z</time>
      </trkpt>
      <trkpt lat="45.82499" lon="-0.65707">
        <ele>4</ele>
        <time>2017-06-25T09:54:12.999Z</time>
      </trkpt>
      <trkpt lat="45.82497" lon="-0.65709">
        <ele>4</ele>
        <time>2017-06-25T09:54:14.999Z</time>
      </trkpt>
      <trkpt lat="45.82497" lon="-0.6571">
        <ele>4</ele>
        <time>2017-06-25T09:54:15.999Z</time>
      </trkpt>
      <trkpt lat="45.82496" lon="-0.65711">
        <ele>4</ele>
        <time>2017-06-25T09:54:16.999Z</time>
      </trkpt>
      <trkpt lat="45.82495" lon="-0.65711">
        <ele>4</ele>
        <time>2017-06-25T09:54:17.999Z</time>
      </trkpt>
      <trkpt lat="45.82494" lon="-0.65712">
        <ele>4</ele>
        <time>2017-06-25T09:54:18.999Z</time>
      </trkpt>
      <trkpt lat="45.82493" lon="-0.65713">
        <ele>4</ele>
        <time>2017-06-25T09:54:19.999Z</time>
      </trkpt>
      <trkpt lat="45.82492" lon="-0.65714">
        <ele>4</ele>
        <time>2017-06-25T09:54:20.999Z</time>
      </trkpt>
      <trkpt lat="45.8249" lon="-0.65715">
        <ele>4</ele>
        <time>2017-06-25T09:54:22.999Z</time>
      </trkpt>
      <trkpt lat="45.82489" lon="-0.65717">
        <ele>4</ele>
        <time>2017-06-25T09:54:23.999Z</time>
      </trkpt>
      <trkpt lat="45.82488" lon="-0.65718">
        <ele>4</ele>
        <time>2017-06-25T09:54:24.999Z</time>
      </trkpt>
      <trkpt lat="45.82487" lon="-0.65718">
        <ele>4</ele>
        <time>2017-06-25T09:54:25.999Z</time>
      </trkpt>
      <trkpt lat="45.82486" lon="-0.65718">
        <ele>4</ele>
        <time>2017-06-25T09:54:26.999Z</time>
      </trkpt>
      <trkpt lat="45.82485" lon="-0.65719">
        <ele>4</ele>
        <time>2017-06-25T09:54:28.999Z</time>
      </trkpt>
      <trkpt lat="45.82483" lon="-0.65721">
        <ele>4</ele>
        <time>2017-06-25T09:54:30.999Z</time>
      </trkpt>
      <trkpt lat="45.82483" lon="-0.65722">
        <ele>4</ele>
        <time>2017-06-25T09:54:31.999Z</time>
      </trkpt>
      <trkpt lat="45.82482" lon="-0.65723">
        <ele>5</ele>
        <time>2017-06-25T09:54:32.999Z</time>
      </trkpt>
      <trkpt lat="45.82481" lon="-0.65725">
        <ele>5</ele>
        <time>2017-06-25T09:54:33.999Z</time>
      </trkpt>
      <trkpt lat="45.8248" lon="-0.65726">
        <ele>5</ele>
        <time>2017-06-25T09:54:34.999Z</time>
      </trkpt>
      <trkpt lat="45.82479" lon="-0.65728">
        <ele>5</ele>
        <time>2017-06-25T09:54:35.999Z</time>
      </trkpt>
      <trkpt lat="45.82479" lon="-0.65729">
        <ele>5</ele>
        <time>2017-06-25T09:54:36.999Z</time>
      </trkpt>
      <trkpt lat="45.82479" lon="-0.65731">
        <ele>5</ele>
        <time>2017-06-25T09:54:37.999Z</time>
      </trkpt>
      <trkpt lat="45.8248" lon="-0.65733">
        <ele>5</ele>
        <time>2017-06-25T09:54:40.999Z</time>
      </trkpt>
      <trkpt lat="45.8248" lon="-0.65734">
        <ele>5</ele>
        <time>2017-06-25T09:54:41.999Z</time>
      </trkpt>
      <trkpt lat="45.8248" lon="-0.65735">
        <ele>5</ele>
        <time>2017-06-25T09:54:42.999Z</time>
      </trkpt>
      <trkpt lat="45.82481" lon="-0.65737">
        <ele>5</ele>
        <time>2017-06-25T09:54:44.999Z</time>
      </trkpt>
      <trkpt lat="45.82482" lon="-0.6574">
        <ele>4</ele>
        <time>2017-06-25T09:54:46.999Z</time>
      </trkpt>
      <trkpt lat="45.82483" lon="-0.65742">
        <ele>4</ele>
        <time>2017-06-25T09:54:48.999Z</time>
      </trkpt>
      <trkpt lat="45.82484" lon="-0.65745">
        <ele>4</ele>
        <time>2017-06-25T09:54:49.999Z</time>
      </trkpt>
      <trkpt lat="45.82484" lon="-0.65747">
        <ele>4</ele>
        <time>2017-06-25T09:54:50.999Z</time>
      </trkpt>
      <trkpt lat="45.82485" lon="-0.65748">
        <ele>4</ele>
        <time>2017-06-25T09:54:51.999Z</time>
      </trkpt>
      <trkpt lat="45.82486" lon="-0.6575">
        <ele>4</ele>
        <time>2017-06-25T09:54:52.999Z</time>
      </trkpt>
      <trkpt lat="45.82486" lon="-0.65751">
        <ele>5</ele>
        <time>2017-06-25T09:54:53.999Z</time>
      </trkpt>
      <trkpt lat="45.82488" lon="-0.65752">
        <ele>5</ele>
        <time>2017-06-25T09:54:54.999Z</time>
      </trkpt>
      <trkpt lat="45.82489" lon="-0.65753">
        <ele>5</ele>
        <time>2017-06-25T09:54:55.999Z</time>
      </trkpt>
      <trkpt lat="45.8249" lon="-0.65754">
        <ele>5</ele>
        <time>2017-06-25T09:54:56.999Z</time>
      </trkpt>
      <trkpt lat="45.8249" lon="-0.65755">
        <ele>5</ele>
        <time>2017-06-25T09:54:57.999Z</time>
      </trkpt>
      <trkpt lat="45.82491" lon="-0.65756">
        <ele>5</ele>
        <time>2017-06-25T09:54:58.999Z</time>
      </trkpt>
      <trkpt lat="45.82492" lon="-0.65758">
        <ele>5</ele>
        <time>2017-06-25T09:54:59.999Z</time>
      </trkpt>
      <trkpt lat="45.82492" lon="-0.6576">
        <ele>5</ele>
        <time>2017-06-25T09:55:00.999Z</time>
      </trkpt>
      <trkpt lat="45.82493" lon="-0.65762">
        <ele>5</ele>
        <time>2017-06-25T09:55:01.999Z</time>
      </trkpt>
      <trkpt lat="45.82493" lon="-0.65763">
        <ele>5</ele>
        <time>2017-06-25T09:55:03.999Z</time>
      </trkpt>
      <trkpt lat="45.82494" lon="-0.65766">
        <ele>5</ele>
        <time>2017-06-25T09:55:05.999Z</time>
      </trkpt>
      <trkpt lat="45.82495" lon="-0.65769">
        <ele>5</ele>
        <time>2017-06-25T09:55:06.999Z</time>
      </trkpt>
      <trkpt lat="45.82496" lon="-0.65771">
        <ele>5</ele>
        <time>2017-06-25T09:55:07.999Z</time>
      </trkpt>
      <trkpt lat="45.82496" lon="-0.65774">
        <ele>5</ele>
        <time>2017-06-25T09:55:08.999Z</time>
      </trkpt>
      <trkpt lat="45.82497" lon="-0.65776">
        <ele>5</ele>
        <time>2017-06-25T09:55:09.999Z</time>
      </trkpt>
      <trkpt lat="45.82497" lon="-0.65778">
        <ele>5</ele>
        <time>2017-06-25T09:55:10.999Z</time>
      </trkpt>
      <trkpt lat="45.82497" lon="-0.65779">
        <ele>5</ele>
        <time>2017-06-25T09:55:11.999Z</time>
      </trkpt>
      <trkpt lat="45.82499" lon="-0.65783">
        <ele>5</ele>
        <time>2017-06-25T09:55:14.999Z</time>
      </trkpt>
      <trkpt lat="45.82499" lon="-0.65785">
        <ele>5</ele>
        <time>2017-06-25T09:55:15.999Z</time>
      </trkpt>
      <trkpt lat="45.82499" lon="-0.65787">
        <ele>5</ele>
        <time>2017-06-25T09:55:16.999Z</time>
      </trkpt>
      <trkpt lat="45.825" lon="-0.65789">
        <ele>4</ele>
        <time>2017-06-25T09:55:17.999Z</time>
      </trkpt>
      <trkpt lat="45.82501" lon="-0.65791">
        <ele>4</ele>
        <time>2017-06-25T09:55:18.999Z</time>
      </trkpt>
      <trkpt lat="45.82501" lon="-0.65793">
        <ele>5</ele>
        <time>2017-06-25T09:55:19.999Z</time>
      </trkpt>
      <trkpt lat="45.82501" lon="-0.65795">
        <ele>5</ele>
        <time>2017-06-25T09:55:20.999Z</time>
      </trkpt>
      <trkpt lat="45.82501" lon="-0.65797">
        <ele>5</ele>
        <time>2017-06-25T09:55:21.999Z</time>
      </trkpt>
      <trkpt lat="45.82501" lon="-0.65798">
        <ele>5</ele>
        <time>2017-06-25T09:55:22.999Z</time>
      </trkpt>
      <trkpt lat="45.82502" lon="-0.65801">
        <ele>5</ele>
        <time>2017-06-25T09:55:23.999Z</time>
      </trkpt>
      <trkpt lat="45.82502" lon="-0.65802">
        <ele>5</ele>
        <time>2017-06-25T09:55:24.999Z</time>
      </trkpt>
      <trkpt lat="45.82502" lon="-0.65804">
        <ele>5</ele>
        <time>2017-06-25T09:55:25.999Z</time>
      </trkpt>
      <trkpt lat="45.82502" lon="-0.65806">
        <ele>5</ele>
        <time>2017-06-25T09:55:26.999Z</time>
      </trkpt>
      <trkpt lat="45.82502" lon="-0.65809">
        <ele>5</ele>
        <time>2017-06-25T09:55:27.999Z</time>
      </trkpt>
      <trkpt lat="45.82502" lon="-0.65811">
        <ele>5</ele>
        <time>2017-06-25T09:55:28.999Z</time>
      </trkpt>
      <trkpt lat="45.82502" lon="-0.65813">
        <ele>5</ele>
        <time>2017-06-25T09:55:29.999Z</time>
      </trkpt>
      <trkpt lat="45.82502" lon="-0.65815">
        <ele>5</ele>
        <time>2017-06-25T09:55:30.999Z</time>
      </trkpt>
      <trkpt lat="45.82502" lon="-0.65818">
        <ele>5</ele>
        <time>2017-06-25T09:55:31.999Z</time>
      </trkpt>
      <trkpt lat="45.82502" lon="-0.6582">
        <ele>5</ele>
        <time>2017-06-25T09:55:32.999Z</time>
      </trkpt>
      <trkpt lat="45.82501" lon="-0.65822">
        <ele>5</ele>
        <time>2017-06-25T09:55:33.999Z</time>
      </trkpt>
      <trkpt lat="45.82501" lon="-0.65824">
        <ele>5</ele>
        <time>2017-06-25T09:55:34.999Z</time>
      </trkpt>
      <trkpt lat="45.825" lon="-0.65825">
        <ele>5</ele>
        <time>2017-06-25T09:55:35.999Z</time>
      </trkpt>
      <trkpt lat="45.825" lon="-0.65827">
        <ele>5</ele>
        <time>2017-06-25T09:55:36.999Z</time>
      </trkpt>
      <trkpt lat="45.82499" lon="-0.65829">
        <ele>5</ele>
        <time>2017-06-25T09:55:37.999Z</time>
      </trkpt>
      <trkpt lat="45.82499" lon="-0.65831">
        <ele>5</ele>
        <time>2017-06-25T09:55:38.999Z</time>
      </trkpt>
      <trkpt lat="45.82498" lon="-0.65833">
        <ele>5</ele>
        <time>2017-06-25T09:55:39.999Z</time>
      </trkpt>
      <trkpt lat="45.82497" lon="-0.65834">
        <ele>5</ele>
        <time>2017-06-25T09:55:40.999Z</time>
      </trkpt>
      <trkpt lat="45.82496" lon="-0.65835">
        <ele>5</ele>
        <time>2017-06-25T09:55:41.999Z</time>
      </trkpt>
      <trkpt lat="45.82495" lon="-0.65836">
        <ele>5</ele>
        <time>2017-06-25T09:55:42.999Z</time>
      </trkpt>
      <trkpt lat="45.82494" lon="-0.65837">
        <ele>5</ele>
        <time>2017-06-25T09:55:43.999Z</time>
      </trkpt>
      <trkpt lat="45.82494" lon="-0.65838">
        <ele>5</ele>
        <time>2017-06-25T09:55:44.999Z</time>
      </trkpt>
      <trkpt lat="45.82492" lon="-0.65839">
        <ele>5</ele>
        <time>2017-06-25T09:55:45.999Z</time>
      </trkpt>
      <trkpt lat="45.82491" lon="-0.6584">
        <ele>5</ele>
        <time>2017-06-25T09:55:46.999Z</time>
      </trkpt>
      <trkpt lat="45.82491" lon="-0.6584">
        <ele>5</ele>
        <time>2017-06-25T09:55:47.999Z</time>
      </trkpt>
      <trkpt lat="45.8249" lon="-0.65841">
        <ele>5</ele>
        <time>2017-06-25T09:55:48.999Z</time>
      </trkpt>
      <trkpt lat="45.82489" lon="-0.65842">
        <ele>5</ele>
        <time>2017-06-25T09:55:49.999Z</time>
      </trkpt>
      <trkpt lat="45.82488" lon="-0.65843">
        <ele>5</ele>
        <time>2017-06-25T09:55:50.999Z</time>
      </trkpt>
      <trkpt lat="45.82487" lon="-0.65845">
        <ele>5</ele>
        <time>2017-06-25T09:55:51.999Z</time>
      </trkpt>
      <trkpt lat="45.82486" lon="-0.65847">
        <ele>5</ele>
        <time>2017-06-25T09:55:52.999Z</time>
      </trkpt>
      <trkpt lat="45.82484" lon="-0.65848">
        <ele>5</ele>
        <time>2017-06-25T09:55:54.999Z</time>
      </trkpt>
      <trkpt lat="45.82483" lon="-0.6585">
        <ele>5</ele>
        <time>2017-06-25T09:55:56.999Z</time>
      </trkpt>
      <trkpt lat="45.82481" lon="-0.65851">
        <ele>5</ele>
        <time>2017-06-25T09:55:57.999Z</time>
      </trkpt>
      <trkpt lat="45.82481" lon="-0.65853">
        <ele>5</ele>
        <time>2017-06-25T09:55:58.999Z</time>
      </trkpt>
      <trkpt lat="45.8248" lon="-0.65853">
        <ele>5</ele>
        <time>2017-06-25T09:55:59.999Z</time>
      </trkpt>
      <trkpt lat="45.82477" lon="-0.65856">
        <ele>5</ele>
        <time>2017-06-25T09:56:02.999Z</time>
      </trkpt>
      <trkpt lat="45.82475" lon="-0.65859">
        <ele>5</ele>
        <time>2017-06-25T09:56:04.999Z</time>
      </trkpt>
      <trkpt lat="45.82473" lon="-0.6586">
        <ele>5</ele>
        <time>2017-06-25T09:56:05.999Z</time>
      </trkpt>
      <trkpt lat="45.82472" lon="-0.65861">
        <ele>5</ele>
        <time>2017-06-25T09:56:06.999Z</time>
      </trkpt>
      <trkpt lat="45.82471" lon="-0.65861">
        <ele>5</ele>
        <time>2017-06-25T09:56:07.999Z</time>
      </trkpt>
      <trkpt lat="45.8247" lon="-0.65862">
        <ele>5</ele>
        <time>2017-06-25T09:56:08.999Z</time>
      </trkpt>
      <trkpt lat="45.82468" lon="-0.65862">
        <ele>5</ele>
        <time>2017-06-25T09:56:10.999Z</time>
      </trkpt>
      <trkpt lat="45.82467" lon="-0.65863">
        <ele>5</ele>
        <time>2017-06-25T09:56:11.999Z</time>
      </trkpt>
      <trkpt lat="45.82467" lon="-0.65864">
        <ele>5</ele>
        <time>2017-06-25T09:56:12.999Z</time>
      </trkpt>
      <trkpt lat="45.82466" lon="-0.65864">
        <ele>5</ele>
        <time>2017-06-25T09:56:13.999Z</time>
      </trkpt>
      <trkpt lat="45.82465" lon="-0.65865">
        <ele>5</ele>
        <time>2017-06-25T09:56:14.999Z</time>
      </trkpt>
      <trkpt lat="45.82463" lon="-0.65866">
        <ele>5</ele>
        <time>2017-06-25T09:56:16.999Z</time>
      </trkpt>
      <trkpt lat="45.82461" lon="-0.65868">
        <ele>5</ele>
        <time>2017-06-25T09:56:18.999Z</time>
      </trkpt>
      <trkpt lat="45.8246" lon="-0.65869">
        <ele>5</ele>
        <time>2017-06-25T09:56:19.999Z</time>
      </trkpt>
      <trkpt lat="45.82459" lon="-0.65871">
        <ele>5</ele>
        <time>2017-06-25T09:56:20.999Z</time>
      </trkpt>
      <trkpt lat="45.82458" lon="-0.65872">
        <ele>6</ele>
        <time>2017-06-25T09:56:21.999Z</time>
      </trkpt>
      <trkpt lat="45.82457" lon="-0.65873">
        <ele>6</ele>
        <time>2017-06-25T09:56:22.999Z</time>
      </trkpt>
      <trkpt lat="45.82457" lon="-0.65874">
        <ele>6</ele>
        <time>2017-06-25T09:56:23.999Z</time>
      </trkpt>
      <trkpt lat="45.82455" lon="-0.65875">
        <ele>5</ele>
        <time>2017-06-25T09:56:24.999Z</time>
      </trkpt>
      <trkpt lat="45.82455" lon="-0.65877">
        <ele>5</ele>
        <time>2017-06-25T09:56:25.999Z</time>
      </trkpt>
      <trkpt lat="45.82454" lon="-0.6588">
        <ele>5</ele>
        <time>2017-06-25T09:56:27.999Z</time>
      </trkpt>
      <trkpt lat="45.82453" lon="-0.65881">
        <ele>5</ele>
        <time>2017-06-25T09:56:28.999Z</time>
      </trkpt>
      <trkpt lat="45.82452" lon="-0.65883">
        <ele>5</ele>
        <time>2017-06-25T09:56:29.999Z</time>
      </trkpt>
      <trkpt lat="45.82451" lon="-0.65884">
        <ele>5</ele>
        <time>2017-06-25T09:56:31.999Z</time>
      </trkpt>
      <trkpt lat="45.8245" lon="-0.65885">
        <ele>5</ele>
        <time>2017-06-25T09:56:32.999Z</time>
      </trkpt>
      <trkpt lat="45.82449" lon="-0.65887">
        <ele>5</ele>
        <time>2017-06-25T09:56:33.999Z</time>
      </trkpt>
      <trkpt lat="45.82449" lon="-0.65888">
        <ele>5</ele>
        <time>2017-06-25T09:56:34.999Z</time>
      </trkpt>
      <trkpt lat="45.82448" lon="-0.6589">
        <ele>5</ele>
        <time>2017-06-25T09:56:36.999Z</time>
      </trkpt>
      <trkpt lat="45.82446" lon="-0.65893">
        <ele>5</ele>
        <time>2017-06-25T09:56:37.999Z</time>
      </trkpt>
      <trkpt lat="45.82446" lon="-0.65895">
        <ele>5</ele>
        <time>2017-06-25T09:56:38.999Z</time>
      </trkpt>
      <trkpt lat="45.82445" lon="-0.65897">
        <ele>5</ele>
        <time>2017-06-25T09:56:39.999Z</time>
      </trkpt>
      <trkpt lat="45.82443" lon="-0.65899">
        <ele>5</ele>
        <time>2017-06-25T09:56:40.999Z</time>
      </trkpt>
      <trkpt lat="45.82442" lon="-0.65901">
        <ele>5</ele>
        <time>2017-06-25T09:56:41.999Z</time>
      </trkpt>
      <trkpt lat="45.82441" lon="-0.65903">
        <ele>5</ele>
        <time>2017-06-25T09:56:42.999Z</time>
      </trkpt>
      <trkpt lat="45.8244" lon="-0.65906">
        <ele>5</ele>
        <time>2017-06-25T09:56:43.999Z</time>
      </trkpt>
      <trkpt lat="45.82439" lon="-0.65908">
        <ele>5</ele>
        <time>2017-06-25T09:56:44.999Z</time>
      </trkpt>
      <trkpt lat="45.82439" lon="-0.6591">
        <ele>5</ele>
        <time>2017-06-25T09:56:45.999Z</time>
      </trkpt>
      <trkpt lat="45.82439" lon="-0.65911">
        <ele>5</ele>
        <time>2017-06-25T09:56:46.999Z</time>
      </trkpt>
      <trkpt lat="45.82438" lon="-0.65913">
        <ele>5</ele>
        <time>2017-06-25T09:56:47.999Z</time>
      </trkpt>
      <trkpt lat="45.82438" lon="-0.65914">
        <ele>5</ele>
        <time>2017-06-25T09:56:48.999Z</time>
      </trkpt>
      <trkpt lat="45.82438" lon="-0.65916">
        <ele>5</ele>
        <time>2017-06-25T09:56:50.999Z</time>
      </trkpt>
      <trkpt lat="45.82439" lon="-0.65919">
        <ele>5</ele>
        <time>2017-06-25T09:56:52.999Z</time>
      </trkpt>
      <trkpt lat="45.8244" lon="-0.65922">
        <ele>5</ele>
        <time>2017-06-25T09:56:54.999Z</time>
      </trkpt>
      <trkpt lat="45.82441" lon="-0.65923">
        <ele>5</ele>
        <time>2017-06-25T09:56:55.999Z</time>
      </trkpt>
      <trkpt lat="45.82443" lon="-0.65925">
        <ele>5</ele>
        <time>2017-06-25T09:56:57.999Z</time>
      </trkpt>
      <trkpt lat="45.82443" lon="-0.65926">
        <ele>5</ele>
        <time>2017-06-25T09:56:58.999Z</time>
      </trkpt>
      <trkpt lat="45.82444" lon="-0.65927">
        <ele>5</ele>
        <time>2017-06-25T09:56:59.999Z</time>
      </trkpt>
      <trkpt lat="45.82445" lon="-0.65928">
        <ele>5</ele>
        <time>2017-06-25T09:57:00.999Z</time>
      </trkpt>
      <trkpt lat="45.82446" lon="-0.65929">
        <ele>5</ele>
        <time>2017-06-25T09:57:01.999Z</time>
      </trkpt>
      <trkpt lat="45.82447" lon="-0.6593">
        <ele>5</ele>
        <time>2017-06-25T09:57:02.999Z</time>
      </trkpt>
      <trkpt lat="45.82448" lon="-0.65931">
        <ele>5</ele>
        <time>2017-06-25T09:57:03.999Z</time>
      </trkpt>
      <trkpt lat="45.82449" lon="-0.65932">
        <ele>5</ele>
        <time>2017-06-25T09:57:04.999Z</time>
      </trkpt>
      <trkpt lat="45.8245" lon="-0.65933">
        <ele>5</ele>
        <time>2017-06-25T09:57:05.999Z</time>
      </trkpt>
      <trkpt lat="45.82451" lon="-0.65934">
        <ele>5</ele>
        <time>2017-06-25T09:57:06.999Z</time>
      </trkpt>
      <trkpt lat="45.82452" lon="-0.65935">
        <ele>5</ele>
        <time>2017-06-25T09:57:07.999Z</time>
      </trkpt>
      <trkpt lat="45.82453" lon="-0.65936">
        <ele>5</ele>
        <time>2017-06-25T09:57:08.999Z</time>
      </trkpt>
      <trkpt lat="45.82454" lon="-0.65937">
        <ele>5</ele>
        <time>2017-06-25T09:57:09.999Z</time>
      </trkpt>
      <trkpt lat="45.82454" lon="-0.65938">
        <ele>5</ele>
        <time>2017-06-25T09:57:10.999Z</time>
      </trkpt>
      <trkpt lat="45.82455" lon="-0.65939">
        <ele>5</ele>
        <time>2017-06-25T09:57:11.999Z</time>
      </trkpt>
      <trkpt lat="45.82457" lon="-0.65941">
        <ele>5</ele>
        <time>2017-06-25T09:57:12.999Z</time>
      </trkpt>
      <trkpt lat="45.82458" lon="-0.65942">
        <ele>5</ele>
        <time>2017-06-25T09:57:13.999Z</time>
      </trkpt>
      <trkpt lat="45.82459" lon="-0.65944">
        <ele>5</ele>
        <time>2017-06-25T09:57:14.999Z</time>
      </trkpt>
      <trkpt lat="45.82459" lon="-0.65945">
        <ele>5</ele>
        <time>2017-06-25T09:57:15.999Z</time>
      </trkpt>
      <trkpt lat="45.8246" lon="-0.65946">
        <ele>5</ele>
        <time>2017-06-25T09:57:16.999Z</time>
      </trkpt>
      <trkpt lat="45.82461" lon="-0.65948">
        <ele>5</ele>
        <time>2017-06-25T09:57:17.999Z</time>
      </trkpt>
      <trkpt lat="45.82462" lon="-0.65949">
        <ele>5</ele>
        <time>2017-06-25T09:57:18.999Z</time>
      </trkpt>
      <trkpt lat="45.82463" lon="-0.6595">
        <ele>5</ele>
        <time>2017-06-25T09:57:19.999Z</time>
      </trkpt>
      <trkpt lat="45.82464" lon="-0.65952">
        <ele>5</ele>
        <time>2017-06-25T09:57:20.999Z</time>
      </trkpt>
      <trkpt lat="45.82464" lon="-0.65953">
        <ele>5</ele>
        <time>2017-06-25T09:57:21.999Z</time>
      </trkpt>
      <trkpt lat="45.82465" lon="-0.65954">
        <ele>5</ele>
        <time>2017-06-25T09:57:22.999Z</time>
      </trkpt>
      <trkpt lat="45.82466" lon="-0.65955">
        <ele>5</ele>
        <time>2017-06-25T09:57:23.999Z</time>
      </trkpt>
      <trkpt lat="45.82467" lon="-0.65957">
        <ele>5</ele>
        <time>2017-06-25T09:57:24.999Z</time>
      </trkpt>
      <trkpt lat="45.82468" lon="-0.65958">
        <ele>5</ele>
        <time>2017-06-25T09:57:25.999Z</time>
      </trkpt>
      <trkpt lat="45.82469" lon="-0.65959">
        <ele>5</ele>
        <time>2017-06-25T09:57:26.999Z</time>
      </trkpt>
      <trkpt lat="45.8247" lon="-0.65959">
        <ele>5</ele>
        <time>2017-06-25T09:57:27.999Z</time>
      </trkpt>
      <trkpt lat="45.82471" lon="-0.6596">
        <ele>5</ele>
        <time>2017-06-25T09:57:28.999Z</time>
      </trkpt>
      <trkpt lat="45.82472" lon="-0.65961">
        <ele>5</ele>
        <time>2017-06-25T09:57:29.999Z</time>
      </trkpt>
      <trkpt lat="45.82472" lon="-0.65962">
        <ele>5</ele>
        <time>2017-06-25T09:57:30.999Z</time>
      </trkpt>
      <trkpt lat="45.82473" lon="-0.65964">
        <ele>5</ele>
        <time>2017-06-25T09:57:31.999Z</time>
      </trkpt>
      <trkpt lat="45.82474" lon="-0.65965">
        <ele>5</ele>
        <time>2017-06-25T09:57:33.999Z</time>
      </trkpt>
      <trkpt lat="45.82475" lon="-0.65966">
        <ele>5</ele>
        <time>2017-06-25T09:57:34.999Z</time>
      </trkpt>
      <trkpt lat="45.82476" lon="-0.65967">
        <ele>5</ele>
        <time>2017-06-25T09:57:35.999Z</time>
      </trkpt>
      <trkpt lat="45.82477" lon="-0.65969">
        <ele>5</ele>
        <time>2017-06-25T09:57:36.999Z</time>
      </trkpt>
      <trkpt lat="45.82478" lon="-0.65969">
        <ele>5</ele>
        <time>2017-06-25T09:57:37.999Z</time>
      </trkpt>
      <trkpt lat="45.8248" lon="-0.65971">
        <ele>5</ele>
        <time>2017-06-25T09:57:39.999Z</time>
      </trkpt>
      <trkpt lat="45.8248" lon="-0.65973">
        <ele>5</ele>
        <time>2017-06-25T09:57:40.999Z</time>
      </trkpt>
      <trkpt lat="45.82481" lon="-0.65974">
        <ele>5</ele>
        <time>2017-06-25T09:57:41.999Z</time>
      </trkpt>
      <trkpt lat="45.82481" lon="-0.65976">
        <ele>5</ele>
        <time>2017-06-25T09:57:42.999Z</time>
      </trkpt>
      <trkpt lat="45.82482" lon="-0.65977">
        <ele>5</ele>
        <time>2017-06-25T09:57:43.999Z</time>
      </trkpt>
      <trkpt lat="45.82483" lon="-0.65979">
        <ele>5</ele>
        <time>2017-06-25T09:57:44.999Z</time>
      </trkpt>
      <trkpt lat="45.82484" lon="-0.65981">
        <ele>5</ele>
        <time>2017-06-25T09:57:45.999Z</time>
      </trkpt>
      <trkpt lat="45.82485" lon="-0.65982">
        <ele>5</ele>
        <time>2017-06-25T09:57:46.999Z</time>
      </trkpt>
      <trkpt lat="45.82485" lon="-0.65984">
        <ele>5</ele>
        <time>2017-06-25T09:57:47.999Z</time>
      </trkpt>
      <trkpt lat="45.82486" lon="-0.65985">
        <ele>5</ele>
        <time>2017-06-25T09:57:48.999Z</time>
      </trkpt>
      <trkpt lat="45.82487" lon="-0.65986">
        <ele>5</ele>
        <time>2017-06-25T09:57:49.999Z</time>
      </trkpt>
      <trkpt lat="45.82488" lon="-0.65988">
        <ele>5</ele>
        <time>2017-06-25T09:57:51.999Z</time>
      </trkpt>
      <trkpt lat="45.82488" lon="-0.65989">
        <ele>5</ele>
        <time>2017-06-25T09:57:52.999Z</time>
      </trkpt>
      <trkpt lat="45.8249" lon="-0.65991">
        <ele>5</ele>
        <time>2017-06-25T09:57:54.999Z</time>
      </trkpt>
      <trkpt lat="45.82491" lon="-0.65991">
        <ele>5</ele>
        <time>2017-06-25T09:57:55.999Z</time>
      </trkpt>
      <trkpt lat="45.82491" lon="-0.65992">
        <ele>5</ele>
        <time>2017-06-25T09:57:56.999Z</time>
      </trkpt>
      <trkpt lat="45.82492" lon="-0.65993">
        <ele>5</ele>
        <time>2017-06-25T09:57:57.999Z</time>
      </trkpt>
      <trkpt lat="45.82493" lon="-0.65995">
        <ele>5</ele>
        <time>2017-06-25T09:57:58.999Z</time>
      </trkpt>
      <trkpt lat="45.82494" lon="-0.65996">
        <ele>5</ele>
        <time>2017-06-25T09:57:59.999Z</time>
      </trkpt>
      <trkpt lat="45.82495" lon="-0.65997">
        <ele>5</ele>
        <time>2017-06-25T09:58:00.999Z</time>
      </trkpt>
      <trkpt lat="45.82495" lon="-0.65999">
        <ele>5</ele>
        <time>2017-06-25T09:58:01.999Z</time>
      </trkpt>
      <trkpt lat="45.82496" lon="-0.66">
        <ele>5</ele>
        <time>2017-06-25T09:58:02.999Z</time>
      </trkpt>
      <trkpt lat="45.82497" lon="-0.66001">
        <ele>5</ele>
        <time>2017-06-25T09:58:03.999Z</time>
      </trkpt>
      <trkpt lat="45.82498" lon="-0.66003">
        <ele>5</ele>
        <time>2017-06-25T09:58:04.999Z</time>
      </trkpt>
      <trkpt lat="45.82499" lon="-0.66004">
        <ele>5</ele>
        <time>2017-06-25T09:58:05.999Z</time>
      </trkpt>
      <trkpt lat="45.82499" lon="-0.66005">
        <ele>5</ele>
        <time>2017-06-25T09:58:06.999Z</time>
      </trkpt>
      <trkpt lat="45.82501" lon="-0.66008">
        <ele>5</ele>
        <time>2017-06-25T09:58:08.999Z</time>
      </trkpt>
      <trkpt lat="45.82502" lon="-0.66009">
        <ele>5</ele>
        <time>2017-06-25T09:58:09.999Z</time>
      </trkpt>
      <trkpt lat="45.82502" lon="-0.66011">
        <ele>5</ele>
        <time>2017-06-25T09:58:10.999Z</time>
      </trkpt>
      <trkpt lat="45.82503" lon="-0.66012">
        <ele>5</ele>
        <time>2017-06-25T09:58:11.999Z</time>
      </trkpt>
      <trkpt lat="45.82504" lon="-0.66014">
        <ele>5</ele>
        <time>2017-06-25T09:58:12.999Z</time>
      </trkpt>
      <trkpt lat="45.82504" lon="-0.66014">
        <ele>5</ele>
        <time>2017-06-25T09:58:13.999Z</time>
      </trkpt>
      <trkpt lat="45.82505" lon="-0.66016">
        <ele>5</ele>
        <time>2017-06-25T09:58:14.999Z</time>
      </trkpt>
      <trkpt lat="45.82505" lon="-0.66017">
        <ele>5</ele>
        <time>2017-06-25T09:58:15.999Z</time>
      </trkpt>
      <trkpt lat="45.82506" lon="-0.66019">
        <ele>5</ele>
        <time>2017-06-25T09:58:17.999Z</time>
      </trkpt>
      <trkpt lat="45.82507" lon="-0.66021">
        <ele>5</ele>
        <time>2017-06-25T09:58:18.999Z</time>
      </trkpt>
      <trkpt lat="45.82507" lon="-0.66023">
        <ele>5</ele>
        <time>2017-06-25T09:58:19.999Z</time>
      </trkpt>
      <trkpt lat="45.82508" lon="-0.66025">
        <ele>5</ele>
        <time>2017-06-25T09:58:20.999Z</time>
      </trkpt>
      <trkpt lat="45.82508" lon="-0.66027">
        <ele>5</ele>
        <time>2017-06-25T09:58:21.999Z</time>
      </trkpt>
      <trkpt lat="45.82509" lon="-0.66029">
        <ele>5</ele>
        <time>2017-06-25T09:58:22.999Z</time>
      </trkpt>
      <trkpt lat="45.8251" lon="-0.66028">
        <ele>5</ele>
        <time>2017-06-25T09:58:23.999Z</time>
      </trkpt>
      <trkpt lat="45.82511" lon="-0.66031">
        <ele>5</ele>
        <time>2017-06-25T09:58:24.999Z</time>
      </trkpt>
      <trkpt lat="45.82511" lon="-0.66033">
        <ele>5</ele>
        <time>2017-06-25T09:58:25.999Z</time>
      </trkpt>
      <trkpt lat="45.82512" lon="-0.66035">
        <ele>5</ele>
        <time>2017-06-25T09:58:27.999Z</time>
      </trkpt>
      <trkpt lat="45.82513" lon="-0.66036">
        <ele>5</ele>
        <time>2017-06-25T09:58:28.999Z</time>
      </trkpt>
      <trkpt lat="45.82513" lon="-0.66037">
        <ele>5</ele>
        <time>2017-06-25T09:58:29.999Z</time>
      </trkpt>
      <trkpt lat="45.82515" lon="-0.66038">
        <ele>5</ele>
        <time>2017-06-25T09:58:30.999Z</time>
      </trkpt>
      <trkpt lat="45.82515" lon="-0.66039">
        <ele>5</ele>
        <time>2017-06-25T09:58:31.999Z</time>
      </trkpt>
      <trkpt lat="45.82516" lon="-0.66043">
        <ele>5</ele>
        <time>2017-06-25T09:58:33.999Z</time>
      </trkpt>
      <trkpt lat="45.82517" lon="-0.66046">
        <ele>5</ele>
        <time>2017-06-25T09:58:35.999Z</time>
      </trkpt>
      <trkpt lat="45.82517" lon="-0.66049">
        <ele>5</ele>
        <time>2017-06-25T09:58:36.999Z</time>
      </trkpt>
      <trkpt lat="45.82517" lon="-0.66051">
        <ele>5</ele>
        <time>2017-06-25T09:58:37.999Z</time>
      </trkpt>
      <trkpt lat="45.82517" lon="-0.66054">
        <ele>5</ele>
        <time>2017-06-25T09:58:38.999Z</time>
      </trkpt>
      <trkpt lat="45.82517" lon="-0.66055">
        <ele>5</ele>
        <time>2017-06-25T09:58:39.999Z</time>
      </trkpt>
      <trkpt lat="45.82517" lon="-0.66058">
        <ele>5</ele>
        <time>2017-06-25T09:58:41.999Z</time>
      </trkpt>
      <trkpt lat="45.82518" lon="-0.6606">
        <ele>5</ele>
        <time>2017-06-25T09:58:42.999Z</time>
      </trkpt>
      <trkpt lat="45.82519" lon="-0.66061">
        <ele>5</ele>
        <time>2017-06-25T09:58:43.999Z</time>
      </trkpt>
      <trkpt lat="45.8252" lon="-0.66063">
        <ele>5</ele>
        <time>2017-06-25T09:58:44.999Z</time>
      </trkpt>
      <trkpt lat="45.8252" lon="-0.66065">
        <ele>5</ele>
        <time>2017-06-25T09:58:45.999Z</time>
      </trkpt>
      <trkpt lat="45.8252" lon="-0.66067">
        <ele>5</ele>
        <time>2017-06-25T09:58:46.999Z</time>
      </trkpt>
      <trkpt lat="45.82521" lon="-0.66068">
        <ele>5</ele>
        <time>2017-06-25T09:58:47.999Z</time>
      </trkpt>
      <trkpt lat="45.82521" lon="-0.66069">
        <ele>5</ele>
        <time>2017-06-25T09:58:48.999Z</time>
      </trkpt>
      <trkpt lat="45.82522" lon="-0.66071">
        <ele>5</ele>
        <time>2017-06-25T09:58:50.999Z</time>
      </trkpt>
      <trkpt lat="45.82522" lon="-0.66072">
        <ele>5</ele>
        <time>2017-06-25T09:58:51.999Z</time>
      </trkpt>
      <trkpt lat="45.82523" lon="-0.66074">
        <ele>5</ele>
        <time>2017-06-25T09:58:53.999Z</time>
      </trkpt>
      <trkpt lat="45.82524" lon="-0.66077">
        <ele>5</ele>
        <time>2017-06-25T09:58:55.999Z</time>
      </trkpt>
      <trkpt lat="45.82525" lon="-0.66078">
        <ele>5</ele>
        <time>2017-06-25T09:58:56.999Z</time>
      </trkpt>
      <trkpt lat="45.82526" lon="-0.6608">
        <ele>5</ele>
        <time>2017-06-25T09:58:58.999Z</time>
      </trkpt>
      <trkpt lat="45.82527" lon="-0.66081">
        <ele>5</ele>
        <time>2017-06-25T09:58:59.999Z</time>
      </trkpt>
      <trkpt lat="45.82527" lon="-0.66082">
        <ele>5</ele>
        <time>2017-06-25T09:59:00.999Z</time>
      </trkpt>
      <trkpt lat="45.82528" lon="-0.66084">
        <ele>5</ele>
        <time>2017-06-25T09:59:01.999Z</time>
      </trkpt>
      <trkpt lat="45.8253" lon="-0.66086">
        <ele>5</ele>
        <time>2017-06-25T09:59:02.999Z</time>
      </trkpt>
      <trkpt lat="45.82531" lon="-0.66087">
        <ele>5</ele>
        <time>2017-06-25T09:59:03.999Z</time>
      </trkpt>
      <trkpt lat="45.82532" lon="-0.66089">
        <ele>5</ele>
        <time>2017-06-25T09:59:04.999Z</time>
      </trkpt>
      <trkpt lat="45.82533" lon="-0.66091">
        <ele>5</ele>
        <time>2017-06-25T09:59:06.999Z</time>
      </trkpt>
      <trkpt lat="45.82533" lon="-0.66093">
        <ele>5</ele>
        <time>2017-06-25T09:59:07.999Z</time>
      </trkpt>
      <trkpt lat="45.82534" lon="-0.66095">
        <ele>5</ele>
        <time>2017-06-25T09:59:08.999Z</time>
      </trkpt>
      <trkpt lat="45.82535" lon="-0.66097">
        <ele>5</ele>
        <time>2017-06-25T09:59:10.999Z</time>
      </trkpt>
      <trkpt lat="45.82536" lon="-0.66099">
        <ele>5</ele>
        <time>2017-06-25T09:59:11.999Z</time>
      </trkpt>
      <trkpt lat="45.82536" lon="-0.66101">
        <ele>5</ele>
        <time>2017-06-25T09:59:12.999Z</time>
      </trkpt>
      <trkpt lat="45.82536" lon="-0.66103">
        <ele>5</ele>
        <time>2017-06-25T09:59:13.999Z</time>
      </trkpt>
      <trkpt lat="45.82537" lon="-0.66105">
        <ele>5</ele>
        <time>2017-06-25T09:59:14.999Z</time>
      </trkpt>
      <trkpt lat="45.82538" lon="-0.66107">
        <ele>5</ele>
        <time>2017-06-25T09:59:16.999Z</time>
      </trkpt>
      <trkpt lat="45.82538" lon="-0.66109">
        <ele>5</ele>
        <time>2017-06-25T09:59:17.999Z</time>
      </trkpt>
      <trkpt lat="45.82539" lon="-0.66111">
        <ele>5</ele>
        <time>2017-06-25T09:59:18.999Z</time>
      </trkpt>
      <trkpt lat="45.82539" lon="-0.66113">
        <ele>5</ele>
        <time>2017-06-25T09:59:19.999Z</time>
      </trkpt>
      <trkpt lat="45.8254" lon="-0.66115">
        <ele>5</ele>
        <time>2017-06-25T09:59:20.999Z</time>
      </trkpt>
      <trkpt lat="45.82541" lon="-0.66118">
        <ele>5</ele>
        <time>2017-06-25T09:59:21.999Z</time>
      </trkpt>
      <trkpt lat="45.82542" lon="-0.6612">
        <ele>5</ele>
        <time>2017-06-25T09:59:22.999Z</time>
      </trkpt>
      <trkpt lat="45.82543" lon="-0.66121">
        <ele>5</ele>
        <time>2017-06-25T09:59:23.999Z</time>
      </trkpt>
      <trkpt lat="45.82544" lon="-0.66123">
        <ele>5</ele>
        <time>2017-06-25T09:59:24.999Z</time>
      </trkpt>
      <trkpt lat="45.82544" lon="-0.66124">
        <ele>5</ele>
        <time>2017-06-25T09:59:25.999Z</time>
      </trkpt>
      <trkpt lat="45.82546" lon="-0.66126">
        <ele>5</ele>
        <time>2017-06-25T09:59:26.999Z</time>
      </trkpt>
      <trkpt lat="45.82546" lon="-0.66128">
        <ele>5</ele>
        <time>2017-06-25T09:59:27.999Z</time>
      </trkpt>
      <trkpt lat="45.82547" lon="-0.66129">
        <ele>5</ele>
        <time>2017-06-25T09:59:28.999Z</time>
      </trkpt>
      <trkpt lat="45.82548" lon="-0.66131">
        <ele>5</ele>
        <time>2017-06-25T09:59:29.999Z</time>
      </trkpt>
      <trkpt lat="45.82549" lon="-0.66132">
        <ele>5</ele>
        <time>2017-06-25T09:59:30.999Z</time>
      </trkpt>
      <trkpt lat="45.8255" lon="-0.66134">
        <ele>5</ele>
        <time>2017-06-25T09:59:31.999Z</time>
      </trkpt>
      <trkpt lat="45.82551" lon="-0.66135">
        <ele>5</ele>
        <time>2017-06-25T09:59:32.999Z</time>
      </trkpt>
      <trkpt lat="45.82552" lon="-0.66136">
        <ele>5</ele>
        <time>2017-06-25T09:59:33.999Z</time>
      </trkpt>
      <trkpt lat="45.82553" lon="-0.66137">
        <ele>5</ele>
        <time>2017-06-25T09:59:34.999Z</time>
      </trkpt>
      <trkpt lat="45.82554" lon="-0.66138">
        <ele>5</ele>
        <time>2017-06-25T09:59:35.999Z</time>
      </trkpt>
      <trkpt lat="45.82554" lon="-0.66139">
        <ele>5</ele>
        <time>2017-06-25T09:59:36.999Z</time>
      </trkpt>
      <trkpt lat="45.82555" lon="-0.66141">
        <ele>5</ele>
        <time>2017-06-25T09:59:37.999Z</time>
      </trkpt>
      <trkpt lat="45.82556" lon="-0.66142">
        <ele>5</ele>
        <time>2017-06-25T09:59:38.999Z</time>
      </trkpt>
      <trkpt lat="45.82557" lon="-0.66144">
        <ele>5</ele>
        <time>2017-06-25T09:59:39.999Z</time>
      </trkpt>
      <trkpt lat="45.82557" lon="-0.66145">
        <ele>5</ele>
        <time>2017-06-25T09:59:40.999Z</time>
      </trkpt>
      <trkpt lat="45.82558" lon="-0.66147">
        <ele>5</ele>
        <time>2017-06-25T09:59:41.999Z</time>
      </trkpt>
      <trkpt lat="45.82558" lon="-0.66148">
        <ele>5</ele>
        <time>2017-06-25T09:59:42.999Z</time>
      </trkpt>
      <trkpt lat="45.82558" lon="-0.6615">
        <ele>5</ele>
        <time>2017-06-25T09:59:43.999Z</time>
      </trkpt>
      <trkpt lat="45.82558" lon="-0.66152">
        <ele>5</ele>
        <time>2017-06-25T09:59:44.999Z</time>
      </trkpt>
      <trkpt lat="45.82559" lon="-0.66154">
        <ele>4</ele>
        <time>2017-06-25T09:59:45.999Z</time>
      </trkpt>
      <trkpt lat="45.8256" lon="-0.66155">
        <ele>4</ele>
        <time>2017-06-25T09:59:46.999Z</time>
      </trkpt>
      <trkpt lat="45.8256" lon="-0.66157">
        <ele>4</ele>
        <time>2017-06-25T09:59:47.999Z</time>
      </trkpt>
      <trkpt lat="45.82561" lon="-0.66158">
        <ele>4</ele>
        <time>2017-06-25T09:59:48.999Z</time>
      </trkpt>
      <trkpt lat="45.82562" lon="-0.6616">
        <ele>4</ele>
        <time>2017-06-25T09:59:49.999Z</time>
      </trkpt>
      <trkpt lat="45.82562" lon="-0.66162">
        <ele>4</ele>
        <time>2017-06-25T09:59:51.999Z</time>
      </trkpt>
      <trkpt lat="45.82563" lon="-0.66164">
        <ele>4</ele>
        <time>2017-06-25T09:59:52.999Z</time>
      </trkpt>
      <trkpt lat="45.82563" lon="-0.66166">
        <ele>4</ele>
        <time>2017-06-25T09:59:53.999Z</time>
      </trkpt>
      <trkpt lat="45.82564" lon="-0.66167">
        <ele>5</ele>
        <time>2017-06-25T09:59:54.999Z</time>
      </trkpt>
      <trkpt lat="45.82565" lon="-0.66169">
        <ele>5</ele>
        <time>2017-06-25T09:59:55.999Z</time>
      </trkpt>
      <trkpt lat="45.82565" lon="-0.6617">
        <ele>5</ele>
        <time>2017-06-25T09:59:56.999Z</time>
      </trkpt>
      <trkpt lat="45.82566" lon="-0.66172">
        <ele>5</ele>
        <time>2017-06-25T09:59:57.999Z</time>
      </trkpt>
      <trkpt lat="45.82566" lon="-0.66174">
        <ele>5</ele>
        <time>2017-06-25T09:59:58.999Z</time>
      </trkpt>
      <trkpt lat="45.82567" lon="-0.66177">
        <ele>5</ele>
        <time>2017-06-25T09:59:59.999Z</time>
      </trkpt>
      <trkpt lat="45.82567" lon="-0.66178">
        <ele>5</ele>
        <time>2017-06-25T10:00:00.999Z</time>
      </trkpt>
      <trkpt lat="45.82566" lon="-0.6618">
        <ele>5</ele>
        <time>2017-06-25T10:00:01.999Z</time>
      </trkpt>
      <trkpt lat="45.82567" lon="-0.66182">
        <ele>5</ele>
        <time>2017-06-25T10:00:02.999Z</time>
      </trkpt>
      <trkpt lat="45.82568" lon="-0.66182">
        <ele>5</ele>
        <time>2017-06-25T10:00:03.999Z</time>
      </trkpt>
      <trkpt lat="45.82568" lon="-0.66185">
        <ele>5</ele>
        <time>2017-06-25T10:00:05.999Z</time>
      </trkpt>
      <trkpt lat="45.82569" lon="-0.66187">
        <ele>5</ele>
        <time>2017-06-25T10:00:07.999Z</time>
      </trkpt>
      <trkpt lat="45.82569" lon="-0.66188">
        <ele>5</ele>
        <time>2017-06-25T10:00:09.999Z</time>
      </trkpt>
      <trkpt lat="45.8257" lon="-0.6619">
        <ele>5</ele>
        <time>2017-06-25T10:00:10.999Z</time>
      </trkpt>
      <trkpt lat="45.8257" lon="-0.66192">
        <ele>5</ele>
        <time>2017-06-25T10:00:11.999Z</time>
      </trkpt>
      <trkpt lat="45.8257" lon="-0.66194">
        <ele>5</ele>
        <time>2017-06-25T10:00:12.999Z</time>
      </trkpt>
      <trkpt lat="45.82571" lon="-0.66196">
        <ele>5</ele>
        <time>2017-06-25T10:00:13.999Z</time>
      </trkpt>
      <trkpt lat="45.82572" lon="-0.66198">
        <ele>5</ele>
        <time>2017-06-25T10:00:14.999Z</time>
      </trkpt>
      <trkpt lat="45.82573" lon="-0.66201">
        <ele>5</ele>
        <time>2017-06-25T10:00:16.999Z</time>
      </trkpt>
      <trkpt lat="45.82573" lon="-0.66202">
        <ele>5</ele>
        <time>2017-06-25T10:00:17.999Z</time>
      </trkpt>
      <trkpt lat="45.82574" lon="-0.66204">
        <ele>5</ele>
        <time>2017-06-25T10:00:18.999Z</time>
      </trkpt>
      <trkpt lat="45.82574" lon="-0.66206">
        <ele>5</ele>
        <time>2017-06-25T10:00:19.999Z</time>
      </trkpt>
      <trkpt lat="45.82575" lon="-0.66208">
        <ele>5</ele>
        <time>2017-06-25T10:00:21.999Z</time>
      </trkpt>
      <trkpt lat="45.82576" lon="-0.66211">
        <ele>5</ele>
        <time>2017-06-25T10:00:23.999Z</time>
      </trkpt>
      <trkpt lat="45.82576" lon="-0.66212">
        <ele>5</ele>
        <time>2017-06-25T10:00:24.999Z</time>
      </trkpt>
      <trkpt lat="45.82576" lon="-0.66214">
        <ele>5</ele>
        <time>2017-06-25T10:00:25.999Z</time>
      </trkpt>
      <trkpt lat="45.82577" lon="-0.66215">
        <ele>5</ele>
        <time>2017-06-25T10:00:26.999Z</time>
      </trkpt>
      <trkpt lat="45.82577" lon="-0.66217">
        <ele>5</ele>
        <time>2017-06-25T10:00:27.999Z</time>
      </trkpt>
      <trkpt lat="45.82577" lon="-0.66218">
        <ele>5</ele>
        <time>2017-06-25T10:00:28.999Z</time>
      </trkpt>
      <trkpt lat="45.82577" lon="-0.66221">
        <ele>5</ele>
        <time>2017-06-25T10:00:30.999Z</time>
      </trkpt>
      <trkpt lat="45.82578" lon="-0.66222">
        <ele>5</ele>
        <time>2017-06-25T10:00:31.999Z</time>
      </trkpt>
      <trkpt lat="45.82578" lon="-0.66224">
        <ele>5</ele>
        <time>2017-06-25T10:00:32.999Z</time>
      </trkpt>
      <trkpt lat="45.82578" lon="-0.66226">
        <ele>5</ele>
        <time>2017-06-25T10:00:33.999Z</time>
      </trkpt>
      <trkpt lat="45.82579" lon="-0.66228">
        <ele>5</ele>
        <time>2017-06-25T10:00:34.999Z</time>
      </trkpt>
      <trkpt lat="45.8258" lon="-0.6623">
        <ele>5</ele>
        <time>2017-06-25T10:00:35.999Z</time>
      </trkpt>
      <trkpt lat="45.82581" lon="-0.66231">
        <ele>5</ele>
        <time>2017-06-25T10:00:36.999Z</time>
      </trkpt>
      <trkpt lat="45.82581" lon="-0.66233">
        <ele>5</ele>
        <time>2017-06-25T10:00:37.999Z</time>
      </trkpt>
      <trkpt lat="45.82582" lon="-0.66235">
        <ele>5</ele>
        <time>2017-06-25T10:00:38.999Z</time>
      </trkpt>
      <trkpt lat="45.82582" lon="-0.66236">
        <ele>5</ele>
        <time>2017-06-25T10:00:39.999Z</time>
      </trkpt>
      <trkpt lat="45.82583" lon="-0.66238">
        <ele>5</ele>
        <time>2017-06-25T10:00:41.999Z</time>
      </trkpt>
      <trkpt lat="45.82583" lon="-0.6624">
        <ele>5</ele>
        <time>2017-06-25T10:00:42.999Z</time>
      </trkpt>
      <trkpt lat="45.82583" lon="-0.66242">
        <ele>5</ele>
        <time>2017-06-25T10:00:44.999Z</time>
      </trkpt>
      <trkpt lat="45.82584" lon="-0.66244">
        <ele>5</ele>
        <time>2017-06-25T10:00:45.999Z</time>
      </trkpt>
      <trkpt lat="45.82584" lon="-0.66245">
        <ele>5</ele>
        <time>2017-06-25T10:00:46.999Z</time>
      </trkpt>
      <trkpt lat="45.82584" lon="-0.66247">
        <ele>5</ele>
        <time>2017-06-25T10:00:47.999Z</time>
      </trkpt>
      <trkpt lat="45.82585" lon="-0.66249">
        <ele>5</ele>
        <time>2017-06-25T10:00:48.999Z</time>
      </trkpt>
      <trkpt lat="45.82585" lon="-0.66251">
        <ele>5</ele>
        <time>2017-06-25T10:00:49.999Z</time>
      </trkpt>
      <trkpt lat="45.82586" lon="-0.66254">
        <ele>5</ele>
        <time>2017-06-25T10:00:50.999Z</time>
      </trkpt>
      <trkpt lat="45.82586" lon="-0.66256">
        <ele>5</ele>
        <time>2017-06-25T10:00:51.999Z</time>
      </trkpt>
      <trkpt lat="45.82587" lon="-0.66257">
        <ele>5</ele>
        <time>2017-06-25T10:00:52.999Z</time>
      </trkpt>
      <trkpt lat="45.82587" lon="-0.66259">
        <ele>5</ele>
        <time>2017-06-25T10:00:53.999Z</time>
      </trkpt>
      <trkpt lat="45.82587" lon="-0.66261">
        <ele>5</ele>
        <time>2017-06-25T10:00:54.999Z</time>
      </trkpt>
      <trkpt lat="45.82588" lon="-0.66263">
        <ele>5</ele>
        <time>2017-06-25T10:00:55.999Z</time>
      </trkpt>
      <trkpt lat="45.82589" lon="-0.66265">
        <ele>5</ele>
        <time>2017-06-25T10:00:56.999Z</time>
      </trkpt>
      <trkpt lat="45.82589" lon="-0.66267">
        <ele>5</ele>
        <time>2017-06-25T10:00:57.999Z</time>
      </trkpt>
      <trkpt lat="45.8259" lon="-0.66269">
        <ele>5</ele>
        <time>2017-06-25T10:00:58.999Z</time>
      </trkpt>
      <trkpt lat="45.82591" lon="-0.66272">
        <ele>5</ele>
        <time>2017-06-25T10:00:59.999Z</time>
      </trkpt>
      <trkpt lat="45.82592" lon="-0.66273">
        <ele>5</ele>
        <time>2017-06-25T10:01:00.999Z</time>
      </trkpt>
      <trkpt lat="45.82592" lon="-0.66275">
        <ele>5</ele>
        <time>2017-06-25T10:01:01.999Z</time>
      </trkpt>
      <trkpt lat="45.82593" lon="-0.66278">
        <ele>5</ele>
        <time>2017-06-25T10:01:02.999Z</time>
      </trkpt>
      <trkpt lat="45.82594" lon="-0.66281">
        <ele>5</ele>
        <time>2017-06-25T10:01:03.999Z</time>
      </trkpt>
      <trkpt lat="45.82594" lon="-0.66282">
        <ele>5</ele>
        <time>2017-06-25T10:01:04.999Z</time>
      </trkpt>
      <trkpt lat="45.82594" lon="-0.66283">
        <ele>5</ele>
        <time>2017-06-25T10:01:05.999Z</time>
      </trkpt>
      <trkpt lat="45.82595" lon="-0.66286">
        <ele>5</ele>
        <time>2017-06-25T10:01:07.999Z</time>
      </trkpt>
      <trkpt lat="45.82595" lon="-0.66287">
        <ele>5</ele>
        <time>2017-06-25T10:01:08.999Z</time>
      </trkpt>
      <trkpt lat="45.82595" lon="-0.66289">
        <ele>5</ele>
        <time>2017-06-25T10:01:09.999Z</time>
      </trkpt>
      <trkpt lat="45.82595" lon="-0.6629">
        <ele>5</ele>
        <time>2017-06-25T10:01:10.999Z</time>
      </trkpt>
      <trkpt lat="45.82595" lon="-0.66292">
        <ele>5</ele>
        <time>2017-06-25T10:01:11.999Z</time>
      </trkpt>
      <trkpt lat="45.82596" lon="-0.66295">
        <ele>5</ele>
        <time>2017-06-25T10:01:13.999Z</time>
      </trkpt>
      <trkpt lat="45.82596" lon="-0.66296">
        <ele>5</ele>
        <time>2017-06-25T10:01:14.999Z</time>
      </trkpt>
      <trkpt lat="45.82596" lon="-0.66297">
        <ele>5</ele>
        <time>2017-06-25T10:01:15.999Z</time>
      </trkpt>
      <trkpt lat="45.82596" lon="-0.663">
        <ele>5</ele>
        <time>2017-06-25T10:01:17.999Z</time>
      </trkpt>
      <trkpt lat="45.82596" lon="-0.66303">
        <ele>5</ele>
        <time>2017-06-25T10:01:19.999Z</time>
      </trkpt>
      <trkpt lat="45.82596" lon="-0.66305">
        <ele>5</ele>
        <time>2017-06-25T10:01:20.999Z</time>
      </trkpt>
      <trkpt lat="45.82597" lon="-0.66307">
        <ele>5</ele>
        <time>2017-06-25T10:01:21.999Z</time>
      </trkpt>
      <trkpt lat="45.82599" lon="-0.66308">
        <ele>5</ele>
        <time>2017-06-25T10:01:22.999Z</time>
      </trkpt>
      <trkpt lat="45.82599" lon="-0.66309">
        <ele>5</ele>
        <time>2017-06-25T10:01:23.999Z</time>
      </trkpt>
      <trkpt lat="45.82599" lon="-0.66311">
        <ele>5</ele>
        <time>2017-06-25T10:01:24.999Z</time>
      </trkpt>
      <trkpt lat="45.82599" lon="-0.66313">
        <ele>5</ele>
        <time>2017-06-25T10:01:25.999Z</time>
      </trkpt>
      <trkpt lat="45.82599" lon="-0.66314">
        <ele>5</ele>
        <time>2017-06-25T10:01:26.999Z</time>
      </trkpt>
      <trkpt lat="45.82599" lon="-0.66316">
        <ele>5</ele>
        <time>2017-06-25T10:01:27.999Z</time>
      </trkpt>
      <trkpt lat="45.82599" lon="-0.66318">
        <ele>5</ele>
        <time>2017-06-25T10:01:28.999Z</time>
      </trkpt>
      <trkpt lat="45.82599" lon="-0.6632">
        <ele>5</ele>
        <time>2017-06-25T10:01:29.999Z</time>
      </trkpt>
      <trkpt lat="45.826" lon="-0.66323">
        <ele>5</ele>
        <time>2017-06-25T10:01:30.999Z</time>
      </trkpt>
      <trkpt lat="45.82601" lon="-0.66325">
        <ele>5</ele>
        <time>2017-06-25T10:01:31.999Z</time>
      </trkpt>
      <trkpt lat="45.82601" lon="-0.66327">
        <ele>5</ele>
        <time>2017-06-25T10:01:32.999Z</time>
      </trkpt>
      <trkpt lat="45.82601" lon="-0.66329">
        <ele>5</ele>
        <time>2017-06-25T10:01:33.999Z</time>
      </trkpt>
      <trkpt lat="45.82601" lon="-0.66331">
        <ele>5</ele>
        <time>2017-06-25T10:01:34.999Z</time>
      </trkpt>
      <trkpt lat="45.82601" lon="-0.66333">
        <ele>5</ele>
        <time>2017-06-25T10:01:35.999Z</time>
      </trkpt>
      <trkpt lat="45.82601" lon="-0.66336">
        <ele>5</ele>
        <time>2017-06-25T10:01:36.999Z</time>
      </trkpt>
      <trkpt lat="45.82601" lon="-0.66338">
        <ele>5</ele>
        <time>2017-06-25T10:01:37.999Z</time>
      </trkpt>
      <trkpt lat="45.82601" lon="-0.66339">
        <ele>5</ele>
        <time>2017-06-25T10:01:38.999Z</time>
      </trkpt>
      <trkpt lat="45.82602" lon="-0.66341">
        <ele>5</ele>
        <time>2017-06-25T10:01:39.999Z</time>
      </trkpt>
      <trkpt lat="45.82602" lon="-0.66342">
        <ele>5</ele>
        <time>2017-06-25T10:01:40.999Z</time>
      </trkpt>
      <trkpt lat="45.82602" lon="-0.66344">
        <ele>5</ele>
        <time>2017-06-25T10:01:41.999Z</time>
      </trkpt>
      <trkpt lat="45.82603" lon="-0.66346">
        <ele>5</ele>
        <time>2017-06-25T10:01:42.999Z</time>
      </trkpt>
      <trkpt lat="45.82603" lon="-0.66348">
        <ele>5</ele>
        <time>2017-06-25T10:01:43.999Z</time>
      </trkpt>
      <trkpt lat="45.82603" lon="-0.6635">
        <ele>4</ele>
        <time>2017-06-25T10:01:44.999Z</time>
      </trkpt>
      <trkpt lat="45.82603" lon="-0.66351">
        <ele>4</ele>
        <time>2017-06-25T10:01:46.999Z</time>
      </trkpt>
      <trkpt lat="45.82602" lon="-0.66353">
        <ele>4</ele>
        <time>2017-06-25T10:01:48.999Z</time>
      </trkpt>
      <trkpt lat="45.82603" lon="-0.66356">
        <ele>4</ele>
        <time>2017-06-25T10:01:50.999Z</time>
      </trkpt>
      <trkpt lat="45.82604" lon="-0.66357">
        <ele>4</ele>
        <time>2017-06-25T10:01:51.999Z</time>
      </trkpt>
      <trkpt lat="45.82604" lon="-0.66359">
        <ele>4</ele>
        <time>2017-06-25T10:01:52.999Z</time>
      </trkpt>
      <trkpt lat="45.82604" lon="-0.66361">
        <ele>4</ele>
        <time>2017-06-25T10:01:53.999Z</time>
      </trkpt>
      <trkpt lat="45.82605" lon="-0.66363">
        <ele>4</ele>
        <time>2017-06-25T10:01:54.999Z</time>
      </trkpt>
      <trkpt lat="45.82606" lon="-0.66364">
        <ele>4</ele>
        <time>2017-06-25T10:01:55.999Z</time>
      </trkpt>
      <trkpt lat="45.82606" lon="-0.66366">
        <ele>4</ele>
        <time>2017-06-25T10:01:56.999Z</time>
      </trkpt>
      <trkpt lat="45.82607" lon="-0.66367">
        <ele>4</ele>
        <time>2017-06-25T10:01:58.999Z</time>
      </trkpt>
      <trkpt lat="45.82608" lon="-0.66368">
        <ele>4</ele>
        <time>2017-06-25T10:01:59.999Z</time>
      </trkpt>
      <trkpt lat="45.82609" lon="-0.6637">
        <ele>4</ele>
        <time>2017-06-25T10:02:00.999Z</time>
      </trkpt>
      <trkpt lat="45.8261" lon="-0.66372">
        <ele>4</ele>
        <time>2017-06-25T10:02:01.999Z</time>
      </trkpt>
      <trkpt lat="45.8261" lon="-0.66374">
        <ele>4</ele>
        <time>2017-06-25T10:02:02.999Z</time>
      </trkpt>
      <trkpt lat="45.8261" lon="-0.66375">
        <ele>4</ele>
        <time>2017-06-25T10:02:03.999Z</time>
      </trkpt>
      <trkpt lat="45.8261" lon="-0.66377">
        <ele>4</ele>
        <time>2017-06-25T10:02:07.999Z</time>
      </trkpt>
      <trkpt lat="45.82611" lon="-0.66378">
        <ele>4</ele>
        <time>2017-06-25T10:02:08.999Z</time>
      </trkpt>
      <trkpt lat="45.82611" lon="-0.6638">
        <ele>4</ele>
        <time>2017-06-25T10:02:09.999Z</time>
      </trkpt>
      <trkpt lat="45.82612" lon="-0.66383">
        <ele>4</ele>
        <time>2017-06-25T10:02:10.999Z</time>
      </trkpt>
      <trkpt lat="45.82612" lon="-0.66385">
        <ele>4</ele>
        <time>2017-06-25T10:02:11.999Z</time>
      </trkpt>
      <trkpt lat="45.82613" lon="-0.66387">
        <ele>4</ele>
        <time>2017-06-25T10:02:12.999Z</time>
      </trkpt>
      <trkpt lat="45.82612" lon="-0.6639">
        <ele>4</ele>
        <time>2017-06-25T10:02:14.999Z</time>
      </trkpt>
      <trkpt lat="45.82612" lon="-0.66392">
        <ele>4</ele>
        <time>2017-06-25T10:02:15.999Z</time>
      </trkpt>
      <trkpt lat="45.82612" lon="-0.66394">
        <ele>4</ele>
        <time>2017-06-25T10:02:16.999Z</time>
      </trkpt>
      <trkpt lat="45.82613" lon="-0.66397">
        <ele>4</ele>
        <time>2017-06-25T10:02:17.999Z</time>
      </trkpt>
      <trkpt lat="45.82613" lon="-0.66399">
        <ele>4</ele>
        <time>2017-06-25T10:02:18.999Z</time>
      </trkpt>
      <trkpt lat="45.82614" lon="-0.66402">
        <ele>4</ele>
        <time>2017-06-25T10:02:19.999Z</time>
      </trkpt>
      <trkpt lat="45.82614" lon="-0.66403">
        <ele>4</ele>
        <time>2017-06-25T10:02:20.999Z</time>
      </trkpt>
      <trkpt lat="45.82615" lon="-0.66406">
        <ele>4</ele>
        <time>2017-06-25T10:02:21.999Z</time>
      </trkpt>
      <trkpt lat="45.82615" lon="-0.66409">
        <ele>4</ele>
        <time>2017-06-25T10:02:22.999Z</time>
      </trkpt>
      <trkpt lat="45.82616" lon="-0.66411">
        <ele>4</ele>
        <time>2017-06-25T10:02:23.999Z</time>
      </trkpt>
      <trkpt lat="45.82616" lon="-0.66413">
        <ele>4</ele>
        <time>2017-06-25T10:02:24.999Z</time>
      </trkpt>
      <trkpt lat="45.82616" lon="-0.66415">
        <ele>4</ele>
        <time>2017-06-25T10:02:25.999Z</time>
      </trkpt>
      <trkpt lat="45.82616" lon="-0.66417">
        <ele>5</ele>
        <time>2017-06-25T10:02:26.999Z</time>
      </trkpt>
      <trkpt lat="45.82616" lon="-0.66419">
        <ele>5</ele>
        <time>2017-06-25T10:02:27.999Z</time>
      </trkpt>
      <trkpt lat="45.82616" lon="-0.6642">
        <ele>5</ele>
        <time>2017-06-25T10:02:28.999Z</time>
      </trkpt>
      <trkpt lat="45.82617" lon="-0.66422">
        <ele>5</ele>
        <time>2017-06-25T10:02:29.999Z</time>
      </trkpt>
      <trkpt lat="45.82618" lon="-0.66424">
        <ele>5</ele>
        <time>2017-06-25T10:02:30.999Z</time>
      </trkpt>
      <trkpt lat="45.82618" lon="-0.66425">
        <ele>5</ele>
        <time>2017-06-25T10:02:31.999Z</time>
      </trkpt>
      <trkpt lat="45.82619" lon="-0.66427">
        <ele>5</ele>
        <time>2017-06-25T10:02:32.999Z</time>
      </trkpt>
      <trkpt lat="45.82619" lon="-0.66429">
        <ele>5</ele>
        <time>2017-06-25T10:02:33.999Z</time>
      </trkpt>
      <trkpt lat="45.82618" lon="-0.66432">
        <ele>5</ele>
        <time>2017-06-25T10:02:34.999Z</time>
      </trkpt>
      <trkpt lat="45.82618" lon="-0.66433">
        <ele>5</ele>
        <time>2017-06-25T10:02:35.999Z</time>
      </trkpt>
      <trkpt lat="45.82618" lon="-0.66436">
        <ele>5</ele>
        <time>2017-06-25T10:02:36.999Z</time>
      </trkpt>
      <trkpt lat="45.82618" lon="-0.66438">
        <ele>5</ele>
        <time>2017-06-25T10:02:37.999Z</time>
      </trkpt>
      <trkpt lat="45.82618" lon="-0.6644">
        <ele>5</ele>
        <time>2017-06-25T10:02:39.999Z</time>
      </trkpt>
      <trkpt lat="45.82617" lon="-0.66442">
        <ele>5</ele>
        <time>2017-06-25T10:02:40.999Z</time>
      </trkpt>
      <trkpt lat="45.82617" lon="-0.66445">
        <ele>5</ele>
        <time>2017-06-25T10:02:42.999Z</time>
      </trkpt>
      <trkpt lat="45.82616" lon="-0.66447">
        <ele>5</ele>
        <time>2017-06-25T10:02:43.999Z</time>
      </trkpt>
      <trkpt lat="45.82616" lon="-0.6645">
        <ele>5</ele>
        <time>2017-06-25T10:02:45.999Z</time>
      </trkpt>
      <trkpt lat="45.82616" lon="-0.66452">
        <ele>5</ele>
        <time>2017-06-25T10:02:46.999Z</time>
      </trkpt>
      <trkpt lat="45.82616" lon="-0.66454">
        <ele>5</ele>
        <time>2017-06-25T10:02:49.999Z</time>
      </trkpt>
      <trkpt lat="45.82616" lon="-0.66455">
        <ele>5</ele>
        <time>2017-06-25T10:02:51.999Z</time>
      </trkpt>
      <trkpt lat="45.82616" lon="-0.66457">
        <ele>5</ele>
        <time>2017-06-25T10:02:52.999Z</time>
      </trkpt>
      <trkpt lat="45.82617" lon="-0.66459">
        <ele>5</ele>
        <time>2017-06-25T10:02:54.999Z</time>
      </trkpt>
      <trkpt lat="45.82618" lon="-0.66461">
        <ele>5</ele>
        <time>2017-06-25T10:02:55.999Z</time>
      </trkpt>
      <trkpt lat="45.82617" lon="-0.66462">
        <ele>5</ele>
        <time>2017-06-25T10:02:56.999Z</time>
      </trkpt>
      <trkpt lat="45.82617" lon="-0.66464">
        <ele>5</ele>
        <time>2017-06-25T10:02:57.999Z</time>
      </trkpt>
      <trkpt lat="45.82617" lon="-0.66467">
        <ele>5</ele>
        <time>2017-06-25T10:02:58.999Z</time>
      </trkpt>
      <trkpt lat="45.82618" lon="-0.66469">
        <ele>5</ele>
        <time>2017-06-25T10:02:59.999Z</time>
      </trkpt>
      <trkpt lat="45.82619" lon="-0.6647">
        <ele>5</ele>
        <time>2017-06-25T10:03:00.999Z</time>
      </trkpt>
      <trkpt lat="45.8262" lon="-0.66471">
        <ele>5</ele>
        <time>2017-06-25T10:03:01.999Z</time>
      </trkpt>
      <trkpt lat="45.82621" lon="-0.66475">
        <ele>5</ele>
        <time>2017-06-25T10:03:03.999Z</time>
      </trkpt>
      <trkpt lat="45.82621" lon="-0.66477">
        <ele>5</ele>
        <time>2017-06-25T10:03:04.999Z</time>
      </trkpt>
      <trkpt lat="45.82622" lon="-0.6648">
        <ele>5</ele>
        <time>2017-06-25T10:03:05.999Z</time>
      </trkpt>
      <trkpt lat="45.82622" lon="-0.66482">
        <ele>5</ele>
        <time>2017-06-25T10:03:06.999Z</time>
      </trkpt>
      <trkpt lat="45.82623" lon="-0.66485">
        <ele>5</ele>
        <time>2017-06-25T10:03:07.999Z</time>
      </trkpt>
      <trkpt lat="45.82624" lon="-0.66486">
        <ele>5</ele>
        <time>2017-06-25T10:03:08.999Z</time>
      </trkpt>
      <trkpt lat="45.82625" lon="-0.66488">
        <ele>5</ele>
        <time>2017-06-25T10:03:09.999Z</time>
      </trkpt>
      <trkpt lat="45.82625" lon="-0.6649">
        <ele>5</ele>
        <time>2017-06-25T10:03:10.999Z</time>
      </trkpt>
      <trkpt lat="45.82626" lon="-0.66492">
        <ele>5</ele>
        <time>2017-06-25T10:03:11.999Z</time>
      </trkpt>
      <trkpt lat="45.82627" lon="-0.66494">
        <ele>5</ele>
        <time>2017-06-25T10:03:12.999Z</time>
      </trkpt>
      <trkpt lat="45.82628" lon="-0.66496">
        <ele>5</ele>
        <time>2017-06-25T10:03:13.999Z</time>
      </trkpt>
      <trkpt lat="45.82628" lon="-0.66498">
        <ele>5</ele>
        <time>2017-06-25T10:03:15.999Z</time>
      </trkpt>
      <trkpt lat="45.82628" lon="-0.66499">
        <ele>5</ele>
        <time>2017-06-25T10:03:17.999Z</time>
      </trkpt>
      <trkpt lat="45.82629" lon="-0.66502">
        <ele>6</ele>
        <time>2017-06-25T10:03:19.999Z</time>
      </trkpt>
      <trkpt lat="45.8263" lon="-0.66505">
        <ele>6</ele>
        <time>2017-06-25T10:03:21.999Z</time>
      </trkpt>
      <trkpt lat="45.8263" lon="-0.66506">
        <ele>6</ele>
        <time>2017-06-25T10:03:22.999Z</time>
      </trkpt>
      <trkpt lat="45.82631" lon="-0.66508">
        <ele>6</ele>
        <time>2017-06-25T10:03:23.999Z</time>
      </trkpt>
      <trkpt lat="45.82631" lon="-0.6651">
        <ele>6</ele>
        <time>2017-06-25T10:03:25.999Z</time>
      </trkpt>
      <trkpt lat="45.82631" lon="-0.66512">
        <ele>6</ele>
        <time>2017-06-25T10:03:26.999Z</time>
      </trkpt>
      <trkpt lat="45.8263" lon="-0.66513">
        <ele>6</ele>
        <time>2017-06-25T10:03:27.999Z</time>
      </trkpt>
      <trkpt lat="45.82631" lon="-0.66515">
        <ele>6</ele>
        <time>2017-06-25T10:03:28.999Z</time>
      </trkpt>
      <trkpt lat="45.82631" lon="-0.66517">
        <ele>6</ele>
        <time>2017-06-25T10:03:29.999Z</time>
      </trkpt>
      <trkpt lat="45.82631" lon="-0.66519">
        <ele>6</ele>
        <time>2017-06-25T10:03:31.999Z</time>
      </trkpt>
      <trkpt lat="45.82631" lon="-0.66521">
        <ele>6</ele>
        <time>2017-06-25T10:03:32.999Z</time>
      </trkpt>
      <trkpt lat="45.82631" lon="-0.66522">
        <ele>6</ele>
        <time>2017-06-25T10:03:33.999Z</time>
      </trkpt>
      <trkpt lat="45.82632" lon="-0.66524">
        <ele>6</ele>
        <time>2017-06-25T10:03:34.999Z</time>
      </trkpt>
      <trkpt lat="45.82632" lon="-0.66526">
        <ele>6</ele>
        <time>2017-06-25T10:03:35.999Z</time>
      </trkpt>
      <trkpt lat="45.82632" lon="-0.66528">
        <ele>6</ele>
        <time>2017-06-25T10:03:36.999Z</time>
      </trkpt>
      <trkpt lat="45.82632" lon="-0.66531">
        <ele>6</ele>
        <time>2017-06-25T10:03:38.999Z</time>
      </trkpt>
      <trkpt lat="45.82633" lon="-0.66533">
        <ele>6</ele>
        <time>2017-06-25T10:03:39.999Z</time>
      </trkpt>
      <trkpt lat="45.82632" lon="-0.66537">
        <ele>6</ele>
        <time>2017-06-25T10:03:41.999Z</time>
      </trkpt>
      <trkpt lat="45.82633" lon="-0.6654">
        <ele>6</ele>
        <time>2017-06-25T10:03:42.999Z</time>
      </trkpt>
      <trkpt lat="45.82634" lon="-0.66542">
        <ele>6</ele>
        <time>2017-06-25T10:03:43.999Z</time>
      </trkpt>
      <trkpt lat="45.82633" lon="-0.66544">
        <ele>6</ele>
        <time>2017-06-25T10:03:44.999Z</time>
      </trkpt>
      <trkpt lat="45.82633" lon="-0.66545">
        <ele>6</ele>
        <time>2017-06-25T10:03:45.999Z</time>
      </trkpt>
      <trkpt lat="45.82632" lon="-0.66547">
        <ele>6</ele>
        <time>2017-06-25T10:03:46.999Z</time>
      </trkpt>
      <trkpt lat="45.82633" lon="-0.66549">
        <ele>6</ele>
        <time>2017-06-25T10:03:47.999Z</time>
      </trkpt>
      <trkpt lat="45.82633" lon="-0.6655">
        <ele>6</ele>
        <time>2017-06-25T10:03:48.999Z</time>
      </trkpt>
      <trkpt lat="45.82633" lon="-0.66552">
        <ele>6</ele>
        <time>2017-06-25T10:03:49.999Z</time>
      </trkpt>
      <trkpt lat="45.82633" lon="-0.66554">
        <ele>6</ele>
        <time>2017-06-25T10:03:50.999Z</time>
      </trkpt>
      <trkpt lat="45.82633" lon="-0.66555">
        <ele>6</ele>
        <time>2017-06-25T10:03:51.999Z</time>
      </trkpt>
      <trkpt lat="45.82633" lon="-0.66557">
        <ele>6</ele>
        <time>2017-06-25T10:03:52.999Z</time>
      </trkpt>
      <trkpt lat="45.82633" lon="-0.66559">
        <ele>6</ele>
        <time>2017-06-25T10:03:53.999Z</time>
      </trkpt>
      <trkpt lat="45.82633" lon="-0.6656">
        <ele>6</ele>
        <time>2017-06-25T10:03:54.999Z</time>
      </trkpt>
      <trkpt lat="45.82633" lon="-0.66562">
        <ele>6</ele>
        <time>2017-06-25T10:03:56.999Z</time>
      </trkpt>
      <trkpt lat="45.82633" lon="-0.66565">
        <ele>6</ele>
        <time>2017-06-25T10:03:58.999Z</time>
      </trkpt>
      <trkpt lat="45.82633" lon="-0.66568">
        <ele>6</ele>
        <time>2017-06-25T10:04:00.999Z</time>
      </trkpt>
      <trkpt lat="45.82633" lon="-0.66569">
        <ele>6</ele>
        <time>2017-06-25T10:04:01.999Z</time>
      </trkpt>
      <trkpt lat="45.82632" lon="-0.66571">
        <ele>6</ele>
        <time>2017-06-25T10:04:02.999Z</time>
      </trkpt>
      <trkpt lat="45.82632" lon="-0.66573">
        <ele>6</ele>
        <time>2017-06-25T10:04:03.999Z</time>
      </trkpt>
      <trkpt lat="45.82632" lon="-0.66575">
        <ele>6</ele>
        <time>2017-06-25T10:04:04.999Z</time>
      </trkpt>
      <trkpt lat="45.82632" lon="-0.66577">
        <ele>6</ele>
        <time>2017-06-25T10:04:05.999Z</time>
      </trkpt>
      <trkpt lat="45.82632" lon="-0.6658">
        <ele>6</ele>
        <time>2017-06-25T10:04:06.999Z</time>
      </trkpt>
      <trkpt lat="45.82632" lon="-0.66582">
        <ele>6</ele>
        <time>2017-06-25T10:04:07.999Z</time>
      </trkpt>
      <trkpt lat="45.82632" lon="-0.66584">
        <ele>7</ele>
        <time>2017-06-25T10:04:08.999Z</time>
      </trkpt>
      <trkpt lat="45.82631" lon="-0.66586">
        <ele>7</ele>
        <time>2017-06-25T10:04:09.999Z</time>
      </trkpt>
      <trkpt lat="45.82632" lon="-0.66588">
        <ele>7</ele>
        <time>2017-06-25T10:04:11.999Z</time>
      </trkpt>
      <trkpt lat="45.82632" lon="-0.6659">
        <ele>7</ele>
        <time>2017-06-25T10:04:12.999Z</time>
      </trkpt>
      <trkpt lat="45.82632" lon="-0.66591">
        <ele>7</ele>
        <time>2017-06-25T10:04:13.999Z</time>
      </trkpt>
      <trkpt lat="45.82632" lon="-0.66593">
        <ele>7</ele>
        <time>2017-06-25T10:04:14.999Z</time>
      </trkpt>
      <trkpt lat="45.82632" lon="-0.66595">
        <ele>7</ele>
        <time>2017-06-25T10:04:15.999Z</time>
      </trkpt>
      <trkpt lat="45.82632" lon="-0.66598">
        <ele>7</ele>
        <time>2017-06-25T10:04:16.999Z</time>
      </trkpt>
      <trkpt lat="45.82632" lon="-0.666">
        <ele>7</ele>
        <time>2017-06-25T10:04:17.999Z</time>
      </trkpt>
      <trkpt lat="45.82632" lon="-0.66602">
        <ele>7</ele>
        <time>2017-06-25T10:04:18.999Z</time>
      </trkpt>
      <trkpt lat="45.82632" lon="-0.66603">
        <ele>7</ele>
        <time>2017-06-25T10:04:19.999Z</time>
      </trkpt>
      <trkpt lat="45.82632" lon="-0.66605">
        <ele>7</ele>
        <time>2017-06-25T10:04:20.999Z</time>
      </trkpt>
      <trkpt lat="45.82633" lon="-0.66607">
        <ele>7</ele>
        <time>2017-06-25T10:04:21.999Z</time>
      </trkpt>
      <trkpt lat="45.82633" lon="-0.66608">
        <ele>7</ele>
        <time>2017-06-25T10:04:22.999Z</time>
      </trkpt>
      <trkpt lat="45.82634" lon="-0.66606">
        <ele>7</ele>
        <time>2017-06-25T10:04:27.999Z</time>
      </trkpt>
      <trkpt lat="45.82634" lon="-0.66604">
        <ele>7</ele>
        <time>2017-06-25T10:04:28.999Z</time>
      </trkpt>
      <trkpt lat="45.82635" lon="-0.66603">
        <ele>7</ele>
        <time>2017-06-25T10:04:29.999Z</time>
      </trkpt>
      <trkpt lat="45.82636" lon="-0.66601">
        <ele>7</ele>
        <time>2017-06-25T10:04:31.999Z</time>
      </trkpt>
      <trkpt lat="45.82637" lon="-0.66599">
        <ele>7</ele>
        <time>2017-06-25T10:04:33.999Z</time>
      </trkpt>
      <trkpt lat="45.82638" lon="-0.66597">
        <ele>7</ele>
        <time>2017-06-25T10:04:35.999Z</time>
      </trkpt>
      <trkpt lat="45.82639" lon="-0.66595">
        <ele>7</ele>
        <time>2017-06-25T10:04:36.999Z</time>
      </trkpt>
      <trkpt lat="45.82639" lon="-0.66593">
        <ele>7</ele>
        <time>2017-06-25T10:04:37.999Z</time>
      </trkpt>
      <trkpt lat="45.8264" lon="-0.66592">
        <ele>7</ele>
        <time>2017-06-25T10:04:38.999Z</time>
      </trkpt>
      <trkpt lat="45.82641" lon="-0.6659">
        <ele>7</ele>
        <time>2017-06-25T10:04:39.999Z</time>
      </trkpt>
      <trkpt lat="45.82641" lon="-0.66589">
        <ele>7</ele>
        <time>2017-06-25T10:04:40.999Z</time>
      </trkpt>
      <trkpt lat="45.82642" lon="-0.66587">
        <ele>7</ele>
        <time>2017-06-25T10:04:41.999Z</time>
      </trkpt>
      <trkpt lat="45.82642" lon="-0.66586">
        <ele>7</ele>
        <time>2017-06-25T10:04:42.999Z</time>
      </trkpt>
      <trkpt lat="45.82642" lon="-0.66584">
        <ele>7</ele>
        <time>2017-06-25T10:04:43.999Z</time>
      </trkpt>
      <trkpt lat="45.82643" lon="-0.66583">
        <ele>6</ele>
        <time>2017-06-25T10:04:44.999Z</time>
      </trkpt>
      <trkpt lat="45.82644" lon="-0.66581">
        <ele>6</ele>
        <time>2017-06-25T10:04:45.999Z</time>
      </trkpt>
      <trkpt lat="45.82644" lon="-0.6658">
        <ele>6</ele>
        <time>2017-06-25T10:04:46.999Z</time>
      </trkpt>
      <trkpt lat="45.82644" lon="-0.66579">
        <ele>6</ele>
        <time>2017-06-25T10:04:47.999Z</time>
      </trkpt>
      <trkpt lat="45.82645" lon="-0.66575">
        <ele>6</ele>
        <time>2017-06-25T10:04:48.999Z</time>
      </trkpt>
      <trkpt lat="45.82645" lon="-0.66572">
        <ele>6</ele>
        <time>2017-06-25T10:04:49.999Z</time>
      </trkpt>
      <trkpt lat="45.82646" lon="-0.6657">
        <ele>6</ele>
        <time>2017-06-25T10:04:50.999Z</time>
      </trkpt>
      <trkpt lat="45.82647" lon="-0.66568">
        <ele>6</ele>
        <time>2017-06-25T10:04:51.999Z</time>
      </trkpt>
      <trkpt lat="45.82647" lon="-0.66567">
        <ele>6</ele>
        <time>2017-06-25T10:04:52.999Z</time>
      </trkpt>
      <trkpt lat="45.82648" lon="-0.66565">
        <ele>6</ele>
        <time>2017-06-25T10:04:53.999Z</time>
      </trkpt>
      <trkpt lat="45.82649" lon="-0.66564">
        <ele>6</ele>
        <time>2017-06-25T10:04:54.999Z</time>
      </trkpt>
      <trkpt lat="45.8265" lon="-0.66562">
        <ele>6</ele>
        <time>2017-06-25T10:04:56.999Z</time>
      </trkpt>
      <trkpt lat="45.8265" lon="-0.66561">
        <ele>6</ele>
        <time>2017-06-25T10:04:57.999Z</time>
      </trkpt>
      <trkpt lat="45.82652" lon="-0.66559">
        <ele>6</ele>
        <time>2017-06-25T10:04:58.999Z</time>
      </trkpt>
      <trkpt lat="45.82652" lon="-0.66558">
        <ele>6</ele>
        <time>2017-06-25T10:04:59.999Z</time>
      </trkpt>
      <trkpt lat="45.82652" lon="-0.66556">
        <ele>6</ele>
        <time>2017-06-25T10:05:00.999Z</time>
      </trkpt>
      <trkpt lat="45.82653" lon="-0.66554">
        <ele>6</ele>
        <time>2017-06-25T10:05:02.999Z</time>
      </trkpt>
      <trkpt lat="45.82654" lon="-0.66555">
        <ele>6</ele>
        <time>2017-06-25T10:05:04.999Z</time>
      </trkpt>
      <trkpt lat="45.82655" lon="-0.66555">
        <ele>6</ele>
        <time>2017-06-25T10:05:05.999Z</time>
      </trkpt>
      <trkpt lat="45.82656" lon="-0.66554">
        <ele>6</ele>
        <time>2017-06-25T10:05:08.999Z</time>
      </trkpt>
      <trkpt lat="45.82657" lon="-0.66554">
        <ele>6</ele>
        <time>2017-06-25T10:05:09.999Z</time>
      </trkpt>
      <trkpt lat="45.82658" lon="-0.66554">
        <ele>6</ele>
        <time>2017-06-25T10:05:11.999Z</time>
      </trkpt>
      <trkpt lat="45.8266" lon="-0.66554">
        <ele>6</ele>
        <time>2017-06-25T10:05:13.999Z</time>
      </trkpt>
      <trkpt lat="45.82661" lon="-0.66555">
        <ele>6</ele>
        <time>2017-06-25T10:05:14.999Z</time>
      </trkpt>
      <trkpt lat="45.82662" lon="-0.66556">
        <ele>6</ele>
        <time>2017-06-25T10:05:16.999Z</time>
      </trkpt>
      <trkpt lat="45.82663" lon="-0.66556">
        <ele>6</ele>
        <time>2017-06-25T10:05:17.999Z</time>
      </trkpt>
      <trkpt lat="45.82664" lon="-0.66558">
        <ele>6</ele>
        <time>2017-06-25T10:05:18.999Z</time>
      </trkpt>
      <trkpt lat="45.82664" lon="-0.66559">
        <ele>6</ele>
        <time>2017-06-25T10:05:19.999Z</time>
      </trkpt>
      <trkpt lat="45.82665" lon="-0.66561">
        <ele>6</ele>
        <time>2017-06-25T10:05:20.999Z</time>
      </trkpt>
      <trkpt lat="45.82666" lon="-0.66562">
        <ele>6</ele>
        <time>2017-06-25T10:05:21.999Z</time>
      </trkpt>
      <trkpt lat="45.82666" lon="-0.66563">
        <ele>6</ele>
        <time>2017-06-25T10:05:22.999Z</time>
      </trkpt>
      <trkpt lat="45.82667" lon="-0.66565">
        <ele>6</ele>
        <time>2017-06-25T10:05:23.999Z</time>
      </trkpt>
      <trkpt lat="45.82669" lon="-0.66567">
        <ele>6</ele>
        <time>2017-06-25T10:05:25.999Z</time>
      </trkpt>
      <trkpt lat="45.8267" lon="-0.66568">
        <ele>6</ele>
        <time>2017-06-25T10:05:26.999Z</time>
      </trkpt>
      <trkpt lat="45.82671" lon="-0.66569">
        <ele>6</ele>
        <time>2017-06-25T10:05:27.999Z</time>
      </trkpt>
      <trkpt lat="45.82672" lon="-0.66569">
        <ele>6</ele>
        <time>2017-06-25T10:05:29.999Z</time>
      </trkpt>
      <trkpt lat="45.82673" lon="-0.66571">
        <ele>6</ele>
        <time>2017-06-25T10:05:30.999Z</time>
      </trkpt>
      <trkpt lat="45.82674" lon="-0.66571">
        <ele>6</ele>
        <time>2017-06-25T10:05:32.999Z</time>
      </trkpt>
      <trkpt lat="45.82675" lon="-0.66572">
        <ele>6</ele>
        <time>2017-06-25T10:05:33.999Z</time>
      </trkpt>
      <trkpt lat="45.82676" lon="-0.66572">
        <ele>6</ele>
        <time>2017-06-25T10:05:34.999Z</time>
      </trkpt>
      <trkpt lat="45.82678" lon="-0.66573">
        <ele>6</ele>
        <time>2017-06-25T10:05:36.999Z</time>
      </trkpt>
      <trkpt lat="45.8268" lon="-0.66574">
        <ele>6</ele>
        <time>2017-06-25T10:05:37.999Z</time>
      </trkpt>
      <trkpt lat="45.82681" lon="-0.66575">
        <ele>6</ele>
        <time>2017-06-25T10:05:38.999Z</time>
      </trkpt>
      <trkpt lat="45.82682" lon="-0.66577">
        <ele>6</ele>
        <time>2017-06-25T10:05:39.999Z</time>
      </trkpt>
      <trkpt lat="45.82683" lon="-0.66579">
        <ele>6</ele>
        <time>2017-06-25T10:05:40.999Z</time>
      </trkpt>
      <trkpt lat="45.82685" lon="-0.66581">
        <ele>6</ele>
        <time>2017-06-25T10:05:41.999Z</time>
      </trkpt>
      <trkpt lat="45.82685" lon="-0.66582">
        <ele>6</ele>
        <time>2017-06-25T10:05:42.999Z</time>
      </trkpt>
      <trkpt lat="45.82686" lon="-0.66584">
        <ele>6</ele>
        <time>2017-06-25T10:05:43.999Z</time>
      </trkpt>
      <trkpt lat="45.82688" lon="-0.66585">
        <ele>6</ele>
        <time>2017-06-25T10:05:45.999Z</time>
      </trkpt>
      <trkpt lat="45.82689" lon="-0.66587">
        <ele>6</ele>
        <time>2017-06-25T10:05:46.999Z</time>
      </trkpt>
      <trkpt lat="45.82691" lon="-0.66588">
        <ele>6</ele>
        <time>2017-06-25T10:05:47.999Z</time>
      </trkpt>
      <trkpt lat="45.82693" lon="-0.66589">
        <ele>6</ele>
        <time>2017-06-25T10:05:48.999Z</time>
      </trkpt>
      <trkpt lat="45.82694" lon="-0.66589">
        <ele>6</ele>
        <time>2017-06-25T10:05:49.999Z</time>
      </trkpt>
      <trkpt lat="45.82696" lon="-0.6659">
        <ele>6</ele>
        <time>2017-06-25T10:05:50.999Z</time>
      </trkpt>
      <trkpt lat="45.82697" lon="-0.6659">
        <ele>6</ele>
        <time>2017-06-25T10:05:51.999Z</time>
      </trkpt>
      <trkpt lat="45.82698" lon="-0.66591">
        <ele>6</ele>
        <time>2017-06-25T10:05:52.999Z</time>
      </trkpt>
      <trkpt lat="45.827" lon="-0.66591">
        <ele>6</ele>
        <time>2017-06-25T10:05:53.999Z</time>
      </trkpt>
      <trkpt lat="45.82702" lon="-0.66592">
        <ele>6</ele>
        <time>2017-06-25T10:05:54.999Z</time>
      </trkpt>
      <trkpt lat="45.82704" lon="-0.66592">
        <ele>6</ele>
        <time>2017-06-25T10:05:55.999Z</time>
      </trkpt>
      <trkpt lat="45.82705" lon="-0.66594">
        <ele>6</ele>
        <time>2017-06-25T10:05:57.999Z</time>
      </trkpt>
      <trkpt lat="45.82707" lon="-0.66595">
        <ele>6</ele>
        <time>2017-06-25T10:05:58.999Z</time>
      </trkpt>
      <trkpt lat="45.82708" lon="-0.66596">
        <ele>5</ele>
        <time>2017-06-25T10:05:59.999Z</time>
      </trkpt>
      <trkpt lat="45.8271" lon="-0.66596">
        <ele>5</ele>
        <time>2017-06-25T10:06:00.999Z</time>
      </trkpt>
      <trkpt lat="45.8271" lon="-0.66597">
        <ele>5</ele>
        <time>2017-06-25T10:06:02.999Z</time>
      </trkpt>
      <trkpt lat="45.82711" lon="-0.66597">
        <ele>5</ele>
        <time>2017-06-25T10:06:03.999Z</time>
      </trkpt>
      <trkpt lat="45.82713" lon="-0.66597">
        <ele>5</ele>
        <time>2017-06-25T10:06:05.999Z</time>
      </trkpt>
      <trkpt lat="45.82713" lon="-0.66599">
        <ele>5</ele>
        <time>2017-06-25T10:06:07.999Z</time>
      </trkpt>
      <trkpt lat="45.82714" lon="-0.666">
        <ele>5</ele>
        <time>2017-06-25T10:06:08.999Z</time>
      </trkpt>
      <trkpt lat="45.82715" lon="-0.666">
        <ele>5</ele>
        <time>2017-06-25T10:06:09.999Z</time>
      </trkpt>
      <trkpt lat="45.82717" lon="-0.66602">
        <ele>5</ele>
        <time>2017-06-25T10:06:11.999Z</time>
      </trkpt>
      <trkpt lat="45.82718" lon="-0.66602">
        <ele>5</ele>
        <time>2017-06-25T10:06:12.999Z</time>
      </trkpt>
      <trkpt lat="45.82719" lon="-0.66603">
        <ele>5</ele>
        <time>2017-06-25T10:06:13.999Z</time>
      </trkpt>
      <trkpt lat="45.82721" lon="-0.66604">
        <ele>5</ele>
        <time>2017-06-25T10:06:14.999Z</time>
      </trkpt>
      <trkpt lat="45.82723" lon="-0.66606">
        <ele>5</ele>
        <time>2017-06-25T10:06:15.999Z</time>
      </trkpt>
      <trkpt lat="45.82724" lon="-0.66606">
        <ele>5</ele>
        <time>2017-06-25T10:06:16.999Z</time>
      </trkpt>
      <trkpt lat="45.82726" lon="-0.66606">
        <ele>5</ele>
        <time>2017-06-25T10:06:18.999Z</time>
      </trkpt>
      <trkpt lat="45.82727" lon="-0.66607">
        <ele>5</ele>
        <time>2017-06-25T10:06:19.999Z</time>
      </trkpt>
      <trkpt lat="45.82728" lon="-0.66607">
        <ele>5</ele>
        <time>2017-06-25T10:06:20.999Z</time>
      </trkpt>
      <trkpt lat="45.82729" lon="-0.66608">
        <ele>5</ele>
        <time>2017-06-25T10:06:21.999Z</time>
      </trkpt>
      <trkpt lat="45.8273" lon="-0.66609">
        <ele>5</ele>
        <time>2017-06-25T10:06:22.999Z</time>
      </trkpt>
      <trkpt lat="45.82732" lon="-0.6661">
        <ele>5</ele>
        <time>2017-06-25T10:06:23.999Z</time>
      </trkpt>
      <trkpt lat="45.82734" lon="-0.66611">
        <ele>5</ele>
        <time>2017-06-25T10:06:24.999Z</time>
      </trkpt>
      <trkpt lat="45.82734" lon="-0.66612">
        <ele>5</ele>
        <time>2017-06-25T10:06:25.999Z</time>
      </trkpt>
      <trkpt lat="45.82736" lon="-0.66613">
        <ele>5</ele>
        <time>2017-06-25T10:06:26.999Z</time>
      </trkpt>
      <trkpt lat="45.82737" lon="-0.66614">
        <ele>5</ele>
        <time>2017-06-25T10:06:27.999Z</time>
      </trkpt>
      <trkpt lat="45.82739" lon="-0.66615">
        <ele>5</ele>
        <time>2017-06-25T10:06:28.999Z</time>
      </trkpt>
      <trkpt lat="45.8274" lon="-0.66616">
        <ele>5</ele>
        <time>2017-06-25T10:06:29.999Z</time>
      </trkpt>
      <trkpt lat="45.82741" lon="-0.66616">
        <ele>5</ele>
        <time>2017-06-25T10:06:30.999Z</time>
      </trkpt>
      <trkpt lat="45.82742" lon="-0.66617">
        <ele>5</ele>
        <time>2017-06-25T10:06:31.999Z</time>
      </trkpt>
      <trkpt lat="45.82743" lon="-0.66618">
        <ele>5</ele>
        <time>2017-06-25T10:06:33.999Z</time>
      </trkpt>
      <trkpt lat="45.82744" lon="-0.66619">
        <ele>5</ele>
        <time>2017-06-25T10:06:34.999Z</time>
      </trkpt>
      <trkpt lat="45.82745" lon="-0.6662">
        <ele>5</ele>
        <time>2017-06-25T10:06:35.999Z</time>
      </trkpt>
      <trkpt lat="45.82746" lon="-0.66621">
        <ele>5</ele>
        <time>2017-06-25T10:06:37.999Z</time>
      </trkpt>
      <trkpt lat="45.82747" lon="-0.66622">
        <ele>5</ele>
        <time>2017-06-25T10:06:39.999Z</time>
      </trkpt>
      <trkpt lat="45.82748" lon="-0.66623">
        <ele>5</ele>
        <time>2017-06-25T10:06:40.999Z</time>
      </trkpt>
      <trkpt lat="45.82749" lon="-0.66624">
        <ele>5</ele>
        <time>2017-06-25T10:06:41.999Z</time>
      </trkpt>
      <trkpt lat="45.8275" lon="-0.66626">
        <ele>5</ele>
        <time>2017-06-25T10:06:42.999Z</time>
      </trkpt>
      <trkpt lat="45.82751" lon="-0.66627">
        <ele>5</ele>
        <time>2017-06-25T10:06:43.999Z</time>
      </trkpt>
      <trkpt lat="45.82752" lon="-0.66628">
        <ele>5</ele>
        <time>2017-06-25T10:06:44.999Z</time>
      </trkpt>
      <trkpt lat="45.82753" lon="-0.6663">
        <ele>5</ele>
        <time>2017-06-25T10:06:46.999Z</time>
      </trkpt>
      <trkpt lat="45.82755" lon="-0.66631">
        <ele>5</ele>
        <time>2017-06-25T10:06:48.999Z</time>
      </trkpt>
      <trkpt lat="45.82756" lon="-0.66633">
        <ele>5</ele>
        <time>2017-06-25T10:06:49.999Z</time>
      </trkpt>
      <trkpt lat="45.82758" lon="-0.66634">
        <ele>5</ele>
        <time>2017-06-25T10:06:50.999Z</time>
      </trkpt>
      <trkpt lat="45.8276" lon="-0.66634">
        <ele>5</ele>
        <time>2017-06-25T10:06:51.999Z</time>
      </trkpt>
      <trkpt lat="45.82761" lon="-0.66635">
        <ele>5</ele>
        <time>2017-06-25T10:06:52.999Z</time>
      </trkpt>
      <trkpt lat="45.82763" lon="-0.66636">
        <ele>5</ele>
        <time>2017-06-25T10:06:53.999Z</time>
      </trkpt>
      <trkpt lat="45.82763" lon="-0.66637">
        <ele>5</ele>
        <time>2017-06-25T10:06:54.999Z</time>
      </trkpt>
      <trkpt lat="45.82764" lon="-0.66638">
        <ele>5</ele>
        <time>2017-06-25T10:06:55.999Z</time>
      </trkpt>
      <trkpt lat="45.82766" lon="-0.66638">
        <ele>5</ele>
        <time>2017-06-25T10:06:56.999Z</time>
      </trkpt>
      <trkpt lat="45.82767" lon="-0.66639">
        <ele>5</ele>
        <time>2017-06-25T10:06:58.999Z</time>
      </trkpt>
      <trkpt lat="45.82768" lon="-0.66639">
        <ele>5</ele>
        <time>2017-06-25T10:06:59.999Z</time>
      </trkpt>
      <trkpt lat="45.8277" lon="-0.6664">
        <ele>5</ele>
        <time>2017-06-25T10:07:00.999Z</time>
      </trkpt>
      <trkpt lat="45.82771" lon="-0.66641">
        <ele>5</ele>
        <time>2017-06-25T10:07:01.999Z</time>
      </trkpt>
      <trkpt lat="45.82773" lon="-0.66642">
        <ele>5</ele>
        <time>2017-06-25T10:07:02.999Z</time>
      </trkpt>
      <trkpt lat="45.82775" lon="-0.66643">
        <ele>5</ele>
        <time>2017-06-25T10:07:03.999Z</time>
      </trkpt>
      <trkpt lat="45.82776" lon="-0.66643">
        <ele>5</ele>
        <time>2017-06-25T10:07:04.999Z</time>
      </trkpt>
      <trkpt lat="45.82777" lon="-0.66645">
        <ele>5</ele>
        <time>2017-06-25T10:07:05.999Z</time>
      </trkpt>
      <trkpt lat="45.82778" lon="-0.66646">
        <ele>5</ele>
        <time>2017-06-25T10:07:06.999Z</time>
      </trkpt>
      <trkpt lat="45.82779" lon="-0.66647">
        <ele>5</ele>
        <time>2017-06-25T10:07:07.999Z</time>
      </trkpt>
      <trkpt lat="45.82781" lon="-0.66649">
        <ele>5</ele>
        <time>2017-06-25T10:07:09.999Z</time>
      </trkpt>
      <trkpt lat="45.82782" lon="-0.6665">
        <ele>5</ele>
        <time>2017-06-25T10:07:10.999Z</time>
      </trkpt>
      <trkpt lat="45.82783" lon="-0.66651">
        <ele>5</ele>
        <time>2017-06-25T10:07:11.999Z</time>
      </trkpt>
      <trkpt lat="45.82784" lon="-0.66652">
        <ele>5</ele>
        <time>2017-06-25T10:07:12.999Z</time>
      </trkpt>
      <trkpt lat="45.82785" lon="-0.66653">
        <ele>5</ele>
        <time>2017-06-25T10:07:13.999Z</time>
      </trkpt>
      <trkpt lat="45.82786" lon="-0.66654">
        <ele>5</ele>
        <time>2017-06-25T10:07:14.999Z</time>
      </trkpt>
      <trkpt lat="45.82788" lon="-0.66655">
        <ele>5</ele>
        <time>2017-06-25T10:07:15.999Z</time>
      </trkpt>
      <trkpt lat="45.82789" lon="-0.66656">
        <ele>5</ele>
        <time>2017-06-25T10:07:17.999Z</time>
      </trkpt>
      <trkpt lat="45.8279" lon="-0.66657">
        <ele>5</ele>
        <time>2017-06-25T10:07:18.999Z</time>
      </trkpt>
      <trkpt lat="45.82792" lon="-0.66658">
        <ele>5</ele>
        <time>2017-06-25T10:07:19.999Z</time>
      </trkpt>
      <trkpt lat="45.82793" lon="-0.66659">
        <ele>5</ele>
        <time>2017-06-25T10:07:20.999Z</time>
      </trkpt>
      <trkpt lat="45.82794" lon="-0.6666">
        <ele>5</ele>
        <time>2017-06-25T10:07:21.999Z</time>
      </trkpt>
      <trkpt lat="45.82795" lon="-0.66662">
        <ele>5</ele>
        <time>2017-06-25T10:07:22.999Z</time>
      </trkpt>
      <trkpt lat="45.82796" lon="-0.66662">
        <ele>5</ele>
        <time>2017-06-25T10:07:23.999Z</time>
      </trkpt>
      <trkpt lat="45.82797" lon="-0.66663">
        <ele>5</ele>
        <time>2017-06-25T10:07:24.999Z</time>
      </trkpt>
      <trkpt lat="45.82798" lon="-0.66664">
        <ele>5</ele>
        <time>2017-06-25T10:07:25.999Z</time>
      </trkpt>
      <trkpt lat="45.82799" lon="-0.66665">
        <ele>5</ele>
        <time>2017-06-25T10:07:26.999Z</time>
      </trkpt>
      <trkpt lat="45.828" lon="-0.66666">
        <ele>5</ele>
        <time>2017-06-25T10:07:27.999Z</time>
      </trkpt>
      <trkpt lat="45.82801" lon="-0.66668">
        <ele>4</ele>
        <time>2017-06-25T10:07:29.999Z</time>
      </trkpt>
      <trkpt lat="45.82802" lon="-0.66669">
        <ele>4</ele>
        <time>2017-06-25T10:07:30.999Z</time>
      </trkpt>
      <trkpt lat="45.82803" lon="-0.6667">
        <ele>4</ele>
        <time>2017-06-25T10:07:31.999Z</time>
      </trkpt>
      <trkpt lat="45.82804" lon="-0.6667">
        <ele>4</ele>
        <time>2017-06-25T10:07:32.999Z</time>
      </trkpt>
      <trkpt lat="45.82805" lon="-0.66671">
        <ele>4</ele>
        <time>2017-06-25T10:07:33.999Z</time>
      </trkpt>
      <trkpt lat="45.82806" lon="-0.66672">
        <ele>4</ele>
        <time>2017-06-25T10:07:34.999Z</time>
      </trkpt>
      <trkpt lat="45.82807" lon="-0.66672">
        <ele>4</ele>
        <time>2017-06-25T10:07:35.999Z</time>
      </trkpt>
      <trkpt lat="45.82808" lon="-0.66674">
        <ele>4</ele>
        <time>2017-06-25T10:07:37.999Z</time>
      </trkpt>
      <trkpt lat="45.82809" lon="-0.66676">
        <ele>4</ele>
        <time>2017-06-25T10:07:38.999Z</time>
      </trkpt>
      <trkpt lat="45.82811" lon="-0.66677">
        <ele>4</ele>
        <time>2017-06-25T10:07:40.999Z</time>
      </trkpt>
      <trkpt lat="45.82812" lon="-0.66678">
        <ele>4</ele>
        <time>2017-06-25T10:07:41.999Z</time>
      </trkpt>
      <trkpt lat="45.82813" lon="-0.66679">
        <ele>4</ele>
        <time>2017-06-25T10:07:42.999Z</time>
      </trkpt>
      <trkpt lat="45.82814" lon="-0.6668">
        <ele>4</ele>
        <time>2017-06-25T10:07:43.999Z</time>
      </trkpt>
      <trkpt lat="45.82814" lon="-0.66681">
        <ele>4</ele>
        <time>2017-06-25T10:07:44.999Z</time>
      </trkpt>
      <trkpt lat="45.82815" lon="-0.66681">
        <ele>4</ele>
        <time>2017-06-25T10:07:46.999Z</time>
      </trkpt>
      <trkpt lat="45.82816" lon="-0.66682">
        <ele>4</ele>
        <time>2017-06-25T10:07:47.999Z</time>
      </trkpt>
      <trkpt lat="45.82817" lon="-0.66683">
        <ele>4</ele>
        <time>2017-06-25T10:07:48.999Z</time>
      </trkpt>
      <trkpt lat="45.82818" lon="-0.66684">
        <ele>4</ele>
        <time>2017-06-25T10:07:49.999Z</time>
      </trkpt>
      <trkpt lat="45.82819" lon="-0.66685">
        <ele>4</ele>
        <time>2017-06-25T10:07:50.999Z</time>
      </trkpt>
      <trkpt lat="45.82821" lon="-0.66686">
        <ele>4</ele>
        <time>2017-06-25T10:07:51.999Z</time>
      </trkpt>
      <trkpt lat="45.82822" lon="-0.66687">
        <ele>4</ele>
        <time>2017-06-25T10:07:53.999Z</time>
      </trkpt>
      <trkpt lat="45.82824" lon="-0.66689">
        <ele>4</ele>
        <time>2017-06-25T10:07:54.999Z</time>
      </trkpt>
      <trkpt lat="45.82826" lon="-0.66691">
        <ele>4</ele>
        <time>2017-06-25T10:07:55.999Z</time>
      </trkpt>
      <trkpt lat="45.82827" lon="-0.66692">
        <ele>4</ele>
        <time>2017-06-25T10:07:56.999Z</time>
      </trkpt>
      <trkpt lat="45.82828" lon="-0.66693">
        <ele>4</ele>
        <time>2017-06-25T10:07:57.999Z</time>
      </trkpt>
      <trkpt lat="45.82829" lon="-0.66694">
        <ele>4</ele>
        <time>2017-06-25T10:07:58.999Z</time>
      </trkpt>
      <trkpt lat="45.8283" lon="-0.66694">
        <ele>4</ele>
        <time>2017-06-25T10:07:59.999Z</time>
      </trkpt>
      <trkpt lat="45.82831" lon="-0.66695">
        <ele>4</ele>
        <time>2017-06-25T10:08:00.999Z</time>
      </trkpt>
      <trkpt lat="45.82832" lon="-0.66696">
        <ele>4</ele>
        <time>2017-06-25T10:08:01.999Z</time>
      </trkpt>
      <trkpt lat="45.82834" lon="-0.66697">
        <ele>3</ele>
        <time>2017-06-25T10:08:02.999Z</time>
      </trkpt>
      <trkpt lat="45.82834" lon="-0.66698">
        <ele>3</ele>
        <time>2017-06-25T10:08:03.999Z</time>
      </trkpt>
      <trkpt lat="45.82835" lon="-0.66699">
        <ele>3</ele>
        <time>2017-06-25T10:08:04.999Z</time>
      </trkpt>
      <trkpt lat="45.82837" lon="-0.667">
        <ele>3</ele>
        <time>2017-06-25T10:08:05.999Z</time>
      </trkpt>
      <trkpt lat="45.82838" lon="-0.66701">
        <ele>3</ele>
        <time>2017-06-25T10:08:06.999Z</time>
      </trkpt>
      <trkpt lat="45.82838" lon="-0.66702">
        <ele>3</ele>
        <time>2017-06-25T10:08:07.999Z</time>
      </trkpt>
      <trkpt lat="45.8284" lon="-0.66702">
        <ele>3</ele>
        <time>2017-06-25T10:08:08.999Z</time>
      </trkpt>
      <trkpt lat="45.8284" lon="-0.66703">
        <ele>3</ele>
        <time>2017-06-25T10:08:09.999Z</time>
      </trkpt>
      <trkpt lat="45.82842" lon="-0.66703">
        <ele>3</ele>
        <time>2017-06-25T10:08:10.999Z</time>
      </trkpt>
      <trkpt lat="45.82843" lon="-0.66704">
        <ele>3</ele>
        <time>2017-06-25T10:08:11.999Z</time>
      </trkpt>
      <trkpt lat="45.82844" lon="-0.66705">
        <ele>3</ele>
        <time>2017-06-25T10:08:12.999Z</time>
      </trkpt>
      <trkpt lat="45.82846" lon="-0.66706">
        <ele>3</ele>
        <time>2017-06-25T10:08:13.999Z</time>
      </trkpt>
      <trkpt lat="45.82847" lon="-0.66707">
        <ele>3</ele>
        <time>2017-06-25T10:08:14.999Z</time>
      </trkpt>
      <trkpt lat="45.8285" lon="-0.66708">
        <ele>3</ele>
        <time>2017-06-25T10:08:16.999Z</time>
      </trkpt>
      <trkpt lat="45.8285" lon="-0.66709">
        <ele>3</ele>
        <time>2017-06-25T10:08:17.999Z</time>
      </trkpt>
      <trkpt lat="45.82851" lon="-0.6671">
        <ele>3</ele>
        <time>2017-06-25T10:08:18.999Z</time>
      </trkpt>
      <trkpt lat="45.82853" lon="-0.66711">
        <ele>3</ele>
        <time>2017-06-25T10:08:19.999Z</time>
      </trkpt>
      <trkpt lat="45.82854" lon="-0.66712">
        <ele>3</ele>
        <time>2017-06-25T10:08:20.999Z</time>
      </trkpt>
      <trkpt lat="45.82855" lon="-0.66713">
        <ele>3</ele>
        <time>2017-06-25T10:08:21.999Z</time>
      </trkpt>
      <trkpt lat="45.82857" lon="-0.66714">
        <ele>3</ele>
        <time>2017-06-25T10:08:23.999Z</time>
      </trkpt>
      <trkpt lat="45.82858" lon="-0.66715">
        <ele>3</ele>
        <time>2017-06-25T10:08:24.999Z</time>
      </trkpt>
      <trkpt lat="45.82859" lon="-0.66716">
        <ele>3</ele>
        <time>2017-06-25T10:08:25.999Z</time>
      </trkpt>
      <trkpt lat="45.8286" lon="-0.66717">
        <ele>3</ele>
        <time>2017-06-25T10:08:26.999Z</time>
      </trkpt>
      <trkpt lat="45.82861" lon="-0.66717">
        <ele>3</ele>
        <time>2017-06-25T10:08:27.999Z</time>
      </trkpt>
      <trkpt lat="45.82862" lon="-0.66718">
        <ele>3</ele>
        <time>2017-06-25T10:08:28.999Z</time>
      </trkpt>
      <trkpt lat="45.82863" lon="-0.66719">
        <ele>3</ele>
        <time>2017-06-25T10:08:29.999Z</time>
      </trkpt>
      <trkpt lat="45.82864" lon="-0.6672">
        <ele>3</ele>
        <time>2017-06-25T10:08:30.999Z</time>
      </trkpt>
      <trkpt lat="45.82865" lon="-0.66721">
        <ele>3</ele>
        <time>2017-06-25T10:08:31.999Z</time>
      </trkpt>
      <trkpt lat="45.82866" lon="-0.66721">
        <ele>3</ele>
        <time>2017-06-25T10:08:32.999Z</time>
      </trkpt>
      <trkpt lat="45.82867" lon="-0.66722">
        <ele>3</ele>
        <time>2017-06-25T10:08:33.999Z</time>
      </trkpt>
      <trkpt lat="45.82867" lon="-0.66723">
        <ele>3</ele>
        <time>2017-06-25T10:08:34.999Z</time>
      </trkpt>
      <trkpt lat="45.82868" lon="-0.66724">
        <ele>3</ele>
        <time>2017-06-25T10:08:35.999Z</time>
      </trkpt>
      <trkpt lat="45.8287" lon="-0.66725">
        <ele>3</ele>
        <time>2017-06-25T10:08:36.999Z</time>
      </trkpt>
      <trkpt lat="45.82871" lon="-0.66726">
        <ele>3</ele>
        <time>2017-06-25T10:08:37.999Z</time>
      </trkpt>
      <trkpt lat="45.82872" lon="-0.66727">
        <ele>3</ele>
        <time>2017-06-25T10:08:38.999Z</time>
      </trkpt>
      <trkpt lat="45.82874" lon="-0.66728">
        <ele>3</ele>
        <time>2017-06-25T10:08:39.999Z</time>
      </trkpt>
      <trkpt lat="45.82874" lon="-0.66729">
        <ele>3</ele>
        <time>2017-06-25T10:08:40.999Z</time>
      </trkpt>
      <trkpt lat="45.82875" lon="-0.6673">
        <ele>3</ele>
        <time>2017-06-25T10:08:41.999Z</time>
      </trkpt>
      <trkpt lat="45.82877" lon="-0.66731">
        <ele>3</ele>
        <time>2017-06-25T10:08:43.999Z</time>
      </trkpt>
      <trkpt lat="45.82878" lon="-0.66732">
        <ele>3</ele>
        <time>2017-06-25T10:08:44.999Z</time>
      </trkpt>
      <trkpt lat="45.82879" lon="-0.66733">
        <ele>3</ele>
        <time>2017-06-25T10:08:45.999Z</time>
      </trkpt>
      <trkpt lat="45.8288" lon="-0.66733">
        <ele>3</ele>
        <time>2017-06-25T10:08:46.999Z</time>
      </trkpt>
      <trkpt lat="45.82881" lon="-0.66734">
        <ele>3</ele>
        <time>2017-06-25T10:08:47.999Z</time>
      </trkpt>
      <trkpt lat="45.82882" lon="-0.66735">
        <ele>3</ele>
        <time>2017-06-25T10:08:48.999Z</time>
      </trkpt>
      <trkpt lat="45.82884" lon="-0.66736">
        <ele>3</ele>
        <time>2017-06-25T10:08:49.999Z</time>
      </trkpt>
      <trkpt lat="45.82884" lon="-0.66737">
        <ele>3</ele>
        <time>2017-06-25T10:08:50.999Z</time>
      </trkpt>
      <trkpt lat="45.82885" lon="-0.66738">
        <ele>3</ele>
        <time>2017-06-25T10:08:51.999Z</time>
      </trkpt>
      <trkpt lat="45.82886" lon="-0.66739">
        <ele>3</ele>
        <time>2017-06-25T10:08:52.999Z</time>
      </trkpt>
      <trkpt lat="45.82887" lon="-0.6674">
        <ele>3</ele>
        <time>2017-06-25T10:08:53.999Z</time>
      </trkpt>
      <trkpt lat="45.82887" lon="-0.6674">
        <ele>3</ele>
        <time>2017-06-25T10:08:54.999Z</time>
      </trkpt>
      <trkpt lat="45.82889" lon="-0.66741">
        <ele>3</ele>
        <time>2017-06-25T10:08:55.999Z</time>
      </trkpt>
      <trkpt lat="45.8289" lon="-0.66743">
        <ele>3</ele>
        <time>2017-06-25T10:08:56.999Z</time>
      </trkpt>
      <trkpt lat="45.82891" lon="-0.66744">
        <ele>3</ele>
        <time>2017-06-25T10:08:57.999Z</time>
      </trkpt>
      <trkpt lat="45.82892" lon="-0.66744">
        <ele>3</ele>
        <time>2017-06-25T10:08:58.999Z</time>
      </trkpt>
      <trkpt lat="45.82893" lon="-0.66745">
        <ele>3</ele>
        <time>2017-06-25T10:08:59.999Z</time>
      </trkpt>
      <trkpt lat="45.82894" lon="-0.66746">
        <ele>3</ele>
        <time>2017-06-25T10:09:00.999Z</time>
      </trkpt>
      <trkpt lat="45.82896" lon="-0.66747">
        <ele>3</ele>
        <time>2017-06-25T10:09:01.999Z</time>
      </trkpt>
      <trkpt lat="45.82897" lon="-0.66748">
        <ele>3</ele>
        <time>2017-06-25T10:09:02.999Z</time>
      </trkpt>
      <trkpt lat="45.82898" lon="-0.66749">
        <ele>3</ele>
        <time>2017-06-25T10:09:03.999Z</time>
      </trkpt>
      <trkpt lat="45.82899" lon="-0.66751">
        <ele>3</ele>
        <time>2017-06-25T10:09:04.999Z</time>
      </trkpt>
      <trkpt lat="45.829" lon="-0.66751">
        <ele>3</ele>
        <time>2017-06-25T10:09:05.999Z</time>
      </trkpt>
      <trkpt lat="45.82901" lon="-0.66752">
        <ele>3</ele>
        <time>2017-06-25T10:09:06.999Z</time>
      </trkpt>
      <trkpt lat="45.82902" lon="-0.66753">
        <ele>3</ele>
        <time>2017-06-25T10:09:08.999Z</time>
      </trkpt>
      <trkpt lat="45.82904" lon="-0.66755">
        <ele>3</ele>
        <time>2017-06-25T10:09:10.999Z</time>
      </trkpt>
      <trkpt lat="45.82905" lon="-0.66755">
        <ele>3</ele>
        <time>2017-06-25T10:09:11.999Z</time>
      </trkpt>
      <trkpt lat="45.82906" lon="-0.66756">
        <ele>3</ele>
        <time>2017-06-25T10:09:12.999Z</time>
      </trkpt>
      <trkpt lat="45.82906" lon="-0.66757">
        <ele>3</ele>
        <time>2017-06-25T10:09:13.999Z</time>
      </trkpt>
      <trkpt lat="45.82908" lon="-0.66758">
        <ele>3</ele>
        <time>2017-06-25T10:09:15.999Z</time>
      </trkpt>
      <trkpt lat="45.82909" lon="-0.6676">
        <ele>3</ele>
        <time>2017-06-25T10:09:17.999Z</time>
      </trkpt>
      <trkpt lat="45.8291" lon="-0.66761">
        <ele>3</ele>
        <time>2017-06-25T10:09:19.999Z</time>
      </trkpt>
      <trkpt lat="45.82911" lon="-0.66763">
        <ele>3</ele>
        <time>2017-06-25T10:09:21.999Z</time>
      </trkpt>
      <trkpt lat="45.82912" lon="-0.66764">
        <ele>3</ele>
        <time>2017-06-25T10:09:22.999Z</time>
      </trkpt>
      <trkpt lat="45.82914" lon="-0.66765">
        <ele>3</ele>
        <time>2017-06-25T10:09:24.999Z</time>
      </trkpt>
      <trkpt lat="45.82914" lon="-0.66766">
        <ele>3</ele>
        <time>2017-06-25T10:09:25.999Z</time>
      </trkpt>
      <trkpt lat="45.82916" lon="-0.66768">
        <ele>3</ele>
        <time>2017-06-25T10:09:27.999Z</time>
      </trkpt>
      <trkpt lat="45.82917" lon="-0.66769">
        <ele>3</ele>
        <time>2017-06-25T10:09:29.999Z</time>
      </trkpt>
      <trkpt lat="45.82917" lon="-0.66771">
        <ele>3</ele>
        <time>2017-06-25T10:09:30.999Z</time>
      </trkpt>
      <trkpt lat="45.82918" lon="-0.66772">
        <ele>3</ele>
        <time>2017-06-25T10:09:31.999Z</time>
      </trkpt>
      <trkpt lat="45.82919" lon="-0.66773">
        <ele>3</ele>
        <time>2017-06-25T10:09:32.999Z</time>
      </trkpt>
      <trkpt lat="45.8292" lon="-0.66773">
        <ele>3</ele>
        <time>2017-06-25T10:09:33.999Z</time>
      </trkpt>
      <trkpt lat="45.82921" lon="-0.66774">
        <ele>3</ele>
        <time>2017-06-25T10:09:34.999Z</time>
      </trkpt>
      <trkpt lat="45.82922" lon="-0.66775">
        <ele>3</ele>
        <time>2017-06-25T10:09:35.999Z</time>
      </trkpt>
      <trkpt lat="45.82924" lon="-0.66775">
        <ele>3</ele>
        <time>2017-06-25T10:09:36.999Z</time>
      </trkpt>
      <trkpt lat="45.82925" lon="-0.66776">
        <ele>3</ele>
        <time>2017-06-25T10:09:37.999Z</time>
      </trkpt>
      <trkpt lat="45.82926" lon="-0.66776">
        <ele>3</ele>
        <time>2017-06-25T10:09:38.999Z</time>
      </trkpt>
      <trkpt lat="45.82927" lon="-0.66777">
        <ele>3</ele>
        <time>2017-06-25T10:09:39.999Z</time>
      </trkpt>
      <trkpt lat="45.82929" lon="-0.66778">
        <ele>4</ele>
        <time>2017-06-25T10:09:40.999Z</time>
      </trkpt>
      <trkpt lat="45.8293" lon="-0.6678">
        <ele>4</ele>
        <time>2017-06-25T10:09:41.999Z</time>
      </trkpt>
      <trkpt lat="45.82931" lon="-0.6678">
        <ele>4</ele>
        <time>2017-06-25T10:09:42.999Z</time>
      </trkpt>
      <trkpt lat="45.82932" lon="-0.66781">
        <ele>4</ele>
        <time>2017-06-25T10:09:43.999Z</time>
      </trkpt>
      <trkpt lat="45.82933" lon="-0.66782">
        <ele>4</ele>
        <time>2017-06-25T10:09:45.999Z</time>
      </trkpt>
      <trkpt lat="45.82935" lon="-0.66783">
        <ele>4</ele>
        <time>2017-06-25T10:09:47.999Z</time>
      </trkpt>
      <trkpt lat="45.82937" lon="-0.66784">
        <ele>4</ele>
        <time>2017-06-25T10:09:48.999Z</time>
      </trkpt>
      <trkpt lat="45.82938" lon="-0.66785">
        <ele>4</ele>
        <time>2017-06-25T10:09:49.999Z</time>
      </trkpt>
      <trkpt lat="45.82939" lon="-0.66786">
        <ele>4</ele>
        <time>2017-06-25T10:09:50.999Z</time>
      </trkpt>
      <trkpt lat="45.82941" lon="-0.66787">
        <ele>4</ele>
        <time>2017-06-25T10:09:51.999Z</time>
      </trkpt>
      <trkpt lat="45.82942" lon="-0.66787">
        <ele>4</ele>
        <time>2017-06-25T10:09:52.999Z</time>
      </trkpt>
      <trkpt lat="45.82943" lon="-0.66788">
        <ele>4</ele>
        <time>2017-06-25T10:09:53.999Z</time>
      </trkpt>
      <trkpt lat="45.82944" lon="-0.66788">
        <ele>4</ele>
        <time>2017-06-25T10:09:54.999Z</time>
      </trkpt>
      <trkpt lat="45.82945" lon="-0.66789">
        <ele>4</ele>
        <time>2017-06-25T10:09:55.999Z</time>
      </trkpt>
      <trkpt lat="45.82946" lon="-0.6679">
        <ele>4</ele>
        <time>2017-06-25T10:09:56.999Z</time>
      </trkpt>
      <trkpt lat="45.82947" lon="-0.6679">
        <ele>4</ele>
        <time>2017-06-25T10:09:57.999Z</time>
      </trkpt>
      <trkpt lat="45.82949" lon="-0.66791">
        <ele>4</ele>
        <time>2017-06-25T10:09:58.999Z</time>
      </trkpt>
      <trkpt lat="45.8295" lon="-0.66791">
        <ele>4</ele>
        <time>2017-06-25T10:09:59.999Z</time>
      </trkpt>
      <trkpt lat="45.82951" lon="-0.66792">
        <ele>4</ele>
        <time>2017-06-25T10:10:00.999Z</time>
      </trkpt>
      <trkpt lat="45.82952" lon="-0.66793">
        <ele>4</ele>
        <time>2017-06-25T10:10:01.999Z</time>
      </trkpt>
      <trkpt lat="45.82953" lon="-0.66796">
        <ele>4</ele>
        <time>2017-06-25T10:10:03.999Z</time>
      </trkpt>
      <trkpt lat="45.82954" lon="-0.66797">
        <ele>4</ele>
        <time>2017-06-25T10:10:04.999Z</time>
      </trkpt>
      <trkpt lat="45.82955" lon="-0.66798">
        <ele>4</ele>
        <time>2017-06-25T10:10:05.999Z</time>
      </trkpt>
      <trkpt lat="45.82955" lon="-0.66801">
        <ele>4</ele>
        <time>2017-06-25T10:10:06.999Z</time>
      </trkpt>
      <trkpt lat="45.82955" lon="-0.66802">
        <ele>4</ele>
        <time>2017-06-25T10:10:07.999Z</time>
      </trkpt>
      <trkpt lat="45.82954" lon="-0.66804">
        <ele>4</ele>
        <time>2017-06-25T10:10:08.999Z</time>
      </trkpt>
      <trkpt lat="45.82954" lon="-0.66805">
        <ele>4</ele>
        <time>2017-06-25T10:10:09.999Z</time>
      </trkpt>
      <trkpt lat="45.82953" lon="-0.66807">
        <ele>4</ele>
        <time>2017-06-25T10:10:10.999Z</time>
      </trkpt>
      <trkpt lat="45.82953" lon="-0.66809">
        <ele>4</ele>
        <time>2017-06-25T10:10:11.999Z</time>
      </trkpt>
      <trkpt lat="45.82951" lon="-0.6681">
        <ele>4</ele>
        <time>2017-06-25T10:10:12.999Z</time>
      </trkpt>
      <trkpt lat="45.82951" lon="-0.66812">
        <ele>4</ele>
        <time>2017-06-25T10:10:13.999Z</time>
      </trkpt>
      <trkpt lat="45.82948" lon="-0.66814">
        <ele>4</ele>
        <time>2017-06-25T10:10:15.999Z</time>
      </trkpt>
      <trkpt lat="45.82948" lon="-0.66815">
        <ele>4</ele>
        <time>2017-06-25T10:10:16.999Z</time>
      </trkpt>
      <trkpt lat="45.82947" lon="-0.66816">
        <ele>4</ele>
        <time>2017-06-25T10:10:17.999Z</time>
      </trkpt>
      <trkpt lat="45.82946" lon="-0.66817">
        <ele>4</ele>
        <time>2017-06-25T10:10:18.999Z</time>
      </trkpt>
      <trkpt lat="45.82944" lon="-0.66818">
        <ele>4</ele>
        <time>2017-06-25T10:10:19.999Z</time>
      </trkpt>
      <trkpt lat="45.82944" lon="-0.6682">
        <ele>4</ele>
        <time>2017-06-25T10:10:20.999Z</time>
      </trkpt>
      <trkpt lat="45.82943" lon="-0.66821">
        <ele>4</ele>
        <time>2017-06-25T10:10:21.999Z</time>
      </trkpt>
      <trkpt lat="45.82942" lon="-0.66822">
        <ele>4</ele>
        <time>2017-06-25T10:10:22.999Z</time>
      </trkpt>
      <trkpt lat="45.82941" lon="-0.66823">
        <ele>4</ele>
        <time>2017-06-25T10:10:23.999Z</time>
      </trkpt>
      <trkpt lat="45.8294" lon="-0.66825">
        <ele>4</ele>
        <time>2017-06-25T10:10:24.999Z</time>
      </trkpt>
      <trkpt lat="45.82939" lon="-0.66827">
        <ele>4</ele>
        <time>2017-06-25T10:10:25.999Z</time>
      </trkpt>
      <trkpt lat="45.82939" lon="-0.66828">
        <ele>4</ele>
        <time>2017-06-25T10:10:26.999Z</time>
      </trkpt>
      <trkpt lat="45.82938" lon="-0.66829">
        <ele>4</ele>
        <time>2017-06-25T10:10:27.999Z</time>
      </trkpt>
      <trkpt lat="45.82938" lon="-0.66831">
        <ele>4</ele>
        <time>2017-06-25T10:10:28.999Z</time>
      </trkpt>
      <trkpt lat="45.82937" lon="-0.66833">
        <ele>4</ele>
        <time>2017-06-25T10:10:29.999Z</time>
      </trkpt>
      <trkpt lat="45.82937" lon="-0.66835">
        <ele>5</ele>
        <time>2017-06-25T10:10:30.999Z</time>
      </trkpt>
      <trkpt lat="45.82937" lon="-0.66838">
        <ele>5</ele>
        <time>2017-06-25T10:10:31.999Z</time>
      </trkpt>
      <trkpt lat="45.82937" lon="-0.66841">
        <ele>5</ele>
        <time>2017-06-25T10:10:32.999Z</time>
      </trkpt>
      <trkpt lat="45.82937" lon="-0.66842">
        <ele>5</ele>
        <time>2017-06-25T10:10:33.999Z</time>
      </trkpt>
      <trkpt lat="45.82936" lon="-0.66844">
        <ele>5</ele>
        <time>2017-06-25T10:10:34.999Z</time>
      </trkpt>
      <trkpt lat="45.82935" lon="-0.66846">
        <ele>5</ele>
        <time>2017-06-25T10:10:35.999Z</time>
      </trkpt>
      <trkpt lat="45.82934" lon="-0.66847">
        <ele>5</ele>
        <time>2017-06-25T10:10:36.999Z</time>
      </trkpt>
      <trkpt lat="45.82932" lon="-0.66849">
        <ele>5</ele>
        <time>2017-06-25T10:10:38.999Z</time>
      </trkpt>
      <trkpt lat="45.82932" lon="-0.6685">
        <ele>5</ele>
        <time>2017-06-25T10:10:39.999Z</time>
      </trkpt>
      <trkpt lat="45.82931" lon="-0.66852">
        <ele>5</ele>
        <time>2017-06-25T10:10:41.999Z</time>
      </trkpt>
      <trkpt lat="45.8293" lon="-0.66853">
        <ele>5</ele>
        <time>2017-06-25T10:10:42.999Z</time>
      </trkpt>
      <trkpt lat="45.82929" lon="-0.66855">
        <ele>5</ele>
        <time>2017-06-25T10:10:43.999Z</time>
      </trkpt>
      <trkpt lat="45.82929" lon="-0.66857">
        <ele>5</ele>
        <time>2017-06-25T10:10:44.999Z</time>
      </trkpt>
      <trkpt lat="45.82928" lon="-0.66859">
        <ele>5</ele>
        <time>2017-06-25T10:10:45.999Z</time>
      </trkpt>
      <trkpt lat="45.82927" lon="-0.6686">
        <ele>5</ele>
        <time>2017-06-25T10:10:46.999Z</time>
      </trkpt>
      <trkpt lat="45.82927" lon="-0.66862">
        <ele>5</ele>
        <time>2017-06-25T10:10:47.999Z</time>
      </trkpt>
      <trkpt lat="45.82926" lon="-0.66863">
        <ele>5</ele>
        <time>2017-06-25T10:10:48.999Z</time>
      </trkpt>
      <trkpt lat="45.82926" lon="-0.66866">
        <ele>5</ele>
        <time>2017-06-25T10:10:50.999Z</time>
      </trkpt>
      <trkpt lat="45.82925" lon="-0.66867">
        <ele>5</ele>
        <time>2017-06-25T10:10:51.999Z</time>
      </trkpt>
      <trkpt lat="45.82925" lon="-0.66869">
        <ele>5</ele>
        <time>2017-06-25T10:10:52.999Z</time>
      </trkpt>
      <trkpt lat="45.82924" lon="-0.66872">
        <ele>5</ele>
        <time>2017-06-25T10:10:54.999Z</time>
      </trkpt>
      <trkpt lat="45.82924" lon="-0.66875">
        <ele>5</ele>
        <time>2017-06-25T10:10:56.999Z</time>
      </trkpt>
      <trkpt lat="45.82923" lon="-0.66876">
        <ele>6</ele>
        <time>2017-06-25T10:10:57.999Z</time>
      </trkpt>
      <trkpt lat="45.82922" lon="-0.66878">
        <ele>6</ele>
        <time>2017-06-25T10:10:58.999Z</time>
      </trkpt>
      <trkpt lat="45.82922" lon="-0.6688">
        <ele>6</ele>
        <time>2017-06-25T10:10:59.999Z</time>
      </trkpt>
      <trkpt lat="45.82921" lon="-0.66882">
        <ele>6</ele>
        <time>2017-06-25T10:11:01.999Z</time>
      </trkpt>
      <trkpt lat="45.8292" lon="-0.66884">
        <ele>6</ele>
        <time>2017-06-25T10:11:02.999Z</time>
      </trkpt>
      <trkpt lat="45.8292" lon="-0.66887">
        <ele>6</ele>
        <time>2017-06-25T10:11:04.999Z</time>
      </trkpt>
      <trkpt lat="45.82919" lon="-0.6689">
        <ele>6</ele>
        <time>2017-06-25T10:11:05.999Z</time>
      </trkpt>
      <trkpt lat="45.82918" lon="-0.66892">
        <ele>6</ele>
        <time>2017-06-25T10:11:06.999Z</time>
      </trkpt>
      <trkpt lat="45.82918" lon="-0.66894">
        <ele>6</ele>
        <time>2017-06-25T10:11:07.999Z</time>
      </trkpt>
      <trkpt lat="45.82918" lon="-0.66896">
        <ele>6</ele>
        <time>2017-06-25T10:11:08.999Z</time>
      </trkpt>
      <trkpt lat="45.82918" lon="-0.66898">
        <ele>6</ele>
        <time>2017-06-25T10:11:09.999Z</time>
      </trkpt>
      <trkpt lat="45.82919" lon="-0.66899">
        <ele>6</ele>
        <time>2017-06-25T10:11:10.999Z</time>
      </trkpt>
      <trkpt lat="45.82919" lon="-0.66901">
        <ele>6</ele>
        <time>2017-06-25T10:11:11.999Z</time>
      </trkpt>
      <trkpt lat="45.82919" lon="-0.66903">
        <ele>6</ele>
        <time>2017-06-25T10:11:12.999Z</time>
      </trkpt>
      <trkpt lat="45.82919" lon="-0.66905">
        <ele>6</ele>
        <time>2017-06-25T10:11:13.999Z</time>
      </trkpt>
      <trkpt lat="45.82919" lon="-0.66907">
        <ele>6</ele>
        <time>2017-06-25T10:11:14.999Z</time>
      </trkpt>
      <trkpt lat="45.82919" lon="-0.66908">
        <ele>6</ele>
        <time>2017-06-25T10:11:15.999Z</time>
      </trkpt>
      <trkpt lat="45.82919" lon="-0.66911">
        <ele>6</ele>
        <time>2017-06-25T10:11:17.999Z</time>
      </trkpt>
      <trkpt lat="45.82919" lon="-0.66913">
        <ele>6</ele>
        <time>2017-06-25T10:11:19.999Z</time>
      </trkpt>
      <trkpt lat="45.8292" lon="-0.66915">
        <ele>6</ele>
        <time>2017-06-25T10:11:20.999Z</time>
      </trkpt>
      <trkpt lat="45.8292" lon="-0.66917">
        <ele>6</ele>
        <time>2017-06-25T10:11:22.999Z</time>
      </trkpt>
      <trkpt lat="45.8292" lon="-0.66918">
        <ele>6</ele>
        <time>2017-06-25T10:11:23.999Z</time>
      </trkpt>
      <trkpt lat="45.8292" lon="-0.6692">
        <ele>6</ele>
        <time>2017-06-25T10:11:24.999Z</time>
      </trkpt>
      <trkpt lat="45.82919" lon="-0.66922">
        <ele>6</ele>
        <time>2017-06-25T10:11:25.999Z</time>
      </trkpt>
      <trkpt lat="45.82919" lon="-0.66924">
        <ele>6</ele>
        <time>2017-06-25T10:11:26.999Z</time>
      </trkpt>
      <trkpt lat="45.82919" lon="-0.66926">
        <ele>6</ele>
        <time>2017-06-25T10:11:27.999Z</time>
      </trkpt>
      <trkpt lat="45.82919" lon="-0.66928">
        <ele>6</ele>
        <time>2017-06-25T10:11:28.999Z</time>
      </trkpt>
      <trkpt lat="45.82919" lon="-0.6693">
        <ele>6</ele>
        <time>2017-06-25T10:11:29.999Z</time>
      </trkpt>
      <trkpt lat="45.8292" lon="-0.66932">
        <ele>6</ele>
        <time>2017-06-25T10:11:30.999Z</time>
      </trkpt>
      <trkpt lat="45.8292" lon="-0.66933">
        <ele>6</ele>
        <time>2017-06-25T10:11:31.999Z</time>
      </trkpt>
      <trkpt lat="45.82921" lon="-0.66935">
        <ele>6</ele>
        <time>2017-06-25T10:11:32.999Z</time>
      </trkpt>
      <trkpt lat="45.82921" lon="-0.66936">
        <ele>6</ele>
        <time>2017-06-25T10:11:33.999Z</time>
      </trkpt>
      <trkpt lat="45.82921" lon="-0.66938">
        <ele>6</ele>
        <time>2017-06-25T10:11:34.999Z</time>
      </trkpt>
      <trkpt lat="45.82921" lon="-0.66941">
        <ele>6</ele>
        <time>2017-06-25T10:11:35.999Z</time>
      </trkpt>
      <trkpt lat="45.82921" lon="-0.66942">
        <ele>6</ele>
        <time>2017-06-25T10:11:36.999Z</time>
      </trkpt>
      <trkpt lat="45.82922" lon="-0.66943">
        <ele>6</ele>
        <time>2017-06-25T10:11:37.999Z</time>
      </trkpt>
      <trkpt lat="45.82922" lon="-0.66946">
        <ele>6</ele>
        <time>2017-06-25T10:11:38.999Z</time>
      </trkpt>
      <trkpt lat="45.82922" lon="-0.66947">
        <ele>6</ele>
        <time>2017-06-25T10:11:39.999Z</time>
      </trkpt>
      <trkpt lat="45.82923" lon="-0.66949">
        <ele>6</ele>
        <time>2017-06-25T10:11:40.999Z</time>
      </trkpt>
      <trkpt lat="45.82922" lon="-0.66951">
        <ele>6</ele>
        <time>2017-06-25T10:11:41.999Z</time>
      </trkpt>
      <trkpt lat="45.82922" lon="-0.66954">
        <ele>6</ele>
        <time>2017-06-25T10:11:43.999Z</time>
      </trkpt>
      <trkpt lat="45.82922" lon="-0.66956">
        <ele>6</ele>
        <time>2017-06-25T10:11:44.999Z</time>
      </trkpt>
      <trkpt lat="45.82922" lon="-0.66958">
        <ele>6</ele>
        <time>2017-06-25T10:11:45.999Z</time>
      </trkpt>
      <trkpt lat="45.82922" lon="-0.6696">
        <ele>6</ele>
        <time>2017-06-25T10:11:46.999Z</time>
      </trkpt>
      <trkpt lat="45.82922" lon="-0.66961">
        <ele>6</ele>
        <time>2017-06-25T10:11:47.999Z</time>
      </trkpt>
      <trkpt lat="45.82923" lon="-0.66963">
        <ele>6</ele>
        <time>2017-06-25T10:11:48.999Z</time>
      </trkpt>
      <trkpt lat="45.82923" lon="-0.66964">
        <ele>6</ele>
        <time>2017-06-25T10:11:49.999Z</time>
      </trkpt>
      <trkpt lat="45.82923" lon="-0.66966">
        <ele>6</ele>
        <time>2017-06-25T10:11:50.999Z</time>
      </trkpt>
      <trkpt lat="45.82924" lon="-0.66968">
        <ele>6</ele>
        <time>2017-06-25T10:11:51.999Z</time>
      </trkpt>
      <trkpt lat="45.82924" lon="-0.6697">
        <ele>6</ele>
        <time>2017-06-25T10:11:52.999Z</time>
      </trkpt>
      <trkpt lat="45.82924" lon="-0.66972">
        <ele>6</ele>
        <time>2017-06-25T10:11:53.999Z</time>
      </trkpt>
      <trkpt lat="45.82924" lon="-0.66973">
        <ele>6</ele>
        <time>2017-06-25T10:11:54.999Z</time>
      </trkpt>
      <trkpt lat="45.82924" lon="-0.66975">
        <ele>6</ele>
        <time>2017-06-25T10:11:55.999Z</time>
      </trkpt>
      <trkpt lat="45.82924" lon="-0.66977">
        <ele>6</ele>
        <time>2017-06-25T10:11:56.999Z</time>
      </trkpt>
      <trkpt lat="45.82924" lon="-0.66979">
        <ele>6</ele>
        <time>2017-06-25T10:11:57.999Z</time>
      </trkpt>
      <trkpt lat="45.82925" lon="-0.66981">
        <ele>6</ele>
        <time>2017-06-25T10:11:58.999Z</time>
      </trkpt>
      <trkpt lat="45.82925" lon="-0.66982">
        <ele>6</ele>
        <time>2017-06-25T10:11:59.999Z</time>
      </trkpt>
      <trkpt lat="45.82925" lon="-0.66984">
        <ele>6</ele>
        <time>2017-06-25T10:12:00.999Z</time>
      </trkpt>
      <trkpt lat="45.82925" lon="-0.66987">
        <ele>6</ele>
        <time>2017-06-25T10:12:02.999Z</time>
      </trkpt>
      <trkpt lat="45.82926" lon="-0.66989">
        <ele>6</ele>
        <time>2017-06-25T10:12:04.999Z</time>
      </trkpt>
      <trkpt lat="45.82926" lon="-0.66991">
        <ele>6</ele>
        <time>2017-06-25T10:12:05.999Z</time>
      </trkpt>
      <trkpt lat="45.82927" lon="-0.66992">
        <ele>6</ele>
        <time>2017-06-25T10:12:06.999Z</time>
      </trkpt>
      <trkpt lat="45.82927" lon="-0.66994">
        <ele>6</ele>
        <time>2017-06-25T10:12:07.999Z</time>
      </trkpt>
      <trkpt lat="45.82927" lon="-0.66995">
        <ele>6</ele>
        <time>2017-06-25T10:12:08.999Z</time>
      </trkpt>
      <trkpt lat="45.82927" lon="-0.66997">
        <ele>6</ele>
        <time>2017-06-25T10:12:09.999Z</time>
      </trkpt>
      <trkpt lat="45.82927" lon="-0.67">
        <ele>6</ele>
        <time>2017-06-25T10:12:11.999Z</time>
      </trkpt>
      <trkpt lat="45.82927" lon="-0.67002">
        <ele>7</ele>
        <time>2017-06-25T10:12:12.999Z</time>
      </trkpt>
      <trkpt lat="45.82927" lon="-0.67004">
        <ele>7</ele>
        <time>2017-06-25T10:12:13.999Z</time>
      </trkpt>
      <trkpt lat="45.82927" lon="-0.67005">
        <ele>7</ele>
        <time>2017-06-25T10:12:14.999Z</time>
      </trkpt>
      <trkpt lat="45.82928" lon="-0.67007">
        <ele>7</ele>
        <time>2017-06-25T10:12:15.999Z</time>
      </trkpt>
      <trkpt lat="45.82928" lon="-0.67009">
        <ele>7</ele>
        <time>2017-06-25T10:12:16.999Z</time>
      </trkpt>
      <trkpt lat="45.82929" lon="-0.67011">
        <ele>7</ele>
        <time>2017-06-25T10:12:17.999Z</time>
      </trkpt>
      <trkpt lat="45.82929" lon="-0.67012">
        <ele>7</ele>
        <time>2017-06-25T10:12:18.999Z</time>
      </trkpt>
      <trkpt lat="45.8293" lon="-0.67014">
        <ele>7</ele>
        <time>2017-06-25T10:12:19.999Z</time>
      </trkpt>
      <trkpt lat="45.8293" lon="-0.67015">
        <ele>7</ele>
        <time>2017-06-25T10:12:20.999Z</time>
      </trkpt>
      <trkpt lat="45.82931" lon="-0.67017">
        <ele>7</ele>
        <time>2017-06-25T10:12:22.999Z</time>
      </trkpt>
      <trkpt lat="45.82932" lon="-0.67018">
        <ele>7</ele>
        <time>2017-06-25T10:12:23.999Z</time>
      </trkpt>
      <trkpt lat="45.82933" lon="-0.6702">
        <ele>7</ele>
        <time>2017-06-25T10:12:25.999Z</time>
      </trkpt>
      <trkpt lat="45.82934" lon="-0.67021">
        <ele>7</ele>
        <time>2017-06-25T10:12:26.999Z</time>
      </trkpt>
      <trkpt lat="45.82935" lon="-0.67022">
        <ele>7</ele>
        <time>2017-06-25T10:12:27.999Z</time>
      </trkpt>
      <trkpt lat="45.82936" lon="-0.67023">
        <ele>7</ele>
        <time>2017-06-25T10:12:28.999Z</time>
      </trkpt>
      <trkpt lat="45.82937" lon="-0.67025">
        <ele>7</ele>
        <time>2017-06-25T10:12:29.999Z</time>
      </trkpt>
      <trkpt lat="45.82938" lon="-0.67026">
        <ele>8</ele>
        <time>2017-06-25T10:12:30.999Z</time>
      </trkpt>
      <trkpt lat="45.82939" lon="-0.67026">
        <ele>8</ele>
        <time>2017-06-25T10:12:31.999Z</time>
      </trkpt>
      <trkpt lat="45.8294" lon="-0.67028">
        <ele>8</ele>
        <time>2017-06-25T10:12:32.999Z</time>
      </trkpt>
      <trkpt lat="45.82941" lon="-0.67029">
        <ele>8</ele>
        <time>2017-06-25T10:12:33.999Z</time>
      </trkpt>
      <trkpt lat="45.82942" lon="-0.67031">
        <ele>8</ele>
        <time>2017-06-25T10:12:34.999Z</time>
      </trkpt>
      <trkpt lat="45.82943" lon="-0.67032">
        <ele>8</ele>
        <time>2017-06-25T10:12:35.999Z</time>
      </trkpt>
      <trkpt lat="45.82944" lon="-0.67034">
        <ele>8</ele>
        <time>2017-06-25T10:12:36.999Z</time>
      </trkpt>
      <trkpt lat="45.82945" lon="-0.67035">
        <ele>8</ele>
        <time>2017-06-25T10:12:37.999Z</time>
      </trkpt>
      <trkpt lat="45.82946" lon="-0.67036">
        <ele>8</ele>
        <time>2017-06-25T10:12:38.999Z</time>
      </trkpt>
      <trkpt lat="45.82946" lon="-0.67038">
        <ele>8</ele>
        <time>2017-06-25T10:12:39.999Z</time>
      </trkpt>
      <trkpt lat="45.82947" lon="-0.67039">
        <ele>8</ele>
        <time>2017-06-25T10:12:40.999Z</time>
      </trkpt>
      <trkpt lat="45.82948" lon="-0.67039">
        <ele>8</ele>
        <time>2017-06-25T10:12:41.999Z</time>
      </trkpt>
      <trkpt lat="45.82949" lon="-0.6704">
        <ele>8</ele>
        <time>2017-06-25T10:12:42.999Z</time>
      </trkpt>
      <trkpt lat="45.8295" lon="-0.67041">
        <ele>8</ele>
        <time>2017-06-25T10:12:43.999Z</time>
      </trkpt>
      <trkpt lat="45.82951" lon="-0.67042">
        <ele>8</ele>
        <time>2017-06-25T10:12:44.999Z</time>
      </trkpt>
      <trkpt lat="45.82951" lon="-0.67043">
        <ele>8</ele>
        <time>2017-06-25T10:12:45.999Z</time>
      </trkpt>
      <trkpt lat="45.82952" lon="-0.67044">
        <ele>8</ele>
        <time>2017-06-25T10:12:46.999Z</time>
      </trkpt>
      <trkpt lat="45.82953" lon="-0.67046">
        <ele>8</ele>
        <time>2017-06-25T10:12:47.999Z</time>
      </trkpt>
      <trkpt lat="45.82954" lon="-0.67047">
        <ele>8</ele>
        <time>2017-06-25T10:12:48.999Z</time>
      </trkpt>
      <trkpt lat="45.82955" lon="-0.67048">
        <ele>8</ele>
        <time>2017-06-25T10:12:49.999Z</time>
      </trkpt>
      <trkpt lat="45.82956" lon="-0.67049">
        <ele>8</ele>
        <time>2017-06-25T10:12:50.999Z</time>
      </trkpt>
      <trkpt lat="45.82958" lon="-0.67052">
        <ele>8</ele>
        <time>2017-06-25T10:12:52.999Z</time>
      </trkpt>
      <trkpt lat="45.82958" lon="-0.67054">
        <ele>8</ele>
        <time>2017-06-25T10:12:53.999Z</time>
      </trkpt>
      <trkpt lat="45.8296" lon="-0.67055">
        <ele>8</ele>
        <time>2017-06-25T10:12:55.999Z</time>
      </trkpt>
      <trkpt lat="45.82961" lon="-0.67057">
        <ele>8</ele>
        <time>2017-06-25T10:12:56.999Z</time>
      </trkpt>
      <trkpt lat="45.82961" lon="-0.67058">
        <ele>8</ele>
        <time>2017-06-25T10:12:57.999Z</time>
      </trkpt>
      <trkpt lat="45.82962" lon="-0.67059">
        <ele>8</ele>
        <time>2017-06-25T10:12:59.999Z</time>
      </trkpt>
      <trkpt lat="45.82963" lon="-0.6706">
        <ele>8</ele>
        <time>2017-06-25T10:13:00.999Z</time>
      </trkpt>
      <trkpt lat="45.82964" lon="-0.67061">
        <ele>8</ele>
        <time>2017-06-25T10:13:01.999Z</time>
      </trkpt>
      <trkpt lat="45.82965" lon="-0.67062">
        <ele>8</ele>
        <time>2017-06-25T10:13:02.999Z</time>
      </trkpt>
      <trkpt lat="45.82966" lon="-0.67063">
        <ele>8</ele>
        <time>2017-06-25T10:13:03.999Z</time>
      </trkpt>
      <trkpt lat="45.82967" lon="-0.67064">
        <ele>8</ele>
        <time>2017-06-25T10:13:04.999Z</time>
      </trkpt>
      <trkpt lat="45.82968" lon="-0.67065">
        <ele>8</ele>
        <time>2017-06-25T10:13:05.999Z</time>
      </trkpt>
      <trkpt lat="45.82969" lon="-0.67066">
        <ele>8</ele>
        <time>2017-06-25T10:13:06.999Z</time>
      </trkpt>
      <trkpt lat="45.8297" lon="-0.67067">
        <ele>8</ele>
        <time>2017-06-25T10:13:07.999Z</time>
      </trkpt>
      <trkpt lat="45.8297" lon="-0.67068">
        <ele>9</ele>
        <time>2017-06-25T10:13:08.999Z</time>
      </trkpt>
      <trkpt lat="45.82972" lon="-0.67069">
        <ele>9</ele>
        <time>2017-06-25T10:13:09.999Z</time>
      </trkpt>
      <trkpt lat="45.82973" lon="-0.67069">
        <ele>9</ele>
        <time>2017-06-25T10:13:11.999Z</time>
      </trkpt>
      <trkpt lat="45.82972" lon="-0.67072">
        <ele>9</ele>
        <time>2017-06-25T10:13:13.999Z</time>
      </trkpt>
      <trkpt lat="45.82972" lon="-0.67074">
        <ele>9</ele>
        <time>2017-06-25T10:13:14.999Z</time>
      </trkpt>
      <trkpt lat="45.82972" lon="-0.67076">
        <ele>9</ele>
        <time>2017-06-25T10:13:15.999Z</time>
      </trkpt>
      <trkpt lat="45.82971" lon="-0.67078">
        <ele>9</ele>
        <time>2017-06-25T10:13:16.999Z</time>
      </trkpt>
      <trkpt lat="45.82971" lon="-0.6708">
        <ele>9</ele>
        <time>2017-06-25T10:13:17.999Z</time>
      </trkpt>
      <trkpt lat="45.82971" lon="-0.67082">
        <ele>9</ele>
        <time>2017-06-25T10:13:19.999Z</time>
      </trkpt>
      <trkpt lat="45.8297" lon="-0.67084">
        <ele>10</ele>
        <time>2017-06-25T10:13:20.999Z</time>
      </trkpt>
      <trkpt lat="45.8297" lon="-0.67085">
        <ele>10</ele>
        <time>2017-06-25T10:13:21.999Z</time>
      </trkpt>
      <trkpt lat="45.82969" lon="-0.67086">
        <ele>10</ele>
        <time>2017-06-25T10:13:22.999Z</time>
      </trkpt>
      <trkpt lat="45.82967" lon="-0.67086">
        <ele>10</ele>
        <time>2017-06-25T10:13:23.999Z</time>
      </trkpt>
      <trkpt lat="45.82966" lon="-0.67087">
        <ele>10</ele>
        <time>2017-06-25T10:13:24.999Z</time>
      </trkpt>
      <trkpt lat="45.82966" lon="-0.67088">
        <ele>10</ele>
        <time>2017-06-25T10:13:25.999Z</time>
      </trkpt>
      <trkpt lat="45.82965" lon="-0.67089">
        <ele>10</ele>
        <time>2017-06-25T10:13:26.999Z</time>
      </trkpt>
      <trkpt lat="45.82964" lon="-0.67091">
        <ele>10</ele>
        <time>2017-06-25T10:13:29.999Z</time>
      </trkpt>
      <trkpt lat="45.82964" lon="-0.67092">
        <ele>10</ele>
        <time>2017-06-25T10:13:30.999Z</time>
      </trkpt>
      <trkpt lat="45.82962" lon="-0.67094">
        <ele>10</ele>
        <time>2017-06-25T10:13:32.999Z</time>
      </trkpt>
      <trkpt lat="45.82962" lon="-0.67096">
        <ele>10</ele>
        <time>2017-06-25T10:13:33.999Z</time>
      </trkpt>
      <trkpt lat="45.82961" lon="-0.67098">
        <ele>10</ele>
        <time>2017-06-25T10:13:34.999Z</time>
      </trkpt>
      <trkpt lat="45.8296" lon="-0.67099">
        <ele>10</ele>
        <time>2017-06-25T10:13:35.999Z</time>
      </trkpt>
      <trkpt lat="45.82959" lon="-0.67101">
        <ele>10</ele>
        <time>2017-06-25T10:13:36.999Z</time>
      </trkpt>
      <trkpt lat="45.82959" lon="-0.67103">
        <ele>10</ele>
        <time>2017-06-25T10:13:37.999Z</time>
      </trkpt>
      <trkpt lat="45.82958" lon="-0.67104">
        <ele>10</ele>
        <time>2017-06-25T10:13:38.999Z</time>
      </trkpt>
      <trkpt lat="45.82958" lon="-0.67106">
        <ele>10</ele>
        <time>2017-06-25T10:13:39.999Z</time>
      </trkpt>
      <trkpt lat="45.82957" lon="-0.67107">
        <ele>10</ele>
        <time>2017-06-25T10:13:40.999Z</time>
      </trkpt>
      <trkpt lat="45.82957" lon="-0.67108">
        <ele>10</ele>
        <time>2017-06-25T10:13:41.999Z</time>
      </trkpt>
      <trkpt lat="45.82956" lon="-0.6711">
        <ele>10</ele>
        <time>2017-06-25T10:13:42.999Z</time>
      </trkpt>
      <trkpt lat="45.82955" lon="-0.67111">
        <ele>10</ele>
        <time>2017-06-25T10:13:43.999Z</time>
      </trkpt>
      <trkpt lat="45.82954" lon="-0.67112">
        <ele>10</ele>
        <time>2017-06-25T10:13:44.999Z</time>
      </trkpt>
      <trkpt lat="45.82954" lon="-0.67113">
        <ele>10</ele>
        <time>2017-06-25T10:13:45.999Z</time>
      </trkpt>
      <trkpt lat="45.82953" lon="-0.67115">
        <ele>10</ele>
        <time>2017-06-25T10:13:46.999Z</time>
      </trkpt>
      <trkpt lat="45.82951" lon="-0.67117">
        <ele>10</ele>
        <time>2017-06-25T10:13:47.999Z</time>
      </trkpt>
      <trkpt lat="45.8295" lon="-0.67118">
        <ele>10</ele>
        <time>2017-06-25T10:13:48.999Z</time>
      </trkpt>
      <trkpt lat="45.82949" lon="-0.67119">
        <ele>10</ele>
        <time>2017-06-25T10:13:49.999Z</time>
      </trkpt>
      <trkpt lat="45.82949" lon="-0.6712">
        <ele>10</ele>
        <time>2017-06-25T10:13:50.999Z</time>
      </trkpt>
      <trkpt lat="45.82948" lon="-0.67122">
        <ele>10</ele>
        <time>2017-06-25T10:13:51.999Z</time>
      </trkpt>
      <trkpt lat="45.82946" lon="-0.67123">
        <ele>10</ele>
        <time>2017-06-25T10:13:52.999Z</time>
      </trkpt>
      <trkpt lat="45.82946" lon="-0.67124">
        <ele>10</ele>
        <time>2017-06-25T10:13:53.999Z</time>
      </trkpt>
      <trkpt lat="45.82945" lon="-0.67125">
        <ele>10</ele>
        <time>2017-06-25T10:13:54.999Z</time>
      </trkpt>
      <trkpt lat="45.82944" lon="-0.67125">
        <ele>10</ele>
        <time>2017-06-25T10:13:55.999Z</time>
      </trkpt>
      <trkpt lat="45.82943" lon="-0.67126">
        <ele>10</ele>
        <time>2017-06-25T10:13:56.999Z</time>
      </trkpt>
      <trkpt lat="45.82941" lon="-0.67127">
        <ele>10</ele>
        <time>2017-06-25T10:13:57.999Z</time>
      </trkpt>
      <trkpt lat="45.8294" lon="-0.67128">
        <ele>10</ele>
        <time>2017-06-25T10:13:58.999Z</time>
      </trkpt>
      <trkpt lat="45.82939" lon="-0.67128">
        <ele>10</ele>
        <time>2017-06-25T10:13:59.999Z</time>
      </trkpt>
      <trkpt lat="45.82938" lon="-0.67129">
        <ele>10</ele>
        <time>2017-06-25T10:14:00.999Z</time>
      </trkpt>
      <trkpt lat="45.82937" lon="-0.6713">
        <ele>10</ele>
        <time>2017-06-25T10:14:01.999Z</time>
      </trkpt>
      <trkpt lat="45.82937" lon="-0.67131">
        <ele>10</ele>
        <time>2017-06-25T10:14:02.999Z</time>
      </trkpt>
      <trkpt lat="45.82935" lon="-0.67132">
        <ele>10</ele>
        <time>2017-06-25T10:14:04.999Z</time>
      </trkpt>
      <trkpt lat="45.82934" lon="-0.67133">
        <ele>10</ele>
        <time>2017-06-25T10:14:05.999Z</time>
      </trkpt>
      <trkpt lat="45.82933" lon="-0.67134">
        <ele>10</ele>
        <time>2017-06-25T10:14:06.999Z</time>
      </trkpt>
      <trkpt lat="45.82932" lon="-0.67134">
        <ele>10</ele>
        <time>2017-06-25T10:14:07.999Z</time>
      </trkpt>
      <trkpt lat="45.82931" lon="-0.67135">
        <ele>10</ele>
        <time>2017-06-25T10:14:08.999Z</time>
      </trkpt>
      <trkpt lat="45.8293" lon="-0.67135">
        <ele>10</ele>
        <time>2017-06-25T10:14:09.999Z</time>
      </trkpt>
      <trkpt lat="45.82929" lon="-0.67136">
        <ele>10</ele>
        <time>2017-06-25T10:14:10.999Z</time>
      </trkpt>
      <trkpt lat="45.82927" lon="-0.67137">
        <ele>10</ele>
        <time>2017-06-25T10:14:11.999Z</time>
      </trkpt>
      <trkpt lat="45.82927" lon="-0.67138">
        <ele>10</ele>
        <time>2017-06-25T10:14:12.999Z</time>
      </trkpt>
      <trkpt lat="45.82926" lon="-0.67139">
        <ele>10</ele>
        <time>2017-06-25T10:14:13.999Z</time>
      </trkpt>
      <trkpt lat="45.82925" lon="-0.6714">
        <ele>10</ele>
        <time>2017-06-25T10:14:14.999Z</time>
      </trkpt>
      <trkpt lat="45.82923" lon="-0.6714">
        <ele>10</ele>
        <time>2017-06-25T10:14:15.999Z</time>
      </trkpt>
      <trkpt lat="45.82922" lon="-0.67141">
        <ele>10</ele>
        <time>2017-06-25T10:14:16.999Z</time>
      </trkpt>
      <trkpt lat="45.82921" lon="-0.67142">
        <ele>10</ele>
        <time>2017-06-25T10:14:17.999Z</time>
      </trkpt>
      <trkpt lat="45.82919" lon="-0.67142">
        <ele>10</ele>
        <time>2017-06-25T10:14:18.999Z</time>
      </trkpt>
      <trkpt lat="45.82919" lon="-0.67143">
        <ele>10</ele>
        <time>2017-06-25T10:14:19.999Z</time>
      </trkpt>
      <trkpt lat="45.82917" lon="-0.67143">
        <ele>10</ele>
        <time>2017-06-25T10:14:20.999Z</time>
      </trkpt>
      <trkpt lat="45.82916" lon="-0.67144">
        <ele>11</ele>
        <time>2017-06-25T10:14:21.999Z</time>
      </trkpt>
      <trkpt lat="45.82915" lon="-0.67145">
        <ele>11</ele>
        <time>2017-06-25T10:14:22.999Z</time>
      </trkpt>
      <trkpt lat="45.82914" lon="-0.67147">
        <ele>11</ele>
        <time>2017-06-25T10:14:24.999Z</time>
      </trkpt>
      <trkpt lat="45.82912" lon="-0.67147">
        <ele>11</ele>
        <time>2017-06-25T10:14:25.999Z</time>
      </trkpt>
      <trkpt lat="45.82911" lon="-0.67147">
        <ele>11</ele>
        <time>2017-06-25T10:14:26.999Z</time>
      </trkpt>
      <trkpt lat="45.8291" lon="-0.67148">
        <ele>11</ele>
        <time>2017-06-25T10:14:27.999Z</time>
      </trkpt>
      <trkpt lat="45.82909" lon="-0.67148">
        <ele>11</ele>
        <time>2017-06-25T10:14:28.999Z</time>
      </trkpt>
      <trkpt lat="45.82908" lon="-0.6715">
        <ele>11</ele>
        <time>2017-06-25T10:14:29.999Z</time>
      </trkpt>
      <trkpt lat="45.82907" lon="-0.67151">
        <ele>11</ele>
        <time>2017-06-25T10:14:30.999Z</time>
      </trkpt>
      <trkpt lat="45.82906" lon="-0.67151">
        <ele>11</ele>
        <time>2017-06-25T10:14:31.999Z</time>
      </trkpt>
      <trkpt lat="45.82904" lon="-0.67152">
        <ele>11</ele>
        <time>2017-06-25T10:14:32.999Z</time>
      </trkpt>
      <trkpt lat="45.82903" lon="-0.67153">
        <ele>11</ele>
        <time>2017-06-25T10:14:33.999Z</time>
      </trkpt>
      <trkpt lat="45.82902" lon="-0.67154">
        <ele>11</ele>
        <time>2017-06-25T10:14:34.999Z</time>
      </trkpt>
      <trkpt lat="45.82901" lon="-0.67156">
        <ele>11</ele>
        <time>2017-06-25T10:14:35.999Z</time>
      </trkpt>
      <trkpt lat="45.829" lon="-0.67157">
        <ele>11</ele>
        <time>2017-06-25T10:14:36.999Z</time>
      </trkpt>
      <trkpt lat="45.82899" lon="-0.67157">
        <ele>11</ele>
        <time>2017-06-25T10:14:37.999Z</time>
      </trkpt>
      <trkpt lat="45.82898" lon="-0.67159">
        <ele>11</ele>
        <time>2017-06-25T10:14:39.999Z</time>
      </trkpt>
      <trkpt lat="45.82897" lon="-0.67161">
        <ele>11</ele>
        <time>2017-06-25T10:14:41.999Z</time>
      </trkpt>
      <trkpt lat="45.82896" lon="-0.67163">
        <ele>11</ele>
        <time>2017-06-25T10:14:43.999Z</time>
      </trkpt>
      <trkpt lat="45.82895" lon="-0.67164">
        <ele>11</ele>
        <time>2017-06-25T10:14:45.999Z</time>
      </trkpt>
      <trkpt lat="45.82895" lon="-0.67165">
        <ele>11</ele>
        <time>2017-06-25T10:14:46.999Z</time>
      </trkpt>
      <trkpt lat="45.82893" lon="-0.67167">
        <ele>12</ele>
        <time>2017-06-25T10:14:47.999Z</time>
      </trkpt>
      <trkpt lat="45.82892" lon="-0.67168">
        <ele>12</ele>
        <time>2017-06-25T10:14:48.999Z</time>
      </trkpt>
      <trkpt lat="45.82891" lon="-0.6717">
        <ele>12</ele>
        <time>2017-06-25T10:14:49.999Z</time>
      </trkpt>
      <trkpt lat="45.8289" lon="-0.67171">
        <ele>12</ele>
        <time>2017-06-25T10:14:50.999Z</time>
      </trkpt>
      <trkpt lat="45.82889" lon="-0.67172">
        <ele>12</ele>
        <time>2017-06-25T10:14:51.999Z</time>
      </trkpt>
      <trkpt lat="45.82888" lon="-0.67173">
        <ele>12</ele>
        <time>2017-06-25T10:14:52.999Z</time>
      </trkpt>
      <trkpt lat="45.82887" lon="-0.67174">
        <ele>12</ele>
        <time>2017-06-25T10:14:53.999Z</time>
      </trkpt>
      <trkpt lat="45.82886" lon="-0.67176">
        <ele>12</ele>
        <time>2017-06-25T10:14:54.999Z</time>
      </trkpt>
      <trkpt lat="45.82885" lon="-0.67177">
        <ele>12</ele>
        <time>2017-06-25T10:14:55.999Z</time>
      </trkpt>
      <trkpt lat="45.82884" lon="-0.67178">
        <ele>12</ele>
        <time>2017-06-25T10:14:56.999Z</time>
      </trkpt>
      <trkpt lat="45.82883" lon="-0.6718">
        <ele>12</ele>
        <time>2017-06-25T10:14:57.999Z</time>
      </trkpt>
      <trkpt lat="45.82882" lon="-0.67181">
        <ele>12</ele>
        <time>2017-06-25T10:14:58.999Z</time>
      </trkpt>
      <trkpt lat="45.82882" lon="-0.67182">
        <ele>12</ele>
        <time>2017-06-25T10:14:59.999Z</time>
      </trkpt>
      <trkpt lat="45.8288" lon="-0.67183">
        <ele>12</ele>
        <time>2017-06-25T10:15:00.999Z</time>
      </trkpt>
      <trkpt lat="45.8288" lon="-0.67185">
        <ele>12</ele>
        <time>2017-06-25T10:15:01.999Z</time>
      </trkpt>
      <trkpt lat="45.8288" lon="-0.67186">
        <ele>12</ele>
        <time>2017-06-25T10:15:02.999Z</time>
      </trkpt>
      <trkpt lat="45.82879" lon="-0.67188">
        <ele>12</ele>
        <time>2017-06-25T10:15:03.999Z</time>
      </trkpt>
      <trkpt lat="45.82877" lon="-0.67189">
        <ele>12</ele>
        <time>2017-06-25T10:15:05.999Z</time>
      </trkpt>
      <trkpt lat="45.82877" lon="-0.67191">
        <ele>12</ele>
        <time>2017-06-25T10:15:06.999Z</time>
      </trkpt>
      <trkpt lat="45.82876" lon="-0.67192">
        <ele>12</ele>
        <time>2017-06-25T10:15:07.999Z</time>
      </trkpt>
      <trkpt lat="45.82876" lon="-0.67193">
        <ele>12</ele>
        <time>2017-06-25T10:15:08.999Z</time>
      </trkpt>
      <trkpt lat="45.82876" lon="-0.67195">
        <ele>12</ele>
        <time>2017-06-25T10:15:09.999Z</time>
      </trkpt>
      <trkpt lat="45.82876" lon="-0.67196">
        <ele>12</ele>
        <time>2017-06-25T10:15:10.999Z</time>
      </trkpt>
      <trkpt lat="45.82875" lon="-0.67198">
        <ele>12</ele>
        <time>2017-06-25T10:15:11.999Z</time>
      </trkpt>
      <trkpt lat="45.82875" lon="-0.67199">
        <ele>12</ele>
        <time>2017-06-25T10:15:12.999Z</time>
      </trkpt>
      <trkpt lat="45.82874" lon="-0.672">
        <ele>12</ele>
        <time>2017-06-25T10:15:13.999Z</time>
      </trkpt>
      <trkpt lat="45.82874" lon="-0.67204">
        <ele>12</ele>
        <time>2017-06-25T10:15:15.999Z</time>
      </trkpt>
      <trkpt lat="45.82874" lon="-0.67206">
        <ele>12</ele>
        <time>2017-06-25T10:15:16.999Z</time>
      </trkpt>
      <trkpt lat="45.82873" lon="-0.67208">
        <ele>12</ele>
        <time>2017-06-25T10:15:17.999Z</time>
      </trkpt>
      <trkpt lat="45.82873" lon="-0.67211">
        <ele>12</ele>
        <time>2017-06-25T10:15:19.999Z</time>
      </trkpt>
      <trkpt lat="45.82872" lon="-0.67212">
        <ele>12</ele>
        <time>2017-06-25T10:15:20.999Z</time>
      </trkpt>
      <trkpt lat="45.82872" lon="-0.67214">
        <ele>12</ele>
        <time>2017-06-25T10:15:21.999Z</time>
      </trkpt>
      <trkpt lat="45.82872" lon="-0.67216">
        <ele>12</ele>
        <time>2017-06-25T10:15:22.999Z</time>
      </trkpt>
      <trkpt lat="45.82872" lon="-0.67217">
        <ele>12</ele>
        <time>2017-06-25T10:15:23.999Z</time>
      </trkpt>
      <trkpt lat="45.82872" lon="-0.67219">
        <ele>12</ele>
        <time>2017-06-25T10:15:24.999Z</time>
      </trkpt>
      <trkpt lat="45.82873" lon="-0.6722">
        <ele>12</ele>
        <time>2017-06-25T10:15:25.999Z</time>
      </trkpt>
      <trkpt lat="45.82874" lon="-0.67223">
        <ele>12</ele>
        <time>2017-06-25T10:15:27.999Z</time>
      </trkpt>
      <trkpt lat="45.82874" lon="-0.67225">
        <ele>12</ele>
        <time>2017-06-25T10:15:28.999Z</time>
      </trkpt>
      <trkpt lat="45.82873" lon="-0.67226">
        <ele>12</ele>
        <time>2017-06-25T10:15:29.999Z</time>
      </trkpt>
      <trkpt lat="45.82873" lon="-0.67228">
        <ele>12</ele>
        <time>2017-06-25T10:15:30.999Z</time>
      </trkpt>
      <trkpt lat="45.82872" lon="-0.6723">
        <ele>12</ele>
        <time>2017-06-25T10:15:31.999Z</time>
      </trkpt>
      <trkpt lat="45.82872" lon="-0.67231">
        <ele>12</ele>
        <time>2017-06-25T10:15:32.999Z</time>
      </trkpt>
      <trkpt lat="45.82872" lon="-0.67233">
        <ele>12</ele>
        <time>2017-06-25T10:15:33.999Z</time>
      </trkpt>
      <trkpt lat="45.82871" lon="-0.67234">
        <ele>12</ele>
        <time>2017-06-25T10:15:34.999Z</time>
      </trkpt>
      <trkpt lat="45.82871" lon="-0.67236">
        <ele>12</ele>
        <time>2017-06-25T10:15:35.999Z</time>
      </trkpt>
      <trkpt lat="45.82871" lon="-0.67238">
        <ele>12</ele>
        <time>2017-06-25T10:15:36.999Z</time>
      </trkpt>
      <trkpt lat="45.82871" lon="-0.67239">
        <ele>12</ele>
        <time>2017-06-25T10:15:37.999Z</time>
      </trkpt>
      <trkpt lat="45.82871" lon="-0.67241">
        <ele>12</ele>
        <time>2017-06-25T10:15:39.999Z</time>
      </trkpt>
      <trkpt lat="45.82872" lon="-0.67242">
        <ele>12</ele>
        <time>2017-06-25T10:15:40.999Z</time>
      </trkpt>
      <trkpt lat="45.82873" lon="-0.67244">
        <ele>12</ele>
        <time>2017-06-25T10:15:41.999Z</time>
      </trkpt>
      <trkpt lat="45.82874" lon="-0.67246">
        <ele>12</ele>
        <time>2017-06-25T10:15:43.999Z</time>
      </trkpt>
      <trkpt lat="45.82875" lon="-0.67247">
        <ele>12</ele>
        <time>2017-06-25T10:15:44.999Z</time>
      </trkpt>
      <trkpt lat="45.82877" lon="-0.67248">
        <ele>12</ele>
        <time>2017-06-25T10:15:45.999Z</time>
      </trkpt>
      <trkpt lat="45.82878" lon="-0.67249">
        <ele>12</ele>
        <time>2017-06-25T10:15:46.999Z</time>
      </trkpt>
      <trkpt lat="45.82879" lon="-0.6725">
        <ele>12</ele>
        <time>2017-06-25T10:15:47.999Z</time>
      </trkpt>
      <trkpt lat="45.8288" lon="-0.6725">
        <ele>13</ele>
        <time>2017-06-25T10:15:48.999Z</time>
      </trkpt>
      <trkpt lat="45.8288" lon="-0.67252">
        <ele>13</ele>
        <time>2017-06-25T10:15:49.999Z</time>
      </trkpt>
      <trkpt lat="45.82882" lon="-0.67253">
        <ele>13</ele>
        <time>2017-06-25T10:15:50.999Z</time>
      </trkpt>
      <trkpt lat="45.82883" lon="-0.67255">
        <ele>13</ele>
        <time>2017-06-25T10:15:51.999Z</time>
      </trkpt>
      <trkpt lat="45.82884" lon="-0.67256">
        <ele>13</ele>
        <time>2017-06-25T10:15:52.999Z</time>
      </trkpt>
      <trkpt lat="45.82885" lon="-0.67257">
        <ele>13</ele>
        <time>2017-06-25T10:15:53.999Z</time>
      </trkpt>
      <trkpt lat="45.82886" lon="-0.67257">
        <ele>13</ele>
        <time>2017-06-25T10:15:54.999Z</time>
      </trkpt>
      <trkpt lat="45.82887" lon="-0.67259">
        <ele>13</ele>
        <time>2017-06-25T10:15:55.999Z</time>
      </trkpt>
      <trkpt lat="45.82888" lon="-0.67261">
        <ele>13</ele>
        <time>2017-06-25T10:15:57.999Z</time>
      </trkpt>
      <trkpt lat="45.82888" lon="-0.67262">
        <ele>13</ele>
        <time>2017-06-25T10:15:58.999Z</time>
      </trkpt>
      <trkpt lat="45.8289" lon="-0.67264">
        <ele>13</ele>
        <time>2017-06-25T10:16:00.999Z</time>
      </trkpt>
      <trkpt lat="45.82891" lon="-0.67266">
        <ele>13</ele>
        <time>2017-06-25T10:16:01.999Z</time>
      </trkpt>
      <trkpt lat="45.82892" lon="-0.67267">
        <ele>13</ele>
        <time>2017-06-25T10:16:02.999Z</time>
      </trkpt>
      <trkpt lat="45.82892" lon="-0.67268">
        <ele>13</ele>
        <time>2017-06-25T10:16:03.999Z</time>
      </trkpt>
      <trkpt lat="45.82893" lon="-0.67269">
        <ele>13</ele>
        <time>2017-06-25T10:16:04.999Z</time>
      </trkpt>
      <trkpt lat="45.82893" lon="-0.67271">
        <ele>13</ele>
        <time>2017-06-25T10:16:05.999Z</time>
      </trkpt>
      <trkpt lat="45.82894" lon="-0.67273">
        <ele>13</ele>
        <time>2017-06-25T10:16:06.999Z</time>
      </trkpt>
      <trkpt lat="45.82895" lon="-0.67275">
        <ele>13</ele>
        <time>2017-06-25T10:16:07.999Z</time>
      </trkpt>
      <trkpt lat="45.82896" lon="-0.67277">
        <ele>13</ele>
        <time>2017-06-25T10:16:08.999Z</time>
      </trkpt>
      <trkpt lat="45.82896" lon="-0.67278">
        <ele>13</ele>
        <time>2017-06-25T10:16:09.999Z</time>
      </trkpt>
      <trkpt lat="45.82896" lon="-0.6728">
        <ele>13</ele>
        <time>2017-06-25T10:16:10.999Z</time>
      </trkpt>
      <trkpt lat="45.82897" lon="-0.67282">
        <ele>13</ele>
        <time>2017-06-25T10:16:11.999Z</time>
      </trkpt>
      <trkpt lat="45.82898" lon="-0.67284">
        <ele>13</ele>
        <time>2017-06-25T10:16:12.999Z</time>
      </trkpt>
      <trkpt lat="45.82898" lon="-0.67285">
        <ele>13</ele>
        <time>2017-06-25T10:16:13.999Z</time>
      </trkpt>
      <trkpt lat="45.82899" lon="-0.67286">
        <ele>13</ele>
        <time>2017-06-25T10:16:14.999Z</time>
      </trkpt>
      <trkpt lat="45.829" lon="-0.67287">
        <ele>13</ele>
        <time>2017-06-25T10:16:15.999Z</time>
      </trkpt>
      <trkpt lat="45.829" lon="-0.67288">
        <ele>13</ele>
        <time>2017-06-25T10:16:16.999Z</time>
      </trkpt>
      <trkpt lat="45.829" lon="-0.6729">
        <ele>13</ele>
        <time>2017-06-25T10:16:17.999Z</time>
      </trkpt>
      <trkpt lat="45.829" lon="-0.67291">
        <ele>13</ele>
        <time>2017-06-25T10:16:18.999Z</time>
      </trkpt>
      <trkpt lat="45.829" lon="-0.67293">
        <ele>13</ele>
        <time>2017-06-25T10:16:19.999Z</time>
      </trkpt>
      <trkpt lat="45.82901" lon="-0.67294">
        <ele>13</ele>
        <time>2017-06-25T10:16:20.999Z</time>
      </trkpt>
      <trkpt lat="45.82901" lon="-0.67296">
        <ele>13</ele>
        <time>2017-06-25T10:16:21.999Z</time>
      </trkpt>
      <trkpt lat="45.82902" lon="-0.67297">
        <ele>13</ele>
        <time>2017-06-25T10:16:22.999Z</time>
      </trkpt>
      <trkpt lat="45.82903" lon="-0.67298">
        <ele>13</ele>
        <time>2017-06-25T10:16:23.999Z</time>
      </trkpt>
      <trkpt lat="45.82903" lon="-0.673">
        <ele>13</ele>
        <time>2017-06-25T10:16:24.999Z</time>
      </trkpt>
      <trkpt lat="45.82904" lon="-0.67301">
        <ele>13</ele>
        <time>2017-06-25T10:16:25.999Z</time>
      </trkpt>
      <trkpt lat="45.82904" lon="-0.67303">
        <ele>13</ele>
        <time>2017-06-25T10:16:26.999Z</time>
      </trkpt>
      <trkpt lat="45.82904" lon="-0.67305">
        <ele>13</ele>
        <time>2017-06-25T10:16:27.999Z</time>
      </trkpt>
      <trkpt lat="45.82904" lon="-0.67307">
        <ele>13</ele>
        <time>2017-06-25T10:16:28.999Z</time>
      </trkpt>
      <trkpt lat="45.82903" lon="-0.67308">
        <ele>13</ele>
        <time>2017-06-25T10:16:29.999Z</time>
      </trkpt>
      <trkpt lat="45.82903" lon="-0.67309">
        <ele>13</ele>
        <time>2017-06-25T10:16:30.999Z</time>
      </trkpt>
      <trkpt lat="45.82902" lon="-0.6731">
        <ele>13</ele>
        <time>2017-06-25T10:16:31.999Z</time>
      </trkpt>
      <trkpt lat="45.82901" lon="-0.67311">
        <ele>13</ele>
        <time>2017-06-25T10:16:33.999Z</time>
      </trkpt>
      <trkpt lat="45.829" lon="-0.67312">
        <ele>13</ele>
        <time>2017-06-25T10:16:34.999Z</time>
      </trkpt>
      <trkpt lat="45.829" lon="-0.67313">
        <ele>13</ele>
        <time>2017-06-25T10:16:35.999Z</time>
      </trkpt>
      <trkpt lat="45.82898" lon="-0.67315">
        <ele>13</ele>
        <time>2017-06-25T10:16:37.999Z</time>
      </trkpt>
      <trkpt lat="45.82898" lon="-0.67316">
        <ele>13</ele>
        <time>2017-06-25T10:16:38.999Z</time>
      </trkpt>
      <trkpt lat="45.82896" lon="-0.67317">
        <ele>13</ele>
        <time>2017-06-25T10:16:39.999Z</time>
      </trkpt>
      <trkpt lat="45.82895" lon="-0.67318">
        <ele>13</ele>
        <time>2017-06-25T10:16:40.999Z</time>
      </trkpt>
      <trkpt lat="45.82893" lon="-0.67319">
        <ele>13</ele>
        <time>2017-06-25T10:16:41.999Z</time>
      </trkpt>
      <trkpt lat="45.82892" lon="-0.6732">
        <ele>13</ele>
        <time>2017-06-25T10:16:42.999Z</time>
      </trkpt>
      <trkpt lat="45.82891" lon="-0.67321">
        <ele>13</ele>
        <time>2017-06-25T10:16:43.999Z</time>
      </trkpt>
      <trkpt lat="45.8289" lon="-0.67322">
        <ele>13</ele>
        <time>2017-06-25T10:16:44.999Z</time>
      </trkpt>
      <trkpt lat="45.82888" lon="-0.67324">
        <ele>13</ele>
        <time>2017-06-25T10:16:45.999Z</time>
      </trkpt>
      <trkpt lat="45.82887" lon="-0.67324">
        <ele>13</ele>
        <time>2017-06-25T10:16:47.999Z</time>
      </trkpt>
      <trkpt lat="45.82886" lon="-0.67325">
        <ele>13</ele>
        <time>2017-06-25T10:16:48.999Z</time>
      </trkpt>
      <trkpt lat="45.82884" lon="-0.67325">
        <ele>13</ele>
        <time>2017-06-25T10:16:49.999Z</time>
      </trkpt>
      <trkpt lat="45.82883" lon="-0.67325">
        <ele>13</ele>
        <time>2017-06-25T10:16:50.999Z</time>
      </trkpt>
      <trkpt lat="45.82882" lon="-0.67326">
        <ele>13</ele>
        <time>2017-06-25T10:16:51.999Z</time>
      </trkpt>
      <trkpt lat="45.8288" lon="-0.67327">
        <ele>13</ele>
        <time>2017-06-25T10:16:52.999Z</time>
      </trkpt>
      <trkpt lat="45.82879" lon="-0.67328">
        <ele>13</ele>
        <time>2017-06-25T10:16:53.999Z</time>
      </trkpt>
      <trkpt lat="45.82878" lon="-0.67329">
        <ele>13</ele>
        <time>2017-06-25T10:16:54.999Z</time>
      </trkpt>
      <trkpt lat="45.82877" lon="-0.6733">
        <ele>13</ele>
        <time>2017-06-25T10:16:55.999Z</time>
      </trkpt>
      <trkpt lat="45.82876" lon="-0.67331">
        <ele>13</ele>
        <time>2017-06-25T10:16:57.999Z</time>
      </trkpt>
      <trkpt lat="45.82875" lon="-0.67332">
        <ele>13</ele>
        <time>2017-06-25T10:16:58.999Z</time>
      </trkpt>
      <trkpt lat="45.82874" lon="-0.67333">
        <ele>13</ele>
        <time>2017-06-25T10:16:59.999Z</time>
      </trkpt>
      <trkpt lat="45.82874" lon="-0.67334">
        <ele>13</ele>
        <time>2017-06-25T10:17:00.999Z</time>
      </trkpt>
      <trkpt lat="45.82872" lon="-0.67335">
        <ele>13</ele>
        <time>2017-06-25T10:17:02.999Z</time>
      </trkpt>
      <trkpt lat="45.82871" lon="-0.67337">
        <ele>13</ele>
        <time>2017-06-25T10:17:03.999Z</time>
      </trkpt>
      <trkpt lat="45.82871" lon="-0.67338">
        <ele>13</ele>
        <time>2017-06-25T10:17:04.999Z</time>
      </trkpt>
      <trkpt lat="45.8287" lon="-0.6734">
        <ele>13</ele>
        <time>2017-06-25T10:17:05.999Z</time>
      </trkpt>
      <trkpt lat="45.82869" lon="-0.67341">
        <ele>13</ele>
        <time>2017-06-25T10:17:06.999Z</time>
      </trkpt>
      <trkpt lat="45.82868" lon="-0.67343">
        <ele>13</ele>
        <time>2017-06-25T10:17:07.999Z</time>
      </trkpt>
      <trkpt lat="45.82868" lon="-0.67345">
        <ele>13</ele>
        <time>2017-06-25T10:17:08.999Z</time>
      </trkpt>
      <trkpt lat="45.82867" lon="-0.67346">
        <ele>13</ele>
        <time>2017-06-25T10:17:09.999Z</time>
      </trkpt>
      <trkpt lat="45.82868" lon="-0.67348">
        <ele>13</ele>
        <time>2017-06-25T10:17:10.999Z</time>
      </trkpt>
      <trkpt lat="45.82869" lon="-0.6735">
        <ele>13</ele>
        <time>2017-06-25T10:17:11.999Z</time>
      </trkpt>
      <trkpt lat="45.82869" lon="-0.67352">
        <ele>13</ele>
        <time>2017-06-25T10:17:12.999Z</time>
      </trkpt>
      <trkpt lat="45.8287" lon="-0.67353">
        <ele>13</ele>
        <time>2017-06-25T10:17:13.999Z</time>
      </trkpt>
      <trkpt lat="45.8287" lon="-0.67354">
        <ele>13</ele>
        <time>2017-06-25T10:17:14.999Z</time>
      </trkpt>
      <trkpt lat="45.82871" lon="-0.67355">
        <ele>13</ele>
        <time>2017-06-25T10:17:15.999Z</time>
      </trkpt>
      <trkpt lat="45.82872" lon="-0.67356">
        <ele>13</ele>
        <time>2017-06-25T10:17:16.999Z</time>
      </trkpt>
      <trkpt lat="45.82872" lon="-0.67357">
        <ele>13</ele>
        <time>2017-06-25T10:17:17.999Z</time>
      </trkpt>
      <trkpt lat="45.82873" lon="-0.67359">
        <ele>13</ele>
        <time>2017-06-25T10:17:18.999Z</time>
      </trkpt>
      <trkpt lat="45.82874" lon="-0.6736">
        <ele>13</ele>
        <time>2017-06-25T10:17:19.999Z</time>
      </trkpt>
      <trkpt lat="45.82875" lon="-0.67361">
        <ele>13</ele>
        <time>2017-06-25T10:17:20.999Z</time>
      </trkpt>
      <trkpt lat="45.82877" lon="-0.67363">
        <ele>13</ele>
        <time>2017-06-25T10:17:22.999Z</time>
      </trkpt>
      <trkpt lat="45.82879" lon="-0.67364">
        <ele>13</ele>
        <time>2017-06-25T10:17:23.999Z</time>
      </trkpt>
      <trkpt lat="45.8288" lon="-0.67365">
        <ele>13</ele>
        <time>2017-06-25T10:17:24.999Z</time>
      </trkpt>
      <trkpt lat="45.82881" lon="-0.67366">
        <ele>13</ele>
        <time>2017-06-25T10:17:25.999Z</time>
      </trkpt>
      <trkpt lat="45.82882" lon="-0.67367">
        <ele>13</ele>
        <time>2017-06-25T10:17:26.999Z</time>
      </trkpt>
      <trkpt lat="45.82884" lon="-0.67368">
        <ele>13</ele>
        <time>2017-06-25T10:17:27.999Z</time>
      </trkpt>
      <trkpt lat="45.82885" lon="-0.67369">
        <ele>13</ele>
        <time>2017-06-25T10:17:28.999Z</time>
      </trkpt>
      <trkpt lat="45.82885" lon="-0.67369">
        <ele>13</ele>
        <time>2017-06-25T10:17:29.999Z</time>
      </trkpt>
      <trkpt lat="45.82887" lon="-0.6737">
        <ele>13</ele>
        <time>2017-06-25T10:17:31.999Z</time>
      </trkpt>
      <trkpt lat="45.82888" lon="-0.67371">
        <ele>13</ele>
        <time>2017-06-25T10:17:32.999Z</time>
      </trkpt>
      <trkpt lat="45.82889" lon="-0.67372">
        <ele>13</ele>
        <time>2017-06-25T10:17:33.999Z</time>
      </trkpt>
      <trkpt lat="45.8289" lon="-0.67374">
        <ele>13</ele>
        <time>2017-06-25T10:17:34.999Z</time>
      </trkpt>
      <trkpt lat="45.82891" lon="-0.67375">
        <ele>13</ele>
        <time>2017-06-25T10:17:35.999Z</time>
      </trkpt>
      <trkpt lat="45.82892" lon="-0.67376">
        <ele>13</ele>
        <time>2017-06-25T10:17:37.999Z</time>
      </trkpt>
      <trkpt lat="45.82893" lon="-0.67378">
        <ele>13</ele>
        <time>2017-06-25T10:17:38.999Z</time>
      </trkpt>
      <trkpt lat="45.82894" lon="-0.67379">
        <ele>13</ele>
        <time>2017-06-25T10:17:39.999Z</time>
      </trkpt>
      <trkpt lat="45.82895" lon="-0.6738">
        <ele>13</ele>
        <time>2017-06-25T10:17:40.999Z</time>
      </trkpt>
      <trkpt lat="45.82896" lon="-0.6738">
        <ele>13</ele>
        <time>2017-06-25T10:17:41.999Z</time>
      </trkpt>
      <trkpt lat="45.82897" lon="-0.67381">
        <ele>13</ele>
        <time>2017-06-25T10:17:42.999Z</time>
      </trkpt>
      <trkpt lat="45.82898" lon="-0.67381">
        <ele>13</ele>
        <time>2017-06-25T10:17:43.999Z</time>
      </trkpt>
      <trkpt lat="45.829" lon="-0.67382">
        <ele>13</ele>
        <time>2017-06-25T10:17:44.999Z</time>
      </trkpt>
      <trkpt lat="45.829" lon="-0.67383">
        <ele>13</ele>
        <time>2017-06-25T10:17:45.999Z</time>
      </trkpt>
      <trkpt lat="45.82902" lon="-0.67384">
        <ele>13</ele>
        <time>2017-06-25T10:17:47.999Z</time>
      </trkpt>
      <trkpt lat="45.82903" lon="-0.67384">
        <ele>13</ele>
        <time>2017-06-25T10:17:48.999Z</time>
      </trkpt>
      <trkpt lat="45.82904" lon="-0.67385">
        <ele>13</ele>
        <time>2017-06-25T10:17:49.999Z</time>
      </trkpt>
      <trkpt lat="45.82905" lon="-0.67386">
        <ele>13</ele>
        <time>2017-06-25T10:17:50.999Z</time>
      </trkpt>
      <trkpt lat="45.82906" lon="-0.67387">
        <ele>13</ele>
        <time>2017-06-25T10:17:51.999Z</time>
      </trkpt>
      <trkpt lat="45.82907" lon="-0.67388">
        <ele>13</ele>
        <time>2017-06-25T10:17:52.999Z</time>
      </trkpt>
      <trkpt lat="45.82908" lon="-0.67389">
        <ele>13</ele>
        <time>2017-06-25T10:17:53.999Z</time>
      </trkpt>
      <trkpt lat="45.82909" lon="-0.6739">
        <ele>13</ele>
        <time>2017-06-25T10:17:54.999Z</time>
      </trkpt>
      <trkpt lat="45.8291" lon="-0.67391">
        <ele>13</ele>
        <time>2017-06-25T10:17:55.999Z</time>
      </trkpt>
      <trkpt lat="45.82912" lon="-0.67392">
        <ele>13</ele>
        <time>2017-06-25T10:17:56.999Z</time>
      </trkpt>
      <trkpt lat="45.82913" lon="-0.67393">
        <ele>13</ele>
        <time>2017-06-25T10:17:57.999Z</time>
      </trkpt>
      <trkpt lat="45.82914" lon="-0.67394">
        <ele>13</ele>
        <time>2017-06-25T10:17:58.999Z</time>
      </trkpt>
      <trkpt lat="45.82915" lon="-0.67396">
        <ele>12</ele>
        <time>2017-06-25T10:17:59.999Z</time>
      </trkpt>
      <trkpt lat="45.82916" lon="-0.67397">
        <ele>12</ele>
        <time>2017-06-25T10:18:00.999Z</time>
      </trkpt>
      <trkpt lat="45.82917" lon="-0.67398">
        <ele>13</ele>
        <time>2017-06-25T10:18:01.999Z</time>
      </trkpt>
      <trkpt lat="45.82919" lon="-0.67399">
        <ele>13</ele>
        <time>2017-06-25T10:18:02.999Z</time>
      </trkpt>
      <trkpt lat="45.8292" lon="-0.674">
        <ele>13</ele>
        <time>2017-06-25T10:18:03.999Z</time>
      </trkpt>
      <trkpt lat="45.82921" lon="-0.67402">
        <ele>13</ele>
        <time>2017-06-25T10:18:04.999Z</time>
      </trkpt>
      <trkpt lat="45.82922" lon="-0.67403">
        <ele>12</ele>
        <time>2017-06-25T10:18:05.999Z</time>
      </trkpt>
      <trkpt lat="45.82923" lon="-0.67404">
        <ele>12</ele>
        <time>2017-06-25T10:18:06.999Z</time>
      </trkpt>
      <trkpt lat="45.82924" lon="-0.67405">
        <ele>12</ele>
        <time>2017-06-25T10:18:07.999Z</time>
      </trkpt>
      <trkpt lat="45.82925" lon="-0.67406">
        <ele>12</ele>
        <time>2017-06-25T10:18:08.999Z</time>
      </trkpt>
      <trkpt lat="45.82925" lon="-0.67406">
        <ele>12</ele>
        <time>2017-06-25T10:18:09.999Z</time>
      </trkpt>
      <trkpt lat="45.82927" lon="-0.67407">
        <ele>12</ele>
        <time>2017-06-25T10:18:10.999Z</time>
      </trkpt>
      <trkpt lat="45.82928" lon="-0.67408">
        <ele>12</ele>
        <time>2017-06-25T10:18:12.999Z</time>
      </trkpt>
      <trkpt lat="45.82929" lon="-0.67409">
        <ele>12</ele>
        <time>2017-06-25T10:18:14.999Z</time>
      </trkpt>
      <trkpt lat="45.8293" lon="-0.6741">
        <ele>12</ele>
        <time>2017-06-25T10:18:15.999Z</time>
      </trkpt>
      <trkpt lat="45.82931" lon="-0.67411">
        <ele>12</ele>
        <time>2017-06-25T10:18:16.999Z</time>
      </trkpt>
      <trkpt lat="45.82932" lon="-0.67412">
        <ele>12</ele>
        <time>2017-06-25T10:18:17.999Z</time>
      </trkpt>
      <trkpt lat="45.82933" lon="-0.67412">
        <ele>13</ele>
        <time>2017-06-25T10:18:18.999Z</time>
      </trkpt>
      <trkpt lat="45.82934" lon="-0.67413">
        <ele>13</ele>
        <time>2017-06-25T10:18:19.999Z</time>
      </trkpt>
      <trkpt lat="45.82935" lon="-0.67414">
        <ele>13</ele>
        <time>2017-06-25T10:18:20.999Z</time>
      </trkpt>
      <trkpt lat="45.82936" lon="-0.67415">
        <ele>13</ele>
        <time>2017-06-25T10:18:21.999Z</time>
      </trkpt>
      <trkpt lat="45.82937" lon="-0.67416">
        <ele>13</ele>
        <time>2017-06-25T10:18:22.999Z</time>
      </trkpt>
      <trkpt lat="45.82938" lon="-0.67417">
        <ele>12</ele>
        <time>2017-06-25T10:18:23.999Z</time>
      </trkpt>
      <trkpt lat="45.82939" lon="-0.67418">
        <ele>12</ele>
        <time>2017-06-25T10:18:24.999Z</time>
      </trkpt>
      <trkpt lat="45.8294" lon="-0.6742">
        <ele>12</ele>
        <time>2017-06-25T10:18:25.999Z</time>
      </trkpt>
      <trkpt lat="45.82941" lon="-0.67421">
        <ele>13</ele>
        <time>2017-06-25T10:18:26.999Z</time>
      </trkpt>
      <trkpt lat="45.82942" lon="-0.67423">
        <ele>13</ele>
        <time>2017-06-25T10:18:27.999Z</time>
      </trkpt>
      <trkpt lat="45.82943" lon="-0.67424">
        <ele>13</ele>
        <time>2017-06-25T10:18:28.999Z</time>
      </trkpt>
      <trkpt lat="45.82944" lon="-0.67426">
        <ele>13</ele>
        <time>2017-06-25T10:18:29.999Z</time>
      </trkpt>
      <trkpt lat="45.82945" lon="-0.67427">
        <ele>13</ele>
        <time>2017-06-25T10:18:30.999Z</time>
      </trkpt>
      <trkpt lat="45.82946" lon="-0.67428">
        <ele>13</ele>
        <time>2017-06-25T10:18:31.999Z</time>
      </trkpt>
      <trkpt lat="45.82948" lon="-0.6743">
        <ele>13</ele>
        <time>2017-06-25T10:18:32.999Z</time>
      </trkpt>
      <trkpt lat="45.82949" lon="-0.67431">
        <ele>13</ele>
        <time>2017-06-25T10:18:33.999Z</time>
      </trkpt>
      <trkpt lat="45.8295" lon="-0.67432">
        <ele>13</ele>
        <time>2017-06-25T10:18:34.999Z</time>
      </trkpt>
      <trkpt lat="45.82951" lon="-0.67433">
        <ele>13</ele>
        <time>2017-06-25T10:18:35.999Z</time>
      </trkpt>
      <trkpt lat="45.82953" lon="-0.67434">
        <ele>13</ele>
        <time>2017-06-25T10:18:36.999Z</time>
      </trkpt>
      <trkpt lat="45.82954" lon="-0.67436">
        <ele>13</ele>
        <time>2017-06-25T10:18:37.999Z</time>
      </trkpt>
      <trkpt lat="45.82955" lon="-0.67437">
        <ele>13</ele>
        <time>2017-06-25T10:18:38.999Z</time>
      </trkpt>
      <trkpt lat="45.82956" lon="-0.67438">
        <ele>13</ele>
        <time>2017-06-25T10:18:39.999Z</time>
      </trkpt>
      <trkpt lat="45.82957" lon="-0.67439">
        <ele>13</ele>
        <time>2017-06-25T10:18:40.999Z</time>
      </trkpt>
      <trkpt lat="45.82958" lon="-0.67439">
        <ele>13</ele>
        <time>2017-06-25T10:18:41.999Z</time>
      </trkpt>
      <trkpt lat="45.82959" lon="-0.6744">
        <ele>13</ele>
        <time>2017-06-25T10:18:42.999Z</time>
      </trkpt>
      <trkpt lat="45.8296" lon="-0.67441">
        <ele>13</ele>
        <time>2017-06-25T10:18:43.999Z</time>
      </trkpt>
      <trkpt lat="45.82961" lon="-0.67443">
        <ele>13</ele>
        <time>2017-06-25T10:18:44.999Z</time>
      </trkpt>
      <trkpt lat="45.82962" lon="-0.67444">
        <ele>13</ele>
        <time>2017-06-25T10:18:45.999Z</time>
      </trkpt>
      <trkpt lat="45.82964" lon="-0.67445">
        <ele>13</ele>
        <time>2017-06-25T10:18:46.999Z</time>
      </trkpt>
      <trkpt lat="45.82964" lon="-0.67446">
        <ele>13</ele>
        <time>2017-06-25T10:18:47.999Z</time>
      </trkpt>
      <trkpt lat="45.82966" lon="-0.67448">
        <ele>13</ele>
        <time>2017-06-25T10:18:49.999Z</time>
      </trkpt>
      <trkpt lat="45.82967" lon="-0.67449">
        <ele>13</ele>
        <time>2017-06-25T10:18:51.999Z</time>
      </trkpt>
      <trkpt lat="45.82968" lon="-0.6745">
        <ele>13</ele>
        <time>2017-06-25T10:18:53.999Z</time>
      </trkpt>
      <trkpt lat="45.82969" lon="-0.6745">
        <ele>13</ele>
        <time>2017-06-25T10:18:54.999Z</time>
      </trkpt>
      <trkpt lat="45.8297" lon="-0.67451">
        <ele>13</ele>
        <time>2017-06-25T10:18:55.999Z</time>
      </trkpt>
      <trkpt lat="45.82971" lon="-0.67451">
        <ele>13</ele>
        <time>2017-06-25T10:18:56.999Z</time>
      </trkpt>
      <trkpt lat="45.82972" lon="-0.67452">
        <ele>13</ele>
        <time>2017-06-25T10:18:57.999Z</time>
      </trkpt>
      <trkpt lat="45.82973" lon="-0.67453">
        <ele>13</ele>
        <time>2017-06-25T10:18:58.999Z</time>
      </trkpt>
      <trkpt lat="45.82974" lon="-0.67455">
        <ele>13</ele>
        <time>2017-06-25T10:18:59.999Z</time>
      </trkpt>
      <trkpt lat="45.82975" lon="-0.67456">
        <ele>13</ele>
        <time>2017-06-25T10:19:00.999Z</time>
      </trkpt>
      <trkpt lat="45.82975" lon="-0.67457">
        <ele>13</ele>
        <time>2017-06-25T10:19:01.999Z</time>
      </trkpt>
      <trkpt lat="45.82976" lon="-0.67458">
        <ele>13</ele>
        <time>2017-06-25T10:19:02.999Z</time>
      </trkpt>
      <trkpt lat="45.82977" lon="-0.67459">
        <ele>13</ele>
        <time>2017-06-25T10:19:03.999Z</time>
      </trkpt>
      <trkpt lat="45.82978" lon="-0.67461">
        <ele>13</ele>
        <time>2017-06-25T10:19:04.999Z</time>
      </trkpt>
      <trkpt lat="45.82979" lon="-0.67462">
        <ele>13</ele>
        <time>2017-06-25T10:19:05.999Z</time>
      </trkpt>
      <trkpt lat="45.8298" lon="-0.67463">
        <ele>13</ele>
        <time>2017-06-25T10:19:06.999Z</time>
      </trkpt>
      <trkpt lat="45.82981" lon="-0.67465">
        <ele>13</ele>
        <time>2017-06-25T10:19:07.999Z</time>
      </trkpt>
      <trkpt lat="45.82982" lon="-0.67465">
        <ele>13</ele>
        <time>2017-06-25T10:19:08.999Z</time>
      </trkpt>
      <trkpt lat="45.82983" lon="-0.67466">
        <ele>13</ele>
        <time>2017-06-25T10:19:09.999Z</time>
      </trkpt>
      <trkpt lat="45.82984" lon="-0.67467">
        <ele>13</ele>
        <time>2017-06-25T10:19:10.999Z</time>
      </trkpt>
      <trkpt lat="45.82985" lon="-0.67468">
        <ele>13</ele>
        <time>2017-06-25T10:19:11.999Z</time>
      </trkpt>
      <trkpt lat="45.82986" lon="-0.67468">
        <ele>13</ele>
        <time>2017-06-25T10:19:12.999Z</time>
      </trkpt>
      <trkpt lat="45.82987" lon="-0.6747">
        <ele>13</ele>
        <time>2017-06-25T10:19:13.999Z</time>
      </trkpt>
      <trkpt lat="45.82988" lon="-0.67471">
        <ele>13</ele>
        <time>2017-06-25T10:19:14.999Z</time>
      </trkpt>
      <trkpt lat="45.8299" lon="-0.67472">
        <ele>13</ele>
        <time>2017-06-25T10:19:15.999Z</time>
      </trkpt>
      <trkpt lat="45.82991" lon="-0.67473">
        <ele>13</ele>
        <time>2017-06-25T10:19:16.999Z</time>
      </trkpt>
      <trkpt lat="45.82992" lon="-0.67474">
        <ele>13</ele>
        <time>2017-06-25T10:19:17.999Z</time>
      </trkpt>
      <trkpt lat="45.82993" lon="-0.67475">
        <ele>13</ele>
        <time>2017-06-25T10:19:18.999Z</time>
      </trkpt>
      <trkpt lat="45.82994" lon="-0.67476">
        <ele>13</ele>
        <time>2017-06-25T10:19:19.999Z</time>
      </trkpt>
      <trkpt lat="45.82995" lon="-0.67478">
        <ele>12</ele>
        <time>2017-06-25T10:19:20.999Z</time>
      </trkpt>
      <trkpt lat="45.82996" lon="-0.67479">
        <ele>12</ele>
        <time>2017-06-25T10:19:22.999Z</time>
      </trkpt>
      <trkpt lat="45.82997" lon="-0.6748">
        <ele>12</ele>
        <time>2017-06-25T10:19:23.999Z</time>
      </trkpt>
      <trkpt lat="45.82998" lon="-0.6748">
        <ele>12</ele>
        <time>2017-06-25T10:19:24.999Z</time>
      </trkpt>
      <trkpt lat="45.82999" lon="-0.67481">
        <ele>12</ele>
        <time>2017-06-25T10:19:25.999Z</time>
      </trkpt>
      <trkpt lat="45.83" lon="-0.67481">
        <ele>12</ele>
        <time>2017-06-25T10:19:26.999Z</time>
      </trkpt>
      <trkpt lat="45.83001" lon="-0.67482">
        <ele>12</ele>
        <time>2017-06-25T10:19:27.999Z</time>
      </trkpt>
      <trkpt lat="45.83003" lon="-0.67483">
        <ele>12</ele>
        <time>2017-06-25T10:19:28.999Z</time>
      </trkpt>
      <trkpt lat="45.83004" lon="-0.67484">
        <ele>12</ele>
        <time>2017-06-25T10:19:29.999Z</time>
      </trkpt>
      <trkpt lat="45.83006" lon="-0.67485">
        <ele>12</ele>
        <time>2017-06-25T10:19:30.999Z</time>
      </trkpt>
      <trkpt lat="45.83007" lon="-0.67485">
        <ele>12</ele>
        <time>2017-06-25T10:19:31.999Z</time>
      </trkpt>
      <trkpt lat="45.83009" lon="-0.67486">
        <ele>12</ele>
        <time>2017-06-25T10:19:32.999Z</time>
      </trkpt>
      <trkpt lat="45.8301" lon="-0.67487">
        <ele>12</ele>
        <time>2017-06-25T10:19:33.999Z</time>
      </trkpt>
      <trkpt lat="45.83011" lon="-0.67488">
        <ele>12</ele>
        <time>2017-06-25T10:19:34.999Z</time>
      </trkpt>
      <trkpt lat="45.83012" lon="-0.67489">
        <ele>12</ele>
        <time>2017-06-25T10:19:35.999Z</time>
      </trkpt>
      <trkpt lat="45.83013" lon="-0.67489">
        <ele>12</ele>
        <time>2017-06-25T10:19:36.999Z</time>
      </trkpt>
      <trkpt lat="45.83015" lon="-0.6749">
        <ele>12</ele>
        <time>2017-06-25T10:19:37.999Z</time>
      </trkpt>
      <trkpt lat="45.83016" lon="-0.6749">
        <ele>12</ele>
        <time>2017-06-25T10:19:38.999Z</time>
      </trkpt>
      <trkpt lat="45.83017" lon="-0.6749">
        <ele>12</ele>
        <time>2017-06-25T10:19:39.999Z</time>
      </trkpt>
      <trkpt lat="45.83019" lon="-0.67491">
        <ele>12</ele>
        <time>2017-06-25T10:19:40.999Z</time>
      </trkpt>
      <trkpt lat="45.8302" lon="-0.67491">
        <ele>12</ele>
        <time>2017-06-25T10:19:41.999Z</time>
      </trkpt>
      <trkpt lat="45.83021" lon="-0.67492">
        <ele>12</ele>
        <time>2017-06-25T10:19:42.999Z</time>
      </trkpt>
      <trkpt lat="45.83023" lon="-0.67493">
        <ele>12</ele>
        <time>2017-06-25T10:19:44.999Z</time>
      </trkpt>
      <trkpt lat="45.83025" lon="-0.67493">
        <ele>12</ele>
        <time>2017-06-25T10:19:45.999Z</time>
      </trkpt>
      <trkpt lat="45.83025" lon="-0.67493">
        <ele>12</ele>
        <time>2017-06-25T10:19:46.999Z</time>
      </trkpt>
      <trkpt lat="45.83027" lon="-0.67494">
        <ele>12</ele>
        <time>2017-06-25T10:19:47.999Z</time>
      </trkpt>
      <trkpt lat="45.83028" lon="-0.67495">
        <ele>12</ele>
        <time>2017-06-25T10:19:48.999Z</time>
      </trkpt>
      <trkpt lat="45.83029" lon="-0.67496">
        <ele>12</ele>
        <time>2017-06-25T10:19:49.999Z</time>
      </trkpt>
      <trkpt lat="45.8303" lon="-0.67498">
        <ele>12</ele>
        <time>2017-06-25T10:19:50.999Z</time>
      </trkpt>
      <trkpt lat="45.83031" lon="-0.67499">
        <ele>12</ele>
        <time>2017-06-25T10:19:51.999Z</time>
      </trkpt>
      <trkpt lat="45.83033" lon="-0.675">
        <ele>12</ele>
        <time>2017-06-25T10:19:52.999Z</time>
      </trkpt>
      <trkpt lat="45.83034" lon="-0.675">
        <ele>12</ele>
        <time>2017-06-25T10:19:53.999Z</time>
      </trkpt>
      <trkpt lat="45.83035" lon="-0.67501">
        <ele>12</ele>
        <time>2017-06-25T10:19:54.999Z</time>
      </trkpt>
      <trkpt lat="45.83036" lon="-0.67502">
        <ele>12</ele>
        <time>2017-06-25T10:19:55.999Z</time>
      </trkpt>
      <trkpt lat="45.83038" lon="-0.67503">
        <ele>12</ele>
        <time>2017-06-25T10:19:56.999Z</time>
      </trkpt>
      <trkpt lat="45.83039" lon="-0.67503">
        <ele>12</ele>
        <time>2017-06-25T10:19:57.999Z</time>
      </trkpt>
      <trkpt lat="45.83041" lon="-0.67504">
        <ele>12</ele>
        <time>2017-06-25T10:19:58.999Z</time>
      </trkpt>
      <trkpt lat="45.83042" lon="-0.67505">
        <ele>12</ele>
        <time>2017-06-25T10:19:59.999Z</time>
      </trkpt>
      <trkpt lat="45.83043" lon="-0.67506">
        <ele>12</ele>
        <time>2017-06-25T10:20:00.999Z</time>
      </trkpt>
      <trkpt lat="45.83044" lon="-0.67507">
        <ele>12</ele>
        <time>2017-06-25T10:20:01.999Z</time>
      </trkpt>
      <trkpt lat="45.83046" lon="-0.67508">
        <ele>12</ele>
        <time>2017-06-25T10:20:02.999Z</time>
      </trkpt>
      <trkpt lat="45.83046" lon="-0.6751">
        <ele>12</ele>
        <time>2017-06-25T10:20:04.999Z</time>
      </trkpt>
      <trkpt lat="45.83048" lon="-0.67512">
        <ele>13</ele>
        <time>2017-06-25T10:20:06.999Z</time>
      </trkpt>
      <trkpt lat="45.83049" lon="-0.67513">
        <ele>13</ele>
        <time>2017-06-25T10:20:07.999Z</time>
      </trkpt>
      <trkpt lat="45.83051" lon="-0.67513">
        <ele>13</ele>
        <time>2017-06-25T10:20:08.999Z</time>
      </trkpt>
      <trkpt lat="45.83052" lon="-0.67514">
        <ele>13</ele>
        <time>2017-06-25T10:20:09.999Z</time>
      </trkpt>
      <trkpt lat="45.83053" lon="-0.67515">
        <ele>13</ele>
        <time>2017-06-25T10:20:10.999Z</time>
      </trkpt>
      <trkpt lat="45.83054" lon="-0.67516">
        <ele>13</ele>
        <time>2017-06-25T10:20:11.999Z</time>
      </trkpt>
      <trkpt lat="45.83056" lon="-0.67517">
        <ele>13</ele>
        <time>2017-06-25T10:20:12.999Z</time>
      </trkpt>
      <trkpt lat="45.83057" lon="-0.67518">
        <ele>13</ele>
        <time>2017-06-25T10:20:13.999Z</time>
      </trkpt>
      <trkpt lat="45.83058" lon="-0.67519">
        <ele>13</ele>
        <time>2017-06-25T10:20:14.999Z</time>
      </trkpt>
      <trkpt lat="45.8306" lon="-0.6752">
        <ele>13</ele>
        <time>2017-06-25T10:20:15.999Z</time>
      </trkpt>
      <trkpt lat="45.83061" lon="-0.67521">
        <ele>13</ele>
        <time>2017-06-25T10:20:16.999Z</time>
      </trkpt>
      <trkpt lat="45.83062" lon="-0.67522">
        <ele>13</ele>
        <time>2017-06-25T10:20:18.999Z</time>
      </trkpt>
      <trkpt lat="45.83064" lon="-0.67523">
        <ele>13</ele>
        <time>2017-06-25T10:20:20.999Z</time>
      </trkpt>
      <trkpt lat="45.83065" lon="-0.67524">
        <ele>13</ele>
        <time>2017-06-25T10:20:21.999Z</time>
      </trkpt>
      <trkpt lat="45.83066" lon="-0.67525">
        <ele>13</ele>
        <time>2017-06-25T10:20:22.999Z</time>
      </trkpt>
      <trkpt lat="45.83067" lon="-0.67525">
        <ele>13</ele>
        <time>2017-06-25T10:20:23.999Z</time>
      </trkpt>
      <trkpt lat="45.83069" lon="-0.67526">
        <ele>13</ele>
        <time>2017-06-25T10:20:24.999Z</time>
      </trkpt>
      <trkpt lat="45.83071" lon="-0.67526">
        <ele>13</ele>
        <time>2017-06-25T10:20:25.999Z</time>
      </trkpt>
      <trkpt lat="45.83071" lon="-0.67527">
        <ele>13</ele>
        <time>2017-06-25T10:20:28.999Z</time>
      </trkpt>
      <trkpt lat="45.83072" lon="-0.67529">
        <ele>13</ele>
        <time>2017-06-25T10:20:38.999Z</time>
      </trkpt>
      <trkpt lat="45.83073" lon="-0.67532">
        <ele>13</ele>
        <time>2017-06-25T10:20:41.999Z</time>
      </trkpt>
      <trkpt lat="45.83074" lon="-0.67533">
        <ele>13</ele>
        <time>2017-06-25T10:20:43.999Z</time>
      </trkpt>
      <trkpt lat="45.83075" lon="-0.67535">
        <ele>13</ele>
        <time>2017-06-25T10:20:45.999Z</time>
      </trkpt>
      <trkpt lat="45.83077" lon="-0.67537">
        <ele>13</ele>
        <time>2017-06-25T10:20:47.999Z</time>
      </trkpt>
      <trkpt lat="45.83078" lon="-0.67537">
        <ele>13</ele>
        <time>2017-06-25T10:20:48.999Z</time>
      </trkpt>
      <trkpt lat="45.83079" lon="-0.67538">
        <ele>13</ele>
        <time>2017-06-25T10:20:49.999Z</time>
      </trkpt>
      <trkpt lat="45.8308" lon="-0.67539">
        <ele>13</ele>
        <time>2017-06-25T10:20:50.999Z</time>
      </trkpt>
      <trkpt lat="45.83082" lon="-0.6754">
        <ele>13</ele>
        <time>2017-06-25T10:20:52.999Z</time>
      </trkpt>
      <trkpt lat="45.83083" lon="-0.6754">
        <ele>13</ele>
        <time>2017-06-25T10:20:53.999Z</time>
      </trkpt>
      <trkpt lat="45.83084" lon="-0.67541">
        <ele>12</ele>
        <time>2017-06-25T10:20:54.999Z</time>
      </trkpt>
      <trkpt lat="45.83085" lon="-0.67542">
        <ele>12</ele>
        <time>2017-06-25T10:20:55.999Z</time>
      </trkpt>
      <trkpt lat="45.83086" lon="-0.67543">
        <ele>12</ele>
        <time>2017-06-25T10:20:56.999Z</time>
      </trkpt>
      <trkpt lat="45.83087" lon="-0.67544">
        <ele>12</ele>
        <time>2017-06-25T10:20:57.999Z</time>
      </trkpt>
      <trkpt lat="45.83088" lon="-0.67544">
        <ele>12</ele>
        <time>2017-06-25T10:20:58.999Z</time>
      </trkpt>
      <trkpt lat="45.83089" lon="-0.67545">
        <ele>12</ele>
        <time>2017-06-25T10:20:59.999Z</time>
      </trkpt>
      <trkpt lat="45.8309" lon="-0.67546">
        <ele>12</ele>
        <time>2017-06-25T10:21:00.999Z</time>
      </trkpt>
      <trkpt lat="45.83091" lon="-0.67547">
        <ele>12</ele>
        <time>2017-06-25T10:21:01.999Z</time>
      </trkpt>
      <trkpt lat="45.83092" lon="-0.67548">
        <ele>12</ele>
        <time>2017-06-25T10:21:02.999Z</time>
      </trkpt>
      <trkpt lat="45.83094" lon="-0.67549">
        <ele>12</ele>
        <time>2017-06-25T10:21:04.999Z</time>
      </trkpt>
      <trkpt lat="45.83095" lon="-0.6755">
        <ele>12</ele>
        <time>2017-06-25T10:21:05.999Z</time>
      </trkpt>
      <trkpt lat="45.83096" lon="-0.67551">
        <ele>12</ele>
        <time>2017-06-25T10:21:06.999Z</time>
      </trkpt>
      <trkpt lat="45.83098" lon="-0.67552">
        <ele>12</ele>
        <time>2017-06-25T10:21:08.999Z</time>
      </trkpt>
      <trkpt lat="45.83099" lon="-0.67553">
        <ele>12</ele>
        <time>2017-06-25T10:21:09.999Z</time>
      </trkpt>
      <trkpt lat="45.83101" lon="-0.67553">
        <ele>12</ele>
        <time>2017-06-25T10:21:10.999Z</time>
      </trkpt>
      <trkpt lat="45.83102" lon="-0.67554">
        <ele>12</ele>
        <time>2017-06-25T10:21:11.999Z</time>
      </trkpt>
      <trkpt lat="45.83103" lon="-0.67555">
        <ele>12</ele>
        <time>2017-06-25T10:21:12.999Z</time>
      </trkpt>
      <trkpt lat="45.83104" lon="-0.67556">
        <ele>12</ele>
        <time>2017-06-25T10:21:13.999Z</time>
      </trkpt>
      <trkpt lat="45.83105" lon="-0.67557">
        <ele>12</ele>
        <time>2017-06-25T10:21:14.999Z</time>
      </trkpt>
      <trkpt lat="45.83107" lon="-0.67558">
        <ele>12</ele>
        <time>2017-06-25T10:21:15.999Z</time>
      </trkpt>
      <trkpt lat="45.83108" lon="-0.67559">
        <ele>12</ele>
        <time>2017-06-25T10:21:16.999Z</time>
      </trkpt>
      <trkpt lat="45.83109" lon="-0.6756">
        <ele>12</ele>
        <time>2017-06-25T10:21:17.999Z</time>
      </trkpt>
      <trkpt lat="45.83111" lon="-0.6756">
        <ele>12</ele>
        <time>2017-06-25T10:21:18.999Z</time>
      </trkpt>
      <trkpt lat="45.83112" lon="-0.67561">
        <ele>12</ele>
        <time>2017-06-25T10:21:19.999Z</time>
      </trkpt>
      <trkpt lat="45.83113" lon="-0.67562">
        <ele>12</ele>
        <time>2017-06-25T10:21:20.999Z</time>
      </trkpt>
      <trkpt lat="45.83114" lon="-0.67562">
        <ele>12</ele>
        <time>2017-06-25T10:21:21.999Z</time>
      </trkpt>
      <trkpt lat="45.83115" lon="-0.67563">
        <ele>12</ele>
        <time>2017-06-25T10:21:22.999Z</time>
      </trkpt>
      <trkpt lat="45.83117" lon="-0.67565">
        <ele>12</ele>
        <time>2017-06-25T10:21:23.999Z</time>
      </trkpt>
      <trkpt lat="45.83118" lon="-0.67566">
        <ele>12</ele>
        <time>2017-06-25T10:21:24.999Z</time>
      </trkpt>
      <trkpt lat="45.8312" lon="-0.67567">
        <ele>12</ele>
        <time>2017-06-25T10:21:25.999Z</time>
      </trkpt>
      <trkpt lat="45.83122" lon="-0.67568">
        <ele>12</ele>
        <time>2017-06-25T10:21:26.999Z</time>
      </trkpt>
      <trkpt lat="45.83123" lon="-0.67568">
        <ele>12</ele>
        <time>2017-06-25T10:21:27.999Z</time>
      </trkpt>
      <trkpt lat="45.83124" lon="-0.67569">
        <ele>12</ele>
        <time>2017-06-25T10:21:28.999Z</time>
      </trkpt>
      <trkpt lat="45.83125" lon="-0.6757">
        <ele>12</ele>
        <time>2017-06-25T10:21:29.999Z</time>
      </trkpt>
      <trkpt lat="45.83126" lon="-0.6757">
        <ele>12</ele>
        <time>2017-06-25T10:21:30.999Z</time>
      </trkpt>
      <trkpt lat="45.83127" lon="-0.67572">
        <ele>12</ele>
        <time>2017-06-25T10:21:31.999Z</time>
      </trkpt>
      <trkpt lat="45.83128" lon="-0.67572">
        <ele>12</ele>
        <time>2017-06-25T10:21:32.999Z</time>
      </trkpt>
      <trkpt lat="45.83128" lon="-0.67573">
        <ele>12</ele>
        <time>2017-06-25T10:21:33.999Z</time>
      </trkpt>
      <trkpt lat="45.83129" lon="-0.67574">
        <ele>12</ele>
        <time>2017-06-25T10:21:34.999Z</time>
      </trkpt>
      <trkpt lat="45.8313" lon="-0.67576">
        <ele>12</ele>
        <time>2017-06-25T10:21:35.999Z</time>
      </trkpt>
      <trkpt lat="45.83131" lon="-0.67577">
        <ele>12</ele>
        <time>2017-06-25T10:21:36.999Z</time>
      </trkpt>
      <trkpt lat="45.83132" lon="-0.67579">
        <ele>12</ele>
        <time>2017-06-25T10:21:38.999Z</time>
      </trkpt>
      <trkpt lat="45.83133" lon="-0.67579">
        <ele>12</ele>
        <time>2017-06-25T10:21:39.999Z</time>
      </trkpt>
      <trkpt lat="45.83134" lon="-0.6758">
        <ele>12</ele>
        <time>2017-06-25T10:21:40.999Z</time>
      </trkpt>
      <trkpt lat="45.83135" lon="-0.67581">
        <ele>12</ele>
        <time>2017-06-25T10:21:41.999Z</time>
      </trkpt>
      <trkpt lat="45.83136" lon="-0.67582">
        <ele>12</ele>
        <time>2017-06-25T10:21:42.999Z</time>
      </trkpt>
      <trkpt lat="45.83137" lon="-0.67582">
        <ele>12</ele>
        <time>2017-06-25T10:21:43.999Z</time>
      </trkpt>
      <trkpt lat="45.83139" lon="-0.67583">
        <ele>12</ele>
        <time>2017-06-25T10:21:45.999Z</time>
      </trkpt>
      <trkpt lat="45.8314" lon="-0.67584">
        <ele>12</ele>
        <time>2017-06-25T10:21:46.999Z</time>
      </trkpt>
      <trkpt lat="45.83141" lon="-0.67584">
        <ele>12</ele>
        <time>2017-06-25T10:21:47.999Z</time>
      </trkpt>
      <trkpt lat="45.83143" lon="-0.67585">
        <ele>12</ele>
        <time>2017-06-25T10:21:49.999Z</time>
      </trkpt>
      <trkpt lat="45.83144" lon="-0.67585">
        <ele>12</ele>
        <time>2017-06-25T10:21:50.999Z</time>
      </trkpt>
      <trkpt lat="45.83146" lon="-0.67586">
        <ele>12</ele>
        <time>2017-06-25T10:21:51.999Z</time>
      </trkpt>
      <trkpt lat="45.83147" lon="-0.67587">
        <ele>12</ele>
        <time>2017-06-25T10:21:52.999Z</time>
      </trkpt>
      <trkpt lat="45.83149" lon="-0.67588">
        <ele>12</ele>
        <time>2017-06-25T10:21:53.999Z</time>
      </trkpt>
      <trkpt lat="45.8315" lon="-0.67588">
        <ele>12</ele>
        <time>2017-06-25T10:21:54.999Z</time>
      </trkpt>
      <trkpt lat="45.83151" lon="-0.67589">
        <ele>12</ele>
        <time>2017-06-25T10:21:55.999Z</time>
      </trkpt>
      <trkpt lat="45.83152" lon="-0.6759">
        <ele>11</ele>
        <time>2017-06-25T10:21:56.999Z</time>
      </trkpt>
      <trkpt lat="45.83154" lon="-0.6759">
        <ele>11</ele>
        <time>2017-06-25T10:21:57.999Z</time>
      </trkpt>
      <trkpt lat="45.83155" lon="-0.67591">
        <ele>11</ele>
        <time>2017-06-25T10:21:58.999Z</time>
      </trkpt>
      <trkpt lat="45.83156" lon="-0.67592">
        <ele>11</ele>
        <time>2017-06-25T10:21:59.999Z</time>
      </trkpt>
      <trkpt lat="45.83157" lon="-0.67592">
        <ele>11</ele>
        <time>2017-06-25T10:22:00.999Z</time>
      </trkpt>
      <trkpt lat="45.83158" lon="-0.67593">
        <ele>11</ele>
        <time>2017-06-25T10:22:01.999Z</time>
      </trkpt>
      <trkpt lat="45.83159" lon="-0.67594">
        <ele>11</ele>
        <time>2017-06-25T10:22:02.999Z</time>
      </trkpt>
      <trkpt lat="45.8316" lon="-0.67595">
        <ele>11</ele>
        <time>2017-06-25T10:22:03.999Z</time>
      </trkpt>
      <trkpt lat="45.83161" lon="-0.67596">
        <ele>11</ele>
        <time>2017-06-25T10:22:04.999Z</time>
      </trkpt>
      <trkpt lat="45.83163" lon="-0.67597">
        <ele>11</ele>
        <time>2017-06-25T10:22:05.999Z</time>
      </trkpt>
      <trkpt lat="45.83164" lon="-0.67598">
        <ele>11</ele>
        <time>2017-06-25T10:22:06.999Z</time>
      </trkpt>
      <trkpt lat="45.83165" lon="-0.67599">
        <ele>11</ele>
        <time>2017-06-25T10:22:07.999Z</time>
      </trkpt>
      <trkpt lat="45.83167" lon="-0.676">
        <ele>11</ele>
        <time>2017-06-25T10:22:08.999Z</time>
      </trkpt>
      <trkpt lat="45.83168" lon="-0.67602">
        <ele>11</ele>
        <time>2017-06-25T10:22:09.999Z</time>
      </trkpt>
      <trkpt lat="45.83169" lon="-0.67603">
        <ele>11</ele>
        <time>2017-06-25T10:22:10.999Z</time>
      </trkpt>
      <trkpt lat="45.8317" lon="-0.67604">
        <ele>11</ele>
        <time>2017-06-25T10:22:11.999Z</time>
      </trkpt>
      <trkpt lat="45.83171" lon="-0.67605">
        <ele>11</ele>
        <time>2017-06-25T10:22:12.999Z</time>
      </trkpt>
      <trkpt lat="45.83172" lon="-0.67606">
        <ele>11</ele>
        <time>2017-06-25T10:22:13.999Z</time>
      </trkpt>
      <trkpt lat="45.83174" lon="-0.67608">
        <ele>11</ele>
        <time>2017-06-25T10:22:14.999Z</time>
      </trkpt>
      <trkpt lat="45.83175" lon="-0.67609">
        <ele>11</ele>
        <time>2017-06-25T10:22:15.999Z</time>
      </trkpt>
      <trkpt lat="45.83176" lon="-0.67609">
        <ele>11</ele>
        <time>2017-06-25T10:22:16.999Z</time>
      </trkpt>
      <trkpt lat="45.83178" lon="-0.67611">
        <ele>11</ele>
        <time>2017-06-25T10:22:17.999Z</time>
      </trkpt>
      <trkpt lat="45.83179" lon="-0.67612">
        <ele>11</ele>
        <time>2017-06-25T10:22:18.999Z</time>
      </trkpt>
      <trkpt lat="45.83181" lon="-0.67613">
        <ele>11</ele>
        <time>2017-06-25T10:22:19.999Z</time>
      </trkpt>
      <trkpt lat="45.83182" lon="-0.67615">
        <ele>11</ele>
        <time>2017-06-25T10:22:20.999Z</time>
      </trkpt>
      <trkpt lat="45.83183" lon="-0.67616">
        <ele>11</ele>
        <time>2017-06-25T10:22:21.999Z</time>
      </trkpt>
      <trkpt lat="45.83184" lon="-0.67617">
        <ele>11</ele>
        <time>2017-06-25T10:22:22.999Z</time>
      </trkpt>
      <trkpt lat="45.83184" lon="-0.67617">
        <ele>11</ele>
        <time>2017-06-25T10:22:23.999Z</time>
      </trkpt>
      <trkpt lat="45.83185" lon="-0.67618">
        <ele>11</ele>
        <time>2017-06-25T10:22:24.999Z</time>
      </trkpt>
      <trkpt lat="45.83187" lon="-0.67619">
        <ele>11</ele>
        <time>2017-06-25T10:22:25.999Z</time>
      </trkpt>
      <trkpt lat="45.83188" lon="-0.6762">
        <ele>11</ele>
        <time>2017-06-25T10:22:26.999Z</time>
      </trkpt>
      <trkpt lat="45.8319" lon="-0.67621">
        <ele>11</ele>
        <time>2017-06-25T10:22:28.999Z</time>
      </trkpt>
      <trkpt lat="45.83191" lon="-0.67622">
        <ele>11</ele>
        <time>2017-06-25T10:22:29.999Z</time>
      </trkpt>
      <trkpt lat="45.83192" lon="-0.67623">
        <ele>11</ele>
        <time>2017-06-25T10:22:30.999Z</time>
      </trkpt>
      <trkpt lat="45.83193" lon="-0.67625">
        <ele>11</ele>
        <time>2017-06-25T10:22:31.999Z</time>
      </trkpt>
      <trkpt lat="45.83195" lon="-0.67626">
        <ele>11</ele>
        <time>2017-06-25T10:22:32.999Z</time>
      </trkpt>
      <trkpt lat="45.83196" lon="-0.67627">
        <ele>11</ele>
        <time>2017-06-25T10:22:33.999Z</time>
      </trkpt>
      <trkpt lat="45.83197" lon="-0.67628">
        <ele>11</ele>
        <time>2017-06-25T10:22:34.999Z</time>
      </trkpt>
      <trkpt lat="45.83198" lon="-0.67629">
        <ele>11</ele>
        <time>2017-06-25T10:22:35.999Z</time>
      </trkpt>
      <trkpt lat="45.83199" lon="-0.67629">
        <ele>11</ele>
        <time>2017-06-25T10:22:36.999Z</time>
      </trkpt>
      <trkpt lat="45.832" lon="-0.6763">
        <ele>11</ele>
        <time>2017-06-25T10:22:37.999Z</time>
      </trkpt>
      <trkpt lat="45.83201" lon="-0.67631">
        <ele>11</ele>
        <time>2017-06-25T10:22:39.999Z</time>
      </trkpt>
      <trkpt lat="45.83202" lon="-0.67632">
        <ele>11</ele>
        <time>2017-06-25T10:22:40.999Z</time>
      </trkpt>
      <trkpt lat="45.83204" lon="-0.67633">
        <ele>11</ele>
        <time>2017-06-25T10:22:41.999Z</time>
      </trkpt>
      <trkpt lat="45.83205" lon="-0.67634">
        <ele>11</ele>
        <time>2017-06-25T10:22:42.999Z</time>
      </trkpt>
      <trkpt lat="45.83207" lon="-0.67635">
        <ele>11</ele>
        <time>2017-06-25T10:22:43.999Z</time>
      </trkpt>
      <trkpt lat="45.83207" lon="-0.67637">
        <ele>11</ele>
        <time>2017-06-25T10:22:44.999Z</time>
      </trkpt>
      <trkpt lat="45.83209" lon="-0.67638">
        <ele>11</ele>
        <time>2017-06-25T10:22:45.999Z</time>
      </trkpt>
      <trkpt lat="45.8321" lon="-0.6764">
        <ele>11</ele>
        <time>2017-06-25T10:22:46.999Z</time>
      </trkpt>
      <trkpt lat="45.83212" lon="-0.67641">
        <ele>11</ele>
        <time>2017-06-25T10:22:47.999Z</time>
      </trkpt>
      <trkpt lat="45.83213" lon="-0.67641">
        <ele>11</ele>
        <time>2017-06-25T10:22:48.999Z</time>
      </trkpt>
      <trkpt lat="45.83213" lon="-0.67642">
        <ele>11</ele>
        <time>2017-06-25T10:22:49.999Z</time>
      </trkpt>
      <trkpt lat="45.83215" lon="-0.67643">
        <ele>11</ele>
        <time>2017-06-25T10:22:50.999Z</time>
      </trkpt>
      <trkpt lat="45.83216" lon="-0.67644">
        <ele>11</ele>
        <time>2017-06-25T10:22:52.999Z</time>
      </trkpt>
      <trkpt lat="45.83217" lon="-0.67645">
        <ele>11</ele>
        <time>2017-06-25T10:22:53.999Z</time>
      </trkpt>
      <trkpt lat="45.83218" lon="-0.67646">
        <ele>11</ele>
        <time>2017-06-25T10:22:54.999Z</time>
      </trkpt>
      <trkpt lat="45.83219" lon="-0.67647">
        <ele>11</ele>
        <time>2017-06-25T10:22:55.999Z</time>
      </trkpt>
      <trkpt lat="45.8322" lon="-0.67648">
        <ele>11</ele>
        <time>2017-06-25T10:22:56.999Z</time>
      </trkpt>
      <trkpt lat="45.83221" lon="-0.67649">
        <ele>11</ele>
        <time>2017-06-25T10:22:57.999Z</time>
      </trkpt>
      <trkpt lat="45.83222" lon="-0.6765">
        <ele>11</ele>
        <time>2017-06-25T10:22:58.999Z</time>
      </trkpt>
      <trkpt lat="45.83223" lon="-0.67651">
        <ele>11</ele>
        <time>2017-06-25T10:22:59.999Z</time>
      </trkpt>
      <trkpt lat="45.83225" lon="-0.67652">
        <ele>11</ele>
        <time>2017-06-25T10:23:01.999Z</time>
      </trkpt>
      <trkpt lat="45.83225" lon="-0.67652">
        <ele>11</ele>
        <time>2017-06-25T10:23:02.999Z</time>
      </trkpt>
      <trkpt lat="45.83226" lon="-0.67653">
        <ele>11</ele>
        <time>2017-06-25T10:23:03.999Z</time>
      </trkpt>
      <trkpt lat="45.83227" lon="-0.67654">
        <ele>11</ele>
        <time>2017-06-25T10:23:04.999Z</time>
      </trkpt>
      <trkpt lat="45.83228" lon="-0.67655">
        <ele>11</ele>
        <time>2017-06-25T10:23:05.999Z</time>
      </trkpt>
      <trkpt lat="45.83229" lon="-0.67656">
        <ele>10</ele>
        <time>2017-06-25T10:23:06.999Z</time>
      </trkpt>
      <trkpt lat="45.8323" lon="-0.67657">
        <ele>10</ele>
        <time>2017-06-25T10:23:07.999Z</time>
      </trkpt>
      <trkpt lat="45.83231" lon="-0.67658">
        <ele>10</ele>
        <time>2017-06-25T10:23:08.999Z</time>
      </trkpt>
      <trkpt lat="45.83232" lon="-0.67659">
        <ele>10</ele>
        <time>2017-06-25T10:23:09.999Z</time>
      </trkpt>
      <trkpt lat="45.83233" lon="-0.6766">
        <ele>10</ele>
        <time>2017-06-25T10:23:10.999Z</time>
      </trkpt>
      <trkpt lat="45.83234" lon="-0.67661">
        <ele>10</ele>
        <time>2017-06-25T10:23:11.999Z</time>
      </trkpt>
      <trkpt lat="45.83235" lon="-0.67662">
        <ele>10</ele>
        <time>2017-06-25T10:23:12.999Z</time>
      </trkpt>
      <trkpt lat="45.83236" lon="-0.67664">
        <ele>10</ele>
        <time>2017-06-25T10:23:13.999Z</time>
      </trkpt>
      <trkpt lat="45.83238" lon="-0.67665">
        <ele>10</ele>
        <time>2017-06-25T10:23:14.999Z</time>
      </trkpt>
      <trkpt lat="45.83239" lon="-0.67666">
        <ele>10</ele>
        <time>2017-06-25T10:23:15.999Z</time>
      </trkpt>
      <trkpt lat="45.83241" lon="-0.67667">
        <ele>10</ele>
        <time>2017-06-25T10:23:16.999Z</time>
      </trkpt>
      <trkpt lat="45.83242" lon="-0.67668">
        <ele>10</ele>
        <time>2017-06-25T10:23:17.999Z</time>
      </trkpt>
      <trkpt lat="45.83243" lon="-0.67669">
        <ele>10</ele>
        <time>2017-06-25T10:23:18.999Z</time>
      </trkpt>
      <trkpt lat="45.83244" lon="-0.6767">
        <ele>10</ele>
        <time>2017-06-25T10:23:19.999Z</time>
      </trkpt>
      <trkpt lat="45.83246" lon="-0.67671">
        <ele>10</ele>
        <time>2017-06-25T10:23:20.999Z</time>
      </trkpt>
      <trkpt lat="45.83248" lon="-0.67672">
        <ele>10</ele>
        <time>2017-06-25T10:23:21.999Z</time>
      </trkpt>
      <trkpt lat="45.83249" lon="-0.67673">
        <ele>10</ele>
        <time>2017-06-25T10:23:22.999Z</time>
      </trkpt>
      <trkpt lat="45.83249" lon="-0.67675">
        <ele>10</ele>
        <time>2017-06-25T10:23:23.999Z</time>
      </trkpt>
      <trkpt lat="45.8325" lon="-0.67676">
        <ele>10</ele>
        <time>2017-06-25T10:23:24.999Z</time>
      </trkpt>
      <trkpt lat="45.83251" lon="-0.67677">
        <ele>10</ele>
        <time>2017-06-25T10:23:25.999Z</time>
      </trkpt>
      <trkpt lat="45.83252" lon="-0.67678">
        <ele>10</ele>
        <time>2017-06-25T10:23:26.999Z</time>
      </trkpt>
      <trkpt lat="45.83253" lon="-0.6768">
        <ele>10</ele>
        <time>2017-06-25T10:23:27.999Z</time>
      </trkpt>
      <trkpt lat="45.83254" lon="-0.67681">
        <ele>10</ele>
        <time>2017-06-25T10:23:28.999Z</time>
      </trkpt>
      <trkpt lat="45.83255" lon="-0.67682">
        <ele>10</ele>
        <time>2017-06-25T10:23:29.999Z</time>
      </trkpt>
      <trkpt lat="45.83256" lon="-0.67683">
        <ele>10</ele>
        <time>2017-06-25T10:23:30.999Z</time>
      </trkpt>
      <trkpt lat="45.83257" lon="-0.67685">
        <ele>10</ele>
        <time>2017-06-25T10:23:31.999Z</time>
      </trkpt>
      <trkpt lat="45.83258" lon="-0.67686">
        <ele>10</ele>
        <time>2017-06-25T10:23:32.999Z</time>
      </trkpt>
      <trkpt lat="45.8326" lon="-0.67688">
        <ele>10</ele>
        <time>2017-06-25T10:23:34.999Z</time>
      </trkpt>
      <trkpt lat="45.83261" lon="-0.67689">
        <ele>10</ele>
        <time>2017-06-25T10:23:35.999Z</time>
      </trkpt>
      <trkpt lat="45.83262" lon="-0.6769">
        <ele>10</ele>
        <time>2017-06-25T10:23:36.999Z</time>
      </trkpt>
      <trkpt lat="45.83263" lon="-0.67691">
        <ele>10</ele>
        <time>2017-06-25T10:23:37.999Z</time>
      </trkpt>
      <trkpt lat="45.83264" lon="-0.67692">
        <ele>10</ele>
        <time>2017-06-25T10:23:38.999Z</time>
      </trkpt>
      <trkpt lat="45.83265" lon="-0.67692">
        <ele>10</ele>
        <time>2017-06-25T10:23:39.999Z</time>
      </trkpt>
      <trkpt lat="45.83266" lon="-0.67693">
        <ele>10</ele>
        <time>2017-06-25T10:23:40.999Z</time>
      </trkpt>
      <trkpt lat="45.83268" lon="-0.67694">
        <ele>10</ele>
        <time>2017-06-25T10:23:41.999Z</time>
      </trkpt>
      <trkpt lat="45.83268" lon="-0.67694">
        <ele>10</ele>
        <time>2017-06-25T10:23:42.999Z</time>
      </trkpt>
      <trkpt lat="45.8327" lon="-0.67695">
        <ele>10</ele>
        <time>2017-06-25T10:23:43.999Z</time>
      </trkpt>
      <trkpt lat="45.8327" lon="-0.67696">
        <ele>10</ele>
        <time>2017-06-25T10:23:44.999Z</time>
      </trkpt>
      <trkpt lat="45.83271" lon="-0.67697">
        <ele>10</ele>
        <time>2017-06-25T10:23:45.999Z</time>
      </trkpt>
      <trkpt lat="45.83272" lon="-0.67698">
        <ele>10</ele>
        <time>2017-06-25T10:23:46.999Z</time>
      </trkpt>
      <trkpt lat="45.83273" lon="-0.67699">
        <ele>10</ele>
        <time>2017-06-25T10:23:47.999Z</time>
      </trkpt>
      <trkpt lat="45.83273" lon="-0.67701">
        <ele>10</ele>
        <time>2017-06-25T10:23:48.999Z</time>
      </trkpt>
      <trkpt lat="45.83275" lon="-0.67703">
        <ele>10</ele>
        <time>2017-06-25T10:23:49.999Z</time>
      </trkpt>
      <trkpt lat="45.83276" lon="-0.67704">
        <ele>10</ele>
        <time>2017-06-25T10:23:50.999Z</time>
      </trkpt>
      <trkpt lat="45.83278" lon="-0.67706">
        <ele>10</ele>
        <time>2017-06-25T10:23:51.999Z</time>
      </trkpt>
      <trkpt lat="45.83278" lon="-0.67707">
        <ele>10</ele>
        <time>2017-06-25T10:23:52.999Z</time>
      </trkpt>
      <trkpt lat="45.83279" lon="-0.67708">
        <ele>10</ele>
        <time>2017-06-25T10:23:53.999Z</time>
      </trkpt>
      <trkpt lat="45.83281" lon="-0.67709">
        <ele>10</ele>
        <time>2017-06-25T10:23:54.999Z</time>
      </trkpt>
      <trkpt lat="45.83282" lon="-0.67709">
        <ele>10</ele>
        <time>2017-06-25T10:23:55.999Z</time>
      </trkpt>
      <trkpt lat="45.83283" lon="-0.67709">
        <ele>10</ele>
        <time>2017-06-25T10:23:56.999Z</time>
      </trkpt>
      <trkpt lat="45.83285" lon="-0.67711">
        <ele>10</ele>
        <time>2017-06-25T10:23:58.999Z</time>
      </trkpt>
      <trkpt lat="45.83286" lon="-0.67712">
        <ele>10</ele>
        <time>2017-06-25T10:23:59.999Z</time>
      </trkpt>
      <trkpt lat="45.83287" lon="-0.67713">
        <ele>10</ele>
        <time>2017-06-25T10:24:00.999Z</time>
      </trkpt>
      <trkpt lat="45.83288" lon="-0.67715">
        <ele>10</ele>
        <time>2017-06-25T10:24:02.999Z</time>
      </trkpt>
      <trkpt lat="45.83289" lon="-0.67716">
        <ele>10</ele>
        <time>2017-06-25T10:24:03.999Z</time>
      </trkpt>
      <trkpt lat="45.8329" lon="-0.67717">
        <ele>10</ele>
        <time>2017-06-25T10:24:04.999Z</time>
      </trkpt>
      <trkpt lat="45.83291" lon="-0.67719">
        <ele>10</ele>
        <time>2017-06-25T10:24:05.999Z</time>
      </trkpt>
      <trkpt lat="45.83292" lon="-0.6772">
        <ele>10</ele>
        <time>2017-06-25T10:24:06.999Z</time>
      </trkpt>
      <trkpt lat="45.83294" lon="-0.67722">
        <ele>10</ele>
        <time>2017-06-25T10:24:07.999Z</time>
      </trkpt>
      <trkpt lat="45.83295" lon="-0.67723">
        <ele>10</ele>
        <time>2017-06-25T10:24:08.999Z</time>
      </trkpt>
      <trkpt lat="45.83296" lon="-0.67724">
        <ele>10</ele>
        <time>2017-06-25T10:24:09.999Z</time>
      </trkpt>
      <trkpt lat="45.83297" lon="-0.67726">
        <ele>10</ele>
        <time>2017-06-25T10:24:10.999Z</time>
      </trkpt>
      <trkpt lat="45.83298" lon="-0.67727">
        <ele>10</ele>
        <time>2017-06-25T10:24:11.999Z</time>
      </trkpt>
      <trkpt lat="45.83299" lon="-0.67728">
        <ele>10</ele>
        <time>2017-06-25T10:24:12.999Z</time>
      </trkpt>
      <trkpt lat="45.833" lon="-0.67729">
        <ele>10</ele>
        <time>2017-06-25T10:24:13.999Z</time>
      </trkpt>
      <trkpt lat="45.83302" lon="-0.67731">
        <ele>10</ele>
        <time>2017-06-25T10:24:14.999Z</time>
      </trkpt>
      <trkpt lat="45.83303" lon="-0.67732">
        <ele>9</ele>
        <time>2017-06-25T10:24:15.999Z</time>
      </trkpt>
      <trkpt lat="45.83304" lon="-0.67733">
        <ele>9</ele>
        <time>2017-06-25T10:24:16.999Z</time>
      </trkpt>
      <trkpt lat="45.83305" lon="-0.67734">
        <ele>9</ele>
        <time>2017-06-25T10:24:17.999Z</time>
      </trkpt>
      <trkpt lat="45.83307" lon="-0.67735">
        <ele>9</ele>
        <time>2017-06-25T10:24:18.999Z</time>
      </trkpt>
      <trkpt lat="45.83308" lon="-0.67737">
        <ele>9</ele>
        <time>2017-06-25T10:24:19.999Z</time>
      </trkpt>
      <trkpt lat="45.83309" lon="-0.67738">
        <ele>9</ele>
        <time>2017-06-25T10:24:20.999Z</time>
      </trkpt>
      <trkpt lat="45.8331" lon="-0.67739">
        <ele>9</ele>
        <time>2017-06-25T10:24:21.999Z</time>
      </trkpt>
      <trkpt lat="45.83312" lon="-0.6774">
        <ele>9</ele>
        <time>2017-06-25T10:24:22.999Z</time>
      </trkpt>
      <trkpt lat="45.83313" lon="-0.67741">
        <ele>9</ele>
        <time>2017-06-25T10:24:23.999Z</time>
      </trkpt>
      <trkpt lat="45.83314" lon="-0.67742">
        <ele>9</ele>
        <time>2017-06-25T10:24:24.999Z</time>
      </trkpt>
      <trkpt lat="45.83315" lon="-0.67743">
        <ele>9</ele>
        <time>2017-06-25T10:24:25.999Z</time>
      </trkpt>
      <trkpt lat="45.83316" lon="-0.67744">
        <ele>9</ele>
        <time>2017-06-25T10:24:26.999Z</time>
      </trkpt>
      <trkpt lat="45.83318" lon="-0.67744">
        <ele>9</ele>
        <time>2017-06-25T10:24:27.999Z</time>
      </trkpt>
      <trkpt lat="45.83319" lon="-0.67745">
        <ele>9</ele>
        <time>2017-06-25T10:24:28.999Z</time>
      </trkpt>
      <trkpt lat="45.8332" lon="-0.67745">
        <ele>9</ele>
        <time>2017-06-25T10:24:29.999Z</time>
      </trkpt>
      <trkpt lat="45.83321" lon="-0.67745">
        <ele>9</ele>
        <time>2017-06-25T10:24:30.999Z</time>
      </trkpt>
      <trkpt lat="45.83322" lon="-0.67745">
        <ele>9</ele>
        <time>2017-06-25T10:24:31.999Z</time>
      </trkpt>
      <trkpt lat="45.83324" lon="-0.67745">
        <ele>9</ele>
        <time>2017-06-25T10:24:32.999Z</time>
      </trkpt>
      <trkpt lat="45.83326" lon="-0.67745">
        <ele>9</ele>
        <time>2017-06-25T10:24:33.999Z</time>
      </trkpt>
      <trkpt lat="45.83327" lon="-0.67746">
        <ele>9</ele>
        <time>2017-06-25T10:24:34.999Z</time>
      </trkpt>
      <trkpt lat="45.83328" lon="-0.67746">
        <ele>8</ele>
        <time>2017-06-25T10:24:35.999Z</time>
      </trkpt>
      <trkpt lat="45.83329" lon="-0.67747">
        <ele>8</ele>
        <time>2017-06-25T10:24:36.999Z</time>
      </trkpt>
      <trkpt lat="45.83331" lon="-0.67748">
        <ele>8</ele>
        <time>2017-06-25T10:24:37.999Z</time>
      </trkpt>
      <trkpt lat="45.83332" lon="-0.67749">
        <ele>8</ele>
        <time>2017-06-25T10:24:38.999Z</time>
      </trkpt>
      <trkpt lat="45.83332" lon="-0.67752">
        <ele>8</ele>
        <time>2017-06-25T10:24:39.999Z</time>
      </trkpt>
      <trkpt lat="45.83331" lon="-0.67753">
        <ele>8</ele>
        <time>2017-06-25T10:24:40.999Z</time>
      </trkpt>
      <trkpt lat="45.8333" lon="-0.67755">
        <ele>8</ele>
        <time>2017-06-25T10:24:41.999Z</time>
      </trkpt>
      <trkpt lat="45.83329" lon="-0.67756">
        <ele>8</ele>
        <time>2017-06-25T10:24:42.999Z</time>
      </trkpt>
      <trkpt lat="45.83328" lon="-0.67758">
        <ele>8</ele>
        <time>2017-06-25T10:24:43.999Z</time>
      </trkpt>
      <trkpt lat="45.83328" lon="-0.6776">
        <ele>9</ele>
        <time>2017-06-25T10:24:44.999Z</time>
      </trkpt>
      <trkpt lat="45.83327" lon="-0.67762">
        <ele>9</ele>
        <time>2017-06-25T10:24:45.999Z</time>
      </trkpt>
      <trkpt lat="45.83326" lon="-0.67763">
        <ele>9</ele>
        <time>2017-06-25T10:24:46.999Z</time>
      </trkpt>
      <trkpt lat="45.83326" lon="-0.67766">
        <ele>9</ele>
        <time>2017-06-25T10:24:48.999Z</time>
      </trkpt>
      <trkpt lat="45.83325" lon="-0.67768">
        <ele>9</ele>
        <time>2017-06-25T10:24:49.999Z</time>
      </trkpt>
      <trkpt lat="45.83324" lon="-0.67769">
        <ele>9</ele>
        <time>2017-06-25T10:24:50.999Z</time>
      </trkpt>
      <trkpt lat="45.83324" lon="-0.6777">
        <ele>9</ele>
        <time>2017-06-25T10:24:51.999Z</time>
      </trkpt>
      <trkpt lat="45.83323" lon="-0.67772">
        <ele>9</ele>
        <time>2017-06-25T10:24:53.999Z</time>
      </trkpt>
      <trkpt lat="45.83323" lon="-0.67775">
        <ele>9</ele>
        <time>2017-06-25T10:24:55.999Z</time>
      </trkpt>
      <trkpt lat="45.83323" lon="-0.67777">
        <ele>9</ele>
        <time>2017-06-25T10:24:57.999Z</time>
      </trkpt>
      <trkpt lat="45.83324" lon="-0.67779">
        <ele>9</ele>
        <time>2017-06-25T10:24:58.999Z</time>
      </trkpt>
      <trkpt lat="45.83326" lon="-0.6778">
        <ele>9</ele>
        <time>2017-06-25T10:24:59.999Z</time>
      </trkpt>
      <trkpt lat="45.83326" lon="-0.67781">
        <ele>9</ele>
        <time>2017-06-25T10:25:00.999Z</time>
      </trkpt>
      <trkpt lat="45.83328" lon="-0.67783">
        <ele>9</ele>
        <time>2017-06-25T10:25:01.999Z</time>
      </trkpt>
      <trkpt lat="45.83329" lon="-0.67784">
        <ele>9</ele>
        <time>2017-06-25T10:25:02.999Z</time>
      </trkpt>
      <trkpt lat="45.83331" lon="-0.67784">
        <ele>9</ele>
        <time>2017-06-25T10:25:03.999Z</time>
      </trkpt>
      <trkpt lat="45.83332" lon="-0.67785">
        <ele>9</ele>
        <time>2017-06-25T10:25:04.999Z</time>
      </trkpt>
      <trkpt lat="45.83332" lon="-0.67786">
        <ele>9</ele>
        <time>2017-06-25T10:25:05.999Z</time>
      </trkpt>
      <trkpt lat="45.83334" lon="-0.67788">
        <ele>8</ele>
        <time>2017-06-25T10:25:06.999Z</time>
      </trkpt>
      <trkpt lat="45.83335" lon="-0.67789">
        <ele>8</ele>
        <time>2017-06-25T10:25:07.999Z</time>
      </trkpt>
      <trkpt lat="45.83336" lon="-0.67791">
        <ele>8</ele>
        <time>2017-06-25T10:25:08.999Z</time>
      </trkpt>
      <trkpt lat="45.83337" lon="-0.67792">
        <ele>8</ele>
        <time>2017-06-25T10:25:09.999Z</time>
      </trkpt>
      <trkpt lat="45.83339" lon="-0.67793">
        <ele>8</ele>
        <time>2017-06-25T10:25:10.999Z</time>
      </trkpt>
      <trkpt lat="45.83339" lon="-0.67794">
        <ele>8</ele>
        <time>2017-06-25T10:25:11.999Z</time>
      </trkpt>
      <trkpt lat="45.83341" lon="-0.67796">
        <ele>8</ele>
        <time>2017-06-25T10:25:12.999Z</time>
      </trkpt>
      <trkpt lat="45.83342" lon="-0.67797">
        <ele>8</ele>
        <time>2017-06-25T10:25:13.999Z</time>
      </trkpt>
      <trkpt lat="45.83343" lon="-0.678">
        <ele>8</ele>
        <time>2017-06-25T10:25:15.999Z</time>
      </trkpt>
      <trkpt lat="45.83344" lon="-0.67801">
        <ele>8</ele>
        <time>2017-06-25T10:25:16.999Z</time>
      </trkpt>
      <trkpt lat="45.83345" lon="-0.67802">
        <ele>8</ele>
        <time>2017-06-25T10:25:17.999Z</time>
      </trkpt>
      <trkpt lat="45.83346" lon="-0.67803">
        <ele>8</ele>
        <time>2017-06-25T10:25:18.999Z</time>
      </trkpt>
      <trkpt lat="45.83347" lon="-0.67804">
        <ele>8</ele>
        <time>2017-06-25T10:25:19.999Z</time>
      </trkpt>
      <trkpt lat="45.83348" lon="-0.67806">
        <ele>8</ele>
        <time>2017-06-25T10:25:20.999Z</time>
      </trkpt>
      <trkpt lat="45.83349" lon="-0.67808">
        <ele>8</ele>
        <time>2017-06-25T10:25:22.999Z</time>
      </trkpt>
      <trkpt lat="45.8335" lon="-0.67809">
        <ele>8</ele>
        <time>2017-06-25T10:25:23.999Z</time>
      </trkpt>
      <trkpt lat="45.83352" lon="-0.6781">
        <ele>8</ele>
        <time>2017-06-25T10:25:24.999Z</time>
      </trkpt>
      <trkpt lat="45.83353" lon="-0.67812">
        <ele>8</ele>
        <time>2017-06-25T10:25:25.999Z</time>
      </trkpt>
      <trkpt lat="45.83353" lon="-0.67812">
        <ele>8</ele>
        <time>2017-06-25T10:25:26.999Z</time>
      </trkpt>
      <trkpt lat="45.83355" lon="-0.67813">
        <ele>8</ele>
        <time>2017-06-25T10:25:27.999Z</time>
      </trkpt>
      <trkpt lat="45.83356" lon="-0.67815">
        <ele>8</ele>
        <time>2017-06-25T10:25:29.999Z</time>
      </trkpt>
      <trkpt lat="45.83357" lon="-0.67816">
        <ele>8</ele>
        <time>2017-06-25T10:25:31.999Z</time>
      </trkpt>
      <trkpt lat="45.83358" lon="-0.67817">
        <ele>8</ele>
        <time>2017-06-25T10:25:34.999Z</time>
      </trkpt>
      <trkpt lat="45.8336" lon="-0.67819">
        <ele>8</ele>
        <time>2017-06-25T10:25:35.999Z</time>
      </trkpt>
      <trkpt lat="45.83361" lon="-0.6782">
        <ele>8</ele>
        <time>2017-06-25T10:25:36.999Z</time>
      </trkpt>
      <trkpt lat="45.83362" lon="-0.67822">
        <ele>8</ele>
        <time>2017-06-25T10:25:38.999Z</time>
      </trkpt>
      <trkpt lat="45.83363" lon="-0.67823">
        <ele>8</ele>
        <time>2017-06-25T10:25:39.999Z</time>
      </trkpt>
      <trkpt lat="45.83364" lon="-0.67824">
        <ele>8</ele>
        <time>2017-06-25T10:25:40.999Z</time>
      </trkpt>
      <trkpt lat="45.83366" lon="-0.67826">
        <ele>8</ele>
        <time>2017-06-25T10:25:41.999Z</time>
      </trkpt>
      <trkpt lat="45.83366" lon="-0.67828">
        <ele>8</ele>
        <time>2017-06-25T10:25:42.999Z</time>
      </trkpt>
      <trkpt lat="45.83368" lon="-0.67829">
        <ele>8</ele>
        <time>2017-06-25T10:25:43.999Z</time>
      </trkpt>
      <trkpt lat="45.83369" lon="-0.67829">
        <ele>8</ele>
        <time>2017-06-25T10:25:44.999Z</time>
      </trkpt>
      <trkpt lat="45.8337" lon="-0.67831">
        <ele>8</ele>
        <time>2017-06-25T10:25:45.999Z</time>
      </trkpt>
      <trkpt lat="45.83371" lon="-0.67832">
        <ele>8</ele>
        <time>2017-06-25T10:25:46.999Z</time>
      </trkpt>
      <trkpt lat="45.83371" lon="-0.67835">
        <ele>9</ele>
        <time>2017-06-25T10:25:47.999Z</time>
      </trkpt>
      <trkpt lat="45.83371" lon="-0.67837">
        <ele>9</ele>
        <time>2017-06-25T10:25:48.999Z</time>
      </trkpt>
      <trkpt lat="45.83373" lon="-0.67838">
        <ele>9</ele>
        <time>2017-06-25T10:25:49.999Z</time>
      </trkpt>
      <trkpt lat="45.83373" lon="-0.6784">
        <ele>9</ele>
        <time>2017-06-25T10:25:51.999Z</time>
      </trkpt>
      <trkpt lat="45.83374" lon="-0.67842">
        <ele>9</ele>
        <time>2017-06-25T10:25:53.999Z</time>
      </trkpt>
      <trkpt lat="45.83376" lon="-0.67843">
        <ele>9</ele>
        <time>2017-06-25T10:25:54.999Z</time>
      </trkpt>
      <trkpt lat="45.83376" lon="-0.67845">
        <ele>9</ele>
        <time>2017-06-25T10:25:56.999Z</time>
      </trkpt>
      <trkpt lat="45.83377" lon="-0.67846">
        <ele>9</ele>
        <time>2017-06-25T10:25:57.999Z</time>
      </trkpt>
      <trkpt lat="45.83378" lon="-0.67847">
        <ele>9</ele>
        <time>2017-06-25T10:25:58.999Z</time>
      </trkpt>
      <trkpt lat="45.83379" lon="-0.67848">
        <ele>9</ele>
        <time>2017-06-25T10:25:59.999Z</time>
      </trkpt>
      <trkpt lat="45.8338" lon="-0.6785">
        <ele>9</ele>
        <time>2017-06-25T10:26:00.999Z</time>
      </trkpt>
      <trkpt lat="45.83381" lon="-0.67852">
        <ele>9</ele>
        <time>2017-06-25T10:26:02.999Z</time>
      </trkpt>
      <trkpt lat="45.83382" lon="-0.67854">
        <ele>9</ele>
        <time>2017-06-25T10:26:03.999Z</time>
      </trkpt>
      <trkpt lat="45.83382" lon="-0.67857">
        <ele>9</ele>
        <time>2017-06-25T10:26:04.999Z</time>
      </trkpt>
      <trkpt lat="45.83383" lon="-0.67857">
        <ele>9</ele>
        <time>2017-06-25T10:26:05.999Z</time>
      </trkpt>
      <trkpt lat="45.83384" lon="-0.6786">
        <ele>9</ele>
        <time>2017-06-25T10:26:07.999Z</time>
      </trkpt>
      <trkpt lat="45.83385" lon="-0.67861">
        <ele>9</ele>
        <time>2017-06-25T10:26:08.999Z</time>
      </trkpt>
      <trkpt lat="45.83386" lon="-0.67862">
        <ele>9</ele>
        <time>2017-06-25T10:26:09.999Z</time>
      </trkpt>
      <trkpt lat="45.83387" lon="-0.67864">
        <ele>9</ele>
        <time>2017-06-25T10:26:10.999Z</time>
      </trkpt>
      <trkpt lat="45.83387" lon="-0.67865">
        <ele>9</ele>
        <time>2017-06-25T10:26:11.999Z</time>
      </trkpt>
      <trkpt lat="45.83389" lon="-0.67866">
        <ele>9</ele>
        <time>2017-06-25T10:26:12.999Z</time>
      </trkpt>
      <trkpt lat="45.8339" lon="-0.67867">
        <ele>9</ele>
        <time>2017-06-25T10:26:13.999Z</time>
      </trkpt>
      <trkpt lat="45.83391" lon="-0.67868">
        <ele>9</ele>
        <time>2017-06-25T10:26:15.999Z</time>
      </trkpt>
      <trkpt lat="45.83391" lon="-0.6787">
        <ele>9</ele>
        <time>2017-06-25T10:26:16.999Z</time>
      </trkpt>
      <trkpt lat="45.83392" lon="-0.67871">
        <ele>9</ele>
        <time>2017-06-25T10:26:17.999Z</time>
      </trkpt>
      <trkpt lat="45.83392" lon="-0.67873">
        <ele>9</ele>
        <time>2017-06-25T10:26:18.999Z</time>
      </trkpt>
      <trkpt lat="45.83392" lon="-0.67874">
        <ele>9</ele>
        <time>2017-06-25T10:26:19.999Z</time>
      </trkpt>
      <trkpt lat="45.83392" lon="-0.67876">
        <ele>9</ele>
        <time>2017-06-25T10:26:20.999Z</time>
      </trkpt>
      <trkpt lat="45.83392" lon="-0.67878">
        <ele>9</ele>
        <time>2017-06-25T10:26:21.999Z</time>
      </trkpt>
      <trkpt lat="45.83392" lon="-0.6788">
        <ele>9</ele>
        <time>2017-06-25T10:26:23.999Z</time>
      </trkpt>
      <trkpt lat="45.83391" lon="-0.67882">
        <ele>9</ele>
        <time>2017-06-25T10:26:24.999Z</time>
      </trkpt>
      <trkpt lat="45.83391" lon="-0.67884">
        <ele>9</ele>
        <time>2017-06-25T10:26:25.999Z</time>
      </trkpt>
      <trkpt lat="45.8339" lon="-0.67886">
        <ele>9</ele>
        <time>2017-06-25T10:26:26.999Z</time>
      </trkpt>
      <trkpt lat="45.8339" lon="-0.67887">
        <ele>9</ele>
        <time>2017-06-25T10:26:27.999Z</time>
      </trkpt>
      <trkpt lat="45.83389" lon="-0.67889">
        <ele>9</ele>
        <time>2017-06-25T10:26:28.999Z</time>
      </trkpt>
      <trkpt lat="45.83389" lon="-0.67891">
        <ele>9</ele>
        <time>2017-06-25T10:26:29.999Z</time>
      </trkpt>
      <trkpt lat="45.83389" lon="-0.67893">
        <ele>9</ele>
        <time>2017-06-25T10:26:31.999Z</time>
      </trkpt>
      <trkpt lat="45.83389" lon="-0.67895">
        <ele>9</ele>
        <time>2017-06-25T10:26:32.999Z</time>
      </trkpt>
      <trkpt lat="45.83389" lon="-0.67896">
        <ele>9</ele>
        <time>2017-06-25T10:26:33.999Z</time>
      </trkpt>
      <trkpt lat="45.83389" lon="-0.67898">
        <ele>9</ele>
        <time>2017-06-25T10:26:34.999Z</time>
      </trkpt>
      <trkpt lat="45.83388" lon="-0.679">
        <ele>9</ele>
        <time>2017-06-25T10:26:35.999Z</time>
      </trkpt>
      <trkpt lat="45.83387" lon="-0.67901">
        <ele>9</ele>
        <time>2017-06-25T10:26:36.999Z</time>
      </trkpt>
      <trkpt lat="45.83387" lon="-0.67903">
        <ele>9</ele>
        <time>2017-06-25T10:26:37.999Z</time>
      </trkpt>
      <trkpt lat="45.83387" lon="-0.67905">
        <ele>9</ele>
        <time>2017-06-25T10:26:38.999Z</time>
      </trkpt>
      <trkpt lat="45.83386" lon="-0.67907">
        <ele>9</ele>
        <time>2017-06-25T10:26:39.999Z</time>
      </trkpt>
      <trkpt lat="45.83386" lon="-0.67909">
        <ele>9</ele>
        <time>2017-06-25T10:26:40.999Z</time>
      </trkpt>
      <trkpt lat="45.83385" lon="-0.6791">
        <ele>9</ele>
        <time>2017-06-25T10:26:41.999Z</time>
      </trkpt>
      <trkpt lat="45.83385" lon="-0.67912">
        <ele>9</ele>
        <time>2017-06-25T10:26:42.999Z</time>
      </trkpt>
      <trkpt lat="45.83384" lon="-0.67913">
        <ele>9</ele>
        <time>2017-06-25T10:26:43.999Z</time>
      </trkpt>
      <trkpt lat="45.83384" lon="-0.67915">
        <ele>9</ele>
        <time>2017-06-25T10:26:44.999Z</time>
      </trkpt>
      <trkpt lat="45.83384" lon="-0.67916">
        <ele>9</ele>
        <time>2017-06-25T10:26:45.999Z</time>
      </trkpt>
      <trkpt lat="45.83384" lon="-0.67918">
        <ele>9</ele>
        <time>2017-06-25T10:26:46.999Z</time>
      </trkpt>
      <trkpt lat="45.83384" lon="-0.6792">
        <ele>9</ele>
        <time>2017-06-25T10:26:47.999Z</time>
      </trkpt>
      <trkpt lat="45.83383" lon="-0.67922">
        <ele>9</ele>
        <time>2017-06-25T10:26:48.999Z</time>
      </trkpt>
      <trkpt lat="45.83382" lon="-0.67924">
        <ele>9</ele>
        <time>2017-06-25T10:26:49.999Z</time>
      </trkpt>
      <trkpt lat="45.83382" lon="-0.67925">
        <ele>9</ele>
        <time>2017-06-25T10:26:50.999Z</time>
      </trkpt>
      <trkpt lat="45.83382" lon="-0.67927">
        <ele>9</ele>
        <time>2017-06-25T10:26:51.999Z</time>
      </trkpt>
      <trkpt lat="45.83382" lon="-0.67928">
        <ele>9</ele>
        <time>2017-06-25T10:26:52.999Z</time>
      </trkpt>
      <trkpt lat="45.83381" lon="-0.6793">
        <ele>9</ele>
        <time>2017-06-25T10:26:53.999Z</time>
      </trkpt>
      <trkpt lat="45.83381" lon="-0.67931">
        <ele>9</ele>
        <time>2017-06-25T10:26:54.999Z</time>
      </trkpt>
      <trkpt lat="45.83381" lon="-0.67933">
        <ele>9</ele>
        <time>2017-06-25T10:26:55.999Z</time>
      </trkpt>
      <trkpt lat="45.8338" lon="-0.67934">
        <ele>9</ele>
        <time>2017-06-25T10:26:56.999Z</time>
      </trkpt>
      <trkpt lat="45.8338" lon="-0.67936">
        <ele>9</ele>
        <time>2017-06-25T10:26:57.999Z</time>
      </trkpt>
      <trkpt lat="45.83379" lon="-0.67938">
        <ele>9</ele>
        <time>2017-06-25T10:26:59.999Z</time>
      </trkpt>
      <trkpt lat="45.83379" lon="-0.6794">
        <ele>9</ele>
        <time>2017-06-25T10:27:00.999Z</time>
      </trkpt>
      <trkpt lat="45.83378" lon="-0.67942">
        <ele>9</ele>
        <time>2017-06-25T10:27:01.999Z</time>
      </trkpt>
      <trkpt lat="45.83378" lon="-0.67943">
        <ele>9</ele>
        <time>2017-06-25T10:27:02.999Z</time>
      </trkpt>
      <trkpt lat="45.83376" lon="-0.67945">
        <ele>9</ele>
        <time>2017-06-25T10:27:04.999Z</time>
      </trkpt>
      <trkpt lat="45.83376" lon="-0.67947">
        <ele>9</ele>
        <time>2017-06-25T10:27:05.999Z</time>
      </trkpt>
      <trkpt lat="45.83376" lon="-0.67948">
        <ele>9</ele>
        <time>2017-06-25T10:27:06.999Z</time>
      </trkpt>
      <trkpt lat="45.83375" lon="-0.6795">
        <ele>9</ele>
        <time>2017-06-25T10:27:07.999Z</time>
      </trkpt>
      <trkpt lat="45.83374" lon="-0.67951">
        <ele>9</ele>
        <time>2017-06-25T10:27:08.999Z</time>
      </trkpt>
      <trkpt lat="45.83374" lon="-0.67953">
        <ele>9</ele>
        <time>2017-06-25T10:27:09.999Z</time>
      </trkpt>
      <trkpt lat="45.83374" lon="-0.67955">
        <ele>9</ele>
        <time>2017-06-25T10:27:10.999Z</time>
      </trkpt>
      <trkpt lat="45.83374" lon="-0.67957">
        <ele>9</ele>
        <time>2017-06-25T10:27:11.999Z</time>
      </trkpt>
      <trkpt lat="45.83374" lon="-0.67959">
        <ele>9</ele>
        <time>2017-06-25T10:27:12.999Z</time>
      </trkpt>
      <trkpt lat="45.83374" lon="-0.6796">
        <ele>9</ele>
        <time>2017-06-25T10:27:13.999Z</time>
      </trkpt>
      <trkpt lat="45.83374" lon="-0.67963">
        <ele>9</ele>
        <time>2017-06-25T10:27:14.999Z</time>
      </trkpt>
      <trkpt lat="45.83373" lon="-0.67965">
        <ele>9</ele>
        <time>2017-06-25T10:27:15.999Z</time>
      </trkpt>
      <trkpt lat="45.83373" lon="-0.67967">
        <ele>9</ele>
        <time>2017-06-25T10:27:16.999Z</time>
      </trkpt>
      <trkpt lat="45.83373" lon="-0.67968">
        <ele>9</ele>
        <time>2017-06-25T10:27:17.999Z</time>
      </trkpt>
      <trkpt lat="45.83372" lon="-0.6797">
        <ele>9</ele>
        <time>2017-06-25T10:27:18.999Z</time>
      </trkpt>
      <trkpt lat="45.83371" lon="-0.67972">
        <ele>9</ele>
        <time>2017-06-25T10:27:19.999Z</time>
      </trkpt>
      <trkpt lat="45.8337" lon="-0.67974">
        <ele>9</ele>
        <time>2017-06-25T10:27:20.999Z</time>
      </trkpt>
      <trkpt lat="45.8337" lon="-0.67975">
        <ele>9</ele>
        <time>2017-06-25T10:27:21.999Z</time>
      </trkpt>
      <trkpt lat="45.83369" lon="-0.67977">
        <ele>9</ele>
        <time>2017-06-25T10:27:22.999Z</time>
      </trkpt>
      <trkpt lat="45.83369" lon="-0.67979">
        <ele>9</ele>
        <time>2017-06-25T10:27:23.999Z</time>
      </trkpt>
      <trkpt lat="45.83369" lon="-0.67981">
        <ele>9</ele>
        <time>2017-06-25T10:27:24.999Z</time>
      </trkpt>
      <trkpt lat="45.83368" lon="-0.67982">
        <ele>9</ele>
        <time>2017-06-25T10:27:25.999Z</time>
      </trkpt>
      <trkpt lat="45.83367" lon="-0.67983">
        <ele>9</ele>
        <time>2017-06-25T10:27:26.999Z</time>
      </trkpt>
      <trkpt lat="45.83366" lon="-0.67985">
        <ele>9</ele>
        <time>2017-06-25T10:27:27.999Z</time>
      </trkpt>
      <trkpt lat="45.83366" lon="-0.67986">
        <ele>9</ele>
        <time>2017-06-25T10:27:28.999Z</time>
      </trkpt>
      <trkpt lat="45.83365" lon="-0.67988">
        <ele>9</ele>
        <time>2017-06-25T10:27:29.999Z</time>
      </trkpt>
      <trkpt lat="45.83365" lon="-0.67989">
        <ele>9</ele>
        <time>2017-06-25T10:27:30.999Z</time>
      </trkpt>
      <trkpt lat="45.83364" lon="-0.67991">
        <ele>9</ele>
        <time>2017-06-25T10:27:31.999Z</time>
      </trkpt>
      <trkpt lat="45.83364" lon="-0.67993">
        <ele>9</ele>
        <time>2017-06-25T10:27:32.999Z</time>
      </trkpt>
      <trkpt lat="45.83363" lon="-0.67995">
        <ele>9</ele>
        <time>2017-06-25T10:27:33.999Z</time>
      </trkpt>
      <trkpt lat="45.83362" lon="-0.67996">
        <ele>9</ele>
        <time>2017-06-25T10:27:34.999Z</time>
      </trkpt>
      <trkpt lat="45.83361" lon="-0.67997">
        <ele>9</ele>
        <time>2017-06-25T10:27:35.999Z</time>
      </trkpt>
      <trkpt lat="45.8336" lon="-0.67999">
        <ele>9</ele>
        <time>2017-06-25T10:27:36.999Z</time>
      </trkpt>
      <trkpt lat="45.8336" lon="-0.68">
        <ele>10</ele>
        <time>2017-06-25T10:27:37.999Z</time>
      </trkpt>
      <trkpt lat="45.8336" lon="-0.68002">
        <ele>10</ele>
        <time>2017-06-25T10:27:38.999Z</time>
      </trkpt>
      <trkpt lat="45.8336" lon="-0.68003">
        <ele>10</ele>
        <time>2017-06-25T10:27:39.999Z</time>
      </trkpt>
      <trkpt lat="45.8336" lon="-0.68004">
        <ele>10</ele>
        <time>2017-06-25T10:27:40.999Z</time>
      </trkpt>
      <trkpt lat="45.8336" lon="-0.68007">
        <ele>10</ele>
        <time>2017-06-25T10:27:41.999Z</time>
      </trkpt>
      <trkpt lat="45.8336" lon="-0.68008">
        <ele>10</ele>
        <time>2017-06-25T10:27:42.999Z</time>
      </trkpt>
      <trkpt lat="45.8336" lon="-0.68011">
        <ele>10</ele>
        <time>2017-06-25T10:27:43.999Z</time>
      </trkpt>
      <trkpt lat="45.8336" lon="-0.68013">
        <ele>10</ele>
        <time>2017-06-25T10:27:44.999Z</time>
      </trkpt>
      <trkpt lat="45.8336" lon="-0.68016">
        <ele>10</ele>
        <time>2017-06-25T10:27:45.999Z</time>
      </trkpt>
      <trkpt lat="45.8336" lon="-0.68018">
        <ele>10</ele>
        <time>2017-06-25T10:27:46.999Z</time>
      </trkpt>
      <trkpt lat="45.8336" lon="-0.68019">
        <ele>10</ele>
        <time>2017-06-25T10:27:47.999Z</time>
      </trkpt>
      <trkpt lat="45.8336" lon="-0.68021">
        <ele>10</ele>
        <time>2017-06-25T10:27:48.999Z</time>
      </trkpt>
      <trkpt lat="45.8336" lon="-0.68024">
        <ele>10</ele>
        <time>2017-06-25T10:27:49.999Z</time>
      </trkpt>
      <trkpt lat="45.8336" lon="-0.68026">
        <ele>10</ele>
        <time>2017-06-25T10:27:50.999Z</time>
      </trkpt>
      <trkpt lat="45.83359" lon="-0.68028">
        <ele>10</ele>
        <time>2017-06-25T10:27:51.999Z</time>
      </trkpt>
      <trkpt lat="45.83359" lon="-0.6803">
        <ele>10</ele>
        <time>2017-06-25T10:27:52.999Z</time>
      </trkpt>
      <trkpt lat="45.83358" lon="-0.68033">
        <ele>10</ele>
        <time>2017-06-25T10:27:53.999Z</time>
      </trkpt>
      <trkpt lat="45.83358" lon="-0.68036">
        <ele>10</ele>
        <time>2017-06-25T10:27:54.999Z</time>
      </trkpt>
      <trkpt lat="45.83357" lon="-0.68038">
        <ele>10</ele>
        <time>2017-06-25T10:27:55.999Z</time>
      </trkpt>
      <trkpt lat="45.83357" lon="-0.6804">
        <ele>10</ele>
        <time>2017-06-25T10:27:56.999Z</time>
      </trkpt>
      <trkpt lat="45.83357" lon="-0.68043">
        <ele>10</ele>
        <time>2017-06-25T10:27:58.999Z</time>
      </trkpt>
      <trkpt lat="45.83356" lon="-0.68044">
        <ele>10</ele>
        <time>2017-06-25T10:27:59.999Z</time>
      </trkpt>
      <trkpt lat="45.83355" lon="-0.68045">
        <ele>10</ele>
        <time>2017-06-25T10:28:00.999Z</time>
      </trkpt>
      <trkpt lat="45.83355" lon="-0.68047">
        <ele>10</ele>
        <time>2017-06-25T10:28:01.999Z</time>
      </trkpt>
      <trkpt lat="45.83355" lon="-0.68048">
        <ele>10</ele>
        <time>2017-06-25T10:28:02.999Z</time>
      </trkpt>
      <trkpt lat="45.83355" lon="-0.6805">
        <ele>11</ele>
        <time>2017-06-25T10:28:03.999Z</time>
      </trkpt>
      <trkpt lat="45.83355" lon="-0.68052">
        <ele>11</ele>
        <time>2017-06-25T10:28:04.999Z</time>
      </trkpt>
      <trkpt lat="45.83355" lon="-0.68053">
        <ele>11</ele>
        <time>2017-06-25T10:28:05.999Z</time>
      </trkpt>
      <trkpt lat="45.83355" lon="-0.68055">
        <ele>11</ele>
        <time>2017-06-25T10:28:06.999Z</time>
      </trkpt>
      <trkpt lat="45.83355" lon="-0.68057">
        <ele>11</ele>
        <time>2017-06-25T10:28:07.999Z</time>
      </trkpt>
      <trkpt lat="45.83355" lon="-0.68059">
        <ele>11</ele>
        <time>2017-06-25T10:28:08.999Z</time>
      </trkpt>
      <trkpt lat="45.83355" lon="-0.68061">
        <ele>11</ele>
        <time>2017-06-25T10:28:09.999Z</time>
      </trkpt>
      <trkpt lat="45.83355" lon="-0.68063">
        <ele>11</ele>
        <time>2017-06-25T10:28:10.999Z</time>
      </trkpt>
      <trkpt lat="45.83355" lon="-0.68064">
        <ele>11</ele>
        <time>2017-06-25T10:28:11.999Z</time>
      </trkpt>
      <trkpt lat="45.83356" lon="-0.68066">
        <ele>11</ele>
        <time>2017-06-25T10:28:12.999Z</time>
      </trkpt>
      <trkpt lat="45.83356" lon="-0.68067">
        <ele>11</ele>
        <time>2017-06-25T10:28:13.999Z</time>
      </trkpt>
      <trkpt lat="45.83356" lon="-0.68069">
        <ele>11</ele>
        <time>2017-06-25T10:28:14.999Z</time>
      </trkpt>
      <trkpt lat="45.83357" lon="-0.68072">
        <ele>11</ele>
        <time>2017-06-25T10:28:15.999Z</time>
      </trkpt>
      <trkpt lat="45.83357" lon="-0.68073">
        <ele>11</ele>
        <time>2017-06-25T10:28:16.999Z</time>
      </trkpt>
      <trkpt lat="45.83357" lon="-0.68076">
        <ele>11</ele>
        <time>2017-06-25T10:28:18.999Z</time>
      </trkpt>
      <trkpt lat="45.83357" lon="-0.68078">
        <ele>11</ele>
        <time>2017-06-25T10:28:20.999Z</time>
      </trkpt>
      <trkpt lat="45.83357" lon="-0.6808">
        <ele>11</ele>
        <time>2017-06-25T10:28:21.999Z</time>
      </trkpt>
      <trkpt lat="45.83357" lon="-0.68082">
        <ele>11</ele>
        <time>2017-06-25T10:28:22.999Z</time>
      </trkpt>
      <trkpt lat="45.83357" lon="-0.68085">
        <ele>12</ele>
        <time>2017-06-25T10:28:24.999Z</time>
      </trkpt>
      <trkpt lat="45.83357" lon="-0.68087">
        <ele>12</ele>
        <time>2017-06-25T10:28:25.999Z</time>
      </trkpt>
      <trkpt lat="45.83356" lon="-0.68089">
        <ele>12</ele>
        <time>2017-06-25T10:28:26.999Z</time>
      </trkpt>
      <trkpt lat="45.83356" lon="-0.68091">
        <ele>12</ele>
        <time>2017-06-25T10:28:27.999Z</time>
      </trkpt>
      <trkpt lat="45.83356" lon="-0.68094">
        <ele>12</ele>
        <time>2017-06-25T10:28:28.999Z</time>
      </trkpt>
      <trkpt lat="45.83355" lon="-0.68096">
        <ele>12</ele>
        <time>2017-06-25T10:28:29.999Z</time>
      </trkpt>
      <trkpt lat="45.83355" lon="-0.68098">
        <ele>12</ele>
        <time>2017-06-25T10:28:30.999Z</time>
      </trkpt>
      <trkpt lat="45.83355" lon="-0.68099">
        <ele>12</ele>
        <time>2017-06-25T10:28:31.999Z</time>
      </trkpt>
      <trkpt lat="45.83354" lon="-0.68101">
        <ele>12</ele>
        <time>2017-06-25T10:28:32.999Z</time>
      </trkpt>
      <trkpt lat="45.83354" lon="-0.68103">
        <ele>12</ele>
        <time>2017-06-25T10:28:33.999Z</time>
      </trkpt>
      <trkpt lat="45.83353" lon="-0.68105">
        <ele>12</ele>
        <time>2017-06-25T10:28:34.999Z</time>
      </trkpt>
      <trkpt lat="45.83353" lon="-0.68106">
        <ele>12</ele>
        <time>2017-06-25T10:28:36.999Z</time>
      </trkpt>
      <trkpt lat="45.83352" lon="-0.68108">
        <ele>12</ele>
        <time>2017-06-25T10:28:37.999Z</time>
      </trkpt>
      <trkpt lat="45.83352" lon="-0.6811">
        <ele>13</ele>
        <time>2017-06-25T10:28:38.999Z</time>
      </trkpt>
      <trkpt lat="45.83352" lon="-0.68112">
        <ele>13</ele>
        <time>2017-06-25T10:28:39.999Z</time>
      </trkpt>
      <trkpt lat="45.83351" lon="-0.68113">
        <ele>13</ele>
        <time>2017-06-25T10:28:40.999Z</time>
      </trkpt>
      <trkpt lat="45.8335" lon="-0.68114">
        <ele>13</ele>
        <time>2017-06-25T10:28:41.999Z</time>
      </trkpt>
      <trkpt lat="45.8335" lon="-0.68116">
        <ele>13</ele>
        <time>2017-06-25T10:28:43.999Z</time>
      </trkpt>
      <trkpt lat="45.83349" lon="-0.68117">
        <ele>13</ele>
        <time>2017-06-25T10:28:44.999Z</time>
      </trkpt>
      <trkpt lat="45.83349" lon="-0.68119">
        <ele>13</ele>
        <time>2017-06-25T10:28:45.999Z</time>
      </trkpt>
      <trkpt lat="45.83348" lon="-0.68121">
        <ele>13</ele>
        <time>2017-06-25T10:28:46.999Z</time>
      </trkpt>
      <trkpt lat="45.83347" lon="-0.68122">
        <ele>13</ele>
        <time>2017-06-25T10:28:47.999Z</time>
      </trkpt>
      <trkpt lat="45.83347" lon="-0.68124">
        <ele>13</ele>
        <time>2017-06-25T10:28:49.999Z</time>
      </trkpt>
      <trkpt lat="45.83345" lon="-0.68126">
        <ele>13</ele>
        <time>2017-06-25T10:28:50.999Z</time>
      </trkpt>
      <trkpt lat="45.83345" lon="-0.68128">
        <ele>13</ele>
        <time>2017-06-25T10:28:52.999Z</time>
      </trkpt>
      <trkpt lat="45.83344" lon="-0.68131">
        <ele>13</ele>
        <time>2017-06-25T10:28:53.999Z</time>
      </trkpt>
      <trkpt lat="45.83343" lon="-0.68132">
        <ele>13</ele>
        <time>2017-06-25T10:28:54.999Z</time>
      </trkpt>
      <trkpt lat="45.83343" lon="-0.68134">
        <ele>13</ele>
        <time>2017-06-25T10:28:55.999Z</time>
      </trkpt>
      <trkpt lat="45.83343" lon="-0.68136">
        <ele>13</ele>
        <time>2017-06-25T10:28:56.999Z</time>
      </trkpt>
      <trkpt lat="45.83342" lon="-0.68137">
        <ele>13</ele>
        <time>2017-06-25T10:28:57.999Z</time>
      </trkpt>
      <trkpt lat="45.83342" lon="-0.68139">
        <ele>13</ele>
        <time>2017-06-25T10:28:58.999Z</time>
      </trkpt>
      <trkpt lat="45.83341" lon="-0.68141">
        <ele>13</ele>
        <time>2017-06-25T10:28:59.999Z</time>
      </trkpt>
      <trkpt lat="45.83341" lon="-0.68143">
        <ele>13</ele>
        <time>2017-06-25T10:29:00.999Z</time>
      </trkpt>
      <trkpt lat="45.83341" lon="-0.68145">
        <ele>13</ele>
        <time>2017-06-25T10:29:01.999Z</time>
      </trkpt>
      <trkpt lat="45.83341" lon="-0.68147">
        <ele>13</ele>
        <time>2017-06-25T10:29:02.999Z</time>
      </trkpt>
      <trkpt lat="45.83342" lon="-0.68149">
        <ele>13</ele>
        <time>2017-06-25T10:29:03.999Z</time>
      </trkpt>
      <trkpt lat="45.83343" lon="-0.68151">
        <ele>13</ele>
        <time>2017-06-25T10:29:04.999Z</time>
      </trkpt>
      <trkpt lat="45.83345" lon="-0.68152">
        <ele>13</ele>
        <time>2017-06-25T10:29:05.999Z</time>
      </trkpt>
      <trkpt lat="45.83346" lon="-0.68153">
        <ele>13</ele>
        <time>2017-06-25T10:29:06.999Z</time>
      </trkpt>
      <trkpt lat="45.83347" lon="-0.68154">
        <ele>13</ele>
        <time>2017-06-25T10:29:07.999Z</time>
      </trkpt>
      <trkpt lat="45.83349" lon="-0.68155">
        <ele>13</ele>
        <time>2017-06-25T10:29:08.999Z</time>
      </trkpt>
      <trkpt lat="45.8335" lon="-0.68156">
        <ele>13</ele>
        <time>2017-06-25T10:29:09.999Z</time>
      </trkpt>
      <trkpt lat="45.83351" lon="-0.68157">
        <ele>13</ele>
        <time>2017-06-25T10:29:10.999Z</time>
      </trkpt>
      <trkpt lat="45.83353" lon="-0.68158">
        <ele>13</ele>
        <time>2017-06-25T10:29:11.999Z</time>
      </trkpt>
      <trkpt lat="45.83354" lon="-0.68159">
        <ele>13</ele>
        <time>2017-06-25T10:29:12.999Z</time>
      </trkpt>
      <trkpt lat="45.83355" lon="-0.6816">
        <ele>13</ele>
        <time>2017-06-25T10:29:13.999Z</time>
      </trkpt>
      <trkpt lat="45.83357" lon="-0.68161">
        <ele>13</ele>
        <time>2017-06-25T10:29:14.999Z</time>
      </trkpt>
      <trkpt lat="45.83358" lon="-0.68161">
        <ele>13</ele>
        <time>2017-06-25T10:29:15.999Z</time>
      </trkpt>
      <trkpt lat="45.8336" lon="-0.68162">
        <ele>13</ele>
        <time>2017-06-25T10:29:16.999Z</time>
      </trkpt>
      <trkpt lat="45.83361" lon="-0.68162">
        <ele>13</ele>
        <time>2017-06-25T10:29:17.999Z</time>
      </trkpt>
      <trkpt lat="45.83362" lon="-0.68163">
        <ele>13</ele>
        <time>2017-06-25T10:29:18.999Z</time>
      </trkpt>
      <trkpt lat="45.83363" lon="-0.68164">
        <ele>14</ele>
        <time>2017-06-25T10:29:19.999Z</time>
      </trkpt>
      <trkpt lat="45.83365" lon="-0.68165">
        <ele>14</ele>
        <time>2017-06-25T10:29:20.999Z</time>
      </trkpt>
      <trkpt lat="45.83366" lon="-0.68166">
        <ele>14</ele>
        <time>2017-06-25T10:29:21.999Z</time>
      </trkpt>
      <trkpt lat="45.83367" lon="-0.68167">
        <ele>15</ele>
        <time>2017-06-25T10:29:22.999Z</time>
      </trkpt>
      <trkpt lat="45.83368" lon="-0.68168">
        <ele>15</ele>
        <time>2017-06-25T10:29:23.999Z</time>
      </trkpt>
      <trkpt lat="45.83369" lon="-0.68169">
        <ele>15</ele>
        <time>2017-06-25T10:29:24.999Z</time>
      </trkpt>
      <trkpt lat="45.8337" lon="-0.68169">
        <ele>15</ele>
        <time>2017-06-25T10:29:26.999Z</time>
      </trkpt>
      <trkpt lat="45.83371" lon="-0.6817">
        <ele>15</ele>
        <time>2017-06-25T10:29:27.999Z</time>
      </trkpt>
      <trkpt lat="45.83373" lon="-0.68171">
        <ele>15</ele>
        <time>2017-06-25T10:29:29.999Z</time>
      </trkpt>
      <trkpt lat="45.83374" lon="-0.68172">
        <ele>15</ele>
        <time>2017-06-25T10:29:30.999Z</time>
      </trkpt>
      <trkpt lat="45.83375" lon="-0.68173">
        <ele>15</ele>
        <time>2017-06-25T10:29:31.999Z</time>
      </trkpt>
      <trkpt lat="45.83376" lon="-0.68174">
        <ele>15</ele>
        <time>2017-06-25T10:29:32.999Z</time>
      </trkpt>
      <trkpt lat="45.83377" lon="-0.68175">
        <ele>15</ele>
        <time>2017-06-25T10:29:33.999Z</time>
      </trkpt>
      <trkpt lat="45.83378" lon="-0.68176">
        <ele>15</ele>
        <time>2017-06-25T10:29:34.999Z</time>
      </trkpt>
      <trkpt lat="45.83379" lon="-0.68177">
        <ele>15</ele>
        <time>2017-06-25T10:29:35.999Z</time>
      </trkpt>
      <trkpt lat="45.83381" lon="-0.68178">
        <ele>15</ele>
        <time>2017-06-25T10:29:36.999Z</time>
      </trkpt>
      <trkpt lat="45.83382" lon="-0.68178">
        <ele>15</ele>
        <time>2017-06-25T10:29:37.999Z</time>
      </trkpt>
      <trkpt lat="45.83384" lon="-0.68178">
        <ele>15</ele>
        <time>2017-06-25T10:29:38.999Z</time>
      </trkpt>
      <trkpt lat="45.83386" lon="-0.68179">
        <ele>15</ele>
        <time>2017-06-25T10:29:40.999Z</time>
      </trkpt>
      <trkpt lat="45.83387" lon="-0.6818">
        <ele>15</ele>
        <time>2017-06-25T10:29:41.999Z</time>
      </trkpt>
      <trkpt lat="45.83388" lon="-0.68181">
        <ele>15</ele>
        <time>2017-06-25T10:29:42.999Z</time>
      </trkpt>
      <trkpt lat="45.83389" lon="-0.68181">
        <ele>15</ele>
        <time>2017-06-25T10:29:43.999Z</time>
      </trkpt>
      <trkpt lat="45.8339" lon="-0.68181">
        <ele>15</ele>
        <time>2017-06-25T10:29:44.999Z</time>
      </trkpt>
      <trkpt lat="45.83392" lon="-0.68182">
        <ele>15</ele>
        <time>2017-06-25T10:29:45.999Z</time>
      </trkpt>
      <trkpt lat="45.83393" lon="-0.68183">
        <ele>15</ele>
        <time>2017-06-25T10:29:46.999Z</time>
      </trkpt>
      <trkpt lat="45.83394" lon="-0.68184">
        <ele>15</ele>
        <time>2017-06-25T10:29:47.999Z</time>
      </trkpt>
      <trkpt lat="45.83395" lon="-0.68185">
        <ele>15</ele>
        <time>2017-06-25T10:29:48.999Z</time>
      </trkpt>
      <trkpt lat="45.83395" lon="-0.68185">
        <ele>15</ele>
        <time>2017-06-25T10:29:49.999Z</time>
      </trkpt>
      <trkpt lat="45.83396" lon="-0.68186">
        <ele>15</ele>
        <time>2017-06-25T10:29:50.999Z</time>
      </trkpt>
      <trkpt lat="45.83397" lon="-0.68187">
        <ele>15</ele>
        <time>2017-06-25T10:29:51.999Z</time>
      </trkpt>
      <trkpt lat="45.83398" lon="-0.68188">
        <ele>15</ele>
        <time>2017-06-25T10:29:52.999Z</time>
      </trkpt>
      <trkpt lat="45.834" lon="-0.68188">
        <ele>15</ele>
        <time>2017-06-25T10:29:53.999Z</time>
      </trkpt>
      <trkpt lat="45.83401" lon="-0.68189">
        <ele>15</ele>
        <time>2017-06-25T10:29:54.999Z</time>
      </trkpt>
      <trkpt lat="45.83402" lon="-0.6819">
        <ele>15</ele>
        <time>2017-06-25T10:29:55.999Z</time>
      </trkpt>
      <trkpt lat="45.83404" lon="-0.68191">
        <ele>15</ele>
        <time>2017-06-25T10:29:56.999Z</time>
      </trkpt>
      <trkpt lat="45.83405" lon="-0.68192">
        <ele>15</ele>
        <time>2017-06-25T10:29:57.999Z</time>
      </trkpt>
      <trkpt lat="45.83406" lon="-0.68192">
        <ele>15</ele>
        <time>2017-06-25T10:29:58.999Z</time>
      </trkpt>
      <trkpt lat="45.83407" lon="-0.68193">
        <ele>15</ele>
        <time>2017-06-25T10:29:59.999Z</time>
      </trkpt>
      <trkpt lat="45.83409" lon="-0.68193">
        <ele>15</ele>
        <time>2017-06-25T10:30:00.999Z</time>
      </trkpt>
      <trkpt lat="45.8341" lon="-0.68194">
        <ele>15</ele>
        <time>2017-06-25T10:30:01.999Z</time>
      </trkpt>
      <trkpt lat="45.83411" lon="-0.68195">
        <ele>15</ele>
        <time>2017-06-25T10:30:02.999Z</time>
      </trkpt>
      <trkpt lat="45.83413" lon="-0.68196">
        <ele>15</ele>
        <time>2017-06-25T10:30:03.999Z</time>
      </trkpt>
      <trkpt lat="45.83415" lon="-0.68196">
        <ele>15</ele>
        <time>2017-06-25T10:30:04.999Z</time>
      </trkpt>
      <trkpt lat="45.83416" lon="-0.68196">
        <ele>15</ele>
        <time>2017-06-25T10:30:05.999Z</time>
      </trkpt>
      <trkpt lat="45.83418" lon="-0.68198">
        <ele>15</ele>
        <time>2017-06-25T10:30:07.999Z</time>
      </trkpt>
      <trkpt lat="45.83418" lon="-0.68198">
        <ele>15</ele>
        <time>2017-06-25T10:30:08.999Z</time>
      </trkpt>
      <trkpt lat="45.83419" lon="-0.68199">
        <ele>15</ele>
        <time>2017-06-25T10:30:09.999Z</time>
      </trkpt>
      <trkpt lat="45.83421" lon="-0.682">
        <ele>15</ele>
        <time>2017-06-25T10:30:10.999Z</time>
      </trkpt>
      <trkpt lat="45.83422" lon="-0.68201">
        <ele>15</ele>
        <time>2017-06-25T10:30:11.999Z</time>
      </trkpt>
      <trkpt lat="45.83423" lon="-0.68202">
        <ele>15</ele>
        <time>2017-06-25T10:30:12.999Z</time>
      </trkpt>
      <trkpt lat="45.83424" lon="-0.68203">
        <ele>15</ele>
        <time>2017-06-25T10:30:13.999Z</time>
      </trkpt>
      <trkpt lat="45.83425" lon="-0.68204">
        <ele>15</ele>
        <time>2017-06-25T10:30:14.999Z</time>
      </trkpt>
      <trkpt lat="45.83426" lon="-0.68205">
        <ele>15</ele>
        <time>2017-06-25T10:30:15.999Z</time>
      </trkpt>
      <trkpt lat="45.83427" lon="-0.68206">
        <ele>15</ele>
        <time>2017-06-25T10:30:16.999Z</time>
      </trkpt>
      <trkpt lat="45.83429" lon="-0.68206">
        <ele>15</ele>
        <time>2017-06-25T10:30:17.999Z</time>
      </trkpt>
      <trkpt lat="45.8343" lon="-0.68207">
        <ele>15</ele>
        <time>2017-06-25T10:30:18.999Z</time>
      </trkpt>
      <trkpt lat="45.83431" lon="-0.68208">
        <ele>15</ele>
        <time>2017-06-25T10:30:19.999Z</time>
      </trkpt>
      <trkpt lat="45.83432" lon="-0.68209">
        <ele>15</ele>
        <time>2017-06-25T10:30:21.999Z</time>
      </trkpt>
      <trkpt lat="45.83434" lon="-0.6821">
        <ele>15</ele>
        <time>2017-06-25T10:30:22.999Z</time>
      </trkpt>
      <trkpt lat="45.83435" lon="-0.68211">
        <ele>15</ele>
        <time>2017-06-25T10:30:23.999Z</time>
      </trkpt>
      <trkpt lat="45.83437" lon="-0.68212">
        <ele>15</ele>
        <time>2017-06-25T10:30:24.999Z</time>
      </trkpt>
      <trkpt lat="45.83439" lon="-0.68213">
        <ele>15</ele>
        <time>2017-06-25T10:30:25.999Z</time>
      </trkpt>
      <trkpt lat="45.8344" lon="-0.68214">
        <ele>15</ele>
        <time>2017-06-25T10:30:26.999Z</time>
      </trkpt>
      <trkpt lat="45.83442" lon="-0.68216">
        <ele>15</ele>
        <time>2017-06-25T10:30:27.999Z</time>
      </trkpt>
      <trkpt lat="45.83443" lon="-0.68217">
        <ele>15</ele>
        <time>2017-06-25T10:30:28.999Z</time>
      </trkpt>
      <trkpt lat="45.83444" lon="-0.68218">
        <ele>15</ele>
        <time>2017-06-25T10:30:29.999Z</time>
      </trkpt>
      <trkpt lat="45.83445" lon="-0.68219">
        <ele>15</ele>
        <time>2017-06-25T10:30:30.999Z</time>
      </trkpt>
      <trkpt lat="45.83447" lon="-0.6822">
        <ele>15</ele>
        <time>2017-06-25T10:30:31.999Z</time>
      </trkpt>
      <trkpt lat="45.83448" lon="-0.6822">
        <ele>15</ele>
        <time>2017-06-25T10:30:32.999Z</time>
      </trkpt>
      <trkpt lat="45.8345" lon="-0.68221">
        <ele>15</ele>
        <time>2017-06-25T10:30:33.999Z</time>
      </trkpt>
      <trkpt lat="45.83451" lon="-0.68222">
        <ele>15</ele>
        <time>2017-06-25T10:30:34.999Z</time>
      </trkpt>
      <trkpt lat="45.83452" lon="-0.68222">
        <ele>15</ele>
        <time>2017-06-25T10:30:35.999Z</time>
      </trkpt>
      <trkpt lat="45.83454" lon="-0.68223">
        <ele>15</ele>
        <time>2017-06-25T10:30:36.999Z</time>
      </trkpt>
      <trkpt lat="45.83455" lon="-0.68223">
        <ele>15</ele>
        <time>2017-06-25T10:30:37.999Z</time>
      </trkpt>
      <trkpt lat="45.83456" lon="-0.68223">
        <ele>15</ele>
        <time>2017-06-25T10:30:38.999Z</time>
      </trkpt>
      <trkpt lat="45.83457" lon="-0.68224">
        <ele>15</ele>
        <time>2017-06-25T10:30:39.999Z</time>
      </trkpt>
      <trkpt lat="45.83459" lon="-0.68224">
        <ele>15</ele>
        <time>2017-06-25T10:30:40.999Z</time>
      </trkpt>
      <trkpt lat="45.8346" lon="-0.68225">
        <ele>15</ele>
        <time>2017-06-25T10:30:41.999Z</time>
      </trkpt>
      <trkpt lat="45.83462" lon="-0.68226">
        <ele>15</ele>
        <time>2017-06-25T10:30:43.999Z</time>
      </trkpt>
      <trkpt lat="45.83463" lon="-0.68227">
        <ele>15</ele>
        <time>2017-06-25T10:30:45.999Z</time>
      </trkpt>
      <trkpt lat="45.83464" lon="-0.68228">
        <ele>15</ele>
        <time>2017-06-25T10:30:47.999Z</time>
      </trkpt>
      <trkpt lat="45.83465" lon="-0.68229">
        <ele>15</ele>
        <time>2017-06-25T10:30:49.999Z</time>
      </trkpt>
      <trkpt lat="45.83466" lon="-0.6823">
        <ele>15</ele>
        <time>2017-06-25T10:30:50.999Z</time>
      </trkpt>
      <trkpt lat="45.83468" lon="-0.6823">
        <ele>15</ele>
        <time>2017-06-25T10:30:52.999Z</time>
      </trkpt>
      <trkpt lat="45.83469" lon="-0.68231">
        <ele>15</ele>
        <time>2017-06-25T10:30:53.999Z</time>
      </trkpt>
      <trkpt lat="45.83471" lon="-0.68231">
        <ele>15</ele>
        <time>2017-06-25T10:30:54.999Z</time>
      </trkpt>
      <trkpt lat="45.83472" lon="-0.68232">
        <ele>15</ele>
        <time>2017-06-25T10:30:55.999Z</time>
      </trkpt>
      <trkpt lat="45.83474" lon="-0.68233">
        <ele>15</ele>
        <time>2017-06-25T10:30:56.999Z</time>
      </trkpt>
      <trkpt lat="45.83476" lon="-0.68234">
        <ele>15</ele>
        <time>2017-06-25T10:30:57.999Z</time>
      </trkpt>
      <trkpt lat="45.83477" lon="-0.68235">
        <ele>15</ele>
        <time>2017-06-25T10:30:58.999Z</time>
      </trkpt>
      <trkpt lat="45.83478" lon="-0.68236">
        <ele>15</ele>
        <time>2017-06-25T10:30:59.999Z</time>
      </trkpt>
      <trkpt lat="45.83479" lon="-0.68237">
        <ele>15</ele>
        <time>2017-06-25T10:31:00.999Z</time>
      </trkpt>
      <trkpt lat="45.8348" lon="-0.68238">
        <ele>15</ele>
        <time>2017-06-25T10:31:01.999Z</time>
      </trkpt>
      <trkpt lat="45.83481" lon="-0.68238">
        <ele>15</ele>
        <time>2017-06-25T10:31:02.999Z</time>
      </trkpt>
      <trkpt lat="45.83483" lon="-0.68239">
        <ele>15</ele>
        <time>2017-06-25T10:31:03.999Z</time>
      </trkpt>
      <trkpt lat="45.83484" lon="-0.6824">
        <ele>15</ele>
        <time>2017-06-25T10:31:04.999Z</time>
      </trkpt>
      <trkpt lat="45.83485" lon="-0.68241">
        <ele>15</ele>
        <time>2017-06-25T10:31:05.999Z</time>
      </trkpt>
      <trkpt lat="45.83487" lon="-0.68242">
        <ele>16</ele>
        <time>2017-06-25T10:31:07.999Z</time>
      </trkpt>
      <trkpt lat="45.83488" lon="-0.68243">
        <ele>16</ele>
        <time>2017-06-25T10:31:08.999Z</time>
      </trkpt>
      <trkpt lat="45.83489" lon="-0.68244">
        <ele>16</ele>
        <time>2017-06-25T10:31:09.999Z</time>
      </trkpt>
      <trkpt lat="45.8349" lon="-0.68246">
        <ele>16</ele>
        <time>2017-06-25T10:31:10.999Z</time>
      </trkpt>
      <trkpt lat="45.83492" lon="-0.68247">
        <ele>16</ele>
        <time>2017-06-25T10:31:11.999Z</time>
      </trkpt>
      <trkpt lat="45.83493" lon="-0.68247">
        <ele>16</ele>
        <time>2017-06-25T10:31:12.999Z</time>
      </trkpt>
      <trkpt lat="45.83493" lon="-0.68248">
        <ele>16</ele>
        <time>2017-06-25T10:31:13.999Z</time>
      </trkpt>
      <trkpt lat="45.83494" lon="-0.68249">
        <ele>16</ele>
        <time>2017-06-25T10:31:14.999Z</time>
      </trkpt>
      <trkpt lat="45.83496" lon="-0.68249">
        <ele>16</ele>
        <time>2017-06-25T10:31:15.999Z</time>
      </trkpt>
      <trkpt lat="45.83497" lon="-0.68249">
        <ele>16</ele>
        <time>2017-06-25T10:31:16.999Z</time>
      </trkpt>
      <trkpt lat="45.83498" lon="-0.6825">
        <ele>16</ele>
        <time>2017-06-25T10:31:17.999Z</time>
      </trkpt>
      <trkpt lat="45.835" lon="-0.6825">
        <ele>16</ele>
        <time>2017-06-25T10:31:18.999Z</time>
      </trkpt>
      <trkpt lat="45.83501" lon="-0.68251">
        <ele>16</ele>
        <time>2017-06-25T10:31:19.999Z</time>
      </trkpt>
      <trkpt lat="45.83502" lon="-0.68252">
        <ele>16</ele>
        <time>2017-06-25T10:31:20.999Z</time>
      </trkpt>
      <trkpt lat="45.83503" lon="-0.68253">
        <ele>16</ele>
        <time>2017-06-25T10:31:21.999Z</time>
      </trkpt>
      <trkpt lat="45.83504" lon="-0.68254">
        <ele>16</ele>
        <time>2017-06-25T10:31:22.999Z</time>
      </trkpt>
      <trkpt lat="45.83505" lon="-0.68256">
        <ele>16</ele>
        <time>2017-06-25T10:31:23.999Z</time>
      </trkpt>
      <trkpt lat="45.83505" lon="-0.68258">
        <ele>16</ele>
        <time>2017-06-25T10:31:24.999Z</time>
      </trkpt>
      <trkpt lat="45.83505" lon="-0.68262">
        <ele>16</ele>
        <time>2017-06-25T10:31:26.999Z</time>
      </trkpt>
      <trkpt lat="45.83505" lon="-0.68264">
        <ele>16</ele>
        <time>2017-06-25T10:31:28.999Z</time>
      </trkpt>
      <trkpt lat="45.83505" lon="-0.68266">
        <ele>16</ele>
        <time>2017-06-25T10:31:29.999Z</time>
      </trkpt>
      <trkpt lat="45.83505" lon="-0.68267">
        <ele>16</ele>
        <time>2017-06-25T10:31:30.999Z</time>
      </trkpt>
      <trkpt lat="45.83505" lon="-0.68269">
        <ele>16</ele>
        <time>2017-06-25T10:31:31.999Z</time>
      </trkpt>
      <trkpt lat="45.83504" lon="-0.68271">
        <ele>16</ele>
        <time>2017-06-25T10:31:32.999Z</time>
      </trkpt>
      <trkpt lat="45.83504" lon="-0.68273">
        <ele>16</ele>
        <time>2017-06-25T10:31:34.999Z</time>
      </trkpt>
      <trkpt lat="45.83504" lon="-0.68274">
        <ele>16</ele>
        <time>2017-06-25T10:31:35.999Z</time>
      </trkpt>
      <trkpt lat="45.83504" lon="-0.68276">
        <ele>16</ele>
        <time>2017-06-25T10:31:36.999Z</time>
      </trkpt>
      <trkpt lat="45.83504" lon="-0.6828">
        <ele>16</ele>
        <time>2017-06-25T10:31:38.999Z</time>
      </trkpt>
      <trkpt lat="45.83505" lon="-0.68284">
        <ele>16</ele>
        <time>2017-06-25T10:31:40.999Z</time>
      </trkpt>
      <trkpt lat="45.83505" lon="-0.68285">
        <ele>16</ele>
        <time>2017-06-25T10:31:41.999Z</time>
      </trkpt>
      <trkpt lat="45.83504" lon="-0.68288">
        <ele>16</ele>
        <time>2017-06-25T10:31:42.999Z</time>
      </trkpt>
      <trkpt lat="45.83504" lon="-0.68289">
        <ele>16</ele>
        <time>2017-06-25T10:31:43.999Z</time>
      </trkpt>
      <trkpt lat="45.83505" lon="-0.68291">
        <ele>16</ele>
        <time>2017-06-25T10:31:44.999Z</time>
      </trkpt>
      <trkpt lat="45.83505" lon="-0.68293">
        <ele>16</ele>
        <time>2017-06-25T10:31:45.999Z</time>
      </trkpt>
      <trkpt lat="45.83506" lon="-0.68295">
        <ele>16</ele>
        <time>2017-06-25T10:31:46.999Z</time>
      </trkpt>
      <trkpt lat="45.83506" lon="-0.68297">
        <ele>16</ele>
        <time>2017-06-25T10:31:47.999Z</time>
      </trkpt>
      <trkpt lat="45.83506" lon="-0.68299">
        <ele>16</ele>
        <time>2017-06-25T10:31:48.999Z</time>
      </trkpt>
      <trkpt lat="45.83506" lon="-0.68302">
        <ele>16</ele>
        <time>2017-06-25T10:31:49.999Z</time>
      </trkpt>
      <trkpt lat="45.83507" lon="-0.68306">
        <ele>16</ele>
        <time>2017-06-25T10:31:51.999Z</time>
      </trkpt>
      <trkpt lat="45.83507" lon="-0.68308">
        <ele>16</ele>
        <time>2017-06-25T10:31:52.999Z</time>
      </trkpt>
      <trkpt lat="45.83506" lon="-0.68309">
        <ele>16</ele>
        <time>2017-06-25T10:31:53.999Z</time>
      </trkpt>
      <trkpt lat="45.83506" lon="-0.68313">
        <ele>16</ele>
        <time>2017-06-25T10:31:55.999Z</time>
      </trkpt>
      <trkpt lat="45.83506" lon="-0.68316">
        <ele>16</ele>
        <time>2017-06-25T10:31:58.999Z</time>
      </trkpt>
      <trkpt lat="45.83506" lon="-0.68318">
        <ele>16</ele>
        <time>2017-06-25T10:31:59.999Z</time>
      </trkpt>
      <trkpt lat="45.83507" lon="-0.6832">
        <ele>16</ele>
        <time>2017-06-25T10:32:01.999Z</time>
      </trkpt>
      <trkpt lat="45.83507" lon="-0.68324">
        <ele>16</ele>
        <time>2017-06-25T10:32:04.999Z</time>
      </trkpt>
      <trkpt lat="45.83508" lon="-0.68325">
        <ele>16</ele>
        <time>2017-06-25T10:32:05.999Z</time>
      </trkpt>
      <trkpt lat="45.83508" lon="-0.68326">
        <ele>16</ele>
        <time>2017-06-25T10:32:06.999Z</time>
      </trkpt>
      <trkpt lat="45.83508" lon="-0.68328">
        <ele>16</ele>
        <time>2017-06-25T10:32:07.999Z</time>
      </trkpt>
      <trkpt lat="45.83509" lon="-0.6833">
        <ele>16</ele>
        <time>2017-06-25T10:32:08.999Z</time>
      </trkpt>
      <trkpt lat="45.83509" lon="-0.68334">
        <ele>16</ele>
        <time>2017-06-25T10:32:10.999Z</time>
      </trkpt>
      <trkpt lat="45.83509" lon="-0.68335">
        <ele>16</ele>
        <time>2017-06-25T10:32:11.999Z</time>
      </trkpt>
      <trkpt lat="45.83509" lon="-0.68339">
        <ele>16</ele>
        <time>2017-06-25T10:32:13.999Z</time>
      </trkpt>
      <trkpt lat="45.83509" lon="-0.68341">
        <ele>16</ele>
        <time>2017-06-25T10:32:15.999Z</time>
      </trkpt>
      <trkpt lat="45.83509" lon="-0.68345">
        <ele>16</ele>
        <time>2017-06-25T10:32:17.999Z</time>
      </trkpt>
      <trkpt lat="45.83508" lon="-0.68346">
        <ele>16</ele>
        <time>2017-06-25T10:32:26.999Z</time>
      </trkpt>
      <trkpt lat="45.83508" lon="-0.68348">
        <ele>16</ele>
        <time>2017-06-25T10:32:27.999Z</time>
      </trkpt>
      <trkpt lat="45.83507" lon="-0.6835">
        <ele>16</ele>
        <time>2017-06-25T10:32:30.999Z</time>
      </trkpt>
      <trkpt lat="45.83506" lon="-0.68352">
        <ele>16</ele>
        <time>2017-06-25T10:32:33.999Z</time>
      </trkpt>
      <trkpt lat="45.83506" lon="-0.68354">
        <ele>16</ele>
        <time>2017-06-25T10:32:35.999Z</time>
      </trkpt>
      <trkpt lat="45.83506" lon="-0.68356">
        <ele>16</ele>
        <time>2017-06-25T10:32:48.999Z</time>
      </trkpt>
      <trkpt lat="45.83507" lon="-0.68355">
        <ele>16</ele>
        <time>2017-06-25T10:32:49.999Z</time>
      </trkpt>
      <trkpt lat="45.83508" lon="-0.68354">
        <ele>16</ele>
        <time>2017-06-25T10:32:50.999Z</time>
      </trkpt>
      <trkpt lat="45.83508" lon="-0.68354">
        <ele>16</ele>
        <time>2017-06-25T10:32:51.999Z</time>
      </trkpt>
      <trkpt lat="45.83509" lon="-0.68354">
        <ele>16</ele>
        <time>2017-06-25T10:32:52.999Z</time>
      </trkpt>
      <trkpt lat="45.83511" lon="-0.68355">
        <ele>16</ele>
        <time>2017-06-25T10:32:55.999Z</time>
      </trkpt>
      <trkpt lat="45.83511" lon="-0.68357">
        <ele>16</ele>
        <time>2017-06-25T10:32:56.999Z</time>
      </trkpt>
      <trkpt lat="45.83511" lon="-0.68358">
        <ele>16</ele>
        <time>2017-06-25T10:32:57.999Z</time>
      </trkpt>
      <trkpt lat="45.83511" lon="-0.6836">
        <ele>16</ele>
        <time>2017-06-25T10:32:58.999Z</time>
      </trkpt>
      <trkpt lat="45.83512" lon="-0.68362">
        <ele>16</ele>
        <time>2017-06-25T10:33:00.999Z</time>
      </trkpt>
      <trkpt lat="45.83512" lon="-0.68365">
        <ele>16</ele>
        <time>2017-06-25T10:33:02.999Z</time>
      </trkpt>
      <trkpt lat="45.83512" lon="-0.68367">
        <ele>16</ele>
        <time>2017-06-25T10:33:04.999Z</time>
      </trkpt>
      <trkpt lat="45.83511" lon="-0.68369">
        <ele>16</ele>
        <time>2017-06-25T10:33:06.999Z</time>
      </trkpt>
      <trkpt lat="45.83512" lon="-0.68371">
        <ele>16</ele>
        <time>2017-06-25T10:33:07.999Z</time>
      </trkpt>
      <trkpt lat="45.83512" lon="-0.68373">
        <ele>16</ele>
        <time>2017-06-25T10:33:08.999Z</time>
      </trkpt>
      <trkpt lat="45.83512" lon="-0.68375">
        <ele>16</ele>
        <time>2017-06-25T10:33:10.999Z</time>
      </trkpt>
      <trkpt lat="45.83511" lon="-0.68377">
        <ele>16</ele>
        <time>2017-06-25T10:33:11.999Z</time>
      </trkpt>
      <trkpt lat="45.83512" lon="-0.68379">
        <ele>16</ele>
        <time>2017-06-25T10:33:12.999Z</time>
      </trkpt>
      <trkpt lat="45.83512" lon="-0.68381">
        <ele>16</ele>
        <time>2017-06-25T10:33:13.999Z</time>
      </trkpt>
      <trkpt lat="45.83513" lon="-0.68382">
        <ele>16</ele>
        <time>2017-06-25T10:33:14.999Z</time>
      </trkpt>
      <trkpt lat="45.83513" lon="-0.68384">
        <ele>16</ele>
        <time>2017-06-25T10:33:15.999Z</time>
      </trkpt>
      <trkpt lat="45.83512" lon="-0.68385">
        <ele>16</ele>
        <time>2017-06-25T10:33:16.999Z</time>
      </trkpt>
      <trkpt lat="45.83512" lon="-0.68387">
        <ele>16</ele>
        <time>2017-06-25T10:33:17.999Z</time>
      </trkpt>
      <trkpt lat="45.83512" lon="-0.68388">
        <ele>16</ele>
        <time>2017-06-25T10:33:18.999Z</time>
      </trkpt>
      <trkpt lat="45.83512" lon="-0.6839">
        <ele>16</ele>
        <time>2017-06-25T10:33:19.999Z</time>
      </trkpt>
      <trkpt lat="45.83512" lon="-0.68392">
        <ele>16</ele>
        <time>2017-06-25T10:33:20.999Z</time>
      </trkpt>
      <trkpt lat="45.83512" lon="-0.68393">
        <ele>16</ele>
        <time>2017-06-25T10:33:21.999Z</time>
      </trkpt>
      <trkpt lat="45.83511" lon="-0.68394">
        <ele>16</ele>
        <time>2017-06-25T10:33:22.999Z</time>
      </trkpt>
      <trkpt lat="45.83511" lon="-0.68396">
        <ele>16</ele>
        <time>2017-06-25T10:33:23.999Z</time>
      </trkpt>
      <trkpt lat="45.83511" lon="-0.68398">
        <ele>16</ele>
        <time>2017-06-25T10:33:24.999Z</time>
      </trkpt>
      <trkpt lat="45.8351" lon="-0.684">
        <ele>16</ele>
        <time>2017-06-25T10:33:26.999Z</time>
      </trkpt>
      <trkpt lat="45.8351" lon="-0.68402">
        <ele>16</ele>
        <time>2017-06-25T10:33:27.999Z</time>
      </trkpt>
      <trkpt lat="45.8351" lon="-0.68404">
        <ele>16</ele>
        <time>2017-06-25T10:33:28.999Z</time>
      </trkpt>
      <trkpt lat="45.8351" lon="-0.68406">
        <ele>16</ele>
        <time>2017-06-25T10:33:29.999Z</time>
      </trkpt>
      <trkpt lat="45.8351" lon="-0.68407">
        <ele>16</ele>
        <time>2017-06-25T10:33:30.999Z</time>
      </trkpt>
      <trkpt lat="45.83511" lon="-0.68409">
        <ele>16</ele>
        <time>2017-06-25T10:33:31.999Z</time>
      </trkpt>
      <trkpt lat="45.8351" lon="-0.68411">
        <ele>16</ele>
        <time>2017-06-25T10:33:32.999Z</time>
      </trkpt>
      <trkpt lat="45.8351" lon="-0.68413">
        <ele>16</ele>
        <time>2017-06-25T10:33:34.999Z</time>
      </trkpt>
      <trkpt lat="45.83509" lon="-0.68416">
        <ele>16</ele>
        <time>2017-06-25T10:33:36.999Z</time>
      </trkpt>
      <trkpt lat="45.83509" lon="-0.68418">
        <ele>16</ele>
        <time>2017-06-25T10:33:38.999Z</time>
      </trkpt>
      <trkpt lat="45.83508" lon="-0.68421">
        <ele>16</ele>
        <time>2017-06-25T10:33:40.999Z</time>
      </trkpt>
      <trkpt lat="45.83507" lon="-0.68422">
        <ele>16</ele>
        <time>2017-06-25T10:33:41.999Z</time>
      </trkpt>
      <trkpt lat="45.83507" lon="-0.68424">
        <ele>16</ele>
        <time>2017-06-25T10:33:42.999Z</time>
      </trkpt>
      <trkpt lat="45.83506" lon="-0.68426">
        <ele>16</ele>
        <time>2017-06-25T10:33:43.999Z</time>
      </trkpt>
      <trkpt lat="45.83505" lon="-0.68427">
        <ele>16</ele>
        <time>2017-06-25T10:33:44.999Z</time>
      </trkpt>
      <trkpt lat="45.83505" lon="-0.68429">
        <ele>16</ele>
        <time>2017-06-25T10:33:45.999Z</time>
      </trkpt>
      <trkpt lat="45.83504" lon="-0.68431">
        <ele>16</ele>
        <time>2017-06-25T10:33:46.999Z</time>
      </trkpt>
      <trkpt lat="45.83505" lon="-0.68435">
        <ele>17</ele>
        <time>2017-06-25T10:33:48.999Z</time>
      </trkpt>
      <trkpt lat="45.83505" lon="-0.68437">
        <ele>17</ele>
        <time>2017-06-25T10:33:49.999Z</time>
      </trkpt>
      <trkpt lat="45.83504" lon="-0.68439">
        <ele>17</ele>
        <time>2017-06-25T10:33:50.999Z</time>
      </trkpt>
      <trkpt lat="45.83504" lon="-0.68441">
        <ele>17</ele>
        <time>2017-06-25T10:33:51.999Z</time>
      </trkpt>
      <trkpt lat="45.83504" lon="-0.68443">
        <ele>17</ele>
        <time>2017-06-25T10:33:53.999Z</time>
      </trkpt>
      <trkpt lat="45.83504" lon="-0.68445">
        <ele>17</ele>
        <time>2017-06-25T10:33:54.999Z</time>
      </trkpt>
      <trkpt lat="45.83503" lon="-0.68446">
        <ele>17</ele>
        <time>2017-06-25T10:33:55.999Z</time>
      </trkpt>
      <trkpt lat="45.83503" lon="-0.68448">
        <ele>17</ele>
        <time>2017-06-25T10:33:56.999Z</time>
      </trkpt>
      <trkpt lat="45.83503" lon="-0.6845">
        <ele>17</ele>
        <time>2017-06-25T10:33:57.999Z</time>
      </trkpt>
      <trkpt lat="45.83503" lon="-0.68451">
        <ele>17</ele>
        <time>2017-06-25T10:33:58.999Z</time>
      </trkpt>
      <trkpt lat="45.83502" lon="-0.68453">
        <ele>17</ele>
        <time>2017-06-25T10:34:00.999Z</time>
      </trkpt>
      <trkpt lat="45.83501" lon="-0.68454">
        <ele>17</ele>
        <time>2017-06-25T10:34:02.999Z</time>
      </trkpt>
      <trkpt lat="45.835" lon="-0.68456">
        <ele>17</ele>
        <time>2017-06-25T10:34:04.999Z</time>
      </trkpt>
      <trkpt lat="45.835" lon="-0.68457">
        <ele>17</ele>
        <time>2017-06-25T10:34:06.999Z</time>
      </trkpt>
      <trkpt lat="45.835" lon="-0.68459">
        <ele>17</ele>
        <time>2017-06-25T10:34:08.999Z</time>
      </trkpt>
      <trkpt lat="45.835" lon="-0.68461">
        <ele>17</ele>
        <time>2017-06-25T10:34:09.999Z</time>
      </trkpt>
      <trkpt lat="45.83501" lon="-0.68463">
        <ele>17</ele>
        <time>2017-06-25T10:34:10.999Z</time>
      </trkpt>
      <trkpt lat="45.83502" lon="-0.68464">
        <ele>17</ele>
        <time>2017-06-25T10:34:11.999Z</time>
      </trkpt>
      <trkpt lat="45.83503" lon="-0.68466">
        <ele>17</ele>
        <time>2017-06-25T10:34:12.999Z</time>
      </trkpt>
      <trkpt lat="45.83503" lon="-0.68468">
        <ele>17</ele>
        <time>2017-06-25T10:34:13.999Z</time>
      </trkpt>
      <trkpt lat="45.83504" lon="-0.6847">
        <ele>17</ele>
        <time>2017-06-25T10:34:14.999Z</time>
      </trkpt>
      <trkpt lat="45.83505" lon="-0.68471">
        <ele>17</ele>
        <time>2017-06-25T10:34:15.999Z</time>
      </trkpt>
      <trkpt lat="45.83505" lon="-0.68472">
        <ele>17</ele>
        <time>2017-06-25T10:34:16.999Z</time>
      </trkpt>
      <trkpt lat="45.83505" lon="-0.68474">
        <ele>17</ele>
        <time>2017-06-25T10:34:17.999Z</time>
      </trkpt>
      <trkpt lat="45.83506" lon="-0.68477">
        <ele>17</ele>
        <time>2017-06-25T10:34:19.999Z</time>
      </trkpt>
      <trkpt lat="45.83507" lon="-0.68479">
        <ele>17</ele>
        <time>2017-06-25T10:34:20.999Z</time>
      </trkpt>
      <trkpt lat="45.83508" lon="-0.68481">
        <ele>17</ele>
        <time>2017-06-25T10:34:21.999Z</time>
      </trkpt>
      <trkpt lat="45.83508" lon="-0.68484">
        <ele>17</ele>
        <time>2017-06-25T10:34:22.999Z</time>
      </trkpt>
      <trkpt lat="45.83509" lon="-0.68485">
        <ele>17</ele>
        <time>2017-06-25T10:34:23.999Z</time>
      </trkpt>
      <trkpt lat="45.83509" lon="-0.68488">
        <ele>17</ele>
        <time>2017-06-25T10:34:25.999Z</time>
      </trkpt>
      <trkpt lat="45.83509" lon="-0.6849">
        <ele>17</ele>
        <time>2017-06-25T10:34:26.999Z</time>
      </trkpt>
      <trkpt lat="45.83509" lon="-0.68492">
        <ele>17</ele>
        <time>2017-06-25T10:34:27.999Z</time>
      </trkpt>
      <trkpt lat="45.83508" lon="-0.68494">
        <ele>17</ele>
        <time>2017-06-25T10:34:28.999Z</time>
      </trkpt>
      <trkpt lat="45.83508" lon="-0.68496">
        <ele>17</ele>
        <time>2017-06-25T10:34:29.999Z</time>
      </trkpt>
      <trkpt lat="45.83508" lon="-0.68497">
        <ele>17</ele>
        <time>2017-06-25T10:34:30.999Z</time>
      </trkpt>
      <trkpt lat="45.83508" lon="-0.68499">
        <ele>17</ele>
        <time>2017-06-25T10:34:32.999Z</time>
      </trkpt>
      <trkpt lat="45.83508" lon="-0.68501">
        <ele>17</ele>
        <time>2017-06-25T10:34:33.999Z</time>
      </trkpt>
      <trkpt lat="45.83508" lon="-0.68504">
        <ele>17</ele>
        <time>2017-06-25T10:34:35.999Z</time>
      </trkpt>
      <trkpt lat="45.83507" lon="-0.68506">
        <ele>17</ele>
        <time>2017-06-25T10:34:36.999Z</time>
      </trkpt>
      <trkpt lat="45.83507" lon="-0.68507">
        <ele>17</ele>
        <time>2017-06-25T10:34:37.999Z</time>
      </trkpt>
      <trkpt lat="45.83506" lon="-0.68509">
        <ele>17</ele>
        <time>2017-06-25T10:34:38.999Z</time>
      </trkpt>
      <trkpt lat="45.83506" lon="-0.68511">
        <ele>17</ele>
        <time>2017-06-25T10:34:39.999Z</time>
      </trkpt>
      <trkpt lat="45.83506" lon="-0.68512">
        <ele>17</ele>
        <time>2017-06-25T10:34:40.999Z</time>
      </trkpt>
      <trkpt lat="45.83507" lon="-0.68514">
        <ele>17</ele>
        <time>2017-06-25T10:34:41.999Z</time>
      </trkpt>
      <trkpt lat="45.83507" lon="-0.68515">
        <ele>17</ele>
        <time>2017-06-25T10:34:42.999Z</time>
      </trkpt>
      <trkpt lat="45.83506" lon="-0.68517">
        <ele>17</ele>
        <time>2017-06-25T10:34:44.999Z</time>
      </trkpt>
      <trkpt lat="45.83506" lon="-0.68519">
        <ele>17</ele>
        <time>2017-06-25T10:34:45.999Z</time>
      </trkpt>
      <trkpt lat="45.83506" lon="-0.6852">
        <ele>17</ele>
        <time>2017-06-25T10:34:46.999Z</time>
      </trkpt>
      <trkpt lat="45.83506" lon="-0.68522">
        <ele>17</ele>
        <time>2017-06-25T10:34:48.999Z</time>
      </trkpt>
      <trkpt lat="45.83506" lon="-0.68524">
        <ele>17</ele>
        <time>2017-06-25T10:34:49.999Z</time>
      </trkpt>
      <trkpt lat="45.83506" lon="-0.68525">
        <ele>17</ele>
        <time>2017-06-25T10:34:50.999Z</time>
      </trkpt>
      <trkpt lat="45.83506" lon="-0.68528">
        <ele>17</ele>
        <time>2017-06-25T10:34:52.999Z</time>
      </trkpt>
      <trkpt lat="45.83506" lon="-0.68529">
        <ele>17</ele>
        <time>2017-06-25T10:34:55.999Z</time>
      </trkpt>
      <trkpt lat="45.83507" lon="-0.68531">
        <ele>17</ele>
        <time>2017-06-25T10:35:01.999Z</time>
      </trkpt>
      <trkpt lat="45.83508" lon="-0.68533">
        <ele>17</ele>
        <time>2017-06-25T10:35:04.999Z</time>
      </trkpt>
      <trkpt lat="45.83509" lon="-0.68534">
        <ele>17</ele>
        <time>2017-06-25T10:35:06.999Z</time>
      </trkpt>
      <trkpt lat="45.8351" lon="-0.68535">
        <ele>17</ele>
        <time>2017-06-25T10:35:13.999Z</time>
      </trkpt>
      <trkpt lat="45.83511" lon="-0.68536">
        <ele>17</ele>
        <time>2017-06-25T10:35:15.999Z</time>
      </trkpt>
      <trkpt lat="45.83511" lon="-0.68538">
        <ele>17</ele>
        <time>2017-06-25T10:35:20.999Z</time>
      </trkpt>
      <trkpt lat="45.8351" lon="-0.68539">
        <ele>17</ele>
        <time>2017-06-25T10:35:24.999Z</time>
      </trkpt>
      <trkpt lat="45.8351" lon="-0.68543">
        <ele>17</ele>
        <time>2017-06-25T10:35:27.999Z</time>
      </trkpt>
      <trkpt lat="45.83509" lon="-0.68544">
        <ele>17</ele>
        <time>2017-06-25T10:35:29.999Z</time>
      </trkpt>
      <trkpt lat="45.83508" lon="-0.68545">
        <ele>17</ele>
        <time>2017-06-25T10:35:34.999Z</time>
      </trkpt>
      <trkpt lat="45.83507" lon="-0.68546">
        <ele>17</ele>
        <time>2017-06-25T10:35:39.999Z</time>
      </trkpt>
      <trkpt lat="45.83507" lon="-0.68544">
        <ele>17</ele>
        <time>2017-06-25T10:35:44.999Z</time>
      </trkpt>
      <trkpt lat="45.83508" lon="-0.68546">
        <ele>17</ele>
        <time>2017-06-25T10:35:49.999Z</time>
      </trkpt>
      <trkpt lat="45.83509" lon="-0.68546">
        <ele>17</ele>
        <time>2017-06-25T10:35:51.999Z</time>
      </trkpt>
      <trkpt lat="45.8351" lon="-0.68546">
        <ele>17</ele>
        <time>2017-06-25T10:36:03.999Z</time>
      </trkpt>
      <trkpt lat="45.83511" lon="-0.68547">
        <ele>17</ele>
        <time>2017-06-25T10:36:08.999Z</time>
      </trkpt>
      <trkpt lat="45.83511" lon="-0.68545">
        <ele>17</ele>
        <time>2017-06-25T10:36:24.999Z</time>
      </trkpt>
      <trkpt lat="45.8351" lon="-0.68546">
        <ele>17</ele>
        <time>2017-06-25T10:36:28.999Z</time>
      </trkpt>
      <trkpt lat="45.83509" lon="-0.68545">
        <ele>17</ele>
        <time>2017-06-25T10:36:32.999Z</time>
      </trkpt>
      <trkpt lat="45.83509" lon="-0.68544">
        <ele>17</ele>
        <time>2017-06-25T10:36:36.999Z</time>
      </trkpt>
      <trkpt lat="45.8351" lon="-0.68545">
        <ele>17</ele>
        <time>2017-06-25T10:36:41.999Z</time>
      </trkpt>
      <trkpt lat="45.83509" lon="-0.68544">
        <ele>17</ele>
        <time>2017-06-25T10:36:58.999Z</time>
      </trkpt>
      <trkpt lat="45.83508" lon="-0.68544">
        <ele>17</ele>
        <time>2017-06-25T10:37:17.999Z</time>
      </trkpt>
    </trkseg>
  </trk>
</gpx>